<?xml version='1.0' encoding='UTF-8'?><gpx version="1.1" creator="JPX - https://github.com/jenetics/jpx" xmlns="http://www.topografix.com/GPX/1/1"><trk><trkseg><trkpt lat="46.400377710689284" lon="6.608394597382107"><ele>415.00000000000006</ele><time>2026-04-18T15:01:07Z</time></trkpt><trkpt lat="46.400423658188565" lon="6.608517289974499"><ele>415.0</ele><time>2026-04-18T15:01:09Z</time></trkpt><trkpt lat="46.4004426202606" lon="6.6086477554823455"><ele>415.0</ele><time>2026-04-18T15:01:11Z</time></trkpt><trkpt lat="46.40048475621034" lon="6.608716589907053"><ele>415.0</ele><time>2026-04-18T15:01:13Z</time></trkpt><trkpt lat="46.40057177469696" lon="6.608768241053852"><ele>415.00000000000006</ele><time>2026-04-18T15:01:15Z</time></trkpt><trkpt lat="46.400641151411364" lon="6.608785309170201"><ele>415.0</ele><time>2026-04-18T15:01:17Z</time></trkpt><trkpt lat="46.40070354786202" lon="6.608813521234032"><ele>410.25</ele><time>2026-04-18T15:01:23Z</time></trkpt><trkpt lat="46.40074132498064" lon="6.608629945814917"><ele>405.5</ele><time>2026-04-18T15:01:26Z</time></trkpt><trkpt lat="46.40069606230493" lon="6.608453897969394"><ele>400.75</ele><time>2026-04-18T15:01:28Z</time></trkpt><trkpt lat="46.40069521985561" lon="6.608345687827339"><ele>396.0</ele><time>2026-04-18T15:01:29Z</time></trkpt><trkpt lat="46.40066907297797" lon="6.608170530029967"><ele>396.0</ele><time>2026-04-18T15:01:31Z</time></trkpt><trkpt lat="46.40064812922266" lon="6.608030227572492"><ele>396.0</ele><time>2026-04-18T15:01:32Z</time></trkpt><trkpt lat="46.40062954202917" lon="6.6079024555074355"><ele>396.0</ele><time>2026-04-18T15:01:33Z</time></trkpt><trkpt lat="46.40060807533275" lon="6.6077542354890415"><ele>396.0</ele><time>2026-04-18T15:01:34Z</time></trkpt><trkpt lat="46.400589009115485" lon="6.607613691194808"><ele>396.0</ele><time>2026-04-18T15:01:35Z</time></trkpt><trkpt lat="46.40057418701318" lon="6.607463886257387"><ele>395.0</ele><time>2026-04-18T15:01:36Z</time></trkpt><trkpt lat="46.40055614534751" lon="6.607317762334225"><ele>394.0</ele><time>2026-04-18T15:01:37Z</time></trkpt><trkpt lat="46.40051864655162" lon="6.607177941842284"><ele>393.0</ele><time>2026-04-18T15:01:38Z</time></trkpt><trkpt lat="46.40050492155972" lon="6.6070494551875445"><ele>392.0</ele><time>2026-04-18T15:01:39Z</time></trkpt><trkpt lat="46.400485193776476" lon="6.606945621922714"><ele>391.0</ele><time>2026-04-18T15:01:40Z</time></trkpt><trkpt lat="46.40045797089028" lon="6.60678710248862"><ele>394.0</ele><time>2026-04-18T15:01:42Z</time></trkpt><trkpt lat="46.40043205395221" lon="6.606602670187571"><ele>397.0</ele><time>2026-04-18T15:01:44Z</time></trkpt><trkpt lat="46.40041250588153" lon="6.606486026752146"><ele>400.0</ele><time>2026-04-18T15:01:45Z</time></trkpt><trkpt lat="46.40039426931114" lon="6.6063513932813605"><ele>403.0</ele><time>2026-04-18T15:01:46Z</time></trkpt><trkpt lat="46.40037367983646" lon="6.6062193136718985"><ele>406.0</ele><time>2026-04-18T15:01:47Z</time></trkpt><trkpt lat="46.400354178319894" lon="6.606106690927952"><ele>406.00000000000006</ele><time>2026-04-18T15:01:48Z</time></trkpt><trkpt lat="46.40033733538613" lon="6.60600378407504"><ele>406.0</ele><time>2026-04-18T15:01:49Z</time></trkpt><trkpt lat="46.40032198787631" lon="6.605903284830842"><ele>406.0</ele><time>2026-04-18T15:01:50Z</time></trkpt><trkpt lat="46.400311534517634" lon="6.605785929665884"><ele>406.0</ele><time>2026-04-18T15:01:51Z</time></trkpt><trkpt lat="46.400309529828284" lon="6.60564072610721"><ele>406.00000000000006</ele><time>2026-04-18T15:01:52Z</time></trkpt><trkpt lat="46.40028768585283" lon="6.60550118136078"><ele>406.0</ele><time>2026-04-18T15:01:53Z</time></trkpt><trkpt lat="46.40027264648878" lon="6.605368763854503"><ele>406.0</ele><time>2026-04-18T15:01:54Z</time></trkpt><trkpt lat="46.400262876795495" lon="6.605237914939443"><ele>406.0</ele><time>2026-04-18T15:01:55Z</time></trkpt><trkpt lat="46.40028015335953" lon="6.605101650310295"><ele>406.0</ele><time>2026-04-18T15:01:56Z</time></trkpt><trkpt lat="46.400282890386116" lon="6.604964751577555"><ele>406.0</ele><time>2026-04-18T15:01:57Z</time></trkpt><trkpt lat="46.40028962306077" lon="6.60482458758055"><ele>406.0</ele><time>2026-04-18T15:01:58Z</time></trkpt><trkpt lat="46.400296097058444" lon="6.60469000781959"><ele>406.00000000000006</ele><time>2026-04-18T15:01:59Z</time></trkpt><trkpt lat="46.40030025821647" lon="6.604566676361416"><ele>406.0</ele><time>2026-04-18T15:02:00Z</time></trkpt><trkpt lat="46.40028698164596" lon="6.604449073547672"><ele>406.0</ele><time>2026-04-18T15:02:01Z</time></trkpt><trkpt lat="46.400288561580325" lon="6.604336357351545"><ele>406.0</ele><time>2026-04-18T15:02:02Z</time></trkpt><trkpt lat="46.400288545759594" lon="6.604227979930771"><ele>406.00000000000006</ele><time>2026-04-18T15:02:03Z</time></trkpt><trkpt lat="46.400288992468035" lon="6.60412684937972"><ele>406.0</ele><time>2026-04-18T15:02:04Z</time></trkpt><trkpt lat="46.40032420086109" lon="6.603983630061811"><ele>405.8</ele><time>2026-04-18T15:02:06Z</time></trkpt><trkpt lat="46.400480951812554" lon="6.603994418100036"><ele>405.6</ele><time>2026-04-18T15:02:08Z</time></trkpt><trkpt lat="46.40055872064363" lon="6.603981018779201"><ele>405.4</ele><time>2026-04-18T15:02:09Z</time></trkpt><trkpt lat="46.40063900480601" lon="6.603967552354693"><ele>405.2</ele><time>2026-04-18T15:02:09.999Z</time></trkpt><trkpt lat="46.40072765880213" lon="6.603952866236534"><ele>405.0</ele><time>2026-04-18T15:02:10.999Z</time></trkpt><trkpt lat="46.40081927060121" lon="6.603937690108681"><ele>402.0</ele><time>2026-04-18T15:02:11.999Z</time></trkpt><trkpt lat="46.4009177915791" lon="6.603921369397399"><ele>399.0</ele><time>2026-04-18T15:02:12.999Z</time></trkpt><trkpt lat="46.40101472763277" lon="6.603905311281495"><ele>396.0</ele><time>2026-04-18T15:02:13.999Z</time></trkpt><trkpt lat="46.40110606717753" lon="6.603890852775022"><ele>393.0</ele><time>2026-04-18T15:02:14.999Z</time></trkpt><trkpt lat="46.40119535339648" lon="6.603876706772286"><ele>390.0</ele><time>2026-04-18T15:02:15.999Z</time></trkpt><trkpt lat="46.4012832428591" lon="6.603862782080803"><ele>387.8333333333333</ele><time>2026-04-18T15:02:16.999Z</time></trkpt><trkpt lat="46.40135865370067" lon="6.603850834535127"><ele>385.6666666666667</ele><time>2026-04-18T15:02:17.999Z</time></trkpt><trkpt lat="46.40142199706314" lon="6.603818724842611"><ele>383.5</ele><time>2026-04-18T15:02:18.999Z</time></trkpt><trkpt lat="46.40151683439061" lon="6.603828163033861"><ele>381.33333333333337</ele><time>2026-04-18T15:02:20.999Z</time></trkpt><trkpt lat="46.40158915290265" lon="6.603818724064543"><ele>379.1666666666667</ele><time>2026-04-18T15:02:24.999Z</time></trkpt><trkpt lat="46.40166082556447" lon="6.603809369397359"><ele>377.0</ele><time>2026-04-18T15:02:28.999Z</time></trkpt><trkpt lat="46.401740159943294" lon="6.603799014712958"><ele>377.25</ele><time>2026-04-18T15:02:38.999Z</time></trkpt><trkpt lat="46.401742962512145" lon="6.603533928517801"><ele>377.5</ele><time>2026-04-18T15:02:40.999Z</time></trkpt><trkpt lat="46.40173091809643" lon="6.603392386333359"><ele>377.75</ele><time>2026-04-18T15:02:41.999Z</time></trkpt><trkpt lat="46.40171494965234" lon="6.603270212158372"><ele>378.0</ele><time>2026-04-18T15:02:42.999Z</time></trkpt><trkpt lat="46.40170292171611" lon="6.603143848563146"><ele>378.0</ele><time>2026-04-18T15:02:43.999Z</time></trkpt><trkpt lat="46.40169169046249" lon="6.602994199203173"><ele>378.0</ele><time>2026-04-18T15:02:44.999Z</time></trkpt><trkpt lat="46.40168066246594" lon="6.602835812247011"><ele>378.0</ele><time>2026-04-18T15:02:45.999Z</time></trkpt><trkpt lat="46.40166707210631" lon="6.6026641020823735"><ele>378.0</ele><time>2026-04-18T15:02:46.999Z</time></trkpt><trkpt lat="46.40165234732696" lon="6.602488810018128"><ele>377.79999999999995</ele><time>2026-04-18T15:02:47.999Z</time></trkpt><trkpt lat="46.40163740993923" lon="6.602322940853194"><ele>377.6</ele><time>2026-04-18T15:02:48.999Z</time></trkpt><trkpt lat="46.40162629622698" lon="6.602159109822641"><ele>377.4</ele><time>2026-04-18T15:02:49.999Z</time></trkpt><trkpt lat="46.401617694599466" lon="6.602000037365442"><ele>377.20000000000005</ele><time>2026-04-18T15:02:50.999Z</time></trkpt><trkpt lat="46.40160415719879" lon="6.601849424943115"><ele>377.0</ele><time>2026-04-18T15:02:51.999Z</time></trkpt><trkpt lat="46.401591574150466" lon="6.601706225802123"><ele>377.0</ele><time>2026-04-18T15:02:52.999Z</time></trkpt><trkpt lat="46.4015825645005" lon="6.601571814949299"><ele>377.0</ele><time>2026-04-18T15:02:53.999Z</time></trkpt><trkpt lat="46.401574523256684" lon="6.601449528707846"><ele>377.0</ele><time>2026-04-18T15:02:54.999Z</time></trkpt><trkpt lat="46.401563523272394" lon="6.60132619655559"><ele>377.0</ele><time>2026-04-18T15:02:55.999Z</time></trkpt><trkpt lat="46.40155722948507" lon="6.601204947718171"><ele>377.0</ele><time>2026-04-18T15:02:56.999Z</time></trkpt><trkpt lat="46.40154768872732" lon="6.601085489287291"><ele>377.0</ele><time>2026-04-18T15:02:57.999Z</time></trkpt><trkpt lat="46.40154132033302" lon="6.60096045896413"><ele>376.6</ele><time>2026-04-18T15:02:58.999Z</time></trkpt><trkpt lat="46.40152804719034" lon="6.600828886766492"><ele>376.20000000000005</ele><time>2026-04-18T15:02:59.999Z</time></trkpt><trkpt lat="46.40151893202662" lon="6.600691101708552"><ele>375.8</ele><time>2026-04-18T15:03:00.999Z</time></trkpt><trkpt lat="46.40150368991265" lon="6.600549412755932"><ele>375.4</ele><time>2026-04-18T15:03:01.999Z</time></trkpt><trkpt lat="46.40149398157291" lon="6.600413958691293"><ele>375.0</ele><time>2026-04-18T15:03:02.999Z</time></trkpt><trkpt lat="46.40148708574503" lon="6.600281999640018"><ele>375.0</ele><time>2026-04-18T15:03:03.999Z</time></trkpt><trkpt lat="46.40147806688505" lon="6.600151227949596"><ele>375.0</ele><time>2026-04-18T15:03:04.999Z</time></trkpt><trkpt lat="46.401463684572875" lon="6.600020251406224"><ele>375.0</ele><time>2026-04-18T15:03:05.999Z</time></trkpt><trkpt lat="46.40145054917803" lon="6.5998817151388876"><ele>375.0</ele><time>2026-04-18T15:03:06.999Z</time></trkpt><trkpt lat="46.401456077218654" lon="6.5997335953957"><ele>375.0</ele><time>2026-04-18T15:03:07.999Z</time></trkpt><trkpt lat="46.40144820400955" lon="6.5996041541583566"><ele>375.3333333333333</ele><time>2026-04-18T15:03:08.999Z</time></trkpt><trkpt lat="46.40144227858424" lon="6.599469508680721"><ele>375.6666666666667</ele><time>2026-04-18T15:03:09.999Z</time></trkpt><trkpt lat="46.4014253540621" lon="6.599346758175907"><ele>376.0</ele><time>2026-04-18T15:03:10.999Z</time></trkpt><trkpt lat="46.40142124749176" lon="6.599218478159615"><ele>376.33333333333337</ele><time>2026-04-18T15:03:11.999Z</time></trkpt><trkpt lat="46.40143880789024" lon="6.599093125007754"><ele>376.6666666666667</ele><time>2026-04-18T15:03:12.999Z</time></trkpt><trkpt lat="46.401441726821524" lon="6.598965999851827"><ele>377.0</ele><time>2026-04-18T15:03:13.999Z</time></trkpt><trkpt lat="46.401445037143866" lon="6.598835199765459"><ele>377.0</ele><time>2026-04-18T15:03:14.999Z</time></trkpt><trkpt lat="46.40144845070205" lon="6.598705119371567"><ele>377.0</ele><time>2026-04-18T15:03:15.999Z</time></trkpt><trkpt lat="46.40145243422799" lon="6.5985698956622505"><ele>377.0</ele><time>2026-04-18T15:03:16.999Z</time></trkpt><trkpt lat="46.401443386206445" lon="6.598438871152416"><ele>377.0</ele><time>2026-04-18T15:03:17.999Z</time></trkpt><trkpt lat="46.40144847914493" lon="6.598309172608794"><ele>377.0</ele><time>2026-04-18T15:03:18.999Z</time></trkpt><trkpt lat="46.40145338776829" lon="6.598199003570324"><ele>377.0</ele><time>2026-04-18T15:03:19.999Z</time></trkpt><trkpt lat="46.40145677763015" lon="6.5980939697322505"><ele>376.99999999999994</ele><time>2026-04-18T15:03:20.999Z</time></trkpt><trkpt lat="46.401457335514024" lon="6.597995807743438"><ele>377.0</ele><time>2026-04-18T15:03:21.999Z</time></trkpt><trkpt lat="46.401460351176475" lon="6.5978956631457155"><ele>377.0</ele><time>2026-04-18T15:03:22.999Z</time></trkpt><trkpt lat="46.40146469316305" lon="6.5977870873761555"><ele>377.0</ele><time>2026-04-18T15:03:23.999Z</time></trkpt><trkpt lat="46.4014696458597" lon="6.597677952432189"><ele>377.0</ele><time>2026-04-18T15:03:24.999Z</time></trkpt><trkpt lat="46.40147206464943" lon="6.597572634701404"><ele>376.99999999999994</ele><time>2026-04-18T15:03:25.999Z</time></trkpt><trkpt lat="46.40147718694281" lon="6.597453480692467"><ele>377.0</ele><time>2026-04-18T15:03:26.999Z</time></trkpt><trkpt lat="46.40148079271878" lon="6.597324332704793"><ele>377.1666666666667</ele><time>2026-04-18T15:03:27.999Z</time></trkpt><trkpt lat="46.401486454881834" lon="6.597198674444848"><ele>377.33333333333337</ele><time>2026-04-18T15:03:28.999Z</time></trkpt><trkpt lat="46.40149018632088" lon="6.597083063198688"><ele>377.5</ele><time>2026-04-18T15:03:29.999Z</time></trkpt><trkpt lat="46.40149317530184" lon="6.59696721311693"><ele>377.6666666666667</ele><time>2026-04-18T15:03:30.999Z</time></trkpt><trkpt lat="46.4015010428675" lon="6.596860141420105"><ele>377.8333333333333</ele><time>2026-04-18T15:03:31.999Z</time></trkpt><trkpt lat="46.401508884928205" lon="6.596753488102975"><ele>378.0</ele><time>2026-04-18T15:03:32.999Z</time></trkpt><trkpt lat="46.40153853566713" lon="6.596590572390519"><ele>378.3333333333333</ele><time>2026-04-18T15:03:34.999Z</time></trkpt><trkpt lat="46.40159189660935" lon="6.596428717059972"><ele>378.6666666666667</ele><time>2026-04-18T15:03:36.999Z</time></trkpt><trkpt lat="46.401606761318746" lon="6.596336659123121"><ele>379.0</ele><time>2026-04-18T15:03:37.999Z</time></trkpt><trkpt lat="46.401613084558605" lon="6.596228615238355"><ele>379.33333333333337</ele><time>2026-04-18T15:03:38.999Z</time></trkpt><trkpt lat="46.40161510370468" lon="6.596123583282859"><ele>379.6666666666667</ele><time>2026-04-18T15:03:39.999Z</time></trkpt><trkpt lat="46.40161267414131" lon="6.596026812221073"><ele>380.0</ele><time>2026-04-18T15:03:40.999Z</time></trkpt><trkpt lat="46.40159856692309" lon="6.595931502662461"><ele>379.0</ele><time>2026-04-18T15:03:41.999Z</time></trkpt><trkpt lat="46.401553393989495" lon="6.595764360925163"><ele>378.0</ele><time>2026-04-18T15:03:43.999Z</time></trkpt><trkpt lat="46.401514748015536" lon="6.595615560388024"><ele>377.0</ele><time>2026-04-18T15:03:45.999Z</time></trkpt><trkpt lat="46.401496334069094" lon="6.595471707196698"><ele>376.0</ele><time>2026-04-18T15:03:47.999Z</time></trkpt><trkpt lat="46.40147862067633" lon="6.595319730508848"><ele>375.0</ele><time>2026-04-18T15:03:49.999Z</time></trkpt><trkpt lat="46.40146610323241" lon="6.595224779913393"><ele>374.8571428571429</ele><time>2026-04-18T15:03:50.999Z</time></trkpt><trkpt lat="46.40145173854876" lon="6.595122008253297"><ele>374.71428571428567</ele><time>2026-04-18T15:03:51.999Z</time></trkpt><trkpt lat="46.40143741391294" lon="6.595009244016069"><ele>374.57142857142856</ele><time>2026-04-18T15:03:52.999Z</time></trkpt><trkpt lat="46.40142133889213" lon="6.594901589639847"><ele>374.42857142857144</ele><time>2026-04-18T15:03:53.999Z</time></trkpt><trkpt lat="46.40140718749438" lon="6.594801784593054"><ele>374.28571428571433</ele><time>2026-04-18T15:03:54.999Z</time></trkpt><trkpt lat="46.40139582243192" lon="6.594703133698255"><ele>374.1428571428571</ele><time>2026-04-18T15:03:55.999Z</time></trkpt><trkpt lat="46.4013857768714" lon="6.594609681673826"><ele>374.0</ele><time>2026-04-18T15:03:56.999Z</time></trkpt><trkpt lat="46.40137332457529" lon="6.594440202540301"><ele>374.0</ele><time>2026-04-18T15:03:58.999Z</time></trkpt><trkpt lat="46.40135603273169" lon="6.594288016750384"><ele>374.0</ele><time>2026-04-18T15:04:00.999Z</time></trkpt><trkpt lat="46.40136348396514" lon="6.594092431578616"><ele>374.0</ele><time>2026-04-18T15:04:02.999Z</time></trkpt><trkpt lat="46.40137524993016" lon="6.593978485946481"><ele>374.0</ele><time>2026-04-18T15:04:03.999Z</time></trkpt><trkpt lat="46.4013894787452" lon="6.593856238226416"><ele>374.0</ele><time>2026-04-18T15:04:04.999Z</time></trkpt><trkpt lat="46.40140483677336" lon="6.593737213914901"><ele>374.7142857142857</ele><time>2026-04-18T15:04:05.999Z</time></trkpt><trkpt lat="46.401422682953644" lon="6.593622232253807"><ele>375.42857142857144</ele><time>2026-04-18T15:04:06.999Z</time></trkpt><trkpt lat="46.401436386054165" lon="6.593519487013231"><ele>376.14285714285717</ele><time>2026-04-18T15:04:07.999Z</time></trkpt><trkpt lat="46.40145212979557" lon="6.593419425791998"><ele>376.8571428571429</ele><time>2026-04-18T15:04:08.999Z</time></trkpt><trkpt lat="46.40146841487883" lon="6.593323830410969"><ele>377.57142857142856</ele><time>2026-04-18T15:04:09.999Z</time></trkpt><trkpt lat="46.40148445595338" lon="6.593230126610887"><ele>378.28571428571433</ele><time>2026-04-18T15:04:10.999Z</time></trkpt><trkpt lat="46.40150718230598" lon="6.593123912344487"><ele>379.0</ele><time>2026-04-18T15:04:11.999Z</time></trkpt><trkpt lat="46.40153157382247" lon="6.593012385473581"><ele>379.0</ele><time>2026-04-18T15:04:12.999Z</time></trkpt><trkpt lat="46.4015576448227" lon="6.592903942541338"><ele>379.0</ele><time>2026-04-18T15:04:13.999Z</time></trkpt><trkpt lat="46.40158262731692" lon="6.5928040944075335"><ele>379.0</ele><time>2026-04-18T15:04:14.999Z</time></trkpt><trkpt lat="46.40160885948858" lon="6.592709216878186"><ele>379.0</ele><time>2026-04-18T15:04:16Z</time></trkpt><trkpt lat="46.40166056856614" lon="6.592610548068161"><ele>379.0</ele><time>2026-04-18T15:04:17Z</time></trkpt><trkpt lat="46.40168742838312" lon="6.592499205191329"><ele>379.0</ele><time>2026-04-18T15:04:18Z</time></trkpt><trkpt lat="46.40169181263775" lon="6.592369906051244"><ele>379.16666666666663</ele><time>2026-04-18T15:04:19Z</time></trkpt><trkpt lat="46.40172207516115" lon="6.592252630400322"><ele>379.3333333333333</ele><time>2026-04-18T15:04:20Z</time></trkpt><trkpt lat="46.4017536770518" lon="6.592146999947438"><ele>379.5</ele><time>2026-04-18T15:04:21Z</time></trkpt><trkpt lat="46.401786002710274" lon="6.592042067785101"><ele>379.6666666666667</ele><time>2026-04-18T15:04:22Z</time></trkpt><trkpt lat="46.401810964872716" lon="6.591941382035296"><ele>379.83333333333337</ele><time>2026-04-18T15:04:23Z</time></trkpt><trkpt lat="46.40183902478848" lon="6.591844204824997"><ele>380.0</ele><time>2026-04-18T15:04:24Z</time></trkpt><trkpt lat="46.40186568657105" lon="6.591749184163709"><ele>379.57142857142856</ele><time>2026-04-18T15:04:25Z</time></trkpt><trkpt lat="46.40189024143568" lon="6.591657623560672"><ele>379.14285714285717</ele><time>2026-04-18T15:04:26Z</time></trkpt><trkpt lat="46.40191437549399" lon="6.591560947366392"><ele>378.71428571428567</ele><time>2026-04-18T15:04:27Z</time></trkpt><trkpt lat="46.40194001592566" lon="6.591460292244979"><ele>378.2857142857143</ele><time>2026-04-18T15:04:28Z</time></trkpt><trkpt lat="46.401958114194585" lon="6.591359614878472"><ele>377.85714285714283</ele><time>2026-04-18T15:04:29Z</time></trkpt><trkpt lat="46.40197409434572" lon="6.59126131174904"><ele>377.4285714285714</ele><time>2026-04-18T15:04:30Z</time></trkpt><trkpt lat="46.40198706289825" lon="6.591165397877551"><ele>377.0</ele><time>2026-04-18T15:04:31Z</time></trkpt><trkpt lat="46.40199962501371" lon="6.59107058461842"><ele>376.83333333333337</ele><time>2026-04-18T15:04:32Z</time></trkpt><trkpt lat="46.40201204198727" lon="6.590978078451338"><ele>376.6666666666667</ele><time>2026-04-18T15:04:33Z</time></trkpt><trkpt lat="46.402025247387385" lon="6.59088357792803"><ele>376.5</ele><time>2026-04-18T15:04:34Z</time></trkpt><trkpt lat="46.402035796152745" lon="6.590781014881573"><ele>376.3333333333333</ele><time>2026-04-18T15:04:35Z</time></trkpt><trkpt lat="46.402045689051796" lon="6.590669914127111"><ele>376.16666666666663</ele><time>2026-04-18T15:04:36Z</time></trkpt><trkpt lat="46.40206155345536" lon="6.590548591552071"><ele>376.0</ele><time>2026-04-18T15:04:37Z</time></trkpt><trkpt lat="46.40207641511496" lon="6.590414426501289"><ele>376.4</ele><time>2026-04-18T15:04:38Z</time></trkpt><trkpt lat="46.40208550547751" lon="6.59026964002082"><ele>376.8</ele><time>2026-04-18T15:04:39Z</time></trkpt><trkpt lat="46.40209649819943" lon="6.59012351259685"><ele>377.2</ele><time>2026-04-18T15:04:40Z</time></trkpt><trkpt lat="46.40210396923979" lon="6.589984588430505"><ele>377.59999999999997</ele><time>2026-04-18T15:04:41Z</time></trkpt><trkpt lat="46.402107224929544" lon="6.589847728430779"><ele>378.0</ele><time>2026-04-18T15:04:42Z</time></trkpt><trkpt lat="46.40211314209041" lon="6.589725797293598"><ele>378.0</ele><time>2026-04-18T15:04:43Z</time></trkpt><trkpt lat="46.40212206515511" lon="6.5896030170184865"><ele>378.0</ele><time>2026-04-18T15:04:44Z</time></trkpt><trkpt lat="46.40212721677036" lon="6.589487472289922"><ele>378.0</ele><time>2026-04-18T15:04:45Z</time></trkpt><trkpt lat="46.40212722948078" lon="6.589375729430513"><ele>378.0</ele><time>2026-04-18T15:04:46Z</time></trkpt><trkpt lat="46.40212308969721" lon="6.589273960782341"><ele>378.0</ele><time>2026-04-18T15:04:47Z</time></trkpt><trkpt lat="46.40212024712786" lon="6.589097924424018"><ele>378.0</ele><time>2026-04-18T15:04:49Z</time></trkpt><trkpt lat="46.40211967211629" lon="6.588957548936209"><ele>378.1666666666667</ele><time>2026-04-18T15:04:51Z</time></trkpt><trkpt lat="46.40211497146253" lon="6.588846988617307"><ele>378.3333333333333</ele><time>2026-04-18T15:04:53Z</time></trkpt><trkpt lat="46.402106198637895" lon="6.588707846026728"><ele>378.5</ele><time>2026-04-18T15:05:00Z</time></trkpt><trkpt lat="46.40210030177381" lon="6.588615303971905"><ele>378.66666666666663</ele><time>2026-04-18T15:05:01Z</time></trkpt><trkpt lat="46.402092735637424" lon="6.588501988704387"><ele>378.8333333333333</ele><time>2026-04-18T15:05:02Z</time></trkpt><trkpt lat="46.40208582336058" lon="6.588387674841356"><ele>379.0</ele><time>2026-04-18T15:05:03Z</time></trkpt><trkpt lat="46.402077217992016" lon="6.588282163644795"><ele>379.0</ele><time>2026-04-18T15:05:04Z</time></trkpt><trkpt lat="46.402066076907516" lon="6.588180974040751"><ele>379.0</ele><time>2026-04-18T15:05:05Z</time></trkpt><trkpt lat="46.40205369649426" lon="6.588087371474847"><ele>379.0</ele><time>2026-04-18T15:05:06Z</time></trkpt><trkpt lat="46.40202781883154" lon="6.5879168896570715"><ele>379.0</ele><time>2026-04-18T15:05:08Z</time></trkpt><trkpt lat="46.40200035240587" lon="6.587765758103325"><ele>379.0</ele><time>2026-04-18T15:05:10Z</time></trkpt><trkpt lat="46.40197314660833" lon="6.587627552642188"><ele>378.66666666666663</ele><time>2026-04-18T15:05:12Z</time></trkpt><trkpt lat="46.40194760291165" lon="6.587504257853951"><ele>378.3333333333333</ele><time>2026-04-18T15:05:14Z</time></trkpt><trkpt lat="46.401929381327825" lon="6.587394583304178"><ele>378.0</ele><time>2026-04-18T15:05:16Z</time></trkpt><trkpt lat="46.40191057124926" lon="6.5872357382464495"><ele>377.6666666666667</ele><time>2026-04-18T15:05:18Z</time></trkpt><trkpt lat="46.40192698821907" lon="6.587146686432299"><ele>377.33333333333337</ele><time>2026-04-18T15:05:18.999Z</time></trkpt><trkpt lat="46.401907579438834" lon="6.587056075279849"><ele>377.0</ele><time>2026-04-18T15:05:19.999Z</time></trkpt><trkpt lat="46.40184182984382" lon="6.5868810658574155"><ele>376.8</ele><time>2026-04-18T15:05:21.999Z</time></trkpt><trkpt lat="46.401806468209884" lon="6.586764585316481"><ele>376.6</ele><time>2026-04-18T15:05:22.999Z</time></trkpt><trkpt lat="46.40178566190923" lon="6.586633165521918"><ele>376.40000000000003</ele><time>2026-04-18T15:05:23.999Z</time></trkpt><trkpt lat="46.40175512637517" lon="6.586491694247307"><ele>376.20000000000005</ele><time>2026-04-18T15:05:24.999Z</time></trkpt><trkpt lat="46.40172461941894" lon="6.5863470453450885"><ele>376.0</ele><time>2026-04-18T15:05:25.999Z</time></trkpt><trkpt lat="46.40169297771352" lon="6.5862126549049105"><ele>375.8</ele><time>2026-04-18T15:05:26.999Z</time></trkpt><trkpt lat="46.40166282540285" lon="6.586070721565508"><ele>375.6</ele><time>2026-04-18T15:05:27.999Z</time></trkpt><trkpt lat="46.40162698082832" lon="6.585936610815557"><ele>375.4</ele><time>2026-04-18T15:05:28.999Z</time></trkpt><trkpt lat="46.40158160770829" lon="6.585807131778841"><ele>375.2</ele><time>2026-04-18T15:05:29.999Z</time></trkpt><trkpt lat="46.40153212068947" lon="6.585684513883805"><ele>375.0</ele><time>2026-04-18T15:05:30.999Z</time></trkpt><trkpt lat="46.40149001709232" lon="6.585573184217044"><ele>375.0</ele><time>2026-04-18T15:05:31.999Z</time></trkpt><trkpt lat="46.40144747819563" lon="6.585470846459084"><ele>375.0</ele><time>2026-04-18T15:05:32.999Z</time></trkpt><trkpt lat="46.401401683858346" lon="6.585377086061211"><ele>375.0</ele><time>2026-04-18T15:05:33.999Z</time></trkpt><trkpt lat="46.40136097588148" lon="6.585297867838579"><ele>375.0</ele><time>2026-04-18T15:05:34.999Z</time></trkpt><trkpt lat="46.40132391729882" lon="6.585218088897115"><ele>375.0</ele><time>2026-04-18T15:05:35.999Z</time></trkpt><trkpt lat="46.40128691486169" lon="6.585139123098901"><ele>375.0</ele><time>2026-04-18T15:05:36.999Z</time></trkpt><trkpt lat="46.40124368482666" lon="6.585053524907361"><ele>375.0</ele><time>2026-04-18T15:05:37.999Z</time></trkpt><trkpt lat="46.40119159094101" lon="6.584952431720722"><ele>375.8</ele><time>2026-04-18T15:05:38.999Z</time></trkpt><trkpt lat="46.40113692759854" lon="6.584838428801854"><ele>376.6</ele><time>2026-04-18T15:05:39.999Z</time></trkpt><trkpt lat="46.40108145719288" lon="6.584723768783268"><ele>377.4</ele><time>2026-04-18T15:05:40.999Z</time></trkpt><trkpt lat="46.40102335795585" lon="6.584612115790018"><ele>378.2</ele><time>2026-04-18T15:05:41.999Z</time></trkpt><trkpt lat="46.40097616496636" lon="6.584519833297021"><ele>379.0</ele><time>2026-04-18T15:05:42.999Z</time></trkpt><trkpt lat="46.400931863529955" lon="6.584419410651652"><ele>379.0</ele><time>2026-04-18T15:05:43.999Z</time></trkpt><trkpt lat="46.40087888628755" lon="6.584329020408538"><ele>379.0</ele><time>2026-04-18T15:05:44.999Z</time></trkpt><trkpt lat="46.40083212410499" lon="6.584224659969978"><ele>379.0</ele><time>2026-04-18T15:05:45.999Z</time></trkpt><trkpt lat="46.40077771331531" lon="6.584112008412804"><ele>379.0</ele><time>2026-04-18T15:05:46.999Z</time></trkpt><trkpt lat="46.40071865291096" lon="6.583996485710387"><ele>379.0</ele><time>2026-04-18T15:05:47.999Z</time></trkpt><trkpt lat="46.40066597247342" lon="6.583858024913254"><ele>379.0</ele><time>2026-04-18T15:05:48.999Z</time></trkpt><trkpt lat="46.40060292070258" lon="6.583721255641473"><ele>379.0</ele><time>2026-04-18T15:05:49.999Z</time></trkpt><trkpt lat="46.400537853654725" lon="6.583593539030405"><ele>379.0</ele><time>2026-04-18T15:05:50.999Z</time></trkpt><trkpt lat="46.40047835373612" lon="6.583474892076405"><ele>379.0</ele><time>2026-04-18T15:05:51.999Z</time></trkpt><trkpt lat="46.400421459424386" lon="6.583374512740995"><ele>379.0</ele><time>2026-04-18T15:05:52.999Z</time></trkpt><trkpt lat="46.4003690742179" lon="6.583272856321166"><ele>380.0</ele><time>2026-04-18T15:05:53.999Z</time></trkpt><trkpt lat="46.400332180809656" lon="6.583144938562065"><ele>381.0</ele><time>2026-04-18T15:05:54.999Z</time></trkpt><trkpt lat="46.40027632447215" lon="6.583026224323286"><ele>382.0</ele><time>2026-04-18T15:05:55.999Z</time></trkpt><trkpt lat="46.40022183339588" lon="6.582910411722298"><ele>383.0</ele><time>2026-04-18T15:05:56.999Z</time></trkpt><trkpt lat="46.400169565402074" lon="6.582798986164643"><ele>384.0</ele><time>2026-04-18T15:05:57.999Z</time></trkpt><trkpt lat="46.40012217381537" lon="6.582697560728442"><ele>384.0</ele><time>2026-04-18T15:05:58.999Z</time></trkpt><trkpt lat="46.400077198020796" lon="6.582601305487248"><ele>384.0</ele><time>2026-04-18T15:05:59.999Z</time></trkpt><trkpt lat="46.40002672577714" lon="6.5824932869694095"><ele>384.0</ele><time>2026-04-18T15:06:00.999Z</time></trkpt><trkpt lat="46.39997177026738" lon="6.582374844304871"><ele>384.0</ele><time>2026-04-18T15:06:01.999Z</time></trkpt><trkpt lat="46.39991108177551" lon="6.5822441262049525"><ele>384.0</ele><time>2026-04-18T15:06:02.999Z</time></trkpt><trkpt lat="46.399850041039606" lon="6.58211370927589"><ele>383.4</ele><time>2026-04-18T15:06:03.999Z</time></trkpt><trkpt lat="46.39979408608333" lon="6.581994913614695"><ele>382.79999999999995</ele><time>2026-04-18T15:06:04.999Z</time></trkpt><trkpt lat="46.39974367131124" lon="6.581887880193692"><ele>382.20000000000005</ele><time>2026-04-18T15:06:05.999Z</time></trkpt><trkpt lat="46.39969771615414" lon="6.5817907724335845"><ele>381.6</ele><time>2026-04-18T15:06:06.999Z</time></trkpt><trkpt lat="46.39963582798" lon="6.581693191108708"><ele>381.0</ele><time>2026-04-18T15:06:07.999Z</time></trkpt><trkpt lat="46.39957812609074" lon="6.581565382896297"><ele>384.25</ele><time>2026-04-18T15:06:08.999Z</time></trkpt><trkpt lat="46.39951685479913" lon="6.58141886926589"><ele>387.5</ele><time>2026-04-18T15:06:09.999Z</time></trkpt><trkpt lat="46.399457283479926" lon="6.581262602465028"><ele>390.75</ele><time>2026-04-18T15:06:10.999Z</time></trkpt><trkpt lat="46.399404488911614" lon="6.581113500917643"><ele>394.0</ele><time>2026-04-18T15:06:11.999Z</time></trkpt><trkpt lat="46.39936833303176" lon="6.580973362469324"><ele>394.0</ele><time>2026-04-18T15:06:12.999Z</time></trkpt><trkpt lat="46.399340903711455" lon="6.580822779233887"><ele>394.0</ele><time>2026-04-18T15:06:13.999Z</time></trkpt><trkpt lat="46.39931237542488" lon="6.580651361997173"><ele>394.0</ele><time>2026-04-18T15:06:14.999Z</time></trkpt><trkpt lat="46.3992964208994" lon="6.580466891784716"><ele>394.0</ele><time>2026-04-18T15:06:15.999Z</time></trkpt><trkpt lat="46.399273107017265" lon="6.5803031471859565"><ele>394.2</ele><time>2026-04-18T15:06:16.999Z</time></trkpt><trkpt lat="46.39925290769462" lon="6.5801553974835345"><ele>394.4</ele><time>2026-04-18T15:06:17.999Z</time></trkpt><trkpt lat="46.39923378228195" lon="6.580017400456793"><ele>394.6</ele><time>2026-04-18T15:06:18.999Z</time></trkpt><trkpt lat="46.39919347773394" lon="6.5798716916581"><ele>394.8</ele><time>2026-04-18T15:06:19.999Z</time></trkpt><trkpt lat="46.39917144720905" lon="6.579718274851568"><ele>395.0</ele><time>2026-04-18T15:06:20.999Z</time></trkpt><trkpt lat="46.399152264765085" lon="6.579575539907859"><ele>395.0</ele><time>2026-04-18T15:06:22Z</time></trkpt><trkpt lat="46.39913874238742" lon="6.579439759996313"><ele>395.0</ele><time>2026-04-18T15:06:23Z</time></trkpt><trkpt lat="46.399116364884925" lon="6.579310337698011"><ele>395.0</ele><time>2026-04-18T15:06:24Z</time></trkpt><trkpt lat="46.399098910300026" lon="6.579177325733733"><ele>395.0</ele><time>2026-04-18T15:06:25Z</time></trkpt><trkpt lat="46.39907921184444" lon="6.579048008023096"><ele>395.0</ele><time>2026-04-18T15:06:26Z</time></trkpt><trkpt lat="46.39905837366052" lon="6.578918613586927"><ele>395.0</ele><time>2026-04-18T15:06:27Z</time></trkpt><trkpt lat="46.39904351458152" lon="6.578790260269736"><ele>395.0</ele><time>2026-04-18T15:06:28Z</time></trkpt><trkpt lat="46.39902405841277" lon="6.5786559650557885"><ele>395.0</ele><time>2026-04-18T15:06:29Z</time></trkpt><trkpt lat="46.39900415449319" lon="6.578514008211509"><ele>395.0</ele><time>2026-04-18T15:06:30Z</time></trkpt><trkpt lat="46.39898727115674" lon="6.578380789771529"><ele>395.0</ele><time>2026-04-18T15:06:31Z</time></trkpt><trkpt lat="46.398971956947555" lon="6.57826091968121"><ele>394.8333333333333</ele><time>2026-04-18T15:06:32Z</time></trkpt><trkpt lat="46.398955316050724" lon="6.578148488198885"><ele>394.66666666666663</ele><time>2026-04-18T15:06:33Z</time></trkpt><trkpt lat="46.39895470162134" lon="6.57803347665287"><ele>394.5</ele><time>2026-04-18T15:06:34Z</time></trkpt><trkpt lat="46.398935843421945" lon="6.57790098582361"><ele>394.33333333333337</ele><time>2026-04-18T15:06:35Z</time></trkpt><trkpt lat="46.398901516934664" lon="6.577776493357955"><ele>394.1666666666667</ele><time>2026-04-18T15:06:36Z</time></trkpt><trkpt lat="46.398901636412496" lon="6.577658406079468"><ele>394.0</ele><time>2026-04-18T15:06:37Z</time></trkpt><trkpt lat="46.39887196486715" lon="6.577561650935169"><ele>394.00000000000006</ele><time>2026-04-18T15:06:38Z</time></trkpt><trkpt lat="46.39886478169112" lon="6.577422405579915"><ele>394.0</ele><time>2026-04-18T15:06:40Z</time></trkpt><trkpt lat="46.39887044558501" lon="6.577322066790821"><ele>394.0</ele><time>2026-04-18T15:06:42Z</time></trkpt><trkpt lat="46.39889802035283" lon="6.57719225340021"><ele>394.0</ele><time>2026-04-18T15:06:44Z</time></trkpt><trkpt lat="46.39891705585377" lon="6.577038997659879"><ele>394.00000000000006</ele><time>2026-04-18T15:06:46Z</time></trkpt><trkpt lat="46.39886473533896" lon="6.576971368147167"><ele>394.0</ele><time>2026-04-18T15:06:47Z</time></trkpt><trkpt lat="46.39876174049441" lon="6.576974900290367"><ele>396.4</ele><time>2026-04-18T15:06:48Z</time></trkpt><trkpt lat="46.39863516596386" lon="6.576975700373309"><ele>398.79999999999995</ele><time>2026-04-18T15:06:50Z</time></trkpt><trkpt lat="46.39857741241554" lon="6.576904200603484"><ele>401.20000000000005</ele><time>2026-04-18T15:06:51Z</time></trkpt><trkpt lat="46.39858440242361" lon="6.576753620463022"><ele>403.6</ele><time>2026-04-18T15:06:52Z</time></trkpt><trkpt lat="46.398523122432834" lon="6.576617987626263"><ele>406.0</ele><time>2026-04-18T15:06:53Z</time></trkpt><trkpt lat="46.39844144625658" lon="6.576471835109507"><ele>406.0</ele><time>2026-04-18T15:06:54Z</time></trkpt><trkpt lat="46.39836546876293" lon="6.576277424084891"><ele>406.0</ele><time>2026-04-18T15:06:55Z</time></trkpt><trkpt lat="46.398269121930284" lon="6.5760570449552675"><ele>406.0</ele><time>2026-04-18T15:06:56Z</time></trkpt><trkpt lat="46.39817513325497" lon="6.575816644672996"><ele>406.0</ele><time>2026-04-18T15:06:57Z</time></trkpt><trkpt lat="46.398104681928096" lon="6.575538840995806"><ele>406.0</ele><time>2026-04-18T15:06:58Z</time></trkpt><trkpt lat="46.39803922602281" lon="6.575224097923635"><ele>406.0</ele><time>2026-04-18T15:06:59Z</time></trkpt><trkpt lat="46.39797614654762" lon="6.574920704819553"><ele>407.33333333333337</ele><time>2026-04-18T15:07:00Z</time></trkpt><trkpt lat="46.39790752245506" lon="6.5746145262146705"><ele>408.66666666666663</ele><time>2026-04-18T15:07:01Z</time></trkpt><trkpt lat="46.39783398049317" lon="6.574345932806733"><ele>410.0</ele><time>2026-04-18T15:07:02Z</time></trkpt><trkpt lat="46.3977623014773" lon="6.5741021556788075"><ele>410.0</ele><time>2026-04-18T15:07:03Z</time></trkpt><trkpt lat="46.39768901888564" lon="6.57384639699697"><ele>410.0</ele><time>2026-04-18T15:07:04Z</time></trkpt><trkpt lat="46.3976134568075" lon="6.573552979637074"><ele>410.0</ele><time>2026-04-18T15:07:05Z</time></trkpt><trkpt lat="46.397539376996434" lon="6.573275459026709"><ele>409.66666666666663</ele><time>2026-04-18T15:07:06Z</time></trkpt><trkpt lat="46.39746122215915" lon="6.57299575058568"><ele>409.33333333333337</ele><time>2026-04-18T15:07:07Z</time></trkpt><trkpt lat="46.39739238156412" lon="6.572749026795956"><ele>409.0</ele><time>2026-04-18T15:07:08Z</time></trkpt><trkpt lat="46.397332794557514" lon="6.572535465609246"><ele>408.0</ele><time>2026-04-18T15:07:09Z</time></trkpt><trkpt lat="46.39728346650374" lon="6.572351416352399"><ele>407.0</ele><time>2026-04-18T15:07:10Z</time></trkpt><trkpt lat="46.39723432439502" lon="6.5721933844311495"><ele>406.0</ele><time>2026-04-18T15:07:11Z</time></trkpt><trkpt lat="46.397155492786354" lon="6.572058821783083"><ele>405.0</ele><time>2026-04-18T15:07:12Z</time></trkpt><trkpt lat="46.397046712181655" lon="6.571971006817591"><ele>407.75</ele><time>2026-04-18T15:07:13Z</time></trkpt><trkpt lat="46.396933511216446" lon="6.571880018875821"><ele>410.5</ele><time>2026-04-18T15:07:14Z</time></trkpt><trkpt lat="46.3968086399923" lon="6.5717668066601105"><ele>413.25</ele><time>2026-04-18T15:07:15Z</time></trkpt><trkpt lat="46.396684491854565" lon="6.57164632569756"><ele>416.0</ele><time>2026-04-18T15:07:16Z</time></trkpt><trkpt lat="46.3965962124477" lon="6.571501531079151"><ele>416.0</ele><time>2026-04-18T15:07:17Z</time></trkpt><trkpt lat="46.39653391724364" lon="6.57133242917932"><ele>416.0</ele><time>2026-04-18T15:07:18Z</time></trkpt><trkpt lat="46.39646196477683" lon="6.571139475297556"><ele>416.0</ele><time>2026-04-18T15:07:19Z</time></trkpt><trkpt lat="46.39637880187559" lon="6.570926103031357"><ele>421.66666666666663</ele><time>2026-04-18T15:07:20Z</time></trkpt><trkpt lat="46.39628025243148" lon="6.570717355999188"><ele>427.33333333333337</ele><time>2026-04-18T15:07:21Z</time></trkpt><trkpt lat="46.39620970026091" lon="6.57049552186348"><ele>433.0</ele><time>2026-04-18T15:07:22Z</time></trkpt><trkpt lat="46.39611785663591" lon="6.570291995120003"><ele>433.0</ele><time>2026-04-18T15:07:23Z</time></trkpt><trkpt lat="46.396004289716586" lon="6.570087671475914"><ele>433.0</ele><time>2026-04-18T15:07:24Z</time></trkpt><trkpt lat="46.39587767934291" lon="6.569877211449321"><ele>433.0</ele><time>2026-04-18T15:07:25Z</time></trkpt><trkpt lat="46.39574366590197" lon="6.56965379752284"><ele>431.6666666666667</ele><time>2026-04-18T15:07:26Z</time></trkpt><trkpt lat="46.3956154041064" lon="6.569434251985699"><ele>430.33333333333337</ele><time>2026-04-18T15:07:27Z</time></trkpt><trkpt lat="46.39551372250633" lon="6.569223879925512"><ele>429.0</ele><time>2026-04-18T15:07:28Z</time></trkpt><trkpt lat="46.39545227922069" lon="6.568994645270826"><ele>435.66666666666663</ele><time>2026-04-18T15:07:29Z</time></trkpt><trkpt lat="46.39539438421078" lon="6.568734247356339"><ele>442.3333333333333</ele><time>2026-04-18T15:07:30Z</time></trkpt><trkpt lat="46.39532430879297" lon="6.568450139492924"><ele>449.0</ele><time>2026-04-18T15:07:31Z</time></trkpt><trkpt lat="46.39525672651571" lon="6.56814551977349"><ele>445.5</ele><time>2026-04-18T15:07:32Z</time></trkpt><trkpt lat="46.3951842666315" lon="6.567824720084277"><ele>442.0</ele><time>2026-04-18T15:07:33Z</time></trkpt><trkpt lat="46.39511468024471" lon="6.567497750442297"><ele>442.0</ele><time>2026-04-18T15:07:34Z</time></trkpt><trkpt lat="46.39504833672002" lon="6.567188338627781"><ele>442.0</ele><time>2026-04-18T15:07:35Z</time></trkpt><trkpt lat="46.39498831075272" lon="6.566914752060885"><ele>442.0</ele><time>2026-04-18T15:07:36Z</time></trkpt><trkpt lat="46.394936589116746" lon="6.56665522550803"><ele>441.33333333333337</ele><time>2026-04-18T15:07:37Z</time></trkpt><trkpt lat="46.39488473789835" lon="6.566404296235246"><ele>440.66666666666663</ele><time>2026-04-18T15:07:38Z</time></trkpt><trkpt lat="46.39484941136451" lon="6.56612698852293"><ele>440.0</ele><time>2026-04-18T15:07:39Z</time></trkpt><trkpt lat="46.39482536596951" lon="6.565849017678359"><ele>439.66666666666663</ele><time>2026-04-18T15:07:40Z</time></trkpt><trkpt lat="46.39480269606207" lon="6.565593569023643"><ele>439.33333333333337</ele><time>2026-04-18T15:07:41Z</time></trkpt><trkpt lat="46.39476565581474" lon="6.565357936070132"><ele>439.0</ele><time>2026-04-18T15:07:42Z</time></trkpt><trkpt lat="46.39470520528026" lon="6.565143208620107"><ele>445.33333333333337</ele><time>2026-04-18T15:07:43Z</time></trkpt><trkpt lat="46.39462805422455" lon="6.564930215618403"><ele>451.66666666666663</ele><time>2026-04-18T15:07:44Z</time></trkpt><trkpt lat="46.394537523023786" lon="6.564741183774329"><ele>458.0</ele><time>2026-04-18T15:07:45Z</time></trkpt><trkpt lat="46.39444209067522" lon="6.564585007206834"><ele>457.0</ele><time>2026-04-18T15:07:46Z</time></trkpt><trkpt lat="46.39434813194264" lon="6.564444104840468"><ele>456.0</ele><time>2026-04-18T15:07:47Z</time></trkpt><trkpt lat="46.39427501706117" lon="6.564285305607463"><ele>455.0</ele><time>2026-04-18T15:07:48Z</time></trkpt><trkpt lat="46.39422869487902" lon="6.564079435774174"><ele>454.0</ele><time>2026-04-18T15:07:49Z</time></trkpt><trkpt lat="46.3941913282899" lon="6.563840324472908"><ele>454.0</ele><time>2026-04-18T15:07:50Z</time></trkpt><trkpt lat="46.39415583000857" lon="6.563593877127997"><ele>454.0</ele><time>2026-04-18T15:07:51Z</time></trkpt><trkpt lat="46.39411682016173" lon="6.563378448837696"><ele>454.0</ele><time>2026-04-18T15:07:52Z</time></trkpt><trkpt lat="46.39408070196152" lon="6.563172972461221"><ele>454.0</ele><time>2026-04-18T15:07:53Z</time></trkpt><trkpt lat="46.394048179648024" lon="6.562976607572389"><ele>454.0</ele><time>2026-04-18T15:07:54Z</time></trkpt><trkpt lat="46.39404490727733" lon="6.562767139398881"><ele>454.0</ele><time>2026-04-18T15:07:55Z</time></trkpt><trkpt lat="46.39403451519622" lon="6.562563656268114"><ele>454.0</ele><time>2026-04-18T15:07:56Z</time></trkpt><trkpt lat="46.39403436414409" lon="6.562357581881026"><ele>453.75</ele><time>2026-04-18T15:07:57Z</time></trkpt><trkpt lat="46.39403577874785" lon="6.562151203290525"><ele>453.5</ele><time>2026-04-18T15:07:58Z</time></trkpt><trkpt lat="46.3940241310382" lon="6.561951214614646"><ele>453.25</ele><time>2026-04-18T15:07:59Z</time></trkpt><trkpt lat="46.394020059870854" lon="6.5617673434097075"><ele>453.0</ele><time>2026-04-18T15:08:00Z</time></trkpt><trkpt lat="46.39401372788993" lon="6.561587620904752"><ele>453.0</ele><time>2026-04-18T15:08:01Z</time></trkpt><trkpt lat="46.39400106630794" lon="6.561404713963545"><ele>453.0</ele><time>2026-04-18T15:08:02Z</time></trkpt><trkpt lat="46.393979014920916" lon="6.561213785943051"><ele>453.0</ele><time>2026-04-18T15:08:03Z</time></trkpt><trkpt lat="46.39396982183136" lon="6.561000666432371"><ele>453.0</ele><time>2026-04-18T15:08:04Z</time></trkpt><trkpt lat="46.39393950651491" lon="6.560773912707613"><ele>452.75</ele><time>2026-04-18T15:08:05Z</time></trkpt><trkpt lat="46.39390544634921" lon="6.560551679583702"><ele>452.5</ele><time>2026-04-18T15:08:06Z</time></trkpt><trkpt lat="46.39387290603387" lon="6.56035362288847"><ele>452.25</ele><time>2026-04-18T15:08:07Z</time></trkpt><trkpt lat="46.39383528360891" lon="6.560174009973691"><ele>452.0</ele><time>2026-04-18T15:08:08Z</time></trkpt><trkpt lat="46.39379520686025" lon="6.560004382676544"><ele>454.0</ele><time>2026-04-18T15:08:09Z</time></trkpt><trkpt lat="46.39375515046424" lon="6.5598460296144046"><ele>456.0</ele><time>2026-04-18T15:08:10Z</time></trkpt><trkpt lat="46.39369928101431" lon="6.559690063624284"><ele>458.0</ele><time>2026-04-18T15:08:11Z</time></trkpt><trkpt lat="46.3936507812094" lon="6.55952433129331"><ele>460.0</ele><time>2026-04-18T15:08:12Z</time></trkpt><trkpt lat="46.39361029785003" lon="6.559367125975521"><ele>460.0</ele><time>2026-04-18T15:08:13Z</time></trkpt><trkpt lat="46.39357162834336" lon="6.55921460076585"><ele>460.0</ele><time>2026-04-18T15:08:14Z</time></trkpt><trkpt lat="46.393527608104016" lon="6.559075202618233"><ele>460.0</ele><time>2026-04-18T15:08:15Z</time></trkpt><trkpt lat="46.39348112907782" lon="6.558928164738897"><ele>460.0</ele><time>2026-04-18T15:08:16Z</time></trkpt><trkpt lat="46.393443639939086" lon="6.558809659127973"><ele>460.0</ele><time>2026-04-18T15:08:16.999Z</time></trkpt><trkpt lat="46.39334838441454" lon="6.558542519702075"><ele>459.83333333333337</ele><time>2026-04-18T15:08:17.999Z</time></trkpt><trkpt lat="46.39330600866789" lon="6.55841773810557"><ele>459.6666666666667</ele><time>2026-04-18T15:08:18.999Z</time></trkpt><trkpt lat="46.39327043972706" lon="6.558299687664634"><ele>459.5</ele><time>2026-04-18T15:08:19.999Z</time></trkpt><trkpt lat="46.39324106019731" lon="6.558196988383226"><ele>459.33333333333337</ele><time>2026-04-18T15:08:20.999Z</time></trkpt><trkpt lat="46.39321505881018" lon="6.55810674887136"><ele>459.1666666666667</ele><time>2026-04-18T15:08:21.999Z</time></trkpt><trkpt lat="46.393178766909266" lon="6.557985165234974"><ele>459.0</ele><time>2026-04-18T15:08:23.999Z</time></trkpt><trkpt lat="46.39315304642574" lon="6.557900853254436"><ele>458.4</ele><time>2026-04-18T15:08:24.999Z</time></trkpt><trkpt lat="46.393119816670186" lon="6.557800288391654"><ele>457.79999999999995</ele><time>2026-04-18T15:08:25.999Z</time></trkpt><trkpt lat="46.393083616411346" lon="6.5576801736367"><ele>457.20000000000005</ele><time>2026-04-18T15:08:26.999Z</time></trkpt><trkpt lat="46.393044719787724" lon="6.557550829008187"><ele>456.6</ele><time>2026-04-18T15:08:28Z</time></trkpt><trkpt lat="46.39299966564507" lon="6.557413879474988"><ele>456.0</ele><time>2026-04-18T15:08:29Z</time></trkpt><trkpt lat="46.39294943559509" lon="6.557272200794737"><ele>459.25</ele><time>2026-04-18T15:08:30Z</time></trkpt><trkpt lat="46.392910094721664" lon="6.557110477571761"><ele>462.5</ele><time>2026-04-18T15:08:31Z</time></trkpt><trkpt lat="46.39285585619912" lon="6.556940351215977"><ele>465.75</ele><time>2026-04-18T15:08:32Z</time></trkpt><trkpt lat="46.392792291121715" lon="6.556757096050634"><ele>469.0</ele><time>2026-04-18T15:08:33Z</time></trkpt><trkpt lat="46.39270718963409" lon="6.55658289940607"><ele>469.25</ele><time>2026-04-18T15:08:34Z</time></trkpt><trkpt lat="46.39264070301292" lon="6.5563997318938485"><ele>469.5</ele><time>2026-04-18T15:08:35Z</time></trkpt><trkpt lat="46.39255865320622" lon="6.556248924532955"><ele>469.75</ele><time>2026-04-18T15:08:36Z</time></trkpt><trkpt lat="46.39247781392734" lon="6.556112848853851"><ele>470.0</ele><time>2026-04-18T15:08:37Z</time></trkpt><trkpt lat="46.3923993413946" lon="6.555998078303242"><ele>469.6</ele><time>2026-04-18T15:08:38Z</time></trkpt><trkpt lat="46.392326991248396" lon="6.555877048041008"><ele>469.2</ele><time>2026-04-18T15:08:39Z</time></trkpt><trkpt lat="46.392245874796515" lon="6.555789700523994"><ele>468.79999999999995</ele><time>2026-04-18T15:08:40Z</time></trkpt><trkpt lat="46.39217466470258" lon="6.555692210759337"><ele>468.4</ele><time>2026-04-18T15:08:41Z</time></trkpt><trkpt lat="46.392099225014974" lon="6.555598642878811"><ele>468.0</ele><time>2026-04-18T15:08:42Z</time></trkpt><trkpt lat="46.392030790119115" lon="6.555508930053607"><ele>469.0</ele><time>2026-04-18T15:08:43Z</time></trkpt><trkpt lat="46.39197141896184" lon="6.555429165984506"><ele>470.0</ele><time>2026-04-18T15:08:44Z</time></trkpt><trkpt lat="46.39191192682369" lon="6.555350576434248"><ele>471.0</ele><time>2026-04-18T15:08:45Z</time></trkpt><trkpt lat="46.39185333925611" lon="6.555269160303287"><ele>472.0</ele><time>2026-04-18T15:08:46Z</time></trkpt><trkpt lat="46.391782843707595" lon="6.555178272303773"><ele>473.0</ele><time>2026-04-18T15:08:47Z</time></trkpt><trkpt lat="46.39170691053288" lon="6.555081464638439"><ele>474.0</ele><time>2026-04-18T15:08:48Z</time></trkpt><trkpt lat="46.39162280875286" lon="6.554974178855516"><ele>474.5</ele><time>2026-04-18T15:08:49Z</time></trkpt><trkpt lat="46.391545410212224" lon="6.554841694041677"><ele>475.0</ele><time>2026-04-18T15:08:50Z</time></trkpt><trkpt lat="46.39145702491148" lon="6.554725615676803"><ele>475.5</ele><time>2026-04-18T15:08:51Z</time></trkpt><trkpt lat="46.391374319427044" lon="6.554616992696219"><ele>476.0</ele><time>2026-04-18T15:08:52Z</time></trkpt><trkpt lat="46.39129468732239" lon="6.554512406454264"><ele>476.6</ele><time>2026-04-18T15:08:53Z</time></trkpt><trkpt lat="46.39122663225372" lon="6.554422771897754"><ele>477.20000000000005</ele><time>2026-04-18T15:08:54Z</time></trkpt><trkpt lat="46.3911586520504" lon="6.55433295106931"><ele>477.79999999999995</ele><time>2026-04-18T15:08:55Z</time></trkpt><trkpt lat="46.39108900353609" lon="6.554240926206303"><ele>478.4</ele><time>2026-04-18T15:08:56Z</time></trkpt><trkpt lat="46.39101634201912" lon="6.55414492006833"><ele>479.0</ele><time>2026-04-18T15:08:57Z</time></trkpt><trkpt lat="46.390937900052315" lon="6.554040163431998"><ele>479.0</ele><time>2026-04-18T15:08:58Z</time></trkpt><trkpt lat="46.39084702234077" lon="6.553940924614418"><ele>479.0</ele><time>2026-04-18T15:08:59Z</time></trkpt><trkpt lat="46.390769097936015" lon="6.553822255691493"><ele>479.0</ele><time>2026-04-18T15:09:00Z</time></trkpt><trkpt lat="46.39069772527546" lon="6.553697891095768"><ele>479.0</ele><time>2026-04-18T15:09:01Z</time></trkpt><trkpt lat="46.39063578520185" lon="6.553558753108142"><ele>479.0</ele><time>2026-04-18T15:09:02Z</time></trkpt><trkpt lat="46.39059300863546" lon="6.553400157121118"><ele>479.0</ele><time>2026-04-18T15:09:03Z</time></trkpt><trkpt lat="46.39054250226236" lon="6.553243928444045"><ele>479.0</ele><time>2026-04-18T15:09:04Z</time></trkpt><trkpt lat="46.390496047464865" lon="6.553089961133449"><ele>479.0</ele><time>2026-04-18T15:09:05Z</time></trkpt><trkpt lat="46.39045080901981" lon="6.552937577964403"><ele>480.5</ele><time>2026-04-18T15:09:06Z</time></trkpt><trkpt lat="46.3904059041174" lon="6.552786318261675"><ele>482.0</ele><time>2026-04-18T15:09:07Z</time></trkpt><trkpt lat="46.390360874089595" lon="6.552634638003498"><ele>483.5</ele><time>2026-04-18T15:09:08Z</time></trkpt><trkpt lat="46.39031663876888" lon="6.552485633703482"><ele>485.0</ele><time>2026-04-18T15:09:09Z</time></trkpt><trkpt lat="46.390272588780846" lon="6.55233919126359"><ele>485.0</ele><time>2026-04-18T15:09:10Z</time></trkpt><trkpt lat="46.3902278030179" lon="6.552191337444955"><ele>485.0</ele><time>2026-04-18T15:09:11Z</time></trkpt><trkpt lat="46.39018284002922" lon="6.552042898647491"><ele>485.0</ele><time>2026-04-18T15:09:12Z</time></trkpt><trkpt lat="46.390135290170626" lon="6.551885919550875"><ele>485.0</ele><time>2026-04-18T15:09:13Z</time></trkpt><trkpt lat="46.39009233225122" lon="6.551744100092753"><ele>485.0</ele><time>2026-04-18T15:09:14Z</time></trkpt><trkpt lat="46.3900530982484" lon="6.5516125642365095"><ele>484.0</ele><time>2026-04-18T15:09:15Z</time></trkpt><trkpt lat="46.39001536883891" lon="6.551485817986954"><ele>483.0</ele><time>2026-04-18T15:09:16Z</time></trkpt><trkpt lat="46.38997785608266" lon="6.551359799613565"><ele>482.0</ele><time>2026-04-18T15:09:17Z</time></trkpt><trkpt lat="46.38994146413184" lon="6.551233256562174"><ele>481.0</ele><time>2026-04-18T15:09:18Z</time></trkpt><trkpt lat="46.38990007767693" lon="6.551088262685142"><ele>480.0</ele><time>2026-04-18T15:09:19Z</time></trkpt><trkpt lat="46.389862347316416" lon="6.550938951811088"><ele>480.0</ele><time>2026-04-18T15:09:20Z</time></trkpt><trkpt lat="46.38982699770143" lon="6.550795623194102"><ele>480.0</ele><time>2026-04-18T15:09:21Z</time></trkpt><trkpt lat="46.38979472686324" lon="6.550664777878672"><ele>480.0</ele><time>2026-04-18T15:09:22Z</time></trkpt><trkpt lat="46.3897635388211" lon="6.550538323984654"><ele>480.0</ele><time>2026-04-18T15:09:23Z</time></trkpt><trkpt lat="46.38973712240563" lon="6.55043738437972"><ele>480.0</ele><time>2026-04-18T15:09:24Z</time></trkpt><trkpt lat="46.38971382879939" lon="6.550347583438078"><ele>480.0</ele><time>2026-04-18T15:09:25Z</time></trkpt><trkpt lat="46.3896762055684" lon="6.550202539506019"><ele>481.3333333333333</ele><time>2026-04-18T15:09:27Z</time></trkpt><trkpt lat="46.389647381822584" lon="6.55008386336584"><ele>482.66666666666663</ele><time>2026-04-18T15:09:29Z</time></trkpt><trkpt lat="46.389610453913406" lon="6.549930503037708"><ele>484.0</ele><time>2026-04-18T15:09:31Z</time></trkpt><trkpt lat="46.38958355821312" lon="6.5498275059410735"><ele>485.3333333333333</ele><time>2026-04-18T15:09:32Z</time></trkpt><trkpt lat="46.38955245327979" lon="6.549716650693339"><ele>486.66666666666663</ele><time>2026-04-18T15:09:33Z</time></trkpt><trkpt lat="46.38951914010667" lon="6.5496073545367475"><ele>488.0</ele><time>2026-04-18T15:09:34Z</time></trkpt><trkpt lat="46.38947543545216" lon="6.549515221147225"><ele>488.0</ele><time>2026-04-18T15:09:35Z</time></trkpt><trkpt lat="46.38944888599787" lon="6.549403385356381"><ele>487.99999999999994</ele><time>2026-04-18T15:09:36Z</time></trkpt><trkpt lat="46.38941004160702" lon="6.549281956018944"><ele>487.99999999999994</ele><time>2026-04-18T15:09:37Z</time></trkpt><trkpt lat="46.38935396525926" lon="6.549143618608503"><ele>488.0</ele><time>2026-04-18T15:09:38Z</time></trkpt><trkpt lat="46.38932246496229" lon="6.54898678151315"><ele>488.0</ele><time>2026-04-18T15:09:39Z</time></trkpt><trkpt lat="46.389278020602255" lon="6.54884530131576"><ele>487.5</ele><time>2026-04-18T15:09:40Z</time></trkpt><trkpt lat="46.38922735112439" lon="6.548684004582979"><ele>487.0</ele><time>2026-04-18T15:09:41Z</time></trkpt><trkpt lat="46.389174271999636" lon="6.548513386501465"><ele>486.5</ele><time>2026-04-18T15:09:42Z</time></trkpt><trkpt lat="46.389121297005424" lon="6.548339383024025"><ele>486.0</ele><time>2026-04-18T15:09:43Z</time></trkpt><trkpt lat="46.38907295532756" lon="6.5481751884839845"><ele>486.0</ele><time>2026-04-18T15:09:44Z</time></trkpt><trkpt lat="46.38902422850174" lon="6.54800968585574"><ele>486.0</ele><time>2026-04-18T15:09:45Z</time></trkpt><trkpt lat="46.38896905528722" lon="6.547822890873695"><ele>486.0</ele><time>2026-04-18T15:09:46Z</time></trkpt><trkpt lat="46.38890044016893" lon="6.547596947098269"><ele>486.0</ele><time>2026-04-18T15:09:47Z</time></trkpt><trkpt lat="46.38882988722258" lon="6.5473646221075645"><ele>490.33333333333337</ele><time>2026-04-18T15:09:48Z</time></trkpt><trkpt lat="46.388759151837625" lon="6.547138061052434"><ele>494.6666666666667</ele><time>2026-04-18T15:09:49Z</time></trkpt><trkpt lat="46.388682957540915" lon="6.5468970501913955"><ele>499.0</ele><time>2026-04-18T15:09:50Z</time></trkpt><trkpt lat="46.38859376766914" lon="6.546625323182818"><ele>499.0</ele><time>2026-04-18T15:09:51Z</time></trkpt><trkpt lat="46.38849616480036" lon="6.5463331952546975"><ele>499.0</ele><time>2026-04-18T15:09:52Z</time></trkpt><trkpt lat="46.38838355990876" lon="6.546045733273512"><ele>498.0</ele><time>2026-04-18T15:09:53Z</time></trkpt><trkpt lat="46.38829381013268" lon="6.545780110972239"><ele>497.0</ele><time>2026-04-18T15:09:54Z</time></trkpt><trkpt lat="46.388231391108974" lon="6.545540720783033"><ele>496.0</ele><time>2026-04-18T15:09:55Z</time></trkpt><trkpt lat="46.388161488087135" lon="6.54533144585727"><ele>495.0</ele><time>2026-04-18T15:09:56Z</time></trkpt><trkpt lat="46.38809978751262" lon="6.545146318454154"><ele>494.0</ele><time>2026-04-18T15:09:57Z</time></trkpt><trkpt lat="46.38804126090808" lon="6.5449707144661415"><ele>493.0</ele><time>2026-04-18T15:09:58Z</time></trkpt><trkpt lat="46.38796887481475" lon="6.544808762911256"><ele>492.0</ele><time>2026-04-18T15:09:59Z</time></trkpt><trkpt lat="46.38791496719573" lon="6.544643537297532"><ele>494.1666666666667</ele><time>2026-04-18T15:10:00Z</time></trkpt><trkpt lat="46.38786615938539" lon="6.544500762064377"><ele>496.33333333333337</ele><time>2026-04-18T15:10:01Z</time></trkpt><trkpt lat="46.38782948980943" lon="6.544389636871127"><ele>498.5</ele><time>2026-04-18T15:10:02Z</time></trkpt><trkpt lat="46.3878034747195" lon="6.5443001324400285"><ele>500.6666666666667</ele><time>2026-04-18T15:10:03Z</time></trkpt><trkpt lat="46.38778815075927" lon="6.544200022404373"><ele>502.83333333333337</ele><time>2026-04-18T15:10:05Z</time></trkpt><trkpt lat="46.387807612172644" lon="6.544077836854373"><ele>505.0</ele><time>2026-04-18T15:10:16Z</time></trkpt><trkpt lat="46.38772779928389" lon="6.544009514367771"><ele>505.0</ele><time>2026-04-18T15:10:17Z</time></trkpt><trkpt lat="46.387628623320694" lon="6.543915414529195"><ele>505.0</ele><time>2026-04-18T15:10:19Z</time></trkpt><trkpt lat="46.38757133321975" lon="6.543836571641244"><ele>505.0</ele><time>2026-04-18T15:10:21Z</time></trkpt><trkpt lat="46.38750755408392" lon="6.543723536475665"><ele>505.0</ele><time>2026-04-18T15:10:24Z</time></trkpt><trkpt lat="46.387463905023594" lon="6.54364226190281"><ele>505.0</ele><time>2026-04-18T15:10:25Z</time></trkpt><trkpt lat="46.38742259922943" lon="6.543536433088295"><ele>504.4</ele><time>2026-04-18T15:10:26Z</time></trkpt><trkpt lat="46.387397870471595" lon="6.543411648980709"><ele>503.8</ele><time>2026-04-18T15:10:27Z</time></trkpt><trkpt lat="46.38738525740724" lon="6.543282577408796"><ele>503.20000000000005</ele><time>2026-04-18T15:10:28Z</time></trkpt><trkpt lat="46.38737218257621" lon="6.543137957983086"><ele>502.6</ele><time>2026-04-18T15:10:29Z</time></trkpt><trkpt lat="46.38735889733685" lon="6.542987484685205"><ele>502.0</ele><time>2026-04-18T15:10:30Z</time></trkpt><trkpt lat="46.387358913685006" lon="6.542846586070652"><ele>501.83333333333337</ele><time>2026-04-18T15:10:31Z</time></trkpt><trkpt lat="46.38735432075568" lon="6.542704483778472"><ele>501.6666666666667</ele><time>2026-04-18T15:10:32Z</time></trkpt><trkpt lat="46.3873614281649" lon="6.542582649512931"><ele>501.5</ele><time>2026-04-18T15:10:32.999Z</time></trkpt><trkpt lat="46.38736203601054" lon="6.542448656980305"><ele>501.33333333333337</ele><time>2026-04-18T15:10:34Z</time></trkpt><trkpt lat="46.387357302146164" lon="6.54232045997906"><ele>501.1666666666667</ele><time>2026-04-18T15:10:35Z</time></trkpt><trkpt lat="46.38734982045283" lon="6.542214731373821"><ele>501.0</ele><time>2026-04-18T15:10:36Z</time></trkpt><trkpt lat="46.38733974272619" lon="6.542073882228828"><ele>500.20000000000005</ele><time>2026-04-18T15:10:37Z</time></trkpt><trkpt lat="46.38733622739214" lon="6.541926787593388"><ele>499.40000000000003</ele><time>2026-04-18T15:10:38Z</time></trkpt><trkpt lat="46.38734093222167" lon="6.541779195567198"><ele>498.6</ele><time>2026-04-18T15:10:39Z</time></trkpt><trkpt lat="46.387344196062685" lon="6.541624745379701"><ele>497.8</ele><time>2026-04-18T15:10:40Z</time></trkpt><trkpt lat="46.387343966674294" lon="6.541470304192721"><ele>497.0</ele><time>2026-04-18T15:10:41Z</time></trkpt><trkpt lat="46.38734186486873" lon="6.5413228911664225"><ele>495.75</ele><time>2026-04-18T15:10:42Z</time></trkpt><trkpt lat="46.387344677619986" lon="6.5411519944191685"><ele>494.5</ele><time>2026-04-18T15:10:43Z</time></trkpt><trkpt lat="46.38734816184208" lon="6.5409861393629205"><ele>493.25</ele><time>2026-04-18T15:10:44Z</time></trkpt><trkpt lat="46.387347253882986" lon="6.5407899703876415"><ele>492.0</ele><time>2026-04-18T15:10:45Z</time></trkpt><trkpt lat="46.3873451842098" lon="6.540580287477167"><ele>491.66666666666663</ele><time>2026-04-18T15:10:46Z</time></trkpt><trkpt lat="46.387341051283705" lon="6.540362326969366"><ele>491.3333333333333</ele><time>2026-04-18T15:10:47Z</time></trkpt><trkpt lat="46.387330351683694" lon="6.540131997725154"><ele>491.0</ele><time>2026-04-18T15:10:48Z</time></trkpt><trkpt lat="46.38731880343998" lon="6.539892064154886"><ele>491.0</ele><time>2026-04-18T15:10:49Z</time></trkpt><trkpt lat="46.38730414857054" lon="6.539637356594225"><ele>491.0</ele><time>2026-04-18T15:10:50Z</time></trkpt><trkpt lat="46.38729228256756" lon="6.53939330039353"><ele>491.0</ele><time>2026-04-18T15:10:51Z</time></trkpt><trkpt lat="46.38728028172964" lon="6.539167073086026"><ele>491.5</ele><time>2026-04-18T15:10:52Z</time></trkpt><trkpt lat="46.38726677625417" lon="6.538958995755054"><ele>492.0</ele><time>2026-04-18T15:10:53Z</time></trkpt><trkpt lat="46.38725020933334" lon="6.53875908742723"><ele>492.5</ele><time>2026-04-18T15:10:54Z</time></trkpt><trkpt lat="46.38722585284356" lon="6.538558360978962"><ele>493.0</ele><time>2026-04-18T15:10:55Z</time></trkpt><trkpt lat="46.38718425674522" lon="6.538345298220083"><ele>494.33333333333337</ele><time>2026-04-18T15:10:56Z</time></trkpt><trkpt lat="46.387126976234164" lon="6.538118039012498"><ele>495.66666666666663</ele><time>2026-04-18T15:10:57Z</time></trkpt><trkpt lat="46.38707188647584" lon="6.5379031521609186"><ele>497.0</ele><time>2026-04-18T15:10:58Z</time></trkpt><trkpt lat="46.38702178603001" lon="6.5376948215838535"><ele>497.0</ele><time>2026-04-18T15:10:59Z</time></trkpt><trkpt lat="46.38698222371856" lon="6.537489751184872"><ele>497.0</ele><time>2026-04-18T15:11:00Z</time></trkpt><trkpt lat="46.386952762670894" lon="6.537274415868535"><ele>497.0</ele><time>2026-04-18T15:11:01Z</time></trkpt><trkpt lat="46.38693287447228" lon="6.537055390244192"><ele>495.3333333333333</ele><time>2026-04-18T15:11:02Z</time></trkpt><trkpt lat="46.386908913034084" lon="6.536827474231198"><ele>493.66666666666663</ele><time>2026-04-18T15:11:03Z</time></trkpt><trkpt lat="46.38688677168882" lon="6.536609848917036"><ele>492.0</ele><time>2026-04-18T15:11:04Z</time></trkpt><trkpt lat="46.38686597600506" lon="6.536408544942345"><ele>491.75</ele><time>2026-04-18T15:11:05Z</time></trkpt><trkpt lat="46.38684600281677" lon="6.536212171010551"><ele>491.5</ele><time>2026-04-18T15:11:06Z</time></trkpt><trkpt lat="46.3868236307287" lon="6.536002081064041"><ele>491.25</ele><time>2026-04-18T15:11:07Z</time></trkpt><trkpt lat="46.38679464282865" lon="6.535783227495576"><ele>491.0</ele><time>2026-04-18T15:11:08Z</time></trkpt><trkpt lat="46.38676260699238" lon="6.535576000078074"><ele>490.25</ele><time>2026-04-18T15:11:09Z</time></trkpt><trkpt lat="46.38673011321821" lon="6.535367664174697"><ele>489.5</ele><time>2026-04-18T15:11:10Z</time></trkpt><trkpt lat="46.38670552991374" lon="6.535156100058537"><ele>488.75</ele><time>2026-04-18T15:11:11Z</time></trkpt><trkpt lat="46.38664462556509" lon="6.534968641814174"><ele>488.0</ele><time>2026-04-18T15:11:12Z</time></trkpt><trkpt lat="46.38660105647813" lon="6.534777188353824"><ele>488.0</ele><time>2026-04-18T15:11:13Z</time></trkpt><trkpt lat="46.3865562743904" lon="6.534585135608854"><ele>488.0</ele><time>2026-04-18T15:11:14Z</time></trkpt><trkpt lat="46.386513589148585" lon="6.534401634375662"><ele>488.0</ele><time>2026-04-18T15:11:15Z</time></trkpt><trkpt lat="46.38648119212983" lon="6.534213883139642"><ele>488.0</ele><time>2026-04-18T15:11:16Z</time></trkpt><trkpt lat="46.38643999282533" lon="6.534037498140765"><ele>488.5</ele><time>2026-04-18T15:11:17Z</time></trkpt><trkpt lat="46.386397429477775" lon="6.533856069592291"><ele>489.0</ele><time>2026-04-18T15:11:18Z</time></trkpt><trkpt lat="46.386355426512615" lon="6.533677115826764"><ele>489.5</ele><time>2026-04-18T15:11:19Z</time></trkpt><trkpt lat="46.386315245440436" lon="6.533501773195536"><ele>490.0</ele><time>2026-04-18T15:11:20Z</time></trkpt><trkpt lat="46.38624437076788" lon="6.533313665413878"><ele>490.0</ele><time>2026-04-18T15:11:21Z</time></trkpt><trkpt lat="46.38618443691932" lon="6.533104320261878"><ele>490.0</ele><time>2026-04-18T15:11:22Z</time></trkpt><trkpt lat="46.386136887866876" lon="6.532871757669483"><ele>490.0</ele><time>2026-04-18T15:11:23Z</time></trkpt><trkpt lat="46.38609477665914" lon="6.532620785748131"><ele>489.33333333333337</ele><time>2026-04-18T15:11:24Z</time></trkpt><trkpt lat="46.38602630319074" lon="6.532355840884061"><ele>488.66666666666663</ele><time>2026-04-18T15:11:25Z</time></trkpt><trkpt lat="46.38596691768962" lon="6.532081979801918"><ele>488.0</ele><time>2026-04-18T15:11:26Z</time></trkpt><trkpt lat="46.38589243684095" lon="6.531803099047788"><ele>487.0</ele><time>2026-04-18T15:11:27Z</time></trkpt><trkpt lat="46.385818243435665" lon="6.531526219461972"><ele>486.0</ele><time>2026-04-18T15:11:28Z</time></trkpt><trkpt lat="46.38573819004885" lon="6.5312412281020595"><ele>485.0</ele><time>2026-04-18T15:11:29Z</time></trkpt><trkpt lat="46.385659023708385" lon="6.530959139035689"><ele>485.0</ele><time>2026-04-18T15:11:30Z</time></trkpt><trkpt lat="46.38558749923669" lon="6.530694406489402"><ele>485.0</ele><time>2026-04-18T15:11:31Z</time></trkpt><trkpt lat="46.38552223706518" lon="6.530446194952546"><ele>485.0</ele><time>2026-04-18T15:11:32Z</time></trkpt><trkpt lat="46.385458106273404" lon="6.5302127030192985"><ele>485.0</ele><time>2026-04-18T15:11:33Z</time></trkpt><trkpt lat="46.385399083879356" lon="6.529983517995659"><ele>485.0</ele><time>2026-04-18T15:11:34Z</time></trkpt><trkpt lat="46.385341433671655" lon="6.529740949673993"><ele>485.0</ele><time>2026-04-18T15:11:35Z</time></trkpt><trkpt lat="46.385285333917004" lon="6.529478225044605"><ele>484.0</ele><time>2026-04-18T15:11:36Z</time></trkpt><trkpt lat="46.38525226895879" lon="6.529189541095865"><ele>483.0</ele><time>2026-04-18T15:11:37Z</time></trkpt><trkpt lat="46.38518836495405" lon="6.528904217397495"><ele>482.0</ele><time>2026-04-18T15:11:38Z</time></trkpt><trkpt lat="46.385139169639416" lon="6.528618222266062"><ele>481.3333333333333</ele><time>2026-04-18T15:11:39Z</time></trkpt><trkpt lat="46.38508790132582" lon="6.528353358617495"><ele>480.66666666666663</ele><time>2026-04-18T15:11:40Z</time></trkpt><trkpt lat="46.38503065411409" lon="6.528108019238095"><ele>480.0</ele><time>2026-04-18T15:11:41Z</time></trkpt><trkpt lat="46.38497708779655" lon="6.527858051010953"><ele>479.0</ele><time>2026-04-18T15:11:42Z</time></trkpt><trkpt lat="46.38488077266759" lon="6.527634595993993"><ele>478.0</ele><time>2026-04-18T15:11:43Z</time></trkpt><trkpt lat="46.38478555748834" lon="6.527414265161572"><ele>477.0</ele><time>2026-04-18T15:11:44Z</time></trkpt><trkpt lat="46.384680408506355" lon="6.52720567421803"><ele>478.33333333333337</ele><time>2026-04-18T15:11:45Z</time></trkpt><trkpt lat="46.384576904362646" lon="6.527015014639444"><ele>479.6666666666667</ele><time>2026-04-18T15:11:46Z</time></trkpt><trkpt lat="46.38446836111437" lon="6.526828736601447"><ele>481.0</ele><time>2026-04-18T15:11:47Z</time></trkpt><trkpt lat="46.38436479545699" lon="6.52664416011064"><ele>481.0</ele><time>2026-04-18T15:11:48Z</time></trkpt><trkpt lat="46.3842638216417" lon="6.5264641350820956"><ele>481.0</ele><time>2026-04-18T15:11:49Z</time></trkpt><trkpt lat="46.38417457246868" lon="6.526295942348841"><ele>481.0</ele><time>2026-04-18T15:11:50Z</time></trkpt><trkpt lat="46.384086510658456" lon="6.526128123037184"><ele>480.0</ele><time>2026-04-18T15:11:51Z</time></trkpt><trkpt lat="46.3840373730585" lon="6.525938624585809"><ele>479.0</ele><time>2026-04-18T15:11:52Z</time></trkpt><trkpt lat="46.384015699376874" lon="6.525743120617952"><ele>478.0</ele><time>2026-04-18T15:11:53Z</time></trkpt><trkpt lat="46.383983816355084" lon="6.525530650890255"><ele>477.0</ele><time>2026-04-18T15:11:54Z</time></trkpt><trkpt lat="46.38393529963011" lon="6.525308107148035"><ele>477.33333333333337</ele><time>2026-04-18T15:11:55Z</time></trkpt><trkpt lat="46.383884060119016" lon="6.525077133305158"><ele>477.6666666666667</ele><time>2026-04-18T15:11:56Z</time></trkpt><trkpt lat="46.38383046558979" lon="6.524845171522677"><ele>478.0</ele><time>2026-04-18T15:11:57Z</time></trkpt><trkpt lat="46.38377806937696" lon="6.5246220435021085"><ele>476.6666666666667</ele><time>2026-04-18T15:11:58Z</time></trkpt><trkpt lat="46.38372098181155" lon="6.5244144361970156"><ele>475.33333333333337</ele><time>2026-04-18T15:11:59Z</time></trkpt><trkpt lat="46.38364711173926" lon="6.524207898266553"><ele>474.0</ele><time>2026-04-18T15:12:00Z</time></trkpt><trkpt lat="46.38356732384009" lon="6.5240093813389874"><ele>474.0</ele><time>2026-04-18T15:12:01Z</time></trkpt><trkpt lat="46.38347383608591" lon="6.523819978761534"><ele>474.0</ele><time>2026-04-18T15:12:02Z</time></trkpt><trkpt lat="46.38337743041409" lon="6.52363252886941"><ele>474.0</ele><time>2026-04-18T15:12:03Z</time></trkpt><trkpt lat="46.38329326124833" lon="6.523460909141497"><ele>472.25</ele><time>2026-04-18T15:12:04Z</time></trkpt><trkpt lat="46.38321540656181" lon="6.523293787173027"><ele>470.5</ele><time>2026-04-18T15:12:05Z</time></trkpt><trkpt lat="46.38315512326021" lon="6.523130919355609"><ele>468.75</ele><time>2026-04-18T15:12:06Z</time></trkpt><trkpt lat="46.38311341697632" lon="6.522987823267426"><ele>467.0</ele><time>2026-04-18T15:12:07Z</time></trkpt><trkpt lat="46.383104301893255" lon="6.5228494639358905"><ele>465.8333333333333</ele><time>2026-04-18T15:12:08Z</time></trkpt><trkpt lat="46.3830935717214" lon="6.522739329433733"><ele>464.66666666666663</ele><time>2026-04-18T15:12:09Z</time></trkpt><trkpt lat="46.3830865194443" lon="6.522643987514479"><ele>463.5</ele><time>2026-04-18T15:12:10Z</time></trkpt><trkpt lat="46.3830879892741" lon="6.522538880488415"><ele>462.33333333333337</ele><time>2026-04-18T15:12:12Z</time></trkpt><trkpt lat="46.38308399175132" lon="6.52240923121011"><ele>461.1666666666667</ele><time>2026-04-18T15:12:33.999Z</time></trkpt><trkpt lat="46.383118445823115" lon="6.5222328806627505"><ele>460.0</ele><time>2026-04-18T15:12:35.999Z</time></trkpt><trkpt lat="46.38314524667262" lon="6.522110052198603"><ele>458.75</ele><time>2026-04-18T15:12:36.999Z</time></trkpt><trkpt lat="46.38317123906975" lon="6.52197041774711"><ele>457.5</ele><time>2026-04-18T15:12:37.999Z</time></trkpt><trkpt lat="46.3832036857031" lon="6.5218543253828365"><ele>456.25</ele><time>2026-04-18T15:12:39Z</time></trkpt><trkpt lat="46.383234771485824" lon="6.521670690659571"><ele>455.0</ele><time>2026-04-18T15:12:40Z</time></trkpt><trkpt lat="46.38327055334509" lon="6.521454296537285"><ele>455.0</ele><time>2026-04-18T15:12:41.001Z</time></trkpt><trkpt lat="46.38331383885188" lon="6.521223178358942"><ele>455.0</ele><time>2026-04-18T15:12:42.001Z</time></trkpt><trkpt lat="46.38334498797561" lon="6.521013611287347"><ele>455.0</ele><time>2026-04-18T15:12:43.001Z</time></trkpt><trkpt lat="46.38334782226111" lon="6.520798371127749"><ele>455.0</ele><time>2026-04-18T15:12:44.001Z</time></trkpt><trkpt lat="46.383329315862056" lon="6.520564196156157"><ele>455.0</ele><time>2026-04-18T15:12:45.001Z</time></trkpt><trkpt lat="46.38328117062902" lon="6.520321045480827"><ele>455.0</ele><time>2026-04-18T15:12:46.001Z</time></trkpt><trkpt lat="46.383201062482705" lon="6.520092177238993"><ele>455.66666666666663</ele><time>2026-04-18T15:12:47.001Z</time></trkpt><trkpt lat="46.38310021354328" lon="6.519849601508083"><ele>456.33333333333337</ele><time>2026-04-18T15:12:48.001Z</time></trkpt><trkpt lat="46.38299501650666" lon="6.519584478764811"><ele>457.0</ele><time>2026-04-18T15:12:49.001Z</time></trkpt><trkpt lat="46.38289354460316" lon="6.519294878237601"><ele>457.0</ele><time>2026-04-18T15:12:50.001Z</time></trkpt><trkpt lat="46.38279339013337" lon="6.518998072967369"><ele>457.0</ele><time>2026-04-18T15:12:51.001Z</time></trkpt><trkpt lat="46.382687936426564" lon="6.518692465221615"><ele>452.0</ele><time>2026-04-18T15:12:52.001Z</time></trkpt><trkpt lat="46.382579591794844" lon="6.518377064204775"><ele>447.0</ele><time>2026-04-18T15:12:53.001Z</time></trkpt><trkpt lat="46.38247820032871" lon="6.518054889475511"><ele>443.5</ele><time>2026-04-18T15:12:54.001Z</time></trkpt><trkpt lat="46.382403129443404" lon="6.517707827008761"><ele>440.0</ele><time>2026-04-18T15:12:55.001Z</time></trkpt><trkpt lat="46.38231957369664" lon="6.517347955837634"><ele>437.5</ele><time>2026-04-18T15:12:56.001Z</time></trkpt><trkpt lat="46.382239885137466" lon="6.516952717871468"><ele>435.0</ele><time>2026-04-18T15:12:57.001Z</time></trkpt><trkpt lat="46.382150827250314" lon="6.516550527710225"><ele>437.0</ele><time>2026-04-18T15:12:58.001Z</time></trkpt><trkpt lat="46.38211347937531" lon="6.516168309077143"><ele>439.0</ele><time>2026-04-18T15:12:59.001Z</time></trkpt><trkpt lat="46.38204837459805" lon="6.515816697035575"><ele>439.0</ele><time>2026-04-18T15:13:00.001Z</time></trkpt><trkpt lat="46.38197761297894" lon="6.515478803484685"><ele>439.0</ele><time>2026-04-18T15:13:01.001Z</time></trkpt><trkpt lat="46.38189242048593" lon="6.515155860772027"><ele>436.5</ele><time>2026-04-18T15:13:02.001Z</time></trkpt><trkpt lat="46.38180186147642" lon="6.514833619634557"><ele>434.0</ele><time>2026-04-18T15:13:03.001Z</time></trkpt><trkpt lat="46.38171949538165" lon="6.5145185396911325"><ele>432.66666666666663</ele><time>2026-04-18T15:13:04.001Z</time></trkpt><trkpt lat="46.38163778490689" lon="6.514217373635264"><ele>431.33333333333337</ele><time>2026-04-18T15:13:05.001Z</time></trkpt><trkpt lat="46.38156388407674" lon="6.513922850823722"><ele>430.0</ele><time>2026-04-18T15:13:06.001Z</time></trkpt><trkpt lat="46.38148994882058" lon="6.513636132127156"><ele>428.6666666666667</ele><time>2026-04-18T15:13:07.001Z</time></trkpt><trkpt lat="46.381419724090044" lon="6.513381089759735"><ele>427.33333333333337</ele><time>2026-04-18T15:13:08.001Z</time></trkpt><trkpt lat="46.38135198594866" lon="6.513118362210528"><ele>426.0</ele><time>2026-04-18T15:13:09.001Z</time></trkpt><trkpt lat="46.381286780226006" lon="6.512877999303499"><ele>426.0</ele><time>2026-04-18T15:13:10.001Z</time></trkpt><trkpt lat="46.38122100580599" lon="6.5126464834187505"><ele>426.0</ele><time>2026-04-18T15:13:11.001Z</time></trkpt><trkpt lat="46.381136570856" lon="6.512432791458112"><ele>426.0</ele><time>2026-04-18T15:13:12.001Z</time></trkpt><trkpt lat="46.38102516586384" lon="6.512234999051422"><ele>424.66666666666663</ele><time>2026-04-18T15:13:13.001Z</time></trkpt><trkpt lat="46.38087619631734" lon="6.51206301906459"><ele>423.3333333333333</ele><time>2026-04-18T15:13:14.001Z</time></trkpt><trkpt lat="46.38070352631658" lon="6.511909697050515"><ele>422.0</ele><time>2026-04-18T15:13:15.001Z</time></trkpt><trkpt lat="46.38051430694952" lon="6.511745091245566"><ele>422.0</ele><time>2026-04-18T15:13:16.001Z</time></trkpt><trkpt lat="46.38032234386261" lon="6.511577988789091"><ele>422.0</ele><time>2026-04-18T15:13:17.001Z</time></trkpt><trkpt lat="46.380138274990216" lon="6.511425118482212"><ele>422.0</ele><time>2026-04-18T15:13:18.001Z</time></trkpt><trkpt lat="46.379955521855024" lon="6.511299995606724"><ele>418.66666666666663</ele><time>2026-04-18T15:13:19.001Z</time></trkpt><trkpt lat="46.37977144601222" lon="6.511201845803381"><ele>415.33333333333337</ele><time>2026-04-18T15:13:20.001Z</time></trkpt><trkpt lat="46.37959163812583" lon="6.511110085735761"><ele>412.0</ele><time>2026-04-18T15:13:21.001Z</time></trkpt><trkpt lat="46.37941570776735" lon="6.51101112416972"><ele>412.0</ele><time>2026-04-18T15:13:22.001Z</time></trkpt><trkpt lat="46.37924714917676" lon="6.51090100393979"><ele>412.0</ele><time>2026-04-18T15:13:23.001Z</time></trkpt><trkpt lat="46.37910624421988" lon="6.510748061931589"><ele>412.0</ele><time>2026-04-18T15:13:24.001Z</time></trkpt><trkpt lat="46.378982676821764" lon="6.510577080801836"><ele>409.0</ele><time>2026-04-18T15:13:25.001Z</time></trkpt><trkpt lat="46.37889161259933" lon="6.510382207898814"><ele>406.0</ele><time>2026-04-18T15:13:26.001Z</time></trkpt><trkpt lat="46.37880779686988" lon="6.510181152939672"><ele>403.0</ele><time>2026-04-18T15:13:27.001Z</time></trkpt><trkpt lat="46.3787870245349" lon="6.50994656483653"><ele>403.0</ele><time>2026-04-18T15:13:28.001Z</time></trkpt><trkpt lat="46.3787799972131" lon="6.509712020246183"><ele>403.0</ele><time>2026-04-18T15:13:29.001Z</time></trkpt><trkpt lat="46.37877621802611" lon="6.509465630111085"><ele>403.0</ele><time>2026-04-18T15:13:30.001Z</time></trkpt><trkpt lat="46.378837113642305" lon="6.509243335017051"><ele>401.6666666666667</ele><time>2026-04-18T15:13:31.001Z</time></trkpt><trkpt lat="46.37885301938539" lon="6.509039238305377"><ele>400.33333333333337</ele><time>2026-04-18T15:13:32.001Z</time></trkpt><trkpt lat="46.37902326829895" lon="6.508876785132159"><ele>399.0</ele><time>2026-04-18T15:13:33.001Z</time></trkpt><trkpt lat="46.37914625272256" lon="6.508761113826908"><ele>398.5</ele><time>2026-04-18T15:13:34.001Z</time></trkpt><trkpt lat="46.37926587227084" lon="6.508650611412423"><ele>398.0</ele><time>2026-04-18T15:13:35.001Z</time></trkpt><trkpt lat="46.37938989777414" lon="6.508577661476639"><ele>397.5</ele><time>2026-04-18T15:13:36.001Z</time></trkpt><trkpt lat="46.379520022203245" lon="6.5085433837423095"><ele>397.0</ele><time>2026-04-18T15:13:37.001Z</time></trkpt><trkpt lat="46.379643936671854" lon="6.508528980633763"><ele>397.40000000000003</ele><time>2026-04-18T15:13:38.001Z</time></trkpt><trkpt lat="46.379739152991014" lon="6.508527766649439"><ele>397.8</ele><time>2026-04-18T15:13:39.001Z</time></trkpt><trkpt lat="46.37984349945067" lon="6.508549588401694"><ele>398.2</ele><time>2026-04-18T15:13:41.001Z</time></trkpt><trkpt lat="46.37989975436163" lon="6.508641347871339"><ele>398.6</ele><time>2026-04-18T15:13:44.001Z</time></trkpt><trkpt lat="46.37998666709372" lon="6.508758529255903"><ele>399.0</ele><time>2026-04-18T15:13:46.001Z</time></trkpt><trkpt lat="46.38004782220038" lon="6.508784878226252"><ele>399.0</ele><time>2026-04-18T15:13:47.001Z</time></trkpt><trkpt lat="46.38011144971704" lon="6.508763224673549"><ele>399.0</ele><time>2026-04-18T15:13:48Z</time></trkpt><trkpt lat="46.380174180088346" lon="6.508708053625547"><ele>399.0</ele><time>2026-04-18T15:13:49Z</time></trkpt><trkpt lat="46.38023734426097" lon="6.5086096096963635"><ele>399.0</ele><time>2026-04-18T15:13:50Z</time></trkpt><trkpt lat="46.38031063244308" lon="6.508511747380609"><ele>399.0</ele><time>2026-04-18T15:13:51Z</time></trkpt><trkpt lat="46.38041588321875" lon="6.50845848074404"><ele>399.0</ele><time>2026-04-18T15:13:52Z</time></trkpt><trkpt lat="46.38054435965903" lon="6.508462579099892"><ele>398.33333333333337</ele><time>2026-04-18T15:13:53Z</time></trkpt><trkpt lat="46.38068236774783" lon="6.508495362435553"><ele>397.6666666666667</ele><time>2026-04-18T15:13:54Z</time></trkpt><trkpt lat="46.38084976680825" lon="6.508496991452953"><ele>397.0</ele><time>2026-04-18T15:13:55Z</time></trkpt><trkpt lat="46.38099645812119" lon="6.508464302232019"><ele>397.0</ele><time>2026-04-18T15:13:56Z</time></trkpt><trkpt lat="46.38113135470932" lon="6.508455154254693"><ele>397.0</ele><time>2026-04-18T15:13:57Z</time></trkpt><trkpt lat="46.38124483912322" lon="6.508455884180039"><ele>397.0</ele><time>2026-04-18T15:13:58Z</time></trkpt><trkpt lat="46.381334577597556" lon="6.508487759886294"><ele>397.0</ele><time>2026-04-18T15:13:59Z</time></trkpt><trkpt lat="46.38140817628934" lon="6.508563025998183"><ele>397.0</ele><time>2026-04-18T15:14:00Z</time></trkpt><trkpt lat="46.38146040009877" lon="6.5086760479571595"><ele>397.0</ele><time>2026-04-18T15:14:01Z</time></trkpt><trkpt lat="46.38149910838119" lon="6.508829782007397"><ele>397.0</ele><time>2026-04-18T15:14:02Z</time></trkpt><trkpt lat="46.38152628889266" lon="6.508999484785859"><ele>397.0</ele><time>2026-04-18T15:14:03Z</time></trkpt><trkpt lat="46.38152555920966" lon="6.509157410861445"><ele>397.0</ele><time>2026-04-18T15:14:04Z</time></trkpt><trkpt lat="46.38148070051022" lon="6.50929507089827"><ele>397.0</ele><time>2026-04-18T15:14:05Z</time></trkpt><trkpt lat="46.38140434577175" lon="6.509402278294153"><ele>397.40000000000003</ele><time>2026-04-18T15:14:06Z</time></trkpt><trkpt lat="46.38130307055538" lon="6.509460233187194"><ele>397.8</ele><time>2026-04-18T15:14:07Z</time></trkpt><trkpt lat="46.38120017597145" lon="6.509469394288944"><ele>398.2</ele><time>2026-04-18T15:14:08Z</time></trkpt><trkpt lat="46.38109568812452" lon="6.509415956790793"><ele>398.6</ele><time>2026-04-18T15:14:09Z</time></trkpt><trkpt lat="46.38099962338757" lon="6.50930899877347"><ele>399.0</ele><time>2026-04-18T15:14:10Z</time></trkpt><trkpt lat="46.38091269117163" lon="6.509155016376222"><ele>399.0</ele><time>2026-04-18T15:14:11Z</time></trkpt><trkpt lat="46.380821173479774" lon="6.508963333881011"><ele>399.0</ele><time>2026-04-18T15:14:12Z</time></trkpt><trkpt lat="46.3807130790287" lon="6.50874939515521"><ele>399.0</ele><time>2026-04-18T15:14:13Z</time></trkpt><trkpt lat="46.38059469520092" lon="6.508513776940431"><ele>399.0</ele><time>2026-04-18T15:14:14Z</time></trkpt><trkpt lat="46.38047357008925" lon="6.508254558291252"><ele>399.0</ele><time>2026-04-18T15:14:15Z</time></trkpt><trkpt lat="46.380356515753654" lon="6.5079925407623875"><ele>399.0</ele><time>2026-04-18T15:14:16Z</time></trkpt><trkpt lat="46.380252718006744" lon="6.507749650258109"><ele>399.0</ele><time>2026-04-18T15:14:17Z</time></trkpt><trkpt lat="46.38016417850034" lon="6.507525344011762"><ele>399.0</ele><time>2026-04-18T15:14:18Z</time></trkpt><trkpt lat="46.38008416173551" lon="6.507305634834342"><ele>399.0</ele><time>2026-04-18T15:14:19Z</time></trkpt><trkpt lat="46.38000366534693" lon="6.507083590254538"><ele>399.0</ele><time>2026-04-18T15:14:20Z</time></trkpt><trkpt lat="46.37991951476488" lon="6.506847629938993"><ele>399.0</ele><time>2026-04-18T15:14:21Z</time></trkpt><trkpt lat="46.37983304681992" lon="6.506601321914041"><ele>399.0</ele><time>2026-04-18T15:14:22Z</time></trkpt><trkpt lat="46.37974909539776" lon="6.5063688960875"><ele>399.0</ele><time>2026-04-18T15:14:23Z</time></trkpt><trkpt lat="46.379670970752876" lon="6.506152921365492"><ele>399.0</ele><time>2026-04-18T15:14:24Z</time></trkpt><trkpt lat="46.37959261858574" lon="6.505949301813501"><ele>399.0</ele><time>2026-04-18T15:14:25Z</time></trkpt><trkpt lat="46.379512742849556" lon="6.505767688764467"><ele>399.0</ele><time>2026-04-18T15:14:26Z</time></trkpt><trkpt lat="46.379433057235374" lon="6.505599432477445"><ele>399.0</ele><time>2026-04-18T15:14:27Z</time></trkpt><trkpt lat="46.3793558542782" lon="6.50544736292214"><ele>399.0</ele><time>2026-04-18T15:14:28Z</time></trkpt><trkpt lat="46.37929114919985" lon="6.505312537043247"><ele>399.0</ele><time>2026-04-18T15:14:29Z</time></trkpt><trkpt lat="46.37923563340776" lon="6.505207380580819"><ele>399.0</ele><time>2026-04-18T15:14:30Z</time></trkpt><trkpt lat="46.37919483842417" lon="6.50512840576543"><ele>399.0</ele><time>2026-04-18T15:14:31Z</time></trkpt><trkpt lat="46.37912222447179" lon="6.505010303019537"><ele>399.0</ele><time>2026-04-18T15:14:33Z</time></trkpt><trkpt lat="46.379058704920475" lon="6.504898650730054"><ele>399.0</ele><time>2026-04-18T15:14:35Z</time></trkpt><trkpt lat="46.379011779085914" lon="6.504793907095084"><ele>399.0</ele><time>2026-04-18T15:14:37Z</time></trkpt><trkpt lat="46.378960882345616" lon="6.50465625383876"><ele>399.0</ele><time>2026-04-18T15:14:39Z</time></trkpt><trkpt lat="46.37895217826053" lon="6.504470760582014"><ele>399.0</ele><time>2026-04-18T15:14:41Z</time></trkpt><trkpt lat="46.37894795878248" lon="6.504370488827827"><ele>399.0</ele><time>2026-04-18T15:14:42Z</time></trkpt><trkpt lat="46.37892147449342" lon="6.50427463667511"><ele>399.0</ele><time>2026-04-18T15:14:43Z</time></trkpt><trkpt lat="46.37887117131607" lon="6.504203216564439"><ele>399.0</ele><time>2026-04-18T15:14:44Z</time></trkpt><trkpt lat="46.37880236871165" lon="6.504179067174998"><ele>399.0</ele><time>2026-04-18T15:14:45.001Z</time></trkpt><trkpt lat="46.378735913159" lon="6.504186432087458"><ele>399.4</ele><time>2026-04-18T15:14:46.001Z</time></trkpt><trkpt lat="46.378668128061506" lon="6.504219265597398"><ele>399.79999999999995</ele><time>2026-04-18T15:14:47.001Z</time></trkpt><trkpt lat="46.378581278075146" lon="6.50427722813011"><ele>400.20000000000005</ele><time>2026-04-18T15:14:48.001Z</time></trkpt><trkpt lat="46.37847835052503" lon="6.504308135433802"><ele>400.6</ele><time>2026-04-18T15:14:49.001Z</time></trkpt><trkpt lat="46.37837104128788" lon="6.50427739383978"><ele>401.0</ele><time>2026-04-18T15:14:50.001Z</time></trkpt><trkpt lat="46.37825783906035" lon="6.504202380585975"><ele>401.0</ele><time>2026-04-18T15:14:51.001Z</time></trkpt><trkpt lat="46.37813131988686" lon="6.504091491557083"><ele>401.0</ele><time>2026-04-18T15:14:52.001Z</time></trkpt><trkpt lat="46.37799636909501" lon="6.503950804637068"><ele>401.0</ele><time>2026-04-18T15:14:53.001Z</time></trkpt><trkpt lat="46.377858759416426" lon="6.503779596676347"><ele>401.66666666666663</ele><time>2026-04-18T15:14:54.001Z</time></trkpt><trkpt lat="46.37770738978283" lon="6.503581110084811"><ele>402.33333333333337</ele><time>2026-04-18T15:14:55.001Z</time></trkpt><trkpt lat="46.37754687866301" lon="6.503354812332727"><ele>403.0</ele><time>2026-04-18T15:14:56.001Z</time></trkpt><trkpt lat="46.377369652133" lon="6.503101172536255"><ele>402.5</ele><time>2026-04-18T15:14:57.001Z</time></trkpt><trkpt lat="46.377184344778684" lon="6.502870986470059"><ele>402.0</ele><time>2026-04-18T15:14:58.001Z</time></trkpt><trkpt lat="46.37697378922062" lon="6.50265951437812"><ele>402.0</ele><time>2026-04-18T15:14:59.001Z</time></trkpt><trkpt lat="46.376739864348785" lon="6.502458254891741"><ele>402.0</ele><time>2026-04-18T15:15:00.001Z</time></trkpt><trkpt lat="46.37648009800814" lon="6.502269852291517"><ele>403.5</ele><time>2026-04-18T15:15:01.001Z</time></trkpt><trkpt lat="46.37620419506169" lon="6.502109970631413"><ele>405.0</ele><time>2026-04-18T15:15:02.001Z</time></trkpt><trkpt lat="46.3759307852714" lon="6.501985812350027"><ele>406.0</ele><time>2026-04-18T15:15:03.001Z</time></trkpt><trkpt lat="46.375653739011355" lon="6.501889385789266"><ele>407.0</ele><time>2026-04-18T15:15:04.001Z</time></trkpt><trkpt lat="46.37537130564823" lon="6.501828037870886"><ele>407.5</ele><time>2026-04-18T15:15:05.001Z</time></trkpt><trkpt lat="46.37507670656097" lon="6.501808647933928"><ele>408.0</ele><time>2026-04-18T15:15:06.001Z</time></trkpt><trkpt lat="46.37477444630632" lon="6.50181556066805"><ele>411.0</ele><time>2026-04-18T15:15:07.001Z</time></trkpt><trkpt lat="46.37445738841645" lon="6.501847169899456"><ele>414.0</ele><time>2026-04-18T15:15:08.001Z</time></trkpt><trkpt lat="46.37412758815145" lon="6.501883997675638"><ele>418.0</ele><time>2026-04-18T15:15:09.001Z</time></trkpt><trkpt lat="46.37378464757918" lon="6.501912779908669"><ele>422.0</ele><time>2026-04-18T15:15:10.001Z</time></trkpt><trkpt lat="46.37342750776907" lon="6.501939982656852"><ele>422.0</ele><time>2026-04-18T15:15:11.001Z</time></trkpt><trkpt lat="46.37306577925213" lon="6.501964609918247"><ele>422.0</ele><time>2026-04-18T15:15:12.001Z</time></trkpt><trkpt lat="46.37270988832562" lon="6.5019918553200595"><ele>424.5</ele><time>2026-04-18T15:15:13.001Z</time></trkpt><trkpt lat="46.37238260770508" lon="6.502016694247592"><ele>427.0</ele><time>2026-04-18T15:15:14.001Z</time></trkpt><trkpt lat="46.37206793619923" lon="6.50204109961772"><ele>429.0</ele><time>2026-04-18T15:15:15.001Z</time></trkpt><trkpt lat="46.3717477768676" lon="6.502066139439987"><ele>431.0</ele><time>2026-04-18T15:15:16.001Z</time></trkpt><trkpt lat="46.37142078881171" lon="6.502093639357072"><ele>426.5</ele><time>2026-04-18T15:15:17.001Z</time></trkpt><trkpt lat="46.37111736938568" lon="6.502122620480262"><ele>422.0</ele><time>2026-04-18T15:15:18.001Z</time></trkpt><trkpt lat="46.370835720745774" lon="6.50214740444458"><ele>422.0</ele><time>2026-04-18T15:15:19.001Z</time></trkpt><trkpt lat="46.37056566741237" lon="6.502168666757806"><ele>422.0</ele><time>2026-04-18T15:15:20.001Z</time></trkpt><trkpt lat="46.370311311061954" lon="6.502178670836904"><ele>422.0</ele><time>2026-04-18T15:15:21.001Z</time></trkpt><trkpt lat="46.37006107722801" lon="6.502182790696925"><ele>422.0</ele><time>2026-04-18T15:15:22.001Z</time></trkpt><trkpt lat="46.36980669383421" lon="6.502166573626"><ele>423.0</ele><time>2026-04-18T15:15:23.001Z</time></trkpt><trkpt lat="46.36954754170407" lon="6.502128424596778"><ele>424.0</ele><time>2026-04-18T15:15:24.001Z</time></trkpt><trkpt lat="46.36928601962248" lon="6.50207105880552"><ele>428.5</ele><time>2026-04-18T15:15:25.001Z</time></trkpt><trkpt lat="46.36902535826967" lon="6.501995804485303"><ele>433.0</ele><time>2026-04-18T15:15:26.001Z</time></trkpt><trkpt lat="46.368767935824465" lon="6.501896978976495"><ele>437.0</ele><time>2026-04-18T15:15:27.001Z</time></trkpt><trkpt lat="46.36851646075539" lon="6.501782806266549"><ele>441.0</ele><time>2026-04-18T15:15:28.001Z</time></trkpt><trkpt lat="46.36826247029261" lon="6.501643630354888"><ele>444.5</ele><time>2026-04-18T15:15:29.001Z</time></trkpt><trkpt lat="46.36800339024298" lon="6.501474189925801"><ele>448.0</ele><time>2026-04-18T15:15:30.001Z</time></trkpt><trkpt lat="46.3677427813599" lon="6.5012786243184495"><ele>447.5</ele><time>2026-04-18T15:15:31.001Z</time></trkpt><trkpt lat="46.36748405784922" lon="6.501063767449897"><ele>447.0</ele><time>2026-04-18T15:15:32Z</time></trkpt><trkpt lat="46.36723383561632" lon="6.500816113593539"><ele>447.5</ele><time>2026-04-18T15:15:33Z</time></trkpt><trkpt lat="46.366986688839525" lon="6.5005369643360975"><ele>448.0</ele><time>2026-04-18T15:15:34Z</time></trkpt><trkpt lat="46.36674606884932" lon="6.500243275211666"><ele>448.0</ele><time>2026-04-18T15:15:35Z</time></trkpt><trkpt lat="46.36650727858102" lon="6.499921539473087"><ele>448.0</ele><time>2026-04-18T15:15:36Z</time></trkpt><trkpt lat="46.36627635604936" lon="6.499583324851584"><ele>449.5</ele><time>2026-04-18T15:15:37Z</time></trkpt><trkpt lat="46.366049672558205" lon="6.499229545316648"><ele>451.0</ele><time>2026-04-18T15:15:38Z</time></trkpt><trkpt lat="46.36581603986112" lon="6.498886285475298"><ele>451.5</ele><time>2026-04-18T15:15:39Z</time></trkpt><trkpt lat="46.3655794200625" lon="6.498541382017192"><ele>452.0</ele><time>2026-04-18T15:15:40Z</time></trkpt><trkpt lat="46.36534777443268" lon="6.498193311415024"><ele>459.5</ele><time>2026-04-18T15:15:41.001Z</time></trkpt><trkpt lat="46.365117072774574" lon="6.497838621779594"><ele>467.0</ele><time>2026-04-18T15:15:42Z</time></trkpt><trkpt lat="46.36488104650771" lon="6.497484892834292"><ele>471.0</ele><time>2026-04-18T15:15:43Z</time></trkpt><trkpt lat="46.36464215586538" lon="6.497134160219192"><ele>475.0</ele><time>2026-04-18T15:15:44Z</time></trkpt><trkpt lat="46.36440554467302" lon="6.4967944849869435"><ele>475.0</ele><time>2026-04-18T15:15:45Z</time></trkpt><trkpt lat="46.36418593878095" lon="6.496467896364752"><ele>475.0</ele><time>2026-04-18T15:15:46Z</time></trkpt><trkpt lat="46.36397699921754" lon="6.4961591587602525"><ele>476.0</ele><time>2026-04-18T15:15:47Z</time></trkpt><trkpt lat="46.36377449462568" lon="6.495848172341528"><ele>477.0</ele><time>2026-04-18T15:15:48Z</time></trkpt><trkpt lat="46.36358304109403" lon="6.495532141440842"><ele>473.5</ele><time>2026-04-18T15:15:49Z</time></trkpt><trkpt lat="46.36341005955302" lon="6.495195518138771"><ele>470.0</ele><time>2026-04-18T15:15:50Z</time></trkpt><trkpt lat="46.36325236932241" lon="6.494839962114363"><ele>474.0</ele><time>2026-04-18T15:15:51Z</time></trkpt><trkpt lat="46.36310668295856" lon="6.4944682236603555"><ele>478.0</ele><time>2026-04-18T15:15:52Z</time></trkpt><trkpt lat="46.36297359755015" lon="6.494075782882974"><ele>480.0</ele><time>2026-04-18T15:15:53Z</time></trkpt><trkpt lat="46.36285155229591" lon="6.493663042639424"><ele>482.0</ele><time>2026-04-18T15:15:54Z</time></trkpt><trkpt lat="46.36273990851368" lon="6.493240609505957"><ele>482.5</ele><time>2026-04-18T15:15:55Z</time></trkpt><trkpt lat="46.36261762125317" lon="6.492818814776732"><ele>483.0</ele><time>2026-04-18T15:15:56Z</time></trkpt><trkpt lat="46.36247786944831" lon="6.492409059437217"><ele>481.0</ele><time>2026-04-18T15:15:57Z</time></trkpt><trkpt lat="46.36232763342449" lon="6.492010858234309"><ele>479.0</ele><time>2026-04-18T15:15:58Z</time></trkpt><trkpt lat="46.36216972568251" lon="6.491627788930999"><ele>483.0</ele><time>2026-04-18T15:15:59Z</time></trkpt><trkpt lat="46.36199751674157" lon="6.491262969711165"><ele>487.0</ele><time>2026-04-18T15:16:00Z</time></trkpt><trkpt lat="46.361817924057846" lon="6.490907131481297"><ele>487.0</ele><time>2026-04-18T15:16:01Z</time></trkpt><trkpt lat="46.36162528854302" lon="6.49056327297468"><ele>487.0</ele><time>2026-04-18T15:16:02Z</time></trkpt><trkpt lat="46.361424894875626" lon="6.490237523282704"><ele>488.0</ele><time>2026-04-18T15:16:03Z</time></trkpt><trkpt lat="46.36122729096803" lon="6.489941068200983"><ele>489.0</ele><time>2026-04-18T15:16:04Z</time></trkpt><trkpt lat="46.3610115539408" lon="6.4896465737085"><ele>488.5</ele><time>2026-04-18T15:16:05Z</time></trkpt><trkpt lat="46.360781140233065" lon="6.489356930834382"><ele>488.0</ele><time>2026-04-18T15:16:06Z</time></trkpt><trkpt lat="46.36053270658081" lon="6.489075475710436"><ele>488.0</ele><time>2026-04-18T15:16:07Z</time></trkpt><trkpt lat="46.36027619333528" lon="6.488807919971813"><ele>488.0</ele><time>2026-04-18T15:16:08Z</time></trkpt><trkpt lat="46.36000136258373" lon="6.488555202744094"><ele>487.5</ele><time>2026-04-18T15:16:09Z</time></trkpt><trkpt lat="46.359717955691835" lon="6.488305584070628"><ele>487.0</ele><time>2026-04-18T15:16:10Z</time></trkpt><trkpt lat="46.35943703047771" lon="6.488056290259363"><ele>487.0</ele><time>2026-04-18T15:16:11Z</time></trkpt><trkpt lat="46.359155733154736" lon="6.487798484735043"><ele>487.0</ele><time>2026-04-18T15:16:12Z</time></trkpt><trkpt lat="46.358884129612086" lon="6.487518060507675"><ele>486.5</ele><time>2026-04-18T15:16:13Z</time></trkpt><trkpt lat="46.358625784888524" lon="6.487203760573697"><ele>486.0</ele><time>2026-04-18T15:16:14Z</time></trkpt><trkpt lat="46.35837933380901" lon="6.486872899515182"><ele>486.0</ele><time>2026-04-18T15:16:15Z</time></trkpt><trkpt lat="46.35814842865791" lon="6.48652017494084"><ele>486.0</ele><time>2026-04-18T15:16:16Z</time></trkpt><trkpt lat="46.357927164385885" lon="6.486158605874228"><ele>485.0</ele><time>2026-04-18T15:16:17Z</time></trkpt><trkpt lat="46.35772206769392" lon="6.485780865222558"><ele>484.0</ele><time>2026-04-18T15:16:18Z</time></trkpt><trkpt lat="46.35751939702813" lon="6.485397114924011"><ele>483.5</ele><time>2026-04-18T15:16:19Z</time></trkpt><trkpt lat="46.357328571262315" lon="6.48502387472871"><ele>483.0</ele><time>2026-04-18T15:16:20Z</time></trkpt><trkpt lat="46.35715526550407" lon="6.48466872482366"><ele>483.0</ele><time>2026-04-18T15:16:21Z</time></trkpt><trkpt lat="46.35698708227663" lon="6.484329626608025"><ele>483.0</ele><time>2026-04-18T15:16:22Z</time></trkpt><trkpt lat="46.35681367132221" lon="6.483994841804135"><ele>483.0</ele><time>2026-04-18T15:16:23Z</time></trkpt><trkpt lat="46.35663258116953" lon="6.483663159534092"><ele>483.0</ele><time>2026-04-18T15:16:24Z</time></trkpt><trkpt lat="46.35643999521784" lon="6.4833316460867945"><ele>482.5</ele><time>2026-04-18T15:16:25Z</time></trkpt><trkpt lat="46.356235107060655" lon="6.482999504450352"><ele>482.0</ele><time>2026-04-18T15:16:26Z</time></trkpt><trkpt lat="46.3560167449315" lon="6.482669962228669"><ele>481.5</ele><time>2026-04-18T15:16:27Z</time></trkpt><trkpt lat="46.355790433739756" lon="6.482348110011539"><ele>481.0</ele><time>2026-04-18T15:16:28Z</time></trkpt><trkpt lat="46.35554923646183" lon="6.482031607460272"><ele>480.5</ele><time>2026-04-18T15:16:29Z</time></trkpt><trkpt lat="46.35529955331376" lon="6.481720409548349"><ele>480.0</ele><time>2026-04-18T15:16:30Z</time></trkpt><trkpt lat="46.35505258898062" lon="6.481406559387837"><ele>481.0</ele><time>2026-04-18T15:16:31Z</time></trkpt><trkpt lat="46.35481368809019" lon="6.48109506717984"><ele>482.0</ele><time>2026-04-18T15:16:32Z</time></trkpt><trkpt lat="46.35459096157595" lon="6.480798769598124"><ele>482.0</ele><time>2026-04-18T15:16:33Z</time></trkpt><trkpt lat="46.354362057592674" lon="6.48051510542495"><ele>482.0</ele><time>2026-04-18T15:16:34Z</time></trkpt><trkpt lat="46.3541471386144" lon="6.48020336250286"><ele>481.5</ele><time>2026-04-18T15:16:35Z</time></trkpt><trkpt lat="46.353945116371186" lon="6.4798861991550405"><ele>481.0</ele><time>2026-04-18T15:16:36Z</time></trkpt><trkpt lat="46.35377118289024" lon="6.479551948365044"><ele>480.5</ele><time>2026-04-18T15:16:37Z</time></trkpt><trkpt lat="46.35362063404855" lon="6.479206084908708"><ele>480.0</ele><time>2026-04-18T15:16:38Z</time></trkpt><trkpt lat="46.353486337969294" lon="6.478847856115346"><ele>479.5</ele><time>2026-04-18T15:16:39Z</time></trkpt><trkpt lat="46.35336801901605" lon="6.4784792433061"><ele>479.0</ele><time>2026-04-18T15:16:40Z</time></trkpt><trkpt lat="46.35326863029831" lon="6.4780961638530306"><ele>479.5</ele><time>2026-04-18T15:16:41Z</time></trkpt><trkpt lat="46.35318942854987" lon="6.477701656794894"><ele>480.0</ele><time>2026-04-18T15:16:42Z</time></trkpt><trkpt lat="46.35312379985799" lon="6.477303495507262"><ele>479.5</ele><time>2026-04-18T15:16:43Z</time></trkpt><trkpt lat="46.353085259436995" lon="6.476897899261085"><ele>479.0</ele><time>2026-04-18T15:16:44Z</time></trkpt><trkpt lat="46.35307048156112" lon="6.476504275866461"><ele>478.0</ele><time>2026-04-18T15:16:45Z</time></trkpt><trkpt lat="46.353074010140226" lon="6.476081000210874"><ele>477.0</ele><time>2026-04-18T15:16:46Z</time></trkpt><trkpt lat="46.35309838757598" lon="6.47567131039422"><ele>477.0</ele><time>2026-04-18T15:16:47Z</time></trkpt><trkpt lat="46.35315012934953" lon="6.475255097886921"><ele>477.0</ele><time>2026-04-18T15:16:48Z</time></trkpt><trkpt lat="46.35321969735055" lon="6.474850009530293"><ele>475.5</ele><time>2026-04-18T15:16:49Z</time></trkpt><trkpt lat="46.35330968108592" lon="6.4744472147236305"><ele>474.0</ele><time>2026-04-18T15:16:50.001Z</time></trkpt><trkpt lat="46.35342095959156" lon="6.474032931815976"><ele>472.0</ele><time>2026-04-18T15:16:51.001Z</time></trkpt><trkpt lat="46.35355397868003" lon="6.473613833173814"><ele>470.0</ele><time>2026-04-18T15:16:52.001Z</time></trkpt><trkpt lat="46.35370020273895" lon="6.473200315673056"><ele>469.5</ele><time>2026-04-18T15:16:53.001Z</time></trkpt><trkpt lat="46.35385121217162" lon="6.472794507103318"><ele>469.0</ele><time>2026-04-18T15:16:54.001Z</time></trkpt><trkpt lat="46.35398979058189" lon="6.472395708110558"><ele>465.5</ele><time>2026-04-18T15:16:55.001Z</time></trkpt><trkpt lat="46.354108831225794" lon="6.472007299818901"><ele>462.0</ele><time>2026-04-18T15:16:56.001Z</time></trkpt><trkpt lat="46.35421289582587" lon="6.471623689523983"><ele>461.5</ele><time>2026-04-18T15:16:57.001Z</time></trkpt><trkpt lat="46.35430409039021" lon="6.47123199479742"><ele>461.0</ele><time>2026-04-18T15:16:58.001Z</time></trkpt><trkpt lat="46.354384522022784" lon="6.470838035506427"><ele>461.0</ele><time>2026-04-18T15:16:59.001Z</time></trkpt><trkpt lat="46.354449615901224" lon="6.4704571930692145"><ele>461.0</ele><time>2026-04-18T15:17:00.001Z</time></trkpt><trkpt lat="46.354506320256036" lon="6.4700912280095295"><ele>461.5</ele><time>2026-04-18T15:17:01.001Z</time></trkpt><trkpt lat="46.35455474647613" lon="6.469731132286119"><ele>462.0</ele><time>2026-04-18T15:17:02.001Z</time></trkpt><trkpt lat="46.3546028386538" lon="6.469365900905153"><ele>461.5</ele><time>2026-04-18T15:17:03.001Z</time></trkpt><trkpt lat="46.35464252802717" lon="6.468989695706464"><ele>461.0</ele><time>2026-04-18T15:17:04.001Z</time></trkpt><trkpt lat="46.35467050851083" lon="6.468604339971673"><ele>461.0</ele><time>2026-04-18T15:17:05.001Z</time></trkpt><trkpt lat="46.35468954472725" lon="6.468237492306039"><ele>461.0</ele><time>2026-04-18T15:17:06.001Z</time></trkpt><trkpt lat="46.35469827121859" lon="6.4678938314740035"><ele>460.5</ele><time>2026-04-18T15:17:07.001Z</time></trkpt><trkpt lat="46.35469526732657" lon="6.467549987240999"><ele>460.0</ele><time>2026-04-18T15:17:08.001Z</time></trkpt><trkpt lat="46.35468913584439" lon="6.46720209025767"><ele>460.0</ele><time>2026-04-18T15:17:09.001Z</time></trkpt><trkpt lat="46.35467537670083" lon="6.466849831920702"><ele>460.0</ele><time>2026-04-18T15:17:10.001Z</time></trkpt><trkpt lat="46.35465706106387" lon="6.466504717534608"><ele>460.5</ele><time>2026-04-18T15:17:11.001Z</time></trkpt><trkpt lat="46.35463177214391" lon="6.46616201852968"><ele>461.0</ele><time>2026-04-18T15:17:12.001Z</time></trkpt><trkpt lat="46.35459907736832" lon="6.465821803714464"><ele>461.0</ele><time>2026-04-18T15:17:13.001Z</time></trkpt><trkpt lat="46.35455824582802" lon="6.465476933245082"><ele>461.0</ele><time>2026-04-18T15:17:14.001Z</time></trkpt><trkpt lat="46.354512110625166" lon="6.465132006213385"><ele>461.0</ele><time>2026-04-18T15:17:15.001Z</time></trkpt><trkpt lat="46.35445743638671" lon="6.464785252539441"><ele>461.0</ele><time>2026-04-18T15:17:16.001Z</time></trkpt><trkpt lat="46.35439664289118" lon="6.464438829889549"><ele>461.0</ele><time>2026-04-18T15:17:17.001Z</time></trkpt><trkpt lat="46.354328768240904" lon="6.464092458932992"><ele>461.0</ele><time>2026-04-18T15:17:18.001Z</time></trkpt><trkpt lat="46.35425124583431" lon="6.463750492986249"><ele>462.0</ele><time>2026-04-18T15:17:19.001Z</time></trkpt><trkpt lat="46.35416747938729" lon="6.463425744990597"><ele>463.0</ele><time>2026-04-18T15:17:20.001Z</time></trkpt><trkpt lat="46.35408245133935" lon="6.463119654290983"><ele>463.0</ele><time>2026-04-18T15:17:21.001Z</time></trkpt><trkpt lat="46.353997298012644" lon="6.4628289957978655"><ele>463.0</ele><time>2026-04-18T15:17:22.001Z</time></trkpt><trkpt lat="46.35391290888" lon="6.462550731623232"><ele>463.0</ele><time>2026-04-18T15:17:23.001Z</time></trkpt><trkpt lat="46.35382783511885" lon="6.462266127275145"><ele>461.33333333333337</ele><time>2026-04-18T15:17:24Z</time></trkpt><trkpt lat="46.3537348042974" lon="6.461982369247237"><ele>459.66666666666663</ele><time>2026-04-18T15:17:25Z</time></trkpt><trkpt lat="46.35363237483997" lon="6.46170635293905"><ele>458.0</ele><time>2026-04-18T15:17:26Z</time></trkpt><trkpt lat="46.35353583111282" lon="6.46144593925213"><ele>458.0</ele><time>2026-04-18T15:17:27Z</time></trkpt><trkpt lat="46.35344395068084" lon="6.461200968386656"><ele>458.0</ele><time>2026-04-18T15:17:28Z</time></trkpt><trkpt lat="46.35335996307104" lon="6.460960112976822"><ele>458.0</ele><time>2026-04-18T15:17:29Z</time></trkpt><trkpt lat="46.35327904509965" lon="6.4607359703157305"><ele>458.0</ele><time>2026-04-18T15:17:30Z</time></trkpt><trkpt lat="46.35320408439482" lon="6.460530693939578"><ele>458.0</ele><time>2026-04-18T15:17:31Z</time></trkpt><trkpt lat="46.35313177947742" lon="6.460346937890034"><ele>458.0</ele><time>2026-04-18T15:17:32Z</time></trkpt><trkpt lat="46.3530579586832" lon="6.460168692417331"><ele>457.75</ele><time>2026-04-18T15:17:33Z</time></trkpt><trkpt lat="46.35298598064962" lon="6.460003420394338"><ele>457.5</ele><time>2026-04-18T15:17:34Z</time></trkpt><trkpt lat="46.35291984663925" lon="6.459853827274553"><ele>457.25</ele><time>2026-04-18T15:17:35Z</time></trkpt><trkpt lat="46.35285933403291" lon="6.459708020175194"><ele>457.0</ele><time>2026-04-18T15:17:36Z</time></trkpt><trkpt lat="46.35280579146935" lon="6.459568408568984"><ele>457.40000000000003</ele><time>2026-04-18T15:17:37Z</time></trkpt><trkpt lat="46.35275870810513" lon="6.459430587158319"><ele>457.80000000000007</ele><time>2026-04-18T15:17:38Z</time></trkpt><trkpt lat="46.35272064832622" lon="6.459295321953326"><ele>458.2</ele><time>2026-04-18T15:17:39Z</time></trkpt><trkpt lat="46.35269926286729" lon="6.459186752826614"><ele>458.6</ele><time>2026-04-18T15:17:40Z</time></trkpt><trkpt lat="46.352684366743254" lon="6.459092077700048"><ele>459.0</ele><time>2026-04-18T15:17:41Z</time></trkpt><trkpt lat="46.3526926453518" lon="6.458941957376081"><ele>459.2</ele><time>2026-04-18T15:17:43Z</time></trkpt><trkpt lat="46.352735752036395" lon="6.458769746199694"><ele>459.4</ele><time>2026-04-18T15:17:45Z</time></trkpt><trkpt lat="46.35269656479543" lon="6.458611537035664"><ele>459.6</ele><time>2026-04-18T15:17:47Z</time></trkpt><trkpt lat="46.35258975676493" lon="6.458589829095628"><ele>459.8</ele><time>2026-04-18T15:17:49Z</time></trkpt><trkpt lat="46.352535944598905" lon="6.458638988050583"><ele>460.0</ele><time>2026-04-18T15:17:50Z</time></trkpt><trkpt lat="46.35249131318659" lon="6.458725686974701"><ele>459.8</ele><time>2026-04-18T15:17:51Z</time></trkpt><trkpt lat="46.35243614741724" lon="6.4588213774781655"><ele>459.6</ele><time>2026-04-18T15:17:52Z</time></trkpt><trkpt lat="46.35235214998486" lon="6.45891152993938"><ele>459.4</ele><time>2026-04-18T15:17:53Z</time></trkpt><trkpt lat="46.35224934648019" lon="6.459002243447056"><ele>459.2</ele><time>2026-04-18T15:17:54Z</time></trkpt><trkpt lat="46.3521389779721" lon="6.459088057590712"><ele>459.0</ele><time>2026-04-18T15:17:55Z</time></trkpt><trkpt lat="46.352054634737236" lon="6.459169974417013"><ele>459.0</ele><time>2026-04-18T15:17:56Z</time></trkpt><trkpt lat="46.351967393792776" lon="6.459249812811734"><ele>459.0</ele><time>2026-04-18T15:17:57Z</time></trkpt><trkpt lat="46.35186206243577" lon="6.459300029321656"><ele>459.0</ele><time>2026-04-18T15:17:58Z</time></trkpt><trkpt lat="46.35176988087369" lon="6.45932400062628"><ele>459.0</ele><time>2026-04-18T15:17:59Z</time></trkpt><trkpt lat="46.35167850466345" lon="6.4593269616917315"><ele>459.0</ele><time>2026-04-18T15:18:00Z</time></trkpt><trkpt lat="46.351593722768406" lon="6.45931825335531"><ele>459.0</ele><time>2026-04-18T15:18:01Z</time></trkpt><trkpt lat="46.351517578985515" lon="6.459316169994886"><ele>459.0</ele><time>2026-04-18T15:18:02Z</time></trkpt><trkpt lat="46.3514557790945" lon="6.459376914694247"><ele>459.0</ele><time>2026-04-18T15:18:03Z</time></trkpt><trkpt lat="46.351401208459166" lon="6.459487708018529"><ele>459.0</ele><time>2026-04-18T15:18:04Z</time></trkpt><trkpt lat="46.35135195435545" lon="6.45962322576071"><ele>459.0</ele><time>2026-04-18T15:18:05Z</time></trkpt><trkpt lat="46.35126808053258" lon="6.459746265292261"><ele>459.0</ele><time>2026-04-18T15:18:06Z</time></trkpt><trkpt lat="46.35113706377589" lon="6.459814294683687"><ele>459.0</ele><time>2026-04-18T15:18:07Z</time></trkpt><trkpt lat="46.35098658480986" lon="6.459828313741451"><ele>459.0</ele><time>2026-04-18T15:18:08Z</time></trkpt><trkpt lat="46.35082345814227" lon="6.459796000949519"><ele>459.0</ele><time>2026-04-18T15:18:09Z</time></trkpt><trkpt lat="46.35067761138187" lon="6.459773371142405"><ele>459.0</ele><time>2026-04-18T15:18:10Z</time></trkpt><trkpt lat="46.35054884654891" lon="6.459783345003833"><ele>459.0</ele><time>2026-04-18T15:18:11Z</time></trkpt><trkpt lat="46.35044328451799" lon="6.45983591536631"><ele>459.0</ele><time>2026-04-18T15:18:12Z</time></trkpt><trkpt lat="46.35035018769071" lon="6.459917526848337"><ele>459.25</ele><time>2026-04-18T15:18:13Z</time></trkpt><trkpt lat="46.350261557496054" lon="6.460028691141065"><ele>459.5</ele><time>2026-04-18T15:18:14Z</time></trkpt><trkpt lat="46.35019423427087" lon="6.4601664525887275"><ele>459.75</ele><time>2026-04-18T15:18:15Z</time></trkpt><trkpt lat="46.350154118688415" lon="6.460326654404064"><ele>460.0</ele><time>2026-04-18T15:18:16Z</time></trkpt><trkpt lat="46.35012877434678" lon="6.460522481447261"><ele>460.0</ele><time>2026-04-18T15:18:17Z</time></trkpt><trkpt lat="46.35012365566132" lon="6.4607414706548445"><ele>460.0</ele><time>2026-04-18T15:18:18Z</time></trkpt><trkpt lat="46.35012815018486" lon="6.460992118165429"><ele>460.0</ele><time>2026-04-18T15:18:19Z</time></trkpt><trkpt lat="46.3501250777134" lon="6.4612799005745405"><ele>460.0</ele><time>2026-04-18T15:18:20Z</time></trkpt><trkpt lat="46.35011975466982" lon="6.461595480318196"><ele>460.0</ele><time>2026-04-18T15:18:21Z</time></trkpt><trkpt lat="46.350098010632756" lon="6.461912169550557"><ele>460.0</ele><time>2026-04-18T15:18:22Z</time></trkpt><trkpt lat="46.350082968623745" lon="6.462192469428097"><ele>461.0</ele><time>2026-04-18T15:18:23Z</time></trkpt><trkpt lat="46.35010715148776" lon="6.462462863978482"><ele>462.0</ele><time>2026-04-18T15:18:24Z</time></trkpt><trkpt lat="46.350167821974836" lon="6.4627254348447245"><ele>463.0</ele><time>2026-04-18T15:18:25Z</time></trkpt><trkpt lat="46.35026076109444" lon="6.462994727932346"><ele>462.0</ele><time>2026-04-18T15:18:26Z</time></trkpt><trkpt lat="46.350361247502335" lon="6.463260449424405"><ele>461.0</ele><time>2026-04-18T15:18:27Z</time></trkpt><trkpt lat="46.35045819821507" lon="6.463560152465893"><ele>460.0</ele><time>2026-04-18T15:18:28Z</time></trkpt><trkpt lat="46.35054579207382" lon="6.46389828435437"><ele>460.0</ele><time>2026-04-18T15:18:29Z</time></trkpt><trkpt lat="46.350622204341434" lon="6.464256318223819"><ele>460.0</ele><time>2026-04-18T15:18:30Z</time></trkpt><trkpt lat="46.350681494695074" lon="6.464597387694131"><ele>460.6666666666667</ele><time>2026-04-18T15:18:31Z</time></trkpt><trkpt lat="46.35072979139331" lon="6.464904989413226"><ele>461.33333333333337</ele><time>2026-04-18T15:18:32Z</time></trkpt><trkpt lat="46.35077000480443" lon="6.4651618247842935"><ele>462.0</ele><time>2026-04-18T15:18:33Z</time></trkpt><trkpt lat="46.35082478463134" lon="6.465402901070467"><ele>463.66666666666663</ele><time>2026-04-18T15:18:34Z</time></trkpt><trkpt lat="46.35090048971279" lon="6.4656165311620475"><ele>465.3333333333333</ele><time>2026-04-18T15:18:35Z</time></trkpt><trkpt lat="46.35098793328511" lon="6.465808875280092"><ele>467.0</ele><time>2026-04-18T15:18:36Z</time></trkpt><trkpt lat="46.351088963620356" lon="6.465974212586199"><ele>467.0</ele><time>2026-04-18T15:18:37Z</time></trkpt><trkpt lat="46.35119711188253" lon="6.466122887415248"><ele>467.0</ele><time>2026-04-18T15:18:38Z</time></trkpt><trkpt lat="46.351303360469984" lon="6.466271017693453"><ele>467.0</ele><time>2026-04-18T15:18:39Z</time></trkpt><trkpt lat="46.351395448333555" lon="6.466413397061251"><ele>467.0</ele><time>2026-04-18T15:18:40Z</time></trkpt><trkpt lat="46.35146111215778" lon="6.466551776099808"><ele>466.3333333333333</ele><time>2026-04-18T15:18:41Z</time></trkpt><trkpt lat="46.35150218548759" lon="6.466680849817764"><ele>465.66666666666663</ele><time>2026-04-18T15:18:42Z</time></trkpt><trkpt lat="46.351523067745745" lon="6.466802115247789"><ele>465.0</ele><time>2026-04-18T15:18:43Z</time></trkpt><trkpt lat="46.35153543544255" lon="6.4669105253545425"><ele>464.33333333333337</ele><time>2026-04-18T15:18:44Z</time></trkpt><trkpt lat="46.35153731074195" lon="6.467004703635105"><ele>463.6666666666667</ele><time>2026-04-18T15:18:45Z</time></trkpt><trkpt lat="46.35153000798074" lon="6.467161365094349"><ele>463.0</ele><time>2026-04-18T15:18:47Z</time></trkpt><trkpt lat="46.35149234209253" lon="6.467293839332926"><ele>462.79999999999995</ele><time>2026-04-18T15:18:49Z</time></trkpt><trkpt lat="46.351439372437845" lon="6.467350654592826"><ele>462.59999999999997</ele><time>2026-04-18T15:18:50Z</time></trkpt><trkpt lat="46.35138347512837" lon="6.467421098780922"><ele>462.40000000000003</ele><time>2026-04-18T15:18:51Z</time></trkpt><trkpt lat="46.35126489202652" lon="6.467396154450291"><ele>462.20000000000005</ele><time>2026-04-18T15:18:52Z</time></trkpt><trkpt lat="46.3511613280505" lon="6.467379536388972"><ele>462.0</ele><time>2026-04-18T15:18:53Z</time></trkpt><trkpt lat="46.35104089307746" lon="6.467345449089555"><ele>463.5</ele><time>2026-04-18T15:18:54Z</time></trkpt><trkpt lat="46.35091313331006" lon="6.467311808592681"><ele>465.0</ele><time>2026-04-18T15:18:55.001Z</time></trkpt><trkpt lat="46.35077357494728" lon="6.467280820081056"><ele>466.5</ele><time>2026-04-18T15:18:56.001Z</time></trkpt><trkpt lat="46.35063327403183" lon="6.46724777536238"><ele>468.0</ele><time>2026-04-18T15:18:57.001Z</time></trkpt><trkpt lat="46.350487340236675" lon="6.467213242277254"><ele>468.0</ele><time>2026-04-18T15:18:58.001Z</time></trkpt><trkpt lat="46.35033647754998" lon="6.4671770520247644"><ele>468.0</ele><time>2026-04-18T15:18:59.001Z</time></trkpt><trkpt lat="46.35018379933555" lon="6.467142511974917"><ele>468.0</ele><time>2026-04-18T15:19:00.001Z</time></trkpt><trkpt lat="46.35001889662426" lon="6.467066674816127"><ele>467.66666666666663</ele><time>2026-04-18T15:19:01.001Z</time></trkpt><trkpt lat="46.34982878170619" lon="6.466978616560481"><ele>467.3333333333333</ele><time>2026-04-18T15:19:02.001Z</time></trkpt><trkpt lat="46.349625163410295" lon="6.46687213603555"><ele>467.0</ele><time>2026-04-18T15:19:03.001Z</time></trkpt><trkpt lat="46.34942497269501" lon="6.466789677484182"><ele>467.0</ele><time>2026-04-18T15:19:04.001Z</time></trkpt><trkpt lat="46.34924600058848" lon="6.466689678449821"><ele>467.0</ele><time>2026-04-18T15:19:05.001Z</time></trkpt><trkpt lat="46.349068439115776" lon="6.466589793876117"><ele>467.0</ele><time>2026-04-18T15:19:06.001Z</time></trkpt><trkpt lat="46.34887288148936" lon="6.466479864843668"><ele>468.5</ele><time>2026-04-18T15:19:07.001Z</time></trkpt><trkpt lat="46.348676602420845" lon="6.466333402147561"><ele>470.0</ele><time>2026-04-18T15:19:08.001Z</time></trkpt><trkpt lat="46.348467902210096" lon="6.46618405098911"><ele>471.5</ele><time>2026-04-18T15:19:09.001Z</time></trkpt><trkpt lat="46.34826527198065" lon="6.466023936385698"><ele>473.0</ele><time>2026-04-18T15:19:10.001Z</time></trkpt><trkpt lat="46.34806703828118" lon="6.465872006779996"><ele>472.0</ele><time>2026-04-18T15:19:11.001Z</time></trkpt><trkpt lat="46.347873289885214" lon="6.465743888550952"><ele>471.0</ele><time>2026-04-18T15:19:12.001Z</time></trkpt><trkpt lat="46.34770019331422" lon="6.465601541921398"><ele>470.0</ele><time>2026-04-18T15:19:13.001Z</time></trkpt><trkpt lat="46.347531785767934" lon="6.465470387872413"><ele>471.0</ele><time>2026-04-18T15:19:14.001Z</time></trkpt><trkpt lat="46.34736666635974" lon="6.4653446891460975"><ele>472.0</ele><time>2026-04-18T15:19:15.001Z</time></trkpt><trkpt lat="46.34720243568976" lon="6.465223109003733"><ele>473.0</ele><time>2026-04-18T15:19:16.001Z</time></trkpt><trkpt lat="46.34702813214532" lon="6.465114398470248"><ele>473.3333333333333</ele><time>2026-04-18T15:19:17.001Z</time></trkpt><trkpt lat="46.34684346350952" lon="6.465020797068199"><ele>473.66666666666663</ele><time>2026-04-18T15:19:18.001Z</time></trkpt><trkpt lat="46.346658766172936" lon="6.464937269141135"><ele>474.0</ele><time>2026-04-18T15:19:19.001Z</time></trkpt><trkpt lat="46.34648000452351" lon="6.464863547726203"><ele>474.66666666666663</ele><time>2026-04-18T15:19:20.001Z</time></trkpt><trkpt lat="46.34630343837866" lon="6.464805357421335"><ele>475.3333333333333</ele><time>2026-04-18T15:19:21Z</time></trkpt><trkpt lat="46.34612863986622" lon="6.464758192359059"><ele>476.0</ele><time>2026-04-18T15:19:22Z</time></trkpt><trkpt lat="46.34595671181477" lon="6.464722472024856"><ele>476.0</ele><time>2026-04-18T15:19:23Z</time></trkpt><trkpt lat="46.345787994518865" lon="6.464697136908697"><ele>476.0</ele><time>2026-04-18T15:19:24Z</time></trkpt><trkpt lat="46.345622462336316" lon="6.464680323755807"><ele>476.0</ele><time>2026-04-18T15:19:25Z</time></trkpt><trkpt lat="46.345464822838636" lon="6.464671395724446"><ele>477.0</ele><time>2026-04-18T15:19:26Z</time></trkpt><trkpt lat="46.34530770365986" lon="6.464669101204429"><ele>478.0</ele><time>2026-04-18T15:19:27Z</time></trkpt><trkpt lat="46.34514793821774" lon="6.46466511508873"><ele>479.0</ele><time>2026-04-18T15:19:28Z</time></trkpt><trkpt lat="46.34499445377888" lon="6.464661766445869"><ele>479.0</ele><time>2026-04-18T15:19:29Z</time></trkpt><trkpt lat="46.34485075312752" lon="6.464650582114966"><ele>479.0</ele><time>2026-04-18T15:19:30Z</time></trkpt><trkpt lat="46.34470001821947" lon="6.464638962770474"><ele>479.0</ele><time>2026-04-18T15:19:31Z</time></trkpt><trkpt lat="46.34454099430588" lon="6.464627053485764"><ele>477.3333333333333</ele><time>2026-04-18T15:19:32Z</time></trkpt><trkpt lat="46.34437577877357" lon="6.464609195151562"><ele>475.66666666666663</ele><time>2026-04-18T15:19:33Z</time></trkpt><trkpt lat="46.344210469263004" lon="6.464584157340679"><ele>474.0</ele><time>2026-04-18T15:19:34Z</time></trkpt><trkpt lat="46.34404966935928" lon="6.464554327898516"><ele>474.0</ele><time>2026-04-18T15:19:35Z</time></trkpt><trkpt lat="46.34388594873807" lon="6.464525539334076"><ele>474.0</ele><time>2026-04-18T15:19:36Z</time></trkpt><trkpt lat="46.343712788243565" lon="6.464488306862927"><ele>474.0</ele><time>2026-04-18T15:19:37Z</time></trkpt><trkpt lat="46.34354870108816" lon="6.464437842910091"><ele>474.66666666666663</ele><time>2026-04-18T15:19:38Z</time></trkpt><trkpt lat="46.34339956630865" lon="6.464376372963521"><ele>475.3333333333333</ele><time>2026-04-18T15:19:39Z</time></trkpt><trkpt lat="46.343245730553754" lon="6.464304319085336"><ele>476.0</ele><time>2026-04-18T15:19:40Z</time></trkpt><trkpt lat="46.34308495711924" lon="6.464230485262509"><ele>479.3333333333333</ele><time>2026-04-18T15:19:41Z</time></trkpt><trkpt lat="46.3429210099546" lon="6.46414762692919"><ele>482.66666666666663</ele><time>2026-04-18T15:19:42Z</time></trkpt><trkpt lat="46.342779278039366" lon="6.464029006876033"><ele>486.0</ele><time>2026-04-18T15:19:43Z</time></trkpt><trkpt lat="46.34264751829808" lon="6.46393299373022"><ele>486.0</ele><time>2026-04-18T15:19:44Z</time></trkpt><trkpt lat="46.342508103003695" lon="6.463842040933415"><ele>486.0</ele><time>2026-04-18T15:19:45Z</time></trkpt><trkpt lat="46.34237258482633" lon="6.463715970487235"><ele>486.0</ele><time>2026-04-18T15:19:46Z</time></trkpt><trkpt lat="46.34223655698452" lon="6.463585881128867"><ele>484.66666666666663</ele><time>2026-04-18T15:19:47Z</time></trkpt><trkpt lat="46.34210630401124" lon="6.463458234538457"><ele>483.3333333333333</ele><time>2026-04-18T15:19:48Z</time></trkpt><trkpt lat="46.34198994713971" lon="6.463317877613598"><ele>482.0</ele><time>2026-04-18T15:19:49Z</time></trkpt><trkpt lat="46.3418706188705" lon="6.463172568602647"><ele>482.0</ele><time>2026-04-18T15:19:50Z</time></trkpt><trkpt lat="46.341750415304396" lon="6.463021668104027"><ele>482.0</ele><time>2026-04-18T15:19:51Z</time></trkpt><trkpt lat="46.34164024046282" lon="6.4628608802625145"><ele>482.0</ele><time>2026-04-18T15:19:52Z</time></trkpt><trkpt lat="46.341527092270326" lon="6.46268591845907"><ele>481.3333333333333</ele><time>2026-04-18T15:19:53Z</time></trkpt><trkpt lat="46.34142360509165" lon="6.462508797549231"><ele>480.66666666666663</ele><time>2026-04-18T15:19:54Z</time></trkpt><trkpt lat="46.34132818511178" lon="6.462330950301408"><ele>480.0</ele><time>2026-04-18T15:19:55Z</time></trkpt><trkpt lat="46.34123122664968" lon="6.462149051213115"><ele>482.5</ele><time>2026-04-18T15:19:56Z</time></trkpt><trkpt lat="46.341145058231575" lon="6.461969720521887"><ele>485.0</ele><time>2026-04-18T15:19:57Z</time></trkpt><trkpt lat="46.341070196401176" lon="6.461796176047728"><ele>487.5</ele><time>2026-04-18T15:19:58Z</time></trkpt><trkpt lat="46.34100142080452" lon="6.461617235528463"><ele>490.0</ele><time>2026-04-18T15:19:59Z</time></trkpt><trkpt lat="46.34093081971542" lon="6.461430568134774"><ele>489.33333333333337</ele><time>2026-04-18T15:20:00Z</time></trkpt><trkpt lat="46.34085768473082" lon="6.461235433765905"><ele>488.66666666666663</ele><time>2026-04-18T15:20:01Z</time></trkpt><trkpt lat="46.340786804002796" lon="6.461033955983045"><ele>488.0</ele><time>2026-04-18T15:20:02Z</time></trkpt><trkpt lat="46.34071522258465" lon="6.460825249415016"><ele>488.0</ele><time>2026-04-18T15:20:03Z</time></trkpt><trkpt lat="46.34064923287299" lon="6.460605753938912"><ele>488.0</ele><time>2026-04-18T15:20:04Z</time></trkpt><trkpt lat="46.340576603505035" lon="6.460392462170172"><ele>488.0</ele><time>2026-04-18T15:20:05Z</time></trkpt><trkpt lat="46.34050011740401" lon="6.460180315093045"><ele>491.0</ele><time>2026-04-18T15:20:06Z</time></trkpt><trkpt lat="46.34042330613692" lon="6.459966718094283"><ele>494.0</ele><time>2026-04-18T15:20:07Z</time></trkpt><trkpt lat="46.340340454606995" lon="6.459759143440504"><ele>497.0</ele><time>2026-04-18T15:20:08Z</time></trkpt><trkpt lat="46.340250767435144" lon="6.4595655230105145"><ele>497.0</ele><time>2026-04-18T15:20:09Z</time></trkpt><trkpt lat="46.34016011478662" lon="6.459378352428839"><ele>497.0</ele><time>2026-04-18T15:20:10Z</time></trkpt><trkpt lat="46.34007237291931" lon="6.459201692097904"><ele>497.0</ele><time>2026-04-18T15:20:11Z</time></trkpt><trkpt lat="46.33998154099422" lon="6.459035395506892"><ele>497.0</ele><time>2026-04-18T15:20:12Z</time></trkpt><trkpt lat="46.33988174697059" lon="6.458865384985308"><ele>497.0</ele><time>2026-04-18T15:20:13Z</time></trkpt><trkpt lat="46.339784627832046" lon="6.458678903891641"><ele>497.0</ele><time>2026-04-18T15:20:14Z</time></trkpt><trkpt lat="46.33965766916684" lon="6.4585146525039745"><ele>500.66666666666663</ele><time>2026-04-18T15:20:15Z</time></trkpt><trkpt lat="46.33952617110702" lon="6.458330856019279"><ele>504.33333333333337</ele><time>2026-04-18T15:20:16Z</time></trkpt><trkpt lat="46.33937970910697" lon="6.458148374809138"><ele>508.0</ele><time>2026-04-18T15:20:17Z</time></trkpt><trkpt lat="46.33921279323389" lon="6.457963891656216"><ele>507.5</ele><time>2026-04-18T15:20:18Z</time></trkpt><trkpt lat="46.33903587453494" lon="6.457764292482398"><ele>507.0</ele><time>2026-04-18T15:20:19Z</time></trkpt><trkpt lat="46.33883352066994" lon="6.457572461591917"><ele>508.5</ele><time>2026-04-18T15:20:20Z</time></trkpt><trkpt lat="46.33860988934274" lon="6.457376714756889"><ele>510.0</ele><time>2026-04-18T15:20:21Z</time></trkpt><trkpt lat="46.33836720269295" lon="6.457198231379868"><ele>511.0</ele><time>2026-04-18T15:20:22Z</time></trkpt><trkpt lat="46.33815191830269" lon="6.456989496347018"><ele>512.0</ele><time>2026-04-18T15:20:23Z</time></trkpt><trkpt lat="46.33794042309054" lon="6.4568248697712844"><ele>512.0</ele><time>2026-04-18T15:20:24Z</time></trkpt><trkpt lat="46.3377481795495" lon="6.456637009439621"><ele>512.0</ele><time>2026-04-18T15:20:25Z</time></trkpt><trkpt lat="46.33755837519721" lon="6.45642884695443"><ele>511.0</ele><time>2026-04-18T15:20:26Z</time></trkpt><trkpt lat="46.33736960905978" lon="6.4562007032402295"><ele>510.0</ele><time>2026-04-18T15:20:27Z</time></trkpt><trkpt lat="46.337191817552785" lon="6.455981270255181"><ele>511.66666666666663</ele><time>2026-04-18T15:20:28Z</time></trkpt><trkpt lat="46.337037479256026" lon="6.455764516528892"><ele>513.3333333333333</ele><time>2026-04-18T15:20:29Z</time></trkpt><trkpt lat="46.33689867294027" lon="6.4555591743861145"><ele>515.0</ele><time>2026-04-18T15:20:30Z</time></trkpt><trkpt lat="46.33675766206959" lon="6.455354967671879"><ele>515.3333333333333</ele><time>2026-04-18T15:20:31Z</time></trkpt><trkpt lat="46.336624441468025" lon="6.455129743941632"><ele>515.6666666666666</ele><time>2026-04-18T15:20:32Z</time></trkpt><trkpt lat="46.33647770965412" lon="6.454918946104611"><ele>516.0</ele><time>2026-04-18T15:20:33Z</time></trkpt><trkpt lat="46.3363259807011" lon="6.454703337368717"><ele>520.0</ele><time>2026-04-18T15:20:34Z</time></trkpt><trkpt lat="46.33616077251285" lon="6.454468970522641"><ele>524.0</ele><time>2026-04-18T15:20:35Z</time></trkpt><trkpt lat="46.33599022452898" lon="6.4542267334980155"><ele>524.0</ele><time>2026-04-18T15:20:36Z</time></trkpt><trkpt lat="46.33580830123727" lon="6.453998793950446"><ele>524.0</ele><time>2026-04-18T15:20:37Z</time></trkpt><trkpt lat="46.33565161903265" lon="6.453767675281974"><ele>526.3333333333333</ele><time>2026-04-18T15:20:38Z</time></trkpt><trkpt lat="46.33550332593237" lon="6.453564128383775"><ele>528.6666666666666</ele><time>2026-04-18T15:20:39Z</time></trkpt><trkpt lat="46.33536713418826" lon="6.453371080319178"><ele>531.0</ele><time>2026-04-18T15:20:40Z</time></trkpt><trkpt lat="46.33525402677227" lon="6.453176191573456"><ele>531.0</ele><time>2026-04-18T15:20:41Z</time></trkpt><trkpt lat="46.335138278923374" lon="6.453010592676243"><ele>531.0</ele><time>2026-04-18T15:20:42Z</time></trkpt><trkpt lat="46.335023536740444" lon="6.4528464323353765"><ele>531.0</ele><time>2026-04-18T15:20:43Z</time></trkpt><trkpt lat="46.33490553417642" lon="6.45267659723717"><ele>531.3333333333334</ele><time>2026-04-18T15:20:44Z</time></trkpt><trkpt lat="46.33478359347596" lon="6.4525028702326015"><ele>531.6666666666667</ele><time>2026-04-18T15:20:45Z</time></trkpt><trkpt lat="46.33465939368394" lon="6.452326854484932"><ele>532.0</ele><time>2026-04-18T15:20:46Z</time></trkpt><trkpt lat="46.33453436379562" lon="6.4521496624564465"><ele>533.0</ele><time>2026-04-18T15:20:47Z</time></trkpt><trkpt lat="46.334411583791756" lon="6.451973774330447"><ele>534.0</ele><time>2026-04-18T15:20:48Z</time></trkpt><trkpt lat="46.33429370348762" lon="6.451803738609202"><ele>535.0</ele><time>2026-04-18T15:20:49Z</time></trkpt><trkpt lat="46.334184696631496" lon="6.451648287794704"><ele>535.0</ele><time>2026-04-18T15:20:50Z</time></trkpt><trkpt lat="46.334076385085076" lon="6.451498297794572"><ele>535.0</ele><time>2026-04-18T15:20:51Z</time></trkpt><trkpt lat="46.33395938214559" lon="6.45133958282357"><ele>535.0</ele><time>2026-04-18T15:20:52Z</time></trkpt><trkpt lat="46.33383493896726" lon="6.451177761161081"><ele>535.6666666666667</ele><time>2026-04-18T15:20:53Z</time></trkpt><trkpt lat="46.333709052307384" lon="6.451020502417422"><ele>536.3333333333334</ele><time>2026-04-18T15:20:54Z</time></trkpt><trkpt lat="46.3335783497204" lon="6.450867048872234"><ele>537.0</ele><time>2026-04-18T15:20:55Z</time></trkpt><trkpt lat="46.33344588446335" lon="6.450720897509829"><ele>537.0</ele><time>2026-04-18T15:20:56Z</time></trkpt><trkpt lat="46.33329794991789" lon="6.450574042084065"><ele>537.0</ele><time>2026-04-18T15:20:57Z</time></trkpt><trkpt lat="46.33313371733418" lon="6.450425438173427"><ele>537.0</ele><time>2026-04-18T15:20:58Z</time></trkpt><trkpt lat="46.33294305518285" lon="6.450266170411779"><ele>537.0</ele><time>2026-04-18T15:20:59Z</time></trkpt><trkpt lat="46.332727160472636" lon="6.450107906283283"><ele>537.0</ele><time>2026-04-18T15:21:00Z</time></trkpt><trkpt lat="46.33248938026338" lon="6.449949066275544"><ele>537.0</ele><time>2026-04-18T15:21:01Z</time></trkpt><trkpt lat="46.332248139634984" lon="6.4498196089396975"><ele>537.0</ele><time>2026-04-18T15:21:02Z</time></trkpt><trkpt lat="46.332031845174065" lon="6.4496667488902615"><ele>535.3333333333334</ele><time>2026-04-18T15:21:03Z</time></trkpt><trkpt lat="46.33183136664977" lon="6.4495230097922684"><ele>533.6666666666667</ele><time>2026-04-18T15:21:04Z</time></trkpt><trkpt lat="46.33163252971625" lon="6.449374437030896"><ele>532.0</ele><time>2026-04-18T15:21:05Z</time></trkpt><trkpt lat="46.33144874683577" lon="6.449217012778574"><ele>531.6666666666667</ele><time>2026-04-18T15:21:06Z</time></trkpt><trkpt lat="46.331270641827636" lon="6.44905263803942"><ele>531.3333333333334</ele><time>2026-04-18T15:21:07Z</time></trkpt><trkpt lat="46.331104190860295" lon="6.4488896253611285"><ele>531.0</ele><time>2026-04-18T15:21:08Z</time></trkpt><trkpt lat="46.33094722642755" lon="6.448714527120579"><ele>531.0</ele><time>2026-04-18T15:21:09Z</time></trkpt><trkpt lat="46.33080380484899" lon="6.448538420283922"><ele>531.0</ele><time>2026-04-18T15:21:10Z</time></trkpt><trkpt lat="46.33067453016787" lon="6.448366076737812"><ele>531.0</ele><time>2026-04-18T15:21:11Z</time></trkpt><trkpt lat="46.33055160683776" lon="6.448202623117474"><ele>531.0</ele><time>2026-04-18T15:21:12Z</time></trkpt><trkpt lat="46.330433595570405" lon="6.4480448027875195"><ele>531.0</ele><time>2026-04-18T15:21:13Z</time></trkpt><trkpt lat="46.33032748887677" lon="6.447897468772964"><ele>531.0</ele><time>2026-04-18T15:21:14Z</time></trkpt><trkpt lat="46.330225652677434" lon="6.447753345189454"><ele>530.0</ele><time>2026-04-18T15:21:15Z</time></trkpt><trkpt lat="46.33012381649644" lon="6.447613663881403"><ele>529.0</ele><time>2026-04-18T15:21:16Z</time></trkpt><trkpt lat="46.33002328071699" lon="6.447479267152396"><ele>528.0</ele><time>2026-04-18T15:21:17Z</time></trkpt><trkpt lat="46.329923566403906" lon="6.4473531300463724"><ele>527.0</ele><time>2026-04-18T15:21:18Z</time></trkpt><trkpt lat="46.32982772334087" lon="6.447234361977297"><ele>527.0</ele><time>2026-04-18T15:21:19Z</time></trkpt><trkpt lat="46.32974007563836" lon="6.44713065774582"><ele>527.0</ele><time>2026-04-18T15:21:20Z</time></trkpt><trkpt lat="46.32965735917625" lon="6.447036770809671"><ele>527.0</ele><time>2026-04-18T15:21:21Z</time></trkpt><trkpt lat="46.329576477427715" lon="6.446942445867372"><ele>527.0</ele><time>2026-04-18T15:21:22Z</time></trkpt><trkpt lat="46.32950740053116" lon="6.446845365705581"><ele>527.0</ele><time>2026-04-18T15:21:23Z</time></trkpt><trkpt lat="46.329448450848545" lon="6.446730051327468"><ele>525.8333333333333</ele><time>2026-04-18T15:21:24Z</time></trkpt><trkpt lat="46.32940052949565" lon="6.446605116560683"><ele>524.6666666666666</ele><time>2026-04-18T15:21:25Z</time></trkpt><trkpt lat="46.32937168032499" lon="6.446478876472639"><ele>523.5</ele><time>2026-04-18T15:21:26Z</time></trkpt><trkpt lat="46.32934318638699" lon="6.44637323134047"><ele>522.3333333333334</ele><time>2026-04-18T15:21:27Z</time></trkpt><trkpt lat="46.329287534685655" lon="6.4463039994827875"><ele>521.1666666666667</ele><time>2026-04-18T15:21:28Z</time></trkpt><trkpt lat="46.32921331017686" lon="6.446262990014794"><ele>520.0</ele><time>2026-04-18T15:21:29Z</time></trkpt><trkpt lat="46.32912481842485" lon="6.446256257630366"><ele>520.0</ele><time>2026-04-18T15:21:30Z</time></trkpt><trkpt lat="46.32902510080706" lon="6.446295619089169"><ele>520.0</ele><time>2026-04-18T15:21:31Z</time></trkpt><trkpt lat="46.328908632113" lon="6.446318434599679"><ele>520.0</ele><time>2026-04-18T15:21:32Z</time></trkpt><trkpt lat="46.328776912840596" lon="6.446287544499442"><ele>520.0</ele><time>2026-04-18T15:21:33Z</time></trkpt><trkpt lat="46.328632727448664" lon="6.446227783480039"><ele>518.0</ele><time>2026-04-18T15:21:34Z</time></trkpt><trkpt lat="46.32847172974056" lon="6.446162850376251"><ele>516.0</ele><time>2026-04-18T15:21:35Z</time></trkpt><trkpt lat="46.32830691812157" lon="6.446085443887065"><ele>514.0</ele><time>2026-04-18T15:21:36Z</time></trkpt><trkpt lat="46.32814488949825" lon="6.4460128236206895"><ele>513.6666666666667</ele><time>2026-04-18T15:21:37Z</time></trkpt><trkpt lat="46.32799203231273" lon="6.445942569353708"><ele>513.3333333333334</ele><time>2026-04-18T15:21:38Z</time></trkpt><trkpt lat="46.32784845460429" lon="6.445872371255404"><ele>513.0</ele><time>2026-04-18T15:21:39Z</time></trkpt><trkpt lat="46.32770468193416" lon="6.445811764409218"><ele>513.0</ele><time>2026-04-18T15:21:40Z</time></trkpt><trkpt lat="46.32756852668609" lon="6.445756315037313"><ele>513.0</ele><time>2026-04-18T15:21:41Z</time></trkpt><trkpt lat="46.32742709606691" lon="6.445678695492771"><ele>513.0</ele><time>2026-04-18T15:21:42Z</time></trkpt><trkpt lat="46.32728697518841" lon="6.445611831316116"><ele>513.0</ele><time>2026-04-18T15:21:43Z</time></trkpt><trkpt lat="46.32713600397954" lon="6.445542854566366"><ele>514.6666666666666</ele><time>2026-04-18T15:21:44Z</time></trkpt><trkpt lat="46.32697458204516" lon="6.445468733418435"><ele>516.3333333333333</ele><time>2026-04-18T15:21:45Z</time></trkpt><trkpt lat="46.32681322458483" lon="6.445390693338801"><ele>518.0</ele><time>2026-04-18T15:21:46Z</time></trkpt><trkpt lat="46.326658396807005" lon="6.445309951119762"><ele>516.3333333333333</ele><time>2026-04-18T15:21:47Z</time></trkpt><trkpt lat="46.326513190272486" lon="6.44523423744569"><ele>514.6666666666666</ele><time>2026-04-18T15:21:48Z</time></trkpt><trkpt lat="46.326370955660835" lon="6.445159062203406"><ele>513.0</ele><time>2026-04-18T15:21:49Z</time></trkpt><trkpt lat="46.326238940700854" lon="6.445072704690934"><ele>513.0</ele><time>2026-04-18T15:21:50Z</time></trkpt><trkpt lat="46.326109285383744" lon="6.444999878257255"><ele>513.0</ele><time>2026-04-18T15:21:51Z</time></trkpt><trkpt lat="46.32598168257598" lon="6.444925435231623"><ele>513.0</ele><time>2026-04-18T15:21:52Z</time></trkpt><trkpt lat="46.32586418306557" lon="6.444826853365384"><ele>513.0</ele><time>2026-04-18T15:21:53Z</time></trkpt><trkpt lat="46.325753001501575" lon="6.44473029231988"><ele>513.0</ele><time>2026-04-18T15:21:54Z</time></trkpt><trkpt lat="46.325653151193805" lon="6.444639817568211"><ele>513.0</ele><time>2026-04-18T15:21:55Z</time></trkpt><trkpt lat="46.32556155917956" lon="6.444550144892351"><ele>513.0</ele><time>2026-04-18T15:21:56Z</time></trkpt><trkpt lat="46.32547655924664" lon="6.444465009964394"><ele>513.0</ele><time>2026-04-18T15:21:57Z</time></trkpt><trkpt lat="46.32539800271056" lon="6.444384311494178"><ele>513.0</ele><time>2026-04-18T15:21:58Z</time></trkpt><trkpt lat="46.32532340871711" lon="6.444282339761018"><ele>512.0</ele><time>2026-04-18T15:21:59Z</time></trkpt><trkpt lat="46.32527227816453" lon="6.444172860144161"><ele>511.0</ele><time>2026-04-18T15:22:00Z</time></trkpt><trkpt lat="46.325227932708955" lon="6.444047612145051"><ele>510.0</ele><time>2026-04-18T15:22:01Z</time></trkpt><trkpt lat="46.325188390625684" lon="6.443953393827957"><ele>509.0</ele><time>2026-04-18T15:22:02Z</time></trkpt><trkpt lat="46.32515077549499" lon="6.443855117745075"><ele>508.0</ele><time>2026-04-18T15:22:03Z</time></trkpt><trkpt lat="46.32504789904381" lon="6.443817556761542"><ele>507.0</ele><time>2026-04-18T15:22:04Z</time></trkpt><trkpt lat="46.324956130065935" lon="6.443834414363133"><ele>507.0</ele><time>2026-04-18T15:22:05Z</time></trkpt><trkpt lat="46.324847814472676" lon="6.443853370701735"><ele>507.0</ele><time>2026-04-18T15:22:06Z</time></trkpt><trkpt lat="46.3247265960851" lon="6.443843721241556"><ele>507.0</ele><time>2026-04-18T15:22:07Z</time></trkpt><trkpt lat="46.32460749181806" lon="6.443784835942531"><ele>507.0</ele><time>2026-04-18T15:22:08Z</time></trkpt><trkpt lat="46.32449172665972" lon="6.443676884135355"><ele>504.66666666666663</ele><time>2026-04-18T15:22:09Z</time></trkpt><trkpt lat="46.324347175359655" lon="6.443574346880663"><ele>502.3333333333333</ele><time>2026-04-18T15:22:10Z</time></trkpt><trkpt lat="46.32418794300843" lon="6.443465398429883"><ele>500.0</ele><time>2026-04-18T15:22:11Z</time></trkpt><trkpt lat="46.32399894784287" lon="6.443343455716378"><ele>504.0</ele><time>2026-04-18T15:22:12Z</time></trkpt><trkpt lat="46.32379726270048" lon="6.443215045182653"><ele>508.0</ele><time>2026-04-18T15:22:13Z</time></trkpt><trkpt lat="46.32358254444191" lon="6.443078336620276"><ele>504.33333333333337</ele><time>2026-04-18T15:22:14Z</time></trkpt><trkpt lat="46.323385408975206" lon="6.442953208589968"><ele>500.66666666666663</ele><time>2026-04-18T15:22:15Z</time></trkpt><trkpt lat="46.32318714219551" lon="6.442828137226598"><ele>497.0</ele><time>2026-04-18T15:22:16Z</time></trkpt><trkpt lat="46.32297120177619" lon="6.442693474318737"><ele>497.0</ele><time>2026-04-18T15:22:17Z</time></trkpt><trkpt lat="46.3227396135693" lon="6.442565144057138"><ele>497.0</ele><time>2026-04-18T15:22:18Z</time></trkpt><trkpt lat="46.3224914864186" lon="6.442470396200294"><ele>497.0</ele><time>2026-04-18T15:22:19Z</time></trkpt><trkpt lat="46.32223681074167" lon="6.442372934459063"><ele>497.0</ele><time>2026-04-18T15:22:20Z</time></trkpt><trkpt lat="46.32197359329325" lon="6.442293151018941"><ele>501.5</ele><time>2026-04-18T15:22:21Z</time></trkpt><trkpt lat="46.32171206391538" lon="6.442223346682765"><ele>506.0</ele><time>2026-04-18T15:22:22Z</time></trkpt><trkpt lat="46.321460954749654" lon="6.4421685988419695"><ele>500.5</ele><time>2026-04-18T15:22:23Z</time></trkpt><trkpt lat="46.32122882074425" lon="6.442131015622984"><ele>495.0</ele><time>2026-04-18T15:22:24Z</time></trkpt><trkpt lat="46.32100876639268" lon="6.4420698795885185"><ele>495.0</ele><time>2026-04-18T15:22:25Z</time></trkpt><trkpt lat="46.320801228001066" lon="6.44205092946919"><ele>495.0</ele><time>2026-04-18T15:22:26Z</time></trkpt><trkpt lat="46.32060755562213" lon="6.442013562075422"><ele>495.0</ele><time>2026-04-18T15:22:27Z</time></trkpt><trkpt lat="46.320419877325925" lon="6.441976677807618"><ele>497.33333333333337</ele><time>2026-04-18T15:22:28Z</time></trkpt><trkpt lat="46.32022254356534" lon="6.441937790041228"><ele>499.6666666666667</ele><time>2026-04-18T15:22:29Z</time></trkpt><trkpt lat="46.320008789300836" lon="6.441899647878846"><ele>502.0</ele><time>2026-04-18T15:22:30Z</time></trkpt><trkpt lat="46.319794829627256" lon="6.44186174180798"><ele>503.0</ele><time>2026-04-18T15:22:31Z</time></trkpt><trkpt lat="46.31958524262238" lon="6.441798628695816"><ele>504.0</ele><time>2026-04-18T15:22:32Z</time></trkpt><trkpt lat="46.31936004327674" lon="6.4417540131913755"><ele>505.0</ele><time>2026-04-18T15:22:33Z</time></trkpt><trkpt lat="46.31911330998597" lon="6.4417081391409505"><ele>508.5</ele><time>2026-04-18T15:22:34Z</time></trkpt><trkpt lat="46.31885461528074" lon="6.441666494747259"><ele>512.0</ele><time>2026-04-18T15:22:35Z</time></trkpt><trkpt lat="46.318596755171605" lon="6.441640087326123"><ele>512.0</ele><time>2026-04-18T15:22:36Z</time></trkpt><trkpt lat="46.318345014528546" lon="6.441602980426376"><ele>512.0</ele><time>2026-04-18T15:22:37Z</time></trkpt><trkpt lat="46.318103811343434" lon="6.441580087704671"><ele>514.3333333333333</ele><time>2026-04-18T15:22:38Z</time></trkpt><trkpt lat="46.31787739960909" lon="6.441564188401474"><ele>516.6666666666666</ele><time>2026-04-18T15:22:39Z</time></trkpt><trkpt lat="46.317659229620936" lon="6.4415411882153935"><ele>519.0</ele><time>2026-04-18T15:22:40Z</time></trkpt><trkpt lat="46.317439526551" lon="6.441524900120413"><ele>521.6666666666666</ele><time>2026-04-18T15:22:41Z</time></trkpt><trkpt lat="46.317233366594614" lon="6.441511858365921"><ele>524.3333333333333</ele><time>2026-04-18T15:22:42Z</time></trkpt><trkpt lat="46.317035615661" lon="6.441495388750336"><ele>527.0</ele><time>2026-04-18T15:22:43Z</time></trkpt><trkpt lat="46.31683665171041" lon="6.441479569694759"><ele>527.0</ele><time>2026-04-18T15:22:44Z</time></trkpt><trkpt lat="46.31663200782972" lon="6.441461254760432"><ele>527.0</ele><time>2026-04-18T15:22:45Z</time></trkpt><trkpt lat="46.316432539156075" lon="6.441445560603279"><ele>527.0</ele><time>2026-04-18T15:22:46Z</time></trkpt><trkpt lat="46.316248540112866" lon="6.441429963879571"><ele>526.6666666666666</ele><time>2026-04-18T15:22:47Z</time></trkpt><trkpt lat="46.31607619600076" lon="6.441415480930557"><ele>526.3333333333334</ele><time>2026-04-18T15:22:48Z</time></trkpt><trkpt lat="46.31590835959388" lon="6.441399259007869"><ele>526.0</ele><time>2026-04-18T15:22:49Z</time></trkpt><trkpt lat="46.31574662806606" lon="6.441380036259183"><ele>526.0</ele><time>2026-04-18T15:22:50Z</time></trkpt><trkpt lat="46.31559510041729" lon="6.441366724355372"><ele>526.0</ele><time>2026-04-18T15:22:51Z</time></trkpt><trkpt lat="46.315440728045765" lon="6.4413366085079815"><ele>526.0</ele><time>2026-04-18T15:22:52Z</time></trkpt><trkpt lat="46.31527568020276" lon="6.441290582091919"><ele>520.3333333333334</ele><time>2026-04-18T15:22:53Z</time></trkpt><trkpt lat="46.3151041667427" lon="6.441225201795558"><ele>514.6666666666666</ele><time>2026-04-18T15:22:54Z</time></trkpt><trkpt lat="46.31493541926788" lon="6.441141237457948"><ele>509.0</ele><time>2026-04-18T15:22:55Z</time></trkpt><trkpt lat="46.31477162790307" lon="6.441040426523218"><ele>510.0</ele><time>2026-04-18T15:22:56Z</time></trkpt><trkpt lat="46.31460530841976" lon="6.440936882691418"><ele>511.0</ele><time>2026-04-18T15:22:57Z</time></trkpt><trkpt lat="46.314434594154534" lon="6.44084061551276"><ele>512.0</ele><time>2026-04-18T15:22:58Z</time></trkpt><trkpt lat="46.314271791504325" lon="6.440740312373253"><ele>512.0</ele><time>2026-04-18T15:22:59Z</time></trkpt><trkpt lat="46.314111325239956" lon="6.440640712024582"><ele>512.0</ele><time>2026-04-18T15:23:00Z</time></trkpt><trkpt lat="46.31394710119095" lon="6.440553839752697"><ele>512.0</ele><time>2026-04-18T15:23:01Z</time></trkpt><trkpt lat="46.31377859506909" lon="6.4404842662459565"><ele>510.0</ele><time>2026-04-18T15:23:02Z</time></trkpt><trkpt lat="46.3136083122766" lon="6.440426968415834"><ele>508.0</ele><time>2026-04-18T15:23:03Z</time></trkpt><trkpt lat="46.31342419697162" lon="6.440393045094457"><ele>506.0</ele><time>2026-04-18T15:23:04Z</time></trkpt><trkpt lat="46.31321086734838" lon="6.44039120117227"><ele>506.5</ele><time>2026-04-18T15:23:05Z</time></trkpt><trkpt lat="46.31298207967041" lon="6.440398191011277"><ele>507.0</ele><time>2026-04-18T15:23:06Z</time></trkpt><trkpt lat="46.312739483250496" lon="6.440426214959943"><ele>507.0</ele><time>2026-04-18T15:23:07Z</time></trkpt><trkpt lat="46.31248060035581" lon="6.440461294998438"><ele>507.0</ele><time>2026-04-18T15:23:08Z</time></trkpt><trkpt lat="46.31221099520136" lon="6.44049489269133"><ele>511.0</ele><time>2026-04-18T15:23:09Z</time></trkpt><trkpt lat="46.31196242274055" lon="6.440525269574251"><ele>515.0</ele><time>2026-04-18T15:23:10Z</time></trkpt><trkpt lat="46.31173961187839" lon="6.440551113020775"><ele>515.0</ele><time>2026-04-18T15:23:11Z</time></trkpt><trkpt lat="46.311539515140474" lon="6.440572531079454"><ele>515.0</ele><time>2026-04-18T15:23:12Z</time></trkpt><trkpt lat="46.31136760060152" lon="6.440595426250144"><ele>515.0</ele><time>2026-04-18T15:23:13Z</time></trkpt><trkpt lat="46.31121552991408" lon="6.4406156524033245"><ele>516.25</ele><time>2026-04-18T15:23:14Z</time></trkpt><trkpt lat="46.31108599861324" lon="6.440639213190391"><ele>517.5</ele><time>2026-04-18T15:23:15Z</time></trkpt><trkpt lat="46.31096003593204" lon="6.440656806953731"><ele>518.75</ele><time>2026-04-18T15:23:16Z</time></trkpt><trkpt lat="46.31085465448043" lon="6.4406708426109445"><ele>520.0</ele><time>2026-04-18T15:23:17Z</time></trkpt><trkpt lat="46.31076118250879" lon="6.440677581772083"><ele>520.0</ele><time>2026-04-18T15:23:18Z</time></trkpt><trkpt lat="46.31067501996865" lon="6.440678356018452"><ele>520.0</ele><time>2026-04-18T15:23:19Z</time></trkpt><trkpt lat="46.31058199158579" lon="6.44067087161849"><ele>520.0</ele><time>2026-04-18T15:23:20Z</time></trkpt><trkpt lat="46.31047446951559" lon="6.440660744438249"><ele>520.0</ele><time>2026-04-18T15:23:21Z</time></trkpt><trkpt lat="46.3103553641156" lon="6.440636540722458"><ele>520.0</ele><time>2026-04-18T15:23:22Z</time></trkpt><trkpt lat="46.31023327226535" lon="6.440602380693307"><ele>521.25</ele><time>2026-04-18T15:23:23Z</time></trkpt><trkpt lat="46.31011442844753" lon="6.440558785458127"><ele>522.5</ele><time>2026-04-18T15:23:24Z</time></trkpt><trkpt lat="46.31000196854195" lon="6.440502416190743"><ele>523.75</ele><time>2026-04-18T15:23:25Z</time></trkpt><trkpt lat="46.30990560528868" lon="6.4404231440292055"><ele>525.0</ele><time>2026-04-18T15:23:26Z</time></trkpt><trkpt lat="46.30980997663926" lon="6.440345268746493"><ele>527.0</ele><time>2026-04-18T15:23:27Z</time></trkpt><trkpt lat="46.30970827887185" lon="6.440274875721486"><ele>529.0</ele><time>2026-04-18T15:23:28Z</time></trkpt><trkpt lat="46.30959989146468" lon="6.4402079904318414"><ele>531.0</ele><time>2026-04-18T15:23:29Z</time></trkpt><trkpt lat="46.309494678138265" lon="6.440140775982506"><ele>533.0</ele><time>2026-04-18T15:23:30Z</time></trkpt><trkpt lat="46.309387839569865" lon="6.440076832295877"><ele>533.0</ele><time>2026-04-18T15:23:31Z</time></trkpt><trkpt lat="46.309282818344" lon="6.440015618063295"><ele>533.0</ele><time>2026-04-18T15:23:32Z</time></trkpt><trkpt lat="46.30916727453345" lon="6.439967280736153"><ele>533.0</ele><time>2026-04-18T15:23:33Z</time></trkpt><trkpt lat="46.30905487015524" lon="6.439924523300553"><ele>533.0</ele><time>2026-04-18T15:23:34Z</time></trkpt><trkpt lat="46.308946973479536" lon="6.439885646468814"><ele>533.8</ele><time>2026-04-18T15:23:35Z</time></trkpt><trkpt lat="46.30884374124495" lon="6.439850626632706"><ele>534.5999999999999</ele><time>2026-04-18T15:23:36Z</time></trkpt><trkpt lat="46.3087465770106" lon="6.439822471503606"><ele>535.4000000000001</ele><time>2026-04-18T15:23:37Z</time></trkpt><trkpt lat="46.30865776281728" lon="6.439796859688732"><ele>536.2</ele><time>2026-04-18T15:23:38Z</time></trkpt><trkpt lat="46.30857214553751" lon="6.439772621854984"><ele>537.0</ele><time>2026-04-18T15:23:39Z</time></trkpt><trkpt lat="46.30848251006916" lon="6.43974993930127"><ele>537.0</ele><time>2026-04-18T15:23:40Z</time></trkpt><trkpt lat="46.30839721673954" lon="6.439730821292686"><ele>537.0</ele><time>2026-04-18T15:23:41Z</time></trkpt><trkpt lat="46.308320656407396" lon="6.439713638420544"><ele>537.0</ele><time>2026-04-18T15:23:42Z</time></trkpt><trkpt lat="46.308245713372315" lon="6.4396936375312706"><ele>537.0</ele><time>2026-04-18T15:23:43Z</time></trkpt><trkpt lat="46.30818084427269" lon="6.439675669269325"><ele>537.0</ele><time>2026-04-18T15:23:44Z</time></trkpt><trkpt lat="46.308055076634666" lon="6.439628817576912"><ele>537.0</ele><time>2026-04-18T15:23:46Z</time></trkpt><trkpt lat="46.30799311912037" lon="6.439597276185154"><ele>538.0</ele><time>2026-04-18T15:23:47Z</time></trkpt><trkpt lat="46.307928851086736" lon="6.439557957895808"><ele>539.0</ele><time>2026-04-18T15:23:48Z</time></trkpt><trkpt lat="46.30786231926957" lon="6.43951299608299"><ele>540.0</ele><time>2026-04-18T15:23:49Z</time></trkpt><trkpt lat="46.30776468873634" lon="6.439526616519352"><ele>541.0</ele><time>2026-04-18T15:23:51Z</time></trkpt><trkpt lat="46.30769925935441" lon="6.439508748531892"><ele>542.0</ele><time>2026-04-18T15:23:52Z</time></trkpt><trkpt lat="46.30762866224563" lon="6.43949002970045"><ele>543.0</ele><time>2026-04-18T15:23:53Z</time></trkpt><trkpt lat="46.30755751736123" lon="6.4394783290179145"><ele>543.0</ele><time>2026-04-18T15:23:54Z</time></trkpt><trkpt lat="46.30749443983541" lon="6.439445500482414"><ele>543.0</ele><time>2026-04-18T15:23:55Z</time></trkpt><trkpt lat="46.307374902381035" lon="6.439408172827314"><ele>543.0</ele><time>2026-04-18T15:23:57Z</time></trkpt><trkpt lat="46.30730791149542" lon="6.4393865703867705"><ele>543.0</ele><time>2026-04-18T15:23:58Z</time></trkpt><trkpt lat="46.30723485327382" lon="6.439375182649388"><ele>543.0</ele><time>2026-04-18T15:23:59Z</time></trkpt><trkpt lat="46.30715673254324" lon="6.439339776735928"><ele>543.0</ele><time>2026-04-18T15:24:00Z</time></trkpt><trkpt lat="46.30707426784321" lon="6.439311862141033"><ele>543.0</ele><time>2026-04-18T15:24:01Z</time></trkpt><trkpt lat="46.30698598296676" lon="6.43928232310774"><ele>543.0</ele><time>2026-04-18T15:24:02Z</time></trkpt><trkpt lat="46.30689947448566" lon="6.439243587094626"><ele>543.0</ele><time>2026-04-18T15:24:03Z</time></trkpt><trkpt lat="46.306813799245745" lon="6.439206137210269"><ele>543.0</ele><time>2026-04-18T15:24:04Z</time></trkpt><trkpt lat="46.30672172042507" lon="6.439170803351877"><ele>543.0</ele><time>2026-04-18T15:24:05Z</time></trkpt><trkpt lat="46.30662542873575" lon="6.439136031334941"><ele>543.0</ele><time>2026-04-18T15:24:06Z</time></trkpt><trkpt lat="46.306537906175585" lon="6.439094302598101"><ele>543.0</ele><time>2026-04-18T15:24:07Z</time></trkpt><trkpt lat="46.3064434226206" lon="6.43905797398588"><ele>543.0</ele><time>2026-04-18T15:24:08Z</time></trkpt><trkpt lat="46.30635321232345" lon="6.4390165128742884"><ele>543.0</ele><time>2026-04-18T15:24:09Z</time></trkpt><trkpt lat="46.30627034629971" lon="6.438975705890871"><ele>543.0</ele><time>2026-04-18T15:24:10Z</time></trkpt><trkpt lat="46.306186380188244" lon="6.4389404478887045"><ele>543.8</ele><time>2026-04-18T15:24:11Z</time></trkpt><trkpt lat="46.30609893826714" lon="6.43890337048674"><ele>544.5999999999999</ele><time>2026-04-18T15:24:12Z</time></trkpt><trkpt lat="46.30601049850621" lon="6.438870276316488"><ele>545.4000000000001</ele><time>2026-04-18T15:24:13Z</time></trkpt><trkpt lat="46.30591652106839" lon="6.438811576913612"><ele>546.2</ele><time>2026-04-18T15:24:14Z</time></trkpt><trkpt lat="46.305814232944904" lon="6.438762933146291"><ele>547.0</ele><time>2026-04-18T15:24:15Z</time></trkpt><trkpt lat="46.305702333601104" lon="6.438717380223802"><ele>547.4</ele><time>2026-04-18T15:24:16Z</time></trkpt><trkpt lat="46.30558818060252" lon="6.438668920389937"><ele>547.8000000000001</ele><time>2026-04-18T15:24:17Z</time></trkpt><trkpt lat="46.305483178192674" lon="6.438616544666822"><ele>548.2</ele><time>2026-04-18T15:24:18Z</time></trkpt><trkpt lat="46.30539093465144" lon="6.43857054829123"><ele>548.6</ele><time>2026-04-18T15:24:19Z</time></trkpt><trkpt lat="46.30529470182332" lon="6.438524098176969"><ele>549.0</ele><time>2026-04-18T15:24:20Z</time></trkpt><trkpt lat="46.30519362922594" lon="6.438430623927838"><ele>549.5</ele><time>2026-04-18T15:24:21Z</time></trkpt><trkpt lat="46.3050895138501" lon="6.4383464458387065"><ele>550.0</ele><time>2026-04-18T15:24:22Z</time></trkpt><trkpt lat="46.30498963985737" lon="6.438261397827134"><ele>550.5</ele><time>2026-04-18T15:24:23Z</time></trkpt><trkpt lat="46.304900420501575" lon="6.438175818602066"><ele>551.0</ele><time>2026-04-18T15:24:24Z</time></trkpt><trkpt lat="46.30480435973002" lon="6.4381043219949925"><ele>551.2</ele><time>2026-04-18T15:24:25Z</time></trkpt><trkpt lat="46.304736756839155" lon="6.437991305691386"><ele>551.4000000000001</ele><time>2026-04-18T15:24:26Z</time></trkpt><trkpt lat="46.304656243309424" lon="6.43792010133395"><ele>551.6</ele><time>2026-04-18T15:24:27Z</time></trkpt><trkpt lat="46.304585253210675" lon="6.437837050576337"><ele>551.8000000000001</ele><time>2026-04-18T15:24:28Z</time></trkpt><trkpt lat="46.304522075513866" lon="6.437760382655239"><ele>552.0</ele><time>2026-04-18T15:24:29Z</time></trkpt><trkpt lat="46.30446129614868" lon="6.437682150115066"><ele>551.7142857142858</ele><time>2026-04-18T15:24:30Z</time></trkpt><trkpt lat="46.304401382277995" lon="6.437607307660815"><ele>551.4285714285714</ele><time>2026-04-18T15:24:31Z</time></trkpt><trkpt lat="46.30433750281566" lon="6.437539522678204"><ele>551.1428571428571</ele><time>2026-04-18T15:24:32Z</time></trkpt><trkpt lat="46.3042770968944" lon="6.437476831684059"><ele>550.8571428571429</ele><time>2026-04-18T15:24:33Z</time></trkpt><trkpt lat="46.30421965694824" lon="6.437408124861349"><ele>550.5714285714286</ele><time>2026-04-18T15:24:34Z</time></trkpt><trkpt lat="46.304166573376946" lon="6.437334171017999"><ele>550.2857142857143</ele><time>2026-04-18T15:24:35Z</time></trkpt><trkpt lat="46.304113708905106" lon="6.437273931073316"><ele>550.0</ele><time>2026-04-18T15:24:36Z</time></trkpt><trkpt lat="46.30406036661001" lon="6.437208336107402"><ele>550.0</ele><time>2026-04-18T15:24:37Z</time></trkpt><trkpt lat="46.304000594130045" lon="6.437139088710762"><ele>550.0</ele><time>2026-04-18T15:24:38Z</time></trkpt><trkpt lat="46.30393623485061" lon="6.437069080938669"><ele>550.0</ele><time>2026-04-18T15:24:39Z</time></trkpt><trkpt lat="46.30387000459846" lon="6.436991058291979"><ele>550.0</ele><time>2026-04-18T15:24:40Z</time></trkpt><trkpt lat="46.30380426947345" lon="6.4369132883730105"><ele>550.0</ele><time>2026-04-18T15:24:41Z</time></trkpt><trkpt lat="46.30375273502591" lon="6.43681931251196"><ele>550.0</ele><time>2026-04-18T15:24:42Z</time></trkpt><trkpt lat="46.303678119402754" lon="6.436774222224748"><ele>550.0</ele><time>2026-04-18T15:24:43Z</time></trkpt><trkpt lat="46.30362232527855" lon="6.436707503341041"><ele>550.0</ele><time>2026-04-18T15:24:44Z</time></trkpt><trkpt lat="46.303569348760746" lon="6.436643453153999"><ele>550.0</ele><time>2026-04-18T15:24:45Z</time></trkpt><trkpt lat="46.30349730882147" lon="6.436520629922983"><ele>550.0</ele><time>2026-04-18T15:24:47Z</time></trkpt><trkpt lat="46.30343576011998" lon="6.436452598317524"><ele>550.0</ele><time>2026-04-18T15:24:49Z</time></trkpt><trkpt lat="46.30334765065677" lon="6.436354092098454"><ele>550.0</ele><time>2026-04-18T15:24:52Z</time></trkpt><trkpt lat="46.303279271594675" lon="6.436280066490046"><ele>550.0</ele><time>2026-04-18T15:24:53Z</time></trkpt><trkpt lat="46.303190886002305" lon="6.436208671003453"><ele>550.0</ele><time>2026-04-18T15:24:54Z</time></trkpt><trkpt lat="46.30311215965665" lon="6.436117400001953"><ele>550.0</ele><time>2026-04-18T15:24:55Z</time></trkpt><trkpt lat="46.30301739886858" lon="6.4360268733466475"><ele>550.0</ele><time>2026-04-18T15:24:56Z</time></trkpt><trkpt lat="46.302900962598294" lon="6.435926804998677"><ele>549.6666666666667</ele><time>2026-04-18T15:24:57Z</time></trkpt><trkpt lat="46.30275583590689" lon="6.4358200318652035"><ele>549.3333333333334</ele><time>2026-04-18T15:24:58Z</time></trkpt><trkpt lat="46.302609557704464" lon="6.435712014427536"><ele>549.0</ele><time>2026-04-18T15:24:59Z</time></trkpt><trkpt lat="46.302431755465626" lon="6.435598692407944"><ele>549.6666666666666</ele><time>2026-04-18T15:25:00Z</time></trkpt><trkpt lat="46.30222582707435" lon="6.435485616605944"><ele>550.3333333333333</ele><time>2026-04-18T15:25:01Z</time></trkpt><trkpt lat="46.30200843833984" lon="6.4353833052041605"><ele>551.0</ele><time>2026-04-18T15:25:02Z</time></trkpt><trkpt lat="46.3017836761923" lon="6.43529310343482"><ele>551.5</ele><time>2026-04-18T15:25:03Z</time></trkpt><trkpt lat="46.30154365515949" lon="6.435198671925087"><ele>552.0</ele><time>2026-04-18T15:25:04Z</time></trkpt><trkpt lat="46.30128593585853" lon="6.435093209103214"><ele>552.0</ele><time>2026-04-18T15:25:05Z</time></trkpt><trkpt lat="46.301007072357734" lon="6.434980759138761"><ele>552.0</ele><time>2026-04-18T15:25:06Z</time></trkpt><trkpt lat="46.30071660079824" lon="6.434865347350262"><ele>553.5</ele><time>2026-04-18T15:25:07Z</time></trkpt><trkpt lat="46.30044016833607" lon="6.43475629253256"><ele>555.0</ele><time>2026-04-18T15:25:08Z</time></trkpt><trkpt lat="46.300194429288275" lon="6.434665479132439"><ele>554.0</ele><time>2026-04-18T15:25:09Z</time></trkpt><trkpt lat="46.29996630844073" lon="6.434576790714629"><ele>553.0</ele><time>2026-04-18T15:25:10Z</time></trkpt><trkpt lat="46.29974513852472" lon="6.434481662786114"><ele>553.0</ele><time>2026-04-18T15:25:11Z</time></trkpt><trkpt lat="46.299526215229285" lon="6.434366956591459"><ele>553.0</ele><time>2026-04-18T15:25:12.001Z</time></trkpt><trkpt lat="46.29930832035138" lon="6.4342194645182555"><ele>553.0</ele><time>2026-04-18T15:25:13.001Z</time></trkpt><trkpt lat="46.29909568160272" lon="6.43403566375578"><ele>553.0</ele><time>2026-04-18T15:25:14.001Z</time></trkpt><trkpt lat="46.298897173034085" lon="6.433828182235973"><ele>555.5</ele><time>2026-04-18T15:25:15.001Z</time></trkpt><trkpt lat="46.29869652032911" lon="6.433581077756846"><ele>558.0</ele><time>2026-04-18T15:25:16.001Z</time></trkpt><trkpt lat="46.29850863395262" lon="6.433268428080703"><ele>558.5</ele><time>2026-04-18T15:25:17.001Z</time></trkpt><trkpt lat="46.29829554541889" lon="6.432960722227059"><ele>559.0</ele><time>2026-04-18T15:25:18.001Z</time></trkpt><trkpt lat="46.29807940569724" lon="6.432615909119188"><ele>562.0</ele><time>2026-04-18T15:25:19.001Z</time></trkpt><trkpt lat="46.297857589969325" lon="6.432285173439317"><ele>565.0</ele><time>2026-04-18T15:25:20.001Z</time></trkpt><trkpt lat="46.297650654978476" lon="6.431980124445083"><ele>565.0</ele><time>2026-04-18T15:25:21.001Z</time></trkpt><trkpt lat="46.297465098169866" lon="6.431695921631705"><ele>565.0</ele><time>2026-04-18T15:25:22.001Z</time></trkpt><trkpt lat="46.29728946503203" lon="6.431429937290525"><ele>563.0</ele><time>2026-04-18T15:25:23.001Z</time></trkpt><trkpt lat="46.29712131935257" lon="6.431168971398356"><ele>561.0</ele><time>2026-04-18T15:25:24.001Z</time></trkpt><trkpt lat="46.296946110410495" lon="6.43090592986352"><ele>561.0</ele><time>2026-04-18T15:25:25.001Z</time></trkpt><trkpt lat="46.29677110791121" lon="6.430640200352571"><ele>561.0</ele><time>2026-04-18T15:25:26.001Z</time></trkpt><trkpt lat="46.29660179808275" lon="6.430373468647488"><ele>561.5</ele><time>2026-04-18T15:25:27.001Z</time></trkpt><trkpt lat="46.29644513927291" lon="6.430127479837159"><ele>562.0</ele><time>2026-04-18T15:25:28Z</time></trkpt><trkpt lat="46.29629427640587" lon="6.429894419979338"><ele>561.0</ele><time>2026-04-18T15:25:29Z</time></trkpt><trkpt lat="46.29615413887569" lon="6.42967705202929"><ele>560.0</ele><time>2026-04-18T15:25:30Z</time></trkpt><trkpt lat="46.296015010019865" lon="6.429480069506062"><ele>559.0</ele><time>2026-04-18T15:25:31Z</time></trkpt><trkpt lat="46.29587049048385" lon="6.42930045621614"><ele>558.6666666666667</ele><time>2026-04-18T15:25:32Z</time></trkpt><trkpt lat="46.29571471057554" lon="6.429144503464596"><ele>558.3333333333334</ele><time>2026-04-18T15:25:33Z</time></trkpt><trkpt lat="46.29555544721026" lon="6.428976419268162"><ele>558.0</ele><time>2026-04-18T15:25:34Z</time></trkpt><trkpt lat="46.29538571200508" lon="6.428804589003732"><ele>557.0</ele><time>2026-04-18T15:25:35Z</time></trkpt><trkpt lat="46.295196308982554" lon="6.428623683215878"><ele>556.0</ele><time>2026-04-18T15:25:36Z</time></trkpt><trkpt lat="46.2948890458979" lon="6.4286455619042036"><ele>557.5</ele><time>2026-04-18T15:25:37Z</time></trkpt><trkpt lat="46.29463282035034" lon="6.4285136662505025"><ele>559.0</ele><time>2026-04-18T15:25:38Z</time></trkpt><trkpt lat="46.29435589048806" lon="6.428368457206795"><ele>559.0</ele><time>2026-04-18T15:25:39Z</time></trkpt><trkpt lat="46.294067750444114" lon="6.428221175730731"><ele>559.0</ele><time>2026-04-18T15:25:40Z</time></trkpt><trkpt lat="46.29379657552801" lon="6.428076914913143"><ele>559.5</ele><time>2026-04-18T15:25:41Z</time></trkpt><trkpt lat="46.29354455432585" lon="6.427941916043817"><ele>560.0</ele><time>2026-04-18T15:25:42Z</time></trkpt><trkpt lat="46.293310256662444" lon="6.427824175403429"><ele>561.0</ele><time>2026-04-18T15:25:43Z</time></trkpt><trkpt lat="46.29307541573521" lon="6.427707754723235"><ele>562.0</ele><time>2026-04-18T15:25:44Z</time></trkpt><trkpt lat="46.29284274822686" lon="6.427586284061899"><ele>562.0</ele><time>2026-04-18T15:25:45Z</time></trkpt><trkpt lat="46.292620505160876" lon="6.427470418240176"><ele>562.0</ele><time>2026-04-18T15:25:46Z</time></trkpt><trkpt lat="46.292406668405164" lon="6.427357494292343"><ele>564.0</ele><time>2026-04-18T15:25:47Z</time></trkpt><trkpt lat="46.29221238026467" lon="6.4272301061861095"><ele>566.0</ele><time>2026-04-18T15:25:48Z</time></trkpt><trkpt lat="46.292024405835384" lon="6.427069577546398"><ele>568.0</ele><time>2026-04-18T15:25:49Z</time></trkpt><trkpt lat="46.29183508897396" lon="6.426875446557747"><ele>568.0</ele><time>2026-04-18T15:25:50Z</time></trkpt><trkpt lat="46.29164834953205" lon="6.426649514699242"><ele>568.0</ele><time>2026-04-18T15:25:51Z</time></trkpt><trkpt lat="46.29146311958294" lon="6.426402308782188"><ele>566.5</ele><time>2026-04-18T15:25:52Z</time></trkpt><trkpt lat="46.291285746598305" lon="6.426131473374801"><ele>565.0</ele><time>2026-04-18T15:25:53Z</time></trkpt><trkpt lat="46.291106656108106" lon="6.425850636970976"><ele>565.0</ele><time>2026-04-18T15:25:54Z</time></trkpt><trkpt lat="46.29092509300429" lon="6.4255666836419945"><ele>565.0</ele><time>2026-04-18T15:25:55Z</time></trkpt><trkpt lat="46.29074032560855" lon="6.425267503584419"><ele>563.5</ele><time>2026-04-18T15:25:56Z</time></trkpt><trkpt lat="46.29055567453926" lon="6.424964041845832"><ele>562.0</ele><time>2026-04-18T15:25:57Z</time></trkpt><trkpt lat="46.29036598183333" lon="6.424662437769751"><ele>560.5</ele><time>2026-04-18T15:25:58Z</time></trkpt><trkpt lat="46.2901629384417" lon="6.424367883177525"><ele>559.0</ele><time>2026-04-18T15:25:59Z</time></trkpt><trkpt lat="46.28994992591511" lon="6.424068812182981"><ele>559.5</ele><time>2026-04-18T15:26:00Z</time></trkpt><trkpt lat="46.28973111008425" lon="6.423766206658334"><ele>560.0</ele><time>2026-04-18T15:26:01Z</time></trkpt><trkpt lat="46.289527755964315" lon="6.42347967359411"><ele>560.0</ele><time>2026-04-18T15:26:02Z</time></trkpt><trkpt lat="46.28933768214947" lon="6.423205417129158"><ele>560.0</ele><time>2026-04-18T15:26:03Z</time></trkpt><trkpt lat="46.28915715525905" lon="6.4229403874945685"><ele>559.0</ele><time>2026-04-18T15:26:04Z</time></trkpt><trkpt lat="46.288989028697976" lon="6.422673537315259"><ele>558.0</ele><time>2026-04-18T15:26:05Z</time></trkpt><trkpt lat="46.28882573605879" lon="6.4224079899245785"><ele>557.5</ele><time>2026-04-18T15:26:06Z</time></trkpt><trkpt lat="46.288661773490425" lon="6.422138878860538"><ele>557.0</ele><time>2026-04-18T15:26:07Z</time></trkpt><trkpt lat="46.288499829113256" lon="6.421863907906604"><ele>557.0</ele><time>2026-04-18T15:26:08Z</time></trkpt><trkpt lat="46.28834846726068" lon="6.421600964832243"><ele>557.0</ele><time>2026-04-18T15:26:09Z</time></trkpt><trkpt lat="46.28818773679954" lon="6.421363308914297"><ele>557.0</ele><time>2026-04-18T15:26:10Z</time></trkpt><trkpt lat="46.28800859246373" lon="6.421145302942759"><ele>557.0</ele><time>2026-04-18T15:26:11Z</time></trkpt><trkpt lat="46.28780765981928" lon="6.420953932783148"><ele>557.0</ele><time>2026-04-18T15:26:12Z</time></trkpt><trkpt lat="46.28759782489583" lon="6.42077497005164"><ele>557.0</ele><time>2026-04-18T15:26:13Z</time></trkpt><trkpt lat="46.287384409396275" lon="6.420602366769338"><ele>556.6666666666666</ele><time>2026-04-18T15:26:14Z</time></trkpt><trkpt lat="46.28718336228717" lon="6.420440866807168"><ele>556.3333333333334</ele><time>2026-04-18T15:26:15Z</time></trkpt><trkpt lat="46.28699868646372" lon="6.420285706882579"><ele>556.0</ele><time>2026-04-18T15:26:16Z</time></trkpt><trkpt lat="46.286827635771246" lon="6.420132102332522"><ele>556.0</ele><time>2026-04-18T15:26:17Z</time></trkpt><trkpt lat="46.28667423717517" lon="6.419967626336717"><ele>556.0</ele><time>2026-04-18T15:26:18Z</time></trkpt><trkpt lat="46.28653559414896" lon="6.41978129505364"><ele>556.0</ele><time>2026-04-18T15:26:19Z</time></trkpt><trkpt lat="46.28641720757375" lon="6.419580163242339"><ele>553.3333333333334</ele><time>2026-04-18T15:26:20Z</time></trkpt><trkpt lat="46.28631506091151" lon="6.419372613280732"><ele>550.6666666666666</ele><time>2026-04-18T15:26:21Z</time></trkpt><trkpt lat="46.28623152583895" lon="6.419160234843625"><ele>548.0</ele><time>2026-04-18T15:26:22Z</time></trkpt><trkpt lat="46.286169009039284" lon="6.418943481262903"><ele>547.3333333333333</ele><time>2026-04-18T15:26:23Z</time></trkpt><trkpt lat="46.286122501084236" lon="6.418723369916702"><ele>546.6666666666666</ele><time>2026-04-18T15:26:24Z</time></trkpt><trkpt lat="46.28608196177127" lon="6.418515655237631"><ele>546.0</ele><time>2026-04-18T15:26:25Z</time></trkpt><trkpt lat="46.286033229939534" lon="6.418304509791777"><ele>546.0</ele><time>2026-04-18T15:26:26Z</time></trkpt><trkpt lat="46.28598393959693" lon="6.4180914448629425"><ele>546.0</ele><time>2026-04-18T15:26:27Z</time></trkpt><trkpt lat="46.28593172872026" lon="6.417872580645103"><ele>546.0</ele><time>2026-04-18T15:26:28Z</time></trkpt><trkpt lat="46.28588004122811" lon="6.417650597812328"><ele>545.6666666666666</ele><time>2026-04-18T15:26:29Z</time></trkpt><trkpt lat="46.285819726991264" lon="6.4174119482396215"><ele>545.3333333333333</ele><time>2026-04-18T15:26:30Z</time></trkpt><trkpt lat="46.28575670775595" lon="6.417174056578926"><ele>545.0</ele><time>2026-04-18T15:26:31Z</time></trkpt><trkpt lat="46.28568745564168" lon="6.416933264366066"><ele>544.6666666666666</ele><time>2026-04-18T15:26:32Z</time></trkpt><trkpt lat="46.28561273531454" lon="6.416688069412325"><ele>544.3333333333334</ele><time>2026-04-18T15:26:33Z</time></trkpt><trkpt lat="46.28554468880927" lon="6.4164259434812125"><ele>544.0</ele><time>2026-04-18T15:26:34Z</time></trkpt><trkpt lat="46.28547665209553" lon="6.416149900070207"><ele>543.6666666666667</ele><time>2026-04-18T15:26:35Z</time></trkpt><trkpt lat="46.28540715611727" lon="6.415857624315611"><ele>543.3333333333334</ele><time>2026-04-18T15:26:36Z</time></trkpt><trkpt lat="46.28533357639639" lon="6.415556130463527"><ele>543.0</ele><time>2026-04-18T15:26:37Z</time></trkpt><trkpt lat="46.285257570095595" lon="6.415254300415098"><ele>543.0</ele><time>2026-04-18T15:26:38Z</time></trkpt><trkpt lat="46.285169153189415" lon="6.41496094456742"><ele>543.0</ele><time>2026-04-18T15:26:39Z</time></trkpt><trkpt lat="46.28506348351463" lon="6.414683506435899"><ele>543.0</ele><time>2026-04-18T15:26:40Z</time></trkpt><trkpt lat="46.28494325683411" lon="6.414432189618016"><ele>544.0</ele><time>2026-04-18T15:26:41Z</time></trkpt><trkpt lat="46.2847978165859" lon="6.414199473525684"><ele>545.0</ele><time>2026-04-18T15:26:42Z</time></trkpt><trkpt lat="46.28464178399025" lon="6.413967821663011"><ele>546.0</ele><time>2026-04-18T15:26:43Z</time></trkpt><trkpt lat="46.28449645713801" lon="6.413747621772934"><ele>544.0</ele><time>2026-04-18T15:26:44Z</time></trkpt><trkpt lat="46.284359783787636" lon="6.413534259128722"><ele>542.0</ele><time>2026-04-18T15:26:45Z</time></trkpt><trkpt lat="46.28423267793764" lon="6.413334258162494"><ele>540.0</ele><time>2026-04-18T15:26:46Z</time></trkpt><trkpt lat="46.284108491012425" lon="6.413138898991746"><ele>538.6666666666666</ele><time>2026-04-18T15:26:47Z</time></trkpt><trkpt lat="46.284005995622785" lon="6.412933221797929"><ele>537.3333333333333</ele><time>2026-04-18T15:26:48Z</time></trkpt><trkpt lat="46.283888414401154" lon="6.412762735134422"><ele>536.0</ele><time>2026-04-18T15:26:49Z</time></trkpt><trkpt lat="46.28378465934512" lon="6.412586205219932"><ele>536.75</ele><time>2026-04-18T15:26:50Z</time></trkpt><trkpt lat="46.28369272010775" lon="6.412418722902083"><ele>537.5</ele><time>2026-04-18T15:26:51Z</time></trkpt><trkpt lat="46.28361501446698" lon="6.412266412120891"><ele>538.25</ele><time>2026-04-18T15:26:52Z</time></trkpt><trkpt lat="46.28354672848308" lon="6.4121285437109155"><ele>539.0</ele><time>2026-04-18T15:26:53Z</time></trkpt><trkpt lat="46.2834924917955" lon="6.412010967681428"><ele>539.0</ele><time>2026-04-18T15:26:54Z</time></trkpt><trkpt lat="46.28345362518986" lon="6.411895532815515"><ele>539.0</ele><time>2026-04-18T15:26:55Z</time></trkpt><trkpt lat="46.28343337179612" lon="6.411782756910099"><ele>539.0</ele><time>2026-04-18T15:26:56Z</time></trkpt><trkpt lat="46.28341712067288" lon="6.411666119011146"><ele>539.0</ele><time>2026-04-18T15:26:57Z</time></trkpt><trkpt lat="46.283372688301725" lon="6.411575410056107"><ele>539.0</ele><time>2026-04-18T15:26:58Z</time></trkpt><trkpt lat="46.283302401420386" lon="6.411520092731786"><ele>539.0</ele><time>2026-04-18T15:26:59Z</time></trkpt><trkpt lat="46.28321294476467" lon="6.41147982843243"><ele>539.0</ele><time>2026-04-18T15:27:00Z</time></trkpt><trkpt lat="46.28311857919659" lon="6.411439168647647"><ele>539.0</ele><time>2026-04-18T15:27:01Z</time></trkpt><trkpt lat="46.28303251856788" lon="6.411348432555691"><ele>539.0</ele><time>2026-04-18T15:27:02Z</time></trkpt><trkpt lat="46.28291930485705" lon="6.411198262979461"><ele>539.0</ele><time>2026-04-18T15:27:03Z</time></trkpt><trkpt lat="46.28280995401808" lon="6.4110325826769685"><ele>539.0</ele><time>2026-04-18T15:27:04Z</time></trkpt><trkpt lat="46.2826899318584" lon="6.410844543915235"><ele>539.0</ele><time>2026-04-18T15:27:05Z</time></trkpt><trkpt lat="46.28255964343431" lon="6.410636703540478"><ele>539.0</ele><time>2026-04-18T15:27:06Z</time></trkpt><trkpt lat="46.28242615548771" lon="6.410423958700485"><ele>539.0</ele><time>2026-04-18T15:27:07Z</time></trkpt><trkpt lat="46.28231433704164" lon="6.410178312061885"><ele>539.0</ele><time>2026-04-18T15:27:08Z</time></trkpt><trkpt lat="46.282209167995475" lon="6.409929384703105"><ele>539.0</ele><time>2026-04-18T15:27:09Z</time></trkpt><trkpt lat="46.282118740703055" lon="6.409675316832122"><ele>541.0</ele><time>2026-04-18T15:27:10Z</time></trkpt><trkpt lat="46.28204227977856" lon="6.409425217264404"><ele>543.0</ele><time>2026-04-18T15:27:11Z</time></trkpt><trkpt lat="46.28196178631684" lon="6.409172495791002"><ele>545.0</ele><time>2026-04-18T15:27:12Z</time></trkpt><trkpt lat="46.281887254974976" lon="6.408932130707569"><ele>545.0</ele><time>2026-04-18T15:27:13Z</time></trkpt><trkpt lat="46.28181910472992" lon="6.408691502632728"><ele>545.0</ele><time>2026-04-18T15:27:14Z</time></trkpt><trkpt lat="46.281742163876025" lon="6.408464728928891"><ele>545.0</ele><time>2026-04-18T15:27:15Z</time></trkpt><trkpt lat="46.28166745675404" lon="6.408230531552896"><ele>543.6666666666666</ele><time>2026-04-18T15:27:16Z</time></trkpt><trkpt lat="46.28159772256345" lon="6.407988849390327"><ele>542.3333333333334</ele><time>2026-04-18T15:27:17Z</time></trkpt><trkpt lat="46.28152138949248" lon="6.407742257204061"><ele>541.0</ele><time>2026-04-18T15:27:18Z</time></trkpt><trkpt lat="46.28143609114681" lon="6.407487717164341"><ele>543.3333333333334</ele><time>2026-04-18T15:27:19Z</time></trkpt><trkpt lat="46.281336475575536" lon="6.407240237418059"><ele>545.6666666666666</ele><time>2026-04-18T15:27:20Z</time></trkpt><trkpt lat="46.28121669285799" lon="6.40700731245496"><ele>548.0</ele><time>2026-04-18T15:27:21Z</time></trkpt><trkpt lat="46.28108851399815" lon="6.406793002275238"><ele>548.0</ele><time>2026-04-18T15:27:22Z</time></trkpt><trkpt lat="46.280958157579" lon="6.406605644606131"><ele>548.0</ele><time>2026-04-18T15:27:23Z</time></trkpt><trkpt lat="46.280818541199004" lon="6.406441217070607"><ele>548.0</ele><time>2026-04-18T15:27:24Z</time></trkpt><trkpt lat="46.28068125570115" lon="6.406281980209035"><ele>548.3333333333333</ele><time>2026-04-18T15:27:25Z</time></trkpt><trkpt lat="46.28054066336659" lon="6.406117935424117"><ele>548.6666666666666</ele><time>2026-04-18T15:27:26Z</time></trkpt><trkpt lat="46.2804085562328" lon="6.405955097843519"><ele>549.0</ele><time>2026-04-18T15:27:27Z</time></trkpt><trkpt lat="46.28028056846696" lon="6.405798497426328"><ele>549.0</ele><time>2026-04-18T15:27:28Z</time></trkpt><trkpt lat="46.28015890722423" lon="6.4056370867007635"><ele>549.0</ele><time>2026-04-18T15:27:29Z</time></trkpt><trkpt lat="46.280043181137685" lon="6.405463259351672"><ele>549.0</ele><time>2026-04-18T15:27:30Z</time></trkpt><trkpt lat="46.279932593648105" lon="6.4052709876698275"><ele>548.6666666666666</ele><time>2026-04-18T15:27:31Z</time></trkpt><trkpt lat="46.27984138270178" lon="6.405059447370498"><ele>548.3333333333333</ele><time>2026-04-18T15:27:32Z</time></trkpt><trkpt lat="46.27976042400922" lon="6.404837609422936"><ele>548.0</ele><time>2026-04-18T15:27:33Z</time></trkpt><trkpt lat="46.2796787668538" lon="6.404608831590069"><ele>548.0</ele><time>2026-04-18T15:27:34Z</time></trkpt><trkpt lat="46.2795959926408" lon="6.404374456373291"><ele>548.0</ele><time>2026-04-18T15:27:35Z</time></trkpt><trkpt lat="46.279516822262764" lon="6.404135995712693"><ele>548.0</ele><time>2026-04-18T15:27:36Z</time></trkpt><trkpt lat="46.27944190281277" lon="6.403906389903893"><ele>548.3333333333333</ele><time>2026-04-18T15:27:37Z</time></trkpt><trkpt lat="46.279372523494025" lon="6.403682627541496"><ele>548.6666666666666</ele><time>2026-04-18T15:27:38Z</time></trkpt><trkpt lat="46.279303217094" lon="6.403469721852874"><ele>549.0</ele><time>2026-04-18T15:27:39Z</time></trkpt><trkpt lat="46.27923263708195" lon="6.403257328184187"><ele>549.0</ele><time>2026-04-18T15:27:40Z</time></trkpt><trkpt lat="46.27915665145784" lon="6.403034341845928"><ele>549.0</ele><time>2026-04-18T15:27:41Z</time></trkpt><trkpt lat="46.27907382253936" lon="6.402808099402235"><ele>549.0</ele><time>2026-04-18T15:27:42Z</time></trkpt><trkpt lat="46.27897435865793" lon="6.402585814635674"><ele>549.0</ele><time>2026-04-18T15:27:43Z</time></trkpt><trkpt lat="46.27886023370978" lon="6.402369858074949"><ele>549.0</ele><time>2026-04-18T15:27:44Z</time></trkpt><trkpt lat="46.278739294317965" lon="6.402153357114083"><ele>549.0</ele><time>2026-04-18T15:27:45Z</time></trkpt><trkpt lat="46.278608799634554" lon="6.401941291613313"><ele>549.0</ele><time>2026-04-18T15:27:46Z</time></trkpt><trkpt lat="46.27847498153491" lon="6.401730672678605"><ele>549.0</ele><time>2026-04-18T15:27:47Z</time></trkpt><trkpt lat="46.27833861249505" lon="6.401527089287937"><ele>549.0</ele><time>2026-04-18T15:27:48Z</time></trkpt><trkpt lat="46.27821384868168" lon="6.401336093996033"><ele>550.3333333333334</ele><time>2026-04-18T15:27:49Z</time></trkpt><trkpt lat="46.27809762104003" lon="6.401148115196979"><ele>551.6666666666667</ele><time>2026-04-18T15:27:50Z</time></trkpt><trkpt lat="46.277982631861256" lon="6.40096522636152"><ele>553.0</ele><time>2026-04-18T15:27:51Z</time></trkpt><trkpt lat="46.27786361022324" lon="6.400780242499398"><ele>553.0</ele><time>2026-04-18T15:27:52Z</time></trkpt><trkpt lat="46.277752445304095" lon="6.400609683639154"><ele>553.0</ele><time>2026-04-18T15:27:53Z</time></trkpt><trkpt lat="46.277648607163364" lon="6.400443397008465"><ele>553.0</ele><time>2026-04-18T15:27:54Z</time></trkpt><trkpt lat="46.277551368409554" lon="6.400290286195759"><ele>553.0</ele><time>2026-04-18T15:27:55Z</time></trkpt><trkpt lat="46.2774660872555" lon="6.400143352252862"><ele>553.0</ele><time>2026-04-18T15:27:56Z</time></trkpt><trkpt lat="46.27738126683126" lon="6.399997218122629"><ele>553.0</ele><time>2026-04-18T15:27:57Z</time></trkpt><trkpt lat="46.27729531673542" lon="6.399859733931697"><ele>553.0</ele><time>2026-04-18T15:27:58Z</time></trkpt><trkpt lat="46.27720953617279" lon="6.399726295607419"><ele>553.0</ele><time>2026-04-18T15:27:59Z</time></trkpt><trkpt lat="46.27712548845642" lon="6.399594091226448"><ele>553.0</ele><time>2026-04-18T15:28:00Z</time></trkpt><trkpt lat="46.27704046837262" lon="6.399456341554491"><ele>553.0</ele><time>2026-04-18T15:28:01Z</time></trkpt><trkpt lat="46.27695738172168" lon="6.399318876089211"><ele>553.0</ele><time>2026-04-18T15:28:02Z</time></trkpt><trkpt lat="46.27687628004953" lon="6.399184511681125"><ele>553.0</ele><time>2026-04-18T15:28:03Z</time></trkpt><trkpt lat="46.2767913825445" lon="6.399058505754592"><ele>553.0</ele><time>2026-04-18T15:28:04Z</time></trkpt><trkpt lat="46.27670025220641" lon="6.398940477614688"><ele>553.0</ele><time>2026-04-18T15:28:05Z</time></trkpt><trkpt lat="46.276602815129124" lon="6.398825524297977"><ele>553.0</ele><time>2026-04-18T15:28:06Z</time></trkpt><trkpt lat="46.27650762813211" lon="6.3986982530238885"><ele>552.75</ele><time>2026-04-18T15:28:07Z</time></trkpt><trkpt lat="46.27640527239974" lon="6.398567933630168"><ele>552.5</ele><time>2026-04-18T15:28:08Z</time></trkpt><trkpt lat="46.27629435009178" lon="6.398445740127599"><ele>552.25</ele><time>2026-04-18T15:28:09Z</time></trkpt><trkpt lat="46.27618431899431" lon="6.398325446301691"><ele>552.0</ele><time>2026-04-18T15:28:10Z</time></trkpt><trkpt lat="46.276073753972305" lon="6.398208377606416"><ele>552.0</ele><time>2026-04-18T15:28:11Z</time></trkpt><trkpt lat="46.275966080639996" lon="6.398096859995891"><ele>552.0</ele><time>2026-04-18T15:28:12Z</time></trkpt><trkpt lat="46.27586362233992" lon="6.397991904861898"><ele>552.0</ele><time>2026-04-18T15:28:13Z</time></trkpt><trkpt lat="46.27576845402192" lon="6.397891311360228"><ele>552.0</ele><time>2026-04-18T15:28:14Z</time></trkpt><trkpt lat="46.27567944488407" lon="6.397791920210972"><ele>552.25</ele><time>2026-04-18T15:28:15Z</time></trkpt><trkpt lat="46.275586103323164" lon="6.39769062799669"><ele>552.5</ele><time>2026-04-18T15:28:16Z</time></trkpt><trkpt lat="46.27548507559844" lon="6.397588336796203"><ele>552.75</ele><time>2026-04-18T15:28:17Z</time></trkpt><trkpt lat="46.27538003091164" lon="6.397483643053381"><ele>553.0</ele><time>2026-04-18T15:28:18Z</time></trkpt><trkpt lat="46.275273275447574" lon="6.397371684598345"><ele>553.0</ele><time>2026-04-18T15:28:19Z</time></trkpt><trkpt lat="46.275163415747585" lon="6.397257517921821"><ele>553.0</ele><time>2026-04-18T15:28:20Z</time></trkpt><trkpt lat="46.275050924930575" lon="6.397140331434632"><ele>553.0</ele><time>2026-04-18T15:28:21Z</time></trkpt><trkpt lat="46.27493292459217" lon="6.397010818373247"><ele>553.0</ele><time>2026-04-18T15:28:22Z</time></trkpt><trkpt lat="46.27481661585925" lon="6.396877462842603"><ele>553.5</ele><time>2026-04-18T15:28:23Z</time></trkpt><trkpt lat="46.27470891496706" lon="6.396747620545135"><ele>554.0</ele><time>2026-04-18T15:28:24Z</time></trkpt><trkpt lat="46.274608172477194" lon="6.396617326825897"><ele>554.5</ele><time>2026-04-18T15:28:25Z</time></trkpt><trkpt lat="46.27452402771081" lon="6.396489193468932"><ele>555.0</ele><time>2026-04-18T15:28:26Z</time></trkpt><trkpt lat="46.274451606768366" lon="6.396366765878908"><ele>554.8</ele><time>2026-04-18T15:28:27Z</time></trkpt><trkpt lat="46.274381515182505" lon="6.396245930827859"><ele>554.6</ele><time>2026-04-18T15:28:28Z</time></trkpt><trkpt lat="46.27431508961683" lon="6.3961287085967475"><ele>554.4</ele><time>2026-04-18T15:28:29Z</time></trkpt><trkpt lat="46.27425294576929" lon="6.3960108545727"><ele>554.2</ele><time>2026-04-18T15:28:30Z</time></trkpt><trkpt lat="46.274197422266084" lon="6.3958900985284375"><ele>554.0</ele><time>2026-04-18T15:28:31Z</time></trkpt><trkpt lat="46.27414892963418" lon="6.395774005245175"><ele>554.0</ele><time>2026-04-18T15:28:32Z</time></trkpt><trkpt lat="46.27409068092749" lon="6.3956713216625625"><ele>554.0</ele><time>2026-04-18T15:28:33Z</time></trkpt><trkpt lat="46.2740330885688" lon="6.395575985180828"><ele>554.0</ele><time>2026-04-18T15:28:34Z</time></trkpt><trkpt lat="46.273974543383844" lon="6.3954780929515795"><ele>554.0</ele><time>2026-04-18T15:28:35Z</time></trkpt><trkpt lat="46.273914189556294" lon="6.395386873163425"><ele>554.0</ele><time>2026-04-18T15:28:36Z</time></trkpt><trkpt lat="46.273839015881784" lon="6.39528942231706"><ele>554.6</ele><time>2026-04-18T15:28:37Z</time></trkpt><trkpt lat="46.273773939688134" lon="6.39520097141385"><ele>555.2</ele><time>2026-04-18T15:28:38Z</time></trkpt><trkpt lat="46.27371701698113" lon="6.395104090815535"><ele>555.8000000000001</ele><time>2026-04-18T15:28:39Z</time></trkpt><trkpt lat="46.273657842759874" lon="6.394991399493036"><ele>556.4</ele><time>2026-04-18T15:28:40Z</time></trkpt><trkpt lat="46.27360886389366" lon="6.394875920237657"><ele>557.0</ele><time>2026-04-18T15:28:41Z</time></trkpt><trkpt lat="46.273545364882075" lon="6.394753352501422"><ele>557.0</ele><time>2026-04-18T15:28:42Z</time></trkpt><trkpt lat="46.273490527228375" lon="6.394625597953666"><ele>557.0</ele><time>2026-04-18T15:28:43Z</time></trkpt><trkpt lat="46.27345626639139" lon="6.3944750855620605"><ele>557.0</ele><time>2026-04-18T15:28:44Z</time></trkpt><trkpt lat="46.27340904598103" lon="6.394324749832143"><ele>557.0</ele><time>2026-04-18T15:28:45Z</time></trkpt><trkpt lat="46.27336502952585" lon="6.394174553468305"><ele>557.0</ele><time>2026-04-18T15:28:46Z</time></trkpt><trkpt lat="46.273326665991426" lon="6.394024645935912"><ele>557.0</ele><time>2026-04-18T15:28:47Z</time></trkpt><trkpt lat="46.27329178331658" lon="6.393876187440035"><ele>557.0</ele><time>2026-04-18T15:28:48Z</time></trkpt><trkpt lat="46.273245376178004" lon="6.393725204875715"><ele>557.0</ele><time>2026-04-18T15:28:49Z</time></trkpt><trkpt lat="46.27320658658987" lon="6.393556777621002"><ele>557.0</ele><time>2026-04-18T15:28:50Z</time></trkpt><trkpt lat="46.27316421483766" lon="6.393393116333669"><ele>557.0</ele><time>2026-04-18T15:28:51Z</time></trkpt><trkpt lat="46.27312896566704" lon="6.393239884083934"><ele>557.0</ele><time>2026-04-18T15:28:52Z</time></trkpt><trkpt lat="46.27309453464715" lon="6.39309536583198"><ele>557.0</ele><time>2026-04-18T15:28:53Z</time></trkpt><trkpt lat="46.27305842446016" lon="6.392953461397095"><ele>557.0</ele><time>2026-04-18T15:28:54Z</time></trkpt><trkpt lat="46.27303453010475" lon="6.3928057059670795"><ele>557.0</ele><time>2026-04-18T15:28:55Z</time></trkpt><trkpt lat="46.272996923924886" lon="6.3926639617831436"><ele>557.0</ele><time>2026-04-18T15:28:56Z</time></trkpt><trkpt lat="46.27295776073945" lon="6.392520741830089"><ele>557.0</ele><time>2026-04-18T15:28:57Z</time></trkpt><trkpt lat="46.27290575699879" lon="6.392372689118325"><ele>557.0</ele><time>2026-04-18T15:28:58Z</time></trkpt><trkpt lat="46.27286673603693" lon="6.392205281754298"><ele>557.0</ele><time>2026-04-18T15:28:59Z</time></trkpt><trkpt lat="46.27279221944399" lon="6.392047679510671"><ele>557.0</ele><time>2026-04-18T15:29:00Z</time></trkpt><trkpt lat="46.27273343289523" lon="6.391863251975364"><ele>557.0</ele><time>2026-04-18T15:29:01Z</time></trkpt><trkpt lat="46.272669458553224" lon="6.39168023566012"><ele>557.0</ele><time>2026-04-18T15:29:02Z</time></trkpt><trkpt lat="46.272598313741476" lon="6.391501764063242"><ele>557.0</ele><time>2026-04-18T15:29:03Z</time></trkpt><trkpt lat="46.27252826255848" lon="6.39131193065392"><ele>556.0</ele><time>2026-04-18T15:29:04Z</time></trkpt><trkpt lat="46.27245856251935" lon="6.3911161790147535"><ele>555.0</ele><time>2026-04-18T15:29:05Z</time></trkpt><trkpt lat="46.2723895477004" lon="6.390921679469457"><ele>554.0</ele><time>2026-04-18T15:29:06Z</time></trkpt><trkpt lat="46.27232229358437" lon="6.390726932724118"><ele>554.5</ele><time>2026-04-18T15:29:07Z</time></trkpt><trkpt lat="46.27225550565067" lon="6.3905465516699165"><ele>555.0</ele><time>2026-04-18T15:29:08Z</time></trkpt><trkpt lat="46.27218953490421" lon="6.390373214714257"><ele>555.5</ele><time>2026-04-18T15:29:09Z</time></trkpt><trkpt lat="46.27212013961994" lon="6.390201710434285"><ele>556.0</ele><time>2026-04-18T15:29:10Z</time></trkpt><trkpt lat="46.272053208665845" lon="6.390030132708094"><ele>556.0</ele><time>2026-04-18T15:29:11Z</time></trkpt><trkpt lat="46.27198846345492" lon="6.389856616855327"><ele>556.0</ele><time>2026-04-18T15:29:12Z</time></trkpt><trkpt lat="46.27192276730556" lon="6.389681976925136"><ele>556.0</ele><time>2026-04-18T15:29:13Z</time></trkpt><trkpt lat="46.271858880839034" lon="6.389509966535701"><ele>556.0</ele><time>2026-04-18T15:29:14Z</time></trkpt><trkpt lat="46.27179739147757" lon="6.389329344210024"><ele>555.5</ele><time>2026-04-18T15:29:15Z</time></trkpt><trkpt lat="46.27173187862457" lon="6.389150093317882"><ele>555.0</ele><time>2026-04-18T15:29:16Z</time></trkpt><trkpt lat="46.27166632987805" lon="6.388971417083653"><ele>554.5</ele><time>2026-04-18T15:29:17Z</time></trkpt><trkpt lat="46.27159817548219" lon="6.38878477121425"><ele>554.0</ele><time>2026-04-18T15:29:18Z</time></trkpt><trkpt lat="46.27152903222595" lon="6.388597799650677"><ele>553.75</ele><time>2026-04-18T15:29:19Z</time></trkpt><trkpt lat="46.271460950689715" lon="6.38841015493703"><ele>553.5</ele><time>2026-04-18T15:29:20Z</time></trkpt><trkpt lat="46.27139452159378" lon="6.388219237312309"><ele>553.25</ele><time>2026-04-18T15:29:21Z</time></trkpt><trkpt lat="46.27132019276891" lon="6.3880344597983765"><ele>553.0</ele><time>2026-04-18T15:29:22Z</time></trkpt><trkpt lat="46.27125174897874" lon="6.3878469226055845"><ele>552.75</ele><time>2026-04-18T15:29:23Z</time></trkpt><trkpt lat="46.27118362730239" lon="6.3876605368046775"><ele>552.5</ele><time>2026-04-18T15:29:24Z</time></trkpt><trkpt lat="46.2711179254517" lon="6.387481975223566"><ele>552.25</ele><time>2026-04-18T15:29:25Z</time></trkpt><trkpt lat="46.27105294061492" lon="6.387303557278341"><ele>552.0</ele><time>2026-04-18T15:29:26Z</time></trkpt><trkpt lat="46.270987914659294" lon="6.387129300453888"><ele>551.25</ele><time>2026-04-18T15:29:27Z</time></trkpt><trkpt lat="46.27092462484046" lon="6.3869578652694745"><ele>550.5</ele><time>2026-04-18T15:29:28Z</time></trkpt><trkpt lat="46.2708554518294" lon="6.386790824552726"><ele>549.75</ele><time>2026-04-18T15:29:29Z</time></trkpt><trkpt lat="46.2707828479079" lon="6.386623557837503"><ele>549.0</ele><time>2026-04-18T15:29:30Z</time></trkpt><trkpt lat="46.27071085997545" lon="6.386447813961189"><ele>548.3333333333334</ele><time>2026-04-18T15:29:31Z</time></trkpt><trkpt lat="46.270635812551355" lon="6.38625919453181"><ele>547.6666666666667</ele><time>2026-04-18T15:29:32Z</time></trkpt><trkpt lat="46.27058018535078" lon="6.386060527646785"><ele>547.0</ele><time>2026-04-18T15:29:33Z</time></trkpt><trkpt lat="46.27050874827703" lon="6.3858679124485365"><ele>547.0</ele><time>2026-04-18T15:29:34Z</time></trkpt><trkpt lat="46.27043765548459" lon="6.3856795355836065"><ele>547.0</ele><time>2026-04-18T15:29:35Z</time></trkpt><trkpt lat="46.27036767428454" lon="6.385493660530352"><ele>547.0</ele><time>2026-04-18T15:29:36Z</time></trkpt><trkpt lat="46.2702860274774" lon="6.38532242299428"><ele>547.0</ele><time>2026-04-18T15:29:37Z</time></trkpt><trkpt lat="46.27021800589326" lon="6.385140023949446"><ele>546.5</ele><time>2026-04-18T15:29:38Z</time></trkpt><trkpt lat="46.27014938495435" lon="6.384959413698702"><ele>546.0</ele><time>2026-04-18T15:29:39Z</time></trkpt><trkpt lat="46.27008799607397" lon="6.384782913461775"><ele>545.5</ele><time>2026-04-18T15:29:40Z</time></trkpt><trkpt lat="46.27002686283777" lon="6.3846026907343685"><ele>545.0</ele><time>2026-04-18T15:29:41Z</time></trkpt><trkpt lat="46.26996829026657" lon="6.384429372319773"><ele>545.0</ele><time>2026-04-18T15:29:42Z</time></trkpt><trkpt lat="46.26990133649744" lon="6.38426074085727"><ele>545.0</ele><time>2026-04-18T15:29:43Z</time></trkpt><trkpt lat="46.26983401235436" lon="6.384088470766145"><ele>545.0</ele><time>2026-04-18T15:29:44Z</time></trkpt><trkpt lat="46.26976567025697" lon="6.383913200482572"><ele>545.0</ele><time>2026-04-18T15:29:45Z</time></trkpt><trkpt lat="46.269695113736816" lon="6.38373412312238"><ele>544.75</ele><time>2026-04-18T15:29:46Z</time></trkpt><trkpt lat="46.26962700720851" lon="6.383554653071173"><ele>544.5</ele><time>2026-04-18T15:29:47Z</time></trkpt><trkpt lat="46.26956328773233" lon="6.383383070430123"><ele>544.25</ele><time>2026-04-18T15:29:48Z</time></trkpt><trkpt lat="46.269496835116186" lon="6.383216836793041"><ele>544.0</ele><time>2026-04-18T15:29:49Z</time></trkpt><trkpt lat="46.26943642292015" lon="6.383049829926557"><ele>543.75</ele><time>2026-04-18T15:29:50Z</time></trkpt><trkpt lat="46.269377138974555" lon="6.382891761684845"><ele>543.5</ele><time>2026-04-18T15:29:51Z</time></trkpt><trkpt lat="46.26931741646027" lon="6.382735977265099"><ele>543.25</ele><time>2026-04-18T15:29:52Z</time></trkpt><trkpt lat="46.26926160030507" lon="6.382582504138943"><ele>543.0</ele><time>2026-04-18T15:29:53Z</time></trkpt><trkpt lat="46.269207848316576" lon="6.3824301953617075"><ele>543.0</ele><time>2026-04-18T15:29:54Z</time></trkpt><trkpt lat="46.26914606060727" lon="6.382268893481885"><ele>543.0</ele><time>2026-04-18T15:29:55Z</time></trkpt><trkpt lat="46.269079720623616" lon="6.382103742406028"><ele>543.0</ele><time>2026-04-18T15:29:56Z</time></trkpt><trkpt lat="46.26901371437205" lon="6.381924702468265"><ele>543.0</ele><time>2026-04-18T15:29:57Z</time></trkpt><trkpt lat="46.26894576614979" lon="6.381736832155336"><ele>544.0</ele><time>2026-04-18T15:29:58Z</time></trkpt><trkpt lat="46.268874235522674" lon="6.381550760391728"><ele>545.0</ele><time>2026-04-18T15:29:59Z</time></trkpt><trkpt lat="46.26880212542927" lon="6.381355868843466"><ele>546.0</ele><time>2026-04-18T15:30:00Z</time></trkpt><trkpt lat="46.268735779288576" lon="6.381162281882701"><ele>547.0</ele><time>2026-04-18T15:30:01Z</time></trkpt><trkpt lat="46.268672155145076" lon="6.380980659022864"><ele>547.25</ele><time>2026-04-18T15:30:02Z</time></trkpt><trkpt lat="46.26860816460605" lon="6.380814151621906"><ele>547.5</ele><time>2026-04-18T15:30:03Z</time></trkpt><trkpt lat="46.26854059461921" lon="6.380658943956759"><ele>547.75</ele><time>2026-04-18T15:30:04Z</time></trkpt><trkpt lat="46.26849213942657" lon="6.380485442043445"><ele>548.0</ele><time>2026-04-18T15:30:05Z</time></trkpt><trkpt lat="46.268417641568874" lon="6.380323342932834"><ele>548.5</ele><time>2026-04-18T15:30:06Z</time></trkpt><trkpt lat="46.26835400694779" lon="6.380148870485934"><ele>549.0</ele><time>2026-04-18T15:30:07Z</time></trkpt><trkpt lat="46.2682868996043" lon="6.379973302174566"><ele>549.5</ele><time>2026-04-18T15:30:08Z</time></trkpt><trkpt lat="46.26821933659553" lon="6.3797910072234485"><ele>550.0</ele><time>2026-04-18T15:30:09Z</time></trkpt><trkpt lat="46.26814966078229" lon="6.3796086892904205"><ele>551.0</ele><time>2026-04-18T15:30:10Z</time></trkpt><trkpt lat="46.26809821695849" lon="6.379430135084672"><ele>552.0</ele><time>2026-04-18T15:30:11Z</time></trkpt><trkpt lat="46.26802718725551" lon="6.37928343293028"><ele>553.0</ele><time>2026-04-18T15:30:12Z</time></trkpt><trkpt lat="46.267972140443845" lon="6.379133676332928"><ele>554.0</ele><time>2026-04-18T15:30:13Z</time></trkpt><trkpt lat="46.26792179249614" lon="6.378988915492857"><ele>554.0</ele><time>2026-04-18T15:30:14Z</time></trkpt><trkpt lat="46.26786940021604" lon="6.378841516016464"><ele>554.0</ele><time>2026-04-18T15:30:15Z</time></trkpt><trkpt lat="46.267816062426434" lon="6.378706415369213"><ele>554.0</ele><time>2026-04-18T15:30:16Z</time></trkpt><trkpt lat="46.26776479130023" lon="6.3785774621705364"><ele>554.0</ele><time>2026-04-18T15:30:17Z</time></trkpt><trkpt lat="46.26771505250441" lon="6.378453528869625"><ele>554.0</ele><time>2026-04-18T15:30:18Z</time></trkpt><trkpt lat="46.26767141434116" lon="6.3783321664522825"><ele>554.0</ele><time>2026-04-18T15:30:19Z</time></trkpt><trkpt lat="46.26763086469013" lon="6.378217489292716"><ele>554.0</ele><time>2026-04-18T15:30:20Z</time></trkpt><trkpt lat="46.267588733488786" lon="6.3781054772361685"><ele>554.0</ele><time>2026-04-18T15:30:21Z</time></trkpt><trkpt lat="46.26754969732396" lon="6.377992250470036"><ele>554.0</ele><time>2026-04-18T15:30:22Z</time></trkpt><trkpt lat="46.2675253934636" lon="6.377878419754299"><ele>554.0</ele><time>2026-04-18T15:30:23Z</time></trkpt><trkpt lat="46.26751061886908" lon="6.377767614235298"><ele>554.0</ele><time>2026-04-18T15:30:24Z</time></trkpt><trkpt lat="46.267502071216185" lon="6.377665049947409"><ele>554.3333333333333</ele><time>2026-04-18T15:30:25Z</time></trkpt><trkpt lat="46.267489551536194" lon="6.377561241642277"><ele>554.6666666666666</ele><time>2026-04-18T15:30:26Z</time></trkpt><trkpt lat="46.26745330821301" lon="6.377482229378802"><ele>555.0</ele><time>2026-04-18T15:30:27Z</time></trkpt><trkpt lat="46.267394519981046" lon="6.377408339177463"><ele>555.3333333333334</ele><time>2026-04-18T15:30:28Z</time></trkpt><trkpt lat="46.26733036926135" lon="6.377339285612065"><ele>555.6666666666667</ele><time>2026-04-18T15:30:29Z</time></trkpt><trkpt lat="46.26726988072806" lon="6.377251933194689"><ele>556.0</ele><time>2026-04-18T15:30:30Z</time></trkpt><trkpt lat="46.26721649445476" lon="6.377128059002474"><ele>556.6</ele><time>2026-04-18T15:30:31Z</time></trkpt><trkpt lat="46.26717895286121" lon="6.376977794875358"><ele>557.2</ele><time>2026-04-18T15:30:32Z</time></trkpt><trkpt lat="46.2671301469106" lon="6.37684691197889"><ele>557.8</ele><time>2026-04-18T15:30:33Z</time></trkpt><trkpt lat="46.267085193496044" lon="6.376726360487653"><ele>558.4</ele><time>2026-04-18T15:30:34Z</time></trkpt><trkpt lat="46.26704204600157" lon="6.376610651804332"><ele>559.0</ele><time>2026-04-18T15:30:35Z</time></trkpt><trkpt lat="46.26699824788729" lon="6.3764917576749855"><ele>559.0</ele><time>2026-04-18T15:30:36Z</time></trkpt><trkpt lat="46.26695195321302" lon="6.37636637460906"><ele>559.0</ele><time>2026-04-18T15:30:37Z</time></trkpt><trkpt lat="46.266903074877604" lon="6.376235813159277"><ele>559.0</ele><time>2026-04-18T15:30:38Z</time></trkpt><trkpt lat="46.266838040118465" lon="6.376116614102115"><ele>559.0</ele><time>2026-04-18T15:30:39Z</time></trkpt><trkpt lat="46.26679158695169" lon="6.375991799325036"><ele>559.0</ele><time>2026-04-18T15:30:40Z</time></trkpt><trkpt lat="46.266749912323135" lon="6.37588086450138"><ele>559.1666666666667</ele><time>2026-04-18T15:30:41Z</time></trkpt><trkpt lat="46.266710753284336" lon="6.375770987728941"><ele>559.3333333333334</ele><time>2026-04-18T15:30:42Z</time></trkpt><trkpt lat="46.26667373342104" lon="6.375665095715892"><ele>559.5</ele><time>2026-04-18T15:30:43Z</time></trkpt><trkpt lat="46.2666386512445" lon="6.375560848229012"><ele>559.6666666666666</ele><time>2026-04-18T15:30:44Z</time></trkpt><trkpt lat="46.26659694839387" lon="6.375451085748315"><ele>559.8333333333333</ele><time>2026-04-18T15:30:45Z</time></trkpt><trkpt lat="46.266557171605825" lon="6.375345198426808"><ele>560.0</ele><time>2026-04-18T15:30:46Z</time></trkpt><trkpt lat="46.26651312207647" lon="6.375224749029194"><ele>560.0</ele><time>2026-04-18T15:30:47Z</time></trkpt><trkpt lat="46.266466051672445" lon="6.37511606365612"><ele>560.0</ele><time>2026-04-18T15:30:48Z</time></trkpt><trkpt lat="46.26641996359744" lon="6.375008929376536"><ele>560.0</ele><time>2026-04-18T15:30:49Z</time></trkpt><trkpt lat="46.26638193060141" lon="6.374902302871804"><ele>560.0</ele><time>2026-04-18T15:30:50Z</time></trkpt><trkpt lat="46.26634006691561" lon="6.374790024226493"><ele>560.0</ele><time>2026-04-18T15:30:51Z</time></trkpt><trkpt lat="46.26629446821401" lon="6.37467057446052"><ele>560.0</ele><time>2026-04-18T15:30:52Z</time></trkpt><trkpt lat="46.26625108489053" lon="6.37454818516409"><ele>561.2</ele><time>2026-04-18T15:30:53Z</time></trkpt><trkpt lat="46.26620085453918" lon="6.374422608187209"><ele>562.4</ele><time>2026-04-18T15:30:54Z</time></trkpt><trkpt lat="46.26615321753529" lon="6.374293415130619"><ele>563.6</ele><time>2026-04-18T15:30:55Z</time></trkpt><trkpt lat="46.26610494481701" lon="6.3741726580635545"><ele>564.8</ele><time>2026-04-18T15:30:56Z</time></trkpt><trkpt lat="46.26605927974775" lon="6.374039890566539"><ele>566.0</ele><time>2026-04-18T15:30:57Z</time></trkpt><trkpt lat="46.26602025909168" lon="6.373933214147972"><ele>565.3333333333333</ele><time>2026-04-18T15:30:58Z</time></trkpt><trkpt lat="46.265979838681645" lon="6.373821668661779"><ele>564.6666666666666</ele><time>2026-04-18T15:30:59Z</time></trkpt><trkpt lat="46.265955548421054" lon="6.373710368092255"><ele>564.0</ele><time>2026-04-18T15:31:00Z</time></trkpt><trkpt lat="46.26591097669526" lon="6.373593760665183"><ele>563.3333333333334</ele><time>2026-04-18T15:31:02Z</time></trkpt><trkpt lat="46.265876588882385" lon="6.373503795983072"><ele>562.6666666666667</ele><time>2026-04-18T15:31:16Z</time></trkpt><trkpt lat="46.26582013096594" lon="6.373355089937136"><ele>562.0</ele><time>2026-04-18T15:31:18Z</time></trkpt><trkpt lat="46.2657737056195" lon="6.373272873916397"><ele>562.0</ele><time>2026-04-18T15:31:19Z</time></trkpt><trkpt lat="46.26574942439218" lon="6.373182952027706"><ele>562.0</ele><time>2026-04-18T15:31:20Z</time></trkpt><trkpt lat="46.2657359253165" lon="6.373070772400421"><ele>562.0</ele><time>2026-04-18T15:31:21Z</time></trkpt><trkpt lat="46.26568906973769" lon="6.372965191993126"><ele>562.0</ele><time>2026-04-18T15:31:22Z</time></trkpt><trkpt lat="46.26564461033624" lon="6.372855632196854"><ele>562.0</ele><time>2026-04-18T15:31:23Z</time></trkpt><trkpt lat="46.26561048399007" lon="6.372717488605628"><ele>562.0</ele><time>2026-04-18T15:31:24Z</time></trkpt><trkpt lat="46.26556586851891" lon="6.372604128152832"><ele>562.5</ele><time>2026-04-18T15:31:25Z</time></trkpt><trkpt lat="46.26551947524879" lon="6.372487021075049"><ele>563.0</ele><time>2026-04-18T15:31:26Z</time></trkpt><trkpt lat="46.265475893128034" lon="6.372379187246654"><ele>563.5</ele><time>2026-04-18T15:31:27Z</time></trkpt><trkpt lat="46.26543911018847" lon="6.372289683418034"><ele>564.0</ele><time>2026-04-18T15:31:28Z</time></trkpt><trkpt lat="46.26539797428419" lon="6.372189840437095"><ele>564.5</ele><time>2026-04-18T15:31:29Z</time></trkpt><trkpt lat="46.26536236528258" lon="6.372104459133625"><ele>565.0</ele><time>2026-04-18T15:31:30Z</time></trkpt><trkpt lat="46.265326928092826" lon="6.372017364640192"><ele>565.1428571428571</ele><time>2026-04-18T15:31:31Z</time></trkpt><trkpt lat="46.26528749976972" lon="6.371917632054464"><ele>565.2857142857142</ele><time>2026-04-18T15:31:32Z</time></trkpt><trkpt lat="46.265254295511156" lon="6.371833643062782"><ele>565.4285714285714</ele><time>2026-04-18T15:31:33Z</time></trkpt><trkpt lat="46.26521842562174" lon="6.371740081613431"><ele>565.5714285714286</ele><time>2026-04-18T15:31:34Z</time></trkpt><trkpt lat="46.26518449929119" lon="6.371646031931574"><ele>565.7142857142858</ele><time>2026-04-18T15:31:35Z</time></trkpt><trkpt lat="46.26515052290135" lon="6.371550238322115"><ele>565.8571428571429</ele><time>2026-04-18T15:31:36Z</time></trkpt><trkpt lat="46.265122926557176" lon="6.371468308839291"><ele>566.0</ele><time>2026-04-18T15:31:37Z</time></trkpt><trkpt lat="46.26507794446273" lon="6.371339744546676"><ele>566.0</ele><time>2026-04-18T15:31:39Z</time></trkpt><trkpt lat="46.265044907798256" lon="6.371246048168426"><ele>566.0</ele><time>2026-04-18T15:31:41Z</time></trkpt><trkpt lat="46.26501142596431" lon="6.371154831703555"><ele>566.0</ele><time>2026-04-18T15:31:43Z</time></trkpt><trkpt lat="46.26495782164378" lon="6.371059839780577"><ele>566.0</ele><time>2026-04-18T15:31:46Z</time></trkpt><trkpt lat="46.26493499435368" lon="6.370948301561525"><ele>566.0</ele><time>2026-04-18T15:32:04Z</time></trkpt><trkpt lat="46.264872141601145" lon="6.3708124733650395"><ele>566.0</ele><time>2026-04-18T15:32:06Z</time></trkpt><trkpt lat="46.26482362397472" lon="6.370673347911717"><ele>566.4</ele><time>2026-04-18T15:32:08Z</time></trkpt><trkpt lat="46.264763351038425" lon="6.370528578464514"><ele>566.8</ele><time>2026-04-18T15:32:10Z</time></trkpt><trkpt lat="46.26471243691745" lon="6.3703477829251085"><ele>567.1999999999999</ele><time>2026-04-18T15:32:12Z</time></trkpt><trkpt lat="46.26467378252275" lon="6.370244599058971"><ele>567.6</ele><time>2026-04-18T15:32:13Z</time></trkpt><trkpt lat="46.26463285458073" lon="6.370134992342526"><ele>568.0</ele><time>2026-04-18T15:32:14Z</time></trkpt><trkpt lat="46.2645762571524" lon="6.37003272761402"><ele>568.0</ele><time>2026-04-18T15:32:15Z</time></trkpt><trkpt lat="46.26453343081111" lon="6.369917598880119"><ele>568.0</ele><time>2026-04-18T15:32:16Z</time></trkpt><trkpt lat="46.26449453025116" lon="6.369805824007858"><ele>568.0</ele><time>2026-04-18T15:32:17Z</time></trkpt><trkpt lat="46.26444794710887" lon="6.369680170887044"><ele>568.0</ele><time>2026-04-18T15:32:18Z</time></trkpt><trkpt lat="46.264407762528236" lon="6.369574275551945"><ele>568.0</ele><time>2026-04-18T15:32:19Z</time></trkpt><trkpt lat="46.26438437580762" lon="6.36946014537163"><ele>568.0</ele><time>2026-04-18T15:32:20Z</time></trkpt><trkpt lat="46.26434738926484" lon="6.369358705154574"><ele>568.0</ele><time>2026-04-18T15:32:21Z</time></trkpt><trkpt lat="46.26430994469085" lon="6.369256008750744"><ele>568.0</ele><time>2026-04-18T15:32:22Z</time></trkpt><trkpt lat="46.264268687499005" lon="6.3691428557644585"><ele>568.0</ele><time>2026-04-18T15:32:23Z</time></trkpt><trkpt lat="46.264226530740615" lon="6.36902723504551"><ele>568.0</ele><time>2026-04-18T15:32:24Z</time></trkpt><trkpt lat="46.2641780231645" lon="6.368893900953474"><ele>568.0</ele><time>2026-04-18T15:32:25Z</time></trkpt><trkpt lat="46.26411588651466" lon="6.368767955134823"><ele>568.1999999999999</ele><time>2026-04-18T15:32:26Z</time></trkpt><trkpt lat="46.26406466504767" lon="6.368629638055519"><ele>568.4</ele><time>2026-04-18T15:32:27Z</time></trkpt><trkpt lat="46.26402745589488" lon="6.368508942634764"><ele>568.5999999999999</ele><time>2026-04-18T15:32:28Z</time></trkpt><trkpt lat="46.26400766555518" lon="6.368370424725899"><ele>568.8</ele><time>2026-04-18T15:32:29Z</time></trkpt><trkpt lat="46.26396597268263" lon="6.368257396973335"><ele>569.0</ele><time>2026-04-18T15:32:30Z</time></trkpt><trkpt lat="46.263931461678425" lon="6.368133244903455"><ele>569.0</ele><time>2026-04-18T15:32:31Z</time></trkpt><trkpt lat="46.26387955821758" lon="6.368043723304686"><ele>569.0</ele><time>2026-04-18T15:32:32Z</time></trkpt><trkpt lat="46.26381994511983" lon="6.367942669459274"><ele>569.0</ele><time>2026-04-18T15:32:33Z</time></trkpt><trkpt lat="46.26376597501432" lon="6.367833812442055"><ele>569.0</ele><time>2026-04-18T15:32:34Z</time></trkpt><trkpt lat="46.26372151426983" lon="6.367709889393559"><ele>569.0</ele><time>2026-04-18T15:32:35Z</time></trkpt><trkpt lat="46.263687821953184" lon="6.367557802313629"><ele>569.0</ele><time>2026-04-18T15:32:36Z</time></trkpt><trkpt lat="46.263638055241366" lon="6.367457094158324"><ele>569.0</ele><time>2026-04-18T15:32:37Z</time></trkpt><trkpt lat="46.26360215366671" lon="6.367316545371738"><ele>569.0</ele><time>2026-04-18T15:32:38Z</time></trkpt><trkpt lat="46.26357039812266" lon="6.3671641412575175"><ele>569.0</ele><time>2026-04-18T15:32:39Z</time></trkpt><trkpt lat="46.26356350107433" lon="6.3670144555957355"><ele>569.0</ele><time>2026-04-18T15:32:40Z</time></trkpt><trkpt lat="46.2635461057204" lon="6.366871462957731"><ele>569.0</ele><time>2026-04-18T15:32:41Z</time></trkpt><trkpt lat="46.263531624389074" lon="6.366738343481901"><ele>569.0</ele><time>2026-04-18T15:32:42Z</time></trkpt><trkpt lat="46.26350416241351" lon="6.366607551713475"><ele>569.0</ele><time>2026-04-18T15:32:43Z</time></trkpt><trkpt lat="46.26349267770051" lon="6.366467250025014"><ele>569.0</ele><time>2026-04-18T15:32:44Z</time></trkpt><trkpt lat="46.26347866663822" lon="6.366313788907186"><ele>569.0</ele><time>2026-04-18T15:32:45Z</time></trkpt><trkpt lat="46.26346103491095" lon="6.366147075037253"><ele>569.0</ele><time>2026-04-18T15:32:46Z</time></trkpt><trkpt lat="46.26344776194404" lon="6.365988293899012"><ele>569.0</ele><time>2026-04-18T15:32:47Z</time></trkpt><trkpt lat="46.263431715465366" lon="6.365848250677572"><ele>569.0</ele><time>2026-04-18T15:32:48Z</time></trkpt><trkpt lat="46.26341980962017" lon="6.365714776492202"><ele>569.0</ele><time>2026-04-18T15:32:49Z</time></trkpt><trkpt lat="46.263410903663676" lon="6.365598006780508"><ele>569.0</ele><time>2026-04-18T15:32:50Z</time></trkpt><trkpt lat="46.26340770520849" lon="6.365492470004935"><ele>569.0</ele><time>2026-04-18T15:32:51Z</time></trkpt><trkpt lat="46.263398895741204" lon="6.365381938065704"><ele>569.0</ele><time>2026-04-18T15:32:52Z</time></trkpt><trkpt lat="46.26339090780752" lon="6.3652657195823235"><ele>569.0</ele><time>2026-04-18T15:32:53Z</time></trkpt><trkpt lat="46.26338188533758" lon="6.36515646758244"><ele>569.0</ele><time>2026-04-18T15:32:54Z</time></trkpt><trkpt lat="46.26337099565585" lon="6.365050638378315"><ele>569.0</ele><time>2026-04-18T15:32:55Z</time></trkpt><trkpt lat="46.26336155740765" lon="6.364928745215111"><ele>569.0</ele><time>2026-04-18T15:32:56Z</time></trkpt><trkpt lat="46.26334682527267" lon="6.3647933056915775"><ele>569.5</ele><time>2026-04-18T15:32:57Z</time></trkpt><trkpt lat="46.26333043018627" lon="6.364643044031495"><ele>570.0</ele><time>2026-04-18T15:32:58Z</time></trkpt><trkpt lat="46.26331408175666" lon="6.364488014317408"><ele>570.5</ele><time>2026-04-18T15:32:59Z</time></trkpt><trkpt lat="46.263301872730715" lon="6.364322624627036"><ele>571.0</ele><time>2026-04-18T15:33:00Z</time></trkpt><trkpt lat="46.26328278524496" lon="6.364146391598642"><ele>571.0</ele><time>2026-04-18T15:33:01Z</time></trkpt><trkpt lat="46.26326561617151" lon="6.363967774219373"><ele>571.0</ele><time>2026-04-18T15:33:02Z</time></trkpt><trkpt lat="46.26324642610312" lon="6.363782037927598"><ele>571.0</ele><time>2026-04-18T15:33:03Z</time></trkpt><trkpt lat="46.263225493204" lon="6.363586714114025"><ele>571.0</ele><time>2026-04-18T15:33:04Z</time></trkpt><trkpt lat="46.26320128821989" lon="6.363390217735638"><ele>570.5</ele><time>2026-04-18T15:33:05Z</time></trkpt><trkpt lat="46.26317687079714" lon="6.363200318173481"><ele>570.0</ele><time>2026-04-18T15:33:06Z</time></trkpt><trkpt lat="46.26314708838069" lon="6.3629899728812775"><ele>569.5</ele><time>2026-04-18T15:33:07Z</time></trkpt><trkpt lat="46.26311858918869" lon="6.362792143052332"><ele>569.0</ele><time>2026-04-18T15:33:08Z</time></trkpt><trkpt lat="46.2630964503615" lon="6.3625744428837585"><ele>571.3333333333333</ele><time>2026-04-18T15:33:09Z</time></trkpt><trkpt lat="46.263074909516725" lon="6.36235188542719"><ele>573.6666666666666</ele><time>2026-04-18T15:33:10Z</time></trkpt><trkpt lat="46.2630481275639" lon="6.362112576608736"><ele>576.0</ele><time>2026-04-18T15:33:11Z</time></trkpt><trkpt lat="46.26303620568349" lon="6.361858438759515"><ele>576.0</ele><time>2026-04-18T15:33:12Z</time></trkpt><trkpt lat="46.26300872039015" lon="6.361586895165141"><ele>576.0</ele><time>2026-04-18T15:33:13Z</time></trkpt><trkpt lat="46.2629770641532" lon="6.361274144240711"><ele>576.0</ele><time>2026-04-18T15:33:14Z</time></trkpt><trkpt lat="46.26294490661076" lon="6.360956515884953"><ele>576.0</ele><time>2026-04-18T15:33:15Z</time></trkpt><trkpt lat="46.26291171117835" lon="6.360655066490313"><ele>576.0</ele><time>2026-04-18T15:33:16Z</time></trkpt><trkpt lat="46.262869389541926" lon="6.360354811882131"><ele>576.0</ele><time>2026-04-18T15:33:17Z</time></trkpt><trkpt lat="46.26282156486828" lon="6.360050306809614"><ele>575.6666666666666</ele><time>2026-04-18T15:33:18Z</time></trkpt><trkpt lat="46.262747656522386" lon="6.359762701305962"><ele>575.3333333333333</ele><time>2026-04-18T15:33:19Z</time></trkpt><trkpt lat="46.26268275949509" lon="6.359493674056319"><ele>575.0</ele><time>2026-04-18T15:33:20Z</time></trkpt><trkpt lat="46.26260516998422" lon="6.3592177950570035"><ele>574.3333333333333</ele><time>2026-04-18T15:33:21Z</time></trkpt><trkpt lat="46.26252137004224" lon="6.358937436304026"><ele>573.6666666666666</ele><time>2026-04-18T15:33:22Z</time></trkpt><trkpt lat="46.26242912415944" lon="6.35865233251772"><ele>573.0</ele><time>2026-04-18T15:33:23Z</time></trkpt><trkpt lat="46.26235153163541" lon="6.3583545547867235"><ele>574.0</ele><time>2026-04-18T15:33:24Z</time></trkpt><trkpt lat="46.26226313688059" lon="6.358070029362737"><ele>575.0</ele><time>2026-04-18T15:33:25Z</time></trkpt><trkpt lat="46.262176426408864" lon="6.357790925484849"><ele>576.0</ele><time>2026-04-18T15:33:26Z</time></trkpt><trkpt lat="46.26209431265427" lon="6.357526617499203"><ele>576.0</ele><time>2026-04-18T15:33:27Z</time></trkpt><trkpt lat="46.26200376980415" lon="6.357236704586208"><ele>576.0</ele><time>2026-04-18T15:33:28Z</time></trkpt><trkpt lat="46.26189929706205" lon="6.356926925896558"><ele>576.3333333333334</ele><time>2026-04-18T15:33:29Z</time></trkpt><trkpt lat="46.26178813040666" lon="6.356639157938374"><ele>576.6666666666667</ele><time>2026-04-18T15:33:30Z</time></trkpt><trkpt lat="46.26165620906829" lon="6.356400132391864"><ele>577.0</ele><time>2026-04-18T15:33:31Z</time></trkpt><trkpt lat="46.26152434056192" lon="6.356192750628739"><ele>579.0</ele><time>2026-04-18T15:33:32Z</time></trkpt><trkpt lat="46.26137289715986" lon="6.3560089990928965"><ele>581.0</ele><time>2026-04-18T15:33:33Z</time></trkpt><trkpt lat="46.261204421699865" lon="6.355836177303245"><ele>583.0</ele><time>2026-04-18T15:33:34Z</time></trkpt><trkpt lat="46.261035445910174" lon="6.3556773985630475"><ele>583.0</ele><time>2026-04-18T15:33:35Z</time></trkpt><trkpt lat="46.260882557924326" lon="6.355543746341158"><ele>583.0</ele><time>2026-04-18T15:33:36Z</time></trkpt><trkpt lat="46.260744902387856" lon="6.355425888818291"><ele>583.0</ele><time>2026-04-18T15:33:37Z</time></trkpt><trkpt lat="46.26062245488839" lon="6.355297783914641"><ele>584.5</ele><time>2026-04-18T15:33:38Z</time></trkpt><trkpt lat="46.26052569089169" lon="6.355141671833228"><ele>586.0</ele><time>2026-04-18T15:33:39Z</time></trkpt><trkpt lat="46.26047185276254" lon="6.354942964613698"><ele>587.5</ele><time>2026-04-18T15:33:40Z</time></trkpt><trkpt lat="46.260424785583105" lon="6.354743574411725"><ele>589.0</ele><time>2026-04-18T15:33:41Z</time></trkpt><trkpt lat="46.260429072094716" lon="6.354524453848215"><ele>589.3333333333334</ele><time>2026-04-18T15:33:42Z</time></trkpt><trkpt lat="46.26046785679295" lon="6.354310995790956"><ele>589.6666666666666</ele><time>2026-04-18T15:33:43Z</time></trkpt><trkpt lat="46.26053582993662" lon="6.354117460678199"><ele>590.0</ele><time>2026-04-18T15:33:44Z</time></trkpt><trkpt lat="46.26064387104638" lon="6.353951454902806"><ele>590.75</ele><time>2026-04-18T15:33:45Z</time></trkpt><trkpt lat="46.26076894977363" lon="6.353808917340028"><ele>591.5</ele><time>2026-04-18T15:33:46Z</time></trkpt><trkpt lat="46.26086846893029" lon="6.353659547793825"><ele>592.25</ele><time>2026-04-18T15:33:47Z</time></trkpt><trkpt lat="46.26093193374234" lon="6.353495050111322"><ele>593.0</ele><time>2026-04-18T15:33:48Z</time></trkpt><trkpt lat="46.2609702355599" lon="6.353308071113236"><ele>593.0</ele><time>2026-04-18T15:33:49Z</time></trkpt><trkpt lat="46.26097796325676" lon="6.353095591086555"><ele>593.0</ele><time>2026-04-18T15:33:50Z</time></trkpt><trkpt lat="46.26097054886955" lon="6.352888160724426"><ele>593.0</ele><time>2026-04-18T15:33:51Z</time></trkpt><trkpt lat="46.26094221704403" lon="6.352699664516726"><ele>593.0</ele><time>2026-04-18T15:33:52Z</time></trkpt><trkpt lat="46.26092323245609" lon="6.352528363318761"><ele>593.5</ele><time>2026-04-18T15:33:53Z</time></trkpt><trkpt lat="46.26096312808471" lon="6.3523590877471765"><ele>594.0</ele><time>2026-04-18T15:33:54Z</time></trkpt><trkpt lat="46.26097313263027" lon="6.352176565040437"><ele>594.5</ele><time>2026-04-18T15:33:55Z</time></trkpt><trkpt lat="46.2609662765445" lon="6.351994096959248"><ele>595.0</ele><time>2026-04-18T15:33:56Z</time></trkpt><trkpt lat="46.260944138161484" lon="6.351827744852843"><ele>595.0</ele><time>2026-04-18T15:33:57Z</time></trkpt><trkpt lat="46.26091524973357" lon="6.351662677279736"><ele>595.0</ele><time>2026-04-18T15:33:58Z</time></trkpt><trkpt lat="46.26087992583898" lon="6.351483300086199"><ele>595.0</ele><time>2026-04-18T15:33:59Z</time></trkpt><trkpt lat="46.26084855651769" lon="6.351294130583156"><ele>595.0</ele><time>2026-04-18T15:34:00Z</time></trkpt><trkpt lat="46.260815312315636" lon="6.35107868700796"><ele>595.0</ele><time>2026-04-18T15:34:01Z</time></trkpt><trkpt lat="46.260782924885966" lon="6.350866507741832"><ele>595.0</ele><time>2026-04-18T15:34:02Z</time></trkpt><trkpt lat="46.260746627623654" lon="6.350645546507821"><ele>595.0</ele><time>2026-04-18T15:34:03Z</time></trkpt><trkpt lat="46.26070779897495" lon="6.350417100443597"><ele>594.6666666666667</ele><time>2026-04-18T15:34:04Z</time></trkpt><trkpt lat="46.260666069158084" lon="6.350199730824425"><ele>594.3333333333334</ele><time>2026-04-18T15:34:05Z</time></trkpt><trkpt lat="46.26062663529646" lon="6.349986918199618"><ele>594.0</ele><time>2026-04-18T15:34:06Z</time></trkpt><trkpt lat="46.26060030263244" lon="6.349773573961062"><ele>594.0</ele><time>2026-04-18T15:34:07Z</time></trkpt><trkpt lat="46.260580508052605" lon="6.349553516352928"><ele>594.0</ele><time>2026-04-18T15:34:08Z</time></trkpt><trkpt lat="46.260559041585786" lon="6.349314602972886"><ele>594.0</ele><time>2026-04-18T15:34:09Z</time></trkpt><trkpt lat="46.26052017791254" lon="6.349073423138527"><ele>593.3333333333334</ele><time>2026-04-18T15:34:10Z</time></trkpt><trkpt lat="46.26047115980406" lon="6.348807989675745"><ele>592.6666666666667</ele><time>2026-04-18T15:34:11Z</time></trkpt><trkpt lat="46.26042312101697" lon="6.348523046725452"><ele>592.0</ele><time>2026-04-18T15:34:12Z</time></trkpt><trkpt lat="46.26036587791549" lon="6.348238056235621"><ele>590.6666666666667</ele><time>2026-04-18T15:34:13Z</time></trkpt><trkpt lat="46.26029337907014" lon="6.347942098577522"><ele>589.3333333333334</ele><time>2026-04-18T15:34:14Z</time></trkpt><trkpt lat="46.260203480284865" lon="6.347649266444214"><ele>588.0</ele><time>2026-04-18T15:34:15Z</time></trkpt><trkpt lat="46.26009068821481" lon="6.347343750147225"><ele>587.0</ele><time>2026-04-18T15:34:16Z</time></trkpt><trkpt lat="46.25996567256788" lon="6.347027597324971"><ele>586.0</ele><time>2026-04-18T15:34:17Z</time></trkpt><trkpt lat="46.25983811867483" lon="6.346709277995195"><ele>586.0</ele><time>2026-04-18T15:34:18Z</time></trkpt><trkpt lat="46.25971875146941" lon="6.346399408204316"><ele>586.0</ele><time>2026-04-18T15:34:19Z</time></trkpt><trkpt lat="46.25961058606341" lon="6.346095823329915"><ele>586.0</ele><time>2026-04-18T15:34:20Z</time></trkpt><trkpt lat="46.259521219391694" lon="6.345800465454915"><ele>586.0</ele><time>2026-04-18T15:34:21Z</time></trkpt><trkpt lat="46.259462700424436" lon="6.345486656337427"><ele>586.0</ele><time>2026-04-18T15:34:22Z</time></trkpt><trkpt lat="46.259382888398335" lon="6.345172241234692"><ele>586.5</ele><time>2026-04-18T15:34:23Z</time></trkpt><trkpt lat="46.25932544444696" lon="6.344831039613484"><ele>587.0</ele><time>2026-04-18T15:34:24Z</time></trkpt><trkpt lat="46.25926544038894" lon="6.344485980452224"><ele>586.0</ele><time>2026-04-18T15:34:25Z</time></trkpt><trkpt lat="46.25920751016457" lon="6.344164119335511"><ele>585.0</ele><time>2026-04-18T15:34:26Z</time></trkpt><trkpt lat="46.25915691073036" lon="6.343863862614484"><ele>584.0</ele><time>2026-04-18T15:34:27Z</time></trkpt><trkpt lat="46.25910778545689" lon="6.3435793596042105"><ele>583.6666666666666</ele><time>2026-04-18T15:34:28Z</time></trkpt><trkpt lat="46.25906168164516" lon="6.343308395140099"><ele>583.3333333333334</ele><time>2026-04-18T15:34:29Z</time></trkpt><trkpt lat="46.259013602862794" lon="6.343050248085084"><ele>583.0</ele><time>2026-04-18T15:34:30Z</time></trkpt><trkpt lat="46.25896740359669" lon="6.342786659653732"><ele>585.3333333333334</ele><time>2026-04-18T15:34:31Z</time></trkpt><trkpt lat="46.25893239280864" lon="6.342511539143728"><ele>587.6666666666666</ele><time>2026-04-18T15:34:32Z</time></trkpt><trkpt lat="46.25888220979738" lon="6.342251012581502"><ele>590.0</ele><time>2026-04-18T15:34:33Z</time></trkpt><trkpt lat="46.25881230773447" lon="6.3420167477958875"><ele>590.0</ele><time>2026-04-18T15:34:34Z</time></trkpt><trkpt lat="46.258752811343726" lon="6.341792431680771"><ele>590.0</ele><time>2026-04-18T15:34:35Z</time></trkpt><trkpt lat="46.25869586624241" lon="6.341555275635714"><ele>590.0</ele><time>2026-04-18T15:34:36Z</time></trkpt><trkpt lat="46.25861159264735" lon="6.341337452867965"><ele>589.0</ele><time>2026-04-18T15:34:37Z</time></trkpt><trkpt lat="46.2585171914904" lon="6.3411502038895105"><ele>588.0</ele><time>2026-04-18T15:34:38Z</time></trkpt><trkpt lat="46.25843452299227" lon="6.340959324071791"><ele>587.0</ele><time>2026-04-18T15:34:39Z</time></trkpt><trkpt lat="46.258350823097906" lon="6.340777609573125"><ele>587.0</ele><time>2026-04-18T15:34:40Z</time></trkpt><trkpt lat="46.258255611914706" lon="6.340584286841815"><ele>587.0</ele><time>2026-04-18T15:34:41Z</time></trkpt><trkpt lat="46.25817191519586" lon="6.340366760125257"><ele>587.0</ele><time>2026-04-18T15:34:42Z</time></trkpt><trkpt lat="46.25806745043836" lon="6.340140567277304"><ele>587.3333333333333</ele><time>2026-04-18T15:34:43Z</time></trkpt><trkpt lat="46.25795834687409" lon="6.339910580085932"><ele>587.6666666666666</ele><time>2026-04-18T15:34:44Z</time></trkpt><trkpt lat="46.25785391501733" lon="6.339691095410783"><ele>588.0</ele><time>2026-04-18T15:34:45Z</time></trkpt><trkpt lat="46.25774482710567" lon="6.33949423380424"><ele>586.0</ele><time>2026-04-18T15:34:46Z</time></trkpt><trkpt lat="46.25765557370303" lon="6.339291423664784"><ele>584.0</ele><time>2026-04-18T15:34:47Z</time></trkpt><trkpt lat="46.257566673484796" lon="6.339095862580207"><ele>582.0</ele><time>2026-04-18T15:34:48Z</time></trkpt><trkpt lat="46.25747361566913" lon="6.3389108925762185"><ele>582.6666666666666</ele><time>2026-04-18T15:34:49Z</time></trkpt><trkpt lat="46.25739581166036" lon="6.3387184896195565"><ele>583.3333333333333</ele><time>2026-04-18T15:34:50Z</time></trkpt><trkpt lat="46.25730603937469" lon="6.338527773559352"><ele>584.0</ele><time>2026-04-18T15:34:51Z</time></trkpt><trkpt lat="46.25719489475574" lon="6.33833711707247"><ele>584.0</ele><time>2026-04-18T15:34:52Z</time></trkpt><trkpt lat="46.257098960538514" lon="6.338121099354389"><ele>584.0</ele><time>2026-04-18T15:34:53Z</time></trkpt><trkpt lat="46.25699253659761" lon="6.337904775703062"><ele>584.0</ele><time>2026-04-18T15:34:54Z</time></trkpt><trkpt lat="46.25687138845353" lon="6.337685848958333"><ele>582.3333333333333</ele><time>2026-04-18T15:34:55Z</time></trkpt><trkpt lat="46.25673647796694" lon="6.337456619270483"><ele>580.6666666666666</ele><time>2026-04-18T15:34:56Z</time></trkpt><trkpt lat="46.25658401790079" lon="6.337221570601902"><ele>579.0</ele><time>2026-04-18T15:34:57Z</time></trkpt><trkpt lat="46.25641308019854" lon="6.336979753882075"><ele>578.5</ele><time>2026-04-18T15:34:58Z</time></trkpt><trkpt lat="46.256237522398514" lon="6.3367288300629045"><ele>578.0</ele><time>2026-04-18T15:34:59Z</time></trkpt><trkpt lat="46.25607274096244" lon="6.33648925697639"><ele>577.3333333333333</ele><time>2026-04-18T15:35:00Z</time></trkpt><trkpt lat="46.25591302802187" lon="6.336271308457926"><ele>576.6666666666666</ele><time>2026-04-18T15:35:01Z</time></trkpt><trkpt lat="46.255754915194935" lon="6.3360787953085085"><ele>576.0</ele><time>2026-04-18T15:35:02Z</time></trkpt><trkpt lat="46.255587937198754" lon="6.3359075910518055"><ele>576.0</ele><time>2026-04-18T15:35:03Z</time></trkpt><trkpt lat="46.25541659721462" lon="6.33575372494691"><ele>576.0</ele><time>2026-04-18T15:35:04Z</time></trkpt><trkpt lat="46.25523490013044" lon="6.3356199288241495"><ele>576.0</ele><time>2026-04-18T15:35:05Z</time></trkpt><trkpt lat="46.25504338075301" lon="6.335501989709019"><ele>575.6666666666666</ele><time>2026-04-18T15:35:06Z</time></trkpt><trkpt lat="46.254846412192016" lon="6.335410866588157"><ele>575.3333333333333</ele><time>2026-04-18T15:35:07Z</time></trkpt><trkpt lat="46.2546451600999" lon="6.335340765076888"><ele>575.0</ele><time>2026-04-18T15:35:08Z</time></trkpt><trkpt lat="46.25444019477213" lon="6.335276176428209"><ele>575.0</ele><time>2026-04-18T15:35:09Z</time></trkpt><trkpt lat="46.25424877211158" lon="6.335223481111025"><ele>575.0</ele><time>2026-04-18T15:35:10Z</time></trkpt><trkpt lat="46.2540662356716" lon="6.335176352153797"><ele>575.0</ele><time>2026-04-18T15:35:11Z</time></trkpt><trkpt lat="46.253879014794784" lon="6.335132181319512"><ele>575.3333333333333</ele><time>2026-04-18T15:35:12Z</time></trkpt><trkpt lat="46.25368242666393" lon="6.33508162835056"><ele>575.6666666666666</ele><time>2026-04-18T15:35:13Z</time></trkpt><trkpt lat="46.2534794655936" lon="6.3350268677997645"><ele>576.0</ele><time>2026-04-18T15:35:14Z</time></trkpt><trkpt lat="46.253275335456195" lon="6.3349749710218335"><ele>577.0</ele><time>2026-04-18T15:35:15Z</time></trkpt><trkpt lat="46.2530676109152" lon="6.334917900667833"><ele>578.0</ele><time>2026-04-18T15:35:16Z</time></trkpt><trkpt lat="46.25286444068474" lon="6.3348628372181635"><ele>579.0</ele><time>2026-04-18T15:35:17Z</time></trkpt><trkpt lat="46.252673144252505" lon="6.334806079923498"><ele>579.0</ele><time>2026-04-18T15:35:18Z</time></trkpt><trkpt lat="46.25248899599087" lon="6.334753381615373"><ele>579.0</ele><time>2026-04-18T15:35:19Z</time></trkpt><trkpt lat="46.252316259477276" lon="6.3347046793340205"><ele>579.0</ele><time>2026-04-18T15:35:20Z</time></trkpt><trkpt lat="46.252142000165286" lon="6.334655678613508"><ele>574.6666666666666</ele><time>2026-04-18T15:35:21Z</time></trkpt><trkpt lat="46.25196915540045" lon="6.334610229075914"><ele>570.3333333333333</ele><time>2026-04-18T15:35:22Z</time></trkpt><trkpt lat="46.2517990225603" lon="6.334565614645905"><ele>566.0</ele><time>2026-04-18T15:35:23Z</time></trkpt><trkpt lat="46.25163518022461" lon="6.334518713203883"><ele>566.0</ele><time>2026-04-18T15:35:24Z</time></trkpt><trkpt lat="46.25147896162712" lon="6.3344726536364995"><ele>566.0</ele><time>2026-04-18T15:35:25Z</time></trkpt><trkpt lat="46.25131283443513" lon="6.334425717721499"><ele>566.0</ele><time>2026-04-18T15:35:26Z</time></trkpt><trkpt lat="46.25114218581266" lon="6.334383732036517"><ele>568.3333333333333</ele><time>2026-04-18T15:35:27Z</time></trkpt><trkpt lat="46.25096600066513" lon="6.334330980831065"><ele>570.6666666666666</ele><time>2026-04-18T15:35:28Z</time></trkpt><trkpt lat="46.25079135975169" lon="6.334271523680406"><ele>573.0</ele><time>2026-04-18T15:35:29Z</time></trkpt><trkpt lat="46.25061963773115" lon="6.334195535632864"><ele>574.6666666666666</ele><time>2026-04-18T15:35:30Z</time></trkpt><trkpt lat="46.25045280931253" lon="6.334099446780072"><ele>576.3333333333333</ele><time>2026-04-18T15:35:31Z</time></trkpt><trkpt lat="46.25029537695883" lon="6.3339817120704165"><ele>578.0</ele><time>2026-04-18T15:35:32Z</time></trkpt><trkpt lat="46.250152572785126" lon="6.333862574729469"><ele>576.3333333333333</ele><time>2026-04-18T15:35:33Z</time></trkpt><trkpt lat="46.2500146105288" lon="6.333737416867918"><ele>574.6666666666666</ele><time>2026-04-18T15:35:34Z</time></trkpt><trkpt lat="46.24988664112503" lon="6.333610531223892"><ele>573.0</ele><time>2026-04-18T15:35:35Z</time></trkpt><trkpt lat="46.2497678832285" lon="6.3334766395109865"><ele>573.0</ele><time>2026-04-18T15:35:36Z</time></trkpt><trkpt lat="46.249658299787626" lon="6.333325620821125"><ele>573.0</ele><time>2026-04-18T15:35:37Z</time></trkpt><trkpt lat="46.24954632343175" lon="6.333170192466131"><ele>573.0</ele><time>2026-04-18T15:35:38Z</time></trkpt><trkpt lat="46.24942966851773" lon="6.3330097719044565"><ele>569.6666666666666</ele><time>2026-04-18T15:35:39Z</time></trkpt><trkpt lat="46.24931278599273" lon="6.332855119291827"><ele>566.3333333333333</ele><time>2026-04-18T15:35:40Z</time></trkpt><trkpt lat="46.249204448959084" lon="6.332699431677657"><ele>563.0</ele><time>2026-04-18T15:35:41Z</time></trkpt><trkpt lat="46.24908571326436" lon="6.332541742608878"><ele>562.6666666666666</ele><time>2026-04-18T15:35:42Z</time></trkpt><trkpt lat="46.24895310142692" lon="6.332395403631145"><ele>562.3333333333334</ele><time>2026-04-18T15:35:43Z</time></trkpt><trkpt lat="46.24882165668542" lon="6.332260812797538"><ele>562.0</ele><time>2026-04-18T15:35:44Z</time></trkpt><trkpt lat="46.24869271830045" lon="6.33213626483986"><ele>562.0</ele><time>2026-04-18T15:35:45Z</time></trkpt><trkpt lat="46.24854096560683" lon="6.332026862357939"><ele>562.0</ele><time>2026-04-18T15:35:46Z</time></trkpt><trkpt lat="46.248380388735164" lon="6.331917974284781"><ele>562.0</ele><time>2026-04-18T15:35:47Z</time></trkpt><trkpt lat="46.24820435900589" lon="6.331819618529979"><ele>563.6666666666667</ele><time>2026-04-18T15:35:48Z</time></trkpt><trkpt lat="46.24806410983974" lon="6.331712213313244"><ele>565.3333333333334</ele><time>2026-04-18T15:35:49Z</time></trkpt><trkpt lat="46.24789761510866" lon="6.331637903979683"><ele>567.0</ele><time>2026-04-18T15:35:50Z</time></trkpt><trkpt lat="46.24774142094282" lon="6.331558949954119"><ele>567.0</ele><time>2026-04-18T15:35:51Z</time></trkpt><trkpt lat="46.24759346126344" lon="6.331474368047893"><ele>567.0</ele><time>2026-04-18T15:35:52Z</time></trkpt><trkpt lat="46.247447424922925" lon="6.331387861684066"><ele>567.0</ele><time>2026-04-18T15:35:53Z</time></trkpt><trkpt lat="46.2473079136062" lon="6.33129751389932"><ele>563.6666666666666</ele><time>2026-04-18T15:35:54Z</time></trkpt><trkpt lat="46.24716741174108" lon="6.331186052720053"><ele>560.3333333333333</ele><time>2026-04-18T15:35:55Z</time></trkpt><trkpt lat="46.24702837568797" lon="6.331045502455035"><ele>557.0</ele><time>2026-04-18T15:35:56Z</time></trkpt><trkpt lat="46.24690094661147" lon="6.330889668146484"><ele>557.0</ele><time>2026-04-18T15:35:57Z</time></trkpt><trkpt lat="46.24680141377488" lon="6.33070814958791"><ele>557.0</ele><time>2026-04-18T15:35:58Z</time></trkpt><trkpt lat="46.24670034149975" lon="6.330553128120835"><ele>557.0</ele><time>2026-04-18T15:35:59Z</time></trkpt><trkpt lat="46.24660606298815" lon="6.33039325078341"><ele>557.0</ele><time>2026-04-18T15:36:00Z</time></trkpt><trkpt lat="46.24652033195833" lon="6.330230022988344"><ele>557.0</ele><time>2026-04-18T15:36:01Z</time></trkpt><trkpt lat="46.24642187428892" lon="6.330075732951966"><ele>557.0</ele><time>2026-04-18T15:36:02Z</time></trkpt><trkpt lat="46.24633999586502" lon="6.3299058016872065"><ele>557.0</ele><time>2026-04-18T15:36:03Z</time></trkpt><trkpt lat="46.24625773867117" lon="6.329735007850142"><ele>556.25</ele><time>2026-04-18T15:36:04Z</time></trkpt><trkpt lat="46.246177304581416" lon="6.329571989360675"><ele>555.5</ele><time>2026-04-18T15:36:05Z</time></trkpt><trkpt lat="46.24610097990912" lon="6.329404448969168"><ele>554.75</ele><time>2026-04-18T15:36:06Z</time></trkpt><trkpt lat="46.2460233844397" lon="6.329232584743692"><ele>554.0</ele><time>2026-04-18T15:36:07Z</time></trkpt><trkpt lat="46.245945135326345" lon="6.3290621494063934"><ele>553.0</ele><time>2026-04-18T15:36:08Z</time></trkpt><trkpt lat="46.245855463381325" lon="6.328890841175479"><ele>552.0</ele><time>2026-04-18T15:36:09Z</time></trkpt><trkpt lat="46.24576065937848" lon="6.3287103107414024"><ele>551.0</ele><time>2026-04-18T15:36:10Z</time></trkpt><trkpt lat="46.24567734140507" lon="6.328536683248516"><ele>551.0</ele><time>2026-04-18T15:36:11Z</time></trkpt><trkpt lat="46.24560505833181" lon="6.328383879853645"><ele>551.0</ele><time>2026-04-18T15:36:12Z</time></trkpt><trkpt lat="46.24552285487004" lon="6.328228737806194"><ele>551.0</ele><time>2026-04-18T15:36:13Z</time></trkpt><trkpt lat="46.24543831081499" lon="6.328084217260249"><ele>551.0</ele><time>2026-04-18T15:36:14Z</time></trkpt><trkpt lat="46.24534955531616" lon="6.327937913740874"><ele>551.0</ele><time>2026-04-18T15:36:15Z</time></trkpt><trkpt lat="46.24525600093582" lon="6.3278040776820506"><ele>551.0</ele><time>2026-04-18T15:36:16Z</time></trkpt><trkpt lat="46.24515621848225" lon="6.327681358970271"><ele>551.0</ele><time>2026-04-18T15:36:17Z</time></trkpt><trkpt lat="46.245065078584446" lon="6.327601244568658"><ele>551.0</ele><time>2026-04-18T15:36:18Z</time></trkpt><trkpt lat="46.244972571992214" lon="6.3275381713256404"><ele>551.0</ele><time>2026-04-18T15:36:19Z</time></trkpt><trkpt lat="46.24488595837295" lon="6.32749500719537"><ele>551.0</ele><time>2026-04-18T15:36:20Z</time></trkpt><trkpt lat="46.24480859239453" lon="6.327464255537273"><ele>551.0</ele><time>2026-04-18T15:36:21Z</time></trkpt><trkpt lat="46.244736357303545" lon="6.327455498566664"><ele>551.0</ele><time>2026-04-18T15:36:22Z</time></trkpt><trkpt lat="46.244624202007856" lon="6.327444915299252"><ele>551.0</ele><time>2026-04-18T15:36:24Z</time></trkpt><trkpt lat="46.244530109586854" lon="6.327408837444774"><ele>550.6666666666666</ele><time>2026-04-18T15:36:26Z</time></trkpt><trkpt lat="46.2444805525512" lon="6.3273175997110895"><ele>550.3333333333333</ele><time>2026-04-18T15:36:28Z</time></trkpt><trkpt lat="46.24447877199917" lon="6.327162441800657"><ele>550.0</ele><time>2026-04-18T15:36:30Z</time></trkpt><trkpt lat="46.244499576974995" lon="6.32707580546916"><ele>549.6666666666666</ele><time>2026-04-18T15:36:31Z</time></trkpt><trkpt lat="46.24450504729224" lon="6.3269745777095645"><ele>549.3333333333334</ele><time>2026-04-18T15:36:32Z</time></trkpt><trkpt lat="46.24449557531281" lon="6.326865223355913"><ele>549.0</ele><time>2026-04-18T15:36:33Z</time></trkpt><trkpt lat="46.244458003197394" lon="6.32676596844106"><ele>549.0</ele><time>2026-04-18T15:36:34Z</time></trkpt><trkpt lat="46.244405621437046" lon="6.326686952967924"><ele>549.0</ele><time>2026-04-18T15:36:35Z</time></trkpt><trkpt lat="46.24432658188955" lon="6.326627344803666"><ele>549.0</ele><time>2026-04-18T15:36:36Z</time></trkpt><trkpt lat="46.24424851211085" lon="6.326562275471733"><ele>549.0</ele><time>2026-04-18T15:36:37Z</time></trkpt><trkpt lat="46.244176706333334" lon="6.326471076723635"><ele>549.0</ele><time>2026-04-18T15:36:38Z</time></trkpt><trkpt lat="46.24413934007823" lon="6.326337400186361"><ele>548.25</ele><time>2026-04-18T15:36:39Z</time></trkpt><trkpt lat="46.24415491012278" lon="6.326179430177646"><ele>547.5</ele><time>2026-04-18T15:36:40Z</time></trkpt><trkpt lat="46.24413477970862" lon="6.326008502219825"><ele>546.75</ele><time>2026-04-18T15:36:41Z</time></trkpt><trkpt lat="46.244130713736" lon="6.325837792704239"><ele>546.0</ele><time>2026-04-18T15:36:42Z</time></trkpt><trkpt lat="46.2441232356473" lon="6.325681740895116"><ele>545.6</ele><time>2026-04-18T15:36:43Z</time></trkpt><trkpt lat="46.24411324581551" lon="6.325533031640989"><ele>545.2</ele><time>2026-04-18T15:36:44Z</time></trkpt><trkpt lat="46.24410262684053" lon="6.325402869263647"><ele>544.8</ele><time>2026-04-18T15:36:45Z</time></trkpt><trkpt lat="46.24407907078989" lon="6.325279558987086"><ele>544.4</ele><time>2026-04-18T15:36:46Z</time></trkpt><trkpt lat="46.24405427813496" lon="6.325164774729312"><ele>544.0</ele><time>2026-04-18T15:36:47Z</time></trkpt><trkpt lat="46.244028935582456" lon="6.325047876468906"><ele>544.0</ele><time>2026-04-18T15:36:48Z</time></trkpt><trkpt lat="46.244026913750496" lon="6.324929316189043"><ele>544.0</ele><time>2026-04-18T15:36:49Z</time></trkpt><trkpt lat="46.244030588723085" lon="6.324819607001399"><ele>544.0</ele><time>2026-04-18T15:36:50Z</time></trkpt><trkpt lat="46.24401138477698" lon="6.324712736546453"><ele>544.0</ele><time>2026-04-18T15:36:51Z</time></trkpt><trkpt lat="46.24397000743152" lon="6.324633111833384"><ele>544.0</ele><time>2026-04-18T15:36:52Z</time></trkpt><trkpt lat="46.24391210229263" lon="6.324584043568949"><ele>544.0</ele><time>2026-04-18T15:36:53Z</time></trkpt><trkpt lat="46.243786137588934" lon="6.324577273668147"><ele>543.6666666666667</ele><time>2026-04-18T15:36:55Z</time></trkpt><trkpt lat="46.243721826365686" lon="6.324621557586419"><ele>543.3333333333334</ele><time>2026-04-18T15:36:56Z</time></trkpt><trkpt lat="46.24367232544268" lon="6.324701744703474"><ele>543.0</ele><time>2026-04-18T15:36:57Z</time></trkpt><trkpt lat="46.24366340696242" lon="6.324815579042083"><ele>542.6666666666666</ele><time>2026-04-18T15:36:58Z</time></trkpt><trkpt lat="46.24366411895244" lon="6.324918940429338"><ele>542.3333333333333</ele><time>2026-04-18T15:36:59Z</time></trkpt><trkpt lat="46.243577865412306" lon="6.325005422035421"><ele>542.0</ele><time>2026-04-18T15:37:00Z</time></trkpt><trkpt lat="46.24350114209999" lon="6.325073155798402"><ele>543.25</ele><time>2026-04-18T15:37:01Z</time></trkpt><trkpt lat="46.24340615410405" lon="6.325094408346735"><ele>544.5</ele><time>2026-04-18T15:37:02Z</time></trkpt><trkpt lat="46.24330476699485" lon="6.325051046746028"><ele>545.75</ele><time>2026-04-18T15:37:03Z</time></trkpt><trkpt lat="46.24319427481502" lon="6.324986211346495"><ele>547.0</ele><time>2026-04-18T15:37:04Z</time></trkpt><trkpt lat="46.24307169846003" lon="6.324919238063317"><ele>546.6666666666667</ele><time>2026-04-18T15:37:05Z</time></trkpt><trkpt lat="46.242921569881084" lon="6.324852507563053"><ele>546.3333333333334</ele><time>2026-04-18T15:37:06Z</time></trkpt><trkpt lat="46.24275697334678" lon="6.324778939628856"><ele>546.0</ele><time>2026-04-18T15:37:07Z</time></trkpt><trkpt lat="46.24260268198953" lon="6.32469892347266"><ele>546.0</ele><time>2026-04-18T15:37:08Z</time></trkpt><trkpt lat="46.242463557748074" lon="6.324597337874293"><ele>546.0</ele><time>2026-04-18T15:37:09Z</time></trkpt><trkpt lat="46.24231997416724" lon="6.324474548106353"><ele>546.0</ele><time>2026-04-18T15:37:10Z</time></trkpt><trkpt lat="46.242174718408805" lon="6.324348397993709"><ele>545.3333333333334</ele><time>2026-04-18T15:37:11Z</time></trkpt><trkpt lat="46.242018714902834" lon="6.324211339647713"><ele>544.6666666666667</ele><time>2026-04-18T15:37:12Z</time></trkpt><trkpt lat="46.24184667866109" lon="6.324056732988934"><ele>544.0</ele><time>2026-04-18T15:37:13Z</time></trkpt><trkpt lat="46.24166645402835" lon="6.323889503275363"><ele>544.0</ele><time>2026-04-18T15:37:14Z</time></trkpt><trkpt lat="46.241474624990744" lon="6.323708172654688"><ele>544.0</ele><time>2026-04-18T15:37:15Z</time></trkpt><trkpt lat="46.2412776536039" lon="6.323526509897438"><ele>546.5</ele><time>2026-04-18T15:37:16Z</time></trkpt><trkpt lat="46.24106224666596" lon="6.323340653812424"><ele>549.0</ele><time>2026-04-18T15:37:17Z</time></trkpt><trkpt lat="46.240835862994274" lon="6.323110876651079"><ele>547.5</ele><time>2026-04-18T15:37:18Z</time></trkpt><trkpt lat="46.24059984894536" lon="6.322850468001746"><ele>546.0</ele><time>2026-04-18T15:37:19Z</time></trkpt><trkpt lat="46.24036273566788" lon="6.322584959188286"><ele>546.0</ele><time>2026-04-18T15:37:20Z</time></trkpt><trkpt lat="46.240119670336824" lon="6.322318657953787"><ele>546.0</ele><time>2026-04-18T15:37:21Z</time></trkpt><trkpt lat="46.2398631821587" lon="6.322033208476984"><ele>545.5</ele><time>2026-04-18T15:37:22Z</time></trkpt><trkpt lat="46.239618376678" lon="6.3217450594143045"><ele>545.0</ele><time>2026-04-18T15:37:23Z</time></trkpt><trkpt lat="46.239385272501345" lon="6.321480076777784"><ele>544.5</ele><time>2026-04-18T15:37:24Z</time></trkpt><trkpt lat="46.23914800011433" lon="6.321229303274697"><ele>544.0</ele><time>2026-04-18T15:37:25Z</time></trkpt><trkpt lat="46.238914659562994" lon="6.32098057162597"><ele>544.0</ele><time>2026-04-18T15:37:26Z</time></trkpt><trkpt lat="46.23869058288459" lon="6.3207294589171195"><ele>544.0</ele><time>2026-04-18T15:37:27Z</time></trkpt><trkpt lat="46.23846749854266" lon="6.320483028846225"><ele>544.0</ele><time>2026-04-18T15:37:28Z</time></trkpt><trkpt lat="46.23823327599904" lon="6.32024110584399"><ele>544.0</ele><time>2026-04-18T15:37:29Z</time></trkpt><trkpt lat="46.23799373697744" lon="6.3199950904313225"><ele>544.0</ele><time>2026-04-18T15:37:30Z</time></trkpt><trkpt lat="46.23774985444302" lon="6.319753872642864"><ele>544.0</ele><time>2026-04-18T15:37:31Z</time></trkpt><trkpt lat="46.237495934513056" lon="6.319528097807825"><ele>543.0</ele><time>2026-04-18T15:37:32Z</time></trkpt><trkpt lat="46.237235479191106" lon="6.319318129280583"><ele>542.0</ele><time>2026-04-18T15:37:33Z</time></trkpt><trkpt lat="46.23697842829151" lon="6.319124431006816"><ele>542.0</ele><time>2026-04-18T15:37:34Z</time></trkpt><trkpt lat="46.236731264967155" lon="6.318951329814188"><ele>542.0</ele><time>2026-04-18T15:37:35Z</time></trkpt><trkpt lat="46.23648860925132" lon="6.3187832610808226"><ele>539.0</ele><time>2026-04-18T15:37:36Z</time></trkpt><trkpt lat="46.236240926994085" lon="6.318617074891907"><ele>536.0</ele><time>2026-04-18T15:37:37Z</time></trkpt><trkpt lat="46.23598976295471" lon="6.3184466677718305"><ele>536.0</ele><time>2026-04-18T15:37:38Z</time></trkpt><trkpt lat="46.23573625401926" lon="6.318273947881953"><ele>536.0</ele><time>2026-04-18T15:37:39Z</time></trkpt><trkpt lat="46.23548710216752" lon="6.318101179148382"><ele>535.5</ele><time>2026-04-18T15:37:40Z</time></trkpt><trkpt lat="46.23524007633664" lon="6.31792856824977"><ele>535.0</ele><time>2026-04-18T15:37:41Z</time></trkpt><trkpt lat="46.23498517370969" lon="6.3177625126353005"><ele>536.5</ele><time>2026-04-18T15:37:42Z</time></trkpt><trkpt lat="46.23472200675546" lon="6.31758940884263"><ele>538.0</ele><time>2026-04-18T15:37:43Z</time></trkpt><trkpt lat="46.2344563485195" lon="6.317406465783958"><ele>537.5</ele><time>2026-04-18T15:37:44Z</time></trkpt><trkpt lat="46.234191275362974" lon="6.317222333982167"><ele>537.0</ele><time>2026-04-18T15:37:45Z</time></trkpt><trkpt lat="46.23392468047838" lon="6.317031967330922"><ele>538.0</ele><time>2026-04-18T15:37:46Z</time></trkpt><trkpt lat="46.23365575923674" lon="6.3168327600766006"><ele>539.0</ele><time>2026-04-18T15:37:47Z</time></trkpt><trkpt lat="46.233401791153106" lon="6.316639393020441"><ele>538.5</ele><time>2026-04-18T15:37:48Z</time></trkpt><trkpt lat="46.23313028792641" lon="6.316441648957189"><ele>538.0</ele><time>2026-04-18T15:37:49Z</time></trkpt><trkpt lat="46.23285556096801" lon="6.316247522808452"><ele>538.0</ele><time>2026-04-18T15:37:50Z</time></trkpt><trkpt lat="46.23258757305299" lon="6.316060144550781"><ele>538.0</ele><time>2026-04-18T15:37:51Z</time></trkpt><trkpt lat="46.232333516896304" lon="6.315880522316193"><ele>537.5</ele><time>2026-04-18T15:37:52Z</time></trkpt><trkpt lat="46.2320899268022" lon="6.315707413439405"><ele>537.0</ele><time>2026-04-18T15:37:53Z</time></trkpt><trkpt lat="46.23184682400624" lon="6.315538049837836"><ele>537.0</ele><time>2026-04-18T15:37:54Z</time></trkpt><trkpt lat="46.23160527511088" lon="6.315372739419582"><ele>537.0</ele><time>2026-04-18T15:37:55Z</time></trkpt><trkpt lat="46.23136320798468" lon="6.315200977259309"><ele>537.5</ele><time>2026-04-18T15:37:56Z</time></trkpt><trkpt lat="46.2311208428614" lon="6.315028800476076"><ele>538.0</ele><time>2026-04-18T15:37:57Z</time></trkpt><trkpt lat="46.230876638148075" lon="6.314862424081527"><ele>537.0</ele><time>2026-04-18T15:37:58Z</time></trkpt><trkpt lat="46.230626726628586" lon="6.3146930863392035"><ele>536.0</ele><time>2026-04-18T15:37:59Z</time></trkpt><trkpt lat="46.23037937497438" lon="6.314519492089363"><ele>536.0</ele><time>2026-04-18T15:38:00Z</time></trkpt><trkpt lat="46.23013071779396" lon="6.314350569535138"><ele>536.0</ele><time>2026-04-18T15:38:01Z</time></trkpt><trkpt lat="46.229880340869705" lon="6.314183896774741"><ele>536.5</ele><time>2026-04-18T15:38:02Z</time></trkpt><trkpt lat="46.22962625768032" lon="6.314024030131761"><ele>537.0</ele><time>2026-04-18T15:38:03Z</time></trkpt><trkpt lat="46.229370687245215" lon="6.313879703399642"><ele>537.0</ele><time>2026-04-18T15:38:04Z</time></trkpt><trkpt lat="46.229109704358166" lon="6.313737404178084"><ele>537.0</ele><time>2026-04-18T15:38:05Z</time></trkpt><trkpt lat="46.22884885839515" lon="6.313596414031638"><ele>537.5</ele><time>2026-04-18T15:38:06Z</time></trkpt><trkpt lat="46.228583592517985" lon="6.313459029301655"><ele>538.0</ele><time>2026-04-18T15:38:07Z</time></trkpt><trkpt lat="46.228316387823114" lon="6.313320106457971"><ele>537.0</ele><time>2026-04-18T15:38:08Z</time></trkpt><trkpt lat="46.22804854805289" lon="6.313173408960704"><ele>536.0</ele><time>2026-04-18T15:38:09Z</time></trkpt><trkpt lat="46.2277785966284" lon="6.313019647404498"><ele>536.0</ele><time>2026-04-18T15:38:10Z</time></trkpt><trkpt lat="46.22750787232434" lon="6.312863156167403"><ele>536.0</ele><time>2026-04-18T15:38:11Z</time></trkpt><trkpt lat="46.22723605229582" lon="6.312712811846258"><ele>536.5</ele><time>2026-04-18T15:38:12Z</time></trkpt><trkpt lat="46.226968064836775" lon="6.312569946828252"><ele>537.0</ele><time>2026-04-18T15:38:13Z</time></trkpt><trkpt lat="46.2267103699926" lon="6.312429889716501"><ele>536.0</ele><time>2026-04-18T15:38:14Z</time></trkpt><trkpt lat="46.226458168437084" lon="6.312298645340722"><ele>535.0</ele><time>2026-04-18T15:38:15Z</time></trkpt><trkpt lat="46.226198798584015" lon="6.312162388886521"><ele>535.0</ele><time>2026-04-18T15:38:16Z</time></trkpt><trkpt lat="46.225922502835054" lon="6.312034625179805"><ele>535.0</ele><time>2026-04-18T15:38:17Z</time></trkpt><trkpt lat="46.22563624319817" lon="6.311914448125614"><ele>534.5</ele><time>2026-04-18T15:38:18Z</time></trkpt><trkpt lat="46.225350762287185" lon="6.311797826145922"><ele>534.0</ele><time>2026-04-18T15:38:19Z</time></trkpt><trkpt lat="46.22507324141107" lon="6.311682752168258"><ele>535.0</ele><time>2026-04-18T15:38:20Z</time></trkpt><trkpt lat="46.22479500587492" lon="6.3115647781014905"><ele>536.0</ele><time>2026-04-18T15:38:21Z</time></trkpt><trkpt lat="46.2245121051495" lon="6.311443316034039"><ele>535.0</ele><time>2026-04-18T15:38:22Z</time></trkpt><trkpt lat="46.22423031296224" lon="6.311319222419144"><ele>534.0</ele><time>2026-04-18T15:38:23Z</time></trkpt><trkpt lat="46.223945108448014" lon="6.311196735892473"><ele>533.5</ele><time>2026-04-18T15:38:24Z</time></trkpt><trkpt lat="46.22365797223437" lon="6.311076293413732"><ele>533.0</ele><time>2026-04-18T15:38:25Z</time></trkpt><trkpt lat="46.22337486231906" lon="6.310958764190146"><ele>533.0</ele><time>2026-04-18T15:38:26Z</time></trkpt><trkpt lat="46.22310265616509" lon="6.310843023810564"><ele>533.0</ele><time>2026-04-18T15:38:27Z</time></trkpt><trkpt lat="46.222832573518026" lon="6.310730189710055"><ele>533.0</ele><time>2026-04-18T15:38:28Z</time></trkpt><trkpt lat="46.22256139870428" lon="6.310622387055198"><ele>533.0</ele><time>2026-04-18T15:38:29Z</time></trkpt><trkpt lat="46.222301345673294" lon="6.3105117954263505"><ele>532.5</ele><time>2026-04-18T15:38:30Z</time></trkpt><trkpt lat="46.222051221772475" lon="6.310403963510808"><ele>532.0</ele><time>2026-04-18T15:38:31Z</time></trkpt><trkpt lat="46.221810681228064" lon="6.310299947233086"><ele>532.0</ele><time>2026-04-18T15:38:32Z</time></trkpt><trkpt lat="46.2215842801651" lon="6.310197764014945"><ele>532.0</ele><time>2026-04-18T15:38:33Z</time></trkpt><trkpt lat="46.22136575543797" lon="6.3100967683495455"><ele>532.6666666666667</ele><time>2026-04-18T15:38:34Z</time></trkpt><trkpt lat="46.22115783149414" lon="6.3099922318163255"><ele>533.3333333333334</ele><time>2026-04-18T15:38:35Z</time></trkpt><trkpt lat="46.22095384953561" lon="6.309877806169516"><ele>534.0</ele><time>2026-04-18T15:38:36Z</time></trkpt><trkpt lat="46.22075148681203" lon="6.30974175461419"><ele>534.0</ele><time>2026-04-18T15:38:37Z</time></trkpt><trkpt lat="46.22054823130488" lon="6.309590846385659"><ele>534.0</ele><time>2026-04-18T15:38:38Z</time></trkpt><trkpt lat="46.22034145173729" lon="6.309428681972674"><ele>534.0</ele><time>2026-04-18T15:38:39Z</time></trkpt><trkpt lat="46.220140346499505" lon="6.309254328215984"><ele>534.0</ele><time>2026-04-18T15:38:40Z</time></trkpt><trkpt lat="46.21994460197233" lon="6.3090709680369"><ele>534.0</ele><time>2026-04-18T15:38:41Z</time></trkpt><trkpt lat="46.219756685639204" lon="6.308880365937768"><ele>534.0</ele><time>2026-04-18T15:38:42Z</time></trkpt><trkpt lat="46.21957627182768" lon="6.308688383287674"><ele>534.0</ele><time>2026-04-18T15:38:43Z</time></trkpt><trkpt lat="46.21940083340881" lon="6.308491383782989"><ele>534.0</ele><time>2026-04-18T15:38:44Z</time></trkpt><trkpt lat="46.21922084935575" lon="6.308282396318343"><ele>532.0</ele><time>2026-04-18T15:38:45Z</time></trkpt><trkpt lat="46.21904152467758" lon="6.308068488256867"><ele>530.0</ele><time>2026-04-18T15:38:46Z</time></trkpt><trkpt lat="46.21885809559294" lon="6.307855858033855"><ele>530.0</ele><time>2026-04-18T15:38:47Z</time></trkpt><trkpt lat="46.21867640175372" lon="6.307645564909294"><ele>530.0</ele><time>2026-04-18T15:38:48Z</time></trkpt><trkpt lat="46.21849934050674" lon="6.307438398012455"><ele>529.5</ele><time>2026-04-18T15:38:49Z</time></trkpt><trkpt lat="46.218326473579104" lon="6.307233617577453"><ele>529.0</ele><time>2026-04-18T15:38:50Z</time></trkpt><trkpt lat="46.218150006727456" lon="6.307026715902997"><ele>529.0</ele><time>2026-04-18T15:38:51Z</time></trkpt><trkpt lat="46.21796745630058" lon="6.306817558698677"><ele>529.0</ele><time>2026-04-18T15:38:52Z</time></trkpt><trkpt lat="46.21778582619265" lon="6.3066063331060835"><ele>528.5</ele><time>2026-04-18T15:38:53Z</time></trkpt><trkpt lat="46.21761129277494" lon="6.306395832099583"><ele>528.0</ele><time>2026-04-18T15:38:54Z</time></trkpt><trkpt lat="46.217436905567546" lon="6.306184773460161"><ele>529.0</ele><time>2026-04-18T15:38:55Z</time></trkpt><trkpt lat="46.217260644763016" lon="6.3059670981752145"><ele>530.0</ele><time>2026-04-18T15:38:56Z</time></trkpt><trkpt lat="46.217084317566545" lon="6.305747128286937"><ele>530.0</ele><time>2026-04-18T15:38:57Z</time></trkpt><trkpt lat="46.21690898138265" lon="6.3055234920038945"><ele>530.0</ele><time>2026-04-18T15:38:58Z</time></trkpt><trkpt lat="46.21673400543662" lon="6.305294040490141"><ele>530.0</ele><time>2026-04-18T15:38:59Z</time></trkpt><trkpt lat="46.216560575104324" lon="6.305062247688329"><ele>530.0</ele><time>2026-04-18T15:39:00Z</time></trkpt><trkpt lat="46.21638834432198" lon="6.304824118739886"><ele>531.5</ele><time>2026-04-18T15:39:01Z</time></trkpt><trkpt lat="46.21621307955677" lon="6.304590901363141"><ele>533.0</ele><time>2026-04-18T15:39:02Z</time></trkpt><trkpt lat="46.21604598459867" lon="6.3043706922649205"><ele>533.0</ele><time>2026-04-18T15:39:03Z</time></trkpt><trkpt lat="46.21588082711731" lon="6.3041530037467295"><ele>533.0</ele><time>2026-04-18T15:39:04Z</time></trkpt><trkpt lat="46.21571270388498" lon="6.303930045786827"><ele>532.5</ele><time>2026-04-18T15:39:05Z</time></trkpt><trkpt lat="46.21553727671453" lon="6.303697008231291"><ele>532.0</ele><time>2026-04-18T15:39:06Z</time></trkpt><trkpt lat="46.215361995393984" lon="6.303455333773717"><ele>532.0</ele><time>2026-04-18T15:39:07Z</time></trkpt><trkpt lat="46.21519197342264" lon="6.303210282683834"><ele>532.0</ele><time>2026-04-18T15:39:08Z</time></trkpt><trkpt lat="46.215032062979574" lon="6.302962312611225"><ele>532.0</ele><time>2026-04-18T15:39:09Z</time></trkpt><trkpt lat="46.2148789967702" lon="6.302708040492049"><ele>532.0</ele><time>2026-04-18T15:39:10Z</time></trkpt><trkpt lat="46.21472435945629" lon="6.302447157032385"><ele>533.5</ele><time>2026-04-18T15:39:11Z</time></trkpt><trkpt lat="46.214569921751824" lon="6.302182844730065"><ele>535.0</ele><time>2026-04-18T15:39:12Z</time></trkpt><trkpt lat="46.214425257928376" lon="6.301914202751291"><ele>535.0</ele><time>2026-04-18T15:39:13Z</time></trkpt><trkpt lat="46.21428553235157" lon="6.301642666751451"><ele>535.0</ele><time>2026-04-18T15:39:14Z</time></trkpt><trkpt lat="46.214139282230015" lon="6.301359060139097"><ele>534.0</ele><time>2026-04-18T15:39:15Z</time></trkpt><trkpt lat="46.21398011286914" lon="6.301055871781278"><ele>533.0</ele><time>2026-04-18T15:39:16Z</time></trkpt><trkpt lat="46.21381784395982" lon="6.300731305494429"><ele>533.0</ele><time>2026-04-18T15:39:17Z</time></trkpt><trkpt lat="46.21365480905618" lon="6.30038765838108"><ele>533.0</ele><time>2026-04-18T15:39:18Z</time></trkpt><trkpt lat="46.21349360760885" lon="6.300027947050411"><ele>533.5</ele><time>2026-04-18T15:39:19Z</time></trkpt><trkpt lat="46.213335038185534" lon="6.299655910942619"><ele>534.0</ele><time>2026-04-18T15:39:20Z</time></trkpt><trkpt lat="46.21317199778159" lon="6.2992847459942665"><ele>534.0</ele><time>2026-04-18T15:39:21Z</time></trkpt><trkpt lat="46.213007246769315" lon="6.29893623678247"><ele>534.0</ele><time>2026-04-18T15:39:22Z</time></trkpt><trkpt lat="46.21285419023177" lon="6.298602534400638"><ele>534.0</ele><time>2026-04-18T15:39:23Z</time></trkpt><trkpt lat="46.21270182733212" lon="6.298282708585679"><ele>534.0</ele><time>2026-04-18T15:39:24Z</time></trkpt><trkpt lat="46.212558618624435" lon="6.297978902747409"><ele>534.0</ele><time>2026-04-18T15:39:25Z</time></trkpt><trkpt lat="46.212400036560545" lon="6.297685043681875"><ele>534.0</ele><time>2026-04-18T15:39:26Z</time></trkpt><trkpt lat="46.212223035116736" lon="6.297397194839733"><ele>535.0</ele><time>2026-04-18T15:39:27Z</time></trkpt><trkpt lat="46.21203567443736" lon="6.297121899430398"><ele>536.0</ele><time>2026-04-18T15:39:28Z</time></trkpt><trkpt lat="46.211832684866145" lon="6.296860496876903"><ele>536.0</ele><time>2026-04-18T15:39:29Z</time></trkpt><trkpt lat="46.2116297113799" lon="6.296600542192618"><ele>536.0</ele><time>2026-04-18T15:39:30Z</time></trkpt><trkpt lat="46.2114219592038" lon="6.296358019458832"><ele>535.5</ele><time>2026-04-18T15:39:31Z</time></trkpt><trkpt lat="46.21121510143204" lon="6.29614197831148"><ele>535.0</ele><time>2026-04-18T15:39:32Z</time></trkpt><trkpt lat="46.210997935179876" lon="6.295941223249814"><ele>535.0</ele><time>2026-04-18T15:39:33Z</time></trkpt><trkpt lat="46.21077222037873" lon="6.295756136239328"><ele>535.0</ele><time>2026-04-18T15:39:34Z</time></trkpt><trkpt lat="46.21053485699724" lon="6.295579299813976"><ele>535.0</ele><time>2026-04-18T15:39:35Z</time></trkpt><trkpt lat="46.210288404760874" lon="6.295406812446613"><ele>535.0</ele><time>2026-04-18T15:39:36Z</time></trkpt><trkpt lat="46.210035338076146" lon="6.295256122826216"><ele>534.5</ele><time>2026-04-18T15:39:37Z</time></trkpt><trkpt lat="46.20979203192854" lon="6.295108851994475"><ele>534.0</ele><time>2026-04-18T15:39:38Z</time></trkpt><trkpt lat="46.20955909344502" lon="6.294968783893436"><ele>534.0</ele><time>2026-04-18T15:39:39Z</time></trkpt><trkpt lat="46.20934011489058" lon="6.29483433501905"><ele>534.0</ele><time>2026-04-18T15:39:40Z</time></trkpt><trkpt lat="46.20913017243271" lon="6.294706170874815"><ele>534.0</ele><time>2026-04-18T15:39:41Z</time></trkpt><trkpt lat="46.2089331927801" lon="6.294580396988309"><ele>534.0</ele><time>2026-04-18T15:39:42Z</time></trkpt><trkpt lat="46.20874213348254" lon="6.294466834688583"><ele>534.0</ele><time>2026-04-18T15:39:43Z</time></trkpt><trkpt lat="46.208567308201545" lon="6.294361232553439"><ele>534.0</ele><time>2026-04-18T15:39:44Z</time></trkpt><trkpt lat="46.208397918180204" lon="6.294245095584064"><ele>534.0</ele><time>2026-04-18T15:39:45Z</time></trkpt><trkpt lat="46.20823722376156" lon="6.2941167927535275"><ele>534.0</ele><time>2026-04-18T15:39:46Z</time></trkpt><trkpt lat="46.20808869582479" lon="6.293986954703211"><ele>534.3333333333334</ele><time>2026-04-18T15:39:47Z</time></trkpt><trkpt lat="46.20795061282988" lon="6.2938684104146985"><ele>534.6666666666667</ele><time>2026-04-18T15:39:48Z</time></trkpt><trkpt lat="46.20781722840063" lon="6.293752568883786"><ele>535.0</ele><time>2026-04-18T15:39:49Z</time></trkpt><trkpt lat="46.207684677116994" lon="6.293632672959927"><ele>535.0</ele><time>2026-04-18T15:39:50Z</time></trkpt><trkpt lat="46.20756295424826" lon="6.293511782471135"><ele>535.0</ele><time>2026-04-18T15:39:51Z</time></trkpt><trkpt lat="46.207449076889525" lon="6.293395564763031"><ele>535.0</ele><time>2026-04-18T15:39:52Z</time></trkpt><trkpt lat="46.20734129271249" lon="6.2932675130180264"><ele>535.0</ele><time>2026-04-18T15:39:53Z</time></trkpt><trkpt lat="46.20724660516958" lon="6.29312518858169"><ele>534.75</ele><time>2026-04-18T15:39:54Z</time></trkpt><trkpt lat="46.20716336217833" lon="6.292965088129734"><ele>534.5</ele><time>2026-04-18T15:39:55Z</time></trkpt><trkpt lat="46.20709843694171" lon="6.292789203661341"><ele>534.25</ele><time>2026-04-18T15:39:56Z</time></trkpt><trkpt lat="46.20705256173107" lon="6.292589500206172"><ele>534.0</ele><time>2026-04-18T15:39:57Z</time></trkpt><trkpt lat="46.207013917440804" lon="6.292370177932948"><ele>533.0</ele><time>2026-04-18T15:39:58Z</time></trkpt><trkpt lat="46.20698968848163" lon="6.292133640709669"><ele>532.0</ele><time>2026-04-18T15:39:59Z</time></trkpt><trkpt lat="46.20699193994543" lon="6.291877363948656"><ele>531.0</ele><time>2026-04-18T15:40:00Z</time></trkpt><trkpt lat="46.2070096030838" lon="6.291625626581092"><ele>531.3333333333334</ele><time>2026-04-18T15:40:01Z</time></trkpt><trkpt lat="46.20704215215751" lon="6.291383414343951"><ele>531.6666666666667</ele><time>2026-04-18T15:40:02Z</time></trkpt><trkpt lat="46.207070263713035" lon="6.291154309857695"><ele>532.0</ele><time>2026-04-18T15:40:03Z</time></trkpt><trkpt lat="46.20707536260188" lon="6.290958108333258"><ele>532.0</ele><time>2026-04-18T15:40:04Z</time></trkpt><trkpt lat="46.207064233526225" lon="6.290757748771099"><ele>532.0</ele><time>2026-04-18T15:40:05Z</time></trkpt><trkpt lat="46.20702751397465" lon="6.290573752316354"><ele>532.0</ele><time>2026-04-18T15:40:06Z</time></trkpt><trkpt lat="46.20696816569922" lon="6.290415599390586"><ele>532.0</ele><time>2026-04-18T15:40:07Z</time></trkpt><trkpt lat="46.206880969991225" lon="6.290297577403591"><ele>531.75</ele><time>2026-04-18T15:40:08Z</time></trkpt><trkpt lat="46.2067787606996" lon="6.290214414832016"><ele>531.5</ele><time>2026-04-18T15:40:09Z</time></trkpt><trkpt lat="46.20666578828781" lon="6.290164027654375"><ele>531.25</ele><time>2026-04-18T15:40:10Z</time></trkpt><trkpt lat="46.20653843372336" lon="6.290146836384533"><ele>531.0</ele><time>2026-04-18T15:40:11Z</time></trkpt><trkpt lat="46.20639816391304" lon="6.29017722167862"><ele>531.0</ele><time>2026-04-18T15:40:12Z</time></trkpt><trkpt lat="46.206253338312806" lon="6.290241170167983"><ele>531.0</ele><time>2026-04-18T15:40:13Z</time></trkpt><trkpt lat="46.20611047230135" lon="6.290336587405731"><ele>531.0</ele><time>2026-04-18T15:40:14Z</time></trkpt><trkpt lat="46.20596647672798" lon="6.290461328904463"><ele>531.0</ele><time>2026-04-18T15:40:15Z</time></trkpt><trkpt lat="46.20581154722252" lon="6.2905936394895186"><ele>531.0</ele><time>2026-04-18T15:40:16Z</time></trkpt><trkpt lat="46.20564482832068" lon="6.290721113451902"><ele>531.0</ele><time>2026-04-18T15:40:17Z</time></trkpt><trkpt lat="46.20546437002371" lon="6.290850468289256"><ele>532.0</ele><time>2026-04-18T15:40:18Z</time></trkpt><trkpt lat="46.20528303977958" lon="6.290983711002908"><ele>533.0</ele><time>2026-04-18T15:40:19Z</time></trkpt><trkpt lat="46.20510650660516" lon="6.291106230288645"><ele>534.0</ele><time>2026-04-18T15:40:20Z</time></trkpt><trkpt lat="46.20492802587586" lon="6.291206098215112"><ele>532.6666666666666</ele><time>2026-04-18T15:40:21Z</time></trkpt><trkpt lat="46.204745770426875" lon="6.29126166020403"><ele>531.3333333333333</ele><time>2026-04-18T15:40:22Z</time></trkpt><trkpt lat="46.2045646016979" lon="6.2912876536725975"><ele>530.0</ele><time>2026-04-18T15:40:23Z</time></trkpt><trkpt lat="46.20437240050674" lon="6.291275401991834"><ele>530.0</ele><time>2026-04-18T15:40:24Z</time></trkpt><trkpt lat="46.20417822606889" lon="6.2912479882481565"><ele>530.0</ele><time>2026-04-18T15:40:25Z</time></trkpt><trkpt lat="46.20398854236782" lon="6.291216073739981"><ele>530.0</ele><time>2026-04-18T15:40:26Z</time></trkpt><trkpt lat="46.203808243427595" lon="6.29118933157088"><ele>530.6666666666666</ele><time>2026-04-18T15:40:27Z</time></trkpt><trkpt lat="46.203631992076325" lon="6.291161740482598"><ele>531.3333333333334</ele><time>2026-04-18T15:40:28Z</time></trkpt><trkpt lat="46.20344640612246" lon="6.291139597535126"><ele>532.0</ele><time>2026-04-18T15:40:29Z</time></trkpt><trkpt lat="46.20325318248089" lon="6.291132966645885"><ele>532.0</ele><time>2026-04-18T15:40:30Z</time></trkpt><trkpt lat="46.203057936597176" lon="6.291149490479094"><ele>532.0</ele><time>2026-04-18T15:40:31Z</time></trkpt><trkpt lat="46.202873009087746" lon="6.2911808649778225"><ele>532.0</ele><time>2026-04-18T15:40:32Z</time></trkpt><trkpt lat="46.20269379149359" lon="6.291216748949539"><ele>532.0</ele><time>2026-04-18T15:40:33Z</time></trkpt><trkpt lat="46.202516829740944" lon="6.291264062473069"><ele>532.0</ele><time>2026-04-18T15:40:34Z</time></trkpt><trkpt lat="46.20234785570395" lon="6.291334960090619"><ele>532.0</ele><time>2026-04-18T15:40:35Z</time></trkpt><trkpt lat="46.2021975481537" lon="6.291406736332994"><ele>532.0</ele><time>2026-04-18T15:40:36Z</time></trkpt><trkpt lat="46.20205510494217" lon="6.291476374642391"><ele>532.0</ele><time>2026-04-18T15:40:37Z</time></trkpt><trkpt lat="46.201915972786345" lon="6.291542572610708"><ele>532.0</ele><time>2026-04-18T15:40:38Z</time></trkpt><trkpt lat="46.2017771236167" lon="6.291607828522954"><ele>532.0</ele><time>2026-04-18T15:40:39Z</time></trkpt><trkpt lat="46.20164135660872" lon="6.291671492900046"><ele>532.0</ele><time>2026-04-18T15:40:40Z</time></trkpt><trkpt lat="46.20150676469484" lon="6.291732607357536"><ele>532.0</ele><time>2026-04-18T15:40:41Z</time></trkpt><trkpt lat="46.20137416987451" lon="6.291782459955537"><ele>532.0</ele><time>2026-04-18T15:40:42Z</time></trkpt><trkpt lat="46.201242307050755" lon="6.291820393212664"><ele>532.0</ele><time>2026-04-18T15:40:43Z</time></trkpt><trkpt lat="46.201108684826764" lon="6.2918523864849405"><ele>532.0</ele><time>2026-04-18T15:40:44Z</time></trkpt><trkpt lat="46.20097052894574" lon="6.291880038934082"><ele>532.0</ele><time>2026-04-18T15:40:45Z</time></trkpt><trkpt lat="46.20083125438287" lon="6.291898574001838"><ele>532.0</ele><time>2026-04-18T15:40:46Z</time></trkpt><trkpt lat="46.20069192142963" lon="6.291905432297926"><ele>532.0</ele><time>2026-04-18T15:40:47Z</time></trkpt><trkpt lat="46.200560446465325" lon="6.291907145417337"><ele>531.75</ele><time>2026-04-18T15:40:48Z</time></trkpt><trkpt lat="46.20042460955683" lon="6.291900282043045"><ele>531.5</ele><time>2026-04-18T15:40:49Z</time></trkpt><trkpt lat="46.20028698384646" lon="6.291888077393532"><ele>531.25</ele><time>2026-04-18T15:40:50Z</time></trkpt><trkpt lat="46.20014339227877" lon="6.291874667480439"><ele>531.0</ele><time>2026-04-18T15:40:51Z</time></trkpt><trkpt lat="46.2000004539263" lon="6.291862040901116"><ele>531.0</ele><time>2026-04-18T15:40:52Z</time></trkpt><trkpt lat="46.199855356670845" lon="6.291845769038255"><ele>531.0</ele><time>2026-04-18T15:40:53Z</time></trkpt><trkpt lat="46.19972097260156" lon="6.291833314313402"><ele>531.0</ele><time>2026-04-18T15:40:54Z</time></trkpt><trkpt lat="46.19959133780149" lon="6.291821200173103"><ele>531.0</ele><time>2026-04-18T15:40:55Z</time></trkpt><trkpt lat="46.19946959680701" lon="6.29180996446312"><ele>531.0</ele><time>2026-04-18T15:40:56Z</time></trkpt><trkpt lat="46.19935116544517" lon="6.291800815054627"><ele>531.0</ele><time>2026-04-18T15:40:57Z</time></trkpt><trkpt lat="46.199232682883114" lon="6.291789729732712"><ele>531.0</ele><time>2026-04-18T15:40:58Z</time></trkpt><trkpt lat="46.199114270950886" lon="6.291776818478319"><ele>531.0</ele><time>2026-04-18T15:40:59Z</time></trkpt><trkpt lat="46.19898797530779" lon="6.291763817170829"><ele>530.5</ele><time>2026-04-18T15:41:00Z</time></trkpt><trkpt lat="46.19885626471999" lon="6.29175047398682"><ele>530.0</ele><time>2026-04-18T15:41:01Z</time></trkpt><trkpt lat="46.198720590325365" lon="6.291736520369037"><ele>529.5</ele><time>2026-04-18T15:41:02Z</time></trkpt><trkpt lat="46.19857914608623" lon="6.291721876770692"><ele>529.0</ele><time>2026-04-18T15:41:03Z</time></trkpt><trkpt lat="46.198428462517654" lon="6.291707703539672"><ele>529.0</ele><time>2026-04-18T15:41:04Z</time></trkpt><trkpt lat="46.19827055077878" lon="6.291698349197295"><ele>529.0</ele><time>2026-04-18T15:41:05Z</time></trkpt><trkpt lat="46.19809890098969" lon="6.291686053227475"><ele>529.0</ele><time>2026-04-18T15:41:06Z</time></trkpt><trkpt lat="46.197912207731" lon="6.291680074946147"><ele>527.6666666666667</ele><time>2026-04-18T15:41:07Z</time></trkpt><trkpt lat="46.19771508767203" lon="6.291670440549471"><ele>526.3333333333334</ele><time>2026-04-18T15:41:08Z</time></trkpt><trkpt lat="46.19750932692528" lon="6.2916708454303"><ele>525.0</ele><time>2026-04-18T15:41:09Z</time></trkpt><trkpt lat="46.1973752916989" lon="6.291620331036856"><ele>524.0</ele><time>2026-04-18T15:41:10Z</time></trkpt><trkpt lat="46.197179777180665" lon="6.291604307967335"><ele>523.0</ele><time>2026-04-18T15:41:11Z</time></trkpt><trkpt lat="46.19699456229597" lon="6.291594867244904"><ele>522.0</ele><time>2026-04-18T15:41:12Z</time></trkpt><trkpt lat="46.19681306993563" lon="6.291596920713667"><ele>522.0</ele><time>2026-04-18T15:41:13Z</time></trkpt><trkpt lat="46.19663728390111" lon="6.291602781763716"><ele>522.0</ele><time>2026-04-18T15:41:14Z</time></trkpt><trkpt lat="46.19646266273343" lon="6.291614561311673"><ele>522.0</ele><time>2026-04-18T15:41:15Z</time></trkpt><trkpt lat="46.19628997160236" lon="6.291639079450775"><ele>521.0</ele><time>2026-04-18T15:41:16Z</time></trkpt><trkpt lat="46.19611740432591" lon="6.291670498802765"><ele>520.0</ele><time>2026-04-18T15:41:17Z</time></trkpt><trkpt lat="46.19594630774659" lon="6.291714220542692"><ele>519.0</ele><time>2026-04-18T15:41:18Z</time></trkpt><trkpt lat="46.195772395731204" lon="6.291760170075288"><ele>520.75</ele><time>2026-04-18T15:41:19Z</time></trkpt><trkpt lat="46.19561456970962" lon="6.291795744283036"><ele>522.5</ele><time>2026-04-18T15:41:20Z</time></trkpt><trkpt lat="46.195478823460256" lon="6.291836917097964"><ele>524.25</ele><time>2026-04-18T15:41:21Z</time></trkpt><trkpt lat="46.195346895285645" lon="6.291879724868481"><ele>526.0</ele><time>2026-04-18T15:41:22Z</time></trkpt><trkpt lat="46.19521756468478" lon="6.291926208833019"><ele>526.0</ele><time>2026-04-18T15:41:23Z</time></trkpt><trkpt lat="46.195084866467155" lon="6.291966079254117"><ele>526.0</ele><time>2026-04-18T15:41:24Z</time></trkpt><trkpt lat="46.194949247816716" lon="6.292008047574068"><ele>526.0</ele><time>2026-04-18T15:41:25Z</time></trkpt><trkpt lat="46.19482305228059" lon="6.292051839993875"><ele>526.0</ele><time>2026-04-18T15:41:26Z</time></trkpt><trkpt lat="46.19468490686718" lon="6.292086949549598"><ele>527.3333333333334</ele><time>2026-04-18T15:41:27Z</time></trkpt><trkpt lat="46.19454478485433" lon="6.292134147252044"><ele>528.6666666666666</ele><time>2026-04-18T15:41:28Z</time></trkpt><trkpt lat="46.19439951718887" lon="6.292184319897003"><ele>530.0</ele><time>2026-04-18T15:41:29Z</time></trkpt><trkpt lat="46.19424236842869" lon="6.292236751834553"><ele>526.6666666666666</ele><time>2026-04-18T15:41:30Z</time></trkpt><trkpt lat="46.194084593894196" lon="6.292280086014879"><ele>523.3333333333334</ele><time>2026-04-18T15:41:31Z</time></trkpt><trkpt lat="46.193917788955034" lon="6.292325521802462"><ele>520.0</ele><time>2026-04-18T15:41:32Z</time></trkpt><trkpt lat="46.19375420965188" lon="6.292375260593551"><ele>520.0</ele><time>2026-04-18T15:41:33Z</time></trkpt><trkpt lat="46.193598468788764" lon="6.292424990131086"><ele>520.0</ele><time>2026-04-18T15:41:34Z</time></trkpt><trkpt lat="46.19344916106003" lon="6.292476075373614"><ele>520.0</ele><time>2026-04-18T15:41:35Z</time></trkpt><trkpt lat="46.193301707751516" lon="6.2925170557818095"><ele>520.5</ele><time>2026-04-18T15:41:36Z</time></trkpt><trkpt lat="46.19316795691676" lon="6.2925616921755205"><ele>521.0</ele><time>2026-04-18T15:41:37Z</time></trkpt><trkpt lat="46.19303418875009" lon="6.292602560094513"><ele>521.5</ele><time>2026-04-18T15:41:38Z</time></trkpt><trkpt lat="46.19290657298859" lon="6.292635161427003"><ele>522.0</ele><time>2026-04-18T15:41:39Z</time></trkpt><trkpt lat="46.19278468893313" lon="6.2926742397752715"><ele>522.0</ele><time>2026-04-18T15:41:40Z</time></trkpt><trkpt lat="46.19266094568723" lon="6.292709283747697"><ele>522.0</ele><time>2026-04-18T15:41:41Z</time></trkpt><trkpt lat="46.19254231029247" lon="6.292741838452738"><ele>522.0</ele><time>2026-04-18T15:41:42Z</time></trkpt><trkpt lat="46.19241993419052" lon="6.2927825091239065"><ele>522.0</ele><time>2026-04-18T15:41:43Z</time></trkpt><trkpt lat="46.19229106445377" lon="6.292820733034672"><ele>522.0</ele><time>2026-04-18T15:41:44Z</time></trkpt><trkpt lat="46.192156225836854" lon="6.2928651204601485"><ele>522.0</ele><time>2026-04-18T15:41:45Z</time></trkpt><trkpt lat="46.19201961229368" lon="6.2929132267018515"><ele>522.0</ele><time>2026-04-18T15:41:46Z</time></trkpt><trkpt lat="46.191869474901836" lon="6.292964181912649"><ele>522.0</ele><time>2026-04-18T15:41:47Z</time></trkpt><trkpt lat="46.19172302080961" lon="6.293021393558689"><ele>520.0</ele><time>2026-04-18T15:41:48Z</time></trkpt><trkpt lat="46.19157168878324" lon="6.293092093899023"><ele>518.0</ele><time>2026-04-18T15:41:49Z</time></trkpt><trkpt lat="46.19141678732355" lon="6.293177759534576"><ele>516.0</ele><time>2026-04-18T15:41:50Z</time></trkpt><trkpt lat="46.19126265765793" lon="6.293269975191098"><ele>516.0</ele><time>2026-04-18T15:41:51Z</time></trkpt><trkpt lat="46.19110981437527" lon="6.293386141020512"><ele>516.0</ele><time>2026-04-18T15:41:52Z</time></trkpt><trkpt lat="46.19095426228661" lon="6.293517820724904"><ele>516.0</ele><time>2026-04-18T15:41:53Z</time></trkpt><trkpt lat="46.19080952208059" lon="6.293658432951566"><ele>515.6666666666666</ele><time>2026-04-18T15:41:54Z</time></trkpt><trkpt lat="46.190670699149166" lon="6.293802633636939"><ele>515.3333333333333</ele><time>2026-04-18T15:41:54.999Z</time></trkpt><trkpt lat="46.19053758639106" lon="6.293946433773418"><ele>515.0</ele><time>2026-04-18T15:41:55.999Z</time></trkpt><trkpt lat="46.19040625604649" lon="6.294094784559555"><ele>513.3333333333333</ele><time>2026-04-18T15:41:56.999Z</time></trkpt><trkpt lat="46.19028020965131" lon="6.294241885408855"><ele>511.66666666666663</ele><time>2026-04-18T15:41:57.999Z</time></trkpt><trkpt lat="46.19015232941823" lon="6.294395432093391"><ele>510.0</ele><time>2026-04-18T15:41:58.999Z</time></trkpt><trkpt lat="46.19002460010922" lon="6.294550083916811"><ele>510.0</ele><time>2026-04-18T15:42:00Z</time></trkpt><trkpt lat="46.18989598880586" lon="6.294698847575064"><ele>510.0</ele><time>2026-04-18T15:42:01Z</time></trkpt><trkpt lat="46.189758804522036" lon="6.29485831509134"><ele>510.0</ele><time>2026-04-18T15:42:02Z</time></trkpt><trkpt lat="46.18961390117192" lon="6.295019996865394"><ele>509.0</ele><time>2026-04-18T15:42:03Z</time></trkpt><trkpt lat="46.18946477287956" lon="6.295181192473562"><ele>508.0</ele><time>2026-04-18T15:42:04Z</time></trkpt><trkpt lat="46.189310693199936" lon="6.295344567018011"><ele>507.0</ele><time>2026-04-18T15:42:05Z</time></trkpt><trkpt lat="46.18914654852185" lon="6.295507049742951"><ele>507.33333333333337</ele><time>2026-04-18T15:42:06Z</time></trkpt><trkpt lat="46.18897132629841" lon="6.295666795918373"><ele>507.6666666666667</ele><time>2026-04-18T15:42:07Z</time></trkpt><trkpt lat="46.18879368613717" lon="6.295825054176505"><ele>508.0</ele><time>2026-04-18T15:42:08Z</time></trkpt><trkpt lat="46.18861175407283" lon="6.295983769083384"><ele>508.0</ele><time>2026-04-18T15:42:09Z</time></trkpt><trkpt lat="46.18842727475938" lon="6.296145001189905"><ele>508.0</ele><time>2026-04-18T15:42:10Z</time></trkpt><trkpt lat="46.188240107062676" lon="6.296309713736404"><ele>508.0</ele><time>2026-04-18T15:42:11Z</time></trkpt><trkpt lat="46.188054108557004" lon="6.296472939369318"><ele>508.0</ele><time>2026-04-18T15:42:12Z</time></trkpt><trkpt lat="46.18788033534589" lon="6.296625660168371"><ele>508.0</ele><time>2026-04-18T15:42:13Z</time></trkpt><trkpt lat="46.18771157117684" lon="6.296773670056724"><ele>508.0</ele><time>2026-04-18T15:42:14Z</time></trkpt><trkpt lat="46.18754883579084" lon="6.296915475280596"><ele>508.0</ele><time>2026-04-18T15:42:15Z</time></trkpt><trkpt lat="46.1873891186589" lon="6.29705564814646"><ele>508.0</ele><time>2026-04-18T15:42:16Z</time></trkpt><trkpt lat="46.18722805847476" lon="6.297197325475945"><ele>508.0</ele><time>2026-04-18T15:42:17Z</time></trkpt><trkpt lat="46.1870634428457" lon="6.297343136437779"><ele>508.6666666666667</ele><time>2026-04-18T15:42:18Z</time></trkpt><trkpt lat="46.186893165868284" lon="6.2974938882075415"><ele>509.33333333333337</ele><time>2026-04-18T15:42:19Z</time></trkpt><trkpt lat="46.18671872290242" lon="6.2976464949271795"><ele>510.0</ele><time>2026-04-18T15:42:20Z</time></trkpt><trkpt lat="46.186549887337364" lon="6.2978041385910775"><ele>510.66666666666663</ele><time>2026-04-18T15:42:21Z</time></trkpt><trkpt lat="46.18638500952832" lon="6.297971174864359"><ele>511.3333333333333</ele><time>2026-04-18T15:42:22Z</time></trkpt><trkpt lat="46.186235156771374" lon="6.29814179601439"><ele>512.0</ele><time>2026-04-18T15:42:23Z</time></trkpt><trkpt lat="46.186097734674476" lon="6.298308413648911"><ele>512.0</ele><time>2026-04-18T15:42:24Z</time></trkpt><trkpt lat="46.18597744795592" lon="6.29846624925561"><ele>512.0</ele><time>2026-04-18T15:42:25Z</time></trkpt><trkpt lat="46.18585850080196" lon="6.298625176091867"><ele>512.0</ele><time>2026-04-18T15:42:26Z</time></trkpt><trkpt lat="46.18574696177939" lon="6.298788961129304"><ele>512.3333333333333</ele><time>2026-04-18T15:42:27Z</time></trkpt><trkpt lat="46.18564045943079" lon="6.298949763135051"><ele>512.6666666666666</ele><time>2026-04-18T15:42:28Z</time></trkpt><trkpt lat="46.18553382760427" lon="6.299110624411392"><ele>513.0</ele><time>2026-04-18T15:42:29Z</time></trkpt><trkpt lat="46.18543991835027" lon="6.299308739659882"><ele>513.0</ele><time>2026-04-18T15:42:30Z</time></trkpt><trkpt lat="46.18533483408747" lon="6.299504555017688"><ele>513.0</ele><time>2026-04-18T15:42:31Z</time></trkpt><trkpt lat="46.18521161225559" lon="6.29970858196865"><ele>513.0</ele><time>2026-04-18T15:42:32Z</time></trkpt><trkpt lat="46.18510173822999" lon="6.299932022213147"><ele>514.6666666666666</ele><time>2026-04-18T15:42:33Z</time></trkpt><trkpt lat="46.18500287940619" lon="6.300149326396956"><ele>516.3333333333333</ele><time>2026-04-18T15:42:34Z</time></trkpt><trkpt lat="46.18493363390437" lon="6.300369968438039"><ele>518.0</ele><time>2026-04-18T15:42:35Z</time></trkpt><trkpt lat="46.18486102551152" lon="6.300567002050633"><ele>517.75</ele><time>2026-04-18T15:42:36Z</time></trkpt><trkpt lat="46.18479441438233" lon="6.3007520465766484"><ele>517.5</ele><time>2026-04-18T15:42:37Z</time></trkpt><trkpt lat="46.18473019670536" lon="6.300935788347317"><ele>517.25</ele><time>2026-04-18T15:42:38Z</time></trkpt><trkpt lat="46.184654269095425" lon="6.301104436746601"><ele>517.0</ele><time>2026-04-18T15:42:39Z</time></trkpt><trkpt lat="46.1845971462741" lon="6.301281027614551"><ele>517.75</ele><time>2026-04-18T15:42:40Z</time></trkpt><trkpt lat="46.184537024567796" lon="6.301461873315548"><ele>518.5</ele><time>2026-04-18T15:42:41Z</time></trkpt><trkpt lat="46.184471879541974" lon="6.301641571498462"><ele>519.25</ele><time>2026-04-18T15:42:42Z</time></trkpt><trkpt lat="46.18439198133373" lon="6.301835546851493"><ele>520.0</ele><time>2026-04-18T15:42:43Z</time></trkpt><trkpt lat="46.18430291932184" lon="6.3020359973256985"><ele>520.0</ele><time>2026-04-18T15:42:44Z</time></trkpt><trkpt lat="46.18421633684998" lon="6.302233724184309"><ele>520.0</ele><time>2026-04-18T15:42:45Z</time></trkpt><trkpt lat="46.184130093139544" lon="6.302422165857503"><ele>520.0</ele><time>2026-04-18T15:42:46Z</time></trkpt><trkpt lat="46.18404499557955" lon="6.302589485623463"><ele>520.5</ele><time>2026-04-18T15:42:47Z</time></trkpt><trkpt lat="46.183955034384844" lon="6.302757274811942"><ele>521.0</ele><time>2026-04-18T15:42:48Z</time></trkpt><trkpt lat="46.1838696169805" lon="6.30291766065259"><ele>521.5</ele><time>2026-04-18T15:42:49Z</time></trkpt><trkpt lat="46.183778505992414" lon="6.303079039647449"><ele>522.0</ele><time>2026-04-18T15:42:50Z</time></trkpt><trkpt lat="46.18367477752127" lon="6.30325618681153"><ele>522.0</ele><time>2026-04-18T15:42:51Z</time></trkpt><trkpt lat="46.18355837389864" lon="6.303447719354418"><ele>522.0</ele><time>2026-04-18T15:42:52Z</time></trkpt><trkpt lat="46.18343029226469" lon="6.303638645107066"><ele>522.0</ele><time>2026-04-18T15:42:53Z</time></trkpt><trkpt lat="46.18328383213762" lon="6.303847547766163"><ele>521.6666666666666</ele><time>2026-04-18T15:42:54Z</time></trkpt><trkpt lat="46.183131799515564" lon="6.30406262737985"><ele>521.3333333333333</ele><time>2026-04-18T15:42:55Z</time></trkpt><trkpt lat="46.182955433898194" lon="6.304285980099475"><ele>521.0</ele><time>2026-04-18T15:42:56Z</time></trkpt><trkpt lat="46.18275781522923" lon="6.30450864822475"><ele>521.0</ele><time>2026-04-18T15:42:57Z</time></trkpt><trkpt lat="46.1825471442679" lon="6.304727834087595"><ele>521.0</ele><time>2026-04-18T15:42:58Z</time></trkpt><trkpt lat="46.182325226847496" lon="6.304934663290156"><ele>521.0</ele><time>2026-04-18T15:42:59Z</time></trkpt><trkpt lat="46.18209752973296" lon="6.305125929563229"><ele>521.0</ele><time>2026-04-18T15:43:00Z</time></trkpt><trkpt lat="46.181861099690686" lon="6.305304586412577"><ele>521.0</ele><time>2026-04-18T15:43:01Z</time></trkpt><trkpt lat="46.18162280396492" lon="6.3054596664168585"><ele>521.0</ele><time>2026-04-18T15:43:02Z</time></trkpt><trkpt lat="46.18136565069709" lon="6.305597565674408"><ele>520.0</ele><time>2026-04-18T15:43:03Z</time></trkpt><trkpt lat="46.18112344135642" lon="6.305721914324859"><ele>519.0</ele><time>2026-04-18T15:43:04Z</time></trkpt><trkpt lat="46.18089012684883" lon="6.305829997501283"><ele>519.5</ele><time>2026-04-18T15:43:05Z</time></trkpt><trkpt lat="46.18065482547968" lon="6.305926601100077"><ele>520.0</ele><time>2026-04-18T15:43:06Z</time></trkpt><trkpt lat="46.18041565464034" lon="6.306016555844975"><ele>520.0</ele><time>2026-04-18T15:43:07Z</time></trkpt><trkpt lat="46.18016600554958" lon="6.306110976124656"><ele>520.0</ele><time>2026-04-18T15:43:08Z</time></trkpt><trkpt lat="46.17990154598892" lon="6.306221528773574"><ele>520.0</ele><time>2026-04-18T15:43:09Z</time></trkpt><trkpt lat="46.17962499734622" lon="6.306330233364774"><ele>520.0</ele><time>2026-04-18T15:43:10Z</time></trkpt><trkpt lat="46.179332137861294" lon="6.306439516083126"><ele>518.5</ele><time>2026-04-18T15:43:11Z</time></trkpt><trkpt lat="46.17902655161959" lon="6.30655878321672"><ele>517.0</ele><time>2026-04-18T15:43:12Z</time></trkpt><trkpt lat="46.17871278387252" lon="6.306673885684433"><ele>516.5</ele><time>2026-04-18T15:43:13Z</time></trkpt><trkpt lat="46.178393530965515" lon="6.306778169667656"><ele>516.0</ele><time>2026-04-18T15:43:14Z</time></trkpt><trkpt lat="46.178085501126255" lon="6.306872854449521"><ele>515.0</ele><time>2026-04-18T15:43:15Z</time></trkpt><trkpt lat="46.17779714446659" lon="6.306967270878693"><ele>514.0</ele><time>2026-04-18T15:43:16Z</time></trkpt><trkpt lat="46.177514214484226" lon="6.307066425229964"><ele>513.0</ele><time>2026-04-18T15:43:17Z</time></trkpt><trkpt lat="46.17722624019706" lon="6.307166304704122"><ele>512.0</ele><time>2026-04-18T15:43:18Z</time></trkpt><trkpt lat="46.17693076684291" lon="6.307270659276528"><ele>508.5</ele><time>2026-04-18T15:43:19Z</time></trkpt><trkpt lat="46.176631685368065" lon="6.307379593952684"><ele>505.0</ele><time>2026-04-18T15:43:20Z</time></trkpt><trkpt lat="46.17633047221204" lon="6.307495258366389"><ele>500.5</ele><time>2026-04-18T15:43:21Z</time></trkpt><trkpt lat="46.17603761759502" lon="6.30761820444721"><ele>496.0</ele><time>2026-04-18T15:43:22Z</time></trkpt><trkpt lat="46.17575331290638" lon="6.307749640334854"><ele>492.5</ele><time>2026-04-18T15:43:23Z</time></trkpt><trkpt lat="46.175471260033895" lon="6.3079070007485045"><ele>489.0</ele><time>2026-04-18T15:43:24Z</time></trkpt><trkpt lat="46.17519202066466" lon="6.308078639269722"><ele>489.0</ele><time>2026-04-18T15:43:25Z</time></trkpt><trkpt lat="46.17491430254593" lon="6.308266765599121"><ele>489.0</ele><time>2026-04-18T15:43:26Z</time></trkpt><trkpt lat="46.17464561076585" lon="6.308465167488018"><ele>487.5</ele><time>2026-04-18T15:43:27Z</time></trkpt><trkpt lat="46.174374470786205" lon="6.308679714158706"><ele>486.0</ele><time>2026-04-18T15:43:28Z</time></trkpt><trkpt lat="46.17410148265714" lon="6.308904635532784"><ele>487.5</ele><time>2026-04-18T15:43:29Z</time></trkpt><trkpt lat="46.17381730494713" lon="6.309141130942906"><ele>489.0</ele><time>2026-04-18T15:43:30Z</time></trkpt><trkpt lat="46.173530717201075" lon="6.309378948078638"><ele>489.0</ele><time>2026-04-18T15:43:31Z</time></trkpt><trkpt lat="46.173235069272636" lon="6.309618137537295"><ele>489.0</ele><time>2026-04-18T15:43:32Z</time></trkpt><trkpt lat="46.17293654059751" lon="6.309863849318103"><ele>487.5</ele><time>2026-04-18T15:43:33Z</time></trkpt><trkpt lat="46.172644069116394" lon="6.310104087522941"><ele>486.0</ele><time>2026-04-18T15:43:34Z</time></trkpt><trkpt lat="46.17236189828914" lon="6.310339088186442"><ele>485.0</ele><time>2026-04-18T15:43:35Z</time></trkpt><trkpt lat="46.17209853080155" lon="6.310559525152124"><ele>484.0</ele><time>2026-04-18T15:43:36Z</time></trkpt><trkpt lat="46.17184394726645" lon="6.310766003546733"><ele>484.0</ele><time>2026-04-18T15:43:37Z</time></trkpt><trkpt lat="46.171588300493475" lon="6.310975410489397"><ele>484.0</ele><time>2026-04-18T15:43:38Z</time></trkpt><trkpt lat="46.171328512400386" lon="6.3111982071918575"><ele>484.5</ele><time>2026-04-18T15:43:39Z</time></trkpt><trkpt lat="46.17106677528238" lon="6.311426886547657"><ele>485.0</ele><time>2026-04-18T15:43:40Z</time></trkpt><trkpt lat="46.17079820369991" lon="6.31166292712439"><ele>484.5</ele><time>2026-04-18T15:43:41Z</time></trkpt><trkpt lat="46.17052919539219" lon="6.311917382070949"><ele>484.0</ele><time>2026-04-18T15:43:42Z</time></trkpt><trkpt lat="46.170273621317506" lon="6.312186141891299"><ele>484.0</ele><time>2026-04-18T15:43:43Z</time></trkpt><trkpt lat="46.17002837507603" lon="6.312472466173326"><ele>484.0</ele><time>2026-04-18T15:43:44Z</time></trkpt><trkpt lat="46.16981048589765" lon="6.312767843180715"><ele>485.5</ele><time>2026-04-18T15:43:45Z</time></trkpt><trkpt lat="46.169620146533106" lon="6.313078109365657"><ele>487.0</ele><time>2026-04-18T15:43:46Z</time></trkpt><trkpt lat="46.16944179445868" lon="6.3133921978867376"><ele>487.0</ele><time>2026-04-18T15:43:47Z</time></trkpt><trkpt lat="46.169272926294354" lon="6.313729598129624"><ele>487.0</ele><time>2026-04-18T15:43:48Z</time></trkpt><trkpt lat="46.16911871971782" lon="6.3140775828042"><ele>487.5</ele><time>2026-04-18T15:43:49Z</time></trkpt><trkpt lat="46.168975602755886" lon="6.3144135081349"><ele>488.0</ele><time>2026-04-18T15:43:50Z</time></trkpt><trkpt lat="46.16883873747008" lon="6.314733765521194"><ele>488.0</ele><time>2026-04-18T15:43:51Z</time></trkpt><trkpt lat="46.16870510858598" lon="6.315037720422817"><ele>488.0</ele><time>2026-04-18T15:43:52Z</time></trkpt><trkpt lat="46.16856156596007" lon="6.315347009090831"><ele>488.0</ele><time>2026-04-18T15:43:53Z</time></trkpt><trkpt lat="46.16841262421644" lon="6.315644211615114"><ele>488.0</ele><time>2026-04-18T15:43:54Z</time></trkpt><trkpt lat="46.16825049430229" lon="6.315928710566234"><ele>487.5</ele><time>2026-04-18T15:43:55Z</time></trkpt><trkpt lat="46.168080536382284" lon="6.316203382695211"><ele>487.0</ele><time>2026-04-18T15:43:55.999Z</time></trkpt><trkpt lat="46.167904382389864" lon="6.316472493856297"><ele>488.0</ele><time>2026-04-18T15:43:56.999Z</time></trkpt><trkpt lat="46.16772656462908" lon="6.3167380539688684"><ele>489.0</ele><time>2026-04-18T15:43:57.999Z</time></trkpt><trkpt lat="46.16756018031296" lon="6.316979663074784"><ele>489.0</ele><time>2026-04-18T15:43:58.999Z</time></trkpt><trkpt lat="46.16739370942035" lon="6.317220477694912"><ele>489.0</ele><time>2026-04-18T15:43:59.999Z</time></trkpt><trkpt lat="46.16723576386964" lon="6.317449631204862"><ele>497.5</ele><time>2026-04-18T15:44:00.999Z</time></trkpt><trkpt lat="46.16707073736341" lon="6.317686349668034"><ele>506.0</ele><time>2026-04-18T15:44:01.999Z</time></trkpt><trkpt lat="46.166899639051216" lon="6.317912109683155"><ele>504.3333333333333</ele><time>2026-04-18T15:44:02.999Z</time></trkpt><trkpt lat="46.16672208115206" lon="6.318113325694336"><ele>502.66666666666663</ele><time>2026-04-18T15:44:03.999Z</time></trkpt><trkpt lat="46.16653746274933" lon="6.318284013436655"><ele>501.0</ele><time>2026-04-18T15:44:04.999Z</time></trkpt><trkpt lat="46.16634966847149" lon="6.318420195723277"><ele>505.33333333333337</ele><time>2026-04-18T15:44:06Z</time></trkpt><trkpt lat="46.16615881729047" lon="6.31853886455161"><ele>509.6666666666667</ele><time>2026-04-18T15:44:07Z</time></trkpt><trkpt lat="46.16596022454427" lon="6.318638161776649"><ele>514.0</ele><time>2026-04-18T15:44:08Z</time></trkpt><trkpt lat="46.165753689223365" lon="6.318687077093565"><ele>514.6666666666667</ele><time>2026-04-18T15:44:09Z</time></trkpt><trkpt lat="46.165543642672276" lon="6.318726497793379"><ele>515.3333333333334</ele><time>2026-04-18T15:44:10Z</time></trkpt><trkpt lat="46.16533286442982" lon="6.31873002676932"><ele>516.0</ele><time>2026-04-18T15:44:11Z</time></trkpt><trkpt lat="46.16511573427878" lon="6.3187020224696635"><ele>516.0</ele><time>2026-04-18T15:44:12Z</time></trkpt><trkpt lat="46.16490758880261" lon="6.318644442275406"><ele>516.0</ele><time>2026-04-18T15:44:13Z</time></trkpt><trkpt lat="46.16470563984024" lon="6.318565461145883"><ele>516.0</ele><time>2026-04-18T15:44:14Z</time></trkpt><trkpt lat="46.16451461293038" lon="6.3184529450175555"><ele>516.3333333333334</ele><time>2026-04-18T15:44:15Z</time></trkpt><trkpt lat="46.16432454206091" lon="6.318314284574769"><ele>516.6666666666667</ele><time>2026-04-18T15:44:16Z</time></trkpt><trkpt lat="46.16413601811543" lon="6.318149264962142"><ele>517.0</ele><time>2026-04-18T15:44:17Z</time></trkpt><trkpt lat="46.16396988634584" lon="6.317973491297102"><ele>518.6666666666667</ele><time>2026-04-18T15:44:18Z</time></trkpt><trkpt lat="46.16382134532283" lon="6.317802769762002"><ele>520.3333333333334</ele><time>2026-04-18T15:44:19Z</time></trkpt><trkpt lat="46.1636709133453" lon="6.317629494308982"><ele>522.0</ele><time>2026-04-18T15:44:20Z</time></trkpt><trkpt lat="46.16351057385492" lon="6.317450967974477"><ele>522.0</ele><time>2026-04-18T15:44:21Z</time></trkpt><trkpt lat="46.16334022933804" lon="6.317274892989441"><ele>522.0</ele><time>2026-04-18T15:44:22Z</time></trkpt><trkpt lat="46.163164849051846" lon="6.317105241904449"><ele>522.0</ele><time>2026-04-18T15:44:23Z</time></trkpt><trkpt lat="46.16298392367305" lon="6.316941945087573"><ele>521.6666666666666</ele><time>2026-04-18T15:44:24Z</time></trkpt><trkpt lat="46.16279534269358" lon="6.316778836254213"><ele>521.3333333333333</ele><time>2026-04-18T15:44:25Z</time></trkpt><trkpt lat="46.162604044508434" lon="6.316626666975928"><ele>521.0</ele><time>2026-04-18T15:44:26Z</time></trkpt><trkpt lat="46.16240942511435" lon="6.31649240166981"><ele>521.3333333333333</ele><time>2026-04-18T15:44:27Z</time></trkpt><trkpt lat="46.16221197749697" lon="6.316373816195535"><ele>521.6666666666666</ele><time>2026-04-18T15:44:28Z</time></trkpt><trkpt lat="46.162013474627614" lon="6.316267144896346"><ele>522.0</ele><time>2026-04-18T15:44:29Z</time></trkpt><trkpt lat="46.1618267732386" lon="6.316180644450943"><ele>522.0</ele><time>2026-04-18T15:44:30Z</time></trkpt><trkpt lat="46.161644151624806" lon="6.316102343628268"><ele>522.0</ele><time>2026-04-18T15:44:31Z</time></trkpt><trkpt lat="46.1614483082844" lon="6.316035981484764"><ele>522.0</ele><time>2026-04-18T15:44:32Z</time></trkpt><trkpt lat="46.16124233821702" lon="6.315974376097387"><ele>522.0</ele><time>2026-04-18T15:44:33Z</time></trkpt><trkpt lat="46.16102896674893" lon="6.3159229007152495"><ele>522.0</ele><time>2026-04-18T15:44:34Z</time></trkpt><trkpt lat="46.16080956731639" lon="6.31588776527075"><ele>522.0</ele><time>2026-04-18T15:44:35Z</time></trkpt><trkpt lat="46.160587882258994" lon="6.315872220603046"><ele>522.6666666666666</ele><time>2026-04-18T15:44:36Z</time></trkpt><trkpt lat="46.16035951167686" lon="6.315866679423713"><ele>523.3333333333333</ele><time>2026-04-18T15:44:37Z</time></trkpt><trkpt lat="46.16014226057734" lon="6.315875221116607"><ele>524.0</ele><time>2026-04-18T15:44:38Z</time></trkpt><trkpt lat="46.159935868894124" lon="6.315899891047733"><ele>522.6666666666666</ele><time>2026-04-18T15:44:39Z</time></trkpt><trkpt lat="46.15973727728969" lon="6.31593044014465"><ele>521.3333333333334</ele><time>2026-04-18T15:44:40Z</time></trkpt><trkpt lat="46.159543764985855" lon="6.315969884100328"><ele>520.0</ele><time>2026-04-18T15:44:41Z</time></trkpt><trkpt lat="46.15935187245851" lon="6.316024086580418"><ele>520.0</ele><time>2026-04-18T15:44:42Z</time></trkpt><trkpt lat="46.159164231679824" lon="6.316082800115025"><ele>520.0</ele><time>2026-04-18T15:44:43Z</time></trkpt><trkpt lat="46.158987154686045" lon="6.3161503465481985"><ele>520.0</ele><time>2026-04-18T15:44:44Z</time></trkpt><trkpt lat="46.15880896339782" lon="6.316234812203562"><ele>519.6666666666667</ele><time>2026-04-18T15:44:45Z</time></trkpt><trkpt lat="46.158642617518765" lon="6.316330079084362"><ele>519.3333333333334</ele><time>2026-04-18T15:44:46Z</time></trkpt><trkpt lat="46.15848783158696" lon="6.316432049060245"><ele>519.0</ele><time>2026-04-18T15:44:47Z</time></trkpt><trkpt lat="46.15833982671231" lon="6.316525707055289"><ele>519.0</ele><time>2026-04-18T15:44:48Z</time></trkpt><trkpt lat="46.15821126428614" lon="6.316608643086996"><ele>519.0</ele><time>2026-04-18T15:44:49Z</time></trkpt><trkpt lat="46.158079518356125" lon="6.316705175902364"><ele>519.0</ele><time>2026-04-18T15:44:50Z</time></trkpt><trkpt lat="46.15796309410931" lon="6.316798135920998"><ele>519.0</ele><time>2026-04-18T15:44:51Z</time></trkpt><trkpt lat="46.157847637569375" lon="6.316896599705721"><ele>518.5</ele><time>2026-04-18T15:44:52Z</time></trkpt><trkpt lat="46.15773369877398" lon="6.316998570246308"><ele>518.0</ele><time>2026-04-18T15:44:53Z</time></trkpt><trkpt lat="46.1576185227184" lon="6.317096871270576"><ele>517.5</ele><time>2026-04-18T15:44:54Z</time></trkpt><trkpt lat="46.15750273881916" lon="6.317195798424346"><ele>517.0</ele><time>2026-04-18T15:44:55Z</time></trkpt><trkpt lat="46.15739054262886" lon="6.317293760476797"><ele>514.25</ele><time>2026-04-18T15:44:56Z</time></trkpt><trkpt lat="46.15727958721888" lon="6.317392174934922"><ele>511.5</ele><time>2026-04-18T15:44:57Z</time></trkpt><trkpt lat="46.1571662172289" lon="6.317485810504798"><ele>508.75</ele><time>2026-04-18T15:44:58Z</time></trkpt><trkpt lat="46.157052696199194" lon="6.317577088527554"><ele>506.0</ele><time>2026-04-18T15:44:59Z</time></trkpt><trkpt lat="46.15693995732052" lon="6.3176725570914005"><ele>506.0</ele><time>2026-04-18T15:45:00Z</time></trkpt><trkpt lat="46.15683160457825" lon="6.317772135580236"><ele>506.0</ele><time>2026-04-18T15:45:01Z</time></trkpt><trkpt lat="46.156726907998475" lon="6.317868458760406"><ele>506.0</ele><time>2026-04-18T15:45:02Z</time></trkpt><trkpt lat="46.15661855250804" lon="6.317967688220477"><ele>506.0</ele><time>2026-04-18T15:45:03Z</time></trkpt><trkpt lat="46.15650834376847" lon="6.318064625978697"><ele>504.75</ele><time>2026-04-18T15:45:04Z</time></trkpt><trkpt lat="46.156399547927386" lon="6.318156497809547"><ele>503.5</ele><time>2026-04-18T15:45:05Z</time></trkpt><trkpt lat="46.15629045871996" lon="6.318249059930352"><ele>502.25</ele><time>2026-04-18T15:45:06Z</time></trkpt><trkpt lat="46.156178323104974" lon="6.318343110728127"><ele>501.0</ele><time>2026-04-18T15:45:07Z</time></trkpt><trkpt lat="46.156059505593035" lon="6.318450115335485"><ele>501.0</ele><time>2026-04-18T15:45:08Z</time></trkpt><trkpt lat="46.15593897085956" lon="6.318551983451736"><ele>501.0</ele><time>2026-04-18T15:45:09Z</time></trkpt><trkpt lat="46.15581378333375" lon="6.318667386681258"><ele>501.0</ele><time>2026-04-18T15:45:10Z</time></trkpt><trkpt lat="46.155677673646295" lon="6.318788074391539"><ele>501.0</ele><time>2026-04-18T15:45:11Z</time></trkpt><trkpt lat="46.155538303975376" lon="6.318908719320518"><ele>500.0</ele><time>2026-04-18T15:45:12Z</time></trkpt><trkpt lat="46.15540080666991" lon="6.319025857315609"><ele>499.0</ele><time>2026-04-18T15:45:13Z</time></trkpt><trkpt lat="46.155267755548316" lon="6.319138037157531"><ele>498.0</ele><time>2026-04-18T15:45:14Z</time></trkpt><trkpt lat="46.15513621459599" lon="6.3192551663077685"><ele>498.0</ele><time>2026-04-18T15:45:15Z</time></trkpt><trkpt lat="46.15501404009644" lon="6.31936928246528"><ele>498.0</ele><time>2026-04-18T15:45:16Z</time></trkpt><trkpt lat="46.154898473458076" lon="6.319472325039294"><ele>498.0</ele><time>2026-04-18T15:45:17Z</time></trkpt><trkpt lat="46.15478559179781" lon="6.319566623533885"><ele>498.0</ele><time>2026-04-18T15:45:18Z</time></trkpt><trkpt lat="46.1546818598744" lon="6.319662081241426"><ele>497.59999999999997</ele><time>2026-04-18T15:45:19Z</time></trkpt><trkpt lat="46.154581995024124" lon="6.319744411399018"><ele>497.19999999999993</ele><time>2026-04-18T15:45:20Z</time></trkpt><trkpt lat="46.154495310544476" lon="6.319816740280627"><ele>496.8</ele><time>2026-04-18T15:45:21Z</time></trkpt><trkpt lat="46.15441094850014" lon="6.319889360354353"><ele>496.4</ele><time>2026-04-18T15:45:22Z</time></trkpt><trkpt lat="46.15432616332087" lon="6.319961666062843"><ele>496.0</ele><time>2026-04-18T15:45:23Z</time></trkpt><trkpt lat="46.154238973915426" lon="6.32003651156201"><ele>496.0</ele><time>2026-04-18T15:45:24Z</time></trkpt><trkpt lat="46.15414752002723" lon="6.320111925716282"><ele>496.0</ele><time>2026-04-18T15:45:25Z</time></trkpt><trkpt lat="46.154058860012356" lon="6.320181038211756"><ele>496.0</ele><time>2026-04-18T15:45:26Z</time></trkpt><trkpt lat="46.15396554838502" lon="6.320239545044186"><ele>496.0</ele><time>2026-04-18T15:45:27Z</time></trkpt><trkpt lat="46.15387435257665" lon="6.320295856687209"><ele>496.0</ele><time>2026-04-18T15:45:28Z</time></trkpt><trkpt lat="46.153780357381315" lon="6.320356830470005"><ele>495.4</ele><time>2026-04-18T15:45:29Z</time></trkpt><trkpt lat="46.15368558169328" lon="6.320401571331219"><ele>494.8</ele><time>2026-04-18T15:45:30Z</time></trkpt><trkpt lat="46.153588579934805" lon="6.320455999767218"><ele>494.19999999999993</ele><time>2026-04-18T15:45:31Z</time></trkpt><trkpt lat="46.153490142724706" lon="6.320500726238308"><ele>493.59999999999997</ele><time>2026-04-18T15:45:32Z</time></trkpt><trkpt lat="46.15339334296316" lon="6.320536569744307"><ele>493.0</ele><time>2026-04-18T15:45:33Z</time></trkpt><trkpt lat="46.15329104494701" lon="6.320565617808366"><ele>492.4</ele><time>2026-04-18T15:45:34Z</time></trkpt><trkpt lat="46.153187575142795" lon="6.3205976790925265"><ele>491.79999999999995</ele><time>2026-04-18T15:45:35Z</time></trkpt><trkpt lat="46.15307801204029" lon="6.320618754399681"><ele>491.2</ele><time>2026-04-18T15:45:36Z</time></trkpt><trkpt lat="46.152968758488306" lon="6.320632091941645"><ele>490.6</ele><time>2026-04-18T15:45:37Z</time></trkpt><trkpt lat="46.15286035443744" lon="6.320647713279617"><ele>490.0</ele><time>2026-04-18T15:45:38Z</time></trkpt><trkpt lat="46.15273785295459" lon="6.320657353146745"><ele>490.0</ele><time>2026-04-18T15:45:39Z</time></trkpt><trkpt lat="46.152617802088656" lon="6.320659865291149"><ele>490.0</ele><time>2026-04-18T15:45:40Z</time></trkpt><trkpt lat="46.15249201087677" lon="6.320655162574574"><ele>490.0</ele><time>2026-04-18T15:45:41Z</time></trkpt><trkpt lat="46.15236598358673" lon="6.320646299698448"><ele>490.0</ele><time>2026-04-18T15:45:42Z</time></trkpt><trkpt lat="46.15223443182125" lon="6.320626660640276"><ele>489.0</ele><time>2026-04-18T15:45:43Z</time></trkpt><trkpt lat="46.15210491081929" lon="6.320600246752251"><ele>488.0</ele><time>2026-04-18T15:45:44Z</time></trkpt><trkpt lat="46.151965424625274" lon="6.320568426188063"><ele>487.0</ele><time>2026-04-18T15:45:45Z</time></trkpt><trkpt lat="46.15182281671048" lon="6.320521767917294"><ele>486.0</ele><time>2026-04-18T15:45:46Z</time></trkpt><trkpt lat="46.15167822098931" lon="6.320460446256319"><ele>485.33333333333337</ele><time>2026-04-18T15:45:47Z</time></trkpt><trkpt lat="46.151534737783734" lon="6.320393751113212"><ele>484.6666666666667</ele><time>2026-04-18T15:45:48Z</time></trkpt><trkpt lat="46.151379603610465" lon="6.3203069315623335"><ele>484.0</ele><time>2026-04-18T15:45:49Z</time></trkpt><trkpt lat="46.15121853086359" lon="6.320203382791406"><ele>484.0</ele><time>2026-04-18T15:45:50Z</time></trkpt><trkpt lat="46.15104925639539" lon="6.320087470584746"><ele>484.0</ele><time>2026-04-18T15:45:51Z</time></trkpt><trkpt lat="46.150868294924216" lon="6.319968940189991"><ele>484.0</ele><time>2026-04-18T15:45:52Z</time></trkpt><trkpt lat="46.150680384472615" lon="6.319845065880992"><ele>482.6666666666667</ele><time>2026-04-18T15:45:53Z</time></trkpt><trkpt lat="46.15048564764185" lon="6.319717634941755"><ele>481.33333333333337</ele><time>2026-04-18T15:45:54Z</time></trkpt><trkpt lat="46.15028958297161" lon="6.319588369463012"><ele>480.0</ele><time>2026-04-18T15:45:55Z</time></trkpt><trkpt lat="46.1500941918966" lon="6.319461055647111"><ele>480.0</ele><time>2026-04-18T15:45:56Z</time></trkpt><trkpt lat="46.14991331663642" lon="6.319343190061459"><ele>480.0</ele><time>2026-04-18T15:45:57Z</time></trkpt><trkpt lat="46.14973844059108" lon="6.319236217385437"><ele>480.0</ele><time>2026-04-18T15:45:58Z</time></trkpt><trkpt lat="46.149569607918366" lon="6.3191276740168405"><ele>479.33333333333337</ele><time>2026-04-18T15:45:59Z</time></trkpt><trkpt lat="46.14941167160334" lon="6.3190170506467345"><ele>478.6666666666667</ele><time>2026-04-18T15:45:59.999Z</time></trkpt><trkpt lat="46.14925351158248" lon="6.318917172238395"><ele>478.0</ele><time>2026-04-18T15:46:00.999Z</time></trkpt><trkpt lat="46.14909919535111" lon="6.318816426299954"><ele>477.0</ele><time>2026-04-18T15:46:01.999Z</time></trkpt><trkpt lat="46.148951777178766" lon="6.318713776688184"><ele>476.0</ele><time>2026-04-18T15:46:02.999Z</time></trkpt><trkpt lat="46.14879672000343" lon="6.31861097095875"><ele>475.0</ele><time>2026-04-18T15:46:03.999Z</time></trkpt><trkpt lat="46.14864201800951" lon="6.318506175528553"><ele>475.0</ele><time>2026-04-18T15:46:04.999Z</time></trkpt><trkpt lat="46.14847416600116" lon="6.318399115017179"><ele>475.0</ele><time>2026-04-18T15:46:05.999Z</time></trkpt><trkpt lat="46.148300922029954" lon="6.318283243771623"><ele>475.0</ele><time>2026-04-18T15:46:06.999Z</time></trkpt><trkpt lat="46.14812616645377" lon="6.318167919107644"><ele>474.0</ele><time>2026-04-18T15:46:07.999Z</time></trkpt><trkpt lat="46.14794610425872" lon="6.3180489096486"><ele>473.0</ele><time>2026-04-18T15:46:08.999Z</time></trkpt><trkpt lat="46.14775693473629" lon="6.317924242589552"><ele>472.0</ele><time>2026-04-18T15:46:09.999Z</time></trkpt><trkpt lat="46.14755722265812" lon="6.317796817873975"><ele>469.5</ele><time>2026-04-18T15:46:10.999Z</time></trkpt><trkpt lat="46.14735013150873" lon="6.317662306600796"><ele>467.0</ele><time>2026-04-18T15:46:12Z</time></trkpt><trkpt lat="46.14713902527566" lon="6.317523645284896"><ele>467.0</ele><time>2026-04-18T15:46:13Z</time></trkpt><trkpt lat="46.14693033122633" lon="6.3173975388891765"><ele>467.0</ele><time>2026-04-18T15:46:14Z</time></trkpt><trkpt lat="46.14672705442277" lon="6.317298962465128"><ele>467.0</ele><time>2026-04-18T15:46:15Z</time></trkpt><trkpt lat="46.146522476253956" lon="6.3172254998053745"><ele>466.66666666666663</ele><time>2026-04-18T15:46:16Z</time></trkpt><trkpt lat="46.14632147783255" lon="6.317175469133953"><ele>466.33333333333337</ele><time>2026-04-18T15:46:17Z</time></trkpt><trkpt lat="46.146122817632765" lon="6.317145281457158"><ele>466.0</ele><time>2026-04-18T15:46:18Z</time></trkpt><trkpt lat="46.14592790630119" lon="6.3171454591272145"><ele>466.0</ele><time>2026-04-18T15:46:19Z</time></trkpt><trkpt lat="46.14573497544182" lon="6.317161101390449"><ele>466.0</ele><time>2026-04-18T15:46:20Z</time></trkpt><trkpt lat="46.14553562010805" lon="6.317196745273247"><ele>466.0</ele><time>2026-04-18T15:46:21Z</time></trkpt><trkpt lat="46.145333140171346" lon="6.3172520912966705"><ele>465.0</ele><time>2026-04-18T15:46:22Z</time></trkpt><trkpt lat="46.14513928981194" lon="6.317312303755715"><ele>464.0</ele><time>2026-04-18T15:46:23Z</time></trkpt><trkpt lat="46.144952724346574" lon="6.317374113352179"><ele>463.0</ele><time>2026-04-18T15:46:24Z</time></trkpt><trkpt lat="46.14476787352853" lon="6.317423218861621"><ele>461.6666666666667</ele><time>2026-04-18T15:46:25Z</time></trkpt><trkpt lat="46.14458966468728" lon="6.317473223770661"><ele>460.33333333333337</ele><time>2026-04-18T15:46:26Z</time></trkpt><trkpt lat="46.14441178287907" lon="6.317525184528629"><ele>459.0</ele><time>2026-04-18T15:46:27Z</time></trkpt><trkpt lat="46.14423259362428" lon="6.317565974873131"><ele>459.0</ele><time>2026-04-18T15:46:28Z</time></trkpt><trkpt lat="46.14404963619285" lon="6.31759181659414"><ele>459.0</ele><time>2026-04-18T15:46:29Z</time></trkpt><trkpt lat="46.14386659892426" lon="6.317617561379529"><ele>459.0</ele><time>2026-04-18T15:46:30Z</time></trkpt><trkpt lat="46.143686959958956" lon="6.3176193825192435"><ele>457.66666666666663</ele><time>2026-04-18T15:46:31Z</time></trkpt><trkpt lat="46.14350666769435" lon="6.317588952734929"><ele>456.3333333333333</ele><time>2026-04-18T15:46:32Z</time></trkpt><trkpt lat="46.14332486844022" lon="6.31754109619291"><ele>455.0</ele><time>2026-04-18T15:46:33Z</time></trkpt><trkpt lat="46.143136767839984" lon="6.317465236984333"><ele>454.66666666666663</ele><time>2026-04-18T15:46:34Z</time></trkpt><trkpt lat="46.14295866437835" lon="6.317377389286648"><ele>454.33333333333337</ele><time>2026-04-18T15:46:35Z</time></trkpt><trkpt lat="46.1427922338294" lon="6.317282568054511"><ele>454.0</ele><time>2026-04-18T15:46:36Z</time></trkpt><trkpt lat="46.14263227308822" lon="6.317191475867067"><ele>454.0</ele><time>2026-04-18T15:46:37Z</time></trkpt><trkpt lat="46.14247646987933" lon="6.317106290850359"><ele>454.0</ele><time>2026-04-18T15:46:38Z</time></trkpt><trkpt lat="46.14232328147344" lon="6.317022129995094"><ele>454.0</ele><time>2026-04-18T15:46:39Z</time></trkpt><trkpt lat="46.14217473186594" lon="6.316935917648829"><ele>453.25</ele><time>2026-04-18T15:46:40Z</time></trkpt><trkpt lat="46.1420348243144" lon="6.316857287720133"><ele>452.5</ele><time>2026-04-18T15:46:41Z</time></trkpt><trkpt lat="46.14189390644889" lon="6.316776498056896"><ele>451.75</ele><time>2026-04-18T15:46:42Z</time></trkpt><trkpt lat="46.14176116555026" lon="6.316700839339119"><ele>451.0</ele><time>2026-04-18T15:46:43Z</time></trkpt><trkpt lat="46.14163320433352" lon="6.316629566604083"><ele>451.25</ele><time>2026-04-18T15:46:44Z</time></trkpt><trkpt lat="46.1415053674263" lon="6.316558587294172"><ele>451.5</ele><time>2026-04-18T15:46:45Z</time></trkpt><trkpt lat="46.1413882985933" lon="6.3164878662622215"><ele>451.75</ele><time>2026-04-18T15:46:46Z</time></trkpt><trkpt lat="46.14127921820067" lon="6.316425468346353"><ele>452.0</ele><time>2026-04-18T15:46:47Z</time></trkpt><trkpt lat="46.141180100779735" lon="6.316364934277434"><ele>452.0</ele><time>2026-04-18T15:46:48Z</time></trkpt><trkpt lat="46.141089573781834" lon="6.316308734744416"><ele>452.00000000000006</ele><time>2026-04-18T15:46:49Z</time></trkpt><trkpt lat="46.14099504264609" lon="6.316253928389778"><ele>452.00000000000006</ele><time>2026-04-18T15:46:50Z</time></trkpt><trkpt lat="46.14090502744786" lon="6.316198080063373"><ele>452.0</ele><time>2026-04-18T15:46:51Z</time></trkpt><trkpt lat="46.140813628817625" lon="6.316142821135454"><ele>452.0</ele><time>2026-04-18T15:46:52Z</time></trkpt><trkpt lat="46.14071166282578" lon="6.316078513193117"><ele>452.25</ele><time>2026-04-18T15:46:53Z</time></trkpt><trkpt lat="46.14060088626741" lon="6.316010696264037"><ele>452.5</ele><time>2026-04-18T15:46:54Z</time></trkpt><trkpt lat="46.14048750274967" lon="6.315937761697996"><ele>452.75</ele><time>2026-04-18T15:46:55Z</time></trkpt><trkpt lat="46.140381071147935" lon="6.315857292465973"><ele>453.0</ele><time>2026-04-18T15:46:56Z</time></trkpt><trkpt lat="46.1402863481025" lon="6.315772860745858"><ele>453.0</ele><time>2026-04-18T15:46:57Z</time></trkpt><trkpt lat="46.140204750693435" lon="6.315684145036437"><ele>453.0</ele><time>2026-04-18T15:46:58Z</time></trkpt><trkpt lat="46.140141924966116" lon="6.31559535864984"><ele>453.0</ele><time>2026-04-18T15:46:59Z</time></trkpt><trkpt lat="46.14009154388156" lon="6.3155021033736825"><ele>453.0</ele><time>2026-04-18T15:47:00Z</time></trkpt><trkpt lat="46.14005762206043" lon="6.315393889941834"><ele>453.0</ele><time>2026-04-18T15:47:01Z</time></trkpt><trkpt lat="46.14003368148151" lon="6.315299621670664"><ele>453.0</ele><time>2026-04-18T15:47:02Z</time></trkpt><trkpt lat="46.13992695385426" lon="6.315222898140219"><ele>452.8333333333333</ele><time>2026-04-18T15:47:04Z</time></trkpt><trkpt lat="46.139855658868015" lon="6.3152400060187945"><ele>452.66666666666663</ele><time>2026-04-18T15:47:05Z</time></trkpt><trkpt lat="46.13978643955476" lon="6.315281113227786"><ele>452.5</ele><time>2026-04-18T15:47:06Z</time></trkpt><trkpt lat="46.13970851573674" lon="6.315318798491461"><ele>452.3333333333333</ele><time>2026-04-18T15:47:07Z</time></trkpt><trkpt lat="46.13961628838828" lon="6.315327644920681"><ele>452.16666666666663</ele><time>2026-04-18T15:47:08Z</time></trkpt><trkpt lat="46.139498957432885" lon="6.315292299412316"><ele>452.0</ele><time>2026-04-18T15:47:09Z</time></trkpt><trkpt lat="46.139366188068344" lon="6.3152342226673115"><ele>452.0</ele><time>2026-04-18T15:47:10Z</time></trkpt><trkpt lat="46.13922378142579" lon="6.315173660445448"><ele>452.0</ele><time>2026-04-18T15:47:11Z</time></trkpt><trkpt lat="46.13905962426392" lon="6.315100543602011"><ele>452.0</ele><time>2026-04-18T15:47:12Z</time></trkpt><trkpt lat="46.138884060877345" lon="6.315010639488612"><ele>452.0</ele><time>2026-04-18T15:47:13Z</time></trkpt><trkpt lat="46.138700812328445" lon="6.314905220382747"><ele>452.0</ele><time>2026-04-18T15:47:14Z</time></trkpt><trkpt lat="46.138505280245866" lon="6.314801665077727"><ele>452.0</ele><time>2026-04-18T15:47:15Z</time></trkpt><trkpt lat="46.13829896553247" lon="6.314702960661671"><ele>449.0</ele><time>2026-04-18T15:47:16Z</time></trkpt><trkpt lat="46.138092951079855" lon="6.314595889700557"><ele>446.0</ele><time>2026-04-18T15:47:17Z</time></trkpt><trkpt lat="46.137902157573215" lon="6.3144627637250474"><ele>443.0</ele><time>2026-04-18T15:47:18Z</time></trkpt><trkpt lat="46.13773010553639" lon="6.314318744086399"><ele>443.0</ele><time>2026-04-18T15:47:19Z</time></trkpt><trkpt lat="46.13756732408141" lon="6.314169962995613"><ele>443.0</ele><time>2026-04-18T15:47:20Z</time></trkpt><trkpt lat="46.13741617003195" lon="6.314016598159999"><ele>443.0</ele><time>2026-04-18T15:47:21Z</time></trkpt><trkpt lat="46.13727566436691" lon="6.31385634254641"><ele>442.66666666666663</ele><time>2026-04-18T15:47:22Z</time></trkpt><trkpt lat="46.13713389364048" lon="6.313688309644776"><ele>442.33333333333337</ele><time>2026-04-18T15:47:23Z</time></trkpt><trkpt lat="46.136986285101145" lon="6.313514294322052"><ele>442.0</ele><time>2026-04-18T15:47:24Z</time></trkpt><trkpt lat="46.13683389370701" lon="6.313339224459215"><ele>442.0</ele><time>2026-04-18T15:47:25Z</time></trkpt><trkpt lat="46.13667553412001" lon="6.3131562680200375"><ele>442.0</ele><time>2026-04-18T15:47:26Z</time></trkpt><trkpt lat="46.136520947428124" lon="6.312970038563599"><ele>442.0</ele><time>2026-04-18T15:47:27Z</time></trkpt><trkpt lat="46.13637055357263" lon="6.3127900584984245"><ele>442.0</ele><time>2026-04-18T15:47:28Z</time></trkpt><trkpt lat="46.136229555091255" lon="6.312627525929729"><ele>442.0</ele><time>2026-04-18T15:47:29Z</time></trkpt><trkpt lat="46.136096645417545" lon="6.312468056880018"><ele>442.0</ele><time>2026-04-18T15:47:30Z</time></trkpt><trkpt lat="46.1359702336021" lon="6.312320564832353"><ele>441.6666666666667</ele><time>2026-04-18T15:47:31Z</time></trkpt><trkpt lat="46.135842311401255" lon="6.312172752057659"><ele>441.33333333333337</ele><time>2026-04-18T15:47:32Z</time></trkpt><trkpt lat="46.135720918827865" lon="6.312042714994889"><ele>441.0</ele><time>2026-04-18T15:47:33Z</time></trkpt><trkpt lat="46.13558748373799" lon="6.311939591748939"><ele>440.0</ele><time>2026-04-18T15:47:34Z</time></trkpt><trkpt lat="46.13545173287301" lon="6.311869373230691"><ele>439.0</ele><time>2026-04-18T15:47:35Z</time></trkpt><trkpt lat="46.135306178684495" lon="6.311836279357142"><ele>438.0</ele><time>2026-04-18T15:47:36Z</time></trkpt><trkpt lat="46.135151321977055" lon="6.311846056460304"><ele>437.0</ele><time>2026-04-18T15:47:37Z</time></trkpt><trkpt lat="46.13498435704933" lon="6.311893860832921"><ele>434.3333333333333</ele><time>2026-04-18T15:47:38Z</time></trkpt><trkpt lat="46.134801394503064" lon="6.311988223722246"><ele>431.66666666666663</ele><time>2026-04-18T15:47:39Z</time></trkpt><trkpt lat="46.13460808918298" lon="6.312087190302041"><ele>429.0</ele><time>2026-04-18T15:47:40Z</time></trkpt><trkpt lat="46.13440123795576" lon="6.3121875602759365"><ele>430.0</ele><time>2026-04-18T15:47:41Z</time></trkpt><trkpt lat="46.13419110473453" lon="6.312284920440323"><ele>431.0</ele><time>2026-04-18T15:47:42Z</time></trkpt><trkpt lat="46.13398895508197" lon="6.312376722106637"><ele>432.0</ele><time>2026-04-18T15:47:43Z</time></trkpt><trkpt lat="46.13380391074134" lon="6.312462019218112"><ele>433.66666666666663</ele><time>2026-04-18T15:47:44Z</time></trkpt><trkpt lat="46.13362492833789" lon="6.312541552411835"><ele>435.3333333333333</ele><time>2026-04-18T15:47:45Z</time></trkpt><trkpt lat="46.13344289281778" lon="6.312620440019848"><ele>437.0</ele><time>2026-04-18T15:47:46Z</time></trkpt><trkpt lat="46.13325514672612" lon="6.312692728128614"><ele>439.0</ele><time>2026-04-18T15:47:47Z</time></trkpt><trkpt lat="46.133083858597864" lon="6.312733402183362"><ele>441.0</ele><time>2026-04-18T15:47:48Z</time></trkpt><trkpt lat="46.132919551870515" lon="6.312704451878855"><ele>443.0</ele><time>2026-04-18T15:47:49Z</time></trkpt><trkpt lat="46.13274908885844" lon="6.3126807228123045"><ele>443.0</ele><time>2026-04-18T15:47:50Z</time></trkpt><trkpt lat="46.13257837488465" lon="6.3126136554428305"><ele>443.0</ele><time>2026-04-18T15:47:51Z</time></trkpt><trkpt lat="46.13240251662263" lon="6.312578153909796"><ele>443.0</ele><time>2026-04-18T15:47:52Z</time></trkpt><trkpt lat="46.1322192264183" lon="6.312575745845049"><ele>444.0</ele><time>2026-04-18T15:47:53Z</time></trkpt><trkpt lat="46.13203105540014" lon="6.312596656422386"><ele>445.0</ele><time>2026-04-18T15:47:54Z</time></trkpt><trkpt lat="46.131838857853765" lon="6.3126324960813"><ele>446.0</ele><time>2026-04-18T15:47:55Z</time></trkpt><trkpt lat="46.13163728659783" lon="6.3126631038218495"><ele>445.66666666666663</ele><time>2026-04-18T15:47:56Z</time></trkpt><trkpt lat="46.13143292998599" lon="6.3126917596885415"><ele>445.33333333333337</ele><time>2026-04-18T15:47:57Z</time></trkpt><trkpt lat="46.131220076727736" lon="6.312724493882561"><ele>445.0</ele><time>2026-04-18T15:47:58Z</time></trkpt><trkpt lat="46.13100640935124" lon="6.312757959695716"><ele>445.0</ele><time>2026-04-18T15:47:59Z</time></trkpt><trkpt lat="46.13078933362692" lon="6.312793677972312"><ele>445.0</ele><time>2026-04-18T15:48:00Z</time></trkpt><trkpt lat="46.13056727402119" lon="6.312829667736104"><ele>445.0</ele><time>2026-04-18T15:48:01Z</time></trkpt><trkpt lat="46.13034352392292" lon="6.312867184912569"><ele>444.5</ele><time>2026-04-18T15:48:02Z</time></trkpt><trkpt lat="46.130115988754234" lon="6.312900711112083"><ele>444.0</ele><time>2026-04-18T15:48:03Z</time></trkpt><trkpt lat="46.129885273868915" lon="6.312935287990389"><ele>444.0</ele><time>2026-04-18T15:48:04Z</time></trkpt><trkpt lat="46.12965396980526" lon="6.3129725745145"><ele>444.0</ele><time>2026-04-18T15:48:05Z</time></trkpt><trkpt lat="46.12942447160299" lon="6.313012908725177"><ele>444.0</ele><time>2026-04-18T15:48:06Z</time></trkpt><trkpt lat="46.12920782089282" lon="6.313044933625013"><ele>444.0</ele><time>2026-04-18T15:48:07Z</time></trkpt><trkpt lat="46.12900485215411" lon="6.313070300935007"><ele>444.0</ele><time>2026-04-18T15:48:08Z</time></trkpt><trkpt lat="46.128813984402946" lon="6.31310131559896"><ele>444.0</ele><time>2026-04-18T15:48:09Z</time></trkpt><trkpt lat="46.128625470167464" lon="6.313129915759801"><ele>444.0</ele><time>2026-04-18T15:48:10Z</time></trkpt><trkpt lat="46.12843127327376" lon="6.313163549580098"><ele>444.0</ele><time>2026-04-18T15:48:11Z</time></trkpt><trkpt lat="46.12823007962111" lon="6.313196836348939"><ele>444.33333333333337</ele><time>2026-04-18T15:48:12Z</time></trkpt><trkpt lat="46.128030824677374" lon="6.3132253099488995"><ele>444.6666666666667</ele><time>2026-04-18T15:48:13Z</time></trkpt><trkpt lat="46.12783314947551" lon="6.313256391689455"><ele>445.0</ele><time>2026-04-18T15:48:14Z</time></trkpt><trkpt lat="46.1276401280491" lon="6.3132865459347505"><ele>445.0</ele><time>2026-04-18T15:48:15Z</time></trkpt><trkpt lat="46.12745954228195" lon="6.313311298719857"><ele>445.0</ele><time>2026-04-18T15:48:16Z</time></trkpt><trkpt lat="46.12728943804572" lon="6.313333544423223"><ele>445.0</ele><time>2026-04-18T15:48:17Z</time></trkpt><trkpt lat="46.12713078565969" lon="6.313356849499743"><ele>446.33333333333337</ele><time>2026-04-18T15:48:18Z</time></trkpt><trkpt lat="46.12696871740434" lon="6.313384010599434"><ele>447.66666666666663</ele><time>2026-04-18T15:48:19Z</time></trkpt><trkpt lat="46.126799146551846" lon="6.313413070759456"><ele>449.0</ele><time>2026-04-18T15:48:20Z</time></trkpt><trkpt lat="46.126625145158535" lon="6.313439895256531"><ele>451.3333333333333</ele><time>2026-04-18T15:48:21Z</time></trkpt><trkpt lat="46.12645433359167" lon="6.313464660670182"><ele>453.66666666666663</ele><time>2026-04-18T15:48:22Z</time></trkpt><trkpt lat="46.12629494547493" lon="6.313493435538848"><ele>456.0</ele><time>2026-04-18T15:48:23Z</time></trkpt><trkpt lat="46.126135869453954" lon="6.313520024225123"><ele>456.0</ele><time>2026-04-18T15:48:24Z</time></trkpt><trkpt lat="46.125974975551465" lon="6.313545007786293"><ele>456.0</ele><time>2026-04-18T15:48:25Z</time></trkpt><trkpt lat="46.125821918631075" lon="6.313566101539297"><ele>456.0</ele><time>2026-04-18T15:48:26Z</time></trkpt><trkpt lat="46.125675391981055" lon="6.3135904803010385"><ele>456.66666666666663</ele><time>2026-04-18T15:48:27Z</time></trkpt><trkpt lat="46.125520517769544" lon="6.31362206734198"><ele>457.3333333333333</ele><time>2026-04-18T15:48:28Z</time></trkpt><trkpt lat="46.12536129110023" lon="6.313640097848576"><ele>458.0</ele><time>2026-04-18T15:48:29Z</time></trkpt><trkpt lat="46.1251961978045" lon="6.313667702635572"><ele>458.0</ele><time>2026-04-18T15:48:30Z</time></trkpt><trkpt lat="46.12503802574482" lon="6.31369213083086"><ele>458.0</ele><time>2026-04-18T15:48:31Z</time></trkpt><trkpt lat="46.124892014651074" lon="6.313707056884413"><ele>458.0</ele><time>2026-04-18T15:48:32Z</time></trkpt><trkpt lat="46.12475735953369" lon="6.313717948405426"><ele>458.0</ele><time>2026-04-18T15:48:33Z</time></trkpt><trkpt lat="46.12462891179198" lon="6.313722931351152"><ele>458.5</ele><time>2026-04-18T15:48:34Z</time></trkpt><trkpt lat="46.12449143269455" lon="6.313725079593817"><ele>459.0</ele><time>2026-04-18T15:48:35Z</time></trkpt><trkpt lat="46.12434979702671" lon="6.313726006168868"><ele>459.5</ele><time>2026-04-18T15:48:36Z</time></trkpt><trkpt lat="46.12420654362244" lon="6.313721865832554"><ele>460.0</ele><time>2026-04-18T15:48:37Z</time></trkpt><trkpt lat="46.12405971410304" lon="6.313722512177199"><ele>460.25</ele><time>2026-04-18T15:48:38Z</time></trkpt><trkpt lat="46.123912901231826" lon="6.313718877585976"><ele>460.5</ele><time>2026-04-18T15:48:39Z</time></trkpt><trkpt lat="46.12376916452992" lon="6.313718723346253"><ele>460.75</ele><time>2026-04-18T15:48:40Z</time></trkpt><trkpt lat="46.12362610349713" lon="6.3137162430164455"><ele>461.0</ele><time>2026-04-18T15:48:41Z</time></trkpt><trkpt lat="46.12348245884068" lon="6.313715195181847"><ele>461.0</ele><time>2026-04-18T15:48:42Z</time></trkpt><trkpt lat="46.12334042259731" lon="6.313713772693139"><ele>461.0</ele><time>2026-04-18T15:48:43Z</time></trkpt><trkpt lat="46.123194065948454" lon="6.313708756843369"><ele>461.0</ele><time>2026-04-18T15:48:44Z</time></trkpt><trkpt lat="46.123049431645555" lon="6.313709307434186"><ele>461.0</ele><time>2026-04-18T15:48:45Z</time></trkpt><trkpt lat="46.12291014681522" lon="6.31371008709634"><ele>460.75</ele><time>2026-04-18T15:48:46Z</time></trkpt><trkpt lat="46.12277924735988" lon="6.313711794784661"><ele>460.5</ele><time>2026-04-18T15:48:47Z</time></trkpt><trkpt lat="46.12265219218946" lon="6.313710486851598"><ele>460.25</ele><time>2026-04-18T15:48:48Z</time></trkpt><trkpt lat="46.122528425160375" lon="6.3137096837112505"><ele>460.0</ele><time>2026-04-18T15:48:49Z</time></trkpt><trkpt lat="46.122408898476436" lon="6.31371036853319"><ele>460.0</ele><time>2026-04-18T15:48:50Z</time></trkpt><trkpt lat="46.12229322740718" lon="6.313708702852097"><ele>460.0</ele><time>2026-04-18T15:48:51Z</time></trkpt><trkpt lat="46.122178429278044" lon="6.313705915226297"><ele>460.0</ele><time>2026-04-18T15:48:52Z</time></trkpt><trkpt lat="46.12206185919293" lon="6.313707175564699"><ele>460.0</ele><time>2026-04-18T15:48:53Z</time></trkpt><trkpt lat="46.12194825715457" lon="6.313709708633706"><ele>460.00000000000006</ele><time>2026-04-18T15:48:54Z</time></trkpt><trkpt lat="46.12183579166396" lon="6.313713013771262"><ele>460.0</ele><time>2026-04-18T15:48:55Z</time></trkpt><trkpt lat="46.12171916416227" lon="6.313715788543296"><ele>460.0</ele><time>2026-04-18T15:48:56Z</time></trkpt><trkpt lat="46.1216519869252" lon="6.313672986076881"><ele>460.0</ele><time>2026-04-18T15:48:58Z</time></trkpt><trkpt lat="46.12158755477618" lon="6.313651404921994"><ele>460.00000000000006</ele><time>2026-04-18T15:49:00Z</time></trkpt><trkpt lat="46.121523496041135" lon="6.313581503230019"><ele>460.0</ele><time>2026-04-18T15:49:02Z</time></trkpt><trkpt lat="46.12140814185032" lon="6.313537727790099"><ele>460.0</ele><time>2026-04-18T15:49:04Z</time></trkpt><trkpt lat="46.12134515410498" lon="6.313579164432565"><ele>460.0</ele><time>2026-04-18T15:49:05Z</time></trkpt><trkpt lat="46.12127425877894" lon="6.313639971034048"><ele>460.0</ele><time>2026-04-18T15:49:06Z</time></trkpt><trkpt lat="46.121182766967145" lon="6.313689616001667"><ele>460.0</ele><time>2026-04-18T15:49:07Z</time></trkpt><trkpt lat="46.12106807617135" lon="6.313702357178123"><ele>460.0</ele><time>2026-04-18T15:49:08Z</time></trkpt><trkpt lat="46.12093678373216" lon="6.313694666826964"><ele>460.0</ele><time>2026-04-18T15:49:09Z</time></trkpt><trkpt lat="46.12078632106472" lon="6.313686488200791"><ele>460.0</ele><time>2026-04-18T15:49:10Z</time></trkpt><trkpt lat="46.120618822619846" lon="6.313687764042576"><ele>460.0</ele><time>2026-04-18T15:49:11Z</time></trkpt><trkpt lat="46.120465286010145" lon="6.313691651810552"><ele>460.33333333333337</ele><time>2026-04-18T15:49:12Z</time></trkpt><trkpt lat="46.12030460182446" lon="6.3136850620809115"><ele>460.66666666666663</ele><time>2026-04-18T15:49:13Z</time></trkpt><trkpt lat="46.12012588173557" lon="6.313682845235108"><ele>461.0</ele><time>2026-04-18T15:49:14Z</time></trkpt><trkpt lat="46.1199434886025" lon="6.313680434118028"><ele>461.66666666666663</ele><time>2026-04-18T15:49:15Z</time></trkpt><trkpt lat="46.11975508740282" lon="6.313675635737079"><ele>462.33333333333337</ele><time>2026-04-18T15:49:16Z</time></trkpt><trkpt lat="46.11956619870894" lon="6.313672109933949"><ele>463.0</ele><time>2026-04-18T15:49:17Z</time></trkpt><trkpt lat="46.119373094112994" lon="6.313673059123725"><ele>463.0</ele><time>2026-04-18T15:49:18Z</time></trkpt><trkpt lat="46.11916817760731" lon="6.313670592741048"><ele>463.0</ele><time>2026-04-18T15:49:19Z</time></trkpt><trkpt lat="46.11896330562858" lon="6.313666303449068"><ele>463.0</ele><time>2026-04-18T15:49:20Z</time></trkpt><trkpt lat="46.11876156457547" lon="6.313668365366713"><ele>463.0</ele><time>2026-04-18T15:49:21Z</time></trkpt><trkpt lat="46.11857331499066" lon="6.313665274040169"><ele>463.0</ele><time>2026-04-18T15:49:22Z</time></trkpt><trkpt lat="46.118397918984265" lon="6.313665913803326"><ele>463.0</ele><time>2026-04-18T15:49:23Z</time></trkpt><trkpt lat="46.11822903225731" lon="6.313666144335989"><ele>462.6666666666667</ele><time>2026-04-18T15:49:24Z</time></trkpt><trkpt lat="46.11807136198288" lon="6.3136644309169565"><ele>462.33333333333337</ele><time>2026-04-18T15:49:25Z</time></trkpt><trkpt lat="46.117925248852146" lon="6.313660129465235"><ele>462.0</ele><time>2026-04-18T15:49:26Z</time></trkpt><trkpt lat="46.117775487563314" lon="6.31366136813675"><ele>462.0</ele><time>2026-04-18T15:49:27Z</time></trkpt><trkpt lat="46.11763181668166" lon="6.3136598804678465"><ele>462.0</ele><time>2026-04-18T15:49:28Z</time></trkpt><trkpt lat="46.11749211246768" lon="6.313657802455748"><ele>462.0</ele><time>2026-04-18T15:49:29Z</time></trkpt><trkpt lat="46.11734987381182" lon="6.313656518780073"><ele>462.0</ele><time>2026-04-18T15:49:30Z</time></trkpt><trkpt lat="46.117211713842494" lon="6.313651877717573"><ele>462.33333333333337</ele><time>2026-04-18T15:49:31Z</time></trkpt><trkpt lat="46.11706652030145" lon="6.31365108027496"><ele>462.6666666666667</ele><time>2026-04-18T15:49:32Z</time></trkpt><trkpt lat="46.11691381568535" lon="6.313654784580661"><ele>463.0</ele><time>2026-04-18T15:49:33Z</time></trkpt><trkpt lat="46.11675902447363" lon="6.3136591765165555"><ele>463.0</ele><time>2026-04-18T15:49:34Z</time></trkpt><trkpt lat="46.11659817142944" lon="6.313658829898482"><ele>463.0</ele><time>2026-04-18T15:49:35Z</time></trkpt><trkpt lat="46.1164358285591" lon="6.3136608352611825"><ele>463.0</ele><time>2026-04-18T15:49:36Z</time></trkpt><trkpt lat="46.11627274983098" lon="6.313662552847201"><ele>464.0</ele><time>2026-04-18T15:49:37Z</time></trkpt><trkpt lat="46.116109479699865" lon="6.313663100339124"><ele>465.0</ele><time>2026-04-18T15:49:38Z</time></trkpt><trkpt lat="46.11594535508124" lon="6.31365916107335"><ele>466.0</ele><time>2026-04-18T15:49:39Z</time></trkpt><trkpt lat="46.11578078985103" lon="6.313656250559901"><ele>467.6666666666667</ele><time>2026-04-18T15:49:40Z</time></trkpt><trkpt lat="46.115617438377086" lon="6.313655746583105"><ele>469.33333333333337</ele><time>2026-04-18T15:49:41Z</time></trkpt><trkpt lat="46.11545708752653" lon="6.313654742075052"><ele>471.0</ele><time>2026-04-18T15:49:42Z</time></trkpt><trkpt lat="46.11530273866793" lon="6.313654508387991"><ele>471.0</ele><time>2026-04-18T15:49:43Z</time></trkpt><trkpt lat="46.11514157394766" lon="6.31365432916893"><ele>471.0</ele><time>2026-04-18T15:49:44Z</time></trkpt><trkpt lat="46.11499255929398" lon="6.313656435670955"><ele>471.0</ele><time>2026-04-18T15:49:45Z</time></trkpt><trkpt lat="46.114845994994994" lon="6.313654498071672"><ele>471.25</ele><time>2026-04-18T15:49:46Z</time></trkpt><trkpt lat="46.11470453064779" lon="6.3136571220553135"><ele>471.5</ele><time>2026-04-18T15:49:47Z</time></trkpt><trkpt lat="46.11456198771324" lon="6.313655291122929"><ele>471.75</ele><time>2026-04-18T15:49:48Z</time></trkpt><trkpt lat="46.11441621540551" lon="6.3136619276666215"><ele>472.0</ele><time>2026-04-18T15:49:49Z</time></trkpt><trkpt lat="46.114265298755534" lon="6.31366413416234"><ele>472.0</ele><time>2026-04-18T15:49:50Z</time></trkpt><trkpt lat="46.11410823275022" lon="6.313659855612719"><ele>472.0</ele><time>2026-04-18T15:49:51Z</time></trkpt><trkpt lat="46.1139435510369" lon="6.313657573314687"><ele>472.0</ele><time>2026-04-18T15:49:52Z</time></trkpt><trkpt lat="46.113772700456735" lon="6.3136544207991205"><ele>471.0</ele><time>2026-04-18T15:49:53Z</time></trkpt><trkpt lat="46.11359887242437" lon="6.313650033301692"><ele>470.0</ele><time>2026-04-18T15:49:54Z</time></trkpt><trkpt lat="46.11341969674451" lon="6.313647261553215"><ele>469.0</ele><time>2026-04-18T15:49:55Z</time></trkpt><trkpt lat="46.113246548658054" lon="6.313642969957957"><ele>469.6666666666667</ele><time>2026-04-18T15:49:56Z</time></trkpt><trkpt lat="46.11306949177865" lon="6.313637268847859"><ele>470.33333333333337</ele><time>2026-04-18T15:49:57Z</time></trkpt><trkpt lat="46.11288382250195" lon="6.313636892184915"><ele>471.0</ele><time>2026-04-18T15:49:58Z</time></trkpt><trkpt lat="46.11269185372359" lon="6.313635621057135"><ele>471.0</ele><time>2026-04-18T15:49:59Z</time></trkpt><trkpt lat="46.112490572565484" lon="6.3136347394210945"><ele>471.0</ele><time>2026-04-18T15:50:00Z</time></trkpt><trkpt lat="46.112285319719" lon="6.313635731686126"><ele>471.0</ele><time>2026-04-18T15:50:01Z</time></trkpt><trkpt lat="46.11207521225711" lon="6.313637069450786"><ele>471.33333333333337</ele><time>2026-04-18T15:50:02Z</time></trkpt><trkpt lat="46.11186519319405" lon="6.313634509925791"><ele>471.6666666666667</ele><time>2026-04-18T15:50:03Z</time></trkpt><trkpt lat="46.11166065948217" lon="6.313632915150898"><ele>472.0</ele><time>2026-04-18T15:50:04Z</time></trkpt><trkpt lat="46.111457673202466" lon="6.31363079558497"><ele>472.0</ele><time>2026-04-18T15:50:05Z</time></trkpt><trkpt lat="46.11126153713595" lon="6.313630484692604"><ele>472.0</ele><time>2026-04-18T15:50:06Z</time></trkpt><trkpt lat="46.111063527328255" lon="6.313632011303864"><ele>472.0</ele><time>2026-04-18T15:50:07Z</time></trkpt><trkpt lat="46.11086933012377" lon="6.31363508915491"><ele>471.6666666666667</ele><time>2026-04-18T15:50:08Z</time></trkpt><trkpt lat="46.11067372235633" lon="6.3136341325274135"><ele>471.33333333333337</ele><time>2026-04-18T15:50:09Z</time></trkpt><trkpt lat="46.11047700296375" lon="6.313633235483506"><ele>471.0</ele><time>2026-04-18T15:50:10Z</time></trkpt><trkpt lat="46.11027544860662" lon="6.313631904659618"><ele>471.0</ele><time>2026-04-18T15:50:11Z</time></trkpt><trkpt lat="46.11007029858465" lon="6.313632477068956"><ele>471.0</ele><time>2026-04-18T15:50:12Z</time></trkpt><trkpt lat="46.109866506027814" lon="6.313638299802043"><ele>471.0</ele><time>2026-04-18T15:50:13Z</time></trkpt><trkpt lat="46.10965776692281" lon="6.313639565454009"><ele>471.0</ele><time>2026-04-18T15:50:14Z</time></trkpt><trkpt lat="46.109450358733035" lon="6.313637402926474"><ele>471.0</ele><time>2026-04-18T15:50:15Z</time></trkpt><trkpt lat="46.10924576184163" lon="6.31363813957036"><ele>471.0</ele><time>2026-04-18T15:50:16Z</time></trkpt><trkpt lat="46.10905769447107" lon="6.313639640998611"><ele>471.0</ele><time>2026-04-18T15:50:17Z</time></trkpt><trkpt lat="46.1088853577069" lon="6.313641251742454"><ele>471.0</ele><time>2026-04-18T15:50:18Z</time></trkpt><trkpt lat="46.10872168532805" lon="6.313643658155323"><ele>471.0</ele><time>2026-04-18T15:50:19Z</time></trkpt><trkpt lat="46.10856449749559" lon="6.313643693925116"><ele>471.0</ele><time>2026-04-18T15:50:20Z</time></trkpt><trkpt lat="46.1084123821787" lon="6.313646259943717"><ele>471.0</ele><time>2026-04-18T15:50:21Z</time></trkpt><trkpt lat="46.108253233268066" lon="6.313645691677527"><ele>471.0</ele><time>2026-04-18T15:50:22Z</time></trkpt><trkpt lat="46.108095961846665" lon="6.313649869560989"><ele>470.33333333333337</ele><time>2026-04-18T15:50:23Z</time></trkpt><trkpt lat="46.1079455251616" lon="6.313649501974498"><ele>469.6666666666667</ele><time>2026-04-18T15:50:24Z</time></trkpt><trkpt lat="46.10778506600627" lon="6.313653004962508"><ele>469.0</ele><time>2026-04-18T15:50:25Z</time></trkpt><trkpt lat="46.10761364806653" lon="6.3136506727110735"><ele>469.0</ele><time>2026-04-18T15:50:26Z</time></trkpt><trkpt lat="46.10743501759843" lon="6.313649713211395"><ele>469.0</ele><time>2026-04-18T15:50:27Z</time></trkpt><trkpt lat="46.107247815371295" lon="6.313646593903515"><ele>469.0</ele><time>2026-04-18T15:50:28Z</time></trkpt><trkpt lat="46.10705794886234" lon="6.31364809169878"><ele>469.33333333333337</ele><time>2026-04-18T15:50:29Z</time></trkpt><trkpt lat="46.10686576870255" lon="6.313647430142498"><ele>469.66666666666663</ele><time>2026-04-18T15:50:30Z</time></trkpt><trkpt lat="46.10667346155305" lon="6.313645444512078"><ele>470.0</ele><time>2026-04-18T15:50:31Z</time></trkpt><trkpt lat="46.10647966101131" lon="6.313644315362326"><ele>470.66666666666663</ele><time>2026-04-18T15:50:32Z</time></trkpt><trkpt lat="46.10629787142375" lon="6.313642943964"><ele>471.33333333333337</ele><time>2026-04-18T15:50:33Z</time></trkpt><trkpt lat="46.10613030976138" lon="6.313641549718327"><ele>472.0</ele><time>2026-04-18T15:50:34Z</time></trkpt><trkpt lat="46.10597020350518" lon="6.313646090323958"><ele>472.0</ele><time>2026-04-18T15:50:35Z</time></trkpt><trkpt lat="46.1058191114832" lon="6.313646788432831"><ele>472.0</ele><time>2026-04-18T15:50:36Z</time></trkpt><trkpt lat="46.105675486692306" lon="6.313648628588962"><ele>472.0</ele><time>2026-04-18T15:50:37Z</time></trkpt><trkpt lat="46.10553228055129" lon="6.313642172240434"><ele>472.0</ele><time>2026-04-18T15:50:38Z</time></trkpt><trkpt lat="46.10539331478992" lon="6.313642172241027"><ele>472.0</ele><time>2026-04-18T15:50:39Z</time></trkpt><trkpt lat="46.10525760574974" lon="6.3136421722405025"><ele>472.0</ele><time>2026-04-18T15:50:40Z</time></trkpt><trkpt lat="46.105110259365546" lon="6.313642172241283"><ele>472.0</ele><time>2026-04-18T15:50:41Z</time></trkpt><trkpt lat="46.10496674503528" lon="6.3136568258362615"><ele>472.0</ele><time>2026-04-18T15:50:42Z</time></trkpt><trkpt lat="46.10482478055858" lon="6.31364436933065"><ele>472.0</ele><time>2026-04-18T15:50:43Z</time></trkpt><trkpt lat="46.10468565562378" lon="6.313646059249083"><ele>472.0</ele><time>2026-04-18T15:50:44Z</time></trkpt><trkpt lat="46.104541784949035" lon="6.313649980199829"><ele>472.0</ele><time>2026-04-18T15:50:45Z</time></trkpt><trkpt lat="46.10439810086506" lon="6.313652304132812"><ele>472.0</ele><time>2026-04-18T15:50:46Z</time></trkpt><trkpt lat="46.1042493877672" lon="6.313655055499636"><ele>472.0</ele><time>2026-04-18T15:50:47Z</time></trkpt><trkpt lat="46.104092222189486" lon="6.313656819458198"><ele>472.0</ele><time>2026-04-18T15:50:48Z</time></trkpt><trkpt lat="46.10392806861842" lon="6.313653839931122"><ele>472.0</ele><time>2026-04-18T15:50:49Z</time></trkpt><trkpt lat="46.10375864138631" lon="6.313655591855077"><ele>472.0</ele><time>2026-04-18T15:50:50Z</time></trkpt><trkpt lat="46.10359010637071" lon="6.313653117112131"><ele>472.0</ele><time>2026-04-18T15:50:51Z</time></trkpt><trkpt lat="46.10341058130918" lon="6.313652411815532"><ele>472.0</ele><time>2026-04-18T15:50:52Z</time></trkpt><trkpt lat="46.10322291792006" lon="6.313655877774853"><ele>472.0</ele><time>2026-04-18T15:50:53Z</time></trkpt><trkpt lat="46.103029480662144" lon="6.313653159992743"><ele>472.0</ele><time>2026-04-18T15:50:54Z</time></trkpt><trkpt lat="46.102831469077685" lon="6.313654816960033"><ele>472.0</ele><time>2026-04-18T15:50:55Z</time></trkpt><trkpt lat="46.10264531041396" lon="6.313652137839958"><ele>472.0</ele><time>2026-04-18T15:50:56Z</time></trkpt><trkpt lat="46.102467962616466" lon="6.313650663039437"><ele>472.0</ele><time>2026-04-18T15:50:57Z</time></trkpt><trkpt lat="46.10229818045405" lon="6.313650586578361"><ele>472.0</ele><time>2026-04-18T15:50:58Z</time></trkpt><trkpt lat="46.10212327040901" lon="6.313649725698583"><ele>472.0</ele><time>2026-04-18T15:50:59Z</time></trkpt><trkpt lat="46.10194527970439" lon="6.313648341248491"><ele>472.0</ele><time>2026-04-18T15:51:00Z</time></trkpt><trkpt lat="46.10176154531533" lon="6.313649500893024"><ele>472.0</ele><time>2026-04-18T15:51:01Z</time></trkpt><trkpt lat="46.10156800902883" lon="6.313649333570299"><ele>472.0</ele><time>2026-04-18T15:51:02Z</time></trkpt><trkpt lat="46.10136768557257" lon="6.313646846183563"><ele>472.0</ele><time>2026-04-18T15:51:03Z</time></trkpt><trkpt lat="46.10115915899694" lon="6.313645651958784"><ele>472.0</ele><time>2026-04-18T15:51:04Z</time></trkpt><trkpt lat="46.100945793238964" lon="6.313645253406353"><ele>472.0</ele><time>2026-04-18T15:51:05Z</time></trkpt><trkpt lat="46.1007286352403" lon="6.313648329815789"><ele>472.0</ele><time>2026-04-18T15:51:06Z</time></trkpt><trkpt lat="46.10050697077099" lon="6.313654471901328"><ele>472.0</ele><time>2026-04-18T15:51:07Z</time></trkpt><trkpt lat="46.100285080925765" lon="6.3136559100198255"><ele>472.0</ele><time>2026-04-18T15:51:08Z</time></trkpt><trkpt lat="46.100066034268856" lon="6.313654879833463"><ele>472.0</ele><time>2026-04-18T15:51:09Z</time></trkpt><trkpt lat="46.099863924325426" lon="6.313655359707111"><ele>472.0</ele><time>2026-04-18T15:51:10Z</time></trkpt><trkpt lat="46.09966943935117" lon="6.313653440286521"><ele>472.0</ele><time>2026-04-18T15:51:11Z</time></trkpt><trkpt lat="46.09947515154144" lon="6.313650883591593"><ele>472.0</ele><time>2026-04-18T15:51:12Z</time></trkpt><trkpt lat="46.09927414141262" lon="6.31365187860283"><ele>472.0</ele><time>2026-04-18T15:51:13Z</time></trkpt><trkpt lat="46.09907514899323" lon="6.313648972091766"><ele>471.33333333333337</ele><time>2026-04-18T15:51:14Z</time></trkpt><trkpt lat="46.09886947455974" lon="6.313657920238622"><ele>470.66666666666663</ele><time>2026-04-18T15:51:15Z</time></trkpt><trkpt lat="46.098662553765855" lon="6.313652855816479"><ele>470.0</ele><time>2026-04-18T15:51:16Z</time></trkpt><trkpt lat="46.09845113492058" lon="6.313654735347988"><ele>470.5</ele><time>2026-04-18T15:51:17Z</time></trkpt><trkpt lat="46.09822575835267" lon="6.3136529994435415"><ele>471.0</ele><time>2026-04-18T15:51:18Z</time></trkpt><trkpt lat="46.09798897886327" lon="6.313656325681957"><ele>471.0</ele><time>2026-04-18T15:51:19Z</time></trkpt><trkpt lat="46.09776795946345" lon="6.313658955134883"><ele>471.0</ele><time>2026-04-18T15:51:20Z</time></trkpt><trkpt lat="46.09754524385663" lon="6.313658341973124"><ele>471.0</ele><time>2026-04-18T15:51:21Z</time></trkpt><trkpt lat="46.097326318998235" lon="6.313656262603543"><ele>471.33333333333337</ele><time>2026-04-18T15:51:22Z</time></trkpt><trkpt lat="46.09711495045656" lon="6.313652011117791"><ele>471.6666666666667</ele><time>2026-04-18T15:51:23Z</time></trkpt><trkpt lat="46.09691781569083" lon="6.313652089566908"><ele>472.0</ele><time>2026-04-18T15:51:24Z</time></trkpt><trkpt lat="46.09672877101683" lon="6.313650233299164"><ele>472.0</ele><time>2026-04-18T15:51:25Z</time></trkpt><trkpt lat="46.09654232180362" lon="6.31364487896281"><ele>472.0</ele><time>2026-04-18T15:51:26Z</time></trkpt><trkpt lat="46.096349794815566" lon="6.313644641160179"><ele>472.0</ele><time>2026-04-18T15:51:27Z</time></trkpt><trkpt lat="46.09615547942629" lon="6.313647356502098"><ele>472.0</ele><time>2026-04-18T15:51:28Z</time></trkpt><trkpt lat="46.09595857581446" lon="6.313648879514863"><ele>472.0</ele><time>2026-04-18T15:51:29Z</time></trkpt><trkpt lat="46.09576151921832" lon="6.313650889559874"><ele>472.0</ele><time>2026-04-18T15:51:30Z</time></trkpt><trkpt lat="46.095562716211504" lon="6.313649550268333"><ele>473.0</ele><time>2026-04-18T15:51:31Z</time></trkpt><trkpt lat="46.095359195702635" lon="6.313650440620259"><ele>474.0</ele><time>2026-04-18T15:51:32Z</time></trkpt><trkpt lat="46.095159267717" lon="6.3136493319374685"><ele>475.0</ele><time>2026-04-18T15:51:33Z</time></trkpt><trkpt lat="46.09495481033218" lon="6.31364758598697"><ele>474.6666666666667</ele><time>2026-04-18T15:51:34Z</time></trkpt><trkpt lat="46.09475011223789" lon="6.313644442026773"><ele>474.33333333333337</ele><time>2026-04-18T15:51:35Z</time></trkpt><trkpt lat="46.094541127693404" lon="6.31364781996232"><ele>474.0</ele><time>2026-04-18T15:51:36Z</time></trkpt><trkpt lat="46.09433369102848" lon="6.313646497212779"><ele>474.0</ele><time>2026-04-18T15:51:37Z</time></trkpt><trkpt lat="46.09412918416339" lon="6.313645786667861"><ele>474.0</ele><time>2026-04-18T15:51:38Z</time></trkpt><trkpt lat="46.0939280655006" lon="6.313647983059441"><ele>474.0</ele><time>2026-04-18T15:51:39Z</time></trkpt><trkpt lat="46.09373464395494" lon="6.313649503541013"><ele>474.0</ele><time>2026-04-18T15:51:40Z</time></trkpt><trkpt lat="46.09355201362477" lon="6.313646109759415"><ele>474.0</ele><time>2026-04-18T15:51:41Z</time></trkpt><trkpt lat="46.09336942697665" lon="6.313647469121097"><ele>474.0</ele><time>2026-04-18T15:51:42Z</time></trkpt><trkpt lat="46.09318304798274" lon="6.3136493217390735"><ele>474.0</ele><time>2026-04-18T15:51:43Z</time></trkpt><trkpt lat="46.092994662385046" lon="6.3136534933302215"><ele>474.0</ele><time>2026-04-18T15:51:44Z</time></trkpt><trkpt lat="46.09281318290736" lon="6.313652225737327"><ele>474.0</ele><time>2026-04-18T15:51:45Z</time></trkpt><trkpt lat="46.09264346075236" lon="6.3136478758381855"><ele>474.0</ele><time>2026-04-18T15:51:46Z</time></trkpt><trkpt lat="46.09247637035457" lon="6.313644363445263"><ele>474.0</ele><time>2026-04-18T15:51:47Z</time></trkpt><trkpt lat="46.092318635837685" lon="6.313645963124334"><ele>474.0</ele><time>2026-04-18T15:51:48Z</time></trkpt><trkpt lat="46.09216436973689" lon="6.313644522398633"><ele>474.0</ele><time>2026-04-18T15:51:49Z</time></trkpt><trkpt lat="46.09200467711822" lon="6.313641806505598"><ele>474.0</ele><time>2026-04-18T15:51:50Z</time></trkpt><trkpt lat="46.09182471635222" lon="6.313634641663841"><ele>474.0</ele><time>2026-04-18T15:51:51Z</time></trkpt><trkpt lat="46.09163708644678" lon="6.313624508888669"><ele>474.0</ele><time>2026-04-18T15:51:52Z</time></trkpt><trkpt lat="46.091443242645724" lon="6.313604694418429"><ele>474.0</ele><time>2026-04-18T15:51:53Z</time></trkpt><trkpt lat="46.09125080409617" lon="6.31356994557549"><ele>474.0</ele><time>2026-04-18T15:51:54Z</time></trkpt><trkpt lat="46.09105608600124" lon="6.313532590000003"><ele>474.0</ele><time>2026-04-18T15:51:55Z</time></trkpt><trkpt lat="46.09086734792604" lon="6.313499073522444"><ele>474.0</ele><time>2026-04-18T15:51:56Z</time></trkpt><trkpt lat="46.09067963122365" lon="6.3134676397766585"><ele>474.0</ele><time>2026-04-18T15:51:57Z</time></trkpt><trkpt lat="46.09047982429386" lon="6.313440754326804"><ele>474.0</ele><time>2026-04-18T15:51:58Z</time></trkpt><trkpt lat="46.09026456515294" lon="6.3134130659154195"><ele>474.0</ele><time>2026-04-18T15:51:59Z</time></trkpt><trkpt lat="46.090047050299596" lon="6.313376922340034"><ele>474.0</ele><time>2026-04-18T15:52:00Z</time></trkpt><trkpt lat="46.08983263768773" lon="6.313339801765154"><ele>474.66666666666663</ele><time>2026-04-18T15:52:01Z</time></trkpt><trkpt lat="46.089636345722276" lon="6.313308632748794"><ele>475.3333333333333</ele><time>2026-04-18T15:52:02Z</time></trkpt><trkpt lat="46.08945171946523" lon="6.313283810646932"><ele>476.0</ele><time>2026-04-18T15:52:03Z</time></trkpt><trkpt lat="46.08927421254167" lon="6.313257282907807"><ele>476.0</ele><time>2026-04-18T15:52:04Z</time></trkpt><trkpt lat="46.08910917546057" lon="6.313229924727269"><ele>476.0</ele><time>2026-04-18T15:52:05Z</time></trkpt><trkpt lat="46.088946156427504" lon="6.313199043763787"><ele>476.0</ele><time>2026-04-18T15:52:06Z</time></trkpt><trkpt lat="46.08879459333476" lon="6.313174901752687"><ele>475.66666666666663</ele><time>2026-04-18T15:52:07Z</time></trkpt><trkpt lat="46.088641112551514" lon="6.313147306487337"><ele>475.33333333333337</ele><time>2026-04-18T15:52:08Z</time></trkpt><trkpt lat="46.08848816244315" lon="6.313118977274863"><ele>475.0</ele><time>2026-04-18T15:52:09Z</time></trkpt><trkpt lat="46.08832516848516" lon="6.31308926901001"><ele>476.6666666666667</ele><time>2026-04-18T15:52:10Z</time></trkpt><trkpt lat="46.08815993867247" lon="6.313062162219096"><ele>478.33333333333337</ele><time>2026-04-18T15:52:11Z</time></trkpt><trkpt lat="46.08799327386764" lon="6.313037267669381"><ele>480.0</ele><time>2026-04-18T15:52:12Z</time></trkpt><trkpt lat="46.08783024578783" lon="6.313005174944083"><ele>480.0</ele><time>2026-04-18T15:52:13Z</time></trkpt><trkpt lat="46.087674249750116" lon="6.312966479564385"><ele>480.0</ele><time>2026-04-18T15:52:14Z</time></trkpt><trkpt lat="46.0875176498496" lon="6.312932868238076"><ele>480.0</ele><time>2026-04-18T15:52:15Z</time></trkpt><trkpt lat="46.08736469361773" lon="6.312905119333205"><ele>480.66666666666663</ele><time>2026-04-18T15:52:16Z</time></trkpt><trkpt lat="46.08720668405496" lon="6.312874329490675"><ele>481.3333333333333</ele><time>2026-04-18T15:52:17Z</time></trkpt><trkpt lat="46.08704631372627" lon="6.312852855938717"><ele>482.0</ele><time>2026-04-18T15:52:18Z</time></trkpt><trkpt lat="46.08688132904543" lon="6.312834772994697"><ele>482.0</ele><time>2026-04-18T15:52:19Z</time></trkpt><trkpt lat="46.08671372461295" lon="6.3128266017640895"><ele>482.0</ele><time>2026-04-18T15:52:20Z</time></trkpt><trkpt lat="46.08653958585311" lon="6.312822105574029"><ele>482.0</ele><time>2026-04-18T15:52:21Z</time></trkpt><trkpt lat="46.08636604230465" lon="6.312837634605407"><ele>482.66666666666663</ele><time>2026-04-18T15:52:22Z</time></trkpt><trkpt lat="46.086185502126874" lon="6.312854744651326"><ele>483.33333333333337</ele><time>2026-04-18T15:52:23Z</time></trkpt><trkpt lat="46.086000934125" lon="6.3128679993575"><ele>484.0</ele><time>2026-04-18T15:52:24Z</time></trkpt><trkpt lat="46.08580865437048" lon="6.3128761252478425"><ele>484.0</ele><time>2026-04-18T15:52:25Z</time></trkpt><trkpt lat="46.08561854274476" lon="6.312886476670522"><ele>484.0</ele><time>2026-04-18T15:52:26Z</time></trkpt><trkpt lat="46.085422122963614" lon="6.312899873690134"><ele>484.0</ele><time>2026-04-18T15:52:27Z</time></trkpt><trkpt lat="46.0852259635427" lon="6.312913089248451"><ele>484.0</ele><time>2026-04-18T15:52:28Z</time></trkpt><trkpt lat="46.08502794787038" lon="6.312923076733955"><ele>484.0</ele><time>2026-04-18T15:52:29Z</time></trkpt><trkpt lat="46.08483088919225" lon="6.312933671447272"><ele>484.0</ele><time>2026-04-18T15:52:30Z</time></trkpt><trkpt lat="46.08464529006212" lon="6.312942073770304"><ele>484.33333333333337</ele><time>2026-04-18T15:52:31Z</time></trkpt><trkpt lat="46.08446804495429" lon="6.31294586660124"><ele>484.66666666666663</ele><time>2026-04-18T15:52:32Z</time></trkpt><trkpt lat="46.08429849056888" lon="6.312952314590158"><ele>485.0</ele><time>2026-04-18T15:52:33Z</time></trkpt><trkpt lat="46.0841381239306" lon="6.312954494085423"><ele>486.0</ele><time>2026-04-18T15:52:34Z</time></trkpt><trkpt lat="46.08398129841965" lon="6.312953518498565"><ele>487.0</ele><time>2026-04-18T15:52:35Z</time></trkpt><trkpt lat="46.083833105512554" lon="6.312955052803468"><ele>488.0</ele><time>2026-04-18T15:52:36Z</time></trkpt><trkpt lat="46.08367337437348" lon="6.31295422286327"><ele>488.0</ele><time>2026-04-18T15:52:37Z</time></trkpt><trkpt lat="46.08351055051708" lon="6.312953405050441"><ele>488.0</ele><time>2026-04-18T15:52:38Z</time></trkpt><trkpt lat="46.083339310523975" lon="6.312957206659325"><ele>488.0</ele><time>2026-04-18T15:52:39Z</time></trkpt><trkpt lat="46.0831655654382" lon="6.312969261345205"><ele>487.66666666666663</ele><time>2026-04-18T15:52:40Z</time></trkpt><trkpt lat="46.0829707304893" lon="6.312975708941898"><ele>487.33333333333337</ele><time>2026-04-18T15:52:41Z</time></trkpt><trkpt lat="46.082780125779536" lon="6.312982276882741"><ele>487.0</ele><time>2026-04-18T15:52:42Z</time></trkpt><trkpt lat="46.08258642288494" lon="6.312985453986903"><ele>488.0</ele><time>2026-04-18T15:52:43Z</time></trkpt><trkpt lat="46.082385473867774" lon="6.31298899490971"><ele>489.0</ele><time>2026-04-18T15:52:44Z</time></trkpt><trkpt lat="46.08219057166833" lon="6.312994596848509"><ele>490.0</ele><time>2026-04-18T15:52:45Z</time></trkpt><trkpt lat="46.082003696712846" lon="6.3129981669058095"><ele>490.0</ele><time>2026-04-18T15:52:46Z</time></trkpt><trkpt lat="46.081825247821776" lon="6.313006336154573"><ele>490.0</ele><time>2026-04-18T15:52:47Z</time></trkpt><trkpt lat="46.081648632496425" lon="6.3130050646640115"><ele>490.0</ele><time>2026-04-18T15:52:48Z</time></trkpt><trkpt lat="46.0814632051708" lon="6.31301405319719"><ele>491.0</ele><time>2026-04-18T15:52:49Z</time></trkpt><trkpt lat="46.08126949951504" lon="6.313021173339901"><ele>492.0</ele><time>2026-04-18T15:52:50Z</time></trkpt><trkpt lat="46.08107518247044" lon="6.313022503984225"><ele>493.0</ele><time>2026-04-18T15:52:51Z</time></trkpt><trkpt lat="46.080899980600734" lon="6.3130230671401195"><ele>494.33333333333337</ele><time>2026-04-18T15:52:52Z</time></trkpt><trkpt lat="46.08073911504929" lon="6.313026076124635"><ele>495.66666666666663</ele><time>2026-04-18T15:52:53Z</time></trkpt><trkpt lat="46.08058159845717" lon="6.3130328407679785"><ele>497.0</ele><time>2026-04-18T15:52:54Z</time></trkpt><trkpt lat="46.08041576788444" lon="6.313035851991666"><ele>497.0</ele><time>2026-04-18T15:52:55Z</time></trkpt><trkpt lat="46.08024649352808" lon="6.3130415748628135"><ele>497.0</ele><time>2026-04-18T15:52:56Z</time></trkpt><trkpt lat="46.08007621139278" lon="6.313044617239199"><ele>497.0</ele><time>2026-04-18T15:52:57Z</time></trkpt><trkpt lat="46.079906058446866" lon="6.3130512657648525"><ele>498.3333333333333</ele><time>2026-04-18T15:52:58Z</time></trkpt><trkpt lat="46.07973577529027" lon="6.313055911582407"><ele>499.66666666666663</ele><time>2026-04-18T15:52:59Z</time></trkpt><trkpt lat="46.07956106918135" lon="6.313057794849728"><ele>501.0</ele><time>2026-04-18T15:53:00Z</time></trkpt><trkpt lat="46.079387202350674" lon="6.313062234467456"><ele>501.0</ele><time>2026-04-18T15:53:01Z</time></trkpt><trkpt lat="46.07921622122399" lon="6.313068553881429"><ele>501.0</ele><time>2026-04-18T15:53:02Z</time></trkpt><trkpt lat="46.07903673706881" lon="6.313072607177466"><ele>501.0</ele><time>2026-04-18T15:53:03Z</time></trkpt><trkpt lat="46.078847366685565" lon="6.313077703343133"><ele>500.66666666666663</ele><time>2026-04-18T15:53:04Z</time></trkpt><trkpt lat="46.07864111104419" lon="6.313085242534733"><ele>500.3333333333333</ele><time>2026-04-18T15:53:05Z</time></trkpt><trkpt lat="46.07843829936098" lon="6.3130891140585526"><ele>500.0</ele><time>2026-04-18T15:53:06Z</time></trkpt><trkpt lat="46.078241356771514" lon="6.313091840109438"><ele>501.66666666666663</ele><time>2026-04-18T15:53:07Z</time></trkpt><trkpt lat="46.07805803181845" lon="6.313092985311488"><ele>503.33333333333337</ele><time>2026-04-18T15:53:08Z</time></trkpt><trkpt lat="46.07787594904514" lon="6.31310107400356"><ele>505.0</ele><time>2026-04-18T15:53:09Z</time></trkpt><trkpt lat="46.077700927523644" lon="6.3131014389781495"><ele>505.0</ele><time>2026-04-18T15:53:10Z</time></trkpt><trkpt lat="46.0775371697916" lon="6.313109471850201"><ele>505.0</ele><time>2026-04-18T15:53:11Z</time></trkpt><trkpt lat="46.07738663879596" lon="6.313110100642261"><ele>505.0</ele><time>2026-04-18T15:53:12Z</time></trkpt><trkpt lat="46.077247603530544" lon="6.313103879239175"><ele>506.75</ele><time>2026-04-18T15:53:13Z</time></trkpt><trkpt lat="46.07711039500114" lon="6.313098979638577"><ele>508.5</ele><time>2026-04-18T15:53:14Z</time></trkpt><trkpt lat="46.07696653119318" lon="6.313106331248514"><ele>510.25</ele><time>2026-04-18T15:53:15Z</time></trkpt><trkpt lat="46.076805895892655" lon="6.3131207749604386"><ele>512.0</ele><time>2026-04-18T15:53:16Z</time></trkpt><trkpt lat="46.07664098518829" lon="6.313139961372815"><ele>513.3333333333333</ele><time>2026-04-18T15:53:17Z</time></trkpt><trkpt lat="46.07647369465188" lon="6.3131598991805165"><ele>514.6666666666666</ele><time>2026-04-18T15:53:18Z</time></trkpt><trkpt lat="46.07631355168888" lon="6.313189274715057"><ele>516.0</ele><time>2026-04-18T15:53:19Z</time></trkpt><trkpt lat="46.07616673764065" lon="6.313212638221746"><ele>516.0</ele><time>2026-04-18T15:53:20Z</time></trkpt><trkpt lat="46.07602420980853" lon="6.313233628390865"><ele>516.0</ele><time>2026-04-18T15:53:21Z</time></trkpt><trkpt lat="46.07589382456475" lon="6.313253129628864"><ele>516.0</ele><time>2026-04-18T15:53:22Z</time></trkpt><trkpt lat="46.07577468617082" lon="6.313274242828609"><ele>516.0</ele><time>2026-04-18T15:53:23Z</time></trkpt><trkpt lat="46.075667728481335" lon="6.313295335632971"><ele>516.2</ele><time>2026-04-18T15:53:24Z</time></trkpt><trkpt lat="46.075566250133676" lon="6.313311301715315"><ele>516.4000000000001</ele><time>2026-04-18T15:53:25Z</time></trkpt><trkpt lat="46.07547353112705" lon="6.313328900370095"><ele>516.6</ele><time>2026-04-18T15:53:26Z</time></trkpt><trkpt lat="46.07538026077448" lon="6.313346270924252"><ele>516.8000000000001</ele><time>2026-04-18T15:53:27Z</time></trkpt><trkpt lat="46.0752996423634" lon="6.313357309706842"><ele>517.0</ele><time>2026-04-18T15:53:28Z</time></trkpt><trkpt lat="46.07520525973418" lon="6.313372470750922"><ele>517.0</ele><time>2026-04-18T15:53:29Z</time></trkpt><trkpt lat="46.075115264628664" lon="6.313388592561328"><ele>517.0</ele><time>2026-04-18T15:53:30Z</time></trkpt><trkpt lat="46.075020149722235" lon="6.313404835431597"><ele>517.0</ele><time>2026-04-18T15:53:31Z</time></trkpt><trkpt lat="46.07492397276479" lon="6.313421992062927"><ele>517.0</ele><time>2026-04-18T15:53:32Z</time></trkpt><trkpt lat="46.07484863319056" lon="6.313434109487214"><ele>517.0</ele><time>2026-04-18T15:53:33Z</time></trkpt><trkpt lat="46.07478477981938" lon="6.313444928845205"><ele>517.0</ele><time>2026-04-18T15:53:34Z</time></trkpt><trkpt lat="46.074693876082186" lon="6.313468107867316"><ele>517.6</ele><time>2026-04-18T15:53:36Z</time></trkpt><trkpt lat="46.074607654689814" lon="6.313512188377353"><ele>518.2</ele><time>2026-04-18T15:53:39Z</time></trkpt><trkpt lat="46.07451842571448" lon="6.313521668372231"><ele>518.8</ele><time>2026-04-18T15:53:42Z</time></trkpt><trkpt lat="46.074426769805484" lon="6.313467149672626"><ele>519.4</ele><time>2026-04-18T15:53:45Z</time></trkpt><trkpt lat="46.07435825647541" lon="6.313314977018899"><ele>520.0</ele><time>2026-04-18T15:53:47Z</time></trkpt><trkpt lat="46.0743442199391" lon="6.313195554743219"><ele>520.6</ele><time>2026-04-18T15:53:48Z</time></trkpt><trkpt lat="46.07434456986091" lon="6.3130584403646655"><ele>521.2</ele><time>2026-04-18T15:53:49Z</time></trkpt><trkpt lat="46.07436409783328" lon="6.312912940192052"><ele>521.8</ele><time>2026-04-18T15:53:50Z</time></trkpt><trkpt lat="46.07441263617009" lon="6.312773060775487"><ele>522.4</ele><time>2026-04-18T15:53:51Z</time></trkpt><trkpt lat="46.07447136348893" lon="6.312595379249708"><ele>523.0</ele><time>2026-04-18T15:53:52Z</time></trkpt><trkpt lat="46.074524980742204" lon="6.312375567608202"><ele>524.3333333333334</ele><time>2026-04-18T15:53:53Z</time></trkpt><trkpt lat="46.07457676958982" lon="6.312134114492374"><ele>525.6666666666666</ele><time>2026-04-18T15:53:54Z</time></trkpt><trkpt lat="46.074620650050555" lon="6.311882839706548"><ele>527.0</ele><time>2026-04-18T15:53:55Z</time></trkpt><trkpt lat="46.0746468539138" lon="6.311613195264958"><ele>529.3333333333333</ele><time>2026-04-18T15:53:56Z</time></trkpt><trkpt lat="46.07469004216549" lon="6.3113232651288405"><ele>531.6666666666666</ele><time>2026-04-18T15:53:57Z</time></trkpt><trkpt lat="46.07471464923341" lon="6.311009206435619"><ele>534.0</ele><time>2026-04-18T15:53:58Z</time></trkpt><trkpt lat="46.07472798962767" lon="6.3106926639899905"><ele>535.6666666666666</ele><time>2026-04-18T15:53:59Z</time></trkpt><trkpt lat="46.07472774237923" lon="6.310389703089187"><ele>537.3333333333333</ele><time>2026-04-18T15:54:00Z</time></trkpt><trkpt lat="46.07475852116886" lon="6.310079867624418"><ele>539.0</ele><time>2026-04-18T15:54:01Z</time></trkpt><trkpt lat="46.07476462346576" lon="6.309869453076016"><ele>539.0</ele><time>2026-04-18T15:54:02Z</time></trkpt><trkpt lat="46.07477091535101" lon="6.3096096533701065"><ele>539.0</ele><time>2026-04-18T15:54:03Z</time></trkpt><trkpt lat="46.07477159406543" lon="6.309378420841433"><ele>539.0</ele><time>2026-04-18T15:54:04Z</time></trkpt><trkpt lat="46.07477563704776" lon="6.309155755198495"><ele>539.0</ele><time>2026-04-18T15:54:05Z</time></trkpt><trkpt lat="46.074782041003026" lon="6.308947568451192"><ele>539.0</ele><time>2026-04-18T15:54:06Z</time></trkpt><trkpt lat="46.07479572008067" lon="6.30874190623708"><ele>539.0</ele><time>2026-04-18T15:54:07Z</time></trkpt><trkpt lat="46.074814326217194" lon="6.308525387964466"><ele>539.0</ele><time>2026-04-18T15:54:08Z</time></trkpt><trkpt lat="46.07483535614813" lon="6.308299376887722"><ele>541.0</ele><time>2026-04-18T15:54:09Z</time></trkpt><trkpt lat="46.07487665884981" lon="6.308073662435773"><ele>543.0</ele><time>2026-04-18T15:54:10Z</time></trkpt><trkpt lat="46.07489156868337" lon="6.307846184493519"><ele>545.0</ele><time>2026-04-18T15:54:11Z</time></trkpt><trkpt lat="46.074925973266936" lon="6.307642950575024"><ele>545.0</ele><time>2026-04-18T15:54:12Z</time></trkpt><trkpt lat="46.07496116427114" lon="6.3074494808476125"><ele>545.0</ele><time>2026-04-18T15:54:13Z</time></trkpt><trkpt lat="46.07500376503298" lon="6.307243274773989"><ele>545.0</ele><time>2026-04-18T15:54:14Z</time></trkpt><trkpt lat="46.075053445587145" lon="6.307033495268716"><ele>545.0</ele><time>2026-04-18T15:54:15Z</time></trkpt><trkpt lat="46.075107937430126" lon="6.306826646407782"><ele>545.0</ele><time>2026-04-18T15:54:16Z</time></trkpt><trkpt lat="46.07516552410945" lon="6.306620921022949"><ele>545.0</ele><time>2026-04-18T15:54:17Z</time></trkpt><trkpt lat="46.07522420850239" lon="6.306424882055016"><ele>545.0</ele><time>2026-04-18T15:54:18Z</time></trkpt><trkpt lat="46.075281509338645" lon="6.306242684510927"><ele>545.0</ele><time>2026-04-18T15:54:19Z</time></trkpt><trkpt lat="46.075341124391855" lon="6.306077490391014"><ele>545.75</ele><time>2026-04-18T15:54:20Z</time></trkpt><trkpt lat="46.07540578321507" lon="6.305924894124808"><ele>546.5</ele><time>2026-04-18T15:54:21Z</time></trkpt><trkpt lat="46.07546238671066" lon="6.3057745752350245"><ele>547.25</ele><time>2026-04-18T15:54:22Z</time></trkpt><trkpt lat="46.075517905817755" lon="6.305631122711997"><ele>548.0</ele><time>2026-04-18T15:54:23Z</time></trkpt><trkpt lat="46.075588529911656" lon="6.305514146387329"><ele>548.0</ele><time>2026-04-18T15:54:24Z</time></trkpt><trkpt lat="46.07563238230361" lon="6.30542142192417"><ele>548.0</ele><time>2026-04-18T15:54:25Z</time></trkpt><trkpt lat="46.075677729264434" lon="6.305325807077071"><ele>548.0</ele><time>2026-04-18T15:54:26Z</time></trkpt><trkpt lat="46.07572027302733" lon="6.305237868585102"><ele>548.0</ele><time>2026-04-18T15:54:27Z</time></trkpt><trkpt lat="46.07576862255085" lon="6.305138978317337"><ele>548.0</ele><time>2026-04-18T15:54:28Z</time></trkpt><trkpt lat="46.07581987303773" lon="6.30503600435108"><ele>548.0</ele><time>2026-04-18T15:54:29Z</time></trkpt><trkpt lat="46.075863526232844" lon="6.304914924393326"><ele>548.0</ele><time>2026-04-18T15:54:30Z</time></trkpt><trkpt lat="46.07591242186854" lon="6.3048260417971465"><ele>548.0</ele><time>2026-04-18T15:54:31Z</time></trkpt><trkpt lat="46.07596958837543" lon="6.304721539738956"><ele>548.0</ele><time>2026-04-18T15:54:33Z</time></trkpt><trkpt lat="46.076041418461394" lon="6.30461183205193"><ele>548.0</ele><time>2026-04-18T15:54:35Z</time></trkpt><trkpt lat="46.07610160576168" lon="6.304557618215852"><ele>548.0</ele><time>2026-04-18T15:54:37Z</time></trkpt><trkpt lat="46.07622062423183" lon="6.304506305850827"><ele>548.4</ele><time>2026-04-18T15:54:39Z</time></trkpt><trkpt lat="46.07627554513101" lon="6.304426423481189"><ele>548.8</ele><time>2026-04-18T15:54:40Z</time></trkpt><trkpt lat="46.07630370536461" lon="6.304315888831795"><ele>549.2</ele><time>2026-04-18T15:54:41Z</time></trkpt><trkpt lat="46.07630470131833" lon="6.304189027351515"><ele>549.6</ele><time>2026-04-18T15:54:42Z</time></trkpt><trkpt lat="46.076324081058864" lon="6.304056133385831"><ele>550.0</ele><time>2026-04-18T15:54:43Z</time></trkpt><trkpt lat="46.076393098608406" lon="6.30392534769739"><ele>550.0</ele><time>2026-04-18T15:54:44Z</time></trkpt><trkpt lat="46.076496105512" lon="6.303803232473098"><ele>550.0</ele><time>2026-04-18T15:54:45Z</time></trkpt><trkpt lat="46.076599431135826" lon="6.303643481092142"><ele>550.0</ele><time>2026-04-18T15:54:46Z</time></trkpt><trkpt lat="46.076712404285985" lon="6.30344271152836"><ele>550.0</ele><time>2026-04-18T15:54:47Z</time></trkpt><trkpt lat="46.07683683511574" lon="6.303226331467136"><ele>550.0</ele><time>2026-04-18T15:54:48Z</time></trkpt><trkpt lat="46.07698094180106" lon="6.30299707675088"><ele>550.0</ele><time>2026-04-18T15:54:49Z</time></trkpt><trkpt lat="46.07711158313932" lon="6.302774632420247"><ele>551.6666666666667</ele><time>2026-04-18T15:54:50Z</time></trkpt><trkpt lat="46.07725743975609" lon="6.302537772702496"><ele>553.3333333333334</ele><time>2026-04-18T15:54:51Z</time></trkpt><trkpt lat="46.07739932233246" lon="6.302291034320619"><ele>555.0</ele><time>2026-04-18T15:54:52Z</time></trkpt><trkpt lat="46.07753198777609" lon="6.302032952646529"><ele>555.0</ele><time>2026-04-18T15:54:53Z</time></trkpt><trkpt lat="46.07764969029931" lon="6.301770695666665"><ele>555.0</ele><time>2026-04-18T15:54:54Z</time></trkpt><trkpt lat="46.07774610667778" lon="6.301496885665902"><ele>555.0</ele><time>2026-04-18T15:54:55Z</time></trkpt><trkpt lat="46.0778326884146" lon="6.3012176756279"><ele>557.0</ele><time>2026-04-18T15:54:56Z</time></trkpt><trkpt lat="46.07790597379646" lon="6.300938205761528"><ele>559.0</ele><time>2026-04-18T15:54:57Z</time></trkpt><trkpt lat="46.077956192335556" lon="6.300644239908363"><ele>561.0</ele><time>2026-04-18T15:54:58Z</time></trkpt><trkpt lat="46.0779989310128" lon="6.300343677903242"><ele>563.0</ele><time>2026-04-18T15:54:59Z</time></trkpt><trkpt lat="46.07802247502672" lon="6.300041357747114"><ele>565.0</ele><time>2026-04-18T15:55:00Z</time></trkpt><trkpt lat="46.078026463045646" lon="6.299732048890341"><ele>567.0</ele><time>2026-04-18T15:55:01Z</time></trkpt><trkpt lat="46.07801323331492" lon="6.299421160538239"><ele>567.3333333333334</ele><time>2026-04-18T15:55:02Z</time></trkpt><trkpt lat="46.07798711930315" lon="6.299122515424675"><ele>567.6666666666667</ele><time>2026-04-18T15:55:03Z</time></trkpt><trkpt lat="46.07794976686347" lon="6.298828590543175"><ele>568.0</ele><time>2026-04-18T15:55:04Z</time></trkpt><trkpt lat="46.07789087504393" lon="6.298542228782291"><ele>569.0</ele><time>2026-04-18T15:55:05Z</time></trkpt><trkpt lat="46.07781391537614" lon="6.2982685882112035"><ele>570.0</ele><time>2026-04-18T15:55:06Z</time></trkpt><trkpt lat="46.07773576756326" lon="6.2979984063586505"><ele>571.0</ele><time>2026-04-18T15:55:07Z</time></trkpt><trkpt lat="46.077650027120995" lon="6.297730431629234"><ele>573.3333333333334</ele><time>2026-04-18T15:55:08Z</time></trkpt><trkpt lat="46.07756606344451" lon="6.297456634606637"><ele>575.6666666666666</ele><time>2026-04-18T15:55:09Z</time></trkpt><trkpt lat="46.077482442530155" lon="6.2971733894108475"><ele>578.0</ele><time>2026-04-18T15:55:10Z</time></trkpt><trkpt lat="46.07739338475296" lon="6.296890020169616"><ele>584.0</ele><time>2026-04-18T15:55:11Z</time></trkpt><trkpt lat="46.07730021312682" lon="6.296595946262124"><ele>590.0</ele><time>2026-04-18T15:55:12Z</time></trkpt><trkpt lat="46.07720283893421" lon="6.296298378431852"><ele>590.5</ele><time>2026-04-18T15:55:13Z</time></trkpt><trkpt lat="46.07710473567165" lon="6.2959969791132915"><ele>591.0</ele><time>2026-04-18T15:55:14Z</time></trkpt><trkpt lat="46.07700204570244" lon="6.295672258055413"><ele>591.0</ele><time>2026-04-18T15:55:15Z</time></trkpt><trkpt lat="46.07689737088249" lon="6.295370125753322"><ele>591.0</ele><time>2026-04-18T15:55:16Z</time></trkpt><trkpt lat="46.07678489425547" lon="6.295049988454765"><ele>593.0</ele><time>2026-04-18T15:55:17Z</time></trkpt><trkpt lat="46.07666887475105" lon="6.294716718757585"><ele>595.0</ele><time>2026-04-18T15:55:18Z</time></trkpt><trkpt lat="46.07654813051676" lon="6.29436596044168"><ele>599.0</ele><time>2026-04-18T15:55:19Z</time></trkpt><trkpt lat="46.076426088502586" lon="6.294013724638501"><ele>603.0</ele><time>2026-04-18T15:55:20Z</time></trkpt><trkpt lat="46.076316706681574" lon="6.2937117902025275"><ele>603.0</ele><time>2026-04-18T15:55:21Z</time></trkpt><trkpt lat="46.07619952582203" lon="6.293448154700868"><ele>603.0</ele><time>2026-04-18T15:55:22Z</time></trkpt><trkpt lat="46.07606120770451" lon="6.293187127225563"><ele>603.0</ele><time>2026-04-18T15:55:23Z</time></trkpt><trkpt lat="46.075903966191646" lon="6.2929308434748705"><ele>606.3333333333334</ele><time>2026-04-18T15:55:24Z</time></trkpt><trkpt lat="46.075745756881965" lon="6.292689557777101"><ele>609.6666666666667</ele><time>2026-04-18T15:55:25Z</time></trkpt><trkpt lat="46.07559570633423" lon="6.292472440230918"><ele>613.0</ele><time>2026-04-18T15:55:26Z</time></trkpt><trkpt lat="46.0754647874697" lon="6.292275274146396"><ele>613.6666666666667</ele><time>2026-04-18T15:55:27Z</time></trkpt><trkpt lat="46.07534568425134" lon="6.29207760415447"><ele>614.3333333333334</ele><time>2026-04-18T15:55:28Z</time></trkpt><trkpt lat="46.07523426637011" lon="6.2918690466689435"><ele>615.0</ele><time>2026-04-18T15:55:29Z</time></trkpt><trkpt lat="46.07513631550193" lon="6.2916520254716595"><ele>615.0</ele><time>2026-04-18T15:55:30Z</time></trkpt><trkpt lat="46.07504815479963" lon="6.2914378095525025"><ele>615.0</ele><time>2026-04-18T15:55:31Z</time></trkpt><trkpt lat="46.07495282853694" lon="6.291254359764784"><ele>615.0</ele><time>2026-04-18T15:55:32Z</time></trkpt><trkpt lat="46.074922786102505" lon="6.291028394218542"><ele>615.75</ele><time>2026-04-18T15:55:33Z</time></trkpt><trkpt lat="46.07487990819089" lon="6.290836978126463"><ele>616.5</ele><time>2026-04-18T15:55:34Z</time></trkpt><trkpt lat="46.07483976736798" lon="6.290649714270868"><ele>617.25</ele><time>2026-04-18T15:55:35Z</time></trkpt><trkpt lat="46.07479159516528" lon="6.290479031041827"><ele>618.0</ele><time>2026-04-18T15:55:36Z</time></trkpt><trkpt lat="46.0747562781785" lon="6.2903253027652"><ele>618.5</ele><time>2026-04-18T15:55:37Z</time></trkpt><trkpt lat="46.07472765089381" lon="6.290189240836469"><ele>619.0</ele><time>2026-04-18T15:55:38Z</time></trkpt><trkpt lat="46.0747069668279" lon="6.290063740961758"><ele>619.5</ele><time>2026-04-18T15:55:39Z</time></trkpt><trkpt lat="46.07469594078876" lon="6.289950327669132"><ele>620.0</ele><time>2026-04-18T15:55:40Z</time></trkpt><trkpt lat="46.074695757436714" lon="6.289847469311931"><ele>620.5</ele><time>2026-04-18T15:55:41Z</time></trkpt><trkpt lat="46.07470396585296" lon="6.289745197780171"><ele>621.0</ele><time>2026-04-18T15:55:42Z</time></trkpt><trkpt lat="46.074713707257665" lon="6.289649248941498"><ele>621.6</ele><time>2026-04-18T15:55:43Z</time></trkpt><trkpt lat="46.07472421336824" lon="6.289541275194767"><ele>622.2</ele><time>2026-04-18T15:55:44Z</time></trkpt><trkpt lat="46.07473854505685" lon="6.2894430318269725"><ele>622.8</ele><time>2026-04-18T15:55:45Z</time></trkpt><trkpt lat="46.07478559903577" lon="6.289282549043541"><ele>623.4</ele><time>2026-04-18T15:55:47Z</time></trkpt><trkpt lat="46.07486950930179" lon="6.289171576648579"><ele>624.0</ele><time>2026-04-18T15:55:49Z</time></trkpt><trkpt lat="46.07491642088915" lon="6.2890971684199535"><ele>624.0</ele><time>2026-04-18T15:56:35Z</time></trkpt><trkpt lat="46.074899051142395" lon="6.288977858761441"><ele>624.0</ele><time>2026-04-18T15:56:37Z</time></trkpt><trkpt lat="46.07481988488451" lon="6.288826676860571"><ele>624.0</ele><time>2026-04-18T15:56:39Z</time></trkpt><trkpt lat="46.074769705335505" lon="6.2887303416966045"><ele>624.0</ele><time>2026-04-18T15:56:40Z</time></trkpt><trkpt lat="46.074723374090404" lon="6.288632354604307"><ele>624.0</ele><time>2026-04-18T15:56:41Z</time></trkpt><trkpt lat="46.074676525234736" lon="6.288546480303149"><ele>624.4</ele><time>2026-04-18T15:56:42Z</time></trkpt><trkpt lat="46.0746377882169" lon="6.288460781041213"><ele>624.8</ele><time>2026-04-18T15:56:43Z</time></trkpt><trkpt lat="46.07458479449739" lon="6.288360701029283"><ele>625.2</ele><time>2026-04-18T15:56:44Z</time></trkpt><trkpt lat="46.07453673099085" lon="6.288268730914489"><ele>625.6</ele><time>2026-04-18T15:56:45Z</time></trkpt><trkpt lat="46.07448992069218" lon="6.288180411510478"><ele>626.0</ele><time>2026-04-18T15:56:46Z</time></trkpt><trkpt lat="46.07430398830503" lon="6.287999141194919"><ele>627.75</ele><time>2026-04-18T15:56:47Z</time></trkpt><trkpt lat="46.074200666888856" lon="6.2879381055862735"><ele>629.5</ele><time>2026-04-18T15:56:48Z</time></trkpt><trkpt lat="46.074105080048255" lon="6.287927990835471"><ele>631.25</ele><time>2026-04-18T15:56:49Z</time></trkpt><trkpt lat="46.07397556845478" lon="6.28794283147769"><ele>633.0</ele><time>2026-04-18T15:56:50Z</time></trkpt><trkpt lat="46.073851618848956" lon="6.287957499280354"><ele>634.25</ele><time>2026-04-18T15:56:51Z</time></trkpt><trkpt lat="46.07373844203077" lon="6.28796102217531"><ele>635.5</ele><time>2026-04-18T15:56:52Z</time></trkpt><trkpt lat="46.073636319764674" lon="6.288001760620376"><ele>636.75</ele><time>2026-04-18T15:56:53Z</time></trkpt><trkpt lat="46.073521176842256" lon="6.2880372355075576"><ele>638.0</ele><time>2026-04-18T15:56:54Z</time></trkpt><trkpt lat="46.07340314782396" lon="6.288049661047633"><ele>638.0</ele><time>2026-04-18T15:56:55Z</time></trkpt><trkpt lat="46.07328541854382" lon="6.288052487514885"><ele>638.0</ele><time>2026-04-18T15:56:56Z</time></trkpt><trkpt lat="46.07317085713956" lon="6.288074995562414"><ele>638.0</ele><time>2026-04-18T15:56:57Z</time></trkpt><trkpt lat="46.073063921502666" lon="6.288085808907748"><ele>638.0</ele><time>2026-04-18T15:56:58Z</time></trkpt><trkpt lat="46.07296476388998" lon="6.288111557926355"><ele>638.0</ele><time>2026-04-18T15:56:59Z</time></trkpt><trkpt lat="46.07285833297493" lon="6.288129465870158"><ele>637.25</ele><time>2026-04-18T15:57:00Z</time></trkpt><trkpt lat="46.07274191275867" lon="6.288145287222594"><ele>636.5</ele><time>2026-04-18T15:57:01Z</time></trkpt><trkpt lat="46.072610560868796" lon="6.288146004096986"><ele>635.75</ele><time>2026-04-18T15:57:02Z</time></trkpt><trkpt lat="46.0724558356178" lon="6.288149541907971"><ele>635.0</ele><time>2026-04-18T15:57:03Z</time></trkpt><trkpt lat="46.072280380805154" lon="6.288149565286686"><ele>637.0</ele><time>2026-04-18T15:57:04Z</time></trkpt><trkpt lat="46.07209504406341" lon="6.288152825794659"><ele>639.0</ele><time>2026-04-18T15:57:05Z</time></trkpt><trkpt lat="46.07190628385087" lon="6.288148239413936"><ele>641.0</ele><time>2026-04-18T15:57:06Z</time></trkpt><trkpt lat="46.07170058905702" lon="6.288147857449421"><ele>641.3333333333333</ele><time>2026-04-18T15:57:07Z</time></trkpt><trkpt lat="46.071482363149194" lon="6.288149650456389"><ele>641.6666666666666</ele><time>2026-04-18T15:57:08Z</time></trkpt><trkpt lat="46.071251583828825" lon="6.288138726111038"><ele>642.0</ele><time>2026-04-18T15:57:09Z</time></trkpt><trkpt lat="46.07101620696646" lon="6.288126071316177"><ele>642.0</ele><time>2026-04-18T15:57:10Z</time></trkpt><trkpt lat="46.07080141706805" lon="6.288109335577291"><ele>642.0</ele><time>2026-04-18T15:57:11Z</time></trkpt><trkpt lat="46.07060052887347" lon="6.288073435250636"><ele>642.0</ele><time>2026-04-18T15:57:12Z</time></trkpt><trkpt lat="46.070397214325354" lon="6.288021175806468"><ele>644.6666666666666</ele><time>2026-04-18T15:57:13Z</time></trkpt><trkpt lat="46.07019577181978" lon="6.2879485852066646"><ele>647.3333333333333</ele><time>2026-04-18T15:57:14Z</time></trkpt><trkpt lat="46.07000125023781" lon="6.287839316637441"><ele>650.0</ele><time>2026-04-18T15:57:15Z</time></trkpt><trkpt lat="46.06980921952365" lon="6.287705522551367"><ele>651.0</ele><time>2026-04-18T15:57:16Z</time></trkpt><trkpt lat="46.0696066267113" lon="6.287554795615576"><ele>652.0</ele><time>2026-04-18T15:57:17Z</time></trkpt><trkpt lat="46.06939779274132" lon="6.287386370970048"><ele>656.5</ele><time>2026-04-18T15:57:18Z</time></trkpt><trkpt lat="46.06918335884534" lon="6.2872138036265595"><ele>661.0</ele><time>2026-04-18T15:57:19Z</time></trkpt><trkpt lat="46.068961978913" lon="6.287061395497186"><ele>661.5</ele><time>2026-04-18T15:57:20Z</time></trkpt><trkpt lat="46.06874482996771" lon="6.286932770826689"><ele>662.0</ele><time>2026-04-18T15:57:21Z</time></trkpt><trkpt lat="46.06852901632255" lon="6.286823342027133"><ele>662.0</ele><time>2026-04-18T15:57:22Z</time></trkpt><trkpt lat="46.068309452923366" lon="6.286747362491218"><ele>662.0</ele><time>2026-04-18T15:57:23Z</time></trkpt><trkpt lat="46.068084847023876" lon="6.286701654137325"><ele>663.3333333333333</ele><time>2026-04-18T15:57:24Z</time></trkpt><trkpt lat="46.06786220077882" lon="6.286680210407524"><ele>664.6666666666666</ele><time>2026-04-18T15:57:25Z</time></trkpt><trkpt lat="46.06764208456038" lon="6.28669458951541"><ele>666.0</ele><time>2026-04-18T15:57:26Z</time></trkpt><trkpt lat="46.06742000528861" lon="6.286740998352217"><ele>667.0</ele><time>2026-04-18T15:57:27Z</time></trkpt><trkpt lat="46.06719651537335" lon="6.286824018108805"><ele>668.0</ele><time>2026-04-18T15:57:28Z</time></trkpt><trkpt lat="46.06697179386697" lon="6.2869299382593695"><ele>668.0</ele><time>2026-04-18T15:57:29Z</time></trkpt><trkpt lat="46.06673903024329" lon="6.287060850375361"><ele>668.0</ele><time>2026-04-18T15:57:30Z</time></trkpt><trkpt lat="46.066503110618065" lon="6.287212033395099"><ele>670.5</ele><time>2026-04-18T15:57:31Z</time></trkpt><trkpt lat="46.06627750751652" lon="6.287371219931729"><ele>673.0</ele><time>2026-04-18T15:57:32Z</time></trkpt><trkpt lat="46.06608453205037" lon="6.287542670100576"><ele>673.0</ele><time>2026-04-18T15:57:33Z</time></trkpt><trkpt lat="46.065884416649304" lon="6.287647983596735"><ele>673.0</ele><time>2026-04-18T15:57:34Z</time></trkpt><trkpt lat="46.0657037546974" lon="6.287766119720624"><ele>673.0</ele><time>2026-04-18T15:57:35Z</time></trkpt><trkpt lat="46.06552041856888" lon="6.2878717173928225"><ele>674.0</ele><time>2026-04-18T15:57:36Z</time></trkpt><trkpt lat="46.06533606665504" lon="6.287971424484992"><ele>675.0</ele><time>2026-04-18T15:57:37Z</time></trkpt><trkpt lat="46.0651619145788" lon="6.288053435785602"><ele>676.0</ele><time>2026-04-18T15:57:38Z</time></trkpt><trkpt lat="46.065005612862066" lon="6.288122048673703"><ele>677.5</ele><time>2026-04-18T15:57:39Z</time></trkpt><trkpt lat="46.0648745799699" lon="6.288173068534461"><ele>679.0</ele><time>2026-04-18T15:57:40Z</time></trkpt><trkpt lat="46.06475126531648" lon="6.288204976560724"><ele>680.5</ele><time>2026-04-18T15:57:41Z</time></trkpt><trkpt lat="46.064642952784666" lon="6.2882045343447635"><ele>682.0</ele><time>2026-04-18T15:57:42Z</time></trkpt><trkpt lat="46.06454310351942" lon="6.2881825434902"><ele>682.0</ele><time>2026-04-18T15:57:43Z</time></trkpt><trkpt lat="46.06445522117462" lon="6.28814204918597"><ele>682.0</ele><time>2026-04-18T15:57:44Z</time></trkpt><trkpt lat="46.064366489980195" lon="6.288129354053001"><ele>682.0</ele><time>2026-04-18T15:57:45Z</time></trkpt><trkpt lat="46.06429046331021" lon="6.288170847777647"><ele>682.0</ele><time>2026-04-18T15:57:46Z</time></trkpt><trkpt lat="46.064215297736865" lon="6.288246771176591"><ele>682.0</ele><time>2026-04-18T15:57:47Z</time></trkpt><trkpt lat="46.06412370384045" lon="6.2883389380140935"><ele>683.5</ele><time>2026-04-18T15:57:48Z</time></trkpt><trkpt lat="46.06399971819949" lon="6.28841075930437"><ele>685.0</ele><time>2026-04-18T15:57:49Z</time></trkpt><trkpt lat="46.06385295100532" lon="6.288440449248605"><ele>686.5</ele><time>2026-04-18T15:57:50Z</time></trkpt><trkpt lat="46.06369100603404" lon="6.288460022768034"><ele>688.0</ele><time>2026-04-18T15:57:51Z</time></trkpt><trkpt lat="46.06351103567308" lon="6.288492760897391"><ele>688.0</ele><time>2026-04-18T15:57:52Z</time></trkpt><trkpt lat="46.06331852784705" lon="6.288536933687338"><ele>688.0</ele><time>2026-04-18T15:57:53Z</time></trkpt><trkpt lat="46.0631111909101" lon="6.288588191516624"><ele>688.0</ele><time>2026-04-18T15:57:54Z</time></trkpt><trkpt lat="46.06289145364558" lon="6.288647107988173"><ele>690.5</ele><time>2026-04-18T15:57:55Z</time></trkpt><trkpt lat="46.06265967893258" lon="6.288715317638191"><ele>693.0</ele><time>2026-04-18T15:57:56Z</time></trkpt><trkpt lat="46.06241342697101" lon="6.288795408288776"><ele>694.0</ele><time>2026-04-18T15:57:57Z</time></trkpt><trkpt lat="46.06216257561024" lon="6.288881670688149"><ele>695.0</ele><time>2026-04-18T15:57:58Z</time></trkpt><trkpt lat="46.06189752340533" lon="6.288975385424157"><ele>695.0</ele><time>2026-04-18T15:57:59Z</time></trkpt><trkpt lat="46.06161616852173" lon="6.289074921046429"><ele>695.0</ele><time>2026-04-18T15:58:00Z</time></trkpt><trkpt lat="46.06132342902819" lon="6.289176928099007"><ele>698.5</ele><time>2026-04-18T15:58:01Z</time></trkpt><trkpt lat="46.06104020610587" lon="6.289276879407984"><ele>702.0</ele><time>2026-04-18T15:58:02Z</time></trkpt><trkpt lat="46.06076136676443" lon="6.28936833765672"><ele>704.5</ele><time>2026-04-18T15:58:03Z</time></trkpt><trkpt lat="46.060486452591455" lon="6.289455111377857"><ele>707.0</ele><time>2026-04-18T15:58:04Z</time></trkpt><trkpt lat="46.06022542390093" lon="6.2895357497295405"><ele>707.0</ele><time>2026-04-18T15:58:05Z</time></trkpt><trkpt lat="46.05997071622567" lon="6.289617959622671"><ele>707.0</ele><time>2026-04-18T15:58:06Z</time></trkpt><trkpt lat="46.0597026178507" lon="6.289715111405843"><ele>706.5</ele><time>2026-04-18T15:58:07Z</time></trkpt><trkpt lat="46.05943233265054" lon="6.289817345420261"><ele>706.0</ele><time>2026-04-18T15:58:08Z</time></trkpt><trkpt lat="46.05916619665377" lon="6.289913487913683"><ele>710.0</ele><time>2026-04-18T15:58:09Z</time></trkpt><trkpt lat="46.05891803140123" lon="6.290001979901692"><ele>714.0</ele><time>2026-04-18T15:58:10Z</time></trkpt><trkpt lat="46.058666843499076" lon="6.290041198422224"><ele>714.0</ele><time>2026-04-18T15:58:11Z</time></trkpt><trkpt lat="46.058419300353684" lon="6.290098234981575"><ele>714.0</ele><time>2026-04-18T15:58:12Z</time></trkpt><trkpt lat="46.05817326033713" lon="6.290094035074029"><ele>714.0</ele><time>2026-04-18T15:58:13Z</time></trkpt><trkpt lat="46.057943885902326" lon="6.290073304292611"><ele>714.0</ele><time>2026-04-18T15:58:14Z</time></trkpt><trkpt lat="46.05771494373868" lon="6.290021418529074"><ele>714.0</ele><time>2026-04-18T15:58:15Z</time></trkpt><trkpt lat="46.057483623972864" lon="6.289943262118333"><ele>714.0</ele><time>2026-04-18T15:58:16Z</time></trkpt><trkpt lat="46.05725807691914" lon="6.289830942402213"><ele>718.5</ele><time>2026-04-18T15:58:17Z</time></trkpt><trkpt lat="46.05703265286844" lon="6.289685400839286"><ele>723.0</ele><time>2026-04-18T15:58:18Z</time></trkpt><trkpt lat="46.05681652904944" lon="6.289509213736677"><ele>717.5</ele><time>2026-04-18T15:58:19Z</time></trkpt><trkpt lat="46.05660537813422" lon="6.2892997574917535"><ele>712.0</ele><time>2026-04-18T15:58:20Z</time></trkpt><trkpt lat="46.05639904130351" lon="6.289055259848901"><ele>718.0</ele><time>2026-04-18T15:58:21Z</time></trkpt><trkpt lat="46.05620911219278" lon="6.288780028508325"><ele>724.0</ele><time>2026-04-18T15:58:22Z</time></trkpt><trkpt lat="46.056042682678424" lon="6.288480476160957"><ele>724.0</ele><time>2026-04-18T15:58:23Z</time></trkpt><trkpt lat="46.05591013586046" lon="6.288148572529357"><ele>724.0</ele><time>2026-04-18T15:58:24Z</time></trkpt><trkpt lat="46.05579368694138" lon="6.287805986555249"><ele>723.5</ele><time>2026-04-18T15:58:25Z</time></trkpt><trkpt lat="46.055679272786215" lon="6.287437886521979"><ele>723.0</ele><time>2026-04-18T15:58:26Z</time></trkpt><trkpt lat="46.05556202627573" lon="6.287066126205771"><ele>727.0</ele><time>2026-04-18T15:58:27Z</time></trkpt><trkpt lat="46.0554470240626" lon="6.286726040479322"><ele>731.0</ele><time>2026-04-18T15:58:28Z</time></trkpt><trkpt lat="46.055336424887734" lon="6.286403516596929"><ele>733.5</ele><time>2026-04-18T15:58:29Z</time></trkpt><trkpt lat="46.05523033420027" lon="6.286102251961023"><ele>736.0</ele><time>2026-04-18T15:58:30Z</time></trkpt><trkpt lat="46.05513158333096" lon="6.285811936061057"><ele>737.3333333333334</ele><time>2026-04-18T15:58:31Z</time></trkpt><trkpt lat="46.055039316594495" lon="6.285546392014593"><ele>738.6666666666666</ele><time>2026-04-18T15:58:32Z</time></trkpt><trkpt lat="46.05495099750128" lon="6.28529005757518"><ele>740.0</ele><time>2026-04-18T15:58:33Z</time></trkpt><trkpt lat="46.05486653069216" lon="6.285043473127583"><ele>737.6666666666666</ele><time>2026-04-18T15:58:34Z</time></trkpt><trkpt lat="46.05477398955548" lon="6.284776718438479"><ele>735.3333333333334</ele><time>2026-04-18T15:58:35Z</time></trkpt><trkpt lat="46.054669919350445" lon="6.284481893815026"><ele>733.0</ele><time>2026-04-18T15:58:36Z</time></trkpt><trkpt lat="46.05455739937775" lon="6.2841737347267"><ele>735.5</ele><time>2026-04-18T15:58:37Z</time></trkpt><trkpt lat="46.05444324359867" lon="6.283851598864375"><ele>738.0</ele><time>2026-04-18T15:58:38Z</time></trkpt><trkpt lat="46.05432369298816" lon="6.283508407673964"><ele>738.0</ele><time>2026-04-18T15:58:39Z</time></trkpt><trkpt lat="46.05419917541277" lon="6.283167801031654"><ele>738.0</ele><time>2026-04-18T15:58:40Z</time></trkpt><trkpt lat="46.05407264448936" lon="6.282830200148926"><ele>738.5</ele><time>2026-04-18T15:58:41Z</time></trkpt><trkpt lat="46.05395496185882" lon="6.28250522549307"><ele>739.0</ele><time>2026-04-18T15:58:42Z</time></trkpt><trkpt lat="46.05384980030383" lon="6.282203998502574"><ele>740.5</ele><time>2026-04-18T15:58:43Z</time></trkpt><trkpt lat="46.053739995664415" lon="6.281896668655394"><ele>742.0</ele><time>2026-04-18T15:58:44Z</time></trkpt><trkpt lat="46.053624935805836" lon="6.281572015333182"><ele>744.5</ele><time>2026-04-18T15:58:45Z</time></trkpt><trkpt lat="46.05350630756945" lon="6.2812394038338395"><ele>747.0</ele><time>2026-04-18T15:58:46Z</time></trkpt><trkpt lat="46.053386110785986" lon="6.28090342259315"><ele>745.5</ele><time>2026-04-18T15:58:47Z</time></trkpt><trkpt lat="46.0532637763158" lon="6.280561198948377"><ele>744.0</ele><time>2026-04-18T15:58:48Z</time></trkpt><trkpt lat="46.053142845228784" lon="6.2802201176990105"><ele>744.0</ele><time>2026-04-18T15:58:49Z</time></trkpt><trkpt lat="46.05302327608468" lon="6.279877341733224"><ele>744.0</ele><time>2026-04-18T15:58:50Z</time></trkpt><trkpt lat="46.0529064868513" lon="6.279540993430624"><ele>745.5</ele><time>2026-04-18T15:58:51Z</time></trkpt><trkpt lat="46.052792054474" lon="6.279191972217018"><ele>747.0</ele><time>2026-04-18T15:58:52Z</time></trkpt><trkpt lat="46.05267845386682" lon="6.278860919788143"><ele>748.0</ele><time>2026-04-18T15:58:53Z</time></trkpt><trkpt lat="46.052564259529866" lon="6.278526094690454"><ele>749.0</ele><time>2026-04-18T15:58:54Z</time></trkpt><trkpt lat="46.05244900337158" lon="6.278194320230739"><ele>748.5</ele><time>2026-04-18T15:58:55Z</time></trkpt><trkpt lat="46.052337354846635" lon="6.277858974876049"><ele>748.0</ele><time>2026-04-18T15:58:56Z</time></trkpt><trkpt lat="46.05222684746287" lon="6.277521419274306"><ele>749.5</ele><time>2026-04-18T15:58:57Z</time></trkpt><trkpt lat="46.052116828574775" lon="6.277179201750753"><ele>751.0</ele><time>2026-04-18T15:58:58Z</time></trkpt><trkpt lat="46.052003110993475" lon="6.2768410998559405"><ele>751.0</ele><time>2026-04-18T15:58:59Z</time></trkpt><trkpt lat="46.051895903522585" lon="6.276510273693613"><ele>751.0</ele><time>2026-04-18T15:59:00Z</time></trkpt><trkpt lat="46.05179901596523" lon="6.276160821845846"><ele>752.5</ele><time>2026-04-18T15:59:01Z</time></trkpt><trkpt lat="46.05170973573219" lon="6.27581454598188"><ele>754.0</ele><time>2026-04-18T15:59:02Z</time></trkpt><trkpt lat="46.05163195750862" lon="6.275459998103065"><ele>754.0</ele><time>2026-04-18T15:59:03Z</time></trkpt><trkpt lat="46.051563596617775" lon="6.275104965782883"><ele>754.0</ele><time>2026-04-18T15:59:04Z</time></trkpt><trkpt lat="46.05150018694221" lon="6.274757812667273"><ele>754.0</ele><time>2026-04-18T15:59:05Z</time></trkpt><trkpt lat="46.05143837569493" lon="6.274403390359828"><ele>754.0</ele><time>2026-04-18T15:59:06Z</time></trkpt><trkpt lat="46.0513805740101" lon="6.274055574016597"><ele>756.0</ele><time>2026-04-18T15:59:07Z</time></trkpt><trkpt lat="46.05134107593906" lon="6.273715868016345"><ele>758.0</ele><time>2026-04-18T15:59:08Z</time></trkpt><trkpt lat="46.05131785626652" lon="6.273392188256981"><ele>758.6666666666666</ele><time>2026-04-18T15:59:09Z</time></trkpt><trkpt lat="46.051300751209766" lon="6.273072309721863"><ele>759.3333333333334</ele><time>2026-04-18T15:59:10Z</time></trkpt><trkpt lat="46.051286019137066" lon="6.272747755589525"><ele>760.0</ele><time>2026-04-18T15:59:11Z</time></trkpt><trkpt lat="46.05127289739922" lon="6.272424374396882"><ele>760.3333333333334</ele><time>2026-04-18T15:59:12Z</time></trkpt><trkpt lat="46.05126070078762" lon="6.272102810785825"><ele>760.6666666666666</ele><time>2026-04-18T15:59:13Z</time></trkpt><trkpt lat="46.05125932577608" lon="6.271784318056561"><ele>761.0</ele><time>2026-04-18T15:59:14Z</time></trkpt><trkpt lat="46.051265163827" lon="6.2714593398454515"><ele>762.5</ele><time>2026-04-18T15:59:15Z</time></trkpt><trkpt lat="46.05127792199144" lon="6.27113584799473"><ele>764.0</ele><time>2026-04-18T15:59:16Z</time></trkpt><trkpt lat="46.05129644185104" lon="6.270807039168083"><ele>763.5</ele><time>2026-04-18T15:59:17Z</time></trkpt><trkpt lat="46.05132515833671" lon="6.270467990991161"><ele>763.0</ele><time>2026-04-18T15:59:18Z</time></trkpt><trkpt lat="46.05135959567309" lon="6.270119976853123"><ele>763.5</ele><time>2026-04-18T15:59:19Z</time></trkpt><trkpt lat="46.05139366133713" lon="6.2697732774242425"><ele>764.0</ele><time>2026-04-18T15:59:20Z</time></trkpt><trkpt lat="46.05142636307211" lon="6.269447731776595"><ele>764.0</ele><time>2026-04-18T15:59:21Z</time></trkpt><trkpt lat="46.05145687854797" lon="6.269136152011219"><ele>764.0</ele><time>2026-04-18T15:59:22Z</time></trkpt><trkpt lat="46.051490918043" lon="6.268825931385579"><ele>764.0</ele><time>2026-04-18T15:59:23Z</time></trkpt><trkpt lat="46.051518522723846" lon="6.268512329526055"><ele>764.0</ele><time>2026-04-18T15:59:24Z</time></trkpt><trkpt lat="46.051524589084615" lon="6.268205597866865"><ele>764.0</ele><time>2026-04-18T15:59:25Z</time></trkpt><trkpt lat="46.05150855905522" lon="6.267894690331112"><ele>764.0</ele><time>2026-04-18T15:59:26Z</time></trkpt><trkpt lat="46.051473321775234" lon="6.267568182018094"><ele>765.0</ele><time>2026-04-18T15:59:27Z</time></trkpt><trkpt lat="46.051413777736556" lon="6.267234166962193"><ele>766.0</ele><time>2026-04-18T15:59:28Z</time></trkpt><trkpt lat="46.05133503214296" lon="6.266895647520813"><ele>766.0</ele><time>2026-04-18T15:59:29Z</time></trkpt><trkpt lat="46.05123387304566" lon="6.266556145070679"><ele>766.0</ele><time>2026-04-18T15:59:30Z</time></trkpt><trkpt lat="46.051110569288994" lon="6.266239646051246"><ele>769.0</ele><time>2026-04-18T15:59:31Z</time></trkpt><trkpt lat="46.05097488310556" lon="6.265950421197689"><ele>772.0</ele><time>2026-04-18T15:59:32Z</time></trkpt><trkpt lat="46.05082669266627" lon="6.2657070651889635"><ele>775.0</ele><time>2026-04-18T15:59:33Z</time></trkpt><trkpt lat="46.050666560464485" lon="6.265472670478491"><ele>778.0</ele><time>2026-04-18T15:59:34Z</time></trkpt><trkpt lat="46.050487100507674" lon="6.26524548094525"><ele>778.0</ele><time>2026-04-18T15:59:35Z</time></trkpt><trkpt lat="46.05028636889184" lon="6.2650416823981585"><ele>778.0</ele><time>2026-04-18T15:59:36Z</time></trkpt><trkpt lat="46.05006961111879" lon="6.264857224856905"><ele>783.5</ele><time>2026-04-18T15:59:37Z</time></trkpt><trkpt lat="46.04984700216709" lon="6.264676747831953"><ele>789.0</ele><time>2026-04-18T15:59:38Z</time></trkpt><trkpt lat="46.0496390417286" lon="6.264513037352446"><ele>789.0</ele><time>2026-04-18T15:59:39Z</time></trkpt><trkpt lat="46.04944165998837" lon="6.264365656547902"><ele>789.0</ele><time>2026-04-18T15:59:40Z</time></trkpt><trkpt lat="46.04923890018039" lon="6.26420821082701"><ele>788.5</ele><time>2026-04-18T15:59:41Z</time></trkpt><trkpt lat="46.049040479278254" lon="6.264022517207143"><ele>788.0</ele><time>2026-04-18T15:59:42Z</time></trkpt><trkpt lat="46.04885359349747" lon="6.263804704004539"><ele>788.0</ele><time>2026-04-18T15:59:43Z</time></trkpt><trkpt lat="46.048679644689095" lon="6.263550969488147"><ele>788.0</ele><time>2026-04-18T15:59:44Z</time></trkpt><trkpt lat="46.04851901595459" lon="6.263286425052868"><ele>788.0</ele><time>2026-04-18T15:59:45Z</time></trkpt><trkpt lat="46.04838455917731" lon="6.263043916625173"><ele>788.0</ele><time>2026-04-18T15:59:46Z</time></trkpt><trkpt lat="46.04827534826022" lon="6.262812355920314"><ele>788.0</ele><time>2026-04-18T15:59:47Z</time></trkpt><trkpt lat="46.048185361951106" lon="6.262606312983234"><ele>788.0</ele><time>2026-04-18T15:59:48Z</time></trkpt><trkpt lat="46.048096386382625" lon="6.262423728365285"><ele>788.0</ele><time>2026-04-18T15:59:49Z</time></trkpt><trkpt lat="46.04801986623439" lon="6.262261202835388"><ele>788.0</ele><time>2026-04-18T15:59:50Z</time></trkpt><trkpt lat="46.047955364514046" lon="6.26211375403301"><ele>788.0</ele><time>2026-04-18T15:59:51Z</time></trkpt><trkpt lat="46.04790745589401" lon="6.261991266998473"><ele>788.5000000000001</ele><time>2026-04-18T15:59:52Z</time></trkpt><trkpt lat="46.0478713731231" lon="6.261879755236499"><ele>789.0</ele><time>2026-04-18T15:59:53Z</time></trkpt><trkpt lat="46.04784991593894" lon="6.2617740786499345"><ele>789.5</ele><time>2026-04-18T15:59:54Z</time></trkpt><trkpt lat="46.04784040426996" lon="6.261668219853282"><ele>790.0</ele><time>2026-04-18T15:59:55Z</time></trkpt><trkpt lat="46.047818692788645" lon="6.261547217692029"><ele>790.5000000000001</ele><time>2026-04-18T15:59:56Z</time></trkpt><trkpt lat="46.047769524366544" lon="6.261454689290212"><ele>791.0</ele><time>2026-04-18T15:59:57Z</time></trkpt><trkpt lat="46.04768681620086" lon="6.261378938925278"><ele>791.25</ele><time>2026-04-18T15:59:58Z</time></trkpt><trkpt lat="46.04758494353096" lon="6.26130141048282"><ele>791.5</ele><time>2026-04-18T15:59:59Z</time></trkpt><trkpt lat="46.047484326837264" lon="6.26117082113526"><ele>791.75</ele><time>2026-04-18T16:00:00Z</time></trkpt><trkpt lat="46.04739277344482" lon="6.260987099434343"><ele>792.0</ele><time>2026-04-18T16:00:01Z</time></trkpt><trkpt lat="46.04729770736114" lon="6.260765606706253"><ele>793.3333333333333</ele><time>2026-04-18T16:00:02Z</time></trkpt><trkpt lat="46.04718971303557" lon="6.2605299039859785"><ele>794.6666666666666</ele><time>2026-04-18T16:00:03Z</time></trkpt><trkpt lat="46.04706596637357" lon="6.260282335988516"><ele>796.0</ele><time>2026-04-18T16:00:04Z</time></trkpt><trkpt lat="46.046936055542965" lon="6.2600270446716655"><ele>796.6666666666666</ele><time>2026-04-18T16:00:05Z</time></trkpt><trkpt lat="46.04680711454162" lon="6.259766044042374"><ele>797.3333333333333</ele><time>2026-04-18T16:00:06Z</time></trkpt><trkpt lat="46.04667978923672" lon="6.259495778754125"><ele>798.0</ele><time>2026-04-18T16:00:07Z</time></trkpt><trkpt lat="46.04655630468904" lon="6.259233785330119"><ele>798.3333333333333</ele><time>2026-04-18T16:00:08Z</time></trkpt><trkpt lat="46.046429759486465" lon="6.258972269811377"><ele>798.6666666666666</ele><time>2026-04-18T16:00:09Z</time></trkpt><trkpt lat="46.0463021395222" lon="6.258715766811199"><ele>799.0</ele><time>2026-04-18T16:00:10Z</time></trkpt><trkpt lat="46.04617785191203" lon="6.258464038621692"><ele>799.0</ele><time>2026-04-18T16:00:11Z</time></trkpt><trkpt lat="46.04605768400701" lon="6.2582118909934525"><ele>799.0</ele><time>2026-04-18T16:00:12Z</time></trkpt><trkpt lat="46.04591969698982" lon="6.257952284571661"><ele>799.0</ele><time>2026-04-18T16:00:13Z</time></trkpt><trkpt lat="46.04576739939478" lon="6.257665533440827"><ele>799.5</ele><time>2026-04-18T16:00:14Z</time></trkpt><trkpt lat="46.04561177067392" lon="6.257345081498123"><ele>800.0</ele><time>2026-04-18T16:00:15Z</time></trkpt><trkpt lat="46.04544823705657" lon="6.256998162631361"><ele>800.5</ele><time>2026-04-18T16:00:16Z</time></trkpt><trkpt lat="46.04528794760089" lon="6.256645025322303"><ele>801.0</ele><time>2026-04-18T16:00:17Z</time></trkpt><trkpt lat="46.045136400292876" lon="6.256315766140991"><ele>801.0</ele><time>2026-04-18T16:00:18Z</time></trkpt><trkpt lat="46.04499312025108" lon="6.256018580385131"><ele>801.0</ele><time>2026-04-18T16:00:19Z</time></trkpt><trkpt lat="46.04485203226701" lon="6.255735620902054"><ele>801.0</ele><time>2026-04-18T16:00:20Z</time></trkpt><trkpt lat="46.044716452135646" lon="6.25544862420963"><ele>801.0</ele><time>2026-04-18T16:00:21Z</time></trkpt><trkpt lat="46.04458860571637" lon="6.255152332807261"><ele>801.0</ele><time>2026-04-18T16:00:22Z</time></trkpt><trkpt lat="46.04448342281422" lon="6.254849471419998"><ele>801.0</ele><time>2026-04-18T16:00:23Z</time></trkpt><trkpt lat="46.04439941198594" lon="6.254520877926015"><ele>801.5</ele><time>2026-04-18T16:00:24Z</time></trkpt><trkpt lat="46.04432152327946" lon="6.254176078905083"><ele>802.0</ele><time>2026-04-18T16:00:25Z</time></trkpt><trkpt lat="46.04424320392891" lon="6.253827973868108"><ele>801.5</ele><time>2026-04-18T16:00:26Z</time></trkpt><trkpt lat="46.0441642561012" lon="6.253496838171558"><ele>801.0</ele><time>2026-04-18T16:00:27Z</time></trkpt><trkpt lat="46.04408791235802" lon="6.253180392578442"><ele>800.6666666666667</ele><time>2026-04-18T16:00:28Z</time></trkpt><trkpt lat="46.04401749235645" lon="6.252875935491653"><ele>800.3333333333334</ele><time>2026-04-18T16:00:29Z</time></trkpt><trkpt lat="46.043950392869405" lon="6.252579339929289"><ele>800.0</ele><time>2026-04-18T16:00:30Z</time></trkpt><trkpt lat="46.043882796243906" lon="6.252271593374385"><ele>799.5</ele><time>2026-04-18T16:00:31Z</time></trkpt><trkpt lat="46.04381437582129" lon="6.2519487014374935"><ele>799.0</ele><time>2026-04-18T16:00:32Z</time></trkpt><trkpt lat="46.04374218681518" lon="6.251628324896116"><ele>796.3333333333333</ele><time>2026-04-18T16:00:33Z</time></trkpt><trkpt lat="46.0436671175262" lon="6.251324921883377"><ele>793.6666666666667</ele><time>2026-04-18T16:00:34Z</time></trkpt><trkpt lat="46.04357804358546" lon="6.2510456553486256"><ele>791.0</ele><time>2026-04-18T16:00:35Z</time></trkpt><trkpt lat="46.04346900689237" lon="6.2507725373302865"><ele>789.0</ele><time>2026-04-18T16:00:36Z</time></trkpt><trkpt lat="46.04334485054543" lon="6.2504983811670485"><ele>787.0</ele><time>2026-04-18T16:00:37Z</time></trkpt><trkpt lat="46.043189382884755" lon="6.250221322741866"><ele>787.0</ele><time>2026-04-18T16:00:38Z</time></trkpt><trkpt lat="46.04301640952209" lon="6.249959588668732"><ele>787.0</ele><time>2026-04-18T16:00:39Z</time></trkpt><trkpt lat="46.042826862318854" lon="6.249697438949496"><ele>786.5</ele><time>2026-04-18T16:00:40Z</time></trkpt><trkpt lat="46.042625774428735" lon="6.2494252841286615"><ele>786.0</ele><time>2026-04-18T16:00:41Z</time></trkpt><trkpt lat="46.042424493086486" lon="6.2491501336854665"><ele>783.5</ele><time>2026-04-18T16:00:42Z</time></trkpt><trkpt lat="46.04223421473725" lon="6.248887006611214"><ele>781.0</ele><time>2026-04-18T16:00:43Z</time></trkpt><trkpt lat="46.04205588064452" lon="6.248637279101728"><ele>781.0</ele><time>2026-04-18T16:00:44Z</time></trkpt><trkpt lat="46.041886633289614" lon="6.248399084597988"><ele>781.0</ele><time>2026-04-18T16:00:45Z</time></trkpt><trkpt lat="46.04171534440992" lon="6.248161367560988"><ele>782.3333333333333</ele><time>2026-04-18T16:00:46Z</time></trkpt><trkpt lat="46.04154855399419" lon="6.247932922020004"><ele>783.6666666666667</ele><time>2026-04-18T16:00:47Z</time></trkpt><trkpt lat="46.04138710515862" lon="6.247735173153218"><ele>785.0</ele><time>2026-04-18T16:00:48Z</time></trkpt><trkpt lat="46.041220640050796" lon="6.247566851455224"><ele>785.0</ele><time>2026-04-18T16:00:49Z</time></trkpt><trkpt lat="46.041043138170295" lon="6.247429507748222"><ele>785.0</ele><time>2026-04-18T16:00:50Z</time></trkpt><trkpt lat="46.04084992283698" lon="6.247310379957786"><ele>785.0</ele><time>2026-04-18T16:00:51Z</time></trkpt><trkpt lat="46.04064129976822" lon="6.247204963299845"><ele>786.0</ele><time>2026-04-18T16:00:52Z</time></trkpt><trkpt lat="46.04041181893171" lon="6.24712951567361"><ele>787.0</ele><time>2026-04-18T16:00:53Z</time></trkpt><trkpt lat="46.04017225812659" lon="6.247066787612484"><ele>790.0</ele><time>2026-04-18T16:00:54Z</time></trkpt><trkpt lat="46.03993503709736" lon="6.24700753801205"><ele>793.0</ele><time>2026-04-18T16:00:55Z</time></trkpt><trkpt lat="46.03972285452831" lon="6.246938131140383"><ele>793.0</ele><time>2026-04-18T16:00:56Z</time></trkpt><trkpt lat="46.03951788352816" lon="6.2468337845635284"><ele>793.0</ele><time>2026-04-18T16:00:57Z</time></trkpt><trkpt lat="46.03931711212719" lon="6.2466773482998805"><ele>793.0</ele><time>2026-04-18T16:00:58Z</time></trkpt><trkpt lat="46.039125228245915" lon="6.24649075615699"><ele>794.5</ele><time>2026-04-18T16:00:59Z</time></trkpt><trkpt lat="46.038938694160834" lon="6.246273420405224"><ele>796.0</ele><time>2026-04-18T16:01:00Z</time></trkpt><trkpt lat="46.03876607558245" lon="6.246029244101894"><ele>796.0</ele><time>2026-04-18T16:01:01Z</time></trkpt><trkpt lat="46.03860971209401" lon="6.245745884296935"><ele>796.0</ele><time>2026-04-18T16:01:02Z</time></trkpt><trkpt lat="46.03847401306638" lon="6.245446376259305"><ele>794.5</ele><time>2026-04-18T16:01:03Z</time></trkpt><trkpt lat="46.038370357848976" lon="6.245114752569366"><ele>793.0</ele><time>2026-04-18T16:01:04Z</time></trkpt><trkpt lat="46.038287202872716" lon="6.244767305293142"><ele>793.0</ele><time>2026-04-18T16:01:05Z</time></trkpt><trkpt lat="46.038228652936205" lon="6.244407816413399"><ele>793.0</ele><time>2026-04-18T16:01:06Z</time></trkpt><trkpt lat="46.03816972887125" lon="6.244063584825074"><ele>789.0</ele><time>2026-04-18T16:01:07Z</time></trkpt><trkpt lat="46.03810694530091" lon="6.243739407026032"><ele>785.0</ele><time>2026-04-18T16:01:08Z</time></trkpt><trkpt lat="46.03804591004364" lon="6.243434573938181"><ele>785.0</ele><time>2026-04-18T16:01:09Z</time></trkpt><trkpt lat="46.0379838726375" lon="6.243135880000247"><ele>785.0</ele><time>2026-04-18T16:01:10Z</time></trkpt><trkpt lat="46.03791941050134" lon="6.242846987805004"><ele>785.0</ele><time>2026-04-18T16:01:11Z</time></trkpt><trkpt lat="46.037833834019565" lon="6.242564114803899"><ele>775.5</ele><time>2026-04-18T16:01:12Z</time></trkpt><trkpt lat="46.037722564063394" lon="6.242286230819728"><ele>766.0</ele><time>2026-04-18T16:01:13Z</time></trkpt><trkpt lat="46.03758756226794" lon="6.242007891382771"><ele>768.0</ele><time>2026-04-18T16:01:14Z</time></trkpt><trkpt lat="46.0374363755126" lon="6.241729365828827"><ele>770.0</ele><time>2026-04-18T16:01:15Z</time></trkpt><trkpt lat="46.03726162718223" lon="6.2414715877678475"><ele>766.5</ele><time>2026-04-18T16:01:16Z</time></trkpt><trkpt lat="46.037082067080306" lon="6.241244938352996"><ele>763.0</ele><time>2026-04-18T16:01:17Z</time></trkpt><trkpt lat="46.036902878295365" lon="6.241051062268525"><ele>763.0</ele><time>2026-04-18T16:01:18Z</time></trkpt><trkpt lat="46.03672551056645" lon="6.240894102155865"><ele>763.0</ele><time>2026-04-18T16:01:19Z</time></trkpt><trkpt lat="46.03655191110059" lon="6.240775324692235"><ele>763.0</ele><time>2026-04-18T16:01:20Z</time></trkpt><trkpt lat="46.03637739709434" lon="6.240697969379456"><ele>762.6666666666667</ele><time>2026-04-18T16:01:21Z</time></trkpt><trkpt lat="46.036206321751195" lon="6.24059585603945"><ele>762.3333333333334</ele><time>2026-04-18T16:01:22Z</time></trkpt><trkpt lat="46.03600614448085" lon="6.24063741919842"><ele>762.0</ele><time>2026-04-18T16:01:23Z</time></trkpt><trkpt lat="46.03582709238496" lon="6.24067315412751"><ele>759.6666666666666</ele><time>2026-04-18T16:01:24Z</time></trkpt><trkpt lat="46.03564535671543" lon="6.240742079140605"><ele>757.3333333333333</ele><time>2026-04-18T16:01:25Z</time></trkpt><trkpt lat="46.035466892783695" lon="6.240848607692099"><ele>755.0</ele><time>2026-04-18T16:01:26Z</time></trkpt><trkpt lat="46.035309334833116" lon="6.240988771485976"><ele>755.0</ele><time>2026-04-18T16:01:27Z</time></trkpt><trkpt lat="46.03516982175585" lon="6.24115135913747"><ele>755.0</ele><time>2026-04-18T16:01:28Z</time></trkpt><trkpt lat="46.03504124663186" lon="6.241347208216409"><ele>755.0</ele><time>2026-04-18T16:01:29Z</time></trkpt><trkpt lat="46.034920087391335" lon="6.241572852250131"><ele>753.0</ele><time>2026-04-18T16:01:30Z</time></trkpt><trkpt lat="46.03480919579412" lon="6.241795860112774"><ele>751.0</ele><time>2026-04-18T16:01:31Z</time></trkpt><trkpt lat="46.03471157863963" lon="6.24200444994614"><ele>749.0</ele><time>2026-04-18T16:01:32Z</time></trkpt><trkpt lat="46.03460867455739" lon="6.242190411161755"><ele>750.0</ele><time>2026-04-18T16:01:33Z</time></trkpt><trkpt lat="46.03448841448728" lon="6.242339076846637"><ele>751.0</ele><time>2026-04-18T16:01:34Z</time></trkpt><trkpt lat="46.034350911529124" lon="6.24246192065286"><ele>752.0</ele><time>2026-04-18T16:01:35Z</time></trkpt><trkpt lat="46.03420955162399" lon="6.2425477548174255"><ele>752.0</ele><time>2026-04-18T16:01:36Z</time></trkpt><trkpt lat="46.034052704062" lon="6.242616750266869"><ele>752.0</ele><time>2026-04-18T16:01:37Z</time></trkpt><trkpt lat="46.03389400318482" lon="6.242659077361233"><ele>752.0</ele><time>2026-04-18T16:01:38Z</time></trkpt><trkpt lat="46.03374073872588" lon="6.24266195473173"><ele>752.0</ele><time>2026-04-18T16:01:39Z</time></trkpt><trkpt lat="46.03358925269112" lon="6.242613712311589"><ele>752.0</ele><time>2026-04-18T16:01:40Z</time></trkpt><trkpt lat="46.03343638951069" lon="6.242527656624868"><ele>752.0</ele><time>2026-04-18T16:01:41Z</time></trkpt><trkpt lat="46.033282055755635" lon="6.242402089507611"><ele>753.0</ele><time>2026-04-18T16:01:42Z</time></trkpt><trkpt lat="46.033128157081265" lon="6.2422437897874135"><ele>754.0</ele><time>2026-04-18T16:01:43Z</time></trkpt><trkpt lat="46.03298153431372" lon="6.242051616563102"><ele>755.0</ele><time>2026-04-18T16:01:44Z</time></trkpt><trkpt lat="46.032836339257294" lon="6.241842714197776"><ele>755.0</ele><time>2026-04-18T16:01:45Z</time></trkpt><trkpt lat="46.03268747393341" lon="6.241618672597246"><ele>755.0</ele><time>2026-04-18T16:01:46Z</time></trkpt><trkpt lat="46.03253392183801" lon="6.241367641642465"><ele>755.0</ele><time>2026-04-18T16:01:47Z</time></trkpt><trkpt lat="46.03236401788607" lon="6.241103491347825"><ele>758.5</ele><time>2026-04-18T16:01:48Z</time></trkpt><trkpt lat="46.032162594228296" lon="6.240841724183067"><ele>762.0</ele><time>2026-04-18T16:01:49Z</time></trkpt><trkpt lat="46.03193808923589" lon="6.24057208429459"><ele>761.5</ele><time>2026-04-18T16:01:50Z</time></trkpt><trkpt lat="46.03169369172274" lon="6.240288810624804"><ele>761.0</ele><time>2026-04-18T16:01:51Z</time></trkpt><trkpt lat="46.03145793495066" lon="6.24002506920541"><ele>752.0</ele><time>2026-04-18T16:01:52Z</time></trkpt><trkpt lat="46.031236810524526" lon="6.239782132200409"><ele>743.0</ele><time>2026-04-18T16:01:53Z</time></trkpt><trkpt lat="46.03103128862439" lon="6.239557205076571"><ele>743.0</ele><time>2026-04-18T16:01:54Z</time></trkpt><trkpt lat="46.030841819708414" lon="6.239343397360873"><ele>743.0</ele><time>2026-04-18T16:01:55Z</time></trkpt><trkpt lat="46.03066200921101" lon="6.2391466343162945"><ele>741.0</ele><time>2026-04-18T16:01:56Z</time></trkpt><trkpt lat="46.03048823175801" lon="6.238961876727617"><ele>739.0</ele><time>2026-04-18T16:01:57Z</time></trkpt><trkpt lat="46.03030694059738" lon="6.238813285990146"><ele>737.0</ele><time>2026-04-18T16:01:58Z</time></trkpt><trkpt lat="46.030107175378554" lon="6.238684391758945"><ele>742.0</ele><time>2026-04-18T16:01:59Z</time></trkpt><trkpt lat="46.02988414913918" lon="6.238565875618524"><ele>747.0</ele><time>2026-04-18T16:02:00Z</time></trkpt><trkpt lat="46.02965621112984" lon="6.238448854292372"><ele>747.0</ele><time>2026-04-18T16:02:01Z</time></trkpt><trkpt lat="46.02944173396405" lon="6.238333867555156"><ele>747.0</ele><time>2026-04-18T16:02:02Z</time></trkpt><trkpt lat="46.0292369861679" lon="6.238226730833855"><ele>747.0</ele><time>2026-04-18T16:02:03Z</time></trkpt><trkpt lat="46.029034367288254" lon="6.2381292545035825"><ele>739.0</ele><time>2026-04-18T16:02:04Z</time></trkpt><trkpt lat="46.0288214578204" lon="6.238038815480965"><ele>731.0</ele><time>2026-04-18T16:02:05Z</time></trkpt><trkpt lat="46.0285947506876" lon="6.237967232401184"><ele>731.0</ele><time>2026-04-18T16:02:06Z</time></trkpt><trkpt lat="46.02834837163095" lon="6.2379121927773555"><ele>731.0</ele><time>2026-04-18T16:02:07Z</time></trkpt><trkpt lat="46.0280949647358" lon="6.237864484839597"><ele>731.0</ele><time>2026-04-18T16:02:08Z</time></trkpt><trkpt lat="46.027845757894234" lon="6.237819561635528"><ele>731.0</ele><time>2026-04-18T16:02:09Z</time></trkpt><trkpt lat="46.027613914125986" lon="6.2377778450793535"><ele>730.3333333333333</ele><time>2026-04-18T16:02:10Z</time></trkpt><trkpt lat="46.02738985647805" lon="6.237737593208632"><ele>729.6666666666666</ele><time>2026-04-18T16:02:11Z</time></trkpt><trkpt lat="46.02717398631437" lon="6.237701185418222"><ele>729.0</ele><time>2026-04-18T16:02:12Z</time></trkpt><trkpt lat="46.02696328294647" lon="6.237669957627775"><ele>729.0</ele><time>2026-04-18T16:02:13Z</time></trkpt><trkpt lat="46.02676020945445" lon="6.237636503047006"><ele>729.0</ele><time>2026-04-18T16:02:14Z</time></trkpt><trkpt lat="46.02656451983548" lon="6.23760566469422"><ele>729.0</ele><time>2026-04-18T16:02:15Z</time></trkpt><trkpt lat="46.026372790415586" lon="6.237576003434836"><ele>728.3333333333334</ele><time>2026-04-18T16:02:16Z</time></trkpt><trkpt lat="46.02618741982761" lon="6.237542461379897"><ele>727.6666666666667</ele><time>2026-04-18T16:02:17Z</time></trkpt><trkpt lat="46.026009667100325" lon="6.237493313905219"><ele>727.0</ele><time>2026-04-18T16:02:18Z</time></trkpt><trkpt lat="46.02583056316106" lon="6.237427094737118"><ele>726.0</ele><time>2026-04-18T16:02:19Z</time></trkpt><trkpt lat="46.02564816110941" lon="6.237332829954654"><ele>725.0</ele><time>2026-04-18T16:02:20Z</time></trkpt><trkpt lat="46.02547280328822" lon="6.237212106160144"><ele>724.0</ele><time>2026-04-18T16:02:21Z</time></trkpt><trkpt lat="46.02531860584251" lon="6.237071581027283"><ele>724.0</ele><time>2026-04-18T16:02:22Z</time></trkpt><trkpt lat="46.02516690169311" lon="6.236909468569113"><ele>724.0</ele><time>2026-04-18T16:02:23Z</time></trkpt><trkpt lat="46.02501248213355" lon="6.236715283706427"><ele>724.0</ele><time>2026-04-18T16:02:24Z</time></trkpt><trkpt lat="46.024864641213455" lon="6.2364868957658315"><ele>723.6666666666667</ele><time>2026-04-18T16:02:25Z</time></trkpt><trkpt lat="46.024729525390605" lon="6.236225177705146"><ele>723.3333333333334</ele><time>2026-04-18T16:02:26Z</time></trkpt><trkpt lat="46.02461108000216" lon="6.235954294565193"><ele>723.0</ele><time>2026-04-18T16:02:27Z</time></trkpt><trkpt lat="46.02451129627189" lon="6.235693349119444"><ele>721.6666666666666</ele><time>2026-04-18T16:02:28Z</time></trkpt><trkpt lat="46.02441021000797" lon="6.235440609645215"><ele>720.3333333333333</ele><time>2026-04-18T16:02:29Z</time></trkpt><trkpt lat="46.024293124065004" lon="6.235190912807837"><ele>719.0</ele><time>2026-04-18T16:02:30Z</time></trkpt><trkpt lat="46.02415510749337" lon="6.234950605801582"><ele>716.3333333333333</ele><time>2026-04-18T16:02:31Z</time></trkpt><trkpt lat="46.02399968608364" lon="6.234738573442635"><ele>713.6666666666666</ele><time>2026-04-18T16:02:32Z</time></trkpt><trkpt lat="46.02383243808909" lon="6.234551835912467"><ele>711.0</ele><time>2026-04-18T16:02:33Z</time></trkpt><trkpt lat="46.02365579962847" lon="6.234382011483643"><ele>711.0</ele><time>2026-04-18T16:02:34Z</time></trkpt><trkpt lat="46.02347110645287" lon="6.2342348815264295"><ele>711.0</ele><time>2026-04-18T16:02:35Z</time></trkpt><trkpt lat="46.02328918245009" lon="6.234102866426257"><ele>711.0</ele><time>2026-04-18T16:02:36Z</time></trkpt><trkpt lat="46.023116962869075" lon="6.233973967831328"><ele>710.3333333333334</ele><time>2026-04-18T16:02:37Z</time></trkpt><trkpt lat="46.022957325268145" lon="6.23381155321986"><ele>709.6666666666667</ele><time>2026-04-18T16:02:38Z</time></trkpt><trkpt lat="46.022803511344144" lon="6.233613697367271"><ele>709.0</ele><time>2026-04-18T16:02:39Z</time></trkpt><trkpt lat="46.022657904833764" lon="6.23337737269128"><ele>707.5</ele><time>2026-04-18T16:02:40Z</time></trkpt><trkpt lat="46.02253243951945" lon="6.233108653436771"><ele>706.0</ele><time>2026-04-18T16:02:41Z</time></trkpt><trkpt lat="46.02241612094396" lon="6.23281741579801"><ele>706.0</ele><time>2026-04-18T16:02:42Z</time></trkpt><trkpt lat="46.022287554615446" lon="6.232526738074419"><ele>706.0</ele><time>2026-04-18T16:02:43Z</time></trkpt><trkpt lat="46.02214260397416" lon="6.232227646829096"><ele>706.0</ele><time>2026-04-18T16:02:44Z</time></trkpt><trkpt lat="46.02198739185886" lon="6.231926377768609"><ele>706.0</ele><time>2026-04-18T16:02:45Z</time></trkpt><trkpt lat="46.02184107821993" lon="6.231647060482277"><ele>705.3333333333334</ele><time>2026-04-18T16:02:46Z</time></trkpt><trkpt lat="46.02170579515735" lon="6.231380403507028"><ele>704.6666666666666</ele><time>2026-04-18T16:02:47Z</time></trkpt><trkpt lat="46.021574915811016" lon="6.231131137392045"><ele>704.0</ele><time>2026-04-18T16:02:48Z</time></trkpt><trkpt lat="46.021435990637784" lon="6.230912110169806"><ele>704.0</ele><time>2026-04-18T16:02:49Z</time></trkpt><trkpt lat="46.021283106153376" lon="6.230702236046899"><ele>704.0</ele><time>2026-04-18T16:02:50Z</time></trkpt><trkpt lat="46.021114921868445" lon="6.230517159593803"><ele>704.0</ele><time>2026-04-18T16:02:51Z</time></trkpt><trkpt lat="46.0209444558275" lon="6.2303312531291"><ele>705.6666666666666</ele><time>2026-04-18T16:02:52Z</time></trkpt><trkpt lat="46.02079184466899" lon="6.230112180522497"><ele>707.3333333333334</ele><time>2026-04-18T16:02:53Z</time></trkpt><trkpt lat="46.02066307786276" lon="6.2298646421990185"><ele>709.0</ele><time>2026-04-18T16:02:54Z</time></trkpt><trkpt lat="46.02055060043863" lon="6.229580608592813"><ele>709.0</ele><time>2026-04-18T16:02:55Z</time></trkpt><trkpt lat="46.02045369106782" lon="6.229272132053821"><ele>709.0</ele><time>2026-04-18T16:02:56Z</time></trkpt><trkpt lat="46.02037914612427" lon="6.228944640705157"><ele>706.5</ele><time>2026-04-18T16:02:57Z</time></trkpt><trkpt lat="46.02032657783918" lon="6.228588197468733"><ele>704.0</ele><time>2026-04-18T16:02:58Z</time></trkpt><trkpt lat="46.0202848737889" lon="6.228196545739154"><ele>703.0</ele><time>2026-04-18T16:02:59Z</time></trkpt><trkpt lat="46.02023455982352" lon="6.227789818596141"><ele>702.0</ele><time>2026-04-18T16:03:00Z</time></trkpt><trkpt lat="46.02017513729514" lon="6.227375929486788"><ele>701.0</ele><time>2026-04-18T16:03:01Z</time></trkpt><trkpt lat="46.02011336890518" lon="6.226961053015573"><ele>700.0</ele><time>2026-04-18T16:03:02Z</time></trkpt><trkpt lat="46.02005440283898" lon="6.226558148254166"><ele>699.0</ele><time>2026-04-18T16:03:03Z</time></trkpt><trkpt lat="46.019998114981604" lon="6.226182617748266"><ele>698.0</ele><time>2026-04-18T16:03:04Z</time></trkpt><trkpt lat="46.019940441506364" lon="6.225807315914011"><ele>700.5</ele><time>2026-04-18T16:03:05Z</time></trkpt><trkpt lat="46.01988177476508" lon="6.22541284875723"><ele>703.0</ele><time>2026-04-18T16:03:06Z</time></trkpt><trkpt lat="46.019823518897915" lon="6.225005918353657"><ele>700.5</ele><time>2026-04-18T16:03:07Z</time></trkpt><trkpt lat="46.01976349735247" lon="6.224596536307863"><ele>698.0</ele><time>2026-04-18T16:03:08Z</time></trkpt><trkpt lat="46.01970076768446" lon="6.224197644297654"><ele>696.5</ele><time>2026-04-18T16:03:09Z</time></trkpt><trkpt lat="46.01964315617612" lon="6.22381804287207"><ele>695.0</ele><time>2026-04-18T16:03:10Z</time></trkpt><trkpt lat="46.01959028347717" lon="6.223459703801868"><ele>691.5</ele><time>2026-04-18T16:03:11Z</time></trkpt><trkpt lat="46.019537999449454" lon="6.223125106939038"><ele>688.0</ele><time>2026-04-18T16:03:12Z</time></trkpt><trkpt lat="46.01948993483899" lon="6.22281347350023"><ele>688.0</ele><time>2026-04-18T16:03:13Z</time></trkpt><trkpt lat="46.01944541498439" lon="6.222507180931714"><ele>688.0</ele><time>2026-04-18T16:03:14Z</time></trkpt><trkpt lat="46.01940105190001" lon="6.222207574657621"><ele>688.0</ele><time>2026-04-18T16:03:15Z</time></trkpt><trkpt lat="46.01935895946166" lon="6.22190977255151"><ele>686.5</ele><time>2026-04-18T16:03:16Z</time></trkpt><trkpt lat="46.01930605797203" lon="6.221601180245304"><ele>685.0</ele><time>2026-04-18T16:03:17Z</time></trkpt><trkpt lat="46.01924424481174" lon="6.221281980024875"><ele>685.0</ele><time>2026-04-18T16:03:18Z</time></trkpt><trkpt lat="46.01917458419729" lon="6.2209621033278255"><ele>685.0</ele><time>2026-04-18T16:03:19Z</time></trkpt><trkpt lat="46.01909855669066" lon="6.220639129946641"><ele>687.0</ele><time>2026-04-18T16:03:20Z</time></trkpt><trkpt lat="46.01901709891307" lon="6.220310363120728"><ele>689.0</ele><time>2026-04-18T16:03:21Z</time></trkpt><trkpt lat="46.0189293695539" lon="6.2199807703236285"><ele>688.0</ele><time>2026-04-18T16:03:22Z</time></trkpt><trkpt lat="46.01883534410314" lon="6.219653138778653"><ele>687.0</ele><time>2026-04-18T16:03:23Z</time></trkpt><trkpt lat="46.01872971333023" lon="6.219328624353171"><ele>687.0</ele><time>2026-04-18T16:03:24Z</time></trkpt><trkpt lat="46.018615991941786" lon="6.219006165863509"><ele>687.0</ele><time>2026-04-18T16:03:25Z</time></trkpt><trkpt lat="46.01849648518288" lon="6.218690357677351"><ele>688.0</ele><time>2026-04-18T16:03:26Z</time></trkpt><trkpt lat="46.01837430460241" lon="6.218380521935635"><ele>689.0</ele><time>2026-04-18T16:03:27Z</time></trkpt><trkpt lat="46.01827749430497" lon="6.218071775748627"><ele>689.0</ele><time>2026-04-18T16:03:28Z</time></trkpt><trkpt lat="46.018168483165255" lon="6.217773517248209"><ele>689.0</ele><time>2026-04-18T16:03:29Z</time></trkpt><trkpt lat="46.01801504819454" lon="6.217505735336226"><ele>687.5</ele><time>2026-04-18T16:03:30Z</time></trkpt><trkpt lat="46.01789271993" lon="6.217215203988934"><ele>686.0</ele><time>2026-04-18T16:03:31Z</time></trkpt><trkpt lat="46.0177732448676" lon="6.216920534248936"><ele>686.0</ele><time>2026-04-18T16:03:32Z</time></trkpt><trkpt lat="46.017651311835785" lon="6.216628547310858"><ele>686.0</ele><time>2026-04-18T16:03:33Z</time></trkpt><trkpt lat="46.017532565225274" lon="6.216338873169999"><ele>688.5</ele><time>2026-04-18T16:03:34Z</time></trkpt><trkpt lat="46.01741517645111" lon="6.216043003251183"><ele>691.0</ele><time>2026-04-18T16:03:35Z</time></trkpt><trkpt lat="46.01729761843394" lon="6.215748760485088"><ele>687.5</ele><time>2026-04-18T16:03:36Z</time></trkpt><trkpt lat="46.01717010920982" lon="6.21545723803651"><ele>684.0</ele><time>2026-04-18T16:03:37Z</time></trkpt><trkpt lat="46.017026694353035" lon="6.215196262646586"><ele>684.0</ele><time>2026-04-18T16:03:38Z</time></trkpt><trkpt lat="46.01686677554524" lon="6.214955043291028"><ele>684.0</ele><time>2026-04-18T16:03:39Z</time></trkpt><trkpt lat="46.01668808729045" lon="6.214727672587134"><ele>684.0</ele><time>2026-04-18T16:03:40Z</time></trkpt><trkpt lat="46.01648088697384" lon="6.214519483273213"><ele>684.0</ele><time>2026-04-18T16:03:41Z</time></trkpt><trkpt lat="46.016280346930415" lon="6.214317646512596"><ele>684.0</ele><time>2026-04-18T16:03:42Z</time></trkpt><trkpt lat="46.0160939902801" lon="6.214126272046943"><ele>684.0</ele><time>2026-04-18T16:03:43Z</time></trkpt><trkpt lat="46.01591372049483" lon="6.213942768084494"><ele>684.0</ele><time>2026-04-18T16:03:44Z</time></trkpt><trkpt lat="46.01572609486077" lon="6.213752280728307"><ele>684.0</ele><time>2026-04-18T16:03:45Z</time></trkpt><trkpt lat="46.015528892070776" lon="6.213553013195464"><ele>684.0</ele><time>2026-04-18T16:03:46Z</time></trkpt><trkpt lat="46.0153216210369" lon="6.2133472469580395"><ele>684.0</ele><time>2026-04-18T16:03:47Z</time></trkpt><trkpt lat="46.01511749759819" lon="6.213147495316226"><ele>682.5</ele><time>2026-04-18T16:03:48Z</time></trkpt><trkpt lat="46.014923192903396" lon="6.212957377478688"><ele>681.0</ele><time>2026-04-18T16:03:49Z</time></trkpt><trkpt lat="46.01473518853903" lon="6.212782666485001"><ele>681.0</ele><time>2026-04-18T16:03:50Z</time></trkpt><trkpt lat="46.01455282711573" lon="6.212606603182822"><ele>681.0</ele><time>2026-04-18T16:03:51Z</time></trkpt><trkpt lat="46.01437090318649" lon="6.212424810771959"><ele>681.0</ele><time>2026-04-18T16:03:52Z</time></trkpt><trkpt lat="46.014204651842704" lon="6.21221986010026"><ele>684.0</ele><time>2026-04-18T16:03:53Z</time></trkpt><trkpt lat="46.01405515834271" lon="6.211990762028363"><ele>687.0</ele><time>2026-04-18T16:03:54Z</time></trkpt><trkpt lat="46.013934378870196" lon="6.2117479411502785"><ele>690.0</ele><time>2026-04-18T16:03:55Z</time></trkpt><trkpt lat="46.01381172047596" lon="6.21151292693752"><ele>684.0</ele><time>2026-04-18T16:03:56Z</time></trkpt><trkpt lat="46.01368535692507" lon="6.211289408778182"><ele>678.0</ele><time>2026-04-18T16:03:57Z</time></trkpt><trkpt lat="46.01354969064228" lon="6.211070798044846"><ele>672.0</ele><time>2026-04-18T16:03:58Z</time></trkpt><trkpt lat="46.013406604874895" lon="6.21086318831021"><ele>673.3333333333334</ele><time>2026-04-18T16:03:59Z</time></trkpt><trkpt lat="46.01325475375888" lon="6.210662403042182"><ele>674.6666666666667</ele><time>2026-04-18T16:04:00Z</time></trkpt><trkpt lat="46.0130910075461" lon="6.210457323313386"><ele>676.0</ele><time>2026-04-18T16:04:01Z</time></trkpt><trkpt lat="46.012919843381304" lon="6.210256649554926"><ele>676.0</ele><time>2026-04-18T16:04:02Z</time></trkpt><trkpt lat="46.01275526140964" lon="6.210066068344619"><ele>676.0</ele><time>2026-04-18T16:04:03Z</time></trkpt><trkpt lat="46.01260085802916" lon="6.209886522340058"><ele>676.0</ele><time>2026-04-18T16:04:04Z</time></trkpt><trkpt lat="46.01245395028983" lon="6.209712573855571"><ele>674.3333333333334</ele><time>2026-04-18T16:04:05Z</time></trkpt><trkpt lat="46.01231543113212" lon="6.209539981897495"><ele>672.6666666666666</ele><time>2026-04-18T16:04:06Z</time></trkpt><trkpt lat="46.01217621335844" lon="6.209370413760024"><ele>671.0</ele><time>2026-04-18T16:04:07Z</time></trkpt><trkpt lat="46.012022058418005" lon="6.2091915464790395"><ele>671.0</ele><time>2026-04-18T16:04:08Z</time></trkpt><trkpt lat="46.01185692029022" lon="6.208999847347141"><ele>671.0</ele><time>2026-04-18T16:04:09Z</time></trkpt><trkpt lat="46.01168379144149" lon="6.208797656932122"><ele>671.0</ele><time>2026-04-18T16:04:10Z</time></trkpt><trkpt lat="46.011496378671666" lon="6.208580064603885"><ele>669.5</ele><time>2026-04-18T16:04:11Z</time></trkpt><trkpt lat="46.01130108601802" lon="6.208339854890536"><ele>668.0</ele><time>2026-04-18T16:04:12Z</time></trkpt><trkpt lat="46.01109675808133" lon="6.208087148899653"><ele>667.5</ele><time>2026-04-18T16:04:13Z</time></trkpt><trkpt lat="46.010892173662945" lon="6.207826476072673"><ele>667.0</ele><time>2026-04-18T16:04:14Z</time></trkpt><trkpt lat="46.01070008473826" lon="6.207591895032899"><ele>667.0</ele><time>2026-04-18T16:04:15Z</time></trkpt><trkpt lat="46.010508179294796" lon="6.207366489386767"><ele>667.0</ele><time>2026-04-18T16:04:16Z</time></trkpt><trkpt lat="46.01031623194615" lon="6.207141788336193"><ele>667.0</ele><time>2026-04-18T16:04:17Z</time></trkpt><trkpt lat="46.01013383012704" lon="6.206927339977953"><ele>667.0</ele><time>2026-04-18T16:04:18Z</time></trkpt><trkpt lat="46.00996054284159" lon="6.206717179796919"><ele>667.0</ele><time>2026-04-18T16:04:19Z</time></trkpt><trkpt lat="46.00979553222715" lon="6.206519773408968"><ele>667.0</ele><time>2026-04-18T16:04:20Z</time></trkpt><trkpt lat="46.009640892768545" lon="6.2063336038883605"><ele>667.0</ele><time>2026-04-18T16:04:21Z</time></trkpt><trkpt lat="46.00948883559137" lon="6.2061489009148065"><ele>665.6666666666667</ele><time>2026-04-18T16:04:22Z</time></trkpt><trkpt lat="46.00934501833123" lon="6.205969645481012"><ele>664.3333333333334</ele><time>2026-04-18T16:04:23Z</time></trkpt><trkpt lat="46.009210400137526" lon="6.2057858951359295"><ele>663.0</ele><time>2026-04-18T16:04:24Z</time></trkpt><trkpt lat="46.009076661430036" lon="6.205600586712652"><ele>663.0</ele><time>2026-04-18T16:04:25Z</time></trkpt><trkpt lat="46.008948324995664" lon="6.205424593938521"><ele>663.0</ele><time>2026-04-18T16:04:26Z</time></trkpt><trkpt lat="46.00883548286267" lon="6.205240407478676"><ele>663.0</ele><time>2026-04-18T16:04:27Z</time></trkpt><trkpt lat="46.00873093857596" lon="6.205027286896433"><ele>661.3333333333334</ele><time>2026-04-18T16:04:28Z</time></trkpt><trkpt lat="46.00863053798404" lon="6.20476896329353"><ele>659.6666666666667</ele><time>2026-04-18T16:04:29Z</time></trkpt><trkpt lat="46.00853864583026" lon="6.204487687778745"><ele>658.0</ele><time>2026-04-18T16:04:30Z</time></trkpt><trkpt lat="46.00845386226978" lon="6.204176974144556"><ele>657.5</ele><time>2026-04-18T16:04:31Z</time></trkpt><trkpt lat="46.008367256749246" lon="6.203850349685346"><ele>657.0</ele><time>2026-04-18T16:04:32Z</time></trkpt><trkpt lat="46.008273445936666" lon="6.203506184570253"><ele>655.5</ele><time>2026-04-18T16:04:33Z</time></trkpt><trkpt lat="46.00817288862981" lon="6.203156365959942"><ele>654.0</ele><time>2026-04-18T16:04:34Z</time></trkpt><trkpt lat="46.008072346765815" lon="6.202795641743217"><ele>654.0</ele><time>2026-04-18T16:04:35Z</time></trkpt><trkpt lat="46.00797852967411" lon="6.20245166437093"><ele>654.0</ele><time>2026-04-18T16:04:36Z</time></trkpt><trkpt lat="46.007890817800316" lon="6.202127030258214"><ele>651.5</ele><time>2026-04-18T16:04:37Z</time></trkpt><trkpt lat="46.00780231019836" lon="6.201805817467176"><ele>649.0</ele><time>2026-04-18T16:04:38Z</time></trkpt><trkpt lat="46.007713606015905" lon="6.201470928036298"><ele>647.0</ele><time>2026-04-18T16:04:39Z</time></trkpt><trkpt lat="46.00763515692251" lon="6.201143939572012"><ele>645.0</ele><time>2026-04-18T16:04:40Z</time></trkpt><trkpt lat="46.00755992553482" lon="6.2008259294405494"><ele>645.0</ele><time>2026-04-18T16:04:41Z</time></trkpt><trkpt lat="46.00749099133568" lon="6.200512911699444"><ele>645.0</ele><time>2026-04-18T16:04:42Z</time></trkpt><trkpt lat="46.00742313674145" lon="6.200212192363801"><ele>645.0</ele><time>2026-04-18T16:04:43Z</time></trkpt><trkpt lat="46.00735382487679" lon="6.1999147379934065"><ele>644.0</ele><time>2026-04-18T16:04:44Z</time></trkpt><trkpt lat="46.00728880384805" lon="6.19962346220463"><ele>643.0</ele><time>2026-04-18T16:04:45Z</time></trkpt><trkpt lat="46.00723017447605" lon="6.199341695336835"><ele>642.0</ele><time>2026-04-18T16:04:46Z</time></trkpt><trkpt lat="46.00717852806664" lon="6.199065773415588"><ele>640.6666666666666</ele><time>2026-04-18T16:04:47Z</time></trkpt><trkpt lat="46.007130881522365" lon="6.198792504250979"><ele>639.3333333333333</ele><time>2026-04-18T16:04:48Z</time></trkpt><trkpt lat="46.00708229183603" lon="6.19852362527374"><ele>638.0</ele><time>2026-04-18T16:04:49Z</time></trkpt><trkpt lat="46.007037594331145" lon="6.198263723694854"><ele>637.3333333333333</ele><time>2026-04-18T16:04:50Z</time></trkpt><trkpt lat="46.00698116334849" lon="6.1979935100560395"><ele>636.6666666666666</ele><time>2026-04-18T16:04:51Z</time></trkpt><trkpt lat="46.006899543535795" lon="6.197717800340722"><ele>636.0</ele><time>2026-04-18T16:04:52Z</time></trkpt><trkpt lat="46.00679349849415" lon="6.197426717899965"><ele>635.5</ele><time>2026-04-18T16:04:53Z</time></trkpt><trkpt lat="46.00667877008384" lon="6.197121802686207"><ele>635.0</ele><time>2026-04-18T16:04:54Z</time></trkpt><trkpt lat="46.00656631038106" lon="6.1968382912453706"><ele>635.0</ele><time>2026-04-18T16:04:55Z</time></trkpt><trkpt lat="46.00646545280686" lon="6.196567479075481"><ele>635.0</ele><time>2026-04-18T16:04:56Z</time></trkpt><trkpt lat="46.006366244301645" lon="6.196304968711919"><ele>635.0</ele><time>2026-04-18T16:04:57Z</time></trkpt><trkpt lat="46.006276173831644" lon="6.1960738673400355"><ele>633.6666666666666</ele><time>2026-04-18T16:04:58Z</time></trkpt><trkpt lat="46.00619292143417" lon="6.195856322226711"><ele>632.3333333333334</ele><time>2026-04-18T16:04:59Z</time></trkpt><trkpt lat="46.00610167144667" lon="6.1956542486405075"><ele>631.0</ele><time>2026-04-18T16:05:00Z</time></trkpt><trkpt lat="46.005997404263326" lon="6.195459119427346"><ele>628.6666666666667</ele><time>2026-04-18T16:05:01Z</time></trkpt><trkpt lat="46.005874294358584" lon="6.195289299683495"><ele>626.3333333333334</ele><time>2026-04-18T16:05:02Z</time></trkpt><trkpt lat="46.00572432515233" lon="6.195128418054853"><ele>624.0</ele><time>2026-04-18T16:05:03Z</time></trkpt><trkpt lat="46.00555954518026" lon="6.194985339449847"><ele>623.3333333333334</ele><time>2026-04-18T16:05:04Z</time></trkpt><trkpt lat="46.0053930754483" lon="6.1948616855091725"><ele>622.6666666666667</ele><time>2026-04-18T16:05:05Z</time></trkpt><trkpt lat="46.005237750981976" lon="6.194719326418072"><ele>622.0</ele><time>2026-04-18T16:05:06.001Z</time></trkpt><trkpt lat="46.0051254252878" lon="6.194524050282594"><ele>620.5</ele><time>2026-04-18T16:05:07.001Z</time></trkpt><trkpt lat="46.005010269152486" lon="6.194362623618903"><ele>619.0</ele><time>2026-04-18T16:05:08.001Z</time></trkpt><trkpt lat="46.004922109838034" lon="6.194196793235356"><ele>617.5</ele><time>2026-04-18T16:05:09.001Z</time></trkpt><trkpt lat="46.00485302119862" lon="6.194056164635114"><ele>616.0</ele><time>2026-04-18T16:05:10.001Z</time></trkpt><trkpt lat="46.00481814424949" lon="6.193899717956561"><ele>609.75</ele><time>2026-04-18T16:05:11.001Z</time></trkpt><trkpt lat="46.00479339804342" lon="6.193741446975224"><ele>603.5</ele><time>2026-04-18T16:05:12.001Z</time></trkpt><trkpt lat="46.00478417052287" lon="6.193570609583243"><ele>597.25</ele><time>2026-04-18T16:05:13.001Z</time></trkpt><trkpt lat="46.004844773523715" lon="6.193410467142676"><ele>591.0</ele><time>2026-04-18T16:05:14.001Z</time></trkpt><trkpt lat="46.00492158860953" lon="6.193273639852596"><ele>593.75</ele><time>2026-04-18T16:05:15.001Z</time></trkpt><trkpt lat="46.005008035791725" lon="6.193147880557767"><ele>596.5</ele><time>2026-04-18T16:05:16.001Z</time></trkpt><trkpt lat="46.00512773685192" lon="6.193086952129918"><ele>599.25</ele><time>2026-04-18T16:05:17Z</time></trkpt><trkpt lat="46.00526488522014" lon="6.193092601066542"><ele>602.0</ele><time>2026-04-18T16:05:18Z</time></trkpt><trkpt lat="46.005397548345556" lon="6.193133729235476"><ele>604.3333333333333</ele><time>2026-04-18T16:05:19Z</time></trkpt><trkpt lat="46.005526306560476" lon="6.193219263611232"><ele>606.6666666666666</ele><time>2026-04-18T16:05:20Z</time></trkpt><trkpt lat="46.00564210146414" lon="6.193368278428926"><ele>609.0</ele><time>2026-04-18T16:05:21Z</time></trkpt><trkpt lat="46.00574984140243" lon="6.193539691001101"><ele>607.6666666666666</ele><time>2026-04-18T16:05:22Z</time></trkpt><trkpt lat="46.00587214825805" lon="6.193726398064779"><ele>606.3333333333333</ele><time>2026-04-18T16:05:23Z</time></trkpt><trkpt lat="46.00599376387417" lon="6.1939441431988085"><ele>605.0</ele><time>2026-04-18T16:05:24Z</time></trkpt><trkpt lat="46.006094782069425" lon="6.194158858371497"><ele>608.6666666666666</ele><time>2026-04-18T16:05:25Z</time></trkpt><trkpt lat="46.00618252308354" lon="6.1943768181384335"><ele>612.3333333333334</ele><time>2026-04-18T16:05:26Z</time></trkpt><trkpt lat="46.0062956840863" lon="6.194569943947341"><ele>616.0</ele><time>2026-04-18T16:05:27Z</time></trkpt><trkpt lat="46.00636944195098" lon="6.194766446838719"><ele>618.0</ele><time>2026-04-18T16:05:28Z</time></trkpt><trkpt lat="46.00643979818867" lon="6.19494817772833"><ele>620.0</ele><time>2026-04-18T16:05:29Z</time></trkpt><trkpt lat="46.00651157386259" lon="6.195101544113384"><ele>622.0</ele><time>2026-04-18T16:05:30Z</time></trkpt><trkpt lat="46.006574599443795" lon="6.195230064489921"><ele>624.0</ele><time>2026-04-18T16:05:31Z</time></trkpt><trkpt lat="46.006637964085854" lon="6.19533664916944"><ele>621.3333333333334</ele><time>2026-04-18T16:05:32Z</time></trkpt><trkpt lat="46.00670938813542" lon="6.195407330219873"><ele>618.6666666666666</ele><time>2026-04-18T16:05:33Z</time></trkpt><trkpt lat="46.00679701908874" lon="6.195439323119865"><ele>616.0</ele><time>2026-04-18T16:05:34Z</time></trkpt><trkpt lat="46.00687578624329" lon="6.195422049213793"><ele>613.3333333333333</ele><time>2026-04-18T16:05:35Z</time></trkpt><trkpt lat="46.0069385255791" lon="6.1953570099869655"><ele>610.6666666666666</ele><time>2026-04-18T16:05:36Z</time></trkpt><trkpt lat="46.00698134462094" lon="6.195250073458512"><ele>608.0</ele><time>2026-04-18T16:05:37Z</time></trkpt><trkpt lat="46.00698684872269" lon="6.195125377740272"><ele>608.0</ele><time>2026-04-18T16:05:38Z</time></trkpt><trkpt lat="46.00696578182416" lon="6.194989154851897"><ele>608.0</ele><time>2026-04-18T16:05:39Z</time></trkpt><trkpt lat="46.00692625938193" lon="6.194875337861143"><ele>608.0</ele><time>2026-04-18T16:05:40Z</time></trkpt><trkpt lat="46.00686578660745" lon="6.194736965286908"><ele>608.0</ele><time>2026-04-18T16:05:41Z</time></trkpt><trkpt lat="46.00678966140935" lon="6.19455207095199"><ele>608.0</ele><time>2026-04-18T16:05:42Z</time></trkpt><trkpt lat="46.00670069489279" lon="6.19433769111104"><ele>607.0</ele><time>2026-04-18T16:05:43Z</time></trkpt><trkpt lat="46.00659751307499" lon="6.194083079499856"><ele>606.0</ele><time>2026-04-18T16:05:44Z</time></trkpt><trkpt lat="46.006483693998966" lon="6.193806169773704"><ele>605.0</ele><time>2026-04-18T16:05:45Z</time></trkpt><trkpt lat="46.006381192485414" lon="6.193521585409099"><ele>605.0</ele><time>2026-04-18T16:05:46Z</time></trkpt><trkpt lat="46.00627521933412" lon="6.1932179150668505"><ele>605.0</ele><time>2026-04-18T16:05:47Z</time></trkpt><trkpt lat="46.00616805300859" lon="6.192904048729488"><ele>598.5</ele><time>2026-04-18T16:05:48Z</time></trkpt><trkpt lat="46.00604110465004" lon="6.192551778078045"><ele>592.0</ele><time>2026-04-18T16:05:49Z</time></trkpt><trkpt lat="46.00591826162971" lon="6.192207833400321"><ele>592.0</ele><time>2026-04-18T16:05:50Z</time></trkpt><trkpt lat="46.0058027848076" lon="6.191875828873534"><ele>592.0</ele><time>2026-04-18T16:05:51Z</time></trkpt><trkpt lat="46.00569335038689" lon="6.191554181963009"><ele>585.5</ele><time>2026-04-18T16:05:52Z</time></trkpt><trkpt lat="46.00558282817857" lon="6.19124903574291"><ele>579.0</ele><time>2026-04-18T16:05:53Z</time></trkpt><trkpt lat="46.005468182914335" lon="6.190961263801193"><ele>579.0</ele><time>2026-04-18T16:05:54Z</time></trkpt><trkpt lat="46.00534863678468" lon="6.190685335658108"><ele>579.0</ele><time>2026-04-18T16:05:55Z</time></trkpt><trkpt lat="46.00522615403617" lon="6.1904181159209495"><ele>579.0</ele><time>2026-04-18T16:05:56Z</time></trkpt><trkpt lat="46.0051010541649" lon="6.190150526926982"><ele>575.6666666666666</ele><time>2026-04-18T16:05:57Z</time></trkpt><trkpt lat="46.004976370215765" lon="6.189900058445356"><ele>572.3333333333333</ele><time>2026-04-18T16:05:58Z</time></trkpt><trkpt lat="46.00484013833269" lon="6.189669658153816"><ele>569.0</ele><time>2026-04-18T16:05:59Z</time></trkpt><trkpt lat="46.00469928749359" lon="6.1894637241918975"><ele>567.0</ele><time>2026-04-18T16:06:00Z</time></trkpt><trkpt lat="46.00454816132184" lon="6.1892723184347656"><ele>565.0</ele><time>2026-04-18T16:06:01Z</time></trkpt><trkpt lat="46.004376356630495" lon="6.18908241048644"><ele>563.0</ele><time>2026-04-18T16:06:02Z</time></trkpt><trkpt lat="46.00418438619194" lon="6.188883411538768"><ele>560.5</ele><time>2026-04-18T16:06:03Z</time></trkpt><trkpt lat="46.0039580754162" lon="6.188720383966201"><ele>558.0</ele><time>2026-04-18T16:06:04Z</time></trkpt><trkpt lat="46.00375134765064" lon="6.188539862740621"><ele>558.0</ele><time>2026-04-18T16:06:05Z</time></trkpt><trkpt lat="46.00356759565322" lon="6.188356757160676"><ele>558.0</ele><time>2026-04-18T16:06:06Z</time></trkpt><trkpt lat="46.00341435553629" lon="6.188142931745362"><ele>558.0</ele><time>2026-04-18T16:06:07Z</time></trkpt><trkpt lat="46.003253255370545" lon="6.187924573637215"><ele>556.0</ele><time>2026-04-18T16:06:08Z</time></trkpt><trkpt lat="46.00311352780629" lon="6.187655394393523"><ele>554.0</ele><time>2026-04-18T16:06:09Z</time></trkpt><trkpt lat="46.00299270599252" lon="6.187349502550962"><ele>553.5</ele><time>2026-04-18T16:06:10Z</time></trkpt><trkpt lat="46.0028828185908" lon="6.187021166179949"><ele>553.0</ele><time>2026-04-18T16:06:11Z</time></trkpt><trkpt lat="46.002803227035294" lon="6.186644284781805"><ele>554.0</ele><time>2026-04-18T16:06:12Z</time></trkpt><trkpt lat="46.002692105945236" lon="6.186267948712232"><ele>555.0</ele><time>2026-04-18T16:06:13Z</time></trkpt><trkpt lat="46.002607054558176" lon="6.185901777862589"><ele>555.0</ele><time>2026-04-18T16:06:14Z</time></trkpt><trkpt lat="46.0025264091627" lon="6.1855664032458035"><ele>555.0</ele><time>2026-04-18T16:06:15Z</time></trkpt><trkpt lat="46.0024482021648" lon="6.185253629250701"><ele>553.6666666666666</ele><time>2026-04-18T16:06:16Z</time></trkpt><trkpt lat="46.00237704299718" lon="6.184954296227577"><ele>552.3333333333333</ele><time>2026-04-18T16:06:17Z</time></trkpt><trkpt lat="46.00230392579775" lon="6.184652347344343"><ele>551.0</ele><time>2026-04-18T16:06:18Z</time></trkpt><trkpt lat="46.00222907088936" lon="6.1843485849220565"><ele>551.0</ele><time>2026-04-18T16:06:19Z</time></trkpt><trkpt lat="46.00214918548123" lon="6.184044859884967"><ele>551.0</ele><time>2026-04-18T16:06:20Z</time></trkpt><trkpt lat="46.002063182466465" lon="6.183762335263646"><ele>551.0</ele><time>2026-04-18T16:06:21Z</time></trkpt><trkpt lat="46.00197047362855" lon="6.183500812624443"><ele>551.0</ele><time>2026-04-18T16:06:22Z</time></trkpt><trkpt lat="46.001871781322635" lon="6.183239643312123"><ele>551.0</ele><time>2026-04-18T16:06:23Z</time></trkpt><trkpt lat="46.00175473911957" lon="6.1829686077396016"><ele>551.0</ele><time>2026-04-18T16:06:24Z</time></trkpt><trkpt lat="46.00161814133033" lon="6.1826874867215595"><ele>550.5</ele><time>2026-04-18T16:06:25Z</time></trkpt><trkpt lat="46.00147080297093" lon="6.18241207124616"><ele>550.0</ele><time>2026-04-18T16:06:26Z</time></trkpt><trkpt lat="46.00131708017844" lon="6.182157393315124"><ele>550.0</ele><time>2026-04-18T16:06:27Z</time></trkpt><trkpt lat="46.00116795567011" lon="6.181938568080812"><ele>550.0</ele><time>2026-04-18T16:06:28Z</time></trkpt><trkpt lat="46.00101940812932" lon="6.181742197402886"><ele>550.0</ele><time>2026-04-18T16:06:29Z</time></trkpt><trkpt lat="46.00086963417723" lon="6.181545654349414"><ele>549.6666666666667</ele><time>2026-04-18T16:06:30Z</time></trkpt><trkpt lat="46.00072368693902" lon="6.181356156184328"><ele>549.3333333333334</ele><time>2026-04-18T16:06:31Z</time></trkpt><trkpt lat="46.000587322741495" lon="6.181177544707909"><ele>549.0</ele><time>2026-04-18T16:06:32Z</time></trkpt><trkpt lat="46.000463685676756" lon="6.181009160472161"><ele>549.0</ele><time>2026-04-18T16:06:33Z</time></trkpt><trkpt lat="46.00035195208353" lon="6.180864048307731"><ele>549.0</ele><time>2026-04-18T16:06:34Z</time></trkpt><trkpt lat="46.000252246418114" lon="6.18073131010692"><ele>549.0</ele><time>2026-04-18T16:06:35Z</time></trkpt><trkpt lat="46.00016100613533" lon="6.180605120564535"><ele>549.0</ele><time>2026-04-18T16:06:36Z</time></trkpt><trkpt lat="46.00008596080861" lon="6.180480178896366"><ele>548.6666666666666</ele><time>2026-04-18T16:06:37Z</time></trkpt><trkpt lat="46.000034199433735" lon="6.1803571531970825"><ele>548.3333333333334</ele><time>2026-04-18T16:06:38Z</time></trkpt><trkpt lat="46.000001032732925" lon="6.180236045160897"><ele>548.0</ele><time>2026-04-18T16:06:39Z</time></trkpt><trkpt lat="45.9999791111422" lon="6.180118036314772"><ele>547.6666666666667</ele><time>2026-04-18T16:06:40Z</time></trkpt><trkpt lat="45.99994771273183" lon="6.180031124282601"><ele>547.3333333333334</ele><time>2026-04-18T16:06:41Z</time></trkpt><trkpt lat="45.99989527914085" lon="6.179972020818644"><ele>547.0</ele><time>2026-04-18T16:06:42Z</time></trkpt><trkpt lat="45.99982752420442" lon="6.179941389171829"><ele>547.0</ele><time>2026-04-18T16:06:43Z</time></trkpt><trkpt lat="45.99973991091746" lon="6.1799301200971"><ele>547.0</ele><time>2026-04-18T16:06:44Z</time></trkpt><trkpt lat="45.99964161165186" lon="6.179889464537721"><ele>547.0</ele><time>2026-04-18T16:06:45Z</time></trkpt><trkpt lat="45.99955152881412" lon="6.179791594380637"><ele>547.0</ele><time>2026-04-18T16:06:46Z</time></trkpt><trkpt lat="45.999446425070566" lon="6.179634087108417"><ele>546.3333333333334</ele><time>2026-04-18T16:06:47Z</time></trkpt><trkpt lat="45.99933205408427" lon="6.179469440878939"><ele>545.6666666666666</ele><time>2026-04-18T16:06:48Z</time></trkpt><trkpt lat="45.999194104058915" lon="6.179281213955682"><ele>545.0</ele><time>2026-04-18T16:06:49Z</time></trkpt><trkpt lat="45.999039604408715" lon="6.179064364917752"><ele>544.6666666666666</ele><time>2026-04-18T16:06:50Z</time></trkpt><trkpt lat="45.99888599943164" lon="6.178846481291073"><ele>544.3333333333334</ele><time>2026-04-18T16:06:51Z</time></trkpt><trkpt lat="45.99872208172299" lon="6.178631383858685"><ele>544.0</ele><time>2026-04-18T16:06:52Z</time></trkpt><trkpt lat="45.998554477136985" lon="6.17841433235468"><ele>543.5</ele><time>2026-04-18T16:06:53Z</time></trkpt><trkpt lat="45.99837865702215" lon="6.17817599278439"><ele>543.0</ele><time>2026-04-18T16:06:54Z</time></trkpt><trkpt lat="45.99820101529647" lon="6.177930994284056"><ele>543.0</ele><time>2026-04-18T16:06:55Z</time></trkpt><trkpt lat="45.998010492403935" lon="6.177677258417413"><ele>543.0</ele><time>2026-04-18T16:06:56Z</time></trkpt><trkpt lat="45.99780644206278" lon="6.177403971472541"><ele>542.5</ele><time>2026-04-18T16:06:57Z</time></trkpt><trkpt lat="45.997582317910734" lon="6.177102135084891"><ele>542.0</ele><time>2026-04-18T16:06:58Z</time></trkpt><trkpt lat="45.997345680832574" lon="6.176786743247611"><ele>547.0</ele><time>2026-04-18T16:06:59Z</time></trkpt><trkpt lat="45.99710433207679" lon="6.1764617730938625"><ele>552.0</ele><time>2026-04-18T16:07:00Z</time></trkpt><trkpt lat="45.99687338438692" lon="6.176150333025446"><ele>548.5</ele><time>2026-04-18T16:07:01Z</time></trkpt><trkpt lat="45.99665723372384" lon="6.175859814803324"><ele>545.0</ele><time>2026-04-18T16:07:02Z</time></trkpt><trkpt lat="45.99644658418939" lon="6.175599875455697"><ele>553.0</ele><time>2026-04-18T16:07:03Z</time></trkpt><trkpt lat="45.996225789019284" lon="6.175374237508063"><ele>561.0</ele><time>2026-04-18T16:07:04Z</time></trkpt><trkpt lat="45.99600557777806" lon="6.1751718629797185"><ele>562.5</ele><time>2026-04-18T16:07:05Z</time></trkpt><trkpt lat="45.995771812015164" lon="6.174963259836813"><ele>564.0</ele><time>2026-04-18T16:07:06Z</time></trkpt><trkpt lat="45.99554475249622" lon="6.174756504137275"><ele>564.0</ele><time>2026-04-18T16:07:07Z</time></trkpt><trkpt lat="45.99534166448029" lon="6.17456412280792"><ele>564.0</ele><time>2026-04-18T16:07:08Z</time></trkpt><trkpt lat="45.995157151807625" lon="6.174390370043661"><ele>565.3333333333334</ele><time>2026-04-18T16:07:09Z</time></trkpt><trkpt lat="45.99497300288429" lon="6.174221717197808"><ele>566.6666666666667</ele><time>2026-04-18T16:07:10Z</time></trkpt><trkpt lat="45.99478904657156" lon="6.1740820036892385"><ele>568.0</ele><time>2026-04-18T16:07:11Z</time></trkpt><trkpt lat="45.99460556565753" lon="6.173978839501346"><ele>568.0</ele><time>2026-04-18T16:07:12Z</time></trkpt><trkpt lat="45.994421316284686" lon="6.173897501519823"><ele>568.0</ele><time>2026-04-18T16:07:13Z</time></trkpt><trkpt lat="45.99423873089909" lon="6.173809048361166"><ele>568.0</ele><time>2026-04-18T16:07:14Z</time></trkpt><trkpt lat="45.99405113658379" lon="6.17369658421211"><ele>562.3333333333334</ele><time>2026-04-18T16:07:15Z</time></trkpt><trkpt lat="45.99385313668281" lon="6.173554687942971"><ele>556.6666666666666</ele><time>2026-04-18T16:07:16Z</time></trkpt><trkpt lat="45.99365579125997" lon="6.173392113313977"><ele>551.0</ele><time>2026-04-18T16:07:17Z</time></trkpt><trkpt lat="45.99345471027664" lon="6.173221277840219"><ele>552.0</ele><time>2026-04-18T16:07:18Z</time></trkpt><trkpt lat="45.99324818048767" lon="6.173050045158631"><ele>553.0</ele><time>2026-04-18T16:07:19Z</time></trkpt><trkpt lat="45.99304254169109" lon="6.172878584328295"><ele>553.0</ele><time>2026-04-18T16:07:20Z</time></trkpt><trkpt lat="45.992844912465166" lon="6.172710626735152"><ele>553.0</ele><time>2026-04-18T16:07:21Z</time></trkpt><trkpt lat="45.99265612428868" lon="6.172550609673641"><ele>553.0</ele><time>2026-04-18T16:07:22Z</time></trkpt><trkpt lat="45.99247015349961" lon="6.172393218990069"><ele>551.5</ele><time>2026-04-18T16:07:23Z</time></trkpt><trkpt lat="45.99227949725031" lon="6.172231138711475"><ele>550.0</ele><time>2026-04-18T16:07:24Z</time></trkpt><trkpt lat="45.99207911433517" lon="6.1720621935029225"><ele>550.0</ele><time>2026-04-18T16:07:25Z</time></trkpt><trkpt lat="45.991877522376754" lon="6.171889497435199"><ele>550.0</ele><time>2026-04-18T16:07:26Z</time></trkpt><trkpt lat="45.99167211761279" lon="6.17171891827947"><ele>546.5</ele><time>2026-04-18T16:07:27Z</time></trkpt><trkpt lat="45.99146713062477" lon="6.171549687462364"><ele>543.0</ele><time>2026-04-18T16:07:28Z</time></trkpt><trkpt lat="45.99126217666318" lon="6.171389792601848"><ele>543.0</ele><time>2026-04-18T16:07:29Z</time></trkpt><trkpt lat="45.991069591232694" lon="6.171251668506688"><ele>543.0</ele><time>2026-04-18T16:07:30Z</time></trkpt><trkpt lat="45.99088607237451" lon="6.171126004464118"><ele>543.0</ele><time>2026-04-18T16:07:31Z</time></trkpt><trkpt lat="45.990706780130466" lon="6.171007105940633"><ele>538.3333333333334</ele><time>2026-04-18T16:07:32Z</time></trkpt><trkpt lat="45.99054323750355" lon="6.170906152393906"><ele>533.6666666666667</ele><time>2026-04-18T16:07:33Z</time></trkpt><trkpt lat="45.99038258995892" lon="6.170799190928149"><ele>529.0</ele><time>2026-04-18T16:07:34Z</time></trkpt><trkpt lat="45.99022025591525" lon="6.170698125736465"><ele>531.0</ele><time>2026-04-18T16:07:35Z</time></trkpt><trkpt lat="45.99004101370582" lon="6.170584729351868"><ele>533.0</ele><time>2026-04-18T16:07:36Z</time></trkpt><trkpt lat="45.989847542637364" lon="6.170434680912094"><ele>535.0</ele><time>2026-04-18T16:07:37Z</time></trkpt><trkpt lat="45.98963504134346" lon="6.170293699736385"><ele>535.0</ele><time>2026-04-18T16:07:38Z</time></trkpt><trkpt lat="45.98940909864676" lon="6.170143801224147"><ele>535.0</ele><time>2026-04-18T16:07:39Z</time></trkpt><trkpt lat="45.98916981440155" lon="6.1699850541939885"><ele>541.0</ele><time>2026-04-18T16:07:40Z</time></trkpt><trkpt lat="45.98893279656055" lon="6.169827811991388"><ele>547.0</ele><time>2026-04-18T16:07:41Z</time></trkpt><trkpt lat="45.98871102628276" lon="6.169697490181123"><ele>547.0</ele><time>2026-04-18T16:07:42Z</time></trkpt><trkpt lat="45.98851244046031" lon="6.169555607425907"><ele>547.0</ele><time>2026-04-18T16:07:43Z</time></trkpt><trkpt lat="45.988333808704745" lon="6.169434026762297"><ele>547.0</ele><time>2026-04-18T16:07:44Z</time></trkpt><trkpt lat="45.98815929203986" lon="6.169320043128738"><ele>541.0</ele><time>2026-04-18T16:07:45Z</time></trkpt><trkpt lat="45.98796175252095" lon="6.16919712931802"><ele>535.0</ele><time>2026-04-18T16:07:46Z</time></trkpt><trkpt lat="45.98774611265322" lon="6.1690576611022525"><ele>538.5</ele><time>2026-04-18T16:07:47Z</time></trkpt><trkpt lat="45.98752819333302" lon="6.168890762562793"><ele>542.0</ele><time>2026-04-18T16:07:48Z</time></trkpt><trkpt lat="45.98730071840582" lon="6.168698893999824"><ele>542.0</ele><time>2026-04-18T16:07:49Z</time></trkpt><trkpt lat="45.98708266989862" lon="6.168524359116759"><ele>542.0</ele><time>2026-04-18T16:07:50Z</time></trkpt><trkpt lat="45.98687234962245" lon="6.168338138097842"><ele>536.5</ele><time>2026-04-18T16:07:51Z</time></trkpt><trkpt lat="45.98666352813214" lon="6.168141011032337"><ele>531.0</ele><time>2026-04-18T16:07:52Z</time></trkpt><trkpt lat="45.98645292499582" lon="6.167930790179452"><ele>531.0</ele><time>2026-04-18T16:07:53Z</time></trkpt><trkpt lat="45.986234600240884" lon="6.167711750084106"><ele>531.0</ele><time>2026-04-18T16:07:54Z</time></trkpt><trkpt lat="45.986026468109586" lon="6.1675004890883525"><ele>529.0</ele><time>2026-04-18T16:07:55Z</time></trkpt><trkpt lat="45.98582745433303" lon="6.167295442735197"><ele>527.0</ele><time>2026-04-18T16:07:56Z</time></trkpt><trkpt lat="45.98563035944887" lon="6.167102268230262"><ele>527.0</ele><time>2026-04-18T16:07:57Z</time></trkpt><trkpt lat="45.98541641831972" lon="6.1669149583987695"><ele>527.0</ele><time>2026-04-18T16:07:58Z</time></trkpt><trkpt lat="45.98519166792676" lon="6.166740691780781"><ele>526.5</ele><time>2026-04-18T16:07:59Z</time></trkpt><trkpt lat="45.98495933290694" lon="6.166583494529783"><ele>526.0</ele><time>2026-04-18T16:08:00Z</time></trkpt><trkpt lat="45.98472533133152" lon="6.166443028149638"><ele>526.0</ele><time>2026-04-18T16:08:01Z</time></trkpt><trkpt lat="45.98450351486214" lon="6.166310494089317"><ele>526.0</ele><time>2026-04-18T16:08:02Z</time></trkpt><trkpt lat="45.984293560656496" lon="6.1661884433638825"><ele>525.6666666666667</ele><time>2026-04-18T16:08:03Z</time></trkpt><trkpt lat="45.984094405261715" lon="6.16607086440894"><ele>525.3333333333334</ele><time>2026-04-18T16:08:04Z</time></trkpt><trkpt lat="45.98389642981719" lon="6.165949510379404"><ele>525.0</ele><time>2026-04-18T16:08:05Z</time></trkpt><trkpt lat="45.98369172360772" lon="6.165818138046285"><ele>526.5</ele><time>2026-04-18T16:08:06Z</time></trkpt><trkpt lat="45.98348067656591" lon="6.165685511407226"><ele>528.0</ele><time>2026-04-18T16:08:07Z</time></trkpt><trkpt lat="45.98326025196193" lon="6.165560761229583"><ele>528.0</ele><time>2026-04-18T16:08:08Z</time></trkpt><trkpt lat="45.983040289594356" lon="6.165449068893514"><ele>528.0</ele><time>2026-04-18T16:08:09Z</time></trkpt><trkpt lat="45.98280326618145" lon="6.165342633429304"><ele>528.0</ele><time>2026-04-18T16:08:10Z</time></trkpt><trkpt lat="45.982568459748684" lon="6.165251394039105"><ele>528.0</ele><time>2026-04-18T16:08:11Z</time></trkpt><trkpt lat="45.98232910878315" lon="6.165167747558431"><ele>527.0</ele><time>2026-04-18T16:08:12Z</time></trkpt><trkpt lat="45.982070057011825" lon="6.16509894464322"><ele>526.0</ele><time>2026-04-18T16:08:13Z</time></trkpt><trkpt lat="45.9818172183854" lon="6.165032483403223"><ele>525.0</ele><time>2026-04-18T16:08:14Z</time></trkpt><trkpt lat="45.98156399812046" lon="6.164971674765026"><ele>524.0</ele><time>2026-04-18T16:08:15Z</time></trkpt><trkpt lat="45.98132685438654" lon="6.164905984812471"><ele>527.0</ele><time>2026-04-18T16:08:16Z</time></trkpt><trkpt lat="45.981101003435676" lon="6.16483919986765"><ele>530.0</ele><time>2026-04-18T16:08:17Z</time></trkpt><trkpt lat="45.980886172859464" lon="6.164775308294353"><ele>529.0</ele><time>2026-04-18T16:08:18Z</time></trkpt><trkpt lat="45.980675688941695" lon="6.164717314418655"><ele>528.0</ele><time>2026-04-18T16:08:19Z</time></trkpt><trkpt lat="45.980476983705294" lon="6.164659664893311"><ele>527.0</ele><time>2026-04-18T16:08:20Z</time></trkpt><trkpt lat="45.980287296535224" lon="6.164605080289869"><ele>527.0</ele><time>2026-04-18T16:08:21Z</time></trkpt><trkpt lat="45.98011067009449" lon="6.1645533045488"><ele>527.0</ele><time>2026-04-18T16:08:22Z</time></trkpt><trkpt lat="45.979938497203406" lon="6.164504184128581"><ele>527.0</ele><time>2026-04-18T16:08:23Z</time></trkpt><trkpt lat="45.979772768265526" lon="6.16445512330028"><ele>526.6666666666666</ele><time>2026-04-18T16:08:24Z</time></trkpt><trkpt lat="45.97960935972824" lon="6.164395672005598"><ele>526.3333333333334</ele><time>2026-04-18T16:08:25Z</time></trkpt><trkpt lat="45.97945799234153" lon="6.164332113659887"><ele>526.0</ele><time>2026-04-18T16:08:26Z</time></trkpt><trkpt lat="45.979303858250994" lon="6.164280582359205"><ele>525.0</ele><time>2026-04-18T16:08:27Z</time></trkpt><trkpt lat="45.97915654939716" lon="6.164270997926703"><ele>524.0</ele><time>2026-04-18T16:08:28Z</time></trkpt><trkpt lat="45.979003608471956" lon="6.164287761885416"><ele>523.0</ele><time>2026-04-18T16:08:29Z</time></trkpt><trkpt lat="45.97883335650277" lon="6.164299031431309"><ele>523.0</ele><time>2026-04-18T16:08:30Z</time></trkpt><trkpt lat="45.9786504701451" lon="6.164292663301735"><ele>523.0</ele><time>2026-04-18T16:08:31Z</time></trkpt><trkpt lat="45.97846937366142" lon="6.164280513922483"><ele>523.0</ele><time>2026-04-18T16:08:32Z</time></trkpt><trkpt lat="45.978281702588774" lon="6.164270695476374"><ele>522.3333333333334</ele><time>2026-04-18T16:08:33Z</time></trkpt><trkpt lat="45.97808807229615" lon="6.164256039832266"><ele>521.6666666666666</ele><time>2026-04-18T16:08:34Z</time></trkpt><trkpt lat="45.97789895024891" lon="6.164231044059943"><ele>521.0</ele><time>2026-04-18T16:08:35Z</time></trkpt><trkpt lat="45.97771104946949" lon="6.164206858381897"><ele>521.0</ele><time>2026-04-18T16:08:36Z</time></trkpt><trkpt lat="45.977529594709026" lon="6.16419082156575"><ele>521.0</ele><time>2026-04-18T16:08:37Z</time></trkpt><trkpt lat="45.97734917915976" lon="6.164183667698465"><ele>521.0</ele><time>2026-04-18T16:08:38Z</time></trkpt><trkpt lat="45.977170340559866" lon="6.164177124287915"><ele>520.6666666666666</ele><time>2026-04-18T16:08:39Z</time></trkpt><trkpt lat="45.97699197482937" lon="6.164168489193507"><ele>520.3333333333334</ele><time>2026-04-18T16:08:40Z</time></trkpt><trkpt lat="45.976815969718096" lon="6.164162541919416"><ele>520.0</ele><time>2026-04-18T16:08:41Z</time></trkpt><trkpt lat="45.976630821669" lon="6.164160598055128"><ele>519.0</ele><time>2026-04-18T16:08:42Z</time></trkpt><trkpt lat="45.97644166982253" lon="6.164159350675161"><ele>518.0</ele><time>2026-04-18T16:08:43Z</time></trkpt><trkpt lat="45.976254834795135" lon="6.164160364700564"><ele>517.0</ele><time>2026-04-18T16:08:44Z</time></trkpt><trkpt lat="45.97606701959094" lon="6.16415520247037"><ele>517.0</ele><time>2026-04-18T16:08:45Z</time></trkpt><trkpt lat="45.975889905889126" lon="6.164150091580264"><ele>517.0</ele><time>2026-04-18T16:08:46Z</time></trkpt><trkpt lat="45.975718778777676" lon="6.164141756072942"><ele>517.0</ele><time>2026-04-18T16:08:47Z</time></trkpt><trkpt lat="45.975557967062386" lon="6.164131548212105"><ele>517.3333333333334</ele><time>2026-04-18T16:08:48Z</time></trkpt><trkpt lat="45.9753971466899" lon="6.164123638202266"><ele>517.6666666666666</ele><time>2026-04-18T16:08:49Z</time></trkpt><trkpt lat="45.975241727394" lon="6.164116550815819"><ele>518.0</ele><time>2026-04-18T16:08:49.999Z</time></trkpt><trkpt lat="45.975091579195066" lon="6.164112394244797"><ele>517.5</ele><time>2026-04-18T16:08:50.999Z</time></trkpt><trkpt lat="45.974941562835205" lon="6.164107352387755"><ele>517.0</ele><time>2026-04-18T16:08:51.999Z</time></trkpt><trkpt lat="45.97479453424042" lon="6.164102250727593"><ele>516.5</ele><time>2026-04-18T16:08:52.999Z</time></trkpt><trkpt lat="45.97464847257352" lon="6.164092590825348"><ele>516.0</ele><time>2026-04-18T16:08:53.999Z</time></trkpt><trkpt lat="45.974504176818684" lon="6.164078988327883"><ele>516.0</ele><time>2026-04-18T16:08:54.999Z</time></trkpt><trkpt lat="45.97435977411342" lon="6.164066390073531"><ele>516.0</ele><time>2026-04-18T16:08:55.999Z</time></trkpt><trkpt lat="45.97420503769661" lon="6.164059137247384"><ele>516.0</ele><time>2026-04-18T16:08:56.999Z</time></trkpt><trkpt lat="45.97404532163755" lon="6.164053367419325"><ele>516.0</ele><time>2026-04-18T16:08:57.999Z</time></trkpt><trkpt lat="45.973876927566906" lon="6.164043102118885"><ele>516.0</ele><time>2026-04-18T16:08:58.999Z</time></trkpt><trkpt lat="45.973702610219036" lon="6.164031206332922"><ele>516.0</ele><time>2026-04-18T16:08:59.999Z</time></trkpt><trkpt lat="45.97351936016644" lon="6.164023825446241"><ele>515.0</ele><time>2026-04-18T16:09:00.999Z</time></trkpt><trkpt lat="45.97333253406274" lon="6.164014757086865"><ele>514.0</ele><time>2026-04-18T16:09:01.999Z</time></trkpt><trkpt lat="45.97313516586427" lon="6.164001919071636"><ele>513.0</ele><time>2026-04-18T16:09:02.999Z</time></trkpt><trkpt lat="45.972931600751025" lon="6.1639869373690175"><ele>513.0</ele><time>2026-04-18T16:09:03.999Z</time></trkpt><trkpt lat="45.972720755219655" lon="6.163973185931158"><ele>513.0</ele><time>2026-04-18T16:09:04.999Z</time></trkpt><trkpt lat="45.97250761767583" lon="6.163963655846042"><ele>513.0</ele><time>2026-04-18T16:09:05.999Z</time></trkpt><trkpt lat="45.972291528137134" lon="6.163951238192919"><ele>513.0</ele><time>2026-04-18T16:09:06.999Z</time></trkpt><trkpt lat="45.97207747664156" lon="6.163939005880827"><ele>513.0</ele><time>2026-04-18T16:09:07.999Z</time></trkpt><trkpt lat="45.971860864112976" lon="6.163928215955231"><ele>513.0</ele><time>2026-04-18T16:09:08.999Z</time></trkpt><trkpt lat="45.9716482117439" lon="6.163918926274957"><ele>514.3333333333334</ele><time>2026-04-18T16:09:09.999Z</time></trkpt><trkpt lat="45.97144033851802" lon="6.163909834133054"><ele>515.6666666666667</ele><time>2026-04-18T16:09:10.999Z</time></trkpt><trkpt lat="45.971233852630725" lon="6.163901075553827"><ele>517.0</ele><time>2026-04-18T16:09:11.999Z</time></trkpt><trkpt lat="45.97103331086842" lon="6.163891585733524"><ele>516.6666666666667</ele><time>2026-04-18T16:09:12.999Z</time></trkpt><trkpt lat="45.97082215281136" lon="6.163880482876517"><ele>516.3333333333334</ele><time>2026-04-18T16:09:13.999Z</time></trkpt><trkpt lat="45.97060925009823" lon="6.163870397118312"><ele>516.0</ele><time>2026-04-18T16:09:14.999Z</time></trkpt><trkpt lat="45.970402820151484" lon="6.163859289347666"><ele>516.0</ele><time>2026-04-18T16:09:15.999Z</time></trkpt><trkpt lat="45.970205345116554" lon="6.163848726090487"><ele>516.0</ele><time>2026-04-18T16:09:16.999Z</time></trkpt><trkpt lat="45.970015003173664" lon="6.163836937277491"><ele>516.0</ele><time>2026-04-18T16:09:18Z</time></trkpt><trkpt lat="45.96982081133956" lon="6.163827477166169"><ele>516.0</ele><time>2026-04-18T16:09:19Z</time></trkpt><trkpt lat="45.969621445029006" lon="6.16381519212069"><ele>516.0</ele><time>2026-04-18T16:09:20Z</time></trkpt><trkpt lat="45.96942770610888" lon="6.163805093137772"><ele>516.0</ele><time>2026-04-18T16:09:21Z</time></trkpt><trkpt lat="45.96924616844354" lon="6.16379361811912"><ele>515.6666666666666</ele><time>2026-04-18T16:09:22Z</time></trkpt><trkpt lat="45.9690710516764" lon="6.163778160390209"><ele>515.3333333333333</ele><time>2026-04-18T16:09:23Z</time></trkpt><trkpt lat="45.96889948088585" lon="6.163764186288602"><ele>515.0</ele><time>2026-04-18T16:09:24Z</time></trkpt><trkpt lat="45.96873065749564" lon="6.16375596127285"><ele>515.0</ele><time>2026-04-18T16:09:25Z</time></trkpt><trkpt lat="45.96857432901954" lon="6.163748089003138"><ele>515.0</ele><time>2026-04-18T16:09:26Z</time></trkpt><trkpt lat="45.968423141520304" lon="6.163748767251448"><ele>515.0</ele><time>2026-04-18T16:09:27Z</time></trkpt><trkpt lat="45.96828957506709" lon="6.1637557260308355"><ele>515.0</ele><time>2026-04-18T16:09:28Z</time></trkpt><trkpt lat="45.968172020830146" lon="6.163767507964743"><ele>514.25</ele><time>2026-04-18T16:09:29Z</time></trkpt><trkpt lat="45.968054379957174" lon="6.16377993749177"><ele>513.5</ele><time>2026-04-18T16:09:30Z</time></trkpt><trkpt lat="45.967931794951646" lon="6.163799911471717"><ele>512.75</ele><time>2026-04-18T16:09:31Z</time></trkpt><trkpt lat="45.96780642203811" lon="6.163830388866897"><ele>512.0</ele><time>2026-04-18T16:09:32Z</time></trkpt><trkpt lat="45.9676859154234" lon="6.163857940413933"><ele>512.0</ele><time>2026-04-18T16:09:33Z</time></trkpt><trkpt lat="45.96755456148392" lon="6.163896549739122"><ele>512.0</ele><time>2026-04-18T16:09:34Z</time></trkpt><trkpt lat="45.96741817682469" lon="6.163936454583235"><ele>512.0</ele><time>2026-04-18T16:09:35Z</time></trkpt><trkpt lat="45.9672771286897" lon="6.16398294568157"><ele>512.0</ele><time>2026-04-18T16:09:36Z</time></trkpt><trkpt lat="45.96713452078624" lon="6.164033892694151"><ele>511.3333333333333</ele><time>2026-04-18T16:09:37Z</time></trkpt><trkpt lat="45.96698802211486" lon="6.164088089738465"><ele>510.66666666666663</ele><time>2026-04-18T16:09:38Z</time></trkpt><trkpt lat="45.966838650903576" lon="6.164138609388095"><ele>510.0</ele><time>2026-04-18T16:09:39Z</time></trkpt><trkpt lat="45.96668622248035" lon="6.16419116796705"><ele>510.0</ele><time>2026-04-18T16:09:40Z</time></trkpt><trkpt lat="45.96652641971263" lon="6.164240180446991"><ele>510.0</ele><time>2026-04-18T16:09:41Z</time></trkpt><trkpt lat="45.96636031354373" lon="6.164290183988854"><ele>510.0</ele><time>2026-04-18T16:09:42Z</time></trkpt><trkpt lat="45.9661806908635" lon="6.16434779270711"><ele>510.0</ele><time>2026-04-18T16:09:43Z</time></trkpt><trkpt lat="45.96599796459882" lon="6.164406892944801"><ele>510.0</ele><time>2026-04-18T16:09:44Z</time></trkpt><trkpt lat="45.96581801467118" lon="6.164460873797856"><ele>510.0</ele><time>2026-04-18T16:09:45Z</time></trkpt><trkpt lat="45.96562570721941" lon="6.164499019698295"><ele>512.3333333333334</ele><time>2026-04-18T16:09:46Z</time></trkpt><trkpt lat="45.96542873979828" lon="6.16453554939962"><ele>514.6666666666667</ele><time>2026-04-18T16:09:47Z</time></trkpt><trkpt lat="45.96526553186319" lon="6.164640633270849"><ele>517.0</ele><time>2026-04-18T16:09:48Z</time></trkpt><trkpt lat="45.965069431418726" lon="6.164701308976346"><ele>518.3333333333334</ele><time>2026-04-18T16:09:49Z</time></trkpt><trkpt lat="45.96486837763107" lon="6.164767488866435"><ele>519.6666666666666</ele><time>2026-04-18T16:09:50Z</time></trkpt><trkpt lat="45.9646812990764" lon="6.16482339145004"><ele>521.0</ele><time>2026-04-18T16:09:51Z</time></trkpt><trkpt lat="45.96450906242995" lon="6.164883676123377"><ele>518.3333333333333</ele><time>2026-04-18T16:09:52Z</time></trkpt><trkpt lat="45.96434263887222" lon="6.16493823631928"><ele>515.6666666666666</ele><time>2026-04-18T16:09:53Z</time></trkpt><trkpt lat="45.96416776712929" lon="6.164986943355515"><ele>513.0</ele><time>2026-04-18T16:09:54Z</time></trkpt><trkpt lat="45.96400943663553" lon="6.165035575946601"><ele>513.0</ele><time>2026-04-18T16:09:55Z</time></trkpt><trkpt lat="45.96387188026523" lon="6.165078725049526"><ele>513.0</ele><time>2026-04-18T16:09:56Z</time></trkpt><trkpt lat="45.963748258559924" lon="6.165112000278825"><ele>513.0</ele><time>2026-04-18T16:09:57Z</time></trkpt><trkpt lat="45.96363581259474" lon="6.1651379351516535"><ele>513.0</ele><time>2026-04-18T16:09:58Z</time></trkpt><trkpt lat="45.963524069376064" lon="6.165167463260412"><ele>513.0</ele><time>2026-04-18T16:09:59Z</time></trkpt><trkpt lat="45.96341365429678" lon="6.165198161431578"><ele>513.0</ele><time>2026-04-18T16:10:00Z</time></trkpt><trkpt lat="45.963306051722505" lon="6.165235328198879"><ele>513.0</ele><time>2026-04-18T16:10:01Z</time></trkpt><trkpt lat="45.9631987663135" lon="6.165269645239294"><ele>513.0</ele><time>2026-04-18T16:10:02Z</time></trkpt><trkpt lat="45.96309656335481" lon="6.165295262927233"><ele>513.0</ele><time>2026-04-18T16:10:03Z</time></trkpt><trkpt lat="45.96301431240957" lon="6.165318716847828"><ele>513.4</ele><time>2026-04-18T16:10:04Z</time></trkpt><trkpt lat="45.96294174767702" lon="6.165336942116977"><ele>513.8</ele><time>2026-04-18T16:10:05Z</time></trkpt><trkpt lat="45.96287310807788" lon="6.165351862470865"><ele>514.2</ele><time>2026-04-18T16:10:06Z</time></trkpt><trkpt lat="45.962805915323436" lon="6.165370279948278"><ele>514.6</ele><time>2026-04-18T16:10:07Z</time></trkpt><trkpt lat="45.96268422746713" lon="6.165399322797709"><ele>515.0</ele><time>2026-04-18T16:10:09Z</time></trkpt><trkpt lat="45.96256958175709" lon="6.165431287519787"><ele>516.0</ele><time>2026-04-18T16:10:11Z</time></trkpt><trkpt lat="45.96249216811272" lon="6.165462919920757"><ele>517.0</ele><time>2026-04-18T16:10:12Z</time></trkpt><trkpt lat="45.962415601900695" lon="6.1654963266536305"><ele>518.0</ele><time>2026-04-18T16:10:13Z</time></trkpt><trkpt lat="45.962335148358" lon="6.165533523853188"><ele>519.0</ele><time>2026-04-18T16:10:14Z</time></trkpt><trkpt lat="45.9622494382462" lon="6.165566662908875"><ele>520.0</ele><time>2026-04-18T16:10:15Z</time></trkpt><trkpt lat="45.962160323555956" lon="6.165589094552834"><ele>521.0</ele><time>2026-04-18T16:10:16Z</time></trkpt><trkpt lat="45.9620654655578" lon="6.165604228728561"><ele>521.0</ele><time>2026-04-18T16:10:17Z</time></trkpt><trkpt lat="45.961966212715886" lon="6.1656197022741726"><ele>521.0</ele><time>2026-04-18T16:10:18Z</time></trkpt><trkpt lat="45.9618616544044" lon="6.165637784041598"><ele>521.0</ele><time>2026-04-18T16:10:19Z</time></trkpt><trkpt lat="45.96175283479025" lon="6.165648560775373"><ele>521.0</ele><time>2026-04-18T16:10:20Z</time></trkpt><trkpt lat="45.96164189679968" lon="6.165654657581"><ele>521.0</ele><time>2026-04-18T16:10:21Z</time></trkpt><trkpt lat="45.961523200588886" lon="6.165660832897505"><ele>521.75</ele><time>2026-04-18T16:10:22Z</time></trkpt><trkpt lat="45.96140456895134" lon="6.165668160276913"><ele>522.5</ele><time>2026-04-18T16:10:23Z</time></trkpt><trkpt lat="45.96127708399102" lon="6.1656714420420995"><ele>523.25</ele><time>2026-04-18T16:10:24Z</time></trkpt><trkpt lat="45.96115018629232" lon="6.165671935856337"><ele>524.0</ele><time>2026-04-18T16:10:25Z</time></trkpt><trkpt lat="45.9610169196004" lon="6.165673230449568"><ele>524.0</ele><time>2026-04-18T16:10:26Z</time></trkpt><trkpt lat="45.96088811566986" lon="6.1656697093336525"><ele>524.0</ele><time>2026-04-18T16:10:27Z</time></trkpt><trkpt lat="45.960761333239894" lon="6.165662633953143"><ele>524.0</ele><time>2026-04-18T16:10:28Z</time></trkpt><trkpt lat="45.960639754907696" lon="6.1656483867402745"><ele>524.0</ele><time>2026-04-18T16:10:29Z</time></trkpt><trkpt lat="45.960520263609105" lon="6.165629004627556"><ele>523.8</ele><time>2026-04-18T16:10:30Z</time></trkpt><trkpt lat="45.96040860303172" lon="6.165614096310081"><ele>523.5999999999999</ele><time>2026-04-18T16:10:30.999Z</time></trkpt><trkpt lat="45.96030586009158" lon="6.165597808995648"><ele>523.4</ele><time>2026-04-18T16:10:31.999Z</time></trkpt><trkpt lat="45.960210682703256" lon="6.165585329990151"><ele>523.1999999999999</ele><time>2026-04-18T16:10:32.999Z</time></trkpt><trkpt lat="45.96011680054704" lon="6.165565115141129"><ele>523.0</ele><time>2026-04-18T16:10:33.999Z</time></trkpt><trkpt lat="45.960032092499524" lon="6.16555666608082"><ele>522.8333333333334</ele><time>2026-04-18T16:10:34.999Z</time></trkpt><trkpt lat="45.9599465846921" lon="6.165562663961235"><ele>522.6666666666667</ele><time>2026-04-18T16:10:35.999Z</time></trkpt><trkpt lat="45.95987289696948" lon="6.165568662799156"><ele>522.5</ele><time>2026-04-18T16:10:36.999Z</time></trkpt><trkpt lat="45.95979356788258" lon="6.165564656403706"><ele>522.3333333333334</ele><time>2026-04-18T16:10:37.999Z</time></trkpt><trkpt lat="45.95970464274177" lon="6.165552174245838"><ele>522.1666666666666</ele><time>2026-04-18T16:10:38.999Z</time></trkpt><trkpt lat="45.959611070360964" lon="6.1655138435574655"><ele>522.0</ele><time>2026-04-18T16:10:39.999Z</time></trkpt><trkpt lat="45.95951325441392" lon="6.165440445944486"><ele>522.0</ele><time>2026-04-18T16:10:40.999Z</time></trkpt><trkpt lat="45.9594186528487" lon="6.165346014650751"><ele>522.0</ele><time>2026-04-18T16:10:41.999Z</time></trkpt><trkpt lat="45.95932916712753" lon="6.165230318916514"><ele>522.0</ele><time>2026-04-18T16:10:42.999Z</time></trkpt><trkpt lat="45.959226993611594" lon="6.165112247325429"><ele>522.0</ele><time>2026-04-18T16:10:43.999Z</time></trkpt><trkpt lat="45.959116709542556" lon="6.165008077247244"><ele>522.25</ele><time>2026-04-18T16:10:44.999Z</time></trkpt><trkpt lat="45.95899602576507" lon="6.164907207048459"><ele>522.5</ele><time>2026-04-18T16:10:45.999Z</time></trkpt><trkpt lat="45.95886893139388" lon="6.164811065518378"><ele>522.75</ele><time>2026-04-18T16:10:46.999Z</time></trkpt><trkpt lat="45.958735349803426" lon="6.164718758776134"><ele>523.0</ele><time>2026-04-18T16:10:47.999Z</time></trkpt><trkpt lat="45.958595652009315" lon="6.164625907335292"><ele>523.0</ele><time>2026-04-18T16:10:48.999Z</time></trkpt><trkpt lat="45.958428779957636" lon="6.164541257100762"><ele>523.0</ele><time>2026-04-18T16:10:49.999Z</time></trkpt><trkpt lat="45.95824345852766" lon="6.164456250580022"><ele>523.0</ele><time>2026-04-18T16:10:50.999Z</time></trkpt><trkpt lat="45.95803935293694" lon="6.164382423822786"><ele>519.5</ele><time>2026-04-18T16:10:51.999Z</time></trkpt><trkpt lat="45.95781726989651" lon="6.164314115325677"><ele>516.0</ele><time>2026-04-18T16:10:52.999Z</time></trkpt><trkpt lat="45.95758159485185" lon="6.164241064538229"><ele>513.5</ele><time>2026-04-18T16:10:53.999Z</time></trkpt><trkpt lat="45.957344367735494" lon="6.164163740447488"><ele>511.0</ele><time>2026-04-18T16:10:54.999Z</time></trkpt><trkpt lat="45.95711629434325" lon="6.16409060773436"><ele>514.0</ele><time>2026-04-18T16:10:55.999Z</time></trkpt><trkpt lat="45.95690042510412" lon="6.16402356739416"><ele>517.0</ele><time>2026-04-18T16:10:56.999Z</time></trkpt><trkpt lat="45.956697186145725" lon="6.16395362712574"><ele>520.0</ele><time>2026-04-18T16:10:57.999Z</time></trkpt><trkpt lat="45.95649770630945" lon="6.163888115344332"><ele>520.0</ele><time>2026-04-18T16:10:58.999Z</time></trkpt><trkpt lat="45.956302488678595" lon="6.163831359678295"><ele>520.0</ele><time>2026-04-18T16:10:59.999Z</time></trkpt><trkpt lat="45.95611020284157" lon="6.16376743089183"><ele>520.0</ele><time>2026-04-18T16:11:00.999Z</time></trkpt><trkpt lat="45.955919273954926" lon="6.163703465025978"><ele>518.6666666666667</ele><time>2026-04-18T16:11:01.999Z</time></trkpt><trkpt lat="45.955722492643645" lon="6.16364076570202"><ele>517.3333333333334</ele><time>2026-04-18T16:11:02.999Z</time></trkpt><trkpt lat="45.95552396203991" lon="6.163584717779586"><ele>516.0</ele><time>2026-04-18T16:11:03.999Z</time></trkpt><trkpt lat="45.9553254849449" lon="6.163529145705122"><ele>516.0</ele><time>2026-04-18T16:11:04.999Z</time></trkpt><trkpt lat="45.95510973577212" lon="6.163471700365762"><ele>516.0</ele><time>2026-04-18T16:11:05.999Z</time></trkpt><trkpt lat="45.95489253373138" lon="6.163400230182964"><ele>516.0</ele><time>2026-04-18T16:11:06.999Z</time></trkpt><trkpt lat="45.954642046011045" lon="6.163336552217261"><ele>515.5</ele><time>2026-04-18T16:11:07.999Z</time></trkpt><trkpt lat="45.95436790952846" lon="6.163258741213762"><ele>515.0</ele><time>2026-04-18T16:11:08.999Z</time></trkpt><trkpt lat="45.95407566660796" lon="6.163174668031795"><ele>519.0</ele><time>2026-04-18T16:11:09.999Z</time></trkpt><trkpt lat="45.95377593256624" lon="6.163084123426789"><ele>523.0</ele><time>2026-04-18T16:11:10.999Z</time></trkpt><trkpt lat="45.953504076321416" lon="6.162986938065667"><ele>522.0</ele><time>2026-04-18T16:11:11.999Z</time></trkpt><trkpt lat="45.953255110309634" lon="6.162875478023436"><ele>521.0</ele><time>2026-04-18T16:11:12.999Z</time></trkpt><trkpt lat="45.953039305708366" lon="6.162719237069595"><ele>521.0</ele><time>2026-04-18T16:11:13.999Z</time></trkpt><trkpt lat="45.95284439215011" lon="6.162546617857233"><ele>521.0</ele><time>2026-04-18T16:11:14.999Z</time></trkpt><trkpt lat="45.95265904946068" lon="6.162384474149155"><ele>521.0</ele><time>2026-04-18T16:11:15.999Z</time></trkpt><trkpt lat="45.95248133332571" lon="6.1622561437654815"><ele>522.6666666666666</ele><time>2026-04-18T16:11:16.999Z</time></trkpt><trkpt lat="45.952293415004064" lon="6.162161205955798"><ele>524.3333333333334</ele><time>2026-04-18T16:11:17.999Z</time></trkpt><trkpt lat="45.95209447658329" lon="6.162111777989068"><ele>526.0</ele><time>2026-04-18T16:11:18.999Z</time></trkpt><trkpt lat="45.95188668610169" lon="6.162096285265434"><ele>524.3333333333334</ele><time>2026-04-18T16:11:19.999Z</time></trkpt><trkpt lat="45.951680104814" lon="6.162088488367134"><ele>522.6666666666666</ele><time>2026-04-18T16:11:20.999Z</time></trkpt><trkpt lat="45.95148909137656" lon="6.162053335205647"><ele>521.0</ele><time>2026-04-18T16:11:21.999Z</time></trkpt><trkpt lat="45.95131123198568" lon="6.16194526402479"><ele>521.0</ele><time>2026-04-18T16:11:22.999Z</time></trkpt><trkpt lat="45.951124829597056" lon="6.161839348583003"><ele>521.0</ele><time>2026-04-18T16:11:24Z</time></trkpt><trkpt lat="45.950945604753535" lon="6.161701025042479"><ele>521.0</ele><time>2026-04-18T16:11:25Z</time></trkpt><trkpt lat="45.95077757822568" lon="6.161547631358326"><ele>526.6666666666666</ele><time>2026-04-18T16:11:26Z</time></trkpt><trkpt lat="45.95063247408918" lon="6.161393635599741"><ele>532.3333333333334</ele><time>2026-04-18T16:11:27Z</time></trkpt><trkpt lat="45.95049376349918" lon="6.1612502236946565"><ele>538.0</ele><time>2026-04-18T16:11:28Z</time></trkpt><trkpt lat="45.950352365346916" lon="6.1611379756080895"><ele>538.0</ele><time>2026-04-18T16:11:29Z</time></trkpt><trkpt lat="45.95019546774997" lon="6.161054020749308"><ele>538.0</ele><time>2026-04-18T16:11:30Z</time></trkpt><trkpt lat="45.950029636498755" lon="6.161014542154665"><ele>538.0</ele><time>2026-04-18T16:11:31Z</time></trkpt><trkpt lat="45.949861502788565" lon="6.1610313130473955"><ele>537.3333333333334</ele><time>2026-04-18T16:11:32Z</time></trkpt><trkpt lat="45.94969659949096" lon="6.161077989606134"><ele>536.6666666666666</ele><time>2026-04-18T16:11:33Z</time></trkpt><trkpt lat="45.94953696905016" lon="6.161112757057154"><ele>536.0</ele><time>2026-04-18T16:11:34Z</time></trkpt><trkpt lat="45.94939737126957" lon="6.161122738435813"><ele>536.0</ele><time>2026-04-18T16:11:35Z</time></trkpt><trkpt lat="45.94926417503314" lon="6.161106644903079"><ele>536.0</ele><time>2026-04-18T16:11:36Z</time></trkpt><trkpt lat="45.94912663148875" lon="6.161079820376699"><ele>536.0</ele><time>2026-04-18T16:11:37Z</time></trkpt><trkpt lat="45.94899127650177" lon="6.1609957403864"><ele>536.0</ele><time>2026-04-18T16:11:38Z</time></trkpt><trkpt lat="45.948854724806885" lon="6.160887103437588"><ele>535.6666666666666</ele><time>2026-04-18T16:11:39Z</time></trkpt><trkpt lat="45.94872607880209" lon="6.160764889950586"><ele>535.3333333333334</ele><time>2026-04-18T16:11:40Z</time></trkpt><trkpt lat="45.94861500738062" lon="6.160617590577928"><ele>535.0</ele><time>2026-04-18T16:11:41Z</time></trkpt><trkpt lat="45.94852126472264" lon="6.160455736887617"><ele>535.0</ele><time>2026-04-18T16:11:42Z</time></trkpt><trkpt lat="45.94843271421615" lon="6.160281198768807"><ele>535.0</ele><time>2026-04-18T16:11:43Z</time></trkpt><trkpt lat="45.94833102472373" lon="6.160087200103461"><ele>535.0</ele><time>2026-04-18T16:11:44Z</time></trkpt><trkpt lat="45.94820426895273" lon="6.159868677089849"><ele>529.0</ele><time>2026-04-18T16:11:45Z</time></trkpt><trkpt lat="45.94806178168148" lon="6.159624533505321"><ele>523.0</ele><time>2026-04-18T16:11:46Z</time></trkpt><trkpt lat="45.94791177646433" lon="6.1593601828915885"><ele>523.0</ele><time>2026-04-18T16:11:47Z</time></trkpt><trkpt lat="45.9477464270135" lon="6.159063476456821"><ele>523.0</ele><time>2026-04-18T16:11:48Z</time></trkpt><trkpt lat="45.94758462788523" lon="6.1587812976469385"><ele>519.5</ele><time>2026-04-18T16:11:49Z</time></trkpt><trkpt lat="45.9474239297316" lon="6.158527065896378"><ele>516.0</ele><time>2026-04-18T16:11:50Z</time></trkpt><trkpt lat="45.94724425122757" lon="6.158278508327548"><ele>516.5</ele><time>2026-04-18T16:11:51Z</time></trkpt><trkpt lat="45.94706342618075" lon="6.158033292460259"><ele>517.0</ele><time>2026-04-18T16:11:52Z</time></trkpt><trkpt lat="45.946879573298716" lon="6.157786135284071"><ele>517.0</ele><time>2026-04-18T16:11:53Z</time></trkpt><trkpt lat="45.946713994977266" lon="6.157555548081715"><ele>517.0</ele><time>2026-04-18T16:11:54Z</time></trkpt><trkpt lat="45.94655636370387" lon="6.15733101902781"><ele>516.3333333333334</ele><time>2026-04-18T16:11:55Z</time></trkpt><trkpt lat="45.94640356529103" lon="6.1571148735719055"><ele>515.6666666666666</ele><time>2026-04-18T16:11:56Z</time></trkpt><trkpt lat="45.94625532387477" lon="6.156909371480563"><ele>515.0</ele><time>2026-04-18T16:11:57Z</time></trkpt><trkpt lat="45.946113535706914" lon="6.156713073444093"><ele>514.3333333333333</ele><time>2026-04-18T16:11:58Z</time></trkpt><trkpt lat="45.94598044341623" lon="6.15652763690206"><ele>513.6666666666666</ele><time>2026-04-18T16:11:59Z</time></trkpt><trkpt lat="45.945855674226465" lon="6.156347284192039"><ele>513.0</ele><time>2026-04-18T16:12:00Z</time></trkpt><trkpt lat="45.945741135424264" lon="6.156173412642947"><ele>513.0</ele><time>2026-04-18T16:12:01Z</time></trkpt><trkpt lat="45.945633905525305" lon="6.156021121527545"><ele>513.0</ele><time>2026-04-18T16:12:02Z</time></trkpt><trkpt lat="45.94554269915755" lon="6.15588768267014"><ele>513.0</ele><time>2026-04-18T16:12:03Z</time></trkpt><trkpt lat="45.94545518620712" lon="6.1557606561270095"><ele>513.0</ele><time>2026-04-18T16:12:04Z</time></trkpt><trkpt lat="45.94536623902087" lon="6.155636685410441"><ele>512.75</ele><time>2026-04-18T16:12:05Z</time></trkpt><trkpt lat="45.94527907936777" lon="6.155514926767104"><ele>512.5</ele><time>2026-04-18T16:12:06Z</time></trkpt><trkpt lat="45.94519338400513" lon="6.1553942063892455"><ele>512.25</ele><time>2026-04-18T16:12:07Z</time></trkpt><trkpt lat="45.94510953556738" lon="6.1552714409154605"><ele>512.0</ele><time>2026-04-18T16:12:08Z</time></trkpt><trkpt lat="45.945017577594626" lon="6.155139690296377"><ele>512.0</ele><time>2026-04-18T16:12:09Z</time></trkpt><trkpt lat="45.94492169359966" lon="6.155000795096958"><ele>512.0</ele><time>2026-04-18T16:12:10Z</time></trkpt><trkpt lat="45.944818077546486" lon="6.1548620345316385"><ele>512.0</ele><time>2026-04-18T16:12:11Z</time></trkpt><trkpt lat="45.944711338609665" lon="6.154728650954294"><ele>512.0</ele><time>2026-04-18T16:12:12Z</time></trkpt><trkpt lat="45.94460704520144" lon="6.1545951075199286"><ele>514.3333333333333</ele><time>2026-04-18T16:12:13Z</time></trkpt><trkpt lat="45.94450052639826" lon="6.1544480834159065"><ele>516.6666666666666</ele><time>2026-04-18T16:12:14Z</time></trkpt><trkpt lat="45.9443883293492" lon="6.1542886258749965"><ele>519.0</ele><time>2026-04-18T16:12:15Z</time></trkpt><trkpt lat="45.944271870597355" lon="6.154129920930159"><ele>519.0</ele><time>2026-04-18T16:12:16Z</time></trkpt><trkpt lat="45.94414896982474" lon="6.153962412501777"><ele>519.0</ele><time>2026-04-18T16:12:17Z</time></trkpt><trkpt lat="45.94401615596833" lon="6.153782206526216"><ele>519.0</ele><time>2026-04-18T16:12:18Z</time></trkpt><trkpt lat="45.94386729611574" lon="6.153580040312529"><ele>519.0</ele><time>2026-04-18T16:12:19Z</time></trkpt><trkpt lat="45.94371853253815" lon="6.153370690086766"><ele>519.0</ele><time>2026-04-18T16:12:20Z</time></trkpt><trkpt lat="45.943593923503514" lon="6.153183496661577"><ele>519.0</ele><time>2026-04-18T16:12:21Z</time></trkpt><trkpt lat="45.943479540095254" lon="6.153005773502051"><ele>520.75</ele><time>2026-04-18T16:12:22Z</time></trkpt><trkpt lat="45.94338181193141" lon="6.1528517714635775"><ele>522.5</ele><time>2026-04-18T16:12:23Z</time></trkpt><trkpt lat="45.94330104488465" lon="6.152685823347103"><ele>524.25</ele><time>2026-04-18T16:12:24Z</time></trkpt><trkpt lat="45.94322468341723" lon="6.152550177067229"><ele>526.0</ele><time>2026-04-18T16:12:25Z</time></trkpt><trkpt lat="45.94314393054367" lon="6.1524341494703565"><ele>523.6</ele><time>2026-04-18T16:12:26Z</time></trkpt><trkpt lat="45.943074783107754" lon="6.152303213327882"><ele>521.2</ele><time>2026-04-18T16:12:27Z</time></trkpt><trkpt lat="45.943020936532776" lon="6.152156962956462"><ele>518.8</ele><time>2026-04-18T16:12:28Z</time></trkpt><trkpt lat="45.94295984737794" lon="6.152031783737216"><ele>516.4</ele><time>2026-04-18T16:12:29Z</time></trkpt><trkpt lat="45.94290323970146" lon="6.151914059160072"><ele>514.0</ele><time>2026-04-18T16:12:30Z</time></trkpt><trkpt lat="45.94284459841776" lon="6.1518322175388676"><ele>514.0</ele><time>2026-04-18T16:12:31Z</time></trkpt><trkpt lat="45.9428165009816" lon="6.151732882574599"><ele>514.0</ele><time>2026-04-18T16:12:32Z</time></trkpt><trkpt lat="45.94277913668166" lon="6.151653862526757"><ele>514.0</ele><time>2026-04-18T16:12:33Z</time></trkpt><trkpt lat="45.94272843204738" lon="6.151577611974777"><ele>514.0</ele><time>2026-04-18T16:12:33.999Z</time></trkpt><trkpt lat="45.94269400918922" lon="6.151473153654852"><ele>514.0</ele><time>2026-04-18T16:12:34.999Z</time></trkpt><trkpt lat="45.942666619347904" lon="6.151364491165613"><ele>514.0</ele><time>2026-04-18T16:12:35.999Z</time></trkpt><trkpt lat="45.942653467224346" lon="6.151254274109451"><ele>514.6666666666667</ele><time>2026-04-18T16:12:36.999Z</time></trkpt><trkpt lat="45.94264704496703" lon="6.1511496309190745"><ele>515.3333333333334</ele><time>2026-04-18T16:12:37.999Z</time></trkpt><trkpt lat="45.9426256568275" lon="6.1510521724352"><ele>516.0</ele><time>2026-04-18T16:12:38.999Z</time></trkpt><trkpt lat="45.94257989293354" lon="6.15097054023083"><ele>516.6666666666666</ele><time>2026-04-18T16:12:39.999Z</time></trkpt><trkpt lat="45.942515645409806" lon="6.1509056149421015"><ele>517.3333333333333</ele><time>2026-04-18T16:12:40.999Z</time></trkpt><trkpt lat="45.94245314778782" lon="6.150828374139417"><ele>518.0</ele><time>2026-04-18T16:12:41.999Z</time></trkpt><trkpt lat="45.94239732708187" lon="6.150717749052654"><ele>516.4</ele><time>2026-04-18T16:12:42.999Z</time></trkpt><trkpt lat="45.94234866596495" lon="6.1505865818627825"><ele>514.8</ele><time>2026-04-18T16:12:43.999Z</time></trkpt><trkpt lat="45.942298560202744" lon="6.150446683631899"><ele>513.2</ele><time>2026-04-18T16:12:44.999Z</time></trkpt><trkpt lat="45.94224265727949" lon="6.150309538185949"><ele>511.6</ele><time>2026-04-18T16:12:45.999Z</time></trkpt><trkpt lat="45.94218694657573" lon="6.1501730734524225"><ele>510.0</ele><time>2026-04-18T16:12:46.999Z</time></trkpt><trkpt lat="45.942131102981975" lon="6.150037012710513"><ele>510.0</ele><time>2026-04-18T16:12:47.999Z</time></trkpt><trkpt lat="45.94207602640149" lon="6.149907214670259"><ele>510.0</ele><time>2026-04-18T16:12:48.999Z</time></trkpt><trkpt lat="45.94202241800717" lon="6.149781445275804"><ele>510.0</ele><time>2026-04-18T16:12:49.999Z</time></trkpt><trkpt lat="45.94197231887677" lon="6.149659222126566"><ele>510.0</ele><time>2026-04-18T16:12:50.999Z</time></trkpt><trkpt lat="45.941923156238154" lon="6.149536256638079"><ele>510.0</ele><time>2026-04-18T16:12:51.999Z</time></trkpt><trkpt lat="45.94187440395192" lon="6.149418868378443"><ele>510.2</ele><time>2026-04-18T16:12:52.999Z</time></trkpt><trkpt lat="45.941828225051864" lon="6.1493017980866655"><ele>510.4</ele><time>2026-04-18T16:12:53.999Z</time></trkpt><trkpt lat="45.94177876718761" lon="6.149177180901806"><ele>510.6</ele><time>2026-04-18T16:12:54.999Z</time></trkpt><trkpt lat="45.94172338369763" lon="6.1490444681539955"><ele>510.8</ele><time>2026-04-18T16:12:55.999Z</time></trkpt><trkpt lat="45.941661783567696" lon="6.148905764032445"><ele>511.0</ele><time>2026-04-18T16:12:56.999Z</time></trkpt><trkpt lat="45.94159851691747" lon="6.148763495016993"><ele>510.6</ele><time>2026-04-18T16:12:57.999Z</time></trkpt><trkpt lat="45.94154305463779" lon="6.148624308758951"><ele>510.20000000000005</ele><time>2026-04-18T16:12:58.999Z</time></trkpt><trkpt lat="45.941485766528956" lon="6.148489993986645"><ele>509.79999999999995</ele><time>2026-04-18T16:12:59.999Z</time></trkpt><trkpt lat="45.94142229885437" lon="6.148357361057545"><ele>509.4</ele><time>2026-04-18T16:13:00.999Z</time></trkpt><trkpt lat="45.94135360730414" lon="6.1482267773326695"><ele>509.0</ele><time>2026-04-18T16:13:01.999Z</time></trkpt><trkpt lat="45.941283177260196" lon="6.148097666020032"><ele>509.0</ele><time>2026-04-18T16:13:02.999Z</time></trkpt><trkpt lat="45.94120881861006" lon="6.147962990010277"><ele>509.0</ele><time>2026-04-18T16:13:03.999Z</time></trkpt><trkpt lat="45.94113368335144" lon="6.147824074514684"><ele>509.0</ele><time>2026-04-18T16:13:04.999Z</time></trkpt><trkpt lat="45.941057869711194" lon="6.147690885393028"><ele>509.0</ele><time>2026-04-18T16:13:05.999Z</time></trkpt><trkpt lat="45.94098780903463" lon="6.147555534290315"><ele>509.0</ele><time>2026-04-18T16:13:06.999Z</time></trkpt><trkpt lat="45.940919933715215" lon="6.147416758425214"><ele>509.0</ele><time>2026-04-18T16:13:07.999Z</time></trkpt><trkpt lat="45.94085077929091" lon="6.147279373098806"><ele>509.0</ele><time>2026-04-18T16:13:08.999Z</time></trkpt><trkpt lat="45.940781049985155" lon="6.147142189830895"><ele>509.0</ele><time>2026-04-18T16:13:09.999Z</time></trkpt><trkpt lat="45.940709030300425" lon="6.147008357340254"><ele>508.4</ele><time>2026-04-18T16:13:10.999Z</time></trkpt><trkpt lat="45.94063963573451" lon="6.146875168887624"><ele>507.79999999999995</ele><time>2026-04-18T16:13:11.999Z</time></trkpt><trkpt lat="45.940573422609326" lon="6.1467528973365555"><ele>507.20000000000005</ele><time>2026-04-18T16:13:12.999Z</time></trkpt><trkpt lat="45.9405068592876" lon="6.146634317171628"><ele>506.6</ele><time>2026-04-18T16:13:13.999Z</time></trkpt><trkpt lat="45.94043776016294" lon="6.1464989377995005"><ele>506.0</ele><time>2026-04-18T16:13:14.999Z</time></trkpt><trkpt lat="45.94036465739767" lon="6.146355902826035"><ele>506.0</ele><time>2026-04-18T16:13:15.999Z</time></trkpt><trkpt lat="45.94028749944276" lon="6.1462068267669"><ele>506.0</ele><time>2026-04-18T16:13:16.999Z</time></trkpt><trkpt lat="45.940209152513475" lon="6.146054417642215"><ele>506.0</ele><time>2026-04-18T16:13:17.999Z</time></trkpt><trkpt lat="45.94009946781713" lon="6.145881801751127"><ele>506.0</ele><time>2026-04-18T16:13:18.999Z</time></trkpt><trkpt lat="45.940001905385124" lon="6.145693861325841"><ele>505.25</ele><time>2026-04-18T16:13:19.999Z</time></trkpt><trkpt lat="45.939913383816496" lon="6.145526558513758"><ele>504.5</ele><time>2026-04-18T16:13:20.999Z</time></trkpt><trkpt lat="45.93983020251504" lon="6.1453671807099965"><ele>503.75</ele><time>2026-04-18T16:13:21.999Z</time></trkpt><trkpt lat="45.93975541061483" lon="6.1452120011186455"><ele>503.0</ele><time>2026-04-18T16:13:22.999Z</time></trkpt><trkpt lat="45.939695484585016" lon="6.14506331346941"><ele>502.99999999999994</ele><time>2026-04-18T16:13:23.999Z</time></trkpt><trkpt lat="45.939644055206166" lon="6.144934092411781"><ele>503.0</ele><time>2026-04-18T16:13:24.999Z</time></trkpt><trkpt lat="45.93960406628768" lon="6.144819004951802"><ele>503.0</ele><time>2026-04-18T16:13:25.999Z</time></trkpt><trkpt lat="45.9395804337611" lon="6.14471708095956"><ele>503.0</ele><time>2026-04-18T16:13:26.999Z</time></trkpt><trkpt lat="45.93954449907095" lon="6.144580124111642"><ele>502.99999999999994</ele><time>2026-04-18T16:13:28.999Z</time></trkpt><trkpt lat="45.93954359215857" lon="6.144471476358594"><ele>503.0</ele><time>2026-04-18T16:13:31Z</time></trkpt><trkpt lat="45.9395642527794" lon="6.144292600517612"><ele>502.8333333333333</ele><time>2026-04-18T16:13:33Z</time></trkpt><trkpt lat="45.939548119063595" lon="6.144189743758453"><ele>502.66666666666663</ele><time>2026-04-18T16:13:34Z</time></trkpt><trkpt lat="45.93950108210224" lon="6.144115666043019"><ele>502.5</ele><time>2026-04-18T16:13:35Z</time></trkpt><trkpt lat="45.93942645769961" lon="6.144082510548161"><ele>502.33333333333337</ele><time>2026-04-18T16:13:36Z</time></trkpt><trkpt lat="45.93933457051712" lon="6.1440755542893974"><ele>502.1666666666667</ele><time>2026-04-18T16:13:37Z</time></trkpt><trkpt lat="45.939242239334035" lon="6.144035203153004"><ele>502.0</ele><time>2026-04-18T16:13:38Z</time></trkpt><trkpt lat="45.939151015220844" lon="6.143945582453733"><ele>501.25</ele><time>2026-04-18T16:13:39Z</time></trkpt><trkpt lat="45.93906880353373" lon="6.1438089652847205"><ele>500.5</ele><time>2026-04-18T16:13:40Z</time></trkpt><trkpt lat="45.93897708155581" lon="6.143640762369466"><ele>499.75</ele><time>2026-04-18T16:13:41Z</time></trkpt><trkpt lat="45.938885082170664" lon="6.143482197329606"><ele>499.0</ele><time>2026-04-18T16:13:42Z</time></trkpt><trkpt lat="45.938799646399474" lon="6.143328523338645"><ele>498.33333333333337</ele><time>2026-04-18T16:13:43Z</time></trkpt><trkpt lat="45.938712338645054" lon="6.143161575566514"><ele>497.66666666666663</ele><time>2026-04-18T16:13:44Z</time></trkpt><trkpt lat="45.93862150402486" lon="6.142975542178722"><ele>497.0</ele><time>2026-04-18T16:13:45Z</time></trkpt><trkpt lat="45.93852924377712" lon="6.142778270215342"><ele>497.0</ele><time>2026-04-18T16:13:46Z</time></trkpt><trkpt lat="45.93844289844736" lon="6.142562878617587"><ele>497.0</ele><time>2026-04-18T16:13:47Z</time></trkpt><trkpt lat="45.9383680339048" lon="6.142354217837859"><ele>497.0</ele><time>2026-04-18T16:13:48Z</time></trkpt><trkpt lat="45.9383008138818" lon="6.142148771204319"><ele>496.0</ele><time>2026-04-18T16:13:49Z</time></trkpt><trkpt lat="45.93824235596956" lon="6.1419505664362335"><ele>495.0</ele><time>2026-04-18T16:13:50Z</time></trkpt><trkpt lat="45.93818804081218" lon="6.14173633560372"><ele>494.0</ele><time>2026-04-18T16:13:51Z</time></trkpt><trkpt lat="45.93813852078562" lon="6.141521860062516"><ele>494.0</ele><time>2026-04-18T16:13:52Z</time></trkpt><trkpt lat="45.93809471944408" lon="6.1412905569699765"><ele>494.0</ele><time>2026-04-18T16:13:53Z</time></trkpt><trkpt lat="45.93805052447177" lon="6.141049678612269"><ele>494.0</ele><time>2026-04-18T16:13:54Z</time></trkpt><trkpt lat="45.93800785510316" lon="6.140804949176159"><ele>492.66666666666663</ele><time>2026-04-18T16:13:55Z</time></trkpt><trkpt lat="45.937962805559835" lon="6.140556736778119"><ele>491.33333333333337</ele><time>2026-04-18T16:13:56Z</time></trkpt><trkpt lat="45.93791689605047" lon="6.140306834412579"><ele>490.0</ele><time>2026-04-18T16:13:57Z</time></trkpt><trkpt lat="45.937866688589104" lon="6.14004788379378"><ele>488.6666666666667</ele><time>2026-04-18T16:13:58Z</time></trkpt><trkpt lat="45.937817466770134" lon="6.139785430988094"><ele>487.33333333333337</ele><time>2026-04-18T16:13:59Z</time></trkpt><trkpt lat="45.93777244010251" lon="6.139522423086834"><ele>486.0</ele><time>2026-04-18T16:14:00Z</time></trkpt><trkpt lat="45.937723787047275" lon="6.139275974643737"><ele>485.66666666666663</ele><time>2026-04-18T16:14:01Z</time></trkpt><trkpt lat="45.937679031483" lon="6.139037594816917"><ele>485.3333333333333</ele><time>2026-04-18T16:14:02Z</time></trkpt><trkpt lat="45.93763536549236" lon="6.138801184114296"><ele>485.0</ele><time>2026-04-18T16:14:03Z</time></trkpt><trkpt lat="45.93758846910279" lon="6.138561798251497"><ele>481.66666666666663</ele><time>2026-04-18T16:14:04Z</time></trkpt><trkpt lat="45.9375387059793" lon="6.138305027434977"><ele>478.33333333333337</ele><time>2026-04-18T16:14:05Z</time></trkpt><trkpt lat="45.9374907172149" lon="6.138058485965424"><ele>475.0</ele><time>2026-04-18T16:14:06Z</time></trkpt><trkpt lat="45.937438766038795" lon="6.137823909713958"><ele>475.0</ele><time>2026-04-18T16:14:07Z</time></trkpt><trkpt lat="45.93737576932011" lon="6.1376056713634775"><ele>475.0</ele><time>2026-04-18T16:14:08Z</time></trkpt><trkpt lat="45.93730221941551" lon="6.137390536362113"><ele>475.0</ele><time>2026-04-18T16:14:09Z</time></trkpt><trkpt lat="45.93721369489847" lon="6.137172803937684"><ele>477.6666666666667</ele><time>2026-04-18T16:14:10Z</time></trkpt><trkpt lat="45.937117066651794" lon="6.136949551487511"><ele>480.33333333333337</ele><time>2026-04-18T16:14:11Z</time></trkpt><trkpt lat="45.93702358160064" lon="6.136729975221644"><ele>483.0</ele><time>2026-04-18T16:14:12Z</time></trkpt><trkpt lat="45.93693204784207" lon="6.136522099127263"><ele>480.0</ele><time>2026-04-18T16:14:13Z</time></trkpt><trkpt lat="45.936843253771634" lon="6.136322162099253"><ele>477.0</ele><time>2026-04-18T16:14:14Z</time></trkpt><trkpt lat="45.936757125031164" lon="6.136117338436403"><ele>474.0</ele><time>2026-04-18T16:14:15Z</time></trkpt><trkpt lat="45.93666769065731" lon="6.135911446885504"><ele>478.0</ele><time>2026-04-18T16:14:16Z</time></trkpt><trkpt lat="45.936581038684054" lon="6.135708282988864"><ele>482.0</ele><time>2026-04-18T16:14:17Z</time></trkpt><trkpt lat="45.93649659992414" lon="6.135497276469042"><ele>486.0</ele><time>2026-04-18T16:14:18Z</time></trkpt><trkpt lat="45.936407964501875" lon="6.135294467977657"><ele>486.0</ele><time>2026-04-18T16:14:19Z</time></trkpt><trkpt lat="45.936317539438306" lon="6.135085383159976"><ele>486.0</ele><time>2026-04-18T16:14:19.999Z</time></trkpt><trkpt lat="45.936228568019764" lon="6.134861899549418"><ele>486.0</ele><time>2026-04-18T16:14:20.999Z</time></trkpt><trkpt lat="45.936143964292775" lon="6.13465057562208"><ele>488.66666666666663</ele><time>2026-04-18T16:14:21.999Z</time></trkpt><trkpt lat="45.936062474710546" lon="6.134440036856704"><ele>491.3333333333333</ele><time>2026-04-18T16:14:22.999Z</time></trkpt><trkpt lat="45.93598009233558" lon="6.134231580801329"><ele>494.0</ele><time>2026-04-18T16:14:23.999Z</time></trkpt><trkpt lat="45.93590022045823" lon="6.134029961926227"><ele>488.3333333333333</ele><time>2026-04-18T16:14:24.999Z</time></trkpt><trkpt lat="45.93582177117939" lon="6.1338367405431224"><ele>482.66666666666663</ele><time>2026-04-18T16:14:25.999Z</time></trkpt><trkpt lat="45.93574601351227" lon="6.133649945388861"><ele>477.0</ele><time>2026-04-18T16:14:26.999Z</time></trkpt><trkpt lat="45.93567118107899" lon="6.1334643403042355"><ele>477.0</ele><time>2026-04-18T16:14:27.999Z</time></trkpt><trkpt lat="45.93559484888204" lon="6.133277711533493"><ele>477.0</ele><time>2026-04-18T16:14:28.999Z</time></trkpt><trkpt lat="45.93551388388712" lon="6.13307748074821"><ele>477.0</ele><time>2026-04-18T16:14:29.999Z</time></trkpt><trkpt lat="45.93543999368708" lon="6.132877326247215"><ele>478.0</ele><time>2026-04-18T16:14:30.999Z</time></trkpt><trkpt lat="45.935378923280446" lon="6.132676516663162"><ele>479.0</ele><time>2026-04-18T16:14:31.999Z</time></trkpt><trkpt lat="45.93532273841118" lon="6.132502045405581"><ele>480.0</ele><time>2026-04-18T16:14:32.999Z</time></trkpt><trkpt lat="45.93527256057568" lon="6.1323495682715174"><ele>481.0</ele><time>2026-04-18T16:14:33.999Z</time></trkpt><trkpt lat="45.935211681284585" lon="6.132229099471233"><ele>481.6</ele><time>2026-04-18T16:14:34.999Z</time></trkpt><trkpt lat="45.93515436303921" lon="6.132133938035864"><ele>482.20000000000005</ele><time>2026-04-18T16:14:35.999Z</time></trkpt><trkpt lat="45.93506229216918" lon="6.132018956143148"><ele>482.79999999999995</ele><time>2026-04-18T16:14:36.999Z</time></trkpt><trkpt lat="45.93498143154899" lon="6.131923142321583"><ele>483.4</ele><time>2026-04-18T16:14:37.999Z</time></trkpt><trkpt lat="45.93488749890888" lon="6.131836361723941"><ele>484.0</ele><time>2026-04-18T16:14:38.999Z</time></trkpt><trkpt lat="45.934783779741956" lon="6.13174611664644"><ele>480.0</ele><time>2026-04-18T16:14:39.999Z</time></trkpt><trkpt lat="45.93467007056444" lon="6.13165661644605"><ele>476.0</ele><time>2026-04-18T16:14:40.999Z</time></trkpt><trkpt lat="45.934548946839236" lon="6.131567853935771"><ele>472.0</ele><time>2026-04-18T16:14:41.999Z</time></trkpt><trkpt lat="45.9344331710535" lon="6.131472072846605"><ele>468.0</ele><time>2026-04-18T16:14:42.999Z</time></trkpt><trkpt lat="45.93432852472562" lon="6.131365541824483"><ele>468.0</ele><time>2026-04-18T16:14:43.999Z</time></trkpt><trkpt lat="45.93423900642074" lon="6.131252521853445"><ele>468.0</ele><time>2026-04-18T16:14:44.999Z</time></trkpt><trkpt lat="45.93415249884052" lon="6.131137227024273"><ele>468.0</ele><time>2026-04-18T16:14:45.999Z</time></trkpt><trkpt lat="45.934074846122215" lon="6.131016339941171"><ele>468.0</ele><time>2026-04-18T16:14:46.999Z</time></trkpt><trkpt lat="45.93401473233615" lon="6.130892993419677"><ele>467.2</ele><time>2026-04-18T16:14:47.999Z</time></trkpt><trkpt lat="45.9339709564025" lon="6.130758604762672"><ele>466.4</ele><time>2026-04-18T16:14:48.999Z</time></trkpt><trkpt lat="45.93393719107034" lon="6.130621059718271"><ele>465.59999999999997</ele><time>2026-04-18T16:14:49.999Z</time></trkpt><trkpt lat="45.933907153188876" lon="6.130491584128054"><ele>464.79999999999995</ele><time>2026-04-18T16:14:50.999Z</time></trkpt><trkpt lat="45.9338811917759" lon="6.130376589175733"><ele>464.0</ele><time>2026-04-18T16:14:51.999Z</time></trkpt><trkpt lat="45.933855306667226" lon="6.130259736297062"><ele>463.99999999999994</ele><time>2026-04-18T16:14:52.999Z</time></trkpt><trkpt lat="45.93382822391541" lon="6.130146016494612"><ele>464.0</ele><time>2026-04-18T16:14:53.999Z</time></trkpt><trkpt lat="45.933808595253076" lon="6.130037307637728"><ele>464.0</ele><time>2026-04-18T16:14:54.999Z</time></trkpt><trkpt lat="45.93378568843852" lon="6.129930608223739"><ele>464.0</ele><time>2026-04-18T16:14:55.999Z</time></trkpt><trkpt lat="45.933749847760154" lon="6.129833631371351"><ele>463.99999999999994</ele><time>2026-04-18T16:14:56.999Z</time></trkpt><trkpt lat="45.933721811153454" lon="6.129727939114318"><ele>464.0</ele><time>2026-04-18T16:14:57.999Z</time></trkpt><trkpt lat="45.933690667124786" lon="6.129613599493009"><ele>464.2</ele><time>2026-04-18T16:14:58.999Z</time></trkpt><trkpt lat="45.93365524132213" lon="6.129491859360307"><ele>464.4</ele><time>2026-04-18T16:14:59.999Z</time></trkpt><trkpt lat="45.93362364655899" lon="6.129372360878565"><ele>464.6</ele><time>2026-04-18T16:15:00.999Z</time></trkpt><trkpt lat="45.933594415213015" lon="6.129260560173557"><ele>464.8</ele><time>2026-04-18T16:15:01.999Z</time></trkpt><trkpt lat="45.93357322181783" lon="6.12916876449249"><ele>465.0</ele><time>2026-04-18T16:15:02.999Z</time></trkpt><trkpt lat="45.93353039369629" lon="6.129000182752201"><ele>465.0</ele><time>2026-04-18T16:15:04.999Z</time></trkpt><trkpt lat="45.93348806605193" lon="6.128838233202128"><ele>465.0</ele><time>2026-04-18T16:15:06.999Z</time></trkpt><trkpt lat="45.93345558539072" lon="6.128714398043693"><ele>465.0</ele><time>2026-04-18T16:15:08.999Z</time></trkpt><trkpt lat="45.933436849560564" lon="6.128620595743908"><ele>465.0</ele><time>2026-04-18T16:15:10.999Z</time></trkpt><trkpt lat="45.933409836875185" lon="6.128497061951716"><ele>465.0</ele><time>2026-04-18T16:15:13.999Z</time></trkpt><trkpt lat="45.933399158603144" lon="6.128380094662434"><ele>463.5</ele><time>2026-04-18T16:15:15.999Z</time></trkpt><trkpt lat="45.93332894134016" lon="6.128264923039825"><ele>462.0</ele><time>2026-04-18T16:15:17.999Z</time></trkpt><trkpt lat="45.93326858445473" lon="6.128223273241151"><ele>460.5</ele><time>2026-04-18T16:15:18.999Z</time></trkpt><trkpt lat="45.9331973185248" lon="6.128188142040348"><ele>459.0</ele><time>2026-04-18T16:15:19.999Z</time></trkpt><trkpt lat="45.933119760672504" lon="6.128139904267912"><ele>457.5</ele><time>2026-04-18T16:15:20.999Z</time></trkpt><trkpt lat="45.93302477283641" lon="6.128070957871153"><ele>456.0</ele><time>2026-04-18T16:15:21.999Z</time></trkpt><trkpt lat="45.93291904011581" lon="6.127994681180478"><ele>455.8</ele><time>2026-04-18T16:15:22.999Z</time></trkpt><trkpt lat="45.932818193387256" lon="6.127919826637149"><ele>455.6</ele><time>2026-04-18T16:15:23.999Z</time></trkpt><trkpt lat="45.93271811333029" lon="6.127849604954645"><ele>455.4</ele><time>2026-04-18T16:15:24.999Z</time></trkpt><trkpt lat="45.93262180897116" lon="6.127784698433097"><ele>455.2</ele><time>2026-04-18T16:15:25.999Z</time></trkpt><trkpt lat="45.932534007314075" lon="6.127713724321309"><ele>455.0</ele><time>2026-04-18T16:15:26.999Z</time></trkpt><trkpt lat="45.93244965851617" lon="6.12764811982774"><ele>455.0</ele><time>2026-04-18T16:15:27.999Z</time></trkpt><trkpt lat="45.93236914315728" lon="6.127575509178886"><ele>455.0</ele><time>2026-04-18T16:15:28.999Z</time></trkpt><trkpt lat="45.93228290811919" lon="6.127487246567928"><ele>455.0</ele><time>2026-04-18T16:15:29.999Z</time></trkpt><trkpt lat="45.932209242273295" lon="6.127385584802767"><ele>455.0</ele><time>2026-04-18T16:15:30.999Z</time></trkpt><trkpt lat="45.93213482095664" lon="6.127273749205005"><ele>455.0</ele><time>2026-04-18T16:15:31.999Z</time></trkpt><trkpt lat="45.93206430042694" lon="6.1271541593427115"><ele>454.5</ele><time>2026-04-18T16:15:32.999Z</time></trkpt><trkpt lat="45.931995801272095" lon="6.127030287220706"><ele>454.0</ele><time>2026-04-18T16:15:33.999Z</time></trkpt><trkpt lat="45.93192921426475" lon="6.126909817820606"><ele>453.5</ele><time>2026-04-18T16:15:34.999Z</time></trkpt><trkpt lat="45.93185040325751" lon="6.126777398114848"><ele>453.0</ele><time>2026-04-18T16:15:36Z</time></trkpt><trkpt lat="45.931772996143614" lon="6.126642419531333"><ele>454.75</ele><time>2026-04-18T16:15:37Z</time></trkpt><trkpt lat="45.93168753619431" lon="6.126502362193234"><ele>456.5</ele><time>2026-04-18T16:15:38Z</time></trkpt><trkpt lat="45.93160464391629" lon="6.126354241278197"><ele>458.25</ele><time>2026-04-18T16:15:39Z</time></trkpt><trkpt lat="45.93152153950643" lon="6.126206213449562"><ele>460.0</ele><time>2026-04-18T16:15:40Z</time></trkpt><trkpt lat="45.93143748588947" lon="6.126055906195914"><ele>460.0</ele><time>2026-04-18T16:15:41Z</time></trkpt><trkpt lat="45.9313591421737" lon="6.12591412660035"><ele>460.0</ele><time>2026-04-18T16:15:42Z</time></trkpt><trkpt lat="45.931283388122495" lon="6.125779959799468"><ele>460.0</ele><time>2026-04-18T16:15:43Z</time></trkpt><trkpt lat="45.93121191386825" lon="6.125650201945449"><ele>460.0</ele><time>2026-04-18T16:15:44Z</time></trkpt><trkpt lat="45.931142879519925" lon="6.125518009986373"><ele>460.75</ele><time>2026-04-18T16:15:45Z</time></trkpt><trkpt lat="45.931070705854495" lon="6.1253850571122"><ele>461.5</ele><time>2026-04-18T16:15:46Z</time></trkpt><trkpt lat="45.93099502605043" lon="6.125250045893341"><ele>462.25</ele><time>2026-04-18T16:15:47Z</time></trkpt><trkpt lat="45.93091846866151" lon="6.125110156422532"><ele>463.0</ele><time>2026-04-18T16:15:48Z</time></trkpt><trkpt lat="45.93084932367601" lon="6.124976762799239"><ele>460.79999999999995</ele><time>2026-04-18T16:15:49Z</time></trkpt><trkpt lat="45.9307810348848" lon="6.1248474332523575"><ele>458.59999999999997</ele><time>2026-04-18T16:15:50Z</time></trkpt><trkpt lat="45.93072013317529" lon="6.124718143716624"><ele>456.40000000000003</ele><time>2026-04-18T16:15:51Z</time></trkpt><trkpt lat="45.93065926664992" lon="6.12460155281365"><ele>454.20000000000005</ele><time>2026-04-18T16:15:52Z</time></trkpt><trkpt lat="45.930610533656875" lon="6.124493931931387"><ele>452.0</ele><time>2026-04-18T16:15:53Z</time></trkpt><trkpt lat="45.930570225932115" lon="6.124416127590983"><ele>452.0</ele><time>2026-04-18T16:15:54Z</time></trkpt><trkpt lat="45.93052919579815" lon="6.124313835212791"><ele>452.00000000000006</ele><time>2026-04-18T16:15:55Z</time></trkpt><trkpt lat="45.9304894374747" lon="6.124225361120135"><ele>452.00000000000006</ele><time>2026-04-18T16:15:57Z</time></trkpt><trkpt lat="45.930461975688615" lon="6.12408718185981"><ele>452.0</ele><time>2026-04-18T16:16:00Z</time></trkpt><trkpt lat="45.93041719012896" lon="6.123947508816496"><ele>452.0</ele><time>2026-04-18T16:16:02Z</time></trkpt><trkpt lat="45.93030611194358" lon="6.123879642739532"><ele>452.66666666666663</ele><time>2026-04-18T16:16:04Z</time></trkpt><trkpt lat="45.930239206433754" lon="6.123861000105819"><ele>453.3333333333333</ele><time>2026-04-18T16:16:05Z</time></trkpt><trkpt lat="45.930157932898034" lon="6.123895519859537"><ele>454.0</ele><time>2026-04-18T16:16:06Z</time></trkpt><trkpt lat="45.930072064215565" lon="6.123899674039104"><ele>454.66666666666663</ele><time>2026-04-18T16:16:07Z</time></trkpt><trkpt lat="45.92997698670854" lon="6.123873743728077"><ele>455.3333333333333</ele><time>2026-04-18T16:16:08Z</time></trkpt><trkpt lat="45.92987490820485" lon="6.123842107852315"><ele>456.0</ele><time>2026-04-18T16:16:09Z</time></trkpt><trkpt lat="45.92977193468766" lon="6.123824912174969"><ele>456.0</ele><time>2026-04-18T16:16:09.999Z</time></trkpt><trkpt lat="45.92966663927819" lon="6.1238199903276795"><ele>456.0</ele><time>2026-04-18T16:16:10.999Z</time></trkpt><trkpt lat="45.92956829806501" lon="6.123821510971622"><ele>456.0</ele><time>2026-04-18T16:16:11.999Z</time></trkpt><trkpt lat="45.92946782377675" lon="6.12382749429843"><ele>456.0</ele><time>2026-04-18T16:16:12.999Z</time></trkpt><trkpt lat="45.92936875370476" lon="6.123831887142871"><ele>456.0</ele><time>2026-04-18T16:16:13.999Z</time></trkpt><trkpt lat="45.92927142219571" lon="6.123827465156218"><ele>456.5</ele><time>2026-04-18T16:16:14.999Z</time></trkpt><trkpt lat="45.92911916379748" lon="6.123844427366822"><ele>457.0</ele><time>2026-04-18T16:16:15.999Z</time></trkpt><trkpt lat="45.92900308877612" lon="6.123846861901065"><ele>457.5</ele><time>2026-04-18T16:16:16.999Z</time></trkpt><trkpt lat="45.92889160103049" lon="6.123850461875749"><ele>458.0</ele><time>2026-04-18T16:16:17.999Z</time></trkpt><trkpt lat="45.92878001782492" lon="6.1238513037994595"><ele>458.0</ele><time>2026-04-18T16:16:18.999Z</time></trkpt><trkpt lat="45.928667905835134" lon="6.123851695861464"><ele>458.0</ele><time>2026-04-18T16:16:19.999Z</time></trkpt><trkpt lat="45.92855321803136" lon="6.1238530251651975"><ele>458.0</ele><time>2026-04-18T16:16:20.999Z</time></trkpt><trkpt lat="45.928437938561615" lon="6.123855664551944"><ele>458.0</ele><time>2026-04-18T16:16:21.999Z</time></trkpt><trkpt lat="45.92832819849517" lon="6.1238542315815305"><ele>457.0</ele><time>2026-04-18T16:16:22.999Z</time></trkpt><trkpt lat="45.92822113308283" lon="6.123854066284069"><ele>455.99999999999994</ele><time>2026-04-18T16:16:23.999Z</time></trkpt><trkpt lat="45.928121419731404" lon="6.123855364059567"><ele>454.99999999999994</ele><time>2026-04-18T16:16:24.999Z</time></trkpt><trkpt lat="45.92802745442889" lon="6.123856712743011"><ele>454.0</ele><time>2026-04-18T16:16:25.999Z</time></trkpt><trkpt lat="45.927937942497316" lon="6.123854024459979"><ele>453.0</ele><time>2026-04-18T16:16:26.999Z</time></trkpt><trkpt lat="45.92785942934127" lon="6.123842401015632"><ele>453.0</ele><time>2026-04-18T16:16:27.999Z</time></trkpt><trkpt lat="45.927791836813725" lon="6.123803991674262"><ele>453.0</ele><time>2026-04-18T16:16:28.999Z</time></trkpt><trkpt lat="45.92773467637328" lon="6.123753440195959"><ele>453.0</ele><time>2026-04-18T16:16:29.999Z</time></trkpt><trkpt lat="45.92768468484094" lon="6.1236899794254676"><ele>453.0</ele><time>2026-04-18T16:16:30.999Z</time></trkpt><trkpt lat="45.92763366968013" lon="6.123627011021786"><ele>453.0</ele><time>2026-04-18T16:16:31.999Z</time></trkpt><trkpt lat="45.927574823553044" lon="6.123586510909063"><ele>453.0</ele><time>2026-04-18T16:16:32.999Z</time></trkpt><trkpt lat="45.92744958534377" lon="6.123597474643369"><ele>453.5714285714285</ele><time>2026-04-18T16:16:34.999Z</time></trkpt><trkpt lat="45.927393191504606" lon="6.12365642697063"><ele>454.1428571428571</ele><time>2026-04-18T16:16:35.999Z</time></trkpt><trkpt lat="45.92734019168654" lon="6.123723085719906"><ele>454.7142857142857</ele><time>2026-04-18T16:16:36.999Z</time></trkpt><trkpt lat="45.92729406493463" lon="6.123796530056814"><ele>455.2857142857143</ele><time>2026-04-18T16:16:37.999Z</time></trkpt><trkpt lat="45.92720533777399" lon="6.123815937420213"><ele>455.8571428571429</ele><time>2026-04-18T16:16:38.999Z</time></trkpt><trkpt lat="45.9271360374337" lon="6.123835793230838"><ele>456.4285714285715</ele><time>2026-04-18T16:16:39.999Z</time></trkpt><trkpt lat="45.92707080521693" lon="6.123839671100842"><ele>457.00000000000006</ele><time>2026-04-18T16:16:40.999Z</time></trkpt><trkpt lat="45.92700625855753" lon="6.123840643080924"><ele>457.00000000000006</ele><time>2026-04-18T16:16:41.999Z</time></trkpt><trkpt lat="45.92693277374222" lon="6.123846333844728"><ele>457.0</ele><time>2026-04-18T16:16:42.999Z</time></trkpt><trkpt lat="45.9268504542023" lon="6.123849541815937"><ele>457.0</ele><time>2026-04-18T16:16:43.999Z</time></trkpt><trkpt lat="45.92675952046368" lon="6.123843136160177"><ele>457.0</ele><time>2026-04-18T16:16:44.999Z</time></trkpt><trkpt lat="45.92665943076227" lon="6.123835617421034"><ele>457.00000000000006</ele><time>2026-04-18T16:16:45.999Z</time></trkpt><trkpt lat="45.926560194078434" lon="6.123835103305193"><ele>457.0</ele><time>2026-04-18T16:16:46.999Z</time></trkpt><trkpt lat="45.92646796947003" lon="6.12383434087418"><ele>456.83333333333337</ele><time>2026-04-18T16:16:47.999Z</time></trkpt><trkpt lat="45.926382465349846" lon="6.123833197051788"><ele>456.6666666666667</ele><time>2026-04-18T16:16:48.999Z</time></trkpt><trkpt lat="45.92629859245787" lon="6.123831191435118"><ele>456.5</ele><time>2026-04-18T16:16:49.999Z</time></trkpt><trkpt lat="45.92621838885259" lon="6.123835115859542"><ele>456.33333333333337</ele><time>2026-04-18T16:16:50.999Z</time></trkpt><trkpt lat="45.92613876691821" lon="6.123840461126356"><ele>456.1666666666667</ele><time>2026-04-18T16:16:51.999Z</time></trkpt><trkpt lat="45.92603527119291" lon="6.123838663849956"><ele>456.0</ele><time>2026-04-18T16:16:53.999Z</time></trkpt><trkpt lat="45.92596952920067" lon="6.1238592421296705"><ele>456.0</ele><time>2026-04-18T16:16:55.999Z</time></trkpt><trkpt lat="45.92588896824195" lon="6.1238642873175335"><ele>456.0</ele><time>2026-04-18T16:16:58.999Z</time></trkpt><trkpt lat="45.92575418781618" lon="6.123854703604254"><ele>456.0</ele><time>2026-04-18T16:17:00.999Z</time></trkpt><trkpt lat="45.9256741724155" lon="6.123843749167062"><ele>456.0</ele><time>2026-04-18T16:17:01.999Z</time></trkpt><trkpt lat="45.92560353993432" lon="6.1238375615901655"><ele>456.0</ele><time>2026-04-18T16:17:02.999Z</time></trkpt><trkpt lat="45.92551850361272" lon="6.123832478343454"><ele>456.0</ele><time>2026-04-18T16:17:03.999Z</time></trkpt><trkpt lat="45.925423550696635" lon="6.123827576460714"><ele>456.0</ele><time>2026-04-18T16:17:04.999Z</time></trkpt><trkpt lat="45.92532458282244" lon="6.123812564292708"><ele>456.0</ele><time>2026-04-18T16:17:05.999Z</time></trkpt><trkpt lat="45.925215102908936" lon="6.123820043627317"><ele>456.0</ele><time>2026-04-18T16:17:06.999Z</time></trkpt><trkpt lat="45.925104471061495" lon="6.123826748519979"><ele>456.0</ele><time>2026-04-18T16:17:07.999Z</time></trkpt><trkpt lat="45.92499110025891" lon="6.123832353036576"><ele>456.6</ele><time>2026-04-18T16:17:08.999Z</time></trkpt><trkpt lat="45.92487772851901" lon="6.123826343425235"><ele>457.20000000000005</ele><time>2026-04-18T16:17:09.999Z</time></trkpt><trkpt lat="45.924758668793245" lon="6.123821529675217"><ele>457.79999999999995</ele><time>2026-04-18T16:17:10.999Z</time></trkpt><trkpt lat="45.92464982851175" lon="6.123824136421976"><ele>458.4</ele><time>2026-04-18T16:17:11.999Z</time></trkpt><trkpt lat="45.92454766376976" lon="6.1238136774144944"><ele>459.0</ele><time>2026-04-18T16:17:12.999Z</time></trkpt><trkpt lat="45.92444945819364" lon="6.123803797227327"><ele>459.0</ele><time>2026-04-18T16:17:13.999Z</time></trkpt><trkpt lat="45.92432909539305" lon="6.123810443839613"><ele>459.0</ele><time>2026-04-18T16:17:14.999Z</time></trkpt><trkpt lat="45.92421335942257" lon="6.123813072803443"><ele>459.0</ele><time>2026-04-18T16:17:15.999Z</time></trkpt><trkpt lat="45.92410517452907" lon="6.123813760671454"><ele>459.0</ele><time>2026-04-18T16:17:16.999Z</time></trkpt><trkpt lat="45.9240029818148" lon="6.123814201360356"><ele>459.0</ele><time>2026-04-18T16:17:17.999Z</time></trkpt><trkpt lat="45.923911429151595" lon="6.12381372423489"><ele>459.3333333333333</ele><time>2026-04-18T16:17:18.999Z</time></trkpt><trkpt lat="45.923824142940695" lon="6.123815324219547"><ele>459.66666666666663</ele><time>2026-04-18T16:17:19.999Z</time></trkpt><trkpt lat="45.92373919936749" lon="6.123814942599946"><ele>460.0</ele><time>2026-04-18T16:17:20.999Z</time></trkpt><trkpt lat="45.92366727283991" lon="6.123807540992219"><ele>460.3333333333333</ele><time>2026-04-18T16:17:21.999Z</time></trkpt><trkpt lat="45.92359346808329" lon="6.123810026094454"><ele>460.66666666666663</ele><time>2026-04-18T16:17:23.999Z</time></trkpt><trkpt lat="45.92353024854389" lon="6.123805467795263"><ele>461.0</ele><time>2026-04-18T16:17:26.999Z</time></trkpt><trkpt lat="45.923449061625504" lon="6.123802366846565"><ele>461.0</ele><time>2026-04-18T16:17:28.999Z</time></trkpt><trkpt lat="45.92336934122239" lon="6.123783447107986"><ele>461.0</ele><time>2026-04-18T16:17:30.999Z</time></trkpt><trkpt lat="45.923286716767464" lon="6.123707078869827"><ele>461.0</ele><time>2026-04-18T16:17:32.999Z</time></trkpt><trkpt lat="45.92319486120605" lon="6.123634247564424"><ele>461.0</ele><time>2026-04-18T16:17:34.999Z</time></trkpt><trkpt lat="45.92309189608615" lon="6.123661968843577"><ele>461.0</ele><time>2026-04-18T16:17:36.999Z</time></trkpt><trkpt lat="45.923035778606256" lon="6.123712165159549"><ele>460.99999999999994</ele><time>2026-04-18T16:17:37.999Z</time></trkpt><trkpt lat="45.922964925374984" lon="6.123747894799562"><ele>461.0</ele><time>2026-04-18T16:17:38.999Z</time></trkpt><trkpt lat="45.922889460783956" lon="6.123789457309804"><ele>461.0</ele><time>2026-04-18T16:17:39.999Z</time></trkpt><trkpt lat="45.92278873915235" lon="6.123802961415457"><ele>461.0</ele><time>2026-04-18T16:17:40.999Z</time></trkpt><trkpt lat="45.92269545068765" lon="6.123812096239514"><ele>460.99999999999994</ele><time>2026-04-18T16:17:41.999Z</time></trkpt><trkpt lat="45.92260560838705" lon="6.123814882651221"><ele>461.0</ele><time>2026-04-18T16:17:42.999Z</time></trkpt><trkpt lat="45.92250671082635" lon="6.123820960932134"><ele>461.4</ele><time>2026-04-18T16:17:43.999Z</time></trkpt><trkpt lat="45.92240700864043" lon="6.123822378901943"><ele>461.8</ele><time>2026-04-18T16:17:44.999Z</time></trkpt><trkpt lat="45.92230119037194" lon="6.123823351565176"><ele>462.19999999999993</ele><time>2026-04-18T16:17:45.999Z</time></trkpt><trkpt lat="45.92219852277098" lon="6.123823351565152"><ele>462.59999999999997</ele><time>2026-04-18T16:17:46.999Z</time></trkpt><trkpt lat="45.92210435833642" lon="6.123823351566322"><ele>463.0</ele><time>2026-04-18T16:17:47.999Z</time></trkpt><trkpt lat="45.922019725137105" lon="6.1238233515652265"><ele>463.00000000000006</ele><time>2026-04-18T16:17:48.999Z</time></trkpt><trkpt lat="45.92192233494656" lon="6.123841578451173"><ele>463.0</ele><time>2026-04-18T16:17:49.999Z</time></trkpt><trkpt lat="45.921840583009974" lon="6.12383820052447"><ele>463.0</ele><time>2026-04-18T16:17:50.999Z</time></trkpt><trkpt lat="45.921756924445006" lon="6.1238367857064295"><ele>463.0</ele><time>2026-04-18T16:17:51.999Z</time></trkpt><trkpt lat="45.921675486754225" lon="6.12383661659335"><ele>463.00000000000006</ele><time>2026-04-18T16:17:52.999Z</time></trkpt><trkpt lat="45.92158919200672" lon="6.123831329555016"><ele>463.0</ele><time>2026-04-18T16:17:53.999Z</time></trkpt><trkpt lat="45.92149868346173" lon="6.123836294677587"><ele>463.0</ele><time>2026-04-18T16:17:54.999Z</time></trkpt><trkpt lat="45.9214054302481" lon="6.123818696422726"><ele>462.99999999999994</ele><time>2026-04-18T16:17:55.999Z</time></trkpt><trkpt lat="45.92131238677645" lon="6.123826401375126"><ele>462.99999999999994</ele><time>2026-04-18T16:17:56.999Z</time></trkpt><trkpt lat="45.921219108151384" lon="6.12382998330953"><ele>463.0</ele><time>2026-04-18T16:17:57.999Z</time></trkpt><trkpt lat="45.92111731234722" lon="6.123828998103303"><ele>463.0</ele><time>2026-04-18T16:17:58.999Z</time></trkpt><trkpt lat="45.92101550311457" lon="6.123823469173391"><ele>463.00000000000006</ele><time>2026-04-18T16:17:59.999Z</time></trkpt><trkpt lat="45.92092389644042" lon="6.123825206919661"><ele>463.0</ele><time>2026-04-18T16:18:00.999Z</time></trkpt><trkpt lat="45.92083054810646" lon="6.1238251941478"><ele>463.0</ele><time>2026-04-18T16:18:01.999Z</time></trkpt><trkpt lat="45.92074358304225" lon="6.123825503403746"><ele>463.0</ele><time>2026-04-18T16:18:02.999Z</time></trkpt><trkpt lat="45.920659697588654" lon="6.123824861329426"><ele>463.00000000000006</ele><time>2026-04-18T16:18:03.999Z</time></trkpt><trkpt lat="45.92057398302869" lon="6.123837508344383"><ele>463.0</ele><time>2026-04-18T16:18:04.999Z</time></trkpt><trkpt lat="45.9204784722605" lon="6.123842530625898"><ele>462.83333333333337</ele><time>2026-04-18T16:18:05.999Z</time></trkpt><trkpt lat="45.92038913941609" lon="6.123830795580983"><ele>462.6666666666667</ele><time>2026-04-18T16:18:06.999Z</time></trkpt><trkpt lat="45.920298326436075" lon="6.123832074512339"><ele>462.5</ele><time>2026-04-18T16:18:07.999Z</time></trkpt><trkpt lat="45.92021155092529" lon="6.123835393747938"><ele>462.33333333333337</ele><time>2026-04-18T16:18:08.999Z</time></trkpt><trkpt lat="45.920134684470625" lon="6.123838752940809"><ele>462.1666666666667</ele><time>2026-04-18T16:18:09.999Z</time></trkpt><trkpt lat="45.92006469357496" lon="6.123840273892585"><ele>462.0</ele><time>2026-04-18T16:18:10.999Z</time></trkpt><trkpt lat="45.91999658384977" lon="6.123842674677762"><ele>461.8333333333333</ele><time>2026-04-18T16:18:11.999Z</time></trkpt><trkpt lat="45.91993123358242" lon="6.123844749837305"><ele>461.66666666666663</ele><time>2026-04-18T16:18:12.999Z</time></trkpt><trkpt lat="45.919866629931484" lon="6.123825414725686"><ele>461.5</ele><time>2026-04-18T16:18:13.999Z</time></trkpt><trkpt lat="45.919786162027286" lon="6.123846745170666"><ele>461.3333333333333</ele><time>2026-04-18T16:18:14.999Z</time></trkpt><trkpt lat="45.91969844685249" lon="6.123845640019889"><ele>461.16666666666663</ele><time>2026-04-18T16:18:15.999Z</time></trkpt><trkpt lat="45.919597994491745" lon="6.123841958543958"><ele>461.0</ele><time>2026-04-18T16:18:16.999Z</time></trkpt><trkpt lat="45.91949476982516" lon="6.123833426295992"><ele>461.0</ele><time>2026-04-18T16:18:17.999Z</time></trkpt><trkpt lat="45.9193970853966" lon="6.123829278391343"><ele>461.0</ele><time>2026-04-18T16:18:18.999Z</time></trkpt><trkpt lat="45.9193036428167" lon="6.123834564752412"><ele>461.0</ele><time>2026-04-18T16:18:19.999Z</time></trkpt><trkpt lat="45.919218058307145" lon="6.123838669775783"><ele>461.0</ele><time>2026-04-18T16:18:20.999Z</time></trkpt><trkpt lat="45.91912775239036" lon="6.123838462795537"><ele>461.0</ele><time>2026-04-18T16:18:21.999Z</time></trkpt><trkpt lat="45.919033997461305" lon="6.123837297095432"><ele>461.0</ele><time>2026-04-18T16:18:22.999Z</time></trkpt><trkpt lat="45.918935753569095" lon="6.1238343501572645"><ele>461.0</ele><time>2026-04-18T16:18:23.999Z</time></trkpt><trkpt lat="45.91882567736296" lon="6.123832722789154"><ele>461.0</ele><time>2026-04-18T16:18:24.999Z</time></trkpt><trkpt lat="45.91870298537155" lon="6.12383159344728"><ele>461.0</ele><time>2026-04-18T16:18:25.999Z</time></trkpt><trkpt lat="45.91858453372102" lon="6.123829922088939"><ele>461.0</ele><time>2026-04-18T16:18:26.999Z</time></trkpt><trkpt lat="45.9184732089245" lon="6.123826576844445"><ele>461.16666666666663</ele><time>2026-04-18T16:18:27.999Z</time></trkpt><trkpt lat="45.91836918012102" lon="6.123828223863944"><ele>461.3333333333333</ele><time>2026-04-18T16:18:28.999Z</time></trkpt><trkpt lat="45.918283838128154" lon="6.123837459216616"><ele>461.5</ele><time>2026-04-18T16:18:29.999Z</time></trkpt><trkpt lat="45.91820337666556" lon="6.123814890517276"><ele>461.66666666666663</ele><time>2026-04-18T16:18:30.999Z</time></trkpt><trkpt lat="45.91812520527915" lon="6.123837472337501"><ele>461.8333333333333</ele><time>2026-04-18T16:18:31.999Z</time></trkpt><trkpt lat="45.91803879286377" lon="6.123834467110826"><ele>462.0</ele><time>2026-04-18T16:18:32.999Z</time></trkpt><trkpt lat="45.917947569656" lon="6.123824123828775"><ele>462.0</ele><time>2026-04-18T16:18:33.999Z</time></trkpt><trkpt lat="45.91785562003195" lon="6.1238305390884475"><ele>462.00000000000006</ele><time>2026-04-18T16:18:34.999Z</time></trkpt><trkpt lat="45.917763532899215" lon="6.123834755673073"><ele>462.00000000000006</ele><time>2026-04-18T16:18:35.999Z</time></trkpt><trkpt lat="45.91766732791039" lon="6.123829182239716"><ele>462.0</ele><time>2026-04-18T16:18:36.999Z</time></trkpt><trkpt lat="45.91756661496444" lon="6.123821007115902"><ele>462.0</ele><time>2026-04-18T16:18:37.999Z</time></trkpt><trkpt lat="45.91746837399556" lon="6.123824858730762"><ele>462.20000000000005</ele><time>2026-04-18T16:18:38.999Z</time></trkpt><trkpt lat="45.9173705540625" lon="6.123824033196966"><ele>462.40000000000003</ele><time>2026-04-18T16:18:39.999Z</time></trkpt><trkpt lat="45.9172702468844" lon="6.123828406328594"><ele>462.59999999999997</ele><time>2026-04-18T16:18:40.999Z</time></trkpt><trkpt lat="45.91717713497854" lon="6.123820965396449"><ele>462.79999999999995</ele><time>2026-04-18T16:18:41.999Z</time></trkpt><trkpt lat="45.91708180701252" lon="6.123826314205166"><ele>463.0</ele><time>2026-04-18T16:18:42.999Z</time></trkpt><trkpt lat="45.91698169345344" lon="6.123832115904838"><ele>463.0</ele><time>2026-04-18T16:18:43.999Z</time></trkpt><trkpt lat="45.9168784755986" lon="6.12383637615045"><ele>462.99999999999994</ele><time>2026-04-18T16:18:44.999Z</time></trkpt><trkpt lat="45.91677487911507" lon="6.123813690524694"><ele>462.99999999999994</ele><time>2026-04-18T16:18:45.999Z</time></trkpt><trkpt lat="45.916672123974934" lon="6.123813953618854"><ele>463.0</ele><time>2026-04-18T16:18:46.999Z</time></trkpt><trkpt lat="45.91657407962898" lon="6.123813953619592"><ele>463.0</ele><time>2026-04-18T16:18:47.999Z</time></trkpt><trkpt lat="45.916476823904766" lon="6.123813083367397"><ele>462.4</ele><time>2026-04-18T16:18:48.999Z</time></trkpt><trkpt lat="45.91637768475383" lon="6.12381214283455"><ele>461.79999999999995</ele><time>2026-04-18T16:18:49.999Z</time></trkpt><trkpt lat="45.91628398027396" lon="6.12381125389103"><ele>461.2</ele><time>2026-04-18T16:18:50.999Z</time></trkpt><trkpt lat="45.916199377453665" lon="6.12381076485926"><ele>460.6</ele><time>2026-04-18T16:18:51.999Z</time></trkpt><trkpt lat="45.91609904323533" lon="6.123810184895613"><ele>460.0</ele><time>2026-04-18T16:18:52.999Z</time></trkpt><trkpt lat="45.91600844342256" lon="6.123829770142595"><ele>460.0</ele><time>2026-04-18T16:18:53.999Z</time></trkpt><trkpt lat="45.915933782461835" lon="6.12382127706222"><ele>460.0</ele><time>2026-04-18T16:18:54.999Z</time></trkpt><trkpt lat="45.91586713430969" lon="6.1238274330837745"><ele>460.0</ele><time>2026-04-18T16:18:55.999Z</time></trkpt><trkpt lat="45.91574799982739" lon="6.123827694973678"><ele>460.0</ele><time>2026-04-18T16:18:57.999Z</time></trkpt><trkpt lat="45.915630247255386" lon="6.123827936800911"><ele>460.0</ele><time>2026-04-18T16:18:59.999Z</time></trkpt><trkpt lat="45.915505453609896" lon="6.123823742581758"><ele>460.00000000000006</ele><time>2026-04-18T16:19:01.999Z</time></trkpt><trkpt lat="45.9153769961597" lon="6.123828136393917"><ele>460.0</ele><time>2026-04-18T16:19:03.999Z</time></trkpt><trkpt lat="45.91531646075958" lon="6.123802197635229"><ele>460.0</ele><time>2026-04-18T16:19:04.999Z</time></trkpt><trkpt lat="45.915250486565554" lon="6.123799326881413"><ele>460.0</ele><time>2026-04-18T16:19:05.999Z</time></trkpt><trkpt lat="45.91517865965776" lon="6.1238132782669865"><ele>460.00000000000006</ele><time>2026-04-18T16:19:06.999Z</time></trkpt><trkpt lat="45.91510258975297" lon="6.123795317678124"><ele>460.0</ele><time>2026-04-18T16:19:07.999Z</time></trkpt><trkpt lat="45.91503307002066" lon="6.123773930603311"><ele>460.00000000000006</ele><time>2026-04-18T16:19:08.999Z</time></trkpt><trkpt lat="45.9149688109742" lon="6.123759294822753"><ele>460.0</ele><time>2026-04-18T16:19:09.999Z</time></trkpt><trkpt lat="45.91486945835856" lon="6.123721435553681"><ele>460.0</ele><time>2026-04-18T16:19:11.999Z</time></trkpt><trkpt lat="45.914794546393175" lon="6.1236721023118985"><ele>460.0</ele><time>2026-04-18T16:19:14.999Z</time></trkpt><trkpt lat="45.91471836077224" lon="6.1236290432991565"><ele>460.00000000000006</ele><time>2026-04-18T16:19:17.999Z</time></trkpt><trkpt lat="45.914621605091064" lon="6.1235803581717105"><ele>460.0</ele><time>2026-04-18T16:19:19.999Z</time></trkpt><trkpt lat="45.91450593754328" lon="6.123589862361764"><ele>460.0</ele><time>2026-04-18T16:19:21.999Z</time></trkpt><trkpt lat="45.91441366819781" lon="6.123677393499046"><ele>460.0</ele><time>2026-04-18T16:19:23.999Z</time></trkpt><trkpt lat="45.91434805993635" lon="6.123771694891547"><ele>460.0</ele><time>2026-04-18T16:19:25.999Z</time></trkpt><trkpt lat="45.914286370036194" lon="6.123829190194649"><ele>460.0</ele><time>2026-04-18T16:19:27.999Z</time></trkpt><trkpt lat="45.91417143572845" lon="6.123807696907258"><ele>460.0</ele><time>2026-04-18T16:19:29.999Z</time></trkpt><trkpt lat="45.914100746325694" lon="6.123808115951212"><ele>460.0</ele><time>2026-04-18T16:19:30.999Z</time></trkpt><trkpt lat="45.91402294991331" lon="6.123808577126635"><ele>460.0</ele><time>2026-04-18T16:19:31.999Z</time></trkpt><trkpt lat="45.91394351145661" lon="6.123824904107428"><ele>460.0</ele><time>2026-04-18T16:19:32.999Z</time></trkpt><trkpt lat="45.913847062272865" lon="6.123819046359102"><ele>460.0</ele><time>2026-04-18T16:19:33.999Z</time></trkpt><trkpt lat="45.913743854915175" lon="6.123820863601546"><ele>460.0</ele><time>2026-04-18T16:19:34.999Z</time></trkpt><trkpt lat="45.91363597016851" lon="6.123817470500448"><ele>460.0</ele><time>2026-04-18T16:19:35.999Z</time></trkpt><trkpt lat="45.91352442029953" lon="6.123808953605799"><ele>460.0</ele><time>2026-04-18T16:19:36.999Z</time></trkpt><trkpt lat="45.91342697367563" lon="6.123797148257743"><ele>460.0</ele><time>2026-04-18T16:19:37.999Z</time></trkpt><trkpt lat="45.913321158471014" lon="6.12379935604388"><ele>460.0</ele><time>2026-04-18T16:19:38.999Z</time></trkpt><trkpt lat="45.913224892141535" lon="6.123800464736182"><ele>460.0</ele><time>2026-04-18T16:19:39.999Z</time></trkpt><trkpt lat="45.91313152924406" lon="6.12381026981601"><ele>459.75</ele><time>2026-04-18T16:19:40.999Z</time></trkpt><trkpt lat="45.91304517135615" lon="6.123799444692331"><ele>459.5</ele><time>2026-04-18T16:19:41.999Z</time></trkpt><trkpt lat="45.912856644653566" lon="6.1238207192969325"><ele>459.25</ele><time>2026-04-18T16:19:42.999Z</time></trkpt><trkpt lat="45.912726259584915" lon="6.123813164901761"><ele>459.0</ele><time>2026-04-18T16:19:43.999Z</time></trkpt><trkpt lat="45.91261912540061" lon="6.123814427376133"><ele>458.4</ele><time>2026-04-18T16:19:44.999Z</time></trkpt><trkpt lat="45.912521420414734" lon="6.123814707202878"><ele>457.79999999999995</ele><time>2026-04-18T16:19:45.999Z</time></trkpt><trkpt lat="45.91243049096448" lon="6.123808292626382"><ele>457.20000000000005</ele><time>2026-04-18T16:19:46.999Z</time></trkpt><trkpt lat="45.912336976474606" lon="6.123805091497867"><ele>456.6</ele><time>2026-04-18T16:19:47.999Z</time></trkpt><trkpt lat="45.91224532844492" lon="6.123806156924713"><ele>456.0</ele><time>2026-04-18T16:19:48.999Z</time></trkpt><trkpt lat="45.912152887544295" lon="6.123810274162563"><ele>456.0</ele><time>2026-04-18T16:19:49.999Z</time></trkpt><trkpt lat="45.912064391334084" lon="6.123812672886455"><ele>456.0</ele><time>2026-04-18T16:19:50.999Z</time></trkpt><trkpt lat="45.91198421638286" lon="6.123813530856647"><ele>456.0</ele><time>2026-04-18T16:19:51.999Z</time></trkpt><trkpt lat="45.91189906555655" lon="6.123809629436482"><ele>456.0</ele><time>2026-04-18T16:19:52.999Z</time></trkpt><trkpt lat="45.91182179679163" lon="6.123791524278583"><ele>456.0</ele><time>2026-04-18T16:19:53.999Z</time></trkpt><trkpt lat="45.91174148527022" lon="6.12369908646735"><ele>456.0</ele><time>2026-04-18T16:20:01.999Z</time></trkpt><trkpt lat="45.91162857558386" lon="6.123710322659219"><ele>456.5</ele><time>2026-04-18T16:20:03.999Z</time></trkpt><trkpt lat="45.91156153001459" lon="6.123748636350788"><ele>457.0</ele><time>2026-04-18T16:20:04.999Z</time></trkpt><trkpt lat="45.9114922698404" lon="6.1237800956363335"><ele>457.5</ele><time>2026-04-18T16:20:05.999Z</time></trkpt><trkpt lat="45.9114124178457" lon="6.12379589164497"><ele>458.0</ele><time>2026-04-18T16:20:06.999Z</time></trkpt><trkpt lat="45.91132518616636" lon="6.123807298424072"><ele>458.5</ele><time>2026-04-18T16:20:07.999Z</time></trkpt><trkpt lat="45.91122847969343" lon="6.1238081647392475"><ele>459.0</ele><time>2026-04-18T16:20:08.999Z</time></trkpt><trkpt lat="45.91112811406165" lon="6.123807041986865"><ele>459.0</ele><time>2026-04-18T16:20:09.999Z</time></trkpt><trkpt lat="45.91102707069783" lon="6.123798332103358"><ele>459.0</ele><time>2026-04-18T16:20:10.999Z</time></trkpt><trkpt lat="45.9109291171315" lon="6.123799886823034"><ele>459.0</ele><time>2026-04-18T16:20:11.999Z</time></trkpt><trkpt lat="45.910824307804845" lon="6.1238027904113945"><ele>459.0</ele><time>2026-04-18T16:20:12.999Z</time></trkpt><trkpt lat="45.91073339593597" lon="6.123804687214051"><ele>459.0</ele><time>2026-04-18T16:20:13.999Z</time></trkpt><trkpt lat="45.9106478191231" lon="6.123807230146771"><ele>459.4</ele><time>2026-04-18T16:20:14.999Z</time></trkpt><trkpt lat="45.91056111643789" lon="6.123808411183199"><ele>459.79999999999995</ele><time>2026-04-18T16:20:15.999Z</time></trkpt><trkpt lat="45.910472563033856" lon="6.123798764589559"><ele>460.20000000000005</ele><time>2026-04-18T16:20:16.999Z</time></trkpt><trkpt lat="45.91038647137018" lon="6.123805069840376"><ele>460.6</ele><time>2026-04-18T16:20:17.999Z</time></trkpt><trkpt lat="45.91029100374615" lon="6.123785403735342"><ele>461.0</ele><time>2026-04-18T16:20:18.999Z</time></trkpt><trkpt lat="45.910190575936284" lon="6.1237830633322545"><ele>461.0</ele><time>2026-04-18T16:20:19.999Z</time></trkpt><trkpt lat="45.91009143047989" lon="6.123783961538822"><ele>461.0</ele><time>2026-04-18T16:20:20.999Z</time></trkpt><trkpt lat="45.91001720471815" lon="6.123784641122614"><ele>461.0</ele><time>2026-04-18T16:20:21.999Z</time></trkpt><trkpt lat="45.90991207090338" lon="6.123799515837743"><ele>461.0</ele><time>2026-04-18T16:20:22.999Z</time></trkpt><trkpt lat="45.90981637286413" lon="6.123799105387899"><ele>461.0</ele><time>2026-04-18T16:20:23.999Z</time></trkpt><trkpt lat="45.90973198178234" lon="6.123799637545925"><ele>460.20000000000005</ele><time>2026-04-18T16:20:24.999Z</time></trkpt><trkpt lat="45.909644149667265" lon="6.123801979343977"><ele>459.40000000000003</ele><time>2026-04-18T16:20:25.999Z</time></trkpt><trkpt lat="45.909546998519026" lon="6.123802665983166"><ele>458.6</ele><time>2026-04-18T16:20:26.999Z</time></trkpt><trkpt lat="45.90944777927604" lon="6.123798353277664"><ele>457.8</ele><time>2026-04-18T16:20:27.999Z</time></trkpt><trkpt lat="45.90933834334698" lon="6.123794256439481"><ele>457.0</ele><time>2026-04-18T16:20:28.999Z</time></trkpt><trkpt lat="45.90923140335196" lon="6.123797234956386"><ele>456.8</ele><time>2026-04-18T16:20:29.999Z</time></trkpt><trkpt lat="45.90913357923509" lon="6.1237992146421485"><ele>456.6</ele><time>2026-04-18T16:20:30.999Z</time></trkpt><trkpt lat="45.90902486188109" lon="6.123786329391688"><ele>456.40000000000003</ele><time>2026-04-18T16:20:31.999Z</time></trkpt><trkpt lat="45.908913253040254" lon="6.12378804012392"><ele>456.20000000000005</ele><time>2026-04-18T16:20:32.999Z</time></trkpt><trkpt lat="45.908795936671645" lon="6.1237928041778735"><ele>456.0</ele><time>2026-04-18T16:20:33.999Z</time></trkpt><trkpt lat="45.908683928206074" lon="6.123791778742205"><ele>456.0</ele><time>2026-04-18T16:20:34.999Z</time></trkpt><trkpt lat="45.90857702283438" lon="6.123775467812602"><ele>456.0</ele><time>2026-04-18T16:20:35.999Z</time></trkpt><trkpt lat="45.90846629825493" lon="6.123780958888125"><ele>456.0</ele><time>2026-04-18T16:20:36.999Z</time></trkpt><trkpt lat="45.90836435152191" lon="6.123789722783992"><ele>456.0</ele><time>2026-04-18T16:20:37.999Z</time></trkpt><trkpt lat="45.908276250202" lon="6.123786010460335"><ele>456.0</ele><time>2026-04-18T16:20:38.999Z</time></trkpt><trkpt lat="45.908198212831614" lon="6.123782013792543"><ele>456.1428571428571</ele><time>2026-04-18T16:20:39.999Z</time></trkpt><trkpt lat="45.90812238311588" lon="6.12377869131291"><ele>456.2857142857142</ele><time>2026-04-18T16:20:40.999Z</time></trkpt><trkpt lat="45.908057273449124" lon="6.123776277881308"><ele>456.42857142857144</ele><time>2026-04-18T16:20:41.999Z</time></trkpt><trkpt lat="45.90798760034704" lon="6.123782144967186"><ele>456.57142857142856</ele><time>2026-04-18T16:20:42.999Z</time></trkpt><trkpt lat="45.90790890955509" lon="6.123784599360538"><ele>456.7142857142857</ele><time>2026-04-18T16:20:43.999Z</time></trkpt><trkpt lat="45.90783456917046" lon="6.123794206257957"><ele>456.8571428571429</ele><time>2026-04-18T16:20:44.999Z</time></trkpt><trkpt lat="45.907763787064866" lon="6.123789634964269"><ele>457.00000000000006</ele><time>2026-04-18T16:20:45.999Z</time></trkpt><trkpt lat="45.90769438447145" lon="6.123783747479084"><ele>457.00000000000006</ele><time>2026-04-18T16:20:46.999Z</time></trkpt><trkpt lat="45.90762803027449" lon="6.123776605255638"><ele>457.0</ele><time>2026-04-18T16:20:47.999Z</time></trkpt><trkpt lat="45.907549471854544" lon="6.123788361275341"><ele>457.0</ele><time>2026-04-18T16:20:48.999Z</time></trkpt><trkpt lat="45.907466836800076" lon="6.123785155207869"><ele>457.0</ele><time>2026-04-18T16:20:49.999Z</time></trkpt><trkpt lat="45.90737941846929" lon="6.123781731034662"><ele>457.00000000000006</ele><time>2026-04-18T16:20:50.999Z</time></trkpt><trkpt lat="45.90727828647652" lon="6.123784131897149"><ele>457.0</ele><time>2026-04-18T16:20:51.999Z</time></trkpt><trkpt lat="45.90717094133382" lon="6.123780723230383"><ele>457.0</ele><time>2026-04-18T16:20:52.999Z</time></trkpt><trkpt lat="45.907067018102644" lon="6.123779638541622"><ele>457.00000000000006</ele><time>2026-04-18T16:20:53.999Z</time></trkpt><trkpt lat="45.90695912902937" lon="6.123782244735283"><ele>457.00000000000006</ele><time>2026-04-18T16:20:54.999Z</time></trkpt><trkpt lat="45.906856621421426" lon="6.123784324901291"><ele>457.0</ele><time>2026-04-18T16:20:55.999Z</time></trkpt><trkpt lat="45.906761919780116" lon="6.1237857287778"><ele>457.0</ele><time>2026-04-18T16:20:56.999Z</time></trkpt><trkpt lat="45.90666650579941" lon="6.123782290971337"><ele>456.83333333333337</ele><time>2026-04-18T16:20:57.999Z</time></trkpt><trkpt lat="45.90657544550634" lon="6.1237845806630515"><ele>456.6666666666667</ele><time>2026-04-18T16:20:58.999Z</time></trkpt><trkpt lat="45.906491042384374" lon="6.123786973904617"><ele>456.5</ele><time>2026-04-18T16:20:59.999Z</time></trkpt><trkpt lat="45.906410303498006" lon="6.12375912631268"><ele>456.33333333333337</ele><time>2026-04-18T16:21:00.999Z</time></trkpt><trkpt lat="45.90634157878505" lon="6.123771973976723"><ele>456.1666666666667</ele><time>2026-04-18T16:21:01.999Z</time></trkpt><trkpt lat="45.906272133912054" lon="6.123765422850282"><ele>456.0</ele><time>2026-04-18T16:21:02.999Z</time></trkpt><trkpt lat="45.90620666702114" lon="6.123766242931332"><ele>456.0</ele><time>2026-04-18T16:21:03.999Z</time></trkpt><trkpt lat="45.90613070743485" lon="6.1237701815560115"><ele>456.0</ele><time>2026-04-18T16:21:04.999Z</time></trkpt><trkpt lat="45.906055050428904" lon="6.12377005030518"><ele>456.0</ele><time>2026-04-18T16:21:05.999Z</time></trkpt><trkpt lat="45.90598002809461" lon="6.123765507355741"><ele>456.0</ele><time>2026-04-18T16:21:06.999Z</time></trkpt><trkpt lat="45.90591006591467" lon="6.123765394967141"><ele>456.0</ele><time>2026-04-18T16:21:07.999Z</time></trkpt><trkpt lat="45.90579855943112" lon="6.12375782007072"><ele>456.0</ele><time>2026-04-18T16:21:09.999Z</time></trkpt><trkpt lat="45.90572960228185" lon="6.123760142113423"><ele>455.8</ele><time>2026-04-18T16:21:12.999Z</time></trkpt><trkpt lat="45.90564058974092" lon="6.123755083462134"><ele>455.6</ele><time>2026-04-18T16:21:28.999Z</time></trkpt><trkpt lat="45.905558556639754" lon="6.123788470699448"><ele>455.4</ele><time>2026-04-18T16:21:30.999Z</time></trkpt><trkpt lat="45.905500044996" lon="6.123926951238916"><ele>455.2</ele><time>2026-04-18T16:21:40.999Z</time></trkpt><trkpt lat="45.90551894292961" lon="6.124104241926399"><ele>455.0</ele><time>2026-04-18T16:21:42.999Z</time></trkpt><trkpt lat="45.90553579575172" lon="6.1242817950706"><ele>454.8</ele><time>2026-04-18T16:21:44.999Z</time></trkpt><trkpt lat="45.90555521986004" lon="6.12444122027393"><ele>454.6</ele><time>2026-04-18T16:21:46.999Z</time></trkpt><trkpt lat="45.905564652200255" lon="6.124583365308414"><ele>454.4</ele><time>2026-04-18T16:21:48.999Z</time></trkpt><trkpt lat="45.90557371427265" lon="6.124716792470278"><ele>454.2</ele><time>2026-04-18T16:21:50.999Z</time></trkpt><trkpt lat="45.905583492495296" lon="6.124812352737726"><ele>454.0</ele><time>2026-04-18T16:21:51.999Z</time></trkpt><trkpt lat="45.90559990103538" lon="6.124965927998541"><ele>454.00000000000006</ele><time>2026-04-18T16:21:53.999Z</time></trkpt><trkpt lat="45.90562432050672" lon="6.125121474970472"><ele>454.0</ele><time>2026-04-18T16:21:55.999Z</time></trkpt><trkpt lat="45.905633577513875" lon="6.1252546641163494"><ele>454.0</ele><time>2026-04-18T16:21:57.999Z</time></trkpt><trkpt lat="45.905647021971866" lon="6.1253554275511854"><ele>454.0</ele><time>2026-04-18T16:22:07.999Z</time></trkpt><trkpt lat="45.905654420625105" lon="6.1254570205824"><ele>454.00000000000006</ele><time>2026-04-18T16:22:10.999Z</time></trkpt><trkpt lat="45.905650972543796" lon="6.125567693372894"><ele>454.0</ele><time>2026-04-18T16:22:16.999Z</time></trkpt><trkpt lat="45.905630393561424" lon="6.125681575966429"><ele>454.0</ele><time>2026-04-18T16:22:20.999Z</time></trkpt><trkpt lat="45.905599740951544" lon="6.125805779207337"><ele>454.0</ele><time>2026-04-18T16:22:22.999Z</time></trkpt><trkpt lat="45.905608845994294" lon="6.125966566069942"><ele>454.0</ele><time>2026-04-18T16:22:24.999Z</time></trkpt><trkpt lat="45.90566939706361" lon="6.126091991137799"><ele>454.0</ele><time>2026-04-18T16:22:26.999Z</time></trkpt><trkpt lat="45.905731670351194" lon="6.1262207524839845"><ele>454.0</ele><time>2026-04-18T16:22:28.999Z</time></trkpt><trkpt lat="45.90576073132717" lon="6.126390478425598"><ele>454.0</ele><time>2026-04-18T16:22:30.999Z</time></trkpt><trkpt lat="45.90576377309108" lon="6.126493108720801"><ele>454.00000000000006</ele><time>2026-04-18T16:22:31.999Z</time></trkpt><trkpt lat="45.905768460631975" lon="6.1266060477555735"><ele>454.0</ele><time>2026-04-18T16:22:32.999Z</time></trkpt><trkpt lat="45.90577636313112" lon="6.126711744459355"><ele>454.0</ele><time>2026-04-18T16:22:33.999Z</time></trkpt><trkpt lat="45.9057829531455" lon="6.12680987795691"><ele>454.00000000000006</ele><time>2026-04-18T16:22:34.999Z</time></trkpt><trkpt lat="45.90579164247283" lon="6.1269045852027775"><ele>454.0</ele><time>2026-04-18T16:22:35.999Z</time></trkpt><trkpt lat="45.90580246614571" lon="6.126995780796152"><ele>454.0</ele><time>2026-04-18T16:22:36.999Z</time></trkpt><trkpt lat="45.905814337075675" lon="6.127161299999909"><ele>454.0</ele><time>2026-04-18T16:22:38.999Z</time></trkpt><trkpt lat="45.90582138507073" lon="6.127251882331165"><ele>454.0</ele><time>2026-04-18T16:22:39.999Z</time></trkpt><trkpt lat="45.90583468747792" lon="6.127410238970115"><ele>454.0</ele><time>2026-04-18T16:22:41.999Z</time></trkpt><trkpt lat="45.90584903869003" lon="6.127540831385815"><ele>454.0</ele><time>2026-04-18T16:22:43.999Z</time></trkpt><trkpt lat="45.905862516209886" lon="6.127680514595888"><ele>454.0</ele><time>2026-04-18T16:22:45.999Z</time></trkpt><trkpt lat="45.905873114458025" lon="6.127855482218374"><ele>454.1666666666667</ele><time>2026-04-18T16:22:47.999Z</time></trkpt><trkpt lat="45.905879674844336" lon="6.127953374236662"><ele>454.33333333333337</ele><time>2026-04-18T16:22:48.999Z</time></trkpt><trkpt lat="45.905887512375365" lon="6.1280541956876435"><ele>454.5</ele><time>2026-04-18T16:22:49.999Z</time></trkpt><trkpt lat="45.90589468583831" lon="6.128147365547862"><ele>454.66666666666663</ele><time>2026-04-18T16:22:50.999Z</time></trkpt><trkpt lat="45.90591310970609" lon="6.128310620969131"><ele>454.8333333333333</ele><time>2026-04-18T16:22:52.999Z</time></trkpt><trkpt lat="45.9059402780078" lon="6.128449373757282"><ele>455.0</ele><time>2026-04-18T16:22:54.999Z</time></trkpt><trkpt lat="45.905958113304074" lon="6.128608078344847"><ele>454.6</ele><time>2026-04-18T16:22:56.999Z</time></trkpt><trkpt lat="45.906017973471165" lon="6.128749302464935"><ele>454.2</ele><time>2026-04-18T16:22:58.999Z</time></trkpt><trkpt lat="45.906019144476424" lon="6.128861285298941"><ele>453.79999999999995</ele><time>2026-04-18T16:23:00.999Z</time></trkpt><trkpt lat="45.905999727611494" lon="6.1291189355344375"><ele>453.4</ele><time>2026-04-18T16:23:01.999Z</time></trkpt><trkpt lat="45.90603871625563" lon="6.1292079423291925"><ele>453.0</ele><time>2026-04-18T16:23:05.999Z</time></trkpt><trkpt lat="45.9060582379392" lon="6.129332907418245"><ele>453.0</ele><time>2026-04-18T16:23:07.999Z</time></trkpt><trkpt lat="45.90608670245809" lon="6.12950947447292"><ele>452.99999999999994</ele><time>2026-04-18T16:23:09.999Z</time></trkpt><trkpt lat="45.90605883198125" lon="6.129664289151148"><ele>452.99999999999994</ele><time>2026-04-18T16:23:11.999Z</time></trkpt><trkpt lat="45.906075998059" lon="6.129782885639866"><ele>453.0</ele><time>2026-04-18T16:23:13.999Z</time></trkpt><trkpt lat="45.90608223409889" lon="6.129894143931758"><ele>453.0</ele><time>2026-04-18T16:23:15.999Z</time></trkpt><trkpt lat="45.906092487943056" lon="6.130000536261906"><ele>453.1428571428571</ele><time>2026-04-18T16:23:17.999Z</time></trkpt><trkpt lat="45.90610396458942" lon="6.130110120707512"><ele>453.2857142857143</ele><time>2026-04-18T16:23:19.999Z</time></trkpt><trkpt lat="45.906115277239685" lon="6.130231017538082"><ele>453.42857142857144</ele><time>2026-04-18T16:23:21.999Z</time></trkpt><trkpt lat="45.90612476556827" lon="6.130333482117303"><ele>453.57142857142856</ele><time>2026-04-18T16:23:23.999Z</time></trkpt><trkpt lat="45.90613849284568" lon="6.13045100978915"><ele>453.7142857142858</ele><time>2026-04-18T16:23:25.999Z</time></trkpt><trkpt lat="45.90614002044428" lon="6.130547972393038"><ele>453.8571428571429</ele><time>2026-04-18T16:23:27.999Z</time></trkpt><trkpt lat="45.906114192003734" lon="6.130633033150447"><ele>454.0</ele><time>2026-04-18T16:23:30.999Z</time></trkpt><trkpt lat="45.90607949268902" lon="6.130711223864181"><ele>453.6666666666667</ele><time>2026-04-18T16:23:32.999Z</time></trkpt><trkpt lat="45.90603887365717" lon="6.130788652091791"><ele>453.33333333333337</ele><time>2026-04-18T16:23:34.999Z</time></trkpt><trkpt lat="45.905987267947076" lon="6.130878541509801"><ele>453.0</ele><time>2026-04-18T16:23:36.999Z</time></trkpt><trkpt lat="45.90592368040043" lon="6.131019175000136"><ele>452.66666666666663</ele><time>2026-04-18T16:23:38.999Z</time></trkpt><trkpt lat="45.90589666235315" lon="6.131109426340029"><ele>452.3333333333333</ele><time>2026-04-18T16:23:39.999Z</time></trkpt><trkpt lat="45.905867081979295" lon="6.131196400016024"><ele>452.0</ele><time>2026-04-18T16:23:40.999Z</time></trkpt><trkpt lat="45.90580801147931" lon="6.13130624705221"><ele>451.99999999999994</ele><time>2026-04-18T16:23:42.999Z</time></trkpt><trkpt lat="45.905774050313205" lon="6.131407030586881"><ele>452.0</ele><time>2026-04-18T16:23:44.999Z</time></trkpt><trkpt lat="45.90573369730568" lon="6.131533591319967"><ele>452.0</ele><time>2026-04-18T16:23:46.999Z</time></trkpt><trkpt lat="45.905693614701015" lon="6.131609352171431"><ele>452.0</ele><time>2026-04-18T16:23:47.999Z</time></trkpt><trkpt lat="45.905668268797506" lon="6.1317111365403205"><ele>451.99999999999994</ele><time>2026-04-18T16:23:48.999Z</time></trkpt><trkpt lat="45.90562133733138" lon="6.131775050088447"><ele>452.0</ele><time>2026-04-18T16:23:49.999Z</time></trkpt><trkpt lat="45.90555293468584" lon="6.131897938795703"><ele>452.0</ele><time>2026-04-18T16:23:51.999Z</time></trkpt><trkpt lat="45.90550216792546" lon="6.132017057423822"><ele>452.00000000000006</ele><time>2026-04-18T16:23:53.999Z</time></trkpt><trkpt lat="45.905447228859266" lon="6.132113423467524"><ele>452.00000000000006</ele><time>2026-04-18T16:23:55.999Z</time></trkpt><trkpt lat="45.905343868735905" lon="6.132175482210354"><ele>452.0</ele><time>2026-04-18T16:23:57.999Z</time></trkpt><trkpt lat="45.905262468526736" lon="6.132261509622423"><ele>452.0</ele><time>2026-04-18T16:23:59.999Z</time></trkpt><trkpt lat="45.90523960572172" lon="6.132366348271332"><ele>452.16666666666663</ele><time>2026-04-18T16:24:02.999Z</time></trkpt><trkpt lat="45.905231395605306" lon="6.132468924999813"><ele>452.3333333333333</ele><time>2026-04-18T16:24:04.999Z</time></trkpt><trkpt lat="45.905239901757064" lon="6.132564475749105"><ele>452.5</ele><time>2026-04-18T16:24:06.999Z</time></trkpt><trkpt lat="45.90521375144538" lon="6.132711809995299"><ele>452.66666666666663</ele><time>2026-04-18T16:24:08.999Z</time></trkpt><trkpt lat="45.90519326347638" lon="6.132812806139236"><ele>452.8333333333333</ele><time>2026-04-18T16:24:10.999Z</time></trkpt><trkpt lat="45.90514276203792" lon="6.132936733083183"><ele>453.0</ele><time>2026-04-18T16:24:13.999Z</time></trkpt><trkpt lat="45.90510544920685" lon="6.133031809046214"><ele>453.0</ele><time>2026-04-18T16:24:15.999Z</time></trkpt><trkpt lat="45.90504506555526" lon="6.133134047421417"><ele>452.99999999999994</ele><time>2026-04-18T16:24:17.999Z</time></trkpt><trkpt lat="45.904992300243634" lon="6.13326124754104"><ele>452.99999999999994</ele><time>2026-04-18T16:24:19.999Z</time></trkpt><trkpt lat="45.90496462343894" lon="6.133356876252698"><ele>453.0</ele><time>2026-04-18T16:24:20.999Z</time></trkpt><trkpt lat="45.90490434744333" lon="6.133491924805495"><ele>453.0</ele><time>2026-04-18T16:24:22.999Z</time></trkpt><trkpt lat="45.90487230567936" lon="6.133593958587147"><ele>453.0</ele><time>2026-04-18T16:24:24.999Z</time></trkpt><trkpt lat="45.90483442561269" lon="6.133669518228952"><ele>453.0</ele><time>2026-04-18T16:24:26.999Z</time></trkpt><trkpt lat="45.904787368743136" lon="6.1337561257154976"><ele>453.0</ele><time>2026-04-18T16:24:28.999Z</time></trkpt><trkpt lat="45.9047183902316" lon="6.133839696406631"><ele>453.0</ele><time>2026-04-18T16:24:31.999Z</time></trkpt><trkpt lat="45.904675816769554" lon="6.1339336135072395"><ele>453.0</ele><time>2026-04-18T16:24:33.999Z</time></trkpt><trkpt lat="45.90462578817254" lon="6.134073918775317"><ele>453.0</ele><time>2026-04-18T16:24:35.999Z</time></trkpt><trkpt lat="45.9045871760187" lon="6.1342336294508915"><ele>452.8333333333333</ele><time>2026-04-18T16:24:37.999Z</time></trkpt><trkpt lat="45.90454253638239" lon="6.134370890315628"><ele>452.66666666666663</ele><time>2026-04-18T16:24:39.999Z</time></trkpt><trkpt lat="45.904493567634916" lon="6.134485172778539"><ele>452.5</ele><time>2026-04-18T16:24:41.999Z</time></trkpt><trkpt lat="45.90443370985546" lon="6.134630424346908"><ele>452.3333333333333</ele><time>2026-04-18T16:24:43.999Z</time></trkpt><trkpt lat="45.90439915835987" lon="6.134706782182471"><ele>452.16666666666663</ele><time>2026-04-18T16:24:44.999Z</time></trkpt><trkpt lat="45.90436120432342" lon="6.13478778637168"><ele>452.0</ele><time>2026-04-18T16:24:45.999Z</time></trkpt><trkpt lat="45.90432256702872" lon="6.134876511925166"><ele>451.8333333333333</ele><time>2026-04-18T16:24:46.999Z</time></trkpt><trkpt lat="45.904284098855584" lon="6.134977365101903"><ele>451.66666666666663</ele><time>2026-04-18T16:24:47.999Z</time></trkpt><trkpt lat="45.904243965960376" lon="6.1350661076470745"><ele>451.5</ele><time>2026-04-18T16:24:48.999Z</time></trkpt><trkpt lat="45.90420449160316" lon="6.135161610948478"><ele>451.33333333333337</ele><time>2026-04-18T16:24:49.999Z</time></trkpt><trkpt lat="45.90416318987647" lon="6.135262381288689"><ele>451.1666666666667</ele><time>2026-04-18T16:24:50.999Z</time></trkpt><trkpt lat="45.90411556860836" lon="6.1353551524155225"><ele>451.0</ele><time>2026-04-18T16:24:51.999Z</time></trkpt><trkpt lat="45.90405838747604" lon="6.135428009877304"><ele>451.50000000000006</ele><time>2026-04-18T16:24:52.999Z</time></trkpt><trkpt lat="45.9039996920324" lon="6.135483625792862"><ele>452.0</ele><time>2026-04-18T16:24:53.999Z</time></trkpt><trkpt lat="45.90393674993478" lon="6.13552100831196"><ele>452.5</ele><time>2026-04-18T16:24:54.999Z</time></trkpt><trkpt lat="45.90383494284066" lon="6.13556548667413"><ele>453.0</ele><time>2026-04-18T16:24:56.999Z</time></trkpt><trkpt lat="45.903749343485906" lon="6.135606416623589"><ele>453.50000000000006</ele><time>2026-04-18T16:24:58.999Z</time></trkpt><trkpt lat="45.90367921444824" lon="6.135644388127464"><ele>454.0</ele><time>2026-04-18T16:25:00.999Z</time></trkpt><trkpt lat="45.90360366075032" lon="6.135691720667727"><ele>454.1666666666667</ele><time>2026-04-18T16:26:01Z</time></trkpt><trkpt lat="45.9035266495287" lon="6.135736879902699"><ele>454.33333333333337</ele><time>2026-04-18T16:26:03Z</time></trkpt><trkpt lat="45.90346192358642" lon="6.135774059206191"><ele>454.5</ele><time>2026-04-18T16:26:05Z</time></trkpt><trkpt lat="45.903381989017944" lon="6.135823208787149"><ele>454.66666666666663</ele><time>2026-04-18T16:26:08Z</time></trkpt><trkpt lat="45.90339322356793" lon="6.135970324714516"><ele>454.8333333333333</ele><time>2026-04-18T16:26:10Z</time></trkpt><trkpt lat="45.903427774820315" lon="6.136114420347732"><ele>455.0</ele><time>2026-04-18T16:26:12Z</time></trkpt><trkpt lat="45.903477506242616" lon="6.136276459243346"><ele>455.16666666666663</ele><time>2026-04-18T16:26:14Z</time></trkpt><trkpt lat="45.903531573633956" lon="6.13644610702559"><ele>455.3333333333333</ele><time>2026-04-18T16:26:16Z</time></trkpt><trkpt lat="45.90356590527955" lon="6.136554236005881"><ele>455.5</ele><time>2026-04-18T16:26:17Z</time></trkpt><trkpt lat="45.90358952535961" lon="6.136669966875813"><ele>455.66666666666663</ele><time>2026-04-18T16:26:18Z</time></trkpt><trkpt lat="45.90362751354426" lon="6.136770601266221"><ele>455.8333333333333</ele><time>2026-04-18T16:26:19Z</time></trkpt><trkpt lat="45.90365305919812" lon="6.136858064200475"><ele>456.0</ele><time>2026-04-18T16:26:20Z</time></trkpt><trkpt lat="45.903683234269934" lon="6.13695176707627"><ele>456.0</ele><time>2026-04-18T16:26:21Z</time></trkpt><trkpt lat="45.90371233143096" lon="6.137039857723136"><ele>456.0</ele><time>2026-04-18T16:26:22Z</time></trkpt><trkpt lat="45.90373553186444" lon="6.137139407049876"><ele>456.0</ele><time>2026-04-18T16:26:23Z</time></trkpt><trkpt lat="45.903764257064175" lon="6.137267810845312"><ele>456.0</ele><time>2026-04-18T16:26:24Z</time></trkpt><trkpt lat="45.903802004245094" lon="6.137405481447562"><ele>456.0</ele><time>2026-04-18T16:26:25Z</time></trkpt><trkpt lat="45.90383274857034" lon="6.1375177436135155"><ele>456.0</ele><time>2026-04-18T16:26:26Z</time></trkpt><trkpt lat="45.90386819598619" lon="6.137624343751269"><ele>456.3333333333333</ele><time>2026-04-18T16:26:27Z</time></trkpt><trkpt lat="45.903887266231884" lon="6.13772812711839"><ele>456.66666666666663</ele><time>2026-04-18T16:26:28Z</time></trkpt><trkpt lat="45.903912429920865" lon="6.137813586152558"><ele>457.0</ele><time>2026-04-18T16:26:29Z</time></trkpt><trkpt lat="45.90393571305352" lon="6.137904452339016"><ele>457.3333333333333</ele><time>2026-04-18T16:26:30Z</time></trkpt><trkpt lat="45.90398101334153" lon="6.138081647577851"><ele>457.66666666666663</ele><time>2026-04-18T16:26:32Z</time></trkpt><trkpt lat="45.90399444089669" lon="6.138176796082221"><ele>458.0</ele><time>2026-04-18T16:26:33Z</time></trkpt><trkpt lat="45.90400826456972" lon="6.138275373634619"><ele>457.99999999999994</ele><time>2026-04-18T16:26:34Z</time></trkpt><trkpt lat="45.904025610130155" lon="6.138388024069651"><ele>458.0</ele><time>2026-04-18T16:26:35Z</time></trkpt><trkpt lat="45.90405773664739" lon="6.138504364870557"><ele>458.0</ele><time>2026-04-18T16:26:36Z</time></trkpt><trkpt lat="45.904087429982546" lon="6.138629004024427"><ele>458.0</ele><time>2026-04-18T16:26:37Z</time></trkpt><trkpt lat="45.90410784852744" lon="6.138717011761079"><ele>457.99999999999994</ele><time>2026-04-18T16:26:38Z</time></trkpt><trkpt lat="45.90414238577427" lon="6.138816235477336"><ele>458.0</ele><time>2026-04-18T16:26:39Z</time></trkpt><trkpt lat="45.904180325425436" lon="6.138914739648396"><ele>457.99999999999994</ele><time>2026-04-18T16:26:40Z</time></trkpt><trkpt lat="45.90422750585764" lon="6.139015299189732"><ele>458.0</ele><time>2026-04-18T16:26:41Z</time></trkpt><trkpt lat="45.904259298694186" lon="6.139135331416938"><ele>458.0</ele><time>2026-04-18T16:26:42Z</time></trkpt><trkpt lat="45.90429414507414" lon="6.139258508302394"><ele>458.0</ele><time>2026-04-18T16:26:43Z</time></trkpt><trkpt lat="45.904323930983686" lon="6.139377140214549"><ele>457.99999999999994</ele><time>2026-04-18T16:26:44Z</time></trkpt><trkpt lat="45.90434557721586" lon="6.139489303660461"><ele>458.0</ele><time>2026-04-18T16:26:45Z</time></trkpt><trkpt lat="45.904375164086254" lon="6.139587214614021"><ele>457.0</ele><time>2026-04-18T16:26:46Z</time></trkpt><trkpt lat="45.90440136558647" lon="6.139679641100242"><ele>455.99999999999994</ele><time>2026-04-18T16:26:47Z</time></trkpt><trkpt lat="45.90446357389408" lon="6.13988789164801"><ele>454.99999999999994</ele><time>2026-04-18T16:26:49Z</time></trkpt><trkpt lat="45.90448884245931" lon="6.140015929522419"><ele>454.0</ele><time>2026-04-18T16:26:50Z</time></trkpt><trkpt lat="45.904519221161365" lon="6.140120099309938"><ele>453.0</ele><time>2026-04-18T16:26:51Z</time></trkpt><trkpt lat="45.904548881787775" lon="6.140239914423861"><ele>452.8333333333333</ele><time>2026-04-18T16:26:52Z</time></trkpt><trkpt lat="45.9045783313077" lon="6.140366756247503"><ele>452.66666666666663</ele><time>2026-04-18T16:26:53Z</time></trkpt><trkpt lat="45.90461244817267" lon="6.1404815706627165"><ele>452.5</ele><time>2026-04-18T16:26:54Z</time></trkpt><trkpt lat="45.90464658875975" lon="6.1406207159941735"><ele>452.3333333333333</ele><time>2026-04-18T16:26:55Z</time></trkpt><trkpt lat="45.90467350914959" lon="6.140728870070715"><ele>452.16666666666663</ele><time>2026-04-18T16:26:56Z</time></trkpt><trkpt lat="45.90470100389708" lon="6.140842187858038"><ele>452.0</ele><time>2026-04-18T16:26:57Z</time></trkpt><trkpt lat="45.90473447989483" lon="6.14098401235475"><ele>451.99999999999994</ele><time>2026-04-18T16:26:59Z</time></trkpt><trkpt lat="45.90477231986932" lon="6.14112375271216"><ele>452.0</ele><time>2026-04-18T16:27:01Z</time></trkpt><trkpt lat="45.904792961312566" lon="6.141231877941167"><ele>452.0</ele><time>2026-04-18T16:27:03Z</time></trkpt><trkpt lat="45.90482513549153" lon="6.141344385507528"><ele>452.0</ele><time>2026-04-18T16:27:05Z</time></trkpt><trkpt lat="45.90487063404672" lon="6.141480358828607"><ele>451.99999999999994</ele><time>2026-04-18T16:27:07Z</time></trkpt><trkpt lat="45.90489888369287" lon="6.141563903695525"><ele>452.0</ele><time>2026-04-18T16:27:08Z</time></trkpt><trkpt lat="45.904937885515764" lon="6.141713857211326"><ele>451.99999999999994</ele><time>2026-04-18T16:27:10Z</time></trkpt><trkpt lat="45.90495821744425" lon="6.141841469564493"><ele>452.0</ele><time>2026-04-18T16:27:12Z</time></trkpt><trkpt lat="45.904992125647716" lon="6.141944965381069"><ele>452.0</ele><time>2026-04-18T16:27:14Z</time></trkpt><trkpt lat="45.9050340056988" lon="6.141838559719501"><ele>452.0</ele><time>2026-04-18T16:27:35Z</time></trkpt><trkpt lat="45.90498079086362" lon="6.1417296641446"><ele>451.99999999999994</ele><time>2026-04-18T16:27:36Z</time></trkpt><trkpt lat="45.90494494129853" lon="6.141620276548523"><ele>452.0</ele><time>2026-04-18T16:27:37Z</time></trkpt><trkpt lat="45.90492233422947" lon="6.141519889175392"><ele>452.0</ele><time>2026-04-18T16:27:38Z</time></trkpt><trkpt lat="45.904897260069575" lon="6.141414825150894"><ele>452.00000000000006</ele><time>2026-04-18T16:27:39Z</time></trkpt><trkpt lat="45.90485698645789" lon="6.141280181556164"><ele>452.00000000000006</ele><time>2026-04-18T16:27:40Z</time></trkpt><trkpt lat="45.90482817230387" lon="6.141163883296031"><ele>452.0</ele><time>2026-04-18T16:27:41Z</time></trkpt><trkpt lat="45.90481381065263" lon="6.14105597942026"><ele>452.0</ele><time>2026-04-18T16:27:42Z</time></trkpt><trkpt lat="45.904756760346494" lon="6.14087896676555"><ele>451.99999999999994</ele><time>2026-04-18T16:27:44Z</time></trkpt><trkpt lat="45.9047181363541" lon="6.140756634750925"><ele>452.0</ele><time>2026-04-18T16:27:45Z</time></trkpt><trkpt lat="45.90468971755682" lon="6.140640688704462"><ele>452.0</ele><time>2026-04-18T16:27:46Z</time></trkpt><trkpt lat="45.90465955190803" lon="6.140528979083613"><ele>452.0</ele><time>2026-04-18T16:27:47Z</time></trkpt><trkpt lat="45.90462865775553" lon="6.140401976544403"><ele>451.99999999999994</ele><time>2026-04-18T16:27:48Z</time></trkpt><trkpt lat="45.90459352367717" lon="6.140281493033979"><ele>452.0</ele><time>2026-04-18T16:27:49Z</time></trkpt><trkpt lat="45.9045590375185" lon="6.140162677503531"><ele>451.8333333333333</ele><time>2026-04-18T16:27:50Z</time></trkpt><trkpt lat="45.90452926078212" lon="6.140061482870384"><ele>451.66666666666663</ele><time>2026-04-18T16:27:51Z</time></trkpt><trkpt lat="45.904501950219135" lon="6.139953400950015"><ele>451.5</ele><time>2026-04-18T16:27:52Z</time></trkpt><trkpt lat="45.90447319672194" lon="6.139850214020703"><ele>451.33333333333337</ele><time>2026-04-18T16:27:53Z</time></trkpt><trkpt lat="45.90444681214517" lon="6.13974018368733"><ele>451.1666666666667</ele><time>2026-04-18T16:27:54Z</time></trkpt><trkpt lat="45.90441255121723" lon="6.1396381056586025"><ele>451.0</ele><time>2026-04-18T16:27:55Z</time></trkpt><trkpt lat="45.90437775347203" lon="6.139523936196068"><ele>451.33333333333337</ele><time>2026-04-18T16:27:56Z</time></trkpt><trkpt lat="45.904355175446426" lon="6.139431608722653"><ele>451.6666666666667</ele><time>2026-04-18T16:27:57Z</time></trkpt><trkpt lat="45.90433481916708" lon="6.139301002869446"><ele>452.0</ele><time>2026-04-18T16:27:58Z</time></trkpt><trkpt lat="45.904281800826006" lon="6.139153090511234"><ele>452.33333333333337</ele><time>2026-04-18T16:28:00Z</time></trkpt><trkpt lat="45.90424514106439" lon="6.139010814060883"><ele>452.6666666666667</ele><time>2026-04-18T16:28:02Z</time></trkpt><trkpt lat="45.90422182816172" lon="6.13892353699395"><ele>453.0</ele><time>2026-04-18T16:28:03Z</time></trkpt><trkpt lat="45.90419861537358" lon="6.138835932247511"><ele>454.0</ele><time>2026-04-18T16:28:04Z</time></trkpt><trkpt lat="45.904174957219226" lon="6.138728826689817"><ele>454.99999999999994</ele><time>2026-04-18T16:28:06Z</time></trkpt><trkpt lat="45.904142349967344" lon="6.138621322329011"><ele>455.99999999999994</ele><time>2026-04-18T16:28:10Z</time></trkpt><trkpt lat="45.904093125395" lon="6.138467627312351"><ele>457.0</ele><time>2026-04-18T16:28:12Z</time></trkpt><trkpt lat="45.90406900196461" lon="6.138351117331085"><ele>458.0</ele><time>2026-04-18T16:28:13Z</time></trkpt><trkpt lat="45.904045954462795" lon="6.138224547438044"><ele>458.4</ele><time>2026-04-18T16:28:14Z</time></trkpt><trkpt lat="45.904003252730185" lon="6.138101694762244"><ele>458.79999999999995</ele><time>2026-04-18T16:28:15Z</time></trkpt><trkpt lat="45.903971784159744" lon="6.13796265877915"><ele>459.2</ele><time>2026-04-18T16:28:16Z</time></trkpt><trkpt lat="45.90393358847277" lon="6.137816254795613"><ele>459.6</ele><time>2026-04-18T16:28:17Z</time></trkpt><trkpt lat="45.90390151152055" lon="6.137684839233801"><ele>460.0</ele><time>2026-04-18T16:28:18Z</time></trkpt><trkpt lat="45.90387063998368" lon="6.137546794097326"><ele>460.00000000000006</ele><time>2026-04-18T16:28:19Z</time></trkpt><trkpt lat="45.903847338020604" lon="6.137433525211492"><ele>460.0</ele><time>2026-04-18T16:28:20Z</time></trkpt><trkpt lat="45.9038113786488" lon="6.13731009938486"><ele>460.0</ele><time>2026-04-18T16:28:21Z</time></trkpt><trkpt lat="45.90377299416818" lon="6.13719502710572"><ele>460.0</ele><time>2026-04-18T16:28:22Z</time></trkpt><trkpt lat="45.9037360274892" lon="6.137084822195625"><ele>460.00000000000006</ele><time>2026-04-18T16:28:23Z</time></trkpt><trkpt lat="45.90369860036153" lon="6.136977301512576"><ele>460.0</ele><time>2026-04-18T16:28:24Z</time></trkpt><trkpt lat="45.90368344904963" lon="6.136853520412257"><ele>459.2</ele><time>2026-04-18T16:28:25Z</time></trkpt><trkpt lat="45.90363731638793" lon="6.136734914908429"><ele>458.4</ele><time>2026-04-18T16:28:26Z</time></trkpt><trkpt lat="45.90360459965874" lon="6.1366097416097105"><ele>457.6</ele><time>2026-04-18T16:28:27Z</time></trkpt><trkpt lat="45.903575204834006" lon="6.136487874377271"><ele>456.8</ele><time>2026-04-18T16:28:28Z</time></trkpt><trkpt lat="45.90355302707198" lon="6.136370510023234"><ele>456.0</ele><time>2026-04-18T16:28:29Z</time></trkpt><trkpt lat="45.90349987799992" lon="6.136220274899666"><ele>456.0</ele><time>2026-04-18T16:28:31Z</time></trkpt><trkpt lat="45.90347044580274" lon="6.136090166600569"><ele>456.0</ele><time>2026-04-18T16:28:33Z</time></trkpt><trkpt lat="45.903431377806015" lon="6.135923041969716"><ele>456.0</ele><time>2026-04-18T16:28:35Z</time></trkpt><trkpt lat="45.90340460058347" lon="6.135817427961969"><ele>456.0</ele><time>2026-04-18T16:28:36Z</time></trkpt><trkpt lat="45.90337395919766" lon="6.135686747640854"><ele>456.0</ele><time>2026-04-18T16:28:37Z</time></trkpt><trkpt lat="45.903345553121625" lon="6.135542347735252"><ele>456.25</ele><time>2026-04-18T16:28:38Z</time></trkpt><trkpt lat="45.90329964187226" lon="6.135387598681"><ele>456.5</ele><time>2026-04-18T16:28:39Z</time></trkpt><trkpt lat="45.90324998626653" lon="6.1352311068128795"><ele>456.75</ele><time>2026-04-18T16:28:40Z</time></trkpt><trkpt lat="45.90321560572314" lon="6.135081816087344"><ele>457.0</ele><time>2026-04-18T16:28:41Z</time></trkpt><trkpt lat="45.90317641723842" lon="6.134932260595793"><ele>456.8</ele><time>2026-04-18T16:28:42Z</time></trkpt><trkpt lat="45.903131907289016" lon="6.134792539198284"><ele>456.6</ele><time>2026-04-18T16:28:43Z</time></trkpt><trkpt lat="45.90309492737389" lon="6.134639090043337"><ele>456.40000000000003</ele><time>2026-04-18T16:28:44Z</time></trkpt><trkpt lat="45.90306159448065" lon="6.134495621431306"><ele>456.20000000000005</ele><time>2026-04-18T16:28:45Z</time></trkpt><trkpt lat="45.90302205988241" lon="6.134345892234869"><ele>456.0</ele><time>2026-04-18T16:28:46Z</time></trkpt><trkpt lat="45.90297547874918" lon="6.134195267420182"><ele>456.0</ele><time>2026-04-18T16:28:47Z</time></trkpt><trkpt lat="45.902940509617586" lon="6.1340578094366345"><ele>456.0</ele><time>2026-04-18T16:28:48Z</time></trkpt><trkpt lat="45.90291051441995" lon="6.133932919255151"><ele>456.0</ele><time>2026-04-18T16:28:49Z</time></trkpt><trkpt lat="45.90288265192719" lon="6.133825402958755"><ele>456.0</ele><time>2026-04-18T16:28:50Z</time></trkpt><trkpt lat="45.90285162207057" lon="6.133727731715406"><ele>456.0</ele><time>2026-04-18T16:28:51Z</time></trkpt><trkpt lat="45.90281950720242" lon="6.133616043777184"><ele>456.0</ele><time>2026-04-18T16:28:52Z</time></trkpt><trkpt lat="45.90278874177973" lon="6.13350168413522"><ele>455.6</ele><time>2026-04-18T16:28:53Z</time></trkpt><trkpt lat="45.9027521555872" lon="6.133376013805655"><ele>455.20000000000005</ele><time>2026-04-18T16:28:54Z</time></trkpt><trkpt lat="45.902721583542004" lon="6.133255107278305"><ele>454.79999999999995</ele><time>2026-04-18T16:28:55Z</time></trkpt><trkpt lat="45.902687243205975" lon="6.1331434723340665"><ele>454.4</ele><time>2026-04-18T16:28:56Z</time></trkpt><trkpt lat="45.90266294856053" lon="6.132982987737315"><ele>454.0</ele><time>2026-04-18T16:28:57Z</time></trkpt><trkpt lat="45.902613914861384" lon="6.1328358267976455"><ele>453.79999999999995</ele><time>2026-04-18T16:28:58Z</time></trkpt><trkpt lat="45.90257253234529" lon="6.132683837025818"><ele>453.59999999999997</ele><time>2026-04-18T16:28:59Z</time></trkpt><trkpt lat="45.90253256175759" lon="6.132527853514175"><ele>453.4</ele><time>2026-04-18T16:29:00Z</time></trkpt><trkpt lat="45.902499036776355" lon="6.132392774311727"><ele>453.2</ele><time>2026-04-18T16:29:01Z</time></trkpt><trkpt lat="45.902457576915864" lon="6.1322490998002674"><ele>453.0</ele><time>2026-04-18T16:29:02Z</time></trkpt><trkpt lat="45.90241203682404" lon="6.132116869960035"><ele>453.0</ele><time>2026-04-18T16:29:03Z</time></trkpt><trkpt lat="45.902383496476055" lon="6.131982400916788"><ele>453.0</ele><time>2026-04-18T16:29:04Z</time></trkpt><trkpt lat="45.90235313079104" lon="6.131854733931745"><ele>453.0</ele><time>2026-04-18T16:29:05Z</time></trkpt><trkpt lat="45.90232591818373" lon="6.131734981321349"><ele>453.0</ele><time>2026-04-18T16:29:06Z</time></trkpt><trkpt lat="45.902302114571874" lon="6.131624944322363"><ele>453.0</ele><time>2026-04-18T16:29:07Z</time></trkpt><trkpt lat="45.90228027125346" lon="6.131524320397924"><ele>453.0</ele><time>2026-04-18T16:29:08Z</time></trkpt><trkpt lat="45.90226216247725" lon="6.131418561829881"><ele>452.6666666666667</ele><time>2026-04-18T16:29:09Z</time></trkpt><trkpt lat="45.902243236270614" lon="6.131324486092771"><ele>452.33333333333337</ele><time>2026-04-18T16:29:10Z</time></trkpt><trkpt lat="45.902224971516915" lon="6.1312272325071495"><ele>452.0</ele><time>2026-04-18T16:29:11Z</time></trkpt><trkpt lat="45.90220338624309" lon="6.131127626129665"><ele>451.6666666666667</ele><time>2026-04-18T16:29:12Z</time></trkpt><trkpt lat="45.90217050697531" lon="6.131010821562675"><ele>451.33333333333337</ele><time>2026-04-18T16:29:13Z</time></trkpt><trkpt lat="45.90214056996025" lon="6.130901360699213"><ele>451.0</ele><time>2026-04-18T16:29:14Z</time></trkpt><trkpt lat="45.902110112412096" lon="6.130776086489499"><ele>450.83333333333337</ele><time>2026-04-18T16:29:15Z</time></trkpt><trkpt lat="45.90207012588301" lon="6.130644282881561"><ele>450.6666666666667</ele><time>2026-04-18T16:29:16Z</time></trkpt><trkpt lat="45.902034362789784" lon="6.130521649639063"><ele>450.5</ele><time>2026-04-18T16:29:17Z</time></trkpt><trkpt lat="45.902002651501036" lon="6.130411202367634"><ele>450.33333333333337</ele><time>2026-04-18T16:29:18Z</time></trkpt><trkpt lat="45.90197250996247" lon="6.130301506104967"><ele>450.1666666666667</ele><time>2026-04-18T16:29:19Z</time></trkpt><trkpt lat="45.90194359849541" lon="6.13019321187739"><ele>450.0</ele><time>2026-04-18T16:29:20Z</time></trkpt><trkpt lat="45.901918297551" lon="6.130094298533356"><ele>450.0</ele><time>2026-04-18T16:29:21Z</time></trkpt><trkpt lat="45.90188402877027" lon="6.129936972462809"><ele>450.0</ele><time>2026-04-18T16:29:23Z</time></trkpt><trkpt lat="45.90185535245442" lon="6.1297998694336835"><ele>450.0</ele><time>2026-04-18T16:29:25Z</time></trkpt><trkpt lat="45.90182239203105" lon="6.129692241258896"><ele>450.0</ele><time>2026-04-18T16:29:27Z</time></trkpt><trkpt lat="45.90178972410552" lon="6.129603496625649"><ele>450.0</ele><time>2026-04-18T16:29:41Z</time></trkpt><trkpt lat="45.901756625284804" lon="6.1295072157838035"><ele>450.0</ele><time>2026-04-18T16:29:43Z</time></trkpt><trkpt lat="45.901725653551274" lon="6.129395793369879"><ele>450.5</ele><time>2026-04-18T16:29:45Z</time></trkpt><trkpt lat="45.90170235295942" lon="6.129310654504066"><ele>451.0</ele><time>2026-04-18T16:29:46Z</time></trkpt><trkpt lat="45.901651244849525" lon="6.129143527805913"><ele>451.5</ele><time>2026-04-18T16:29:48Z</time></trkpt><trkpt lat="45.90162176245932" lon="6.129050774348365"><ele>452.0</ele><time>2026-04-18T16:29:49Z</time></trkpt><trkpt lat="45.90159518776449" lon="6.128959206947001"><ele>452.5</ele><time>2026-04-18T16:29:50Z</time></trkpt><trkpt lat="45.90157487764148" lon="6.128870409359978"><ele>453.0</ele><time>2026-04-18T16:29:51Z</time></trkpt><trkpt lat="45.90153856809397" lon="6.128727426226472"><ele>453.79999999999995</ele><time>2026-04-18T16:29:53Z</time></trkpt><trkpt lat="45.901508926808695" lon="6.128604656162505"><ele>454.59999999999997</ele><time>2026-04-18T16:29:55Z</time></trkpt><trkpt lat="45.90147856660604" lon="6.128490860959351"><ele>455.40000000000003</ele><time>2026-04-18T16:29:57Z</time></trkpt><trkpt lat="45.90144932073965" lon="6.128332253714269"><ele>456.20000000000005</ele><time>2026-04-18T16:29:59Z</time></trkpt><trkpt lat="45.90140173893102" lon="6.1281836146246285"><ele>457.0</ele><time>2026-04-18T16:30:01Z</time></trkpt><trkpt lat="45.90136212182314" lon="6.128051337213627"><ele>457.0</ele><time>2026-04-18T16:30:03Z</time></trkpt><trkpt lat="45.90132022442061" lon="6.127915471796719"><ele>457.00000000000006</ele><time>2026-04-18T16:30:05Z</time></trkpt><trkpt lat="45.901270554361965" lon="6.127750826457727"><ele>457.00000000000006</ele><time>2026-04-18T16:30:07Z</time></trkpt><trkpt lat="45.90122295541495" lon="6.127605512343828"><ele>457.0</ele><time>2026-04-18T16:30:09Z</time></trkpt><trkpt lat="45.9011451169117" lon="6.127506050195758"><ele>457.0</ele><time>2026-04-18T16:30:11Z</time></trkpt><trkpt lat="45.90108700587435" lon="6.127465664109593"><ele>457.0</ele><time>2026-04-18T16:30:12Z</time></trkpt><trkpt lat="45.90097584500809" lon="6.127451371131386"><ele>457.00000000000006</ele><time>2026-04-18T16:30:14Z</time></trkpt><trkpt lat="45.9008855320245" lon="6.127510787543655"><ele>457.00000000000006</ele><time>2026-04-18T16:30:16Z</time></trkpt><trkpt lat="45.900808318248174" lon="6.127584402030358"><ele>457.0</ele><time>2026-04-18T16:30:18Z</time></trkpt><trkpt lat="45.900730431032" lon="6.127637934419088"><ele>457.0</ele><time>2026-04-18T16:30:20Z</time></trkpt><trkpt lat="45.90065179173904" lon="6.12768727536625"><ele>456.40000000000003</ele><time>2026-04-18T16:30:22Z</time></trkpt><trkpt lat="45.90056392853899" lon="6.127743995344883"><ele>455.80000000000007</ele><time>2026-04-18T16:30:24Z</time></trkpt><trkpt lat="45.900490182538036" lon="6.127790262278942"><ele>455.2</ele><time>2026-04-18T16:30:26Z</time></trkpt><trkpt lat="45.900398516311654" lon="6.127847495100218"><ele>454.6</ele><time>2026-04-18T16:30:28Z</time></trkpt><trkpt lat="45.90029326397881" lon="6.127923112139897"><ele>454.0</ele><time>2026-04-18T16:30:30Z</time></trkpt><trkpt lat="45.90019578890192" lon="6.1279869704394665"><ele>454.00000000000006</ele><time>2026-04-18T16:30:32Z</time></trkpt><trkpt lat="45.90013204499177" lon="6.128034450611927"><ele>454.0</ele><time>2026-04-18T16:30:33Z</time></trkpt><trkpt lat="45.90006016734595" lon="6.128084970668636"><ele>454.0</ele><time>2026-04-18T16:30:34Z</time></trkpt><trkpt lat="45.89997965165387" lon="6.128138546390619"><ele>454.0</ele><time>2026-04-18T16:30:35Z</time></trkpt><trkpt lat="45.899907988156826" lon="6.128188023627372"><ele>454.00000000000006</ele><time>2026-04-18T16:30:36Z</time></trkpt><trkpt lat="45.8998458038217" lon="6.1282188839118446"><ele>454.0</ele><time>2026-04-18T16:30:37Z</time></trkpt><trkpt lat="45.89976176129353" lon="6.128307715541541"><ele>454.1666666666667</ele><time>2026-04-18T16:30:39Z</time></trkpt><trkpt lat="45.89968416690228" lon="6.1283378957601435"><ele>454.33333333333337</ele><time>2026-04-18T16:30:41Z</time></trkpt><trkpt lat="45.899596672652784" lon="6.128393226581074"><ele>454.5</ele><time>2026-04-18T16:30:55Z</time></trkpt><trkpt lat="45.899533949363736" lon="6.128428874532178"><ele>454.66666666666663</ele><time>2026-04-18T16:30:57Z</time></trkpt><trkpt lat="45.89954221135028" lon="6.128576024254356"><ele>454.8333333333333</ele><time>2026-04-18T16:30:59Z</time></trkpt><trkpt lat="45.89959448228195" lon="6.128641320854291"><ele>455.0</ele><time>2026-04-18T16:31:01Z</time></trkpt><trkpt lat="45.89966155649545" lon="6.128623421383584"><ele>455.0</ele><time>2026-04-18T16:31:03Z</time></trkpt><trkpt lat="45.89972179625867" lon="6.1285919771491955"><ele>455.0</ele><time>2026-04-18T16:31:06Z</time></trkpt><trkpt lat="45.89952605320789" lon="6.12874959602474"><ele>455.0</ele><time>2026-04-18T16:31:22Z</time></trkpt><trkpt lat="45.8995243569085" lon="6.128865563358434"><ele>455.0</ele><time>2026-04-18T16:31:26Z</time></trkpt><trkpt lat="45.8996209667487" lon="6.128855178010149"><ele>454.99999999999994</ele><time>2026-04-18T16:31:33Z</time></trkpt><trkpt lat="45.89961928583336" lon="6.128749393430062"><ele>455.0</ele><time>2026-04-18T16:31:37Z</time></trkpt><trkpt lat="45.89967420184103" lon="6.128881343456301"><ele>455.0</ele><time>2026-04-18T16:32:48Z</time></trkpt><trkpt lat="45.89967434329248" lon="6.128781260454567"><ele>455.0</ele><time>2026-04-18T16:33:00Z</time></trkpt><trkpt lat="45.89973389757512" lon="6.12883022610499"><ele>454.99999999999994</ele><time>2026-04-18T16:35:30Z</time></trkpt><trkpt lat="45.899788116133934" lon="6.128898111706178"><ele>455.0</ele><time>2026-04-18T16:35:38Z</time></trkpt><trkpt lat="45.899845904068904" lon="6.128936589029568"><ele>455.0</ele><time>2026-04-18T16:35:45Z</time></trkpt><trkpt lat="45.899910390795554" lon="6.128944972399581"><ele>455.0</ele><time>2026-04-18T16:35:51Z</time></trkpt><trkpt lat="45.8999859130511" lon="6.128973554838352"><ele>455.0</ele><time>2026-04-18T16:35:57Z</time></trkpt><trkpt lat="45.9000500921292" lon="6.128993821165009"><ele>455.0</ele><time>2026-04-18T16:36:06Z</time></trkpt><trkpt lat="45.900072333860216" lon="6.129083446692479"><ele>455.0</ele><time>2026-04-18T16:36:15Z</time></trkpt><trkpt lat="45.900093823124514" lon="6.129170759656853"><ele>455.0</ele><time>2026-04-18T16:36:20Z</time></trkpt><trkpt lat="45.900100506149684" lon="6.129274922406373"><ele>455.0</ele><time>2026-04-18T16:36:24Z</time></trkpt><trkpt lat="45.90009113750434" lon="6.129377186984977"><ele>454.7142857142857</ele><time>2026-04-18T16:36:30Z</time></trkpt><trkpt lat="45.900107147173344" lon="6.129478755310733"><ele>454.42857142857144</ele><time>2026-04-18T16:36:37.001Z</time></trkpt><trkpt lat="45.90010249617692" lon="6.12957223487781"><ele>454.1428571428571</ele><time>2026-04-18T16:36:44.001Z</time></trkpt><trkpt lat="45.90008454565363" lon="6.1296608526478575"><ele>453.85714285714283</ele><time>2026-04-18T16:36:49.001Z</time></trkpt><trkpt lat="45.90005681066272" lon="6.129744027647758"><ele>453.57142857142856</ele><time>2026-04-18T16:36:55.001Z</time></trkpt><trkpt lat="45.900036949349506" lon="6.12984373977023"><ele>453.2857142857142</ele><time>2026-04-18T16:37:01.001Z</time></trkpt><trkpt lat="45.90003836732083" lon="6.129934339328012"><ele>452.99999999999994</ele><time>2026-04-18T16:37:06.001Z</time></trkpt><trkpt lat="45.90005247290132" lon="6.130043858845326"><ele>452.99999999999994</ele><time>2026-04-18T16:37:13.001Z</time></trkpt><trkpt lat="45.900066059961226" lon="6.130144406325019"><ele>453.0</ele><time>2026-04-18T16:37:20.001Z</time></trkpt><trkpt lat="45.900084802079675" lon="6.130246341197672"><ele>452.99999999999994</ele><time>2026-04-18T16:37:26.001Z</time></trkpt><trkpt lat="45.90006313414821" lon="6.130340003685979"><ele>452.99999999999994</ele><time>2026-04-18T16:37:32Z</time></trkpt><trkpt lat="45.90006967799537" lon="6.130437169429481"><ele>453.0</ele><time>2026-04-18T16:37:38Z</time></trkpt><trkpt lat="45.90004539712157" lon="6.130537338312072"><ele>452.99999999999994</ele><time>2026-04-18T16:37:45Z</time></trkpt><trkpt lat="45.900043782898685" lon="6.130633258300441"><ele>452.99999999999994</ele><time>2026-04-18T16:37:50Z</time></trkpt><trkpt lat="45.900049767112705" lon="6.130727741242059"><ele>453.2857142857142</ele><time>2026-04-18T16:37:56Z</time></trkpt><trkpt lat="45.90005159535042" lon="6.130829512597055"><ele>453.57142857142856</ele><time>2026-04-18T16:38:04Z</time></trkpt><trkpt lat="45.900060225520505" lon="6.130924069394756"><ele>453.85714285714283</ele><time>2026-04-18T16:38:10Z</time></trkpt><trkpt lat="45.90003103479753" lon="6.131012944811902"><ele>454.1428571428571</ele><time>2026-04-18T16:38:16Z</time></trkpt><trkpt lat="45.90001187984259" lon="6.131119078533167"><ele>454.42857142857144</ele><time>2026-04-18T16:38:27Z</time></trkpt><trkpt lat="45.89999296546934" lon="6.131213812600552"><ele>454.7142857142857</ele><time>2026-04-18T16:38:32Z</time></trkpt><trkpt lat="45.89997976887273" lon="6.131319605946196"><ele>455.0</ele><time>2026-04-18T16:38:40Z</time></trkpt><trkpt lat="45.899983785874646" lon="6.1314115126438935"><ele>455.0</ele><time>2026-04-18T16:38:45.001Z</time></trkpt><trkpt lat="45.90000250099381" lon="6.131512957507621"><ele>455.0</ele><time>2026-04-18T16:38:53.001Z</time></trkpt><trkpt lat="45.90001028535702" lon="6.131615895550618"><ele>455.0</ele><time>2026-04-18T16:39:02.001Z</time></trkpt><trkpt lat="45.900000251588274" lon="6.131715883411996"><ele>455.0</ele><time>2026-04-18T16:39:12.001Z</time></trkpt><trkpt lat="45.89997578815419" lon="6.131799360164818"><ele>455.0</ele><time>2026-04-18T16:39:20Z</time></trkpt><trkpt lat="45.899940151416125" lon="6.131878631557103"><ele>455.0</ele><time>2026-04-18T16:39:28Z</time></trkpt><trkpt lat="45.89991091843747" lon="6.131970657666912"><ele>455.0</ele><time>2026-04-18T16:39:37Z</time></trkpt><trkpt lat="45.899858669400906" lon="6.132033900379537"><ele>455.1428571428571</ele><time>2026-04-18T16:39:45Z</time></trkpt><trkpt lat="45.89980527272032" lon="6.132095952499339"><ele>455.2857142857143</ele><time>2026-04-18T16:39:52Z</time></trkpt><trkpt lat="45.89975348831752" lon="6.13216063262742"><ele>455.42857142857144</ele><time>2026-04-18T16:39:58Z</time></trkpt><trkpt lat="45.89970452636307" lon="6.1322184509167075"><ele>455.57142857142856</ele><time>2026-04-18T16:40:05Z</time></trkpt><trkpt lat="45.89964878724996" lon="6.132271826959076"><ele>455.71428571428567</ele><time>2026-04-18T16:40:12Z</time></trkpt><trkpt lat="45.89958118280231" lon="6.132315707525934"><ele>455.85714285714283</ele><time>2026-04-18T16:40:19Z</time></trkpt><trkpt lat="45.89952232809588" lon="6.132359094957214"><ele>456.0</ele><time>2026-04-18T16:40:27Z</time></trkpt><trkpt lat="45.89945444023495" lon="6.132381338410084"><ele>455.71428571428567</ele><time>2026-04-18T16:40:34Z</time></trkpt><trkpt lat="45.89939158203362" lon="6.132409066657332"><ele>455.4285714285714</ele><time>2026-04-18T16:40:41Z</time></trkpt><trkpt lat="45.89931771954475" lon="6.13242172817454"><ele>455.1428571428571</ele><time>2026-04-18T16:40:48.001Z</time></trkpt><trkpt lat="45.89925450107771" lon="6.132443368550405"><ele>454.8571428571429</ele><time>2026-04-18T16:40:56.001Z</time></trkpt><trkpt lat="45.89918059046884" lon="6.132443120656136"><ele>454.5714285714286</ele><time>2026-04-18T16:41:04.001Z</time></trkpt><trkpt lat="45.8991131126383" lon="6.132430075117791"><ele>454.28571428571433</ele><time>2026-04-18T16:41:11.001Z</time></trkpt><trkpt lat="45.89904517506476" lon="6.1324035568221005"><ele>454.0</ele><time>2026-04-18T16:41:18.001Z</time></trkpt><trkpt lat="45.898975211732896" lon="6.132373663063496"><ele>454.0</ele><time>2026-04-18T16:41:26.001Z</time></trkpt><trkpt lat="45.89890901289646" lon="6.132348956780092"><ele>454.00000000000006</ele><time>2026-04-18T16:41:33Z</time></trkpt><trkpt lat="45.89884800454198" lon="6.132309572640853"><ele>454.0</ele><time>2026-04-18T16:41:40Z</time></trkpt><trkpt lat="45.89878740128881" lon="6.132247349107156"><ele>454.0</ele><time>2026-04-18T16:41:48Z</time></trkpt><trkpt lat="45.898740690229985" lon="6.132181134095477"><ele>454.00000000000006</ele><time>2026-04-18T16:41:54Z</time></trkpt><trkpt lat="45.898691400435006" lon="6.132119164570204"><ele>454.0</ele><time>2026-04-18T16:42:00Z</time></trkpt><trkpt lat="45.89865452810076" lon="6.1320361630723825"><ele>454.0</ele><time>2026-04-18T16:42:07Z</time></trkpt><trkpt lat="45.898614832347945" lon="6.1319531172837145"><ele>454.0</ele><time>2026-04-18T16:42:14Z</time></trkpt><trkpt lat="45.89857503996191" lon="6.131877077364049"><ele>454.00000000000006</ele><time>2026-04-18T16:42:21Z</time></trkpt><trkpt lat="45.89854162131217" lon="6.131787048437289"><ele>454.0</ele><time>2026-04-18T16:42:28Z</time></trkpt><trkpt lat="45.898515275347755" lon="6.131695779634674"><ele>454.0</ele><time>2026-04-18T16:42:34Z</time></trkpt><trkpt lat="45.89848355908917" lon="6.131589197936662"><ele>454.00000000000006</ele><time>2026-04-18T16:42:42Z</time></trkpt><trkpt lat="45.8984663622552" lon="6.131485998977602"><ele>454.0</ele><time>2026-04-18T16:42:49Z</time></trkpt><trkpt lat="45.89846181203239" lon="6.131382125980446"><ele>454.0</ele><time>2026-04-18T16:42:56.001Z</time></trkpt><trkpt lat="45.89846238231742" lon="6.131289143970347"><ele>454.14285714285717</ele><time>2026-04-18T16:43:04.001Z</time></trkpt><trkpt lat="45.898451414177906" lon="6.131197892087413"><ele>454.28571428571433</ele><time>2026-04-18T16:43:11.001Z</time></trkpt><trkpt lat="45.898443043134655" lon="6.131099045289129"><ele>454.42857142857144</ele><time>2026-04-18T16:43:17Z</time></trkpt><trkpt lat="45.89845094989914" lon="6.1310073452503016"><ele>454.57142857142856</ele><time>2026-04-18T16:43:23Z</time></trkpt><trkpt lat="45.898466596149376" lon="6.1309107483685485"><ele>454.7142857142857</ele><time>2026-04-18T16:43:29Z</time></trkpt><trkpt lat="45.898463167079065" lon="6.130818581594184"><ele>454.8571428571429</ele><time>2026-04-18T16:43:35Z</time></trkpt><trkpt lat="45.89845589284285" lon="6.130718028783206"><ele>455.0</ele><time>2026-04-18T16:43:42Z</time></trkpt><trkpt lat="45.898455334309695" lon="6.130611944108038"><ele>455.0</ele><time>2026-04-18T16:43:48Z</time></trkpt><trkpt lat="45.89845189990649" lon="6.130514080873435"><ele>455.0</ele><time>2026-04-18T16:43:55Z</time></trkpt><trkpt lat="45.89845036204278" lon="6.130421515297785"><ele>455.0</ele><time>2026-04-18T16:44:00Z</time></trkpt><trkpt lat="45.89844942292724" lon="6.1303307377299845"><ele>455.0</ele><time>2026-04-18T16:44:07Z</time></trkpt><trkpt lat="45.898458648965466" lon="6.130233406814998"><ele>455.0</ele><time>2026-04-18T16:44:16Z</time></trkpt><trkpt lat="45.89845359406443" lon="6.130122501724477"><ele>455.0</ele><time>2026-04-18T16:44:23Z</time></trkpt><trkpt lat="45.89846539374296" lon="6.1300230874968635"><ele>455.0</ele><time>2026-04-18T16:44:30Z</time></trkpt><trkpt lat="45.898476139694104" lon="6.129919061347607"><ele>454.42857142857144</ele><time>2026-04-18T16:44:37Z</time></trkpt><trkpt lat="45.898471739588956" lon="6.129810658578995"><ele>453.8571428571429</ele><time>2026-04-18T16:44:43Z</time></trkpt><trkpt lat="45.89847123906844" lon="6.129702304403399"><ele>453.2857142857143</ele><time>2026-04-18T16:44:51Z</time></trkpt><trkpt lat="45.89847562976454" lon="6.129611122049923"><ele>452.7142857142857</ele><time>2026-04-18T16:44:56.999Z</time></trkpt><trkpt lat="45.89845799021806" lon="6.129516557120555"><ele>452.14285714285717</ele><time>2026-04-18T16:45:03Z</time></trkpt><trkpt lat="45.898454108129116" lon="6.129421627401678"><ele>451.57142857142856</ele><time>2026-04-18T16:45:09.001Z</time></trkpt><trkpt lat="45.8984456300905" lon="6.129326032623051"><ele>451.0</ele><time>2026-04-18T16:45:16Z</time></trkpt><trkpt lat="45.89847388623158" lon="6.12924192881224"><ele>451.0</ele><time>2026-04-18T16:45:23Z</time></trkpt><trkpt lat="45.898517446963844" lon="6.129169998342849"><ele>451.0</ele><time>2026-04-18T16:45:29Z</time></trkpt><trkpt lat="45.898566826517275" lon="6.129096787326331"><ele>451.0</ele><time>2026-04-18T16:45:39Z</time></trkpt><trkpt lat="45.89863053141872" lon="6.129115449579185"><ele>451.0</ele><time>2026-04-18T16:45:46Z</time></trkpt><trkpt lat="45.89870248456757" lon="6.129111637308678"><ele>451.0</ele><time>2026-04-18T16:45:52Z</time></trkpt><trkpt lat="45.89876968580082" lon="6.129073966418465"><ele>451.0</ele><time>2026-04-18T16:46:01Z</time></trkpt><trkpt lat="45.89883068955099" lon="6.1290368934016835"><ele>451.0</ele><time>2026-04-18T16:46:09Z</time></trkpt><trkpt lat="45.89889376981375" lon="6.129026303037945"><ele>451.2857142857143</ele><time>2026-04-18T16:46:17Z</time></trkpt><trkpt lat="45.89895777173179" lon="6.128994237840257"><ele>451.57142857142856</ele><time>2026-04-18T16:46:25Z</time></trkpt><trkpt lat="45.899024348318285" lon="6.128954204916839"><ele>451.85714285714283</ele><time>2026-04-18T16:46:34Z</time></trkpt><trkpt lat="45.89908965180206" lon="6.12891640201524"><ele>452.1428571428571</ele><time>2026-04-18T16:46:42Z</time></trkpt><trkpt lat="45.89916424795983" lon="6.128916622434509"><ele>452.42857142857144</ele><time>2026-04-18T16:46:50Z</time></trkpt><trkpt lat="45.89921037785369" lon="6.128842697069555"><ele>452.71428571428567</ele><time>2026-04-18T16:46:56Z</time></trkpt><trkpt lat="45.89927526091141" lon="6.128834417195735"><ele>452.99999999999994</ele><time>2026-04-18T16:47:02Z</time></trkpt><trkpt lat="45.89934604471825" lon="6.12886729060725"><ele>453.2857142857142</ele><time>2026-04-18T16:47:08Z</time></trkpt><trkpt lat="45.89940749401172" lon="6.128913665112381"><ele>453.57142857142856</ele><time>2026-04-18T16:47:14Z</time></trkpt><trkpt lat="45.89947684449169" lon="6.128916174048312"><ele>453.85714285714283</ele><time>2026-04-18T16:47:20Z</time></trkpt><trkpt lat="45.899543263400794" lon="6.12892084250762"><ele>454.1428571428571</ele><time>2026-04-18T16:47:28Z</time></trkpt><trkpt lat="45.89962053439746" lon="6.128903150067904"><ele>454.42857142857144</ele><time>2026-04-18T16:47:36Z</time></trkpt><trkpt lat="45.899686461977936" lon="6.128888198530826"><ele>454.7142857142857</ele><time>2026-04-18T16:47:43Z</time></trkpt><trkpt lat="45.899752518277076" lon="6.128889705751134"><ele>455.0</ele><time>2026-04-18T16:47:53Z</time></trkpt><trkpt lat="45.89981923426733" lon="6.128915083922522"><ele>455.0</ele><time>2026-04-18T16:48:02Z</time></trkpt><trkpt lat="45.89988944015176" lon="6.128934331256228"><ele>455.0</ele><time>2026-04-18T16:48:11Z</time></trkpt><trkpt lat="45.89996016066463" lon="6.128943490001335"><ele>455.0</ele><time>2026-04-18T16:48:18Z</time></trkpt><trkpt lat="45.900024849333064" lon="6.12895852467137"><ele>455.0</ele><time>2026-04-18T16:48:24Z</time></trkpt><trkpt lat="45.9000806951891" lon="6.128885064391101"><ele>455.0</ele><time>2026-04-18T16:48:31Z</time></trkpt><trkpt lat="45.900111445688694" lon="6.128794197044484"><ele>455.0</ele><time>2026-04-18T16:48:39Z</time></trkpt><trkpt lat="45.90013200764793" lon="6.128706013027124"><ele>455.0</ele><time>2026-04-18T16:48:44Z</time></trkpt><trkpt lat="45.900135513298444" lon="6.128608749352933"><ele>454.8571428571429</ele><time>2026-04-18T16:48:50Z</time></trkpt><trkpt lat="45.900127999642216" lon="6.128510222030645"><ele>454.7142857142857</ele><time>2026-04-18T16:48:56.999Z</time></trkpt><trkpt lat="45.90014702039522" lon="6.128409101125459"><ele>454.57142857142856</ele><time>2026-04-18T16:49:03.999Z</time></trkpt><trkpt lat="45.90016608853749" lon="6.12832144935232"><ele>454.42857142857144</ele><time>2026-04-18T16:49:09.999Z</time></trkpt><trkpt lat="45.90019394842386" lon="6.128235333808397"><ele>454.28571428571433</ele><time>2026-04-18T16:49:17Z</time></trkpt><trkpt lat="45.90023886393931" lon="6.128170064635414"><ele>454.14285714285717</ele><time>2026-04-18T16:49:24Z</time></trkpt><trkpt lat="45.90029746100054" lon="6.128099478920052"><ele>454.0</ele><time>2026-04-18T16:49:31Z</time></trkpt><trkpt lat="45.90036181426174" lon="6.128068188143948"><ele>454.0</ele><time>2026-04-18T16:49:38Z</time></trkpt><trkpt lat="45.90042706490336" lon="6.128027841452796"><ele>454.00000000000006</ele><time>2026-04-18T16:49:45Z</time></trkpt><trkpt lat="45.90049192290953" lon="6.127980380658157"><ele>454.0</ele><time>2026-04-18T16:49:53Z</time></trkpt><trkpt lat="45.900550141033406" lon="6.12794313350352"><ele>454.0</ele><time>2026-04-18T16:50:00Z</time></trkpt><trkpt lat="45.90061143018183" lon="6.127904998955765"><ele>454.00000000000006</ele><time>2026-04-18T16:50:06Z</time></trkpt><trkpt lat="45.90066855912862" lon="6.127854610258057"><ele>454.0</ele><time>2026-04-18T16:50:13Z</time></trkpt><trkpt lat="45.90073298875108" lon="6.1278086267201015"><ele>454.0</ele><time>2026-04-18T16:50:21Z</time></trkpt><trkpt lat="45.90079474174511" lon="6.127789923179543"><ele>454.0</ele><time>2026-04-18T16:50:27Z</time></trkpt><trkpt lat="45.90086469073679" lon="6.127733336293343"><ele>454.00000000000006</ele><time>2026-04-18T16:50:35Z</time></trkpt><trkpt lat="45.900934972313976" lon="6.127699306605943"><ele>454.0</ele><time>2026-04-18T16:50:42Z</time></trkpt><trkpt lat="45.90100358012464" lon="6.127700242352731"><ele>454.0</ele><time>2026-04-18T16:50:52.999Z</time></trkpt><trkpt lat="45.90105005351684" lon="6.127779214015069"><ele>454.00000000000006</ele><time>2026-04-18T16:50:59.999Z</time></trkpt><trkpt lat="45.90109256744033" lon="6.127861867030905"><ele>454.0</ele><time>2026-04-18T16:51:06.999Z</time></trkpt><trkpt lat="45.90113124529955" lon="6.127945260129825"><ele>454.0</ele><time>2026-04-18T16:51:12.999Z</time></trkpt><trkpt lat="45.90119013521507" lon="6.127996438838949"><ele>454.50000000000006</ele><time>2026-04-18T16:51:18Z</time></trkpt><trkpt lat="45.901253293327336" lon="6.127960370489391"><ele>455.0</ele><time>2026-04-18T16:52:52Z</time></trkpt><trkpt lat="45.9013176834243" lon="6.12792694569698"><ele>455.5</ele><time>2026-04-18T16:53:01.999Z</time></trkpt><trkpt lat="45.90144485238762" lon="6.127981203968807"><ele>456.0</ele><time>2026-04-18T16:53:12.999Z</time></trkpt><trkpt lat="45.90150873539029" lon="6.128024686655344"><ele>456.50000000000006</ele><time>2026-04-18T16:53:18.999Z</time></trkpt><trkpt lat="45.90156926717489" lon="6.128062854614757"><ele>457.0</ele><time>2026-04-18T16:53:25Z</time></trkpt><trkpt lat="45.90166184997908" lon="6.128103283673449"><ele>457.0</ele><time>2026-04-18T16:53:44Z</time></trkpt><trkpt lat="45.90189930191859" lon="6.128045427042534"><ele>459.0</ele><time>2026-04-18T16:54:05Z</time></trkpt><trkpt lat="45.90191187825556" lon="6.128144298630262"><ele>459.0</ele><time>2026-04-18T16:54:44Z</time></trkpt></trkseg><trkseg><trkpt lat="45.89967991831408" lon="6.128807283733888"><ele>454.99999999999994</ele><time>2026-04-18T17:53:08Z</time></trkpt><trkpt lat="45.89961350727104" lon="6.128853888397907"><ele>455.0</ele><time>2026-04-18T17:53:11Z</time></trkpt><trkpt lat="45.899547452382656" lon="6.128830593578443"><ele>455.0</ele><time>2026-04-18T17:53:15Z</time></trkpt><trkpt lat="45.89953398704433" lon="6.128720491613049"><ele>455.0</ele><time>2026-04-18T17:53:18Z</time></trkpt><trkpt lat="45.8995434915491" lon="6.128627249506468"><ele>454.99999999999994</ele><time>2026-04-18T17:53:21Z</time></trkpt><trkpt lat="45.89962025710984" lon="6.128608679149861"><ele>455.0</ele><time>2026-04-18T17:53:29Z</time></trkpt><trkpt lat="45.89972882218793" lon="6.128587921288253"><ele>454.99999999999994</ele><time>2026-04-18T17:53:31Z</time></trkpt><trkpt lat="45.89980526426514" lon="6.128539448797145"><ele>455.0</ele><time>2026-04-18T17:53:33Z</time></trkpt><trkpt lat="45.899850680505985" lon="6.128453199232404"><ele>455.0</ele><time>2026-04-18T17:53:35Z</time></trkpt><trkpt lat="45.89990836049176" lon="6.128359665941562"><ele>455.0</ele><time>2026-04-18T17:53:38Z</time></trkpt><trkpt lat="45.89995135314641" lon="6.1282850348506495"><ele>454.99999999999994</ele><time>2026-04-18T17:53:41Z</time></trkpt><trkpt lat="45.89999029712074" lon="6.128185237567608"><ele>455.0</ele><time>2026-04-18T17:53:51Z</time></trkpt><trkpt lat="45.90005965452124" lon="6.128123608972441"><ele>454.8</ele><time>2026-04-18T17:53:54Z</time></trkpt><trkpt lat="45.90013909283612" lon="6.12807450775655"><ele>454.6</ele><time>2026-04-18T17:53:56Z</time></trkpt><trkpt lat="45.90023194934316" lon="6.1280131308013495"><ele>454.4</ele><time>2026-04-18T17:53:58Z</time></trkpt><trkpt lat="45.90032886317666" lon="6.127945998616429"><ele>454.2</ele><time>2026-04-18T17:54:00Z</time></trkpt><trkpt lat="45.900420944372904" lon="6.127870324186295"><ele>454.0</ele><time>2026-04-18T17:54:02Z</time></trkpt><trkpt lat="45.90053043489699" lon="6.1278140831435435"><ele>454.0</ele><time>2026-04-18T17:54:03.999Z</time></trkpt><trkpt lat="45.9006248921069" lon="6.127751531480696"><ele>454.0</ele><time>2026-04-18T17:54:05.999Z</time></trkpt><trkpt lat="45.90071659983039" lon="6.127693416955817"><ele>454.0</ele><time>2026-04-18T17:54:07.999Z</time></trkpt><trkpt lat="45.90081086882769" lon="6.127633920852411"><ele>454.0</ele><time>2026-04-18T17:54:09.999Z</time></trkpt><trkpt lat="45.90090526808171" lon="6.127574231203449"><ele>454.0</ele><time>2026-04-18T17:54:11.999Z</time></trkpt><trkpt lat="45.90100780244392" lon="6.127514608424631"><ele>454.6</ele><time>2026-04-18T17:54:13.999Z</time></trkpt><trkpt lat="45.90111661444019" lon="6.127589903733736"><ele>455.2</ele><time>2026-04-18T17:54:15.999Z</time></trkpt><trkpt lat="45.90119782469701" lon="6.127703500602255"><ele>455.80000000000007</ele><time>2026-04-18T17:54:17.999Z</time></trkpt><trkpt lat="45.90125126334174" lon="6.1278305328554845"><ele>456.40000000000003</ele><time>2026-04-18T17:54:19.999Z</time></trkpt><trkpt lat="45.90128843382851" lon="6.12795300071555"><ele>457.0</ele><time>2026-04-18T17:54:21.999Z</time></trkpt><trkpt lat="45.90132597328433" lon="6.128117613793547"><ele>457.00000000000006</ele><time>2026-04-18T17:54:23.999Z</time></trkpt><trkpt lat="45.90133989285724" lon="6.128208704455269"><ele>457.0</ele><time>2026-04-18T17:54:24.999Z</time></trkpt><trkpt lat="45.901384617653925" lon="6.128386380159793"><ele>457.0</ele><time>2026-04-18T17:54:26.999Z</time></trkpt><trkpt lat="45.9014152315791" lon="6.128485890194164"><ele>457.0</ele><time>2026-04-18T17:54:27.999Z</time></trkpt><trkpt lat="45.901445967579" lon="6.1285996290739"><ele>457.00000000000006</ele><time>2026-04-18T17:54:28.999Z</time></trkpt><trkpt lat="45.901475711512006" lon="6.128710022482086"><ele>457.0</ele><time>2026-04-18T17:54:30Z</time></trkpt><trkpt lat="45.901508368231646" lon="6.128830030572024"><ele>457.0</ele><time>2026-04-18T17:54:31Z</time></trkpt><trkpt lat="45.90154021219734" lon="6.128944328076208"><ele>457.00000000000006</ele><time>2026-04-18T17:54:32Z</time></trkpt><trkpt lat="45.9015760436629" lon="6.12905810708907"><ele>457.00000000000006</ele><time>2026-04-18T17:54:33Z</time></trkpt><trkpt lat="45.901606541947345" lon="6.129180380874477"><ele>457.0</ele><time>2026-04-18T17:54:34Z</time></trkpt><trkpt lat="45.90164320724049" lon="6.129297141483571"><ele>457.0</ele><time>2026-04-18T17:54:35Z</time></trkpt><trkpt lat="45.901685131763664" lon="6.129428817617995"><ele>456.20000000000005</ele><time>2026-04-18T17:54:36Z</time></trkpt><trkpt lat="45.90172489019974" lon="6.12957213103129"><ele>455.40000000000003</ele><time>2026-04-18T17:54:37Z</time></trkpt><trkpt lat="45.90176417126755" lon="6.12971780546061"><ele>454.59999999999997</ele><time>2026-04-18T17:54:38Z</time></trkpt><trkpt lat="45.90180103741764" lon="6.12986536364906"><ele>453.79999999999995</ele><time>2026-04-18T17:54:39Z</time></trkpt><trkpt lat="45.901837523371405" lon="6.13000523940513"><ele>453.0</ele><time>2026-04-18T17:54:40Z</time></trkpt><trkpt lat="45.90187830044021" lon="6.130138963165453"><ele>452.59999999999997</ele><time>2026-04-18T17:54:41Z</time></trkpt><trkpt lat="45.901919226449756" lon="6.13029172792003"><ele>452.19999999999993</ele><time>2026-04-18T17:54:42Z</time></trkpt><trkpt lat="45.901954389799286" lon="6.130428322800196"><ele>451.8</ele><time>2026-04-18T17:54:43Z</time></trkpt><trkpt lat="45.901986597837904" lon="6.130554647951115"><ele>451.4</ele><time>2026-04-18T17:54:44Z</time></trkpt><trkpt lat="45.90201361363419" lon="6.130668652694935"><ele>451.0</ele><time>2026-04-18T17:54:45Z</time></trkpt><trkpt lat="45.90204337419702" lon="6.1307834038496996"><ele>451.0</ele><time>2026-04-18T17:54:46Z</time></trkpt><trkpt lat="45.90207423427897" lon="6.130903405605658"><ele>451.0</ele><time>2026-04-18T17:54:47Z</time></trkpt><trkpt lat="45.90210357356804" lon="6.1310101451395"><ele>451.0</ele><time>2026-04-18T17:54:48Z</time></trkpt><trkpt lat="45.90213244210914" lon="6.1311062088209125"><ele>451.0</ele><time>2026-04-18T17:54:49Z</time></trkpt><trkpt lat="45.90215910861893" lon="6.131207750537042"><ele>451.0</ele><time>2026-04-18T17:54:50Z</time></trkpt><trkpt lat="45.90218147934841" lon="6.131295992871551"><ele>451.0</ele><time>2026-04-18T17:54:51Z</time></trkpt><trkpt lat="45.9022021389632" lon="6.131382151152208"><ele>451.0</ele><time>2026-04-18T17:54:52Z</time></trkpt><trkpt lat="45.90222678098475" lon="6.131479552869691"><ele>451.33333333333337</ele><time>2026-04-18T17:54:53Z</time></trkpt><trkpt lat="45.90225821311983" lon="6.131578405898178"><ele>451.6666666666667</ele><time>2026-04-18T17:54:54Z</time></trkpt><trkpt lat="45.90228975158659" lon="6.131692244004064"><ele>452.0</ele><time>2026-04-18T17:54:55Z</time></trkpt><trkpt lat="45.902320726169" lon="6.131810712324402"><ele>452.33333333333337</ele><time>2026-04-18T17:54:56Z</time></trkpt><trkpt lat="45.902358505301876" lon="6.131928175622973"><ele>452.6666666666667</ele><time>2026-04-18T17:54:57Z</time></trkpt><trkpt lat="45.90236906955432" lon="6.1320669950502955"><ele>453.0</ele><time>2026-04-18T17:54:58Z</time></trkpt><trkpt lat="45.902396882764414" lon="6.132171733585286"><ele>453.0</ele><time>2026-04-18T17:54:59Z</time></trkpt><trkpt lat="45.90243243778119" lon="6.132305625901116"><ele>452.99999999999994</ele><time>2026-04-18T17:55:00Z</time></trkpt><trkpt lat="45.90247015674421" lon="6.132448091474104"><ele>452.99999999999994</ele><time>2026-04-18T17:55:01Z</time></trkpt><trkpt lat="45.90250824678984" lon="6.13259328173974"><ele>453.0</ele><time>2026-04-18T17:55:02Z</time></trkpt><trkpt lat="45.902545013948554" lon="6.1327334294516955"><ele>453.0</ele><time>2026-04-18T17:55:03Z</time></trkpt><trkpt lat="45.90258116665649" lon="6.132871235076266"><ele>452.79999999999995</ele><time>2026-04-18T17:55:04Z</time></trkpt><trkpt lat="45.90261545550383" lon="6.13300193611394"><ele>452.59999999999997</ele><time>2026-04-18T17:55:05Z</time></trkpt><trkpt lat="45.902649918981666" lon="6.133129305747837"><ele>452.40000000000003</ele><time>2026-04-18T17:55:06Z</time></trkpt><trkpt lat="45.902697095391765" lon="6.133241147685336"><ele>452.20000000000005</ele><time>2026-04-18T17:55:07Z</time></trkpt><trkpt lat="45.902726906688805" lon="6.133360077167371"><ele>452.0</ele><time>2026-04-18T17:55:08Z</time></trkpt><trkpt lat="45.90276371894028" lon="6.133480928401347"><ele>452.40000000000003</ele><time>2026-04-18T17:55:09Z</time></trkpt><trkpt lat="45.902788947288066" lon="6.1335830230549595"><ele>452.80000000000007</ele><time>2026-04-18T17:55:10Z</time></trkpt><trkpt lat="45.902811246429835" lon="6.133678028721774"><ele>453.2</ele><time>2026-04-18T17:55:11Z</time></trkpt><trkpt lat="45.90284981558247" lon="6.133818456891382"><ele>453.6</ele><time>2026-04-18T17:55:13Z</time></trkpt><trkpt lat="45.90288429147746" lon="6.133948227117424"><ele>454.0</ele><time>2026-04-18T17:55:15Z</time></trkpt><trkpt lat="45.902929656582515" lon="6.134092153523142"><ele>454.33333333333337</ele><time>2026-04-18T17:55:17Z</time></trkpt><trkpt lat="45.90294546461222" lon="6.134199745238275"><ele>454.6666666666667</ele><time>2026-04-18T17:55:18Z</time></trkpt><trkpt lat="45.902981774527774" lon="6.134289205546251"><ele>455.0</ele><time>2026-04-18T17:55:19Z</time></trkpt><trkpt lat="45.90300786670732" lon="6.134393332567656"><ele>455.33333333333337</ele><time>2026-04-18T17:55:20Z</time></trkpt><trkpt lat="45.90304209686088" lon="6.134506362696177"><ele>455.6666666666667</ele><time>2026-04-18T17:55:21Z</time></trkpt><trkpt lat="45.903071863626806" lon="6.134617634807822"><ele>456.0</ele><time>2026-04-18T17:55:22Z</time></trkpt><trkpt lat="45.90308511219367" lon="6.134722069052908"><ele>456.0</ele><time>2026-04-18T17:55:23Z</time></trkpt><trkpt lat="45.90310456846413" lon="6.13482151920955"><ele>456.0</ele><time>2026-04-18T17:55:24Z</time></trkpt><trkpt lat="45.9031383597643" lon="6.134916596719493"><ele>456.0</ele><time>2026-04-18T17:55:25Z</time></trkpt><trkpt lat="45.90317846469546" lon="6.135071917452245"><ele>456.0</ele><time>2026-04-18T17:55:27Z</time></trkpt><trkpt lat="45.90320824351724" lon="6.135168232445467"><ele>456.0</ele><time>2026-04-18T17:55:28Z</time></trkpt><trkpt lat="45.90323386449126" lon="6.135270584613197"><ele>456.0</ele><time>2026-04-18T17:55:29Z</time></trkpt><trkpt lat="45.903262692453815" lon="6.135387342168523"><ele>456.0</ele><time>2026-04-18T17:55:30Z</time></trkpt><trkpt lat="45.903293102709014" lon="6.135524190924732"><ele>456.0</ele><time>2026-04-18T17:55:31Z</time></trkpt><trkpt lat="45.903314998741585" lon="6.135620306380299"><ele>456.0</ele><time>2026-04-18T17:55:32Z</time></trkpt><trkpt lat="45.903352956986616" lon="6.135724834395712"><ele>456.0</ele><time>2026-04-18T17:55:34Z</time></trkpt><trkpt lat="45.90337442870553" lon="6.13584736358913"><ele>456.0</ele><time>2026-04-18T17:55:36Z</time></trkpt><trkpt lat="45.90353562654107" lon="6.135781638328868"><ele>455.6666666666667</ele><time>2026-04-18T17:55:38Z</time></trkpt><trkpt lat="45.90364815507671" lon="6.1357120323305825"><ele>455.33333333333337</ele><time>2026-04-18T17:55:40Z</time></trkpt><trkpt lat="45.90371967470967" lon="6.135663735947888"><ele>455.0</ele><time>2026-04-18T17:55:41Z</time></trkpt><trkpt lat="45.903779657358164" lon="6.1356261708792275"><ele>454.6666666666667</ele><time>2026-04-18T17:55:42Z</time></trkpt><trkpt lat="45.90384471742775" lon="6.135602036505879"><ele>454.33333333333337</ele><time>2026-04-18T17:55:43Z</time></trkpt><trkpt lat="45.90394896422858" lon="6.135548063584655"><ele>454.0</ele><time>2026-04-18T17:55:44.999Z</time></trkpt><trkpt lat="45.90403901069917" lon="6.135486097206641"><ele>454.0</ele><time>2026-04-18T17:55:46.999Z</time></trkpt><trkpt lat="45.90412538369913" lon="6.135381830623306"><ele>454.0</ele><time>2026-04-18T17:55:48.999Z</time></trkpt><trkpt lat="45.90419621354747" lon="6.1352589593310185"><ele>454.0</ele><time>2026-04-18T17:55:50.999Z</time></trkpt><trkpt lat="45.9042601088403" lon="6.135084136108406"><ele>454.0</ele><time>2026-04-18T17:55:52.999Z</time></trkpt><trkpt lat="45.904301461191615" lon="6.134984549288617"><ele>454.0</ele><time>2026-04-18T17:55:53.999Z</time></trkpt><trkpt lat="45.904338826202576" lon="6.134890684906388"><ele>453.6</ele><time>2026-04-18T17:55:54.999Z</time></trkpt><trkpt lat="45.90439975753629" lon="6.134746338112008"><ele>453.2</ele><time>2026-04-18T17:55:56.999Z</time></trkpt><trkpt lat="45.90444652704573" lon="6.134634911073308"><ele>452.80000000000007</ele><time>2026-04-18T17:55:58.999Z</time></trkpt><trkpt lat="45.90449272941351" lon="6.1345345773539925"><ele>452.40000000000003</ele><time>2026-04-18T17:56:00.999Z</time></trkpt><trkpt lat="45.90454686539516" lon="6.134398004582843"><ele>452.0</ele><time>2026-04-18T17:56:02.999Z</time></trkpt><trkpt lat="45.904585479762105" lon="6.13431581708113"><ele>452.0</ele><time>2026-04-18T17:56:03.999Z</time></trkpt><trkpt lat="45.90462174394052" lon="6.134228918215815"><ele>452.00000000000006</ele><time>2026-04-18T17:56:04.999Z</time></trkpt><trkpt lat="45.9046773589047" lon="6.134103166126716"><ele>452.00000000000006</ele><time>2026-04-18T17:56:06.999Z</time></trkpt><trkpt lat="45.90469850835893" lon="6.134009204347827"><ele>452.0</ele><time>2026-04-18T17:56:08.999Z</time></trkpt><trkpt lat="45.90476388867892" lon="6.13387932498693"><ele>452.0</ele><time>2026-04-18T17:56:10.999Z</time></trkpt><trkpt lat="45.904825217467696" lon="6.133746089049271"><ele>452.16666666666663</ele><time>2026-04-18T17:56:12.999Z</time></trkpt><trkpt lat="45.90485947670266" lon="6.1336532073226495"><ele>452.3333333333333</ele><time>2026-04-18T17:56:13.999Z</time></trkpt><trkpt lat="45.90490169138763" lon="6.133551792007559"><ele>452.5</ele><time>2026-04-18T17:56:14.999Z</time></trkpt><trkpt lat="45.90494847875053" lon="6.133440158404663"><ele>452.66666666666663</ele><time>2026-04-18T17:56:15.999Z</time></trkpt><trkpt lat="45.90500012731768" lon="6.133320714381328"><ele>452.8333333333333</ele><time>2026-04-18T17:56:16.999Z</time></trkpt><trkpt lat="45.90505075052931" lon="6.133202361187128"><ele>453.0</ele><time>2026-04-18T17:56:17.999Z</time></trkpt><trkpt lat="45.90510029919399" lon="6.133085164386844"><ele>452.99999999999994</ele><time>2026-04-18T17:56:18.999Z</time></trkpt><trkpt lat="45.90515111919324" lon="6.132980653706617"><ele>453.0</ele><time>2026-04-18T17:56:19.999Z</time></trkpt><trkpt lat="45.905191892440605" lon="6.132893350827093"><ele>452.99999999999994</ele><time>2026-04-18T17:56:20.999Z</time></trkpt><trkpt lat="45.90523447542951" lon="6.132789495856545"><ele>452.99999999999994</ele><time>2026-04-18T17:56:21.999Z</time></trkpt><trkpt lat="45.90527494928041" lon="6.132715498085187"><ele>453.0</ele><time>2026-04-18T17:56:22.999Z</time></trkpt><trkpt lat="45.9053231311546" lon="6.132650789710572"><ele>452.99999999999994</ele><time>2026-04-18T17:56:23.999Z</time></trkpt><trkpt lat="45.905379208922" lon="6.132593977654816"><ele>452.99999999999994</ele><time>2026-04-18T17:56:24.999Z</time></trkpt><trkpt lat="45.905444239719245" lon="6.132531497433288"><ele>453.0</ele><time>2026-04-18T17:56:25.999Z</time></trkpt><trkpt lat="45.9055127679645" lon="6.1323925516771824"><ele>453.0</ele><time>2026-04-18T17:56:27.999Z</time></trkpt><trkpt lat="45.9055301938156" lon="6.1322981121018705"><ele>453.0</ele><time>2026-04-18T17:56:28.999Z</time></trkpt><trkpt lat="45.90555081691998" lon="6.132184958528659"><ele>453.0</ele><time>2026-04-18T17:56:29.999Z</time></trkpt><trkpt lat="45.905576202873455" lon="6.132063905879255"><ele>453.0</ele><time>2026-04-18T17:56:30.999Z</time></trkpt><trkpt lat="45.90561262813402" lon="6.131947923212623"><ele>453.0</ele><time>2026-04-18T17:56:31.999Z</time></trkpt><trkpt lat="45.90565371977384" lon="6.131844073458318"><ele>452.79999999999995</ele><time>2026-04-18T17:56:32.999Z</time></trkpt><trkpt lat="45.90569337608352" lon="6.131755660550587"><ele>452.59999999999997</ele><time>2026-04-18T17:56:33.999Z</time></trkpt><trkpt lat="45.90575573912354" lon="6.131608446887851"><ele>452.40000000000003</ele><time>2026-04-18T17:56:36Z</time></trkpt><trkpt lat="45.905806358598404" lon="6.1314768827829"><ele>452.20000000000005</ele><time>2026-04-18T17:56:38Z</time></trkpt><trkpt lat="45.9058781609784" lon="6.1313670827865545"><ele>452.0</ele><time>2026-04-18T17:56:40Z</time></trkpt><trkpt lat="45.90595688925452" lon="6.131282138822162"><ele>452.0</ele><time>2026-04-18T17:56:42Z</time></trkpt><trkpt lat="45.90605981633261" lon="6.131233558026043"><ele>452.00000000000006</ele><time>2026-04-18T17:56:44Z</time></trkpt><trkpt lat="45.90618151353303" lon="6.131219184839458"><ele>452.00000000000006</ele><time>2026-04-18T17:56:46Z</time></trkpt><trkpt lat="45.90625200174783" lon="6.131217431425838"><ele>452.0</ele><time>2026-04-18T17:56:47Z</time></trkpt><trkpt lat="45.906325805334156" lon="6.131228708503463"><ele>452.0</ele><time>2026-04-18T17:56:48Z</time></trkpt><trkpt lat="45.90640665790435" lon="6.131230532862071"><ele>451.99999999999994</ele><time>2026-04-18T17:56:49Z</time></trkpt><trkpt lat="45.90649701492604" lon="6.131218487455177"><ele>452.0</ele><time>2026-04-18T17:56:50Z</time></trkpt><trkpt lat="45.90657406985638" lon="6.1312062864114045"><ele>452.0</ele><time>2026-04-18T17:56:51Z</time></trkpt><trkpt lat="45.90666189774792" lon="6.13119877876092"><ele>452.0</ele><time>2026-04-18T17:56:52Z</time></trkpt><trkpt lat="45.906748026817496" lon="6.131198048590164"><ele>451.99999999999994</ele><time>2026-04-18T17:56:53Z</time></trkpt><trkpt lat="45.906824296924135" lon="6.131196300295682"><ele>452.0</ele><time>2026-04-18T17:56:54Z</time></trkpt><trkpt lat="45.906895992720635" lon="6.1311954677112235"><ele>451.99999999999994</ele><time>2026-04-18T17:56:55Z</time></trkpt><trkpt lat="45.90697184207046" lon="6.131182906883821"><ele>452.0</ele><time>2026-04-18T17:56:56Z</time></trkpt><trkpt lat="45.90705194577309" lon="6.1312008713989234"><ele>452.0</ele><time>2026-04-18T17:56:57Z</time></trkpt><trkpt lat="45.907136965685076" lon="6.131197843015825"><ele>452.0</ele><time>2026-04-18T17:56:58Z</time></trkpt><trkpt lat="45.907223326823114" lon="6.131171055389274"><ele>451.99999999999994</ele><time>2026-04-18T17:56:59Z</time></trkpt><trkpt lat="45.90731808825449" lon="6.131191391490951"><ele>452.0</ele><time>2026-04-18T17:57:00Z</time></trkpt><trkpt lat="45.90740315622593" lon="6.131188361385773"><ele>451.99999999999994</ele><time>2026-04-18T17:57:01Z</time></trkpt><trkpt lat="45.90747856374446" lon="6.1311861126065885"><ele>452.0</ele><time>2026-04-18T17:57:02Z</time></trkpt><trkpt lat="45.907554762284626" lon="6.131183681021692"><ele>452.0</ele><time>2026-04-18T17:57:03Z</time></trkpt><trkpt lat="45.907629203088085" lon="6.131158687349368"><ele>452.0</ele><time>2026-04-18T17:57:04Z</time></trkpt><trkpt lat="45.90770652299235" lon="6.131158816630755"><ele>451.99999999999994</ele><time>2026-04-18T17:57:05Z</time></trkpt><trkpt lat="45.907784423960784" lon="6.131176104942436"><ele>452.0</ele><time>2026-04-18T17:57:06Z</time></trkpt><trkpt lat="45.90786527481814" lon="6.131154094691458"><ele>452.14285714285717</ele><time>2026-04-18T17:57:07Z</time></trkpt><trkpt lat="45.90793873181516" lon="6.131171014592376"><ele>452.2857142857142</ele><time>2026-04-18T17:57:08Z</time></trkpt><trkpt lat="45.908003352166936" lon="6.1311691390320116"><ele>452.4285714285714</ele><time>2026-04-18T17:57:09Z</time></trkpt><trkpt lat="45.908068942635325" lon="6.131167115572672"><ele>452.57142857142856</ele><time>2026-04-18T17:57:10Z</time></trkpt><trkpt lat="45.90813600232904" lon="6.131143930062377"><ele>452.71428571428567</ele><time>2026-04-18T17:57:11Z</time></trkpt><trkpt lat="45.908207794285794" lon="6.131140968844621"><ele>452.8571428571428</ele><time>2026-04-18T17:57:12Z</time></trkpt><trkpt lat="45.90828254774627" lon="6.131137808063431"><ele>452.99999999999994</ele><time>2026-04-18T17:57:13Z</time></trkpt><trkpt lat="45.90835704401181" lon="6.131138558635628"><ele>453.2</ele><time>2026-04-18T17:57:14Z</time></trkpt><trkpt lat="45.90843315992767" lon="6.131136924847899"><ele>453.4</ele><time>2026-04-18T17:57:15Z</time></trkpt><trkpt lat="45.90850536566502" lon="6.131134432039912"><ele>453.59999999999997</ele><time>2026-04-18T17:57:16Z</time></trkpt><trkpt lat="45.90862314229438" lon="6.131134966432665"><ele>453.79999999999995</ele><time>2026-04-18T17:57:18Z</time></trkpt><trkpt lat="45.90874307222185" lon="6.131137318099414"><ele>454.0</ele><time>2026-04-18T17:57:20Z</time></trkpt><trkpt lat="45.908808077171514" lon="6.1311363271444685"><ele>454.00000000000006</ele><time>2026-04-18T17:57:21Z</time></trkpt><trkpt lat="45.9088738788537" lon="6.131136980769389"><ele>454.0</ele><time>2026-04-18T17:57:22Z</time></trkpt><trkpt lat="45.90899748547497" lon="6.131146260642308"><ele>454.0</ele><time>2026-04-18T17:57:24Z</time></trkpt><trkpt lat="45.90906480174154" lon="6.131154387378134"><ele>454.0</ele><time>2026-04-18T17:57:25Z</time></trkpt><trkpt lat="45.909136345123954" lon="6.1311617120840864"><ele>454.00000000000006</ele><time>2026-04-18T17:57:26Z</time></trkpt><trkpt lat="45.909199997330134" lon="6.131168492138801"><ele>454.0</ele><time>2026-04-18T17:57:27Z</time></trkpt><trkpt lat="45.909328945406486" lon="6.131179052134092"><ele>454.2</ele><time>2026-04-18T17:57:29Z</time></trkpt><trkpt lat="45.90941715559518" lon="6.1312003543373494"><ele>454.4</ele><time>2026-04-18T17:57:30Z</time></trkpt><trkpt lat="45.9095166012284" lon="6.131216576292291"><ele>454.6</ele><time>2026-04-18T17:57:31Z</time></trkpt><trkpt lat="45.90962230715037" lon="6.131234179811003"><ele>454.8</ele><time>2026-04-18T17:57:32Z</time></trkpt><trkpt lat="45.909742843275744" lon="6.1312542531233944"><ele>455.0</ele><time>2026-04-18T17:57:33Z</time></trkpt><trkpt lat="45.90987548485748" lon="6.131263590505577"><ele>455.0</ele><time>2026-04-18T17:57:34Z</time></trkpt><trkpt lat="45.90999520558518" lon="6.131281838816391"><ele>455.0</ele><time>2026-04-18T17:57:35Z</time></trkpt><trkpt lat="45.91010216221174" lon="6.131302819478574"><ele>455.0</ele><time>2026-04-18T17:57:36Z</time></trkpt><trkpt lat="45.91021107091791" lon="6.131319229988353"><ele>455.0</ele><time>2026-04-18T17:57:37Z</time></trkpt><trkpt lat="45.9103141858616" lon="6.131336213560266"><ele>455.0</ele><time>2026-04-18T17:57:38Z</time></trkpt><trkpt lat="45.910414309098236" lon="6.131375227226892"><ele>454.8</ele><time>2026-04-18T17:57:39Z</time></trkpt><trkpt lat="45.910508748989514" lon="6.131392136732386"><ele>454.6</ele><time>2026-04-18T17:57:40Z</time></trkpt><trkpt lat="45.91060484472166" lon="6.131389466608841"><ele>454.4</ele><time>2026-04-18T17:57:41Z</time></trkpt><trkpt lat="45.9106885916555" lon="6.1314069065343695"><ele>454.2</ele><time>2026-04-18T17:57:42Z</time></trkpt><trkpt lat="45.910786424571064" lon="6.131425813470768"><ele>454.0</ele><time>2026-04-18T17:57:43Z</time></trkpt><trkpt lat="45.91087883276049" lon="6.1314460063428715"><ele>454.00000000000006</ele><time>2026-04-18T17:57:44Z</time></trkpt><trkpt lat="45.910973727145596" lon="6.131467624489315"><ele>454.0</ele><time>2026-04-18T17:57:45Z</time></trkpt><trkpt lat="45.9110707040556" lon="6.131487844865498"><ele>454.0</ele><time>2026-04-18T17:57:46Z</time></trkpt><trkpt lat="45.911159589054044" lon="6.131508494173573"><ele>454.0</ele><time>2026-04-18T17:57:47Z</time></trkpt><trkpt lat="45.911241696264845" lon="6.131525921516105"><ele>454.00000000000006</ele><time>2026-04-18T17:57:48Z</time></trkpt><trkpt lat="45.911309738589786" lon="6.131542638833927"><ele>454.0</ele><time>2026-04-18T17:57:49Z</time></trkpt><trkpt lat="45.91137748926983" lon="6.131560487638646"><ele>454.00000000000006</ele><time>2026-04-18T17:57:49.999Z</time></trkpt><trkpt lat="45.91147121697846" lon="6.131584979777391"><ele>454.0</ele><time>2026-04-18T17:57:51.999Z</time></trkpt><trkpt lat="45.911535963765" lon="6.131628437046576"><ele>454.0</ele><time>2026-04-18T17:57:54.999Z</time></trkpt><trkpt lat="45.911612071625655" lon="6.131678182824159"><ele>454.0</ele><time>2026-04-18T17:57:56.999Z</time></trkpt><trkpt lat="45.91169749474371" lon="6.131813102926716"><ele>454.00000000000006</ele><time>2026-04-18T17:57:58.999Z</time></trkpt><trkpt lat="45.91174610616922" lon="6.131870715180846"><ele>454.0</ele><time>2026-04-18T17:57:59.999Z</time></trkpt><trkpt lat="45.911851184889294" lon="6.1319136684481"><ele>454.6</ele><time>2026-04-18T17:58:01.999Z</time></trkpt><trkpt lat="45.9119449062922" lon="6.131857369210785"><ele>455.2</ele><time>2026-04-18T17:58:03.999Z</time></trkpt><trkpt lat="45.91200796298923" lon="6.131722638961771"><ele>455.80000000000007</ele><time>2026-04-18T17:58:05.999Z</time></trkpt><trkpt lat="45.91204072484829" lon="6.13161140919303"><ele>456.40000000000003</ele><time>2026-04-18T17:58:07.999Z</time></trkpt><trkpt lat="45.91207785545417" lon="6.131536315874176"><ele>457.0</ele><time>2026-04-18T17:58:09.999Z</time></trkpt><trkpt lat="45.91218581161653" lon="6.131422021811926"><ele>457.0</ele><time>2026-04-18T17:58:11.999Z</time></trkpt><trkpt lat="45.91226986181057" lon="6.131379505217782"><ele>457.00000000000006</ele><time>2026-04-18T17:58:12.999Z</time></trkpt><trkpt lat="45.91236279157288" lon="6.131317111253578"><ele>457.00000000000006</ele><time>2026-04-18T17:58:13.999Z</time></trkpt><trkpt lat="45.91247142572042" lon="6.131235110146823"><ele>457.0</ele><time>2026-04-18T17:58:14.999Z</time></trkpt><trkpt lat="45.91258375208593" lon="6.131148585491183"><ele>457.0</ele><time>2026-04-18T17:58:15.999Z</time></trkpt><trkpt lat="45.91269416855562" lon="6.131072482669731"><ele>457.20000000000005</ele><time>2026-04-18T17:58:16.999Z</time></trkpt><trkpt lat="45.91278147962704" lon="6.131000564009504"><ele>457.40000000000003</ele><time>2026-04-18T17:58:17.999Z</time></trkpt><trkpt lat="45.91286830087788" lon="6.130955808173855"><ele>457.59999999999997</ele><time>2026-04-18T17:58:18.999Z</time></trkpt><trkpt lat="45.9129545772669" lon="6.130911075008854"><ele>457.79999999999995</ele><time>2026-04-18T17:58:19.999Z</time></trkpt><trkpt lat="45.91303755753263" lon="6.1308831072803045"><ele>458.0</ele><time>2026-04-18T17:58:20.999Z</time></trkpt><trkpt lat="45.91312510538909" lon="6.130858949638187"><ele>458.0</ele><time>2026-04-18T17:58:21.999Z</time></trkpt><trkpt lat="45.913230561333954" lon="6.13073508199001"><ele>457.99999999999994</ele><time>2026-04-18T17:58:22.999Z</time></trkpt><trkpt lat="45.91331297993269" lon="6.130680906342739"><ele>457.99999999999994</ele><time>2026-04-18T17:58:23.999Z</time></trkpt><trkpt lat="45.913396636514015" lon="6.13061025440853"><ele>458.0</ele><time>2026-04-18T17:58:24.999Z</time></trkpt><trkpt lat="45.91348912818649" lon="6.1305298262015295"><ele>458.0</ele><time>2026-04-18T17:58:25.999Z</time></trkpt><trkpt lat="45.913594965383375" lon="6.130447438804459"><ele>458.5</ele><time>2026-04-18T17:58:26.999Z</time></trkpt><trkpt lat="45.91371318291022" lon="6.130371478735822"><ele>459.0</ele><time>2026-04-18T17:58:27.999Z</time></trkpt><trkpt lat="45.91383188446631" lon="6.130285655282456"><ele>459.5</ele><time>2026-04-18T17:58:28.999Z</time></trkpt><trkpt lat="45.91395437038641" lon="6.130208721430948"><ele>460.0</ele><time>2026-04-18T17:58:29.999Z</time></trkpt><trkpt lat="45.914067085569364" lon="6.130131534589003"><ele>460.0</ele><time>2026-04-18T17:58:30.999Z</time></trkpt><trkpt lat="45.91417864451993" lon="6.130062306101837"><ele>460.0</ele><time>2026-04-18T17:58:31.999Z</time></trkpt><trkpt lat="45.91427761316854" lon="6.130000652669913"><ele>460.0</ele><time>2026-04-18T17:58:32.999Z</time></trkpt><trkpt lat="45.91437684551335" lon="6.12994048740957"><ele>460.0</ele><time>2026-04-18T17:58:33.999Z</time></trkpt><trkpt lat="45.91447109726785" lon="6.129891635425073"><ele>460.0</ele><time>2026-04-18T17:58:34.999Z</time></trkpt><trkpt lat="45.91456330385693" lon="6.1298361622966375"><ele>459.6666666666667</ele><time>2026-04-18T17:58:35.999Z</time></trkpt><trkpt lat="45.914646487255936" lon="6.129785961376179"><ele>459.33333333333337</ele><time>2026-04-18T17:58:36.999Z</time></trkpt><trkpt lat="45.914722712361396" lon="6.129736795424537"><ele>459.0</ele><time>2026-04-18T17:58:37.999Z</time></trkpt><trkpt lat="45.91479013702363" lon="6.129681382511947"><ele>458.66666666666663</ele><time>2026-04-18T17:58:38.999Z</time></trkpt><trkpt lat="45.91486006612331" lon="6.129636943501903"><ele>458.3333333333333</ele><time>2026-04-18T17:58:39.999Z</time></trkpt><trkpt lat="45.91494707301016" lon="6.129599595877112"><ele>458.0</ele><time>2026-04-18T17:58:40.999Z</time></trkpt><trkpt lat="45.91503332664737" lon="6.129529668275137"><ele>458.25</ele><time>2026-04-18T17:58:42Z</time></trkpt><trkpt lat="45.91512354244602" lon="6.129446074467348"><ele>458.5</ele><time>2026-04-18T17:58:43Z</time></trkpt><trkpt lat="45.91522677793017" lon="6.129363030351198"><ele>458.75</ele><time>2026-04-18T17:58:44Z</time></trkpt><trkpt lat="45.91533866161154" lon="6.12927025122995"><ele>459.0</ele><time>2026-04-18T17:58:45Z</time></trkpt><trkpt lat="45.9154430006349" lon="6.129195559448749"><ele>459.0</ele><time>2026-04-18T17:58:46Z</time></trkpt><trkpt lat="45.91554208127473" lon="6.129127793913146"><ele>459.0</ele><time>2026-04-18T17:58:47Z</time></trkpt><trkpt lat="45.91563467096128" lon="6.129066109010754"><ele>459.0</ele><time>2026-04-18T17:58:48Z</time></trkpt><trkpt lat="45.91572464859059" lon="6.129007540301552"><ele>459.0</ele><time>2026-04-18T17:58:49Z</time></trkpt><trkpt lat="45.91580786911442" lon="6.128955993244416"><ele>459.0</ele><time>2026-04-18T17:58:50Z</time></trkpt><trkpt lat="45.91589545633174" lon="6.1289185340055905"><ele>459.0</ele><time>2026-04-18T17:58:51Z</time></trkpt><trkpt lat="45.91597884535982" lon="6.128895336399986"><ele>459.0</ele><time>2026-04-18T17:58:52Z</time></trkpt><trkpt lat="45.91605778101511" lon="6.128882640181361"><ele>459.0</ele><time>2026-04-18T17:58:53Z</time></trkpt><trkpt lat="45.916133310319985" lon="6.128846784572184"><ele>459.0</ele><time>2026-04-18T17:58:54Z</time></trkpt><trkpt lat="45.91620256767902" lon="6.128776640111971"><ele>459.0</ele><time>2026-04-18T17:58:55Z</time></trkpt><trkpt lat="45.91627535251887" lon="6.128696992610174"><ele>459.0</ele><time>2026-04-18T17:58:56Z</time></trkpt><trkpt lat="45.91635473368022" lon="6.12862454036651"><ele>459.0</ele><time>2026-04-18T17:58:57Z</time></trkpt><trkpt lat="45.916430842832135" lon="6.128579531397267"><ele>459.0</ele><time>2026-04-18T17:58:58Z</time></trkpt><trkpt lat="45.916504793855424" lon="6.128537588615242"><ele>459.0</ele><time>2026-04-18T17:58:59Z</time></trkpt><trkpt lat="45.91657474312387" lon="6.128489221631925"><ele>459.0</ele><time>2026-04-18T17:59:00Z</time></trkpt><trkpt lat="45.91663449274034" lon="6.1284545828351495"><ele>459.0</ele><time>2026-04-18T17:59:01Z</time></trkpt><trkpt lat="45.91671052422326" lon="6.128467367843359"><ele>459.0</ele><time>2026-04-18T17:59:03Z</time></trkpt><trkpt lat="45.916789565155014" lon="6.12851184606382"><ele>459.5</ele><time>2026-04-18T17:59:06Z</time></trkpt><trkpt lat="45.916861046922456" lon="6.1285875399942995"><ele>460.0</ele><time>2026-04-18T17:59:09Z</time></trkpt><trkpt lat="45.91699567687665" lon="6.128624683372385"><ele>460.5</ele><time>2026-04-18T18:01:27Z</time></trkpt><trkpt lat="45.91700038891777" lon="6.128503597899805"><ele>461.0</ele><time>2026-04-18T18:01:50Z</time></trkpt><trkpt lat="45.916981350416684" lon="6.128413428527679"><ele>461.5</ele><time>2026-04-18T18:01:52Z</time></trkpt><trkpt lat="45.91699497928238" lon="6.128323702261677"><ele>462.0</ele><time>2026-04-18T18:01:56Z</time></trkpt><trkpt lat="45.91707831740452" lon="6.128156864995366"><ele>462.0</ele><time>2026-04-18T18:02:05Z</time></trkpt><trkpt lat="45.917140036440735" lon="6.128114363176575"><ele>462.0</ele><time>2026-04-18T18:02:06Z</time></trkpt><trkpt lat="45.91721124069747" lon="6.12806614930308"><ele>462.0</ele><time>2026-04-18T18:02:07Z</time></trkpt><trkpt lat="45.91728436076803" lon="6.1280195685235865"><ele>462.0</ele><time>2026-04-18T18:02:08Z</time></trkpt><trkpt lat="45.91735050525734" lon="6.127975535731236"><ele>462.0</ele><time>2026-04-18T18:02:09Z</time></trkpt><trkpt lat="45.91742084157213" lon="6.1279338894152255"><ele>462.0</ele><time>2026-04-18T18:02:10Z</time></trkpt><trkpt lat="45.91749372439166" lon="6.127923994993823"><ele>462.0</ele><time>2026-04-18T18:02:11Z</time></trkpt><trkpt lat="45.91755996987459" lon="6.127947142310694"><ele>462.40000000000003</ele><time>2026-04-18T18:02:12Z</time></trkpt><trkpt lat="45.91767067466683" lon="6.127890454513906"><ele>462.80000000000007</ele><time>2026-04-18T18:02:14Z</time></trkpt><trkpt lat="45.917709713547815" lon="6.127814661342884"><ele>463.2</ele><time>2026-04-18T18:02:15Z</time></trkpt><trkpt lat="45.91770929822855" lon="6.127710773687411"><ele>463.6</ele><time>2026-04-18T18:02:16Z</time></trkpt><trkpt lat="45.91780835603263" lon="6.127639520313073"><ele>464.0</ele><time>2026-04-18T18:02:17Z</time></trkpt><trkpt lat="45.91788420655256" lon="6.12757066603246"><ele>463.99999999999994</ele><time>2026-04-18T18:02:18Z</time></trkpt><trkpt lat="45.91796295558159" lon="6.127513327721457"><ele>464.0</ele><time>2026-04-18T18:02:19Z</time></trkpt><trkpt lat="45.91804045849183" lon="6.127463656714444"><ele>464.0</ele><time>2026-04-18T18:02:20Z</time></trkpt><trkpt lat="45.91812070938219" lon="6.127409376704242"><ele>464.0</ele><time>2026-04-18T18:02:21Z</time></trkpt><trkpt lat="45.91819869040798" lon="6.127354547284592"><ele>463.99999999999994</ele><time>2026-04-18T18:02:22Z</time></trkpt><trkpt lat="45.91827967658384" lon="6.127300338968795"><ele>464.0</ele><time>2026-04-18T18:02:23Z</time></trkpt><trkpt lat="45.91835205012834" lon="6.12725060799598"><ele>464.2</ele><time>2026-04-18T18:02:24Z</time></trkpt><trkpt lat="45.91842936257735" lon="6.127197432206209"><ele>464.4</ele><time>2026-04-18T18:02:25Z</time></trkpt><trkpt lat="45.918514444872045" lon="6.127137905449127"><ele>464.6</ele><time>2026-04-18T18:02:26Z</time></trkpt><trkpt lat="45.91860937606748" lon="6.127083441123178"><ele>464.8</ele><time>2026-04-18T18:02:27Z</time></trkpt><trkpt lat="45.91870793509713" lon="6.127019392898017"><ele>465.0</ele><time>2026-04-18T18:02:28Z</time></trkpt><trkpt lat="45.91881214989972" lon="6.126948559497021"><ele>465.0</ele><time>2026-04-18T18:02:29Z</time></trkpt><trkpt lat="45.91891339059228" lon="6.126875735834859"><ele>465.0</ele><time>2026-04-18T18:02:30Z</time></trkpt><trkpt lat="45.91900367696127" lon="6.12680987813017"><ele>465.0</ele><time>2026-04-18T18:02:31Z</time></trkpt><trkpt lat="45.919086950867715" lon="6.12675217297554"><ele>465.0</ele><time>2026-04-18T18:02:32Z</time></trkpt><trkpt lat="45.91916988833755" lon="6.1266984423392605"><ele>465.0</ele><time>2026-04-18T18:02:33Z</time></trkpt><trkpt lat="45.91924617175773" lon="6.126642896744547"><ele>465.0</ele><time>2026-04-18T18:02:34Z</time></trkpt><trkpt lat="45.91931380500662" lon="6.126583837494149"><ele>465.0</ele><time>2026-04-18T18:02:35Z</time></trkpt><trkpt lat="45.91937263227049" lon="6.126520635787589"><ele>465.0</ele><time>2026-04-18T18:02:36Z</time></trkpt><trkpt lat="45.91941971706577" lon="6.126456305114542"><ele>465.0</ele><time>2026-04-18T18:02:36.999Z</time></trkpt><trkpt lat="45.91946176120667" lon="6.126386283721637"><ele>465.0</ele><time>2026-04-18T18:02:37.999Z</time></trkpt><trkpt lat="45.9195231274591" lon="6.126238135330861"><ele>465.0</ele><time>2026-04-18T18:02:39.999Z</time></trkpt><trkpt lat="45.91955251281065" lon="6.126151987140117"><ele>465.0</ele><time>2026-04-18T18:02:40.999Z</time></trkpt><trkpt lat="45.91957214463212" lon="6.126054433835766"><ele>465.0</ele><time>2026-04-18T18:02:41.999Z</time></trkpt><trkpt lat="45.91959338669692" lon="6.125952485263697"><ele>465.0</ele><time>2026-04-18T18:02:42.999Z</time></trkpt><trkpt lat="45.919629506787295" lon="6.125860776791187"><ele>465.0</ele><time>2026-04-18T18:02:43.999Z</time></trkpt><trkpt lat="45.919674817988" lon="6.1257916824772165"><ele>465.0</ele><time>2026-04-18T18:02:44.999Z</time></trkpt><trkpt lat="45.91978463126337" lon="6.125724231075631"><ele>465.0</ele><time>2026-04-18T18:02:46.999Z</time></trkpt><trkpt lat="45.91985217585156" lon="6.125705863967977"><ele>464.8333333333333</ele><time>2026-04-18T18:02:47.999Z</time></trkpt><trkpt lat="45.919924576720454" lon="6.125688292906123"><ele>464.66666666666663</ele><time>2026-04-18T18:02:48.999Z</time></trkpt><trkpt lat="45.92000424339234" lon="6.12567986276279"><ele>464.5</ele><time>2026-04-18T18:02:49.999Z</time></trkpt><trkpt lat="45.92007678025985" lon="6.125642408593833"><ele>464.3333333333333</ele><time>2026-04-18T18:02:50.999Z</time></trkpt><trkpt lat="45.92016322191199" lon="6.125667545360743"><ele>464.16666666666663</ele><time>2026-04-18T18:02:51.999Z</time></trkpt><trkpt lat="45.92024393200426" lon="6.125665698367994"><ele>464.0</ele><time>2026-04-18T18:02:52.999Z</time></trkpt><trkpt lat="45.92032563706958" lon="6.125660041348234"><ele>463.66666666666663</ele><time>2026-04-18T18:02:54Z</time></trkpt><trkpt lat="45.92040975398654" lon="6.125653905446585"><ele>463.3333333333333</ele><time>2026-04-18T18:02:55Z</time></trkpt><trkpt lat="45.92049529918595" lon="6.125647724310033"><ele>463.0</ele><time>2026-04-18T18:02:56Z</time></trkpt><trkpt lat="45.92058526874459" lon="6.125642792646891"><ele>462.66666666666663</ele><time>2026-04-18T18:02:57Z</time></trkpt><trkpt lat="45.920670975982624" lon="6.125629741186137"><ele>462.3333333333333</ele><time>2026-04-18T18:02:58Z</time></trkpt><trkpt lat="45.92075944283748" lon="6.125629228126106"><ele>462.0</ele><time>2026-04-18T18:02:59Z</time></trkpt><trkpt lat="45.92085333221083" lon="6.125621509265472"><ele>462.20000000000005</ele><time>2026-04-18T18:03:00Z</time></trkpt><trkpt lat="45.92094431770012" lon="6.125617548290917"><ele>462.40000000000003</ele><time>2026-04-18T18:03:01Z</time></trkpt><trkpt lat="45.921036286283844" lon="6.125612171879503"><ele>462.59999999999997</ele><time>2026-04-18T18:03:02Z</time></trkpt><trkpt lat="45.92113006679041" lon="6.125609677917458"><ele>462.79999999999995</ele><time>2026-04-18T18:03:03Z</time></trkpt><trkpt lat="45.921222330930746" lon="6.12560530949767"><ele>463.0</ele><time>2026-04-18T18:03:04Z</time></trkpt><trkpt lat="45.921315305986646" lon="6.125602671193606"><ele>463.00000000000006</ele><time>2026-04-18T18:03:05Z</time></trkpt><trkpt lat="45.92140435542963" lon="6.1256006017242335"><ele>463.0</ele><time>2026-04-18T18:03:06Z</time></trkpt><trkpt lat="45.92149248437493" lon="6.125596603164936"><ele>463.0</ele><time>2026-04-18T18:03:07Z</time></trkpt><trkpt lat="45.92157713806091" lon="6.125594783161766"><ele>463.0</ele><time>2026-04-18T18:03:08Z</time></trkpt><trkpt lat="45.92165990904756" lon="6.125590244017771"><ele>463.00000000000006</ele><time>2026-04-18T18:03:09Z</time></trkpt><trkpt lat="45.92173959734257" lon="6.125587436537389"><ele>463.0</ele><time>2026-04-18T18:03:10Z</time></trkpt><trkpt lat="45.9218181110499" lon="6.1255837108082964"><ele>463.00000000000006</ele><time>2026-04-18T18:03:11Z</time></trkpt><trkpt lat="45.92189416285643" lon="6.125584203005236"><ele>463.0</ele><time>2026-04-18T18:03:12Z</time></trkpt><trkpt lat="45.921970133680865" lon="6.125579622786762"><ele>463.0</ele><time>2026-04-18T18:03:13Z</time></trkpt><trkpt lat="45.92204464203492" lon="6.12557574683142"><ele>463.0</ele><time>2026-04-18T18:03:14Z</time></trkpt><trkpt lat="45.922124458769304" lon="6.125572572153617"><ele>463.00000000000006</ele><time>2026-04-18T18:03:15Z</time></trkpt><trkpt lat="45.92221056483313" lon="6.125572826635225"><ele>463.0</ele><time>2026-04-18T18:03:16Z</time></trkpt><trkpt lat="45.92230123826692" lon="6.1255719531396045"><ele>463.00000000000006</ele><time>2026-04-18T18:03:17Z</time></trkpt><trkpt lat="45.92238642523212" lon="6.125571033107454"><ele>463.0</ele><time>2026-04-18T18:03:18Z</time></trkpt><trkpt lat="45.922477826833344" lon="6.125569022479701"><ele>463.0</ele><time>2026-04-18T18:03:19Z</time></trkpt><trkpt lat="45.922566509076916" lon="6.125568676509887"><ele>463.0</ele><time>2026-04-18T18:03:20Z</time></trkpt><trkpt lat="45.922654180964905" lon="6.125573797714911"><ele>463.00000000000006</ele><time>2026-04-18T18:03:21Z</time></trkpt><trkpt lat="45.92274306834344" lon="6.125582431425769"><ele>463.0</ele><time>2026-04-18T18:03:22Z</time></trkpt><trkpt lat="45.92284396145775" lon="6.125585689974632"><ele>463.0</ele><time>2026-04-18T18:03:23Z</time></trkpt><trkpt lat="45.9229549843294" lon="6.125582649985634"><ele>463.0</ele><time>2026-04-18T18:03:24Z</time></trkpt><trkpt lat="45.92307266319478" lon="6.125581415581871"><ele>463.0</ele><time>2026-04-18T18:03:25Z</time></trkpt><trkpt lat="45.92319659109591" lon="6.125581125390754"><ele>463.0</ele><time>2026-04-18T18:03:26Z</time></trkpt><trkpt lat="45.92332604901394" lon="6.125570658061889"><ele>463.0</ele><time>2026-04-18T18:03:27Z</time></trkpt><trkpt lat="45.92344545863937" lon="6.125601559323528"><ele>463.0</ele><time>2026-04-18T18:03:28Z</time></trkpt><trkpt lat="45.92357057179045" lon="6.1256080549726075"><ele>463.0</ele><time>2026-04-18T18:03:29Z</time></trkpt><trkpt lat="45.92368739132714" lon="6.125613201718683"><ele>463.0</ele><time>2026-04-18T18:03:30Z</time></trkpt><trkpt lat="45.92379707357306" lon="6.1256203047261515"><ele>463.0</ele><time>2026-04-18T18:03:31Z</time></trkpt><trkpt lat="45.92391058870561" lon="6.125643419650692"><ele>463.0</ele><time>2026-04-18T18:03:32Z</time></trkpt><trkpt lat="45.92403125685832" lon="6.125685173855338"><ele>463.0</ele><time>2026-04-18T18:03:33Z</time></trkpt><trkpt lat="45.92415407642765" lon="6.125754255789007"><ele>463.0</ele><time>2026-04-18T18:03:34Z</time></trkpt><trkpt lat="45.924272594025624" lon="6.125855763293313"><ele>463.6666666666667</ele><time>2026-04-18T18:03:35Z</time></trkpt><trkpt lat="45.92438782533846" lon="6.125989221203776"><ele>464.33333333333337</ele><time>2026-04-18T18:03:36Z</time></trkpt><trkpt lat="45.924483237992945" lon="6.126139963042484"><ele>465.0</ele><time>2026-04-18T18:03:37Z</time></trkpt><trkpt lat="45.92460774559521" lon="6.126302165468176"><ele>465.0</ele><time>2026-04-18T18:03:38Z</time></trkpt><trkpt lat="45.92471409598087" lon="6.126446159814517"><ele>465.0</ele><time>2026-04-18T18:03:39Z</time></trkpt><trkpt lat="45.924802845572565" lon="6.12658277148963"><ele>465.0</ele><time>2026-04-18T18:03:40Z</time></trkpt><trkpt lat="45.92487564474927" lon="6.126690185458726"><ele>465.0</ele><time>2026-04-18T18:03:41Z</time></trkpt><trkpt lat="45.92494502331761" lon="6.126797592767339"><ele>465.0</ele><time>2026-04-18T18:03:42Z</time></trkpt><trkpt lat="45.92502470138572" lon="6.126889412212969"><ele>465.0</ele><time>2026-04-18T18:03:43Z</time></trkpt><trkpt lat="45.9251183727689" lon="6.126985409748134"><ele>465.0</ele><time>2026-04-18T18:03:44Z</time></trkpt><trkpt lat="45.9252214439498" lon="6.127060922970048"><ele>465.0</ele><time>2026-04-18T18:03:45Z</time></trkpt><trkpt lat="45.92533743079036" lon="6.127132991729687"><ele>465.0</ele><time>2026-04-18T18:03:46Z</time></trkpt><trkpt lat="45.92544945331537" lon="6.127183620670668"><ele>465.0</ele><time>2026-04-18T18:03:47Z</time></trkpt><trkpt lat="45.92555793308371" lon="6.127217748277404"><ele>465.0</ele><time>2026-04-18T18:03:48Z</time></trkpt><trkpt lat="45.925670898534285" lon="6.1272324289071065"><ele>465.0</ele><time>2026-04-18T18:03:49Z</time></trkpt><trkpt lat="45.925793849365895" lon="6.127235912453056"><ele>465.5</ele><time>2026-04-18T18:03:50Z</time></trkpt><trkpt lat="45.92592654346371" lon="6.12721560579345"><ele>466.0</ele><time>2026-04-18T18:03:51Z</time></trkpt><trkpt lat="45.92606715106045" lon="6.127179082485102"><ele>466.5</ele><time>2026-04-18T18:03:52Z</time></trkpt><trkpt lat="45.926213027708556" lon="6.127120479276228"><ele>467.0</ele><time>2026-04-18T18:03:53Z</time></trkpt><trkpt lat="45.926354595564504" lon="6.127036209089315"><ele>467.0</ele><time>2026-04-18T18:03:54Z</time></trkpt><trkpt lat="45.92648645997539" lon="6.126932744643302"><ele>467.0</ele><time>2026-04-18T18:03:55Z</time></trkpt><trkpt lat="45.926594130349734" lon="6.126815318963519"><ele>467.0</ele><time>2026-04-18T18:03:56Z</time></trkpt><trkpt lat="45.92668171774879" lon="6.126689763820895"><ele>467.0</ele><time>2026-04-18T18:03:57Z</time></trkpt><trkpt lat="45.92676351020528" lon="6.1265589104966045"><ele>466.75</ele><time>2026-04-18T18:03:58Z</time></trkpt><trkpt lat="45.92684364746104" lon="6.1264147480955895"><ele>466.5</ele><time>2026-04-18T18:03:59Z</time></trkpt><trkpt lat="45.92691800885495" lon="6.126244045407448"><ele>466.25</ele><time>2026-04-18T18:04:00Z</time></trkpt><trkpt lat="45.92698200703611" lon="6.1260621860523905"><ele>466.0</ele><time>2026-04-18T18:04:01Z</time></trkpt><trkpt lat="45.927054638130734" lon="6.125887321281341"><ele>465.0</ele><time>2026-04-18T18:04:02Z</time></trkpt><trkpt lat="45.92712450915789" lon="6.1257113835395876"><ele>464.0</ele><time>2026-04-18T18:04:03Z</time></trkpt><trkpt lat="45.92719919922155" lon="6.125535955044484"><ele>463.0</ele><time>2026-04-18T18:04:04Z</time></trkpt><trkpt lat="45.92727616289466" lon="6.125375091431898"><ele>462.0</ele><time>2026-04-18T18:04:05Z</time></trkpt><trkpt lat="45.9274473835851" lon="6.125049783614821"><ele>461.25</ele><time>2026-04-18T18:04:07Z</time></trkpt><trkpt lat="45.92755027308617" lon="6.12489570029993"><ele>460.5</ele><time>2026-04-18T18:04:08Z</time></trkpt><trkpt lat="45.92765559928195" lon="6.124760317460772"><ele>459.75</ele><time>2026-04-18T18:04:09Z</time></trkpt><trkpt lat="45.92777271212217" lon="6.124621146747041"><ele>459.0</ele><time>2026-04-18T18:04:10Z</time></trkpt><trkpt lat="45.9279054436512" lon="6.1244856226400035"><ele>458.66666666666663</ele><time>2026-04-18T18:04:11Z</time></trkpt><trkpt lat="45.928033786640476" lon="6.124346444966449"><ele>458.3333333333333</ele><time>2026-04-18T18:04:12Z</time></trkpt><trkpt lat="45.92816981630514" lon="6.124207981896928"><ele>458.0</ele><time>2026-04-18T18:04:13Z</time></trkpt><trkpt lat="45.92829603318302" lon="6.1240531993569265"><ele>458.0</ele><time>2026-04-18T18:04:14Z</time></trkpt><trkpt lat="45.92841460553097" lon="6.123892632606184"><ele>458.0</ele><time>2026-04-18T18:04:15Z</time></trkpt><trkpt lat="45.928522325513754" lon="6.123723130464721"><ele>458.0</ele><time>2026-04-18T18:04:16Z</time></trkpt><trkpt lat="45.928615062196045" lon="6.123520720181739"><ele>458.0</ele><time>2026-04-18T18:04:17Z</time></trkpt><trkpt lat="45.92870495946314" lon="6.1233109644104085"><ele>458.0</ele><time>2026-04-18T18:04:18Z</time></trkpt><trkpt lat="45.92877683256667" lon="6.123083927525069"><ele>458.0</ele><time>2026-04-18T18:04:19Z</time></trkpt><trkpt lat="45.928839156742356" lon="6.12283959334761"><ele>455.66666666666663</ele><time>2026-04-18T18:04:20Z</time></trkpt><trkpt lat="45.92889591129144" lon="6.122591556961147"><ele>453.33333333333337</ele><time>2026-04-18T18:04:21Z</time></trkpt><trkpt lat="45.928952684458494" lon="6.1223222904600885"><ele>451.0</ele><time>2026-04-18T18:04:22Z</time></trkpt><trkpt lat="45.92902984283378" lon="6.122060502155442"><ele>448.6666666666667</ele><time>2026-04-18T18:04:23Z</time></trkpt><trkpt lat="45.92912322499825" lon="6.1217994368959605"><ele>446.33333333333337</ele><time>2026-04-18T18:04:24Z</time></trkpt><trkpt lat="45.929222948096594" lon="6.121550053170719"><ele>444.0</ele><time>2026-04-18T18:04:25Z</time></trkpt><trkpt lat="45.929327665237395" lon="6.121309332493572"><ele>444.33333333333337</ele><time>2026-04-18T18:04:26Z</time></trkpt><trkpt lat="45.92943459271201" lon="6.121076532365543"><ele>444.6666666666667</ele><time>2026-04-18T18:04:27Z</time></trkpt><trkpt lat="45.92954163384965" lon="6.120864941154388"><ele>445.0</ele><time>2026-04-18T18:04:28Z</time></trkpt><trkpt lat="45.929651952206314" lon="6.1206683127905395"><ele>445.0</ele><time>2026-04-18T18:04:29Z</time></trkpt><trkpt lat="45.9297732938355" lon="6.120478507965949"><ele>445.0</ele><time>2026-04-18T18:04:30Z</time></trkpt><trkpt lat="45.9299042702446" lon="6.120271644339998"><ele>445.0</ele><time>2026-04-18T18:04:31Z</time></trkpt><trkpt lat="45.93003398607555" lon="6.120071915995295"><ele>446.0</ele><time>2026-04-18T18:04:32Z</time></trkpt><trkpt lat="45.93015746833084" lon="6.1198897807329375"><ele>447.0</ele><time>2026-04-18T18:04:33Z</time></trkpt><trkpt lat="45.93028114865683" lon="6.1197385932107675"><ele>448.0</ele><time>2026-04-18T18:04:34Z</time></trkpt><trkpt lat="45.930422102027414" lon="6.11960998356012"><ele>448.0</ele><time>2026-04-18T18:04:35Z</time></trkpt><trkpt lat="45.93057951788723" lon="6.119495465768856"><ele>448.0</ele><time>2026-04-18T18:04:36Z</time></trkpt><trkpt lat="45.93074346721301" lon="6.119385778437173"><ele>448.0</ele><time>2026-04-18T18:04:37Z</time></trkpt><trkpt lat="45.93090977072346" lon="6.119286082172872"><ele>450.33333333333337</ele><time>2026-04-18T18:04:38Z</time></trkpt><trkpt lat="45.93108136098839" lon="6.119201542970102"><ele>452.66666666666663</ele><time>2026-04-18T18:04:39Z</time></trkpt><trkpt lat="45.931261987437374" lon="6.119139360742503"><ele>455.0</ele><time>2026-04-18T18:04:40Z</time></trkpt><trkpt lat="45.93144394846599" lon="6.119100253341692"><ele>455.0</ele><time>2026-04-18T18:04:41Z</time></trkpt><trkpt lat="45.93164209016088" lon="6.1190782951875455"><ele>455.0</ele><time>2026-04-18T18:04:42Z</time></trkpt><trkpt lat="45.93184506767777" lon="6.119093368158788"><ele>455.0</ele><time>2026-04-18T18:04:43Z</time></trkpt><trkpt lat="45.932045052770874" lon="6.119112750584963"><ele>456.3333333333333</ele><time>2026-04-18T18:04:44Z</time></trkpt><trkpt lat="45.93224696067943" lon="6.11915639359636"><ele>457.66666666666663</ele><time>2026-04-18T18:04:45Z</time></trkpt><trkpt lat="45.932441132148725" lon="6.119216093533838"><ele>459.0</ele><time>2026-04-18T18:04:46Z</time></trkpt><trkpt lat="45.93262845737194" lon="6.119286040758314"><ele>460.33333333333337</ele><time>2026-04-18T18:04:47Z</time></trkpt><trkpt lat="45.93280099758812" lon="6.1193527447783325"><ele>461.6666666666667</ele><time>2026-04-18T18:04:48Z</time></trkpt><trkpt lat="45.93295734164526" lon="6.11943538581279"><ele>463.0</ele><time>2026-04-18T18:04:49Z</time></trkpt><trkpt lat="45.93312152477228" lon="6.1195357625120925"><ele>463.0</ele><time>2026-04-18T18:04:50Z</time></trkpt><trkpt lat="45.93328405296146" lon="6.1196476658839565"><ele>463.0</ele><time>2026-04-18T18:04:51Z</time></trkpt><trkpt lat="45.933431509899606" lon="6.119747694166846"><ele>463.0</ele><time>2026-04-18T18:04:52Z</time></trkpt><trkpt lat="45.93356526114669" lon="6.119837826458844"><ele>463.5</ele><time>2026-04-18T18:04:53Z</time></trkpt><trkpt lat="45.93369213797294" lon="6.119924429476893"><ele>464.0</ele><time>2026-04-18T18:04:54Z</time></trkpt><trkpt lat="45.93382764545555" lon="6.120014229689606"><ele>464.5</ele><time>2026-04-18T18:04:55Z</time></trkpt><trkpt lat="45.93395497330287" lon="6.120110617591977"><ele>465.0</ele><time>2026-04-18T18:04:56Z</time></trkpt><trkpt lat="45.93408906276182" lon="6.120198286667699"><ele>465.0</ele><time>2026-04-18T18:04:57Z</time></trkpt><trkpt lat="45.934217766378595" lon="6.120292077457215"><ele>465.0</ele><time>2026-04-18T18:04:58Z</time></trkpt><trkpt lat="45.93433843320483" lon="6.12038704110195"><ele>465.0</ele><time>2026-04-18T18:04:59Z</time></trkpt><trkpt lat="45.93445736099179" lon="6.120481721322509"><ele>465.0</ele><time>2026-04-18T18:05:00Z</time></trkpt><trkpt lat="45.93457833013201" lon="6.120585900075109"><ele>465.75</ele><time>2026-04-18T18:05:01Z</time></trkpt><trkpt lat="45.93469402096094" lon="6.120690968620488"><ele>466.5</ele><time>2026-04-18T18:05:02Z</time></trkpt><trkpt lat="45.93481439953034" lon="6.120802499022285"><ele>467.25</ele><time>2026-04-18T18:05:03Z</time></trkpt><trkpt lat="45.934942993511896" lon="6.120919674922423"><ele>468.0</ele><time>2026-04-18T18:05:04Z</time></trkpt><trkpt lat="45.93507567586016" lon="6.121046413539746"><ele>469.0</ele><time>2026-04-18T18:05:05Z</time></trkpt><trkpt lat="45.93521275482776" lon="6.121184193455256"><ele>470.0</ele><time>2026-04-18T18:05:06Z</time></trkpt><trkpt lat="45.935344468878654" lon="6.121330871807834"><ele>471.0</ele><time>2026-04-18T18:05:07Z</time></trkpt><trkpt lat="45.93546647369395" lon="6.121470568792444"><ele>471.25</ele><time>2026-04-18T18:05:08Z</time></trkpt><trkpt lat="45.9355733573582" lon="6.121590664440773"><ele>471.5</ele><time>2026-04-18T18:05:09Z</time></trkpt><trkpt lat="45.93565905107436" lon="6.121709891128813"><ele>471.75</ele><time>2026-04-18T18:05:10Z</time></trkpt><trkpt lat="45.9357168157711" lon="6.12184770566279"><ele>472.0</ele><time>2026-04-18T18:05:11Z</time></trkpt><trkpt lat="45.93575314644933" lon="6.121993103671054"><ele>472.0</ele><time>2026-04-18T18:05:12Z</time></trkpt><trkpt lat="45.93575981052311" lon="6.122141790136588"><ele>472.00000000000006</ele><time>2026-04-18T18:05:13Z</time></trkpt><trkpt lat="45.93573380304877" lon="6.122277729654084"><ele>472.00000000000006</ele><time>2026-04-18T18:05:14Z</time></trkpt><trkpt lat="45.93568215074303" lon="6.122396671297541"><ele>472.0</ele><time>2026-04-18T18:05:15Z</time></trkpt><trkpt lat="45.93559711323011" lon="6.122480647662483"><ele>472.0</ele><time>2026-04-18T18:05:16Z</time></trkpt><trkpt lat="45.93549443444247" lon="6.122520046158481"><ele>472.0</ele><time>2026-04-18T18:05:17Z</time></trkpt><trkpt lat="45.93539160248771" lon="6.122508826970561"><ele>472.00000000000006</ele><time>2026-04-18T18:05:18Z</time></trkpt><trkpt lat="45.93529643042424" lon="6.122443412264034"><ele>472.00000000000006</ele><time>2026-04-18T18:05:19Z</time></trkpt><trkpt lat="45.93521878440422" lon="6.1223370783446684"><ele>472.0</ele><time>2026-04-18T18:05:20Z</time></trkpt><trkpt lat="45.93515891645648" lon="6.122190596584377"><ele>472.0</ele><time>2026-04-18T18:05:21Z</time></trkpt><trkpt lat="45.9351217277465" lon="6.1220181009319985"><ele>472.0</ele><time>2026-04-18T18:05:22Z</time></trkpt><trkpt lat="45.93512075365026" lon="6.121833980045173"><ele>472.0</ele><time>2026-04-18T18:05:23Z</time></trkpt><trkpt lat="45.93513866930502" lon="6.1216406972429604"><ele>472.0</ele><time>2026-04-18T18:05:24Z</time></trkpt><trkpt lat="45.935180882805454" lon="6.121442018718859"><ele>472.0</ele><time>2026-04-18T18:05:25Z</time></trkpt><trkpt lat="45.9352380458423" lon="6.121250263266141"><ele>471.75</ele><time>2026-04-18T18:05:26Z</time></trkpt><trkpt lat="45.93531527598623" lon="6.121096608716162"><ele>471.5</ele><time>2026-04-18T18:05:27Z</time></trkpt><trkpt lat="45.93539923369381" lon="6.120967200057466"><ele>471.25</ele><time>2026-04-18T18:05:28Z</time></trkpt><trkpt lat="45.935478682238724" lon="6.120836872816255"><ele>471.0</ele><time>2026-04-18T18:05:29Z</time></trkpt><trkpt lat="45.93555718391599" lon="6.120704714631359"><ele>470.66666666666663</ele><time>2026-04-18T18:05:30Z</time></trkpt><trkpt lat="45.93564956824549" lon="6.120551396669825"><ele>470.3333333333333</ele><time>2026-04-18T18:05:31Z</time></trkpt><trkpt lat="45.93575265265508" lon="6.120378764956343"><ele>470.0</ele><time>2026-04-18T18:05:32Z</time></trkpt><trkpt lat="45.9358673687816" lon="6.120183175677292"><ele>469.3333333333333</ele><time>2026-04-18T18:05:33Z</time></trkpt><trkpt lat="45.93598569710329" lon="6.119974331621419"><ele>468.66666666666663</ele><time>2026-04-18T18:05:34Z</time></trkpt><trkpt lat="45.936110339638766" lon="6.119762591031759"><ele>468.0</ele><time>2026-04-18T18:05:35Z</time></trkpt><trkpt lat="45.93622620475405" lon="6.1195596775605425"><ele>468.0</ele><time>2026-04-18T18:05:36Z</time></trkpt><trkpt lat="45.93634288576739" lon="6.119355521257357"><ele>468.0</ele><time>2026-04-18T18:05:37Z</time></trkpt><trkpt lat="45.93646459086852" lon="6.119131022181415"><ele>468.0</ele><time>2026-04-18T18:05:38Z</time></trkpt><trkpt lat="45.93657882050597" lon="6.118905823448845"><ele>468.0</ele><time>2026-04-18T18:05:39Z</time></trkpt><trkpt lat="45.936675105636525" lon="6.11870971582884"><ele>468.0</ele><time>2026-04-18T18:05:40Z</time></trkpt><trkpt lat="45.93675892750048" lon="6.118544729290088"><ele>468.0</ele><time>2026-04-18T18:05:41Z</time></trkpt><trkpt lat="45.93683458947792" lon="6.118403240324812"><ele>468.0</ele><time>2026-04-18T18:05:42Z</time></trkpt><trkpt lat="45.93689773790792" lon="6.118297871862792"><ele>467.8333333333333</ele><time>2026-04-18T18:05:43Z</time></trkpt><trkpt lat="45.936954710479945" lon="6.1182201803361345"><ele>467.66666666666663</ele><time>2026-04-18T18:05:44Z</time></trkpt><trkpt lat="45.93706660408792" lon="6.118151786305982"><ele>467.5</ele><time>2026-04-18T18:05:46Z</time></trkpt><trkpt lat="45.937139687813556" lon="6.11814049474152"><ele>467.3333333333333</ele><time>2026-04-18T18:05:47Z</time></trkpt><trkpt lat="45.93721153431345" lon="6.118142628466523"><ele>467.16666666666663</ele><time>2026-04-18T18:05:48Z</time></trkpt><trkpt lat="45.93729225441009" lon="6.118118556502324"><ele>467.0</ele><time>2026-04-18T18:05:49Z</time></trkpt><trkpt lat="45.93735400471585" lon="6.118051418611344"><ele>467.0</ele><time>2026-04-18T18:05:50Z</time></trkpt><trkpt lat="45.93740050404787" lon="6.117951655466631"><ele>467.00000000000006</ele><time>2026-04-18T18:05:51Z</time></trkpt><trkpt lat="45.9374286931843" lon="6.11782512624167"><ele>467.00000000000006</ele><time>2026-04-18T18:05:52Z</time></trkpt><trkpt lat="45.93745848057942" lon="6.117676317456068"><ele>467.0</ele><time>2026-04-18T18:05:53Z</time></trkpt><trkpt lat="45.9375090909119" lon="6.117523528715851"><ele>467.0</ele><time>2026-04-18T18:05:54Z</time></trkpt><trkpt lat="45.93757649336056" lon="6.117369594137401"><ele>467.40000000000003</ele><time>2026-04-18T18:05:55Z</time></trkpt><trkpt lat="45.93765023733771" lon="6.117250417473715"><ele>467.80000000000007</ele><time>2026-04-18T18:05:56Z</time></trkpt><trkpt lat="45.93773831482795" lon="6.117170999510234"><ele>468.2</ele><time>2026-04-18T18:05:57Z</time></trkpt><trkpt lat="45.93784274134172" lon="6.117130302712868"><ele>468.6</ele><time>2026-04-18T18:05:58Z</time></trkpt><trkpt lat="45.93796521310808" lon="6.117110023362055"><ele>469.0</ele><time>2026-04-18T18:05:59Z</time></trkpt><trkpt lat="45.93809500113047" lon="6.117116158928826"><ele>469.0</ele><time>2026-04-18T18:06:00Z</time></trkpt><trkpt lat="45.93823593209011" lon="6.117100523912343"><ele>469.0</ele><time>2026-04-18T18:06:01Z</time></trkpt><trkpt lat="45.93837373058742" lon="6.117094282457175"><ele>469.0</ele><time>2026-04-18T18:06:02Z</time></trkpt><trkpt lat="45.93849391576583" lon="6.117090282249789"><ele>469.0</ele><time>2026-04-18T18:06:03Z</time></trkpt><trkpt lat="45.93858904055705" lon="6.117087204815312"><ele>469.2</ele><time>2026-04-18T18:06:04Z</time></trkpt><trkpt lat="45.938663068397084" lon="6.117085314513801"><ele>469.4</ele><time>2026-04-18T18:06:05Z</time></trkpt><trkpt lat="45.93875731128841" lon="6.117100857868919"><ele>469.6</ele><time>2026-04-18T18:06:07Z</time></trkpt><trkpt lat="45.93884966895851" lon="6.117080492142545"><ele>469.8</ele><time>2026-04-18T18:06:33Z</time></trkpt><trkpt lat="45.93896985429277" lon="6.1170790600799"><ele>470.0</ele><time>2026-04-18T18:06:35Z</time></trkpt><trkpt lat="45.93906262374282" lon="6.1170779647456115"><ele>470.0</ele><time>2026-04-18T18:06:36Z</time></trkpt><trkpt lat="45.93915818145849" lon="6.117078701508645"><ele>470.0</ele><time>2026-04-18T18:06:37Z</time></trkpt><trkpt lat="45.939257570863425" lon="6.117080125878513"><ele>470.0</ele><time>2026-04-18T18:06:38Z</time></trkpt><trkpt lat="45.93937024421094" lon="6.117085090344178"><ele>470.0</ele><time>2026-04-18T18:06:39Z</time></trkpt><trkpt lat="45.939489856037326" lon="6.117107672069406"><ele>470.0</ele><time>2026-04-18T18:06:40Z</time></trkpt><trkpt lat="45.93961892632652" lon="6.11710232512443"><ele>470.25</ele><time>2026-04-18T18:06:41Z</time></trkpt><trkpt lat="45.93974248271171" lon="6.117083124584555"><ele>470.5</ele><time>2026-04-18T18:06:42Z</time></trkpt><trkpt lat="45.939857352168765" lon="6.1170369952054395"><ele>470.75</ele><time>2026-04-18T18:06:43Z</time></trkpt><trkpt lat="45.93996707288008" lon="6.11698528102657"><ele>471.0</ele><time>2026-04-18T18:06:44Z</time></trkpt><trkpt lat="45.94008567112514" lon="6.11690726311811"><ele>471.0</ele><time>2026-04-18T18:06:45Z</time></trkpt><trkpt lat="45.940191006891446" lon="6.116778490428752"><ele>471.0</ele><time>2026-04-18T18:06:46Z</time></trkpt><trkpt lat="45.94028300933935" lon="6.116623508794522"><ele>471.0</ele><time>2026-04-18T18:06:47Z</time></trkpt><trkpt lat="45.94035433930318" lon="6.1164445916017405"><ele>471.0</ele><time>2026-04-18T18:06:48Z</time></trkpt><trkpt lat="45.94040060711327" lon="6.116255659195792"><ele>470.66666666666663</ele><time>2026-04-18T18:06:49Z</time></trkpt><trkpt lat="45.940425334447504" lon="6.1160346566309345"><ele>470.3333333333333</ele><time>2026-04-18T18:06:50Z</time></trkpt><trkpt lat="45.94043822399102" lon="6.115785502280702"><ele>470.0</ele><time>2026-04-18T18:06:51Z</time></trkpt><trkpt lat="45.94045975058098" lon="6.1155506905901476"><ele>470.0</ele><time>2026-04-18T18:06:52Z</time></trkpt><trkpt lat="45.94048866543592" lon="6.115322511002998"><ele>470.0</ele><time>2026-04-18T18:06:53Z</time></trkpt><trkpt lat="45.940533707393044" lon="6.115109142396938"><ele>470.0</ele><time>2026-04-18T18:06:53.999Z</time></trkpt><trkpt lat="45.940597898585935" lon="6.11491122810465"><ele>469.75</ele><time>2026-04-18T18:06:54.999Z</time></trkpt><trkpt lat="45.94068265994539" lon="6.114743424459867"><ele>469.5</ele><time>2026-04-18T18:06:55.999Z</time></trkpt><trkpt lat="45.94078100284912" lon="6.1146023992630925"><ele>469.25</ele><time>2026-04-18T18:06:56.999Z</time></trkpt><trkpt lat="45.94088999076063" lon="6.114484969333439"><ele>469.0</ele><time>2026-04-18T18:06:57.999Z</time></trkpt><trkpt lat="45.94099858874175" lon="6.114382901622562"><ele>469.5</ele><time>2026-04-18T18:06:58.999Z</time></trkpt><trkpt lat="45.941108729597296" lon="6.114305078289708"><ele>470.0</ele><time>2026-04-18T18:06:59.999Z</time></trkpt><trkpt lat="45.9412201189051" lon="6.114213639302109"><ele>470.5</ele><time>2026-04-18T18:07:00.999Z</time></trkpt><trkpt lat="45.94135463155917" lon="6.114125786193149"><ele>471.0</ele><time>2026-04-18T18:07:01.999Z</time></trkpt><trkpt lat="45.941489840389195" lon="6.114032697641121"><ele>471.0</ele><time>2026-04-18T18:07:02.999Z</time></trkpt><trkpt lat="45.941632031170194" lon="6.113938588636368"><ele>471.0</ele><time>2026-04-18T18:07:03.999Z</time></trkpt><trkpt lat="45.94177851974855" lon="6.113844986268719"><ele>471.0</ele><time>2026-04-18T18:07:05Z</time></trkpt><trkpt lat="45.94192896521643" lon="6.113763681742921"><ele>471.66666666666663</ele><time>2026-04-18T18:07:06Z</time></trkpt><trkpt lat="45.9420987340681" lon="6.113656375197621"><ele>472.3333333333333</ele><time>2026-04-18T18:07:07Z</time></trkpt><trkpt lat="45.94228461726184" lon="6.11353273788934"><ele>473.0</ele><time>2026-04-18T18:07:08Z</time></trkpt><trkpt lat="45.94248504053977" lon="6.113398734761285"><ele>472.5</ele><time>2026-04-18T18:07:09Z</time></trkpt><trkpt lat="45.942706768453334" lon="6.113261146128492"><ele>472.0</ele><time>2026-04-18T18:07:10Z</time></trkpt><trkpt lat="45.94294696649487" lon="6.113119754366286"><ele>471.5</ele><time>2026-04-18T18:07:11Z</time></trkpt><trkpt lat="45.943208246867435" lon="6.11297824187527"><ele>471.0</ele><time>2026-04-18T18:07:12Z</time></trkpt><trkpt lat="45.943492560894065" lon="6.112831167503433"><ele>472.5</ele><time>2026-04-18T18:07:13Z</time></trkpt><trkpt lat="45.94376632364803" lon="6.112702123296003"><ele>474.0</ele><time>2026-04-18T18:07:14Z</time></trkpt><trkpt lat="45.944038019276356" lon="6.112577106290379"><ele>474.0</ele><time>2026-04-18T18:07:15Z</time></trkpt><trkpt lat="45.94430924233407" lon="6.1124577906366335"><ele>474.0</ele><time>2026-04-18T18:07:16Z</time></trkpt><trkpt lat="45.94457984534086" lon="6.112343186653864"><ele>473.0</ele><time>2026-04-18T18:07:17Z</time></trkpt><trkpt lat="45.94485290617351" lon="6.112239987720924"><ele>472.0</ele><time>2026-04-18T18:07:18Z</time></trkpt><trkpt lat="45.94512636536784" lon="6.112144151263189"><ele>472.0</ele><time>2026-04-18T18:07:19Z</time></trkpt><trkpt lat="45.94540137647458" lon="6.11206238771958"><ele>472.0</ele><time>2026-04-18T18:07:20Z</time></trkpt><trkpt lat="45.94567570929408" lon="6.1119950355050685"><ele>473.5</ele><time>2026-04-18T18:07:21Z</time></trkpt><trkpt lat="45.94594664432153" lon="6.111942544059508"><ele>475.0</ele><time>2026-04-18T18:07:22Z</time></trkpt><trkpt lat="45.94621297915771" lon="6.111906442040777"><ele>475.0</ele><time>2026-04-18T18:07:23Z</time></trkpt><trkpt lat="45.94647601182352" lon="6.111885284373531"><ele>475.0</ele><time>2026-04-18T18:07:24Z</time></trkpt><trkpt lat="45.9467382012469" lon="6.111876558512681"><ele>476.5</ele><time>2026-04-18T18:07:25Z</time></trkpt><trkpt lat="45.9470068499415" lon="6.1118873607128705"><ele>478.0</ele><time>2026-04-18T18:07:26Z</time></trkpt><trkpt lat="45.9472840299504" lon="6.111921910605422"><ele>479.5</ele><time>2026-04-18T18:07:27Z</time></trkpt><trkpt lat="45.9475633182549" lon="6.111982972974099"><ele>481.0</ele><time>2026-04-18T18:07:28Z</time></trkpt><trkpt lat="45.94784227749046" lon="6.112063302741035"><ele>481.0</ele><time>2026-04-18T18:07:29Z</time></trkpt><trkpt lat="45.948115649968734" lon="6.112168938102427"><ele>481.0</ele><time>2026-04-18T18:07:30Z</time></trkpt><trkpt lat="45.94838176026873" lon="6.112298496793335"><ele>483.0</ele><time>2026-04-18T18:07:31Z</time></trkpt><trkpt lat="45.948643689131984" lon="6.112445659985069"><ele>485.0</ele><time>2026-04-18T18:07:32Z</time></trkpt><trkpt lat="45.94889448433219" lon="6.112623868095142"><ele>485.0</ele><time>2026-04-18T18:07:33Z</time></trkpt><trkpt lat="45.94914361599485" lon="6.112822278136071"><ele>485.0</ele><time>2026-04-18T18:07:34Z</time></trkpt><trkpt lat="45.94937997926408" lon="6.113047403384268"><ele>486.0</ele><time>2026-04-18T18:07:35Z</time></trkpt><trkpt lat="45.94959529210059" lon="6.113281323734484"><ele>487.0</ele><time>2026-04-18T18:07:36Z</time></trkpt><trkpt lat="45.94979071772527" lon="6.11351662294397"><ele>487.0</ele><time>2026-04-18T18:07:37Z</time></trkpt><trkpt lat="45.94995937365861" lon="6.113748516858862"><ele>487.0</ele><time>2026-04-18T18:07:38Z</time></trkpt><trkpt lat="45.95011264801324" lon="6.113978132631063"><ele>488.33333333333337</ele><time>2026-04-18T18:07:39Z</time></trkpt><trkpt lat="45.95025424586891" lon="6.114216886287518"><ele>489.66666666666663</ele><time>2026-04-18T18:07:40Z</time></trkpt><trkpt lat="45.950393976787126" lon="6.114470521295767"><ele>491.0</ele><time>2026-04-18T18:07:41Z</time></trkpt><trkpt lat="45.95053229280266" lon="6.114745316135114"><ele>491.5</ele><time>2026-04-18T18:07:42Z</time></trkpt><trkpt lat="45.95066221375996" lon="6.115039069942694"><ele>492.0</ele><time>2026-04-18T18:07:43Z</time></trkpt><trkpt lat="45.95077846694533" lon="6.1153535730130795"><ele>492.0</ele><time>2026-04-18T18:07:44Z</time></trkpt><trkpt lat="45.95089267306802" lon="6.115675926845951"><ele>492.0</ele><time>2026-04-18T18:07:45Z</time></trkpt><trkpt lat="45.95099387695002" lon="6.116013040917741"><ele>492.5</ele><time>2026-04-18T18:07:46Z</time></trkpt><trkpt lat="45.951088206956605" lon="6.116359772442175"><ele>493.0</ele><time>2026-04-18T18:07:47Z</time></trkpt><trkpt lat="45.951184711396124" lon="6.116716315280491"><ele>494.5</ele><time>2026-04-18T18:07:48Z</time></trkpt><trkpt lat="45.95124367572148" lon="6.117093170367628"><ele>496.0</ele><time>2026-04-18T18:07:49Z</time></trkpt><trkpt lat="45.951312991628214" lon="6.11746411848704"><ele>498.5</ele><time>2026-04-18T18:07:50Z</time></trkpt><trkpt lat="45.951369609850204" lon="6.117843546173667"><ele>501.0</ele><time>2026-04-18T18:07:51Z</time></trkpt><trkpt lat="45.951419117643404" lon="6.118232149203043"><ele>504.0</ele><time>2026-04-18T18:07:52Z</time></trkpt><trkpt lat="45.95146307748806" lon="6.118621307469053"><ele>507.0</ele><time>2026-04-18T18:07:53Z</time></trkpt><trkpt lat="45.95150427519894" lon="6.119010716502677"><ele>509.0</ele><time>2026-04-18T18:07:54Z</time></trkpt><trkpt lat="45.95153975498946" lon="6.119394210695921"><ele>511.0</ele><time>2026-04-18T18:07:55Z</time></trkpt><trkpt lat="45.951575632562786" lon="6.119772929532622"><ele>512.5</ele><time>2026-04-18T18:07:56Z</time></trkpt><trkpt lat="45.951609440287726" lon="6.12015253499136"><ele>514.0</ele><time>2026-04-18T18:07:57Z</time></trkpt><trkpt lat="45.95163978172793" lon="6.12053382377523"><ele>515.5</ele><time>2026-04-18T18:07:58Z</time></trkpt><trkpt lat="45.95167306172924" lon="6.120916227535285"><ele>517.0</ele><time>2026-04-18T18:07:59Z</time></trkpt><trkpt lat="45.95171227979927" lon="6.121300753333806"><ele>521.0</ele><time>2026-04-18T18:08:00Z</time></trkpt><trkpt lat="45.95176042189872" lon="6.121691300286012"><ele>525.0</ele><time>2026-04-18T18:08:01Z</time></trkpt><trkpt lat="45.95181526153057" lon="6.122085322284593"><ele>527.5</ele><time>2026-04-18T18:08:02Z</time></trkpt><trkpt lat="45.951878827375346" lon="6.122478086439409"><ele>530.0</ele><time>2026-04-18T18:08:03Z</time></trkpt><trkpt lat="45.95195298874444" lon="6.122869493023781"><ele>532.5</ele><time>2026-04-18T18:08:04Z</time></trkpt><trkpt lat="45.95203969064833" lon="6.123258622259163"><ele>535.0</ele><time>2026-04-18T18:08:05Z</time></trkpt><trkpt lat="45.952135272312184" lon="6.123638038889613"><ele>535.0</ele><time>2026-04-18T18:08:06Z</time></trkpt><trkpt lat="45.95223986187903" lon="6.124012304686664"><ele>535.0</ele><time>2026-04-18T18:08:07Z</time></trkpt><trkpt lat="45.952352919335105" lon="6.124376168191653"><ele>537.5</ele><time>2026-04-18T18:08:08Z</time></trkpt><trkpt lat="45.952478954124786" lon="6.124733611840442"><ele>540.0</ele><time>2026-04-18T18:08:09Z</time></trkpt><trkpt lat="45.95261156270139" lon="6.1250855454682"><ele>545.0</ele><time>2026-04-18T18:08:10Z</time></trkpt><trkpt lat="45.95275497520654" lon="6.125424327310502"><ele>550.0</ele><time>2026-04-18T18:08:11Z</time></trkpt><trkpt lat="45.95290744459702" lon="6.125758373606563"><ele>550.0</ele><time>2026-04-18T18:08:12Z</time></trkpt><trkpt lat="45.9530712776886" lon="6.126081355258303"><ele>550.0</ele><time>2026-04-18T18:08:13Z</time></trkpt><trkpt lat="45.953238724597966" lon="6.126396085503056"><ele>551.5</ele><time>2026-04-18T18:08:14Z</time></trkpt><trkpt lat="45.95341667149618" lon="6.126697153818017"><ele>553.0</ele><time>2026-04-18T18:08:15Z</time></trkpt><trkpt lat="45.95359736800845" lon="6.126988034394926"><ele>553.0</ele><time>2026-04-18T18:08:16Z</time></trkpt><trkpt lat="45.953782735560175" lon="6.127262729056044"><ele>553.0</ele><time>2026-04-18T18:08:17Z</time></trkpt><trkpt lat="45.95397401642944" lon="6.127531013083288"><ele>554.0</ele><time>2026-04-18T18:08:18Z</time></trkpt><trkpt lat="45.95417141739118" lon="6.12779059149224"><ele>555.0</ele><time>2026-04-18T18:08:19Z</time></trkpt><trkpt lat="45.9543755680872" lon="6.128038015950148"><ele>558.5</ele><time>2026-04-18T18:08:20Z</time></trkpt><trkpt lat="45.954585694424054" lon="6.128282091462332"><ele>562.0</ele><time>2026-04-18T18:08:21Z</time></trkpt><trkpt lat="45.95480217152031" lon="6.128516121188112"><ele>562.0</ele><time>2026-04-18T18:08:22Z</time></trkpt><trkpt lat="45.95502322815071" lon="6.128740328882051"><ele>562.0</ele><time>2026-04-18T18:08:23Z</time></trkpt><trkpt lat="45.955250321801046" lon="6.128956852204915"><ele>567.0</ele><time>2026-04-18T18:08:24Z</time></trkpt><trkpt lat="45.95548083632886" lon="6.129165900349311"><ele>572.0</ele><time>2026-04-18T18:08:25Z</time></trkpt><trkpt lat="45.955714735839976" lon="6.1293595573808295"><ele>576.0</ele><time>2026-04-18T18:08:26Z</time></trkpt><trkpt lat="45.95595402573603" lon="6.129544860629327"><ele>580.0</ele><time>2026-04-18T18:08:27Z</time></trkpt><trkpt lat="45.95619355073905" lon="6.1297170189758825"><ele>580.0</ele><time>2026-04-18T18:08:28Z</time></trkpt><trkpt lat="45.956442219786574" lon="6.12987521308998"><ele>580.0</ele><time>2026-04-18T18:08:29Z</time></trkpt><trkpt lat="45.9567066032345" lon="6.130010372276093"><ele>581.5</ele><time>2026-04-18T18:08:30Z</time></trkpt><trkpt lat="45.95699231649759" lon="6.1301332157530535"><ele>583.0</ele><time>2026-04-18T18:08:31Z</time></trkpt><trkpt lat="45.957283137788004" lon="6.130253956452495"><ele>584.5</ele><time>2026-04-18T18:08:32Z</time></trkpt><trkpt lat="45.95758557448869" lon="6.130379703696318"><ele>586.0</ele><time>2026-04-18T18:08:33Z</time></trkpt><trkpt lat="45.9579002098426" lon="6.130502581138618"><ele>586.0</ele><time>2026-04-18T18:08:34Z</time></trkpt><trkpt lat="45.958226385991665" lon="6.130615303686813"><ele>586.0</ele><time>2026-04-18T18:08:35Z</time></trkpt><trkpt lat="45.95856003379264" lon="6.13071188621962"><ele>588.0</ele><time>2026-04-18T18:08:36Z</time></trkpt><trkpt lat="45.95888267840127" lon="6.130783133313612"><ele>590.0</ele><time>2026-04-18T18:08:37Z</time></trkpt><trkpt lat="45.959212852669424" lon="6.130841922687304"><ele>590.0</ele><time>2026-04-18T18:08:38Z</time></trkpt><trkpt lat="45.95955152834519" lon="6.130891375683304"><ele>590.0</ele><time>2026-04-18T18:08:39Z</time></trkpt><trkpt lat="45.9598985094092" lon="6.1309195204212905"><ele>590.0</ele><time>2026-04-18T18:08:40Z</time></trkpt><trkpt lat="45.960247735207076" lon="6.130938368741494"><ele>590.0</ele><time>2026-04-18T18:08:41Z</time></trkpt><trkpt lat="45.96060323048427" lon="6.130952469408342"><ele>591.0</ele><time>2026-04-18T18:08:42Z</time></trkpt><trkpt lat="45.96096208427785" lon="6.1309582829611"><ele>592.0</ele><time>2026-04-18T18:08:43Z</time></trkpt><trkpt lat="45.96132479458723" lon="6.13095111450105"><ele>592.0</ele><time>2026-04-18T18:08:44Z</time></trkpt><trkpt lat="45.96169541690531" lon="6.130938004701667"><ele>592.0</ele><time>2026-04-18T18:08:45Z</time></trkpt><trkpt lat="45.9620788977077" lon="6.130906927545393"><ele>592.0</ele><time>2026-04-18T18:08:46Z</time></trkpt><trkpt lat="45.962466121811794" lon="6.130862440228565"><ele>592.0</ele><time>2026-04-18T18:08:47Z</time></trkpt><trkpt lat="45.962859875151196" lon="6.130814316134908"><ele>591.5</ele><time>2026-04-18T18:08:48Z</time></trkpt><trkpt lat="45.96323829218776" lon="6.130766262197153"><ele>591.0</ele><time>2026-04-18T18:08:49Z</time></trkpt><trkpt lat="45.96360522621348" lon="6.1307213599478825"><ele>591.0</ele><time>2026-04-18T18:08:50Z</time></trkpt><trkpt lat="45.96397226458145" lon="6.130680003856698"><ele>591.0</ele><time>2026-04-18T18:08:51Z</time></trkpt><trkpt lat="45.96433688231495" lon="6.130642275934894"><ele>590.0</ele><time>2026-04-18T18:08:52Z</time></trkpt><trkpt lat="45.964713872428874" lon="6.130621505660844"><ele>589.0</ele><time>2026-04-18T18:08:53Z</time></trkpt><trkpt lat="45.96509657235492" lon="6.130616504742896"><ele>588.5</ele><time>2026-04-18T18:08:54Z</time></trkpt><trkpt lat="45.96548851410936" lon="6.13062938885832"><ele>588.0</ele><time>2026-04-18T18:08:55Z</time></trkpt><trkpt lat="45.96588631642294" lon="6.130679702940026"><ele>590.0</ele><time>2026-04-18T18:08:56Z</time></trkpt><trkpt lat="45.96629128390993" lon="6.130752064537111"><ele>592.0</ele><time>2026-04-18T18:08:57Z</time></trkpt><trkpt lat="45.96669476200893" lon="6.1308614938664565"><ele>592.0</ele><time>2026-04-18T18:08:58Z</time></trkpt><trkpt lat="45.967101158157746" lon="6.131005353058603"><ele>592.0</ele><time>2026-04-18T18:08:59Z</time></trkpt><trkpt lat="45.96750215966594" lon="6.131142044183907"><ele>592.5</ele><time>2026-04-18T18:09:00Z</time></trkpt><trkpt lat="45.96787552565291" lon="6.131259379187532"><ele>593.0</ele><time>2026-04-18T18:09:00.999Z</time></trkpt><trkpt lat="45.968225963646745" lon="6.131368222653978"><ele>594.5</ele><time>2026-04-18T18:09:01.999Z</time></trkpt><trkpt lat="45.96855705178433" lon="6.131455853518017"><ele>596.0</ele><time>2026-04-18T18:09:02.999Z</time></trkpt><trkpt lat="45.96888456448194" lon="6.131529725223623"><ele>599.5</ele><time>2026-04-18T18:09:03.999Z</time></trkpt><trkpt lat="45.969205783735234" lon="6.1315788449074535"><ele>603.0</ele><time>2026-04-18T18:09:04.999Z</time></trkpt><trkpt lat="45.96952969966897" lon="6.131615907873888"><ele>603.0</ele><time>2026-04-18T18:09:05.999Z</time></trkpt><trkpt lat="45.969845997550955" lon="6.131639497736288"><ele>603.0</ele><time>2026-04-18T18:09:06.999Z</time></trkpt><trkpt lat="45.970166799050816" lon="6.131670212077887"><ele>605.0</ele><time>2026-04-18T18:09:07.999Z</time></trkpt><trkpt lat="45.970489147032175" lon="6.131702195023543"><ele>607.0</ele><time>2026-04-18T18:09:08.999Z</time></trkpt><trkpt lat="45.97081473129325" lon="6.131734205141832"><ele>607.0</ele><time>2026-04-18T18:09:09.999Z</time></trkpt><trkpt lat="45.971142385049305" lon="6.131764581906577"><ele>607.0</ele><time>2026-04-18T18:09:11Z</time></trkpt><trkpt lat="45.971475906741404" lon="6.131786289651209"><ele>609.0</ele><time>2026-04-18T18:09:12Z</time></trkpt><trkpt lat="45.97181604274371" lon="6.131811491609058"><ele>611.0</ele><time>2026-04-18T18:09:13Z</time></trkpt><trkpt lat="45.97216009963579" lon="6.131840310973163"><ele>611.0</ele><time>2026-04-18T18:09:14Z</time></trkpt><trkpt lat="45.97250448875343" lon="6.131867806406673"><ele>611.0</ele><time>2026-04-18T18:09:15Z</time></trkpt><trkpt lat="45.97285292482805" lon="6.13189137202668"><ele>610.5</ele><time>2026-04-18T18:09:16Z</time></trkpt><trkpt lat="45.973201200266175" lon="6.131918162727096"><ele>610.0</ele><time>2026-04-18T18:09:17Z</time></trkpt><trkpt lat="45.97354966544547" lon="6.131946985769145"><ele>609.5</ele><time>2026-04-18T18:09:18Z</time></trkpt><trkpt lat="45.97389147415128" lon="6.131971998555762"><ele>609.0</ele><time>2026-04-18T18:09:19Z</time></trkpt><trkpt lat="45.97424119856491" lon="6.131982694698343"><ele>609.0</ele><time>2026-04-18T18:09:20Z</time></trkpt><trkpt lat="45.97458947905747" lon="6.131981184582811"><ele>609.0</ele><time>2026-04-18T18:09:21Z</time></trkpt><trkpt lat="45.974939146069715" lon="6.1319694488892384"><ele>611.0</ele><time>2026-04-18T18:09:22Z</time></trkpt><trkpt lat="45.975290295784966" lon="6.131946346105442"><ele>613.0</ele><time>2026-04-18T18:09:23Z</time></trkpt><trkpt lat="45.97563170392167" lon="6.13191163191765"><ele>615.5</ele><time>2026-04-18T18:09:24Z</time></trkpt><trkpt lat="45.97597610303857" lon="6.131857278129016"><ele>618.0</ele><time>2026-04-18T18:09:25Z</time></trkpt><trkpt lat="45.97631945297608" lon="6.1317923710163456"><ele>618.0</ele><time>2026-04-18T18:09:26Z</time></trkpt><trkpt lat="45.97665566394047" lon="6.131717542884302"><ele>618.0</ele><time>2026-04-18T18:09:27Z</time></trkpt><trkpt lat="45.97698105639146" lon="6.131633657746926"><ele>619.0</ele><time>2026-04-18T18:09:28Z</time></trkpt><trkpt lat="45.977292486083186" lon="6.131543314282973"><ele>620.0</ele><time>2026-04-18T18:09:29Z</time></trkpt><trkpt lat="45.97758784138836" lon="6.131452181013815"><ele>621.5</ele><time>2026-04-18T18:09:30Z</time></trkpt><trkpt lat="45.97788229219173" lon="6.1313559973253895"><ele>623.0</ele><time>2026-04-18T18:09:31Z</time></trkpt><trkpt lat="45.97817914149416" lon="6.131250083595768"><ele>623.5</ele><time>2026-04-18T18:09:32Z</time></trkpt><trkpt lat="45.97847231515977" lon="6.13114317325657"><ele>624.0</ele><time>2026-04-18T18:09:33Z</time></trkpt><trkpt lat="45.978770278902466" lon="6.1310357026040645"><ele>624.0</ele><time>2026-04-18T18:09:34Z</time></trkpt><trkpt lat="45.97907331518166" lon="6.130923716813054"><ele>624.0</ele><time>2026-04-18T18:09:35Z</time></trkpt><trkpt lat="45.979376454634526" lon="6.130810620137895"><ele>623.0</ele><time>2026-04-18T18:09:36Z</time></trkpt><trkpt lat="45.979681963144564" lon="6.130694092109211"><ele>622.0</ele><time>2026-04-18T18:09:37Z</time></trkpt><trkpt lat="45.979985822330704" lon="6.130578730031747"><ele>623.0</ele><time>2026-04-18T18:09:38Z</time></trkpt><trkpt lat="45.98029158983279" lon="6.130462039257078"><ele>624.0</ele><time>2026-04-18T18:09:39Z</time></trkpt><trkpt lat="45.9805974582324" lon="6.13034562298072"><ele>625.0</ele><time>2026-04-18T18:09:40Z</time></trkpt><trkpt lat="45.98090836605583" lon="6.130227027424712"><ele>626.0</ele><time>2026-04-18T18:09:41Z</time></trkpt><trkpt lat="45.98122209758454" lon="6.13011235620352"><ele>626.0</ele><time>2026-04-18T18:09:42Z</time></trkpt><trkpt lat="45.98153373351011" lon="6.129999157486159"><ele>626.0</ele><time>2026-04-18T18:09:43Z</time></trkpt><trkpt lat="45.98184921044054" lon="6.129882320646272"><ele>625.0</ele><time>2026-04-18T18:09:44Z</time></trkpt><trkpt lat="45.98216736622225" lon="6.129765908216744"><ele>624.0</ele><time>2026-04-18T18:09:45Z</time></trkpt><trkpt lat="45.982474999269606" lon="6.129651846144623"><ele>626.0</ele><time>2026-04-18T18:09:46Z</time></trkpt><trkpt lat="45.98276316681994" lon="6.1295395838888975"><ele>628.0</ele><time>2026-04-18T18:09:47Z</time></trkpt><trkpt lat="45.98304128290821" lon="6.129435349920378"><ele>628.0</ele><time>2026-04-18T18:09:48Z</time></trkpt><trkpt lat="45.98331788679152" lon="6.129334423823415"><ele>628.0</ele><time>2026-04-18T18:09:49Z</time></trkpt><trkpt lat="45.98360640623896" lon="6.1292208295662896"><ele>629.0</ele><time>2026-04-18T18:09:50Z</time></trkpt><trkpt lat="45.983902340996316" lon="6.129106146088483"><ele>630.0</ele><time>2026-04-18T18:09:51Z</time></trkpt><trkpt lat="45.98420172939287" lon="6.128996383963129"><ele>628.0</ele><time>2026-04-18T18:09:52Z</time></trkpt><trkpt lat="45.98449868984899" lon="6.128874535683736"><ele>626.0</ele><time>2026-04-18T18:09:53Z</time></trkpt><trkpt lat="45.98480294287332" lon="6.128761022002523"><ele>627.0</ele><time>2026-04-18T18:09:54Z</time></trkpt><trkpt lat="45.98510437884721" lon="6.128658649096806"><ele>628.0</ele><time>2026-04-18T18:09:55Z</time></trkpt><trkpt lat="45.985396173035284" lon="6.128551201421944"><ele>628.0</ele><time>2026-04-18T18:09:56Z</time></trkpt><trkpt lat="45.985675162697724" lon="6.128446100486157"><ele>628.0</ele><time>2026-04-18T18:09:57Z</time></trkpt><trkpt lat="45.98594375243954" lon="6.128347837207582"><ele>628.0</ele><time>2026-04-18T18:09:58Z</time></trkpt><trkpt lat="45.986202774810046" lon="6.128261579280923"><ele>628.0</ele><time>2026-04-18T18:09:59Z</time></trkpt><trkpt lat="45.98644063123999" lon="6.128193484879394"><ele>628.0</ele><time>2026-04-18T18:10:00Z</time></trkpt><trkpt lat="45.9866660750824" lon="6.128137119601215"><ele>628.0</ele><time>2026-04-18T18:10:01Z</time></trkpt><trkpt lat="45.98687818632037" lon="6.128101634792035"><ele>628.0</ele><time>2026-04-18T18:10:02Z</time></trkpt><trkpt lat="45.987074553568554" lon="6.128095898150866"><ele>628.0</ele><time>2026-04-18T18:10:03Z</time></trkpt><trkpt lat="45.98726641777509" lon="6.128116533434374"><ele>628.0</ele><time>2026-04-18T18:10:04Z</time></trkpt><trkpt lat="45.987447818031455" lon="6.128160661967573"><ele>628.0</ele><time>2026-04-18T18:10:05Z</time></trkpt><trkpt lat="45.98762118193563" lon="6.128212563752785"><ele>629.0</ele><time>2026-04-18T18:10:06Z</time></trkpt><trkpt lat="45.98779520983616" lon="6.128263169836733"><ele>630.0</ele><time>2026-04-18T18:10:07Z</time></trkpt><trkpt lat="45.98796541676367" lon="6.128310338548136"><ele>631.0</ele><time>2026-04-18T18:10:08Z</time></trkpt><trkpt lat="45.988139887861976" lon="6.128353133464853"><ele>631.0</ele><time>2026-04-18T18:10:09Z</time></trkpt><trkpt lat="45.98831161908948" lon="6.128390504926356"><ele>631.0</ele><time>2026-04-18T18:10:10Z</time></trkpt><trkpt lat="45.988469885736194" lon="6.128428319479535"><ele>631.0</ele><time>2026-04-18T18:10:11Z</time></trkpt><trkpt lat="45.98861466598927" lon="6.128463677742658"><ele>631.5</ele><time>2026-04-18T18:10:12Z</time></trkpt><trkpt lat="45.98874588723331" lon="6.128495332373344"><ele>632.0</ele><time>2026-04-18T18:10:13Z</time></trkpt><trkpt lat="45.98886531504453" lon="6.128513821326268"><ele>632.5</ele><time>2026-04-18T18:10:14Z</time></trkpt><trkpt lat="45.98897579877902" lon="6.128526086175608"><ele>633.0</ele><time>2026-04-18T18:10:15Z</time></trkpt><trkpt lat="45.9890769457622" lon="6.128529563663873"><ele>633.5</ele><time>2026-04-18T18:10:16Z</time></trkpt><trkpt lat="45.98917647093343" lon="6.128531975913711"><ele>634.0</ele><time>2026-04-18T18:10:17Z</time></trkpt><trkpt lat="45.98927196163228" lon="6.128540995167129"><ele>634.5</ele><time>2026-04-18T18:10:18Z</time></trkpt><trkpt lat="45.98936350566843" lon="6.128553737347936"><ele>635.0</ele><time>2026-04-18T18:10:19Z</time></trkpt><trkpt lat="45.98944219845743" lon="6.1285662776885435"><ele>635.5</ele><time>2026-04-18T18:10:20Z</time></trkpt><trkpt lat="45.98951356792794" lon="6.128569102075955"><ele>636.0</ele><time>2026-04-18T18:10:21Z</time></trkpt><trkpt lat="45.98961428417917" lon="6.128558720853613"><ele>636.0</ele><time>2026-04-18T18:10:23Z</time></trkpt><trkpt lat="45.989677493974405" lon="6.128546824869019"><ele>636.0</ele><time>2026-04-18T18:10:25Z</time></trkpt><trkpt lat="45.989749114457524" lon="6.128516402377799"><ele>636.0</ele><time>2026-04-18T18:11:36Z</time></trkpt><trkpt lat="45.990010758610865" lon="6.128472149473335"><ele>636.0</ele><time>2026-04-18T18:12:52Z</time></trkpt><trkpt lat="45.99016554288394" lon="6.128455268192337"><ele>635.8</ele><time>2026-04-18T18:12:53Z</time></trkpt><trkpt lat="45.99025236555677" lon="6.1284260425507915"><ele>635.6</ele><time>2026-04-18T18:12:54Z</time></trkpt><trkpt lat="45.9903505156838" lon="6.1284029132618345"><ele>635.4</ele><time>2026-04-18T18:12:55Z</time></trkpt><trkpt lat="45.9904484872564" lon="6.128381948577413"><ele>635.2</ele><time>2026-04-18T18:12:55.999Z</time></trkpt><trkpt lat="45.990543260943674" lon="6.128357679945048"><ele>635.0</ele><time>2026-04-18T18:12:56.999Z</time></trkpt><trkpt lat="45.99063079727044" lon="6.128330550485847"><ele>635.0</ele><time>2026-04-18T18:12:57.999Z</time></trkpt><trkpt lat="45.99071927071159" lon="6.128309879180483"><ele>635.0</ele><time>2026-04-18T18:12:58.999Z</time></trkpt><trkpt lat="45.99081737389591" lon="6.128287341131077"><ele>635.0</ele><time>2026-04-18T18:12:59.999Z</time></trkpt><trkpt lat="45.990922948845764" lon="6.128251136358324"><ele>635.0</ele><time>2026-04-18T18:13:00.999Z</time></trkpt><trkpt lat="45.99102882985483" lon="6.12821657683873"><ele>635.0</ele><time>2026-04-18T18:13:01.999Z</time></trkpt><trkpt lat="45.99113705709376" lon="6.128187571864231"><ele>635.25</ele><time>2026-04-18T18:13:02.999Z</time></trkpt><trkpt lat="45.99124237494019" lon="6.12815864029814"><ele>635.5</ele><time>2026-04-18T18:13:03.999Z</time></trkpt><trkpt lat="45.991347324739564" lon="6.128112158824993"><ele>635.75</ele><time>2026-04-18T18:13:04.999Z</time></trkpt><trkpt lat="45.9914616482354" lon="6.128070963180148"><ele>636.0</ele><time>2026-04-18T18:13:05.999Z</time></trkpt><trkpt lat="45.991586317104506" lon="6.12802575087506"><ele>636.6666666666666</ele><time>2026-04-18T18:13:06.999Z</time></trkpt><trkpt lat="45.9917298782348" lon="6.127980692549066"><ele>637.3333333333333</ele><time>2026-04-18T18:13:07.999Z</time></trkpt><trkpt lat="45.9918806422884" lon="6.127927537469543"><ele>638.0</ele><time>2026-04-18T18:13:08.999Z</time></trkpt><trkpt lat="45.992051560712625" lon="6.1278620632005625"><ele>638.0</ele><time>2026-04-18T18:13:09.999Z</time></trkpt><trkpt lat="45.99224641838078" lon="6.127806253883058"><ele>638.0</ele><time>2026-04-18T18:13:10.999Z</time></trkpt><trkpt lat="45.99246081715237" lon="6.127737488961806"><ele>638.0</ele><time>2026-04-18T18:13:11.999Z</time></trkpt><trkpt lat="45.992697347947676" lon="6.127652633040307"><ele>638.0</ele><time>2026-04-18T18:13:12.999Z</time></trkpt><trkpt lat="45.992961955276215" lon="6.127567274099415"><ele>638.0</ele><time>2026-04-18T18:13:13.999Z</time></trkpt><trkpt lat="45.99323766061715" lon="6.127493094129862"><ele>637.5</ele><time>2026-04-18T18:13:14.999Z</time></trkpt><trkpt lat="45.9935099054604" lon="6.127407836614671"><ele>637.0</ele><time>2026-04-18T18:13:15.999Z</time></trkpt><trkpt lat="45.993799296023155" lon="6.127306924107913"><ele>637.0</ele><time>2026-04-18T18:13:16.999Z</time></trkpt><trkpt lat="45.994102905222704" lon="6.127216521316598"><ele>637.0</ele><time>2026-04-18T18:13:17.999Z</time></trkpt><trkpt lat="45.99442344074962" lon="6.127121829068656"><ele>638.5</ele><time>2026-04-18T18:13:18.999Z</time></trkpt><trkpt lat="45.994740094627005" lon="6.127041363901676"><ele>640.0</ele><time>2026-04-18T18:13:19.999Z</time></trkpt><trkpt lat="45.99506426176634" lon="6.126959308253111"><ele>640.0</ele><time>2026-04-18T18:13:20.999Z</time></trkpt><trkpt lat="45.995393175469594" lon="6.126888968499349"><ele>640.0</ele><time>2026-04-18T18:13:22Z</time></trkpt><trkpt lat="45.99571068663787" lon="6.126843132224579"><ele>641.5</ele><time>2026-04-18T18:13:23Z</time></trkpt><trkpt lat="45.996003305562944" lon="6.12679840434547"><ele>643.0</ele><time>2026-04-18T18:13:24Z</time></trkpt><trkpt lat="45.99628637460842" lon="6.126769578602468"><ele>643.0</ele><time>2026-04-18T18:13:25Z</time></trkpt><trkpt lat="45.9965770661066" lon="6.126761247768975"><ele>643.0</ele><time>2026-04-18T18:13:26Z</time></trkpt><trkpt lat="45.99688222049708" lon="6.126765772558776"><ele>643.5</ele><time>2026-04-18T18:13:27Z</time></trkpt><trkpt lat="45.99719335682829" lon="6.126791307601223"><ele>644.0</ele><time>2026-04-18T18:13:28Z</time></trkpt><trkpt lat="45.99751379517068" lon="6.126838103963493"><ele>644.5</ele><time>2026-04-18T18:13:29Z</time></trkpt><trkpt lat="45.99784303765094" lon="6.12690126138412"><ele>645.0</ele><time>2026-04-18T18:13:30Z</time></trkpt><trkpt lat="45.99818369306656" lon="6.126975968050659"><ele>643.5</ele><time>2026-04-18T18:13:31Z</time></trkpt><trkpt lat="45.998525141317224" lon="6.127053319581616"><ele>642.0</ele><time>2026-04-18T18:13:32Z</time></trkpt><trkpt lat="45.99887658594218" lon="6.127135554678651"><ele>641.5</ele><time>2026-04-18T18:13:33Z</time></trkpt><trkpt lat="45.99922174032981" lon="6.127209830705071"><ele>641.0</ele><time>2026-04-18T18:13:34Z</time></trkpt><trkpt lat="45.999547775396834" lon="6.127295629859766"><ele>641.0</ele><time>2026-04-18T18:13:35Z</time></trkpt><trkpt lat="45.99987482127842" lon="6.127372880500398"><ele>641.0</ele><time>2026-04-18T18:13:36Z</time></trkpt><trkpt lat="46.00019862787131" lon="6.127451210261959"><ele>645.5</ele><time>2026-04-18T18:13:37Z</time></trkpt><trkpt lat="46.00051992103081" lon="6.127542299204023"><ele>650.0</ele><time>2026-04-18T18:13:38Z</time></trkpt><trkpt lat="46.000838999669796" lon="6.127657425086232"><ele>650.5</ele><time>2026-04-18T18:13:39Z</time></trkpt><trkpt lat="46.001153098539504" lon="6.1277938061513915"><ele>651.0</ele><time>2026-04-18T18:13:40Z</time></trkpt><trkpt lat="46.00145985921301" lon="6.127956316763165"><ele>651.5</ele><time>2026-04-18T18:13:41Z</time></trkpt><trkpt lat="46.001758775531286" lon="6.128142802380437"><ele>652.0</ele><time>2026-04-18T18:13:42Z</time></trkpt><trkpt lat="46.00204127515882" lon="6.128369784958022"><ele>657.0</ele><time>2026-04-18T18:13:43Z</time></trkpt><trkpt lat="46.002309696096106" lon="6.128624926900262"><ele>662.0</ele><time>2026-04-18T18:13:44Z</time></trkpt><trkpt lat="46.00256967103581" lon="6.128903061419923"><ele>665.5</ele><time>2026-04-18T18:13:45Z</time></trkpt><trkpt lat="46.00281792877282" lon="6.129209878373503"><ele>669.0</ele><time>2026-04-18T18:13:46Z</time></trkpt><trkpt lat="46.00305056336403" lon="6.129547859401038"><ele>669.0</ele><time>2026-04-18T18:13:47Z</time></trkpt><trkpt lat="46.00326930332066" lon="6.129912266271168"><ele>669.0</ele><time>2026-04-18T18:13:48Z</time></trkpt><trkpt lat="46.00346892952771" lon="6.130304991933497"><ele>669.0</ele><time>2026-04-18T18:13:49Z</time></trkpt><trkpt lat="46.00365109680002" lon="6.13071462058141"><ele>669.0</ele><time>2026-04-18T18:13:50Z</time></trkpt><trkpt lat="46.003805838982046" lon="6.131142459438413"><ele>673.5</ele><time>2026-04-18T18:13:51Z</time></trkpt><trkpt lat="46.00392858861741" lon="6.131589051776045"><ele>678.0</ele><time>2026-04-18T18:13:52Z</time></trkpt><trkpt lat="46.00402875121278" lon="6.132030632237131"><ele>678.0</ele><time>2026-04-18T18:13:53Z</time></trkpt><trkpt lat="46.004112956000405" lon="6.132475937100655"><ele>678.0</ele><time>2026-04-18T18:13:54Z</time></trkpt><trkpt lat="46.004174968531004" lon="6.132931718888087"><ele>672.0</ele><time>2026-04-18T18:13:55Z</time></trkpt><trkpt lat="46.00421379335206" lon="6.13340379680721"><ele>666.0</ele><time>2026-04-18T18:13:56Z</time></trkpt><trkpt lat="46.0042296223426" lon="6.13388618737603"><ele>667.5</ele><time>2026-04-18T18:13:57Z</time></trkpt><trkpt lat="46.00422598423945" lon="6.134373588255947"><ele>669.0</ele><time>2026-04-18T18:13:58Z</time></trkpt><trkpt lat="46.004207294145296" lon="6.134873935297402"><ele>668.5</ele><time>2026-04-18T18:13:59Z</time></trkpt><trkpt lat="46.00417512012869" lon="6.1353861754362935"><ele>668.0</ele><time>2026-04-18T18:14:00Z</time></trkpt><trkpt lat="46.004130633882276" lon="6.135914815099824"><ele>678.0</ele><time>2026-04-18T18:14:01Z</time></trkpt><trkpt lat="46.00407716228557" lon="6.1364501902637345"><ele>688.0</ele><time>2026-04-18T18:14:02Z</time></trkpt><trkpt lat="46.00400802208761" lon="6.136988990103369"><ele>687.0</ele><time>2026-04-18T18:14:03Z</time></trkpt><trkpt lat="46.00393160167365" lon="6.1375072442875345"><ele>686.0</ele><time>2026-04-18T18:14:04Z</time></trkpt><trkpt lat="46.003850461785945" lon="6.138019873790711"><ele>682.5</ele><time>2026-04-18T18:14:05Z</time></trkpt><trkpt lat="46.00376031919872" lon="6.138538377241391"><ele>679.0</ele><time>2026-04-18T18:14:06Z</time></trkpt><trkpt lat="46.00365970470719" lon="6.1390659119901745"><ele>678.5</ele><time>2026-04-18T18:14:07Z</time></trkpt><trkpt lat="46.003550183561515" lon="6.139597077255348"><ele>678.0</ele><time>2026-04-18T18:14:08Z</time></trkpt><trkpt lat="46.003432103615566" lon="6.1401293398523675"><ele>683.5</ele><time>2026-04-18T18:14:09Z</time></trkpt><trkpt lat="46.00330129082518" lon="6.140656265893697"><ele>689.0</ele><time>2026-04-18T18:14:10Z</time></trkpt><trkpt lat="46.00316446798726" lon="6.141177091508868"><ele>686.0</ele><time>2026-04-18T18:14:11Z</time></trkpt><trkpt lat="46.003020035794435" lon="6.141700496573488"><ele>683.0</ele><time>2026-04-18T18:14:12Z</time></trkpt><trkpt lat="46.002869124537476" lon="6.142223856523004"><ele>683.0</ele><time>2026-04-18T18:14:13Z</time></trkpt><trkpt lat="46.00271032566586" lon="6.142738032374207"><ele>683.0</ele><time>2026-04-18T18:14:14Z</time></trkpt><trkpt lat="46.0025408499043" lon="6.143246601936833"><ele>686.5</ele><time>2026-04-18T18:14:15Z</time></trkpt><trkpt lat="46.002366178787" lon="6.143746355690033"><ele>690.0</ele><time>2026-04-18T18:14:16Z</time></trkpt><trkpt lat="46.00218441810532" lon="6.144237831661121"><ele>691.0</ele><time>2026-04-18T18:14:17Z</time></trkpt><trkpt lat="46.00199793885644" lon="6.144725068511321"><ele>692.0</ele><time>2026-04-18T18:14:18Z</time></trkpt><trkpt lat="46.001805485497215" lon="6.145193799275765"><ele>694.0</ele><time>2026-04-18T18:14:19Z</time></trkpt><trkpt lat="46.00161754031325" lon="6.145631954019752"><ele>696.0</ele><time>2026-04-18T18:14:20Z</time></trkpt><trkpt lat="46.00143174532826" lon="6.1460352832808045"><ele>696.0</ele><time>2026-04-18T18:14:21Z</time></trkpt><trkpt lat="46.001240444555464" lon="6.146420736197951"><ele>696.0</ele><time>2026-04-18T18:14:22Z</time></trkpt><trkpt lat="46.001037566280054" lon="6.146792366890605"><ele>695.5</ele><time>2026-04-18T18:14:23Z</time></trkpt><trkpt lat="46.00081758356586" lon="6.1471578389277886"><ele>695.0</ele><time>2026-04-18T18:14:24Z</time></trkpt><trkpt lat="46.000587109508" lon="6.147518290862968"><ele>695.0</ele><time>2026-04-18T18:14:25Z</time></trkpt><trkpt lat="46.00034047825461" lon="6.147870059817105"><ele>695.0</ele><time>2026-04-18T18:14:26Z</time></trkpt><trkpt lat="46.000083591839086" lon="6.148211298545139"><ele>692.0</ele><time>2026-04-18T18:14:27Z</time></trkpt><trkpt lat="45.999821188967935" lon="6.148547625358279"><ele>689.0</ele><time>2026-04-18T18:14:28Z</time></trkpt><trkpt lat="45.99956193208857" lon="6.14885677602265"><ele>688.0</ele><time>2026-04-18T18:14:29Z</time></trkpt><trkpt lat="45.999310742908804" lon="6.149141570818076"><ele>687.0</ele><time>2026-04-18T18:14:30Z</time></trkpt><trkpt lat="45.999068157249795" lon="6.1494225864980026"><ele>686.5</ele><time>2026-04-18T18:14:31Z</time></trkpt><trkpt lat="45.998827411311886" lon="6.149709597233833"><ele>686.0</ele><time>2026-04-18T18:14:32Z</time></trkpt><trkpt lat="45.998586818336236" lon="6.150007206977751"><ele>685.5</ele><time>2026-04-18T18:14:33Z</time></trkpt><trkpt lat="45.99834926069948" lon="6.150307492516158"><ele>685.0</ele><time>2026-04-18T18:14:34Z</time></trkpt><trkpt lat="45.99811453197539" lon="6.150623224801673"><ele>681.0</ele><time>2026-04-18T18:14:35Z</time></trkpt><trkpt lat="45.997888936122344" lon="6.150954660298831"><ele>677.0</ele><time>2026-04-18T18:14:36Z</time></trkpt><trkpt lat="45.99767391081662" lon="6.1513144981877375"><ele>674.0</ele><time>2026-04-18T18:14:37Z</time></trkpt><trkpt lat="45.997473701410044" lon="6.151691087958497"><ele>671.0</ele><time>2026-04-18T18:14:38Z</time></trkpt><trkpt lat="45.99729187466298" lon="6.152091007422957"><ele>670.5</ele><time>2026-04-18T18:14:39Z</time></trkpt><trkpt lat="45.99712304275741" lon="6.1525057325190975"><ele>670.0</ele><time>2026-04-18T18:14:40Z</time></trkpt><trkpt lat="45.996972654291184" lon="6.152944652237797"><ele>672.0</ele><time>2026-04-18T18:14:41Z</time></trkpt><trkpt lat="45.99683585070827" lon="6.153396534556447"><ele>674.0</ele><time>2026-04-18T18:14:42Z</time></trkpt><trkpt lat="45.996720176561944" lon="6.153862902847273"><ele>666.0</ele><time>2026-04-18T18:14:43Z</time></trkpt><trkpt lat="45.99662613781033" lon="6.15434783678032"><ele>658.0</ele><time>2026-04-18T18:14:44Z</time></trkpt><trkpt lat="45.99655540102219" lon="6.1548409308423455"><ele>655.0</ele><time>2026-04-18T18:14:45Z</time></trkpt><trkpt lat="45.99650330676016" lon="6.155343009405089"><ele>652.0</ele><time>2026-04-18T18:14:46Z</time></trkpt><trkpt lat="45.99647587433415" lon="6.155834878630331"><ele>649.5</ele><time>2026-04-18T18:14:47Z</time></trkpt><trkpt lat="45.99646639819661" lon="6.15631598434372"><ele>647.0</ele><time>2026-04-18T18:14:47.999Z</time></trkpt><trkpt lat="45.99648008680506" lon="6.156779811639744"><ele>645.0</ele><time>2026-04-18T18:14:48.999Z</time></trkpt><trkpt lat="45.99651534971746" lon="6.157241187178136"><ele>643.0</ele><time>2026-04-18T18:14:49.999Z</time></trkpt><trkpt lat="45.996573900863105" lon="6.157708462750516"><ele>638.0</ele><time>2026-04-18T18:14:50.999Z</time></trkpt><trkpt lat="45.99665023359264" lon="6.15819077205653"><ele>633.0</ele><time>2026-04-18T18:14:51.999Z</time></trkpt><trkpt lat="45.99673673121054" lon="6.158689702422441"><ele>625.5</ele><time>2026-04-18T18:14:52.999Z</time></trkpt><trkpt lat="45.99683624330724" lon="6.159194927530791"><ele>618.0</ele><time>2026-04-18T18:14:53.999Z</time></trkpt><trkpt lat="45.99694576565499" lon="6.1596946983419505"><ele>616.0</ele><time>2026-04-18T18:14:54.999Z</time></trkpt><trkpt lat="45.99706919656239" lon="6.16018831931331"><ele>614.0</ele><time>2026-04-18T18:14:55.999Z</time></trkpt><trkpt lat="45.997202340124105" lon="6.16066194379798"><ele>613.0</ele><time>2026-04-18T18:14:56.999Z</time></trkpt><trkpt lat="45.9973373643962" lon="6.1611062097179445"><ele>612.0</ele><time>2026-04-18T18:14:57.999Z</time></trkpt><trkpt lat="45.99747437361099" lon="6.1615355146816055"><ele>610.0</ele><time>2026-04-18T18:14:58.999Z</time></trkpt><trkpt lat="45.9976079530209" lon="6.161946769602965"><ele>608.0</ele><time>2026-04-18T18:14:59.999Z</time></trkpt><trkpt lat="45.997737577488245" lon="6.162349275860772"><ele>607.0</ele><time>2026-04-18T18:15:00.999Z</time></trkpt><trkpt lat="45.99786590630644" lon="6.1627428406364215"><ele>606.0</ele><time>2026-04-18T18:15:01.999Z</time></trkpt><trkpt lat="45.9979937488127" lon="6.163136097995538"><ele>604.5</ele><time>2026-04-18T18:15:02.999Z</time></trkpt><trkpt lat="45.9981229146362" lon="6.163533567059285"><ele>603.0</ele><time>2026-04-18T18:15:03.999Z</time></trkpt><trkpt lat="45.99825097871175" lon="6.163929058003556"><ele>603.5</ele><time>2026-04-18T18:15:04.999Z</time></trkpt><trkpt lat="45.99837761222559" lon="6.164327426220447"><ele>604.0</ele><time>2026-04-18T18:15:05.999Z</time></trkpt><trkpt lat="45.99850290781324" lon="6.164723222273727"><ele>603.0</ele><time>2026-04-18T18:15:06.999Z</time></trkpt><trkpt lat="45.998628798977876" lon="6.165110398137882"><ele>602.0</ele><time>2026-04-18T18:15:07.999Z</time></trkpt><trkpt lat="45.99875325553828" lon="6.165477977379286"><ele>602.5</ele><time>2026-04-18T18:15:08.999Z</time></trkpt><trkpt lat="45.99887985203529" lon="6.165843317902152"><ele>603.0</ele><time>2026-04-18T18:15:09.999Z</time></trkpt><trkpt lat="45.999008565154305" lon="6.166211732039766"><ele>603.0</ele><time>2026-04-18T18:15:10.999Z</time></trkpt><trkpt lat="45.99914126440953" lon="6.166584432918023"><ele>603.0</ele><time>2026-04-18T18:15:11.999Z</time></trkpt><trkpt lat="45.99927629999557" lon="6.1669666764725335"><ele>603.0</ele><time>2026-04-18T18:15:12.999Z</time></trkpt><trkpt lat="45.9994120578648" lon="6.167352338342371"><ele>603.0</ele><time>2026-04-18T18:15:13.999Z</time></trkpt><trkpt lat="45.999546087842596" lon="6.167737269275366"><ele>603.0</ele><time>2026-04-18T18:15:14.999Z</time></trkpt><trkpt lat="45.99968476354662" lon="6.168123082602932"><ele>603.0</ele><time>2026-04-18T18:15:15.999Z</time></trkpt><trkpt lat="45.999827306096925" lon="6.1685134575573235"><ele>602.5</ele><time>2026-04-18T18:15:16.999Z</time></trkpt><trkpt lat="45.99996953027049" lon="6.168907042634206"><ele>602.0</ele><time>2026-04-18T18:15:17.999Z</time></trkpt><trkpt lat="46.00011457401151" lon="6.169301861878649"><ele>600.5</ele><time>2026-04-18T18:15:18.999Z</time></trkpt><trkpt lat="46.00025920963252" lon="6.169696089268548"><ele>599.0</ele><time>2026-04-18T18:15:19.999Z</time></trkpt><trkpt lat="46.00040817638921" lon="6.170088763300719"><ele>599.0</ele><time>2026-04-18T18:15:20.999Z</time></trkpt><trkpt lat="46.000557013685224" lon="6.170478466683716"><ele>599.0</ele><time>2026-04-18T18:15:21.999Z</time></trkpt><trkpt lat="46.00070801196252" lon="6.170870245550209"><ele>601.0</ele><time>2026-04-18T18:15:22.999Z</time></trkpt><trkpt lat="46.000860525083034" lon="6.17126154048987"><ele>603.0</ele><time>2026-04-18T18:15:23.999Z</time></trkpt><trkpt lat="46.001012800617204" lon="6.171649766711089"><ele>603.5</ele><time>2026-04-18T18:15:24.999Z</time></trkpt><trkpt lat="46.00116531713624" lon="6.172037855048838"><ele>604.0</ele><time>2026-04-18T18:15:25.999Z</time></trkpt><trkpt lat="46.001320192544355" lon="6.17242661953202"><ele>604.5</ele><time>2026-04-18T18:15:27Z</time></trkpt><trkpt lat="46.00147693425011" lon="6.172809550831205"><ele>605.0</ele><time>2026-04-18T18:15:28Z</time></trkpt><trkpt lat="46.001631645874475" lon="6.173185560248812"><ele>602.5</ele><time>2026-04-18T18:15:29Z</time></trkpt><trkpt lat="46.00178464483728" lon="6.173561594122461"><ele>600.0</ele><time>2026-04-18T18:15:30Z</time></trkpt><trkpt lat="46.00193705261577" lon="6.173936443753533"><ele>598.0</ele><time>2026-04-18T18:15:31Z</time></trkpt><trkpt lat="46.002089323040735" lon="6.174314531196473"><ele>596.0</ele><time>2026-04-18T18:15:32Z</time></trkpt><trkpt lat="46.002243913152235" lon="6.174694041655685"><ele>597.5</ele><time>2026-04-18T18:15:33Z</time></trkpt><trkpt lat="46.00239943638953" lon="6.175071466742735"><ele>599.0</ele><time>2026-04-18T18:15:34Z</time></trkpt><trkpt lat="46.00255243324227" lon="6.175438367505102"><ele>600.0</ele><time>2026-04-18T18:15:35Z</time></trkpt><trkpt lat="46.00269920697855" lon="6.175795624577516"><ele>601.0</ele><time>2026-04-18T18:15:36Z</time></trkpt><trkpt lat="46.002844764488515" lon="6.176153192683823"><ele>601.0</ele><time>2026-04-18T18:15:37Z</time></trkpt><trkpt lat="46.00299237211743" lon="6.176514890608862"><ele>601.0</ele><time>2026-04-18T18:15:38Z</time></trkpt><trkpt lat="46.00313801166016" lon="6.176876897305863"><ele>598.5</ele><time>2026-04-18T18:15:39Z</time></trkpt><trkpt lat="46.00328609987249" lon="6.177236738812936"><ele>596.0</ele><time>2026-04-18T18:15:40Z</time></trkpt><trkpt lat="46.00343349157318" lon="6.177598169264711"><ele>595.0</ele><time>2026-04-18T18:15:41Z</time></trkpt><trkpt lat="46.00358053784545" lon="6.177955197019494"><ele>594.0</ele><time>2026-04-18T18:15:42Z</time></trkpt><trkpt lat="46.003728667450964" lon="6.178312718608069"><ele>590.5</ele><time>2026-04-18T18:15:43Z</time></trkpt><trkpt lat="46.003877698583025" lon="6.178670602128567"><ele>587.0</ele><time>2026-04-18T18:15:44Z</time></trkpt><trkpt lat="46.00402515085491" lon="6.179026416305808"><ele>590.0</ele><time>2026-04-18T18:15:45Z</time></trkpt><trkpt lat="46.004171450571825" lon="6.1793797388966265"><ele>593.0</ele><time>2026-04-18T18:15:46Z</time></trkpt><trkpt lat="46.00431539224889" lon="6.179735385686371"><ele>590.0</ele><time>2026-04-18T18:15:47Z</time></trkpt><trkpt lat="46.00446211149434" lon="6.1800903074341615"><ele>587.0</ele><time>2026-04-18T18:15:48Z</time></trkpt><trkpt lat="46.00461374738904" lon="6.180445244511204"><ele>585.5</ele><time>2026-04-18T18:15:49Z</time></trkpt><trkpt lat="46.00477215940521" lon="6.180803703811991"><ele>584.0</ele><time>2026-04-18T18:15:50Z</time></trkpt><trkpt lat="46.00493662155191" lon="6.18116153510884"><ele>588.5</ele><time>2026-04-18T18:15:51Z</time></trkpt><trkpt lat="46.00510658126839" lon="6.181521588066347"><ele>593.0</ele><time>2026-04-18T18:15:52Z</time></trkpt><trkpt lat="46.00528042352481" lon="6.181886147374576"><ele>593.0</ele><time>2026-04-18T18:15:53Z</time></trkpt><trkpt lat="46.00546333071711" lon="6.1822612033179505"><ele>593.0</ele><time>2026-04-18T18:15:54Z</time></trkpt><trkpt lat="46.005668174217575" lon="6.1826304253046365"><ele>596.5</ele><time>2026-04-18T18:15:55Z</time></trkpt><trkpt lat="46.005883392521405" lon="6.183008192131779"><ele>600.0</ele><time>2026-04-18T18:15:56Z</time></trkpt><trkpt lat="46.00611203411338" lon="6.1833895626944315"><ele>600.0</ele><time>2026-04-18T18:15:57Z</time></trkpt><trkpt lat="46.00634780607874" lon="6.183782137599175"><ele>600.0</ele><time>2026-04-18T18:15:58Z</time></trkpt><trkpt lat="46.00659246877185" lon="6.184182259264953"><ele>600.5</ele><time>2026-04-18T18:15:59Z</time></trkpt><trkpt lat="46.00684592726592" lon="6.184577407003615"><ele>601.0</ele><time>2026-04-18T18:16:00Z</time></trkpt><trkpt lat="46.00710959158302" lon="6.184974300342502"><ele>598.0</ele><time>2026-04-18T18:16:01Z</time></trkpt><trkpt lat="46.007383130006104" lon="6.185366370497276"><ele>595.0</ele><time>2026-04-18T18:16:02Z</time></trkpt><trkpt lat="46.007659316990754" lon="6.185759437766455"><ele>595.0</ele><time>2026-04-18T18:16:03Z</time></trkpt><trkpt lat="46.007932036070365" lon="6.186148107084742"><ele>595.0</ele><time>2026-04-18T18:16:04Z</time></trkpt><trkpt lat="46.0081962820606" lon="6.18652779134705"><ele>600.0</ele><time>2026-04-18T18:16:05Z</time></trkpt><trkpt lat="46.008453928214784" lon="6.186895044098954"><ele>605.0</ele><time>2026-04-18T18:16:06Z</time></trkpt><trkpt lat="46.008704992732966" lon="6.187258006008107"><ele>608.0</ele><time>2026-04-18T18:16:07Z</time></trkpt><trkpt lat="46.008945120766924" lon="6.187624878708506"><ele>611.0</ele><time>2026-04-18T18:16:08Z</time></trkpt><trkpt lat="46.009172179049756" lon="6.187993670391847"><ele>614.0</ele><time>2026-04-18T18:16:09Z</time></trkpt><trkpt lat="46.00938528511547" lon="6.188373931969593"><ele>617.0</ele><time>2026-04-18T18:16:10Z</time></trkpt><trkpt lat="46.00958786912181" lon="6.188762552894721"><ele>618.0</ele><time>2026-04-18T18:16:11Z</time></trkpt><trkpt lat="46.00978218595224" lon="6.189169443138413"><ele>619.0</ele><time>2026-04-18T18:16:12Z</time></trkpt><trkpt lat="46.00996426799192" lon="6.189587488864914"><ele>620.0</ele><time>2026-04-18T18:16:13Z</time></trkpt><trkpt lat="46.010135663753466" lon="6.19000688253189"><ele>621.0</ele><time>2026-04-18T18:16:14Z</time></trkpt><trkpt lat="46.01029138445505" lon="6.190425482142085"><ele>621.5</ele><time>2026-04-18T18:16:15Z</time></trkpt><trkpt lat="46.01043299896647" lon="6.190840980348301"><ele>622.0</ele><time>2026-04-18T18:16:16Z</time></trkpt><trkpt lat="46.01056181635169" lon="6.1912572066940585"><ele>622.5</ele><time>2026-04-18T18:16:17Z</time></trkpt><trkpt lat="46.01068971330162" lon="6.191679202941892"><ele>623.0</ele><time>2026-04-18T18:16:18Z</time></trkpt><trkpt lat="46.01080931416951" lon="6.192103511352128"><ele>623.0</ele><time>2026-04-18T18:16:19Z</time></trkpt><trkpt lat="46.010916062750944" lon="6.192534045338245"><ele>623.0</ele><time>2026-04-18T18:16:20Z</time></trkpt><trkpt lat="46.01101377887724" lon="6.1929695899234884"><ele>623.5</ele><time>2026-04-18T18:16:21Z</time></trkpt><trkpt lat="46.01110106167965" lon="6.1934080342359845"><ele>624.0</ele><time>2026-04-18T18:16:22Z</time></trkpt><trkpt lat="46.01118736148713" lon="6.193848070992713"><ele>628.0</ele><time>2026-04-18T18:16:23Z</time></trkpt><trkpt lat="46.01127620202537" lon="6.194292097951748"><ele>632.0</ele><time>2026-04-18T18:16:24Z</time></trkpt><trkpt lat="46.01136799734657" lon="6.194736145945809"><ele>634.0</ele><time>2026-04-18T18:16:25Z</time></trkpt><trkpt lat="46.01147006854583" lon="6.195185221370003"><ele>636.0</ele><time>2026-04-18T18:16:26Z</time></trkpt><trkpt lat="46.01158293510955" lon="6.195640248698644"><ele>635.5</ele><time>2026-04-18T18:16:27Z</time></trkpt><trkpt lat="46.01170305242494" lon="6.196098517080979"><ele>635.0</ele><time>2026-04-18T18:16:28Z</time></trkpt><trkpt lat="46.01183806923651" lon="6.19654844569558"><ele>635.0</ele><time>2026-04-18T18:16:29Z</time></trkpt><trkpt lat="46.01198765730164" lon="6.196989373906713"><ele>635.0</ele><time>2026-04-18T18:16:30Z</time></trkpt><trkpt lat="46.01215520815368" lon="6.197411674227508"><ele>635.0</ele><time>2026-04-18T18:16:31Z</time></trkpt><trkpt lat="46.012343584307416" lon="6.197821216892483"><ele>635.0</ele><time>2026-04-18T18:16:32Z</time></trkpt><trkpt lat="46.01254875741957" lon="6.1982085593242875"><ele>638.5</ele><time>2026-04-18T18:16:33Z</time></trkpt><trkpt lat="46.012770683773844" lon="6.19857840385515"><ele>642.0</ele><time>2026-04-18T18:16:34Z</time></trkpt><trkpt lat="46.0130095905376" lon="6.198927777955024"><ele>641.5</ele><time>2026-04-18T18:16:35Z</time></trkpt><trkpt lat="46.01326180741151" lon="6.199262429065268"><ele>641.0</ele><time>2026-04-18T18:16:36Z</time></trkpt><trkpt lat="46.013530332607424" lon="6.199569740437346"><ele>647.0</ele><time>2026-04-18T18:16:37Z</time></trkpt><trkpt lat="46.013817477040725" lon="6.1998585713802115"><ele>653.0</ele><time>2026-04-18T18:16:38Z</time></trkpt><trkpt lat="46.01412180162967" lon="6.200123195257263"><ele>653.5</ele><time>2026-04-18T18:16:39Z</time></trkpt><trkpt lat="46.01444033136068" lon="6.2003540782481394"><ele>654.0</ele><time>2026-04-18T18:16:40Z</time></trkpt><trkpt lat="46.01477227521784" lon="6.200553300342381"><ele>653.0</ele><time>2026-04-18T18:16:41Z</time></trkpt><trkpt lat="46.01511299997505" lon="6.200743320478654"><ele>652.0</ele><time>2026-04-18T18:16:42Z</time></trkpt><trkpt lat="46.01545957424536" lon="6.200918282956097"><ele>652.0</ele><time>2026-04-18T18:16:43Z</time></trkpt><trkpt lat="46.01580539470908" lon="6.201086641251233"><ele>652.0</ele><time>2026-04-18T18:16:44Z</time></trkpt><trkpt lat="46.01615081798692" lon="6.20125513845794"><ele>652.5</ele><time>2026-04-18T18:16:45Z</time></trkpt><trkpt lat="46.01649413128939" lon="6.201426310559909"><ele>653.0</ele><time>2026-04-18T18:16:46Z</time></trkpt><trkpt lat="46.01683572477213" lon="6.201620616133572"><ele>653.0</ele><time>2026-04-18T18:16:47Z</time></trkpt><trkpt lat="46.017170779089994" lon="6.201833364085074"><ele>653.0</ele><time>2026-04-18T18:16:48Z</time></trkpt><trkpt lat="46.0174946265746" lon="6.202064805341446"><ele>655.0</ele><time>2026-04-18T18:16:49Z</time></trkpt><trkpt lat="46.017806920587155" lon="6.202302980472581"><ele>657.0</ele><time>2026-04-18T18:16:50Z</time></trkpt><trkpt lat="46.01809732963016" lon="6.2025568050863535"><ele>660.5</ele><time>2026-04-18T18:16:51Z</time></trkpt><trkpt lat="46.01836196015279" lon="6.202805539651452"><ele>664.0</ele><time>2026-04-18T18:16:52Z</time></trkpt><trkpt lat="46.018615461739536" lon="6.203067044630557"><ele>662.5</ele><time>2026-04-18T18:16:53Z</time></trkpt><trkpt lat="46.0188637067248" lon="6.203348137203063"><ele>661.0</ele><time>2026-04-18T18:16:54Z</time></trkpt><trkpt lat="46.01910823728218" lon="6.203649409997633"><ele>664.0</ele><time>2026-04-18T18:16:55Z</time></trkpt><trkpt lat="46.01934503677901" lon="6.203966813470442"><ele>667.0</ele><time>2026-04-18T18:16:56Z</time></trkpt><trkpt lat="46.019577481228495" lon="6.204290190460401"><ele>667.0</ele><time>2026-04-18T18:16:57Z</time></trkpt><trkpt lat="46.01980498625285" lon="6.204616473889435"><ele>667.0</ele><time>2026-04-18T18:16:58Z</time></trkpt><trkpt lat="46.020032895438455" lon="6.204942816335115"><ele>670.0</ele><time>2026-04-18T18:16:58.999Z</time></trkpt><trkpt lat="46.02026149918469" lon="6.205270101125159"><ele>673.0</ele><time>2026-04-18T18:16:59.999Z</time></trkpt><trkpt lat="46.02048953220001" lon="6.205603643809239"><ele>673.5</ele><time>2026-04-18T18:17:00.999Z</time></trkpt><trkpt lat="46.02071905236139" lon="6.205945490336772"><ele>674.0</ele><time>2026-04-18T18:17:01.999Z</time></trkpt><trkpt lat="46.02094437280602" lon="6.206292557795821"><ele>676.5</ele><time>2026-04-18T18:17:02.999Z</time></trkpt><trkpt lat="46.0211646164934" lon="6.20664620684304"><ele>679.0</ele><time>2026-04-18T18:17:03.999Z</time></trkpt><trkpt lat="46.02137949717764" lon="6.207013409167191"><ele>679.5</ele><time>2026-04-18T18:17:04.999Z</time></trkpt><trkpt lat="46.02158230832162" lon="6.207400326019936"><ele>680.0</ele><time>2026-04-18T18:17:05.999Z</time></trkpt><trkpt lat="46.02177279106818" lon="6.207796987580045"><ele>682.0</ele><time>2026-04-18T18:17:06.999Z</time></trkpt><trkpt lat="46.02194616005433" lon="6.208213514968032"><ele>684.0</ele><time>2026-04-18T18:17:07.999Z</time></trkpt><trkpt lat="46.02210349003047" lon="6.208645988172805"><ele>684.0</ele><time>2026-04-18T18:17:08.999Z</time></trkpt><trkpt lat="46.02224634810866" lon="6.2090883843424995"><ele>684.0</ele><time>2026-04-18T18:17:09.999Z</time></trkpt><trkpt lat="46.02238014365611" lon="6.2095447585215116"><ele>682.5</ele><time>2026-04-18T18:17:10.999Z</time></trkpt><trkpt lat="46.02250828983799" lon="6.209998302452759"><ele>681.0</ele><time>2026-04-18T18:17:11.999Z</time></trkpt><trkpt lat="46.022636397720504" lon="6.210458737209027"><ele>671.0</ele><time>2026-04-18T18:17:12.999Z</time></trkpt><trkpt lat="46.0227606915841" lon="6.210905760491032"><ele>661.0</ele><time>2026-04-18T18:17:13.999Z</time></trkpt><trkpt lat="46.022886362414134" lon="6.211350095007918"><ele>663.0</ele><time>2026-04-18T18:17:14.999Z</time></trkpt><trkpt lat="46.023015943433634" lon="6.211783035194227"><ele>665.0</ele><time>2026-04-18T18:17:15.999Z</time></trkpt><trkpt lat="46.023149010807956" lon="6.212207145914381"><ele>669.5</ele><time>2026-04-18T18:17:16.999Z</time></trkpt><trkpt lat="46.02327661405199" lon="6.212632963912736"><ele>674.0</ele><time>2026-04-18T18:17:17.999Z</time></trkpt><trkpt lat="46.02339684649072" lon="6.2130568703354445"><ele>679.5</ele><time>2026-04-18T18:17:18.999Z</time></trkpt><trkpt lat="46.02351482554183" lon="6.213471365638696"><ele>685.0</ele><time>2026-04-18T18:17:19.999Z</time></trkpt><trkpt lat="46.02362869953589" lon="6.213888691833573"><ele>684.5</ele><time>2026-04-18T18:17:20.999Z</time></trkpt><trkpt lat="46.023738651794105" lon="6.214309423228833"><ele>684.0</ele><time>2026-04-18T18:17:21.999Z</time></trkpt><trkpt lat="46.02384217072713" lon="6.214732712796517"><ele>685.0</ele><time>2026-04-18T18:17:22.999Z</time></trkpt><trkpt lat="46.023934877255684" lon="6.215167293535727"><ele>686.0</ele><time>2026-04-18T18:17:23.999Z</time></trkpt><trkpt lat="46.02402327621874" lon="6.215617518245705"><ele>688.0</ele><time>2026-04-18T18:17:24.999Z</time></trkpt><trkpt lat="46.02410252371249" lon="6.216080731485833"><ele>690.0</ele><time>2026-04-18T18:17:25.999Z</time></trkpt><trkpt lat="46.02416394612915" lon="6.216556999937456"><ele>691.5</ele><time>2026-04-18T18:17:26.999Z</time></trkpt><trkpt lat="46.02420579218047" lon="6.217043796461152"><ele>693.0</ele><time>2026-04-18T18:17:27.999Z</time></trkpt><trkpt lat="46.024235268209026" lon="6.2175418818352925"><ele>693.0</ele><time>2026-04-18T18:17:28.999Z</time></trkpt><trkpt lat="46.02425645926839" lon="6.218044739428919"><ele>693.0</ele><time>2026-04-18T18:17:29.999Z</time></trkpt><trkpt lat="46.024274630613064" lon="6.218544381362309"><ele>694.0</ele><time>2026-04-18T18:17:30.999Z</time></trkpt><trkpt lat="46.0242979559067" lon="6.219013973106121"><ele>695.0</ele><time>2026-04-18T18:17:31.999Z</time></trkpt><trkpt lat="46.02432531648642" lon="6.219460946845786"><ele>695.5</ele><time>2026-04-18T18:17:33.001Z</time></trkpt><trkpt lat="46.024351098381324" lon="6.219914399817422"><ele>696.0</ele><time>2026-04-18T18:17:34.001Z</time></trkpt><trkpt lat="46.02437750025828" lon="6.220372776458981"><ele>694.5</ele><time>2026-04-18T18:17:35.001Z</time></trkpt><trkpt lat="46.02440471227407" lon="6.22083599712078"><ele>693.0</ele><time>2026-04-18T18:17:36.001Z</time></trkpt><trkpt lat="46.024431915242815" lon="6.2213052668594155"><ele>691.5</ele><time>2026-04-18T18:17:37.001Z</time></trkpt><trkpt lat="46.02445899334769" lon="6.221789217169033"><ele>690.0</ele><time>2026-04-18T18:17:38.001Z</time></trkpt><trkpt lat="46.024488406094086" lon="6.222280130079284"><ele>689.0</ele><time>2026-04-18T18:17:39.001Z</time></trkpt><trkpt lat="46.02451999654544" lon="6.222773660956084"><ele>688.0</ele><time>2026-04-18T18:17:40.001Z</time></trkpt><trkpt lat="46.02455257886802" lon="6.223271551633898"><ele>688.5</ele><time>2026-04-18T18:17:41.001Z</time></trkpt><trkpt lat="46.024581415419256" lon="6.223761622678668"><ele>689.0</ele><time>2026-04-18T18:17:42.001Z</time></trkpt><trkpt lat="46.02460937875902" lon="6.224245278737696"><ele>689.0</ele><time>2026-04-18T18:17:43.001Z</time></trkpt><trkpt lat="46.02464400019328" lon="6.224719581994164"><ele>689.0</ele><time>2026-04-18T18:17:44.001Z</time></trkpt><trkpt lat="46.024689608355" lon="6.225187045275697"><ele>689.0</ele><time>2026-04-18T18:17:45.001Z</time></trkpt><trkpt lat="46.024757506746326" lon="6.225644636485082"><ele>689.0</ele><time>2026-04-18T18:17:46.001Z</time></trkpt><trkpt lat="46.02484834612516" lon="6.22608951922494"><ele>691.0</ele><time>2026-04-18T18:17:47Z</time></trkpt><trkpt lat="46.0249634258165" lon="6.2265143570762"><ele>693.0</ele><time>2026-04-18T18:17:48Z</time></trkpt><trkpt lat="46.025098293022275" lon="6.2269266568689305"><ele>697.5</ele><time>2026-04-18T18:17:49Z</time></trkpt><trkpt lat="46.02525238862224" lon="6.227330524021385"><ele>702.0</ele><time>2026-04-18T18:17:50Z</time></trkpt><trkpt lat="46.02542303508776" lon="6.227719956726696"><ele>702.0</ele><time>2026-04-18T18:17:51Z</time></trkpt><trkpt lat="46.02561046968578" lon="6.228096636938902"><ele>702.0</ele><time>2026-04-18T18:17:52Z</time></trkpt><trkpt lat="46.0258206894844" lon="6.228447582074831"><ele>705.5</ele><time>2026-04-18T18:17:53Z</time></trkpt><trkpt lat="46.02604426124028" lon="6.228777486627908"><ele>709.0</ele><time>2026-04-18T18:17:54Z</time></trkpt><trkpt lat="46.02628539837372" lon="6.22908584334033"><ele>709.0</ele><time>2026-04-18T18:17:55Z</time></trkpt><trkpt lat="46.026526046496926" lon="6.2293977074891815"><ele>709.0</ele><time>2026-04-18T18:17:56Z</time></trkpt><trkpt lat="46.02680537988404" lon="6.22965724146044"><ele>708.5</ele><time>2026-04-18T18:17:57Z</time></trkpt><trkpt lat="46.02708097586034" lon="6.229930684927188"><ele>708.0</ele><time>2026-04-18T18:17:58Z</time></trkpt><trkpt lat="46.027360638153375" lon="6.230212699052491"><ele>707.5</ele><time>2026-04-18T18:17:59Z</time></trkpt><trkpt lat="46.02764290876507" lon="6.230503738705034"><ele>707.0</ele><time>2026-04-18T18:18:00Z</time></trkpt><trkpt lat="46.02793042509509" lon="6.230803996489701"><ele>707.0</ele><time>2026-04-18T18:18:01Z</time></trkpt><trkpt lat="46.028216638434685" lon="6.231108425699512"><ele>707.0</ele><time>2026-04-18T18:18:02Z</time></trkpt><trkpt lat="46.02850466333595" lon="6.231410974138996"><ele>710.0</ele><time>2026-04-18T18:18:03Z</time></trkpt><trkpt lat="46.02879448648876" lon="6.231710364911578"><ele>713.0</ele><time>2026-04-18T18:18:04Z</time></trkpt><trkpt lat="46.02909465868266" lon="6.232003364556733"><ele>713.0</ele><time>2026-04-18T18:18:05Z</time></trkpt><trkpt lat="46.02940082762475" lon="6.232301683358675"><ele>713.0</ele><time>2026-04-18T18:18:06Z</time></trkpt><trkpt lat="46.02970682697357" lon="6.232607799975187"><ele>715.0</ele><time>2026-04-18T18:18:07Z</time></trkpt><trkpt lat="46.03001392803821" lon="6.232905076962683"><ele>717.0</ele><time>2026-04-18T18:18:08Z</time></trkpt><trkpt lat="46.03032925529034" lon="6.233186361984668"><ele>717.0</ele><time>2026-04-18T18:18:09Z</time></trkpt><trkpt lat="46.0306525479581" lon="6.233456733767745"><ele>717.0</ele><time>2026-04-18T18:18:10Z</time></trkpt><trkpt lat="46.030976154596935" lon="6.233722119330162"><ele>717.5</ele><time>2026-04-18T18:18:11Z</time></trkpt><trkpt lat="46.03129996782243" lon="6.2339857118579"><ele>718.0</ele><time>2026-04-18T18:18:12Z</time></trkpt><trkpt lat="46.031621437112996" lon="6.234244382075924"><ele>723.5</ele><time>2026-04-18T18:18:13Z</time></trkpt><trkpt lat="46.03193424545731" lon="6.234496804633665"><ele>729.0</ele><time>2026-04-18T18:18:14Z</time></trkpt><trkpt lat="46.032242581455286" lon="6.234744737510419"><ele>726.0</ele><time>2026-04-18T18:18:15Z</time></trkpt><trkpt lat="46.03253666071021" lon="6.2349943282060485"><ele>723.0</ele><time>2026-04-18T18:18:16Z</time></trkpt><trkpt lat="46.03281017643375" lon="6.235247947689761"><ele>723.0</ele><time>2026-04-18T18:18:17Z</time></trkpt><trkpt lat="46.03307935398705" lon="6.235508596503482"><ele>723.0</ele><time>2026-04-18T18:18:18Z</time></trkpt><trkpt lat="46.03334059920923" lon="6.235785969599282"><ele>725.0</ele><time>2026-04-18T18:18:19Z</time></trkpt><trkpt lat="46.033594410249336" lon="6.236080162792823"><ele>727.0</ele><time>2026-04-18T18:18:20Z</time></trkpt><trkpt lat="46.033836262020095" lon="6.236391824276139"><ele>729.0</ele><time>2026-04-18T18:18:21Z</time></trkpt><trkpt lat="46.03407358798974" lon="6.2367190549456515"><ele>731.0</ele><time>2026-04-18T18:18:22Z</time></trkpt><trkpt lat="46.03431237471012" lon="6.237061756145144"><ele>735.5</ele><time>2026-04-18T18:18:23Z</time></trkpt><trkpt lat="46.03455460687543" lon="6.2374183158162175"><ele>740.0</ele><time>2026-04-18T18:18:24Z</time></trkpt><trkpt lat="46.0347999328152" lon="6.237777612601572"><ele>742.0</ele><time>2026-04-18T18:18:25Z</time></trkpt><trkpt lat="46.03505276790733" lon="6.238141159388666"><ele>744.0</ele><time>2026-04-18T18:18:26Z</time></trkpt><trkpt lat="46.0353171606231" lon="6.238495873539954"><ele>744.0</ele><time>2026-04-18T18:18:27Z</time></trkpt><trkpt lat="46.0355934755375" lon="6.238843707048918"><ele>744.0</ele><time>2026-04-18T18:18:28Z</time></trkpt><trkpt lat="46.035872821228544" lon="6.239190654346851"><ele>746.5</ele><time>2026-04-18T18:18:29Z</time></trkpt><trkpt lat="46.036155375592365" lon="6.2395323986245534"><ele>749.0</ele><time>2026-04-18T18:18:30Z</time></trkpt><trkpt lat="46.03643825418072" lon="6.2398679593501525"><ele>754.0</ele><time>2026-04-18T18:18:31Z</time></trkpt><trkpt lat="46.036717406605035" lon="6.2401889493001015"><ele>759.0</ele><time>2026-04-18T18:18:32Z</time></trkpt><trkpt lat="46.03698697622565" lon="6.240506363821614"><ele>761.0</ele><time>2026-04-18T18:18:33Z</time></trkpt><trkpt lat="46.037244678552014" lon="6.2408186436057695"><ele>763.0</ele><time>2026-04-18T18:18:34Z</time></trkpt><trkpt lat="46.037491380014906" lon="6.241127782957416"><ele>764.0</ele><time>2026-04-18T18:18:35Z</time></trkpt><trkpt lat="46.03771987543573" lon="6.241435881107156"><ele>765.0</ele><time>2026-04-18T18:18:36Z</time></trkpt><trkpt lat="46.03792534790764" lon="6.241742197618917"><ele>765.5</ele><time>2026-04-18T18:18:37Z</time></trkpt><trkpt lat="46.03812609901709" lon="6.242056159026864"><ele>766.0</ele><time>2026-04-18T18:18:38Z</time></trkpt><trkpt lat="46.038316735321494" lon="6.24238077840016"><ele>769.0</ele><time>2026-04-18T18:18:39Z</time></trkpt><trkpt lat="46.0385006332527" lon="6.242719383228104"><ele>772.0</ele><time>2026-04-18T18:18:40Z</time></trkpt><trkpt lat="46.03867779460178" lon="6.2430725884327485"><ele>775.5</ele><time>2026-04-18T18:18:41Z</time></trkpt><trkpt lat="46.03885096063183" lon="6.24343619770932"><ele>779.0</ele><time>2026-04-18T18:18:42Z</time></trkpt><trkpt lat="46.03901551222321" lon="6.243813786361792"><ele>779.0</ele><time>2026-04-18T18:18:43Z</time></trkpt><trkpt lat="46.03917053622364" lon="6.244201578978347"><ele>779.0</ele><time>2026-04-18T18:18:44Z</time></trkpt><trkpt lat="46.039320394591215" lon="6.244596448621417"><ele>781.5</ele><time>2026-04-18T18:18:45Z</time></trkpt><trkpt lat="46.03947148941589" lon="6.24499570704731"><ele>784.0</ele><time>2026-04-18T18:18:46Z</time></trkpt><trkpt lat="46.039618029867434" lon="6.245398171518158"><ele>786.0</ele><time>2026-04-18T18:18:47Z</time></trkpt><trkpt lat="46.0397585042182" lon="6.245806137743326"><ele>788.0</ele><time>2026-04-18T18:18:48Z</time></trkpt><trkpt lat="46.03989738496497" lon="6.246218111341462"><ele>787.5</ele><time>2026-04-18T18:18:49Z</time></trkpt><trkpt lat="46.04003212988755" lon="6.246622453183527"><ele>787.0</ele><time>2026-04-18T18:18:50Z</time></trkpt><trkpt lat="46.040163346830624" lon="6.247018014351442"><ele>790.0</ele><time>2026-04-18T18:18:51Z</time></trkpt><trkpt lat="46.040292844022744" lon="6.247407562669835"><ele>793.0</ele><time>2026-04-18T18:18:52Z</time></trkpt><trkpt lat="46.04042161772949" lon="6.247795874570279"><ele>797.0</ele><time>2026-04-18T18:18:53Z</time></trkpt><trkpt lat="46.04055202592294" lon="6.248184469137779"><ele>801.0</ele><time>2026-04-18T18:18:54Z</time></trkpt><trkpt lat="46.040682976663724" lon="6.248580016781789"><ele>795.5</ele><time>2026-04-18T18:18:55Z</time></trkpt><trkpt lat="46.04081312323542" lon="6.248980636875492"><ele>790.0</ele><time>2026-04-18T18:18:56Z</time></trkpt><trkpt lat="46.04094600142104" lon="6.249388981727319"><ele>794.0</ele><time>2026-04-18T18:18:57Z</time></trkpt><trkpt lat="46.041086112829866" lon="6.249801101569081"><ele>798.0</ele><time>2026-04-18T18:18:58Z</time></trkpt><trkpt lat="46.041224674975545" lon="6.250211355743187"><ele>805.5</ele><time>2026-04-18T18:18:59Z</time></trkpt><trkpt lat="46.041360770675965" lon="6.250629556238209"><ele>813.0</ele><time>2026-04-18T18:19:00Z</time></trkpt><trkpt lat="46.04150179490296" lon="6.251047183211523"><ele>810.5</ele><time>2026-04-18T18:19:01Z</time></trkpt><trkpt lat="46.04164305083605" lon="6.251474611525587"><ele>808.0</ele><time>2026-04-18T18:19:02Z</time></trkpt><trkpt lat="46.04178598280305" lon="6.251900045523502"><ele>807.0</ele><time>2026-04-18T18:19:03Z</time></trkpt><trkpt lat="46.04192873810987" lon="6.252327953898967"><ele>806.0</ele><time>2026-04-18T18:19:04Z</time></trkpt><trkpt lat="46.042076864414575" lon="6.252760782873493"><ele>806.0</ele><time>2026-04-18T18:19:05Z</time></trkpt><trkpt lat="46.042225156971654" lon="6.2531989318205605"><ele>806.0</ele><time>2026-04-18T18:19:06Z</time></trkpt><trkpt lat="46.042373620895674" lon="6.253645724068306"><ele>803.5</ele><time>2026-04-18T18:19:07Z</time></trkpt><trkpt lat="46.04252141171241" lon="6.254101663017201"><ele>801.0</ele><time>2026-04-18T18:19:08Z</time></trkpt><trkpt lat="46.04267514315829" lon="6.254564065627389"><ele>801.0</ele><time>2026-04-18T18:19:09Z</time></trkpt><trkpt lat="46.04282725935968" lon="6.255031560950846"><ele>801.0</ele><time>2026-04-18T18:19:10Z</time></trkpt><trkpt lat="46.04298799677939" lon="6.2554959750637815"><ele>801.0</ele><time>2026-04-18T18:19:10.999Z</time></trkpt><trkpt lat="46.043163174599805" lon="6.2559544554479745"><ele>801.0</ele><time>2026-04-18T18:19:11.999Z</time></trkpt><trkpt lat="46.0433428111559" lon="6.256399213556973"><ele>802.0</ele><time>2026-04-18T18:19:12.999Z</time></trkpt><trkpt lat="46.04352559948591" lon="6.2568192823494675"><ele>803.0</ele><time>2026-04-18T18:19:13.999Z</time></trkpt><trkpt lat="46.04370887814627" lon="6.257216167579296"><ele>802.5</ele><time>2026-04-18T18:19:14.999Z</time></trkpt><trkpt lat="46.04389445067969" lon="6.257599433104902"><ele>802.0</ele><time>2026-04-18T18:19:15.999Z</time></trkpt><trkpt lat="46.04409032449098" lon="6.257977406103812"><ele>802.0</ele><time>2026-04-18T18:19:16.999Z</time></trkpt><trkpt lat="46.04429314093841" lon="6.258356539552536"><ele>802.0</ele><time>2026-04-18T18:19:17.999Z</time></trkpt><trkpt lat="46.044505344471574" lon="6.258742149296624"><ele>803.0</ele><time>2026-04-18T18:19:18.999Z</time></trkpt><trkpt lat="46.04472108139971" lon="6.259130548695194"><ele>804.0</ele><time>2026-04-18T18:19:19.999Z</time></trkpt><trkpt lat="46.04493912695207" lon="6.259518807429201"><ele>802.5</ele><time>2026-04-18T18:19:20.999Z</time></trkpt><trkpt lat="46.04516522844328" lon="6.259906491974464"><ele>801.0</ele><time>2026-04-18T18:19:21.999Z</time></trkpt><trkpt lat="46.04538599682855" lon="6.260289130650792"><ele>802.5</ele><time>2026-04-18T18:19:22.999Z</time></trkpt><trkpt lat="46.04559824862095" lon="6.260670532754187"><ele>804.0</ele><time>2026-04-18T18:19:23.999Z</time></trkpt><trkpt lat="46.045793112546804" lon="6.261040097945741"><ele>801.5</ele><time>2026-04-18T18:19:24.999Z</time></trkpt><trkpt lat="46.04597889293096" lon="6.261409391849063"><ele>799.0</ele><time>2026-04-18T18:19:25.999Z</time></trkpt><trkpt lat="46.046149930815524" lon="6.261783074455363"><ele>798.5</ele><time>2026-04-18T18:19:26.999Z</time></trkpt><trkpt lat="46.04631477088922" lon="6.262178527905051"><ele>798.0</ele><time>2026-04-18T18:19:27.999Z</time></trkpt><trkpt lat="46.046465522477575" lon="6.262585452415616"><ele>799.0</ele><time>2026-04-18T18:19:28.999Z</time></trkpt><trkpt lat="46.0466000382312" lon="6.263004155601476"><ele>800.0</ele><time>2026-04-18T18:19:29.999Z</time></trkpt><trkpt lat="46.046721833964476" lon="6.263434028770264"><ele>797.5</ele><time>2026-04-18T18:19:30.999Z</time></trkpt><trkpt lat="46.04682944596249" lon="6.263875021324584"><ele>795.0</ele><time>2026-04-18T18:19:31.999Z</time></trkpt><trkpt lat="46.04692039801138" lon="6.264321900481111"><ele>795.5</ele><time>2026-04-18T18:19:32.999Z</time></trkpt><trkpt lat="46.04699489900648" lon="6.264780689260227"><ele>796.0</ele><time>2026-04-18T18:19:33.999Z</time></trkpt><trkpt lat="46.04704569767331" lon="6.265246158728088"><ele>795.0</ele><time>2026-04-18T18:19:34.999Z</time></trkpt><trkpt lat="46.04708469371637" lon="6.265722787817"><ele>794.0</ele><time>2026-04-18T18:19:35.999Z</time></trkpt><trkpt lat="46.04710441609141" lon="6.266211753058689"><ele>793.5</ele><time>2026-04-18T18:19:36.999Z</time></trkpt><trkpt lat="46.047113546080766" lon="6.266704206037793"><ele>793.0</ele><time>2026-04-18T18:19:37.999Z</time></trkpt><trkpt lat="46.04710467860115" lon="6.267210665296686"><ele>793.0</ele><time>2026-04-18T18:19:39.001Z</time></trkpt><trkpt lat="46.04708166103242" lon="6.267723246591432"><ele>793.0</ele><time>2026-04-18T18:19:40.001Z</time></trkpt><trkpt lat="46.04705304148062" lon="6.26824246142989"><ele>793.0</ele><time>2026-04-18T18:19:41.001Z</time></trkpt><trkpt lat="46.04701762948155" lon="6.268771255463658"><ele>793.0</ele><time>2026-04-18T18:19:42.001Z</time></trkpt><trkpt lat="46.04698702264901" lon="6.269298018641172"><ele>786.0</ele><time>2026-04-18T18:19:43.001Z</time></trkpt><trkpt lat="46.04695889613016" lon="6.2698250938147915"><ele>779.0</ele><time>2026-04-18T18:19:44.001Z</time></trkpt><trkpt lat="46.04694115425011" lon="6.27034481457651"><ele>773.0</ele><time>2026-04-18T18:19:45.001Z</time></trkpt><trkpt lat="46.0469343495383" lon="6.270867430539337"><ele>767.0</ele><time>2026-04-18T18:19:46.001Z</time></trkpt><trkpt lat="46.046947834719795" lon="6.27139402619897"><ele>764.5</ele><time>2026-04-18T18:19:47.001Z</time></trkpt><trkpt lat="46.0469687269268" lon="6.271923369619663"><ele>762.0</ele><time>2026-04-18T18:19:48.001Z</time></trkpt><trkpt lat="46.047005026815576" lon="6.272457374431065"><ele>762.0</ele><time>2026-04-18T18:19:49.001Z</time></trkpt><trkpt lat="46.047053107046764" lon="6.27299089528674"><ele>762.0</ele><time>2026-04-18T18:19:50.001Z</time></trkpt><trkpt lat="46.04710681577042" lon="6.2735246602111765"><ele>765.5</ele><time>2026-04-18T18:19:51.001Z</time></trkpt><trkpt lat="46.047166264616365" lon="6.274060118414037"><ele>769.0</ele><time>2026-04-18T18:19:52.001Z</time></trkpt><trkpt lat="46.04723197993543" lon="6.274614929584604"><ele>771.5</ele><time>2026-04-18T18:19:53.001Z</time></trkpt><trkpt lat="46.04729414859951" lon="6.275168865260762"><ele>774.0</ele><time>2026-04-18T18:19:54.001Z</time></trkpt><trkpt lat="46.04735744750843" lon="6.275718552788411"><ele>776.0</ele><time>2026-04-18T18:19:55.001Z</time></trkpt><trkpt lat="46.047422166156636" lon="6.2762599428491"><ele>778.0</ele><time>2026-04-18T18:19:56Z</time></trkpt><trkpt lat="46.047490346227555" lon="6.276804975332072"><ele>770.5</ele><time>2026-04-18T18:19:57Z</time></trkpt><trkpt lat="46.04756520172908" lon="6.277343608861838"><ele>763.0</ele><time>2026-04-18T18:19:58Z</time></trkpt><trkpt lat="46.04765035013624" lon="6.277882711313506"><ele>761.5</ele><time>2026-04-18T18:19:59Z</time></trkpt><trkpt lat="46.047738692775056" lon="6.278411769628426"><ele>760.0</ele><time>2026-04-18T18:20:00Z</time></trkpt><trkpt lat="46.04783215822141" lon="6.278936330809956"><ele>759.5</ele><time>2026-04-18T18:20:01Z</time></trkpt><trkpt lat="46.047933802098605" lon="6.279452434144919"><ele>759.0</ele><time>2026-04-18T18:20:02Z</time></trkpt><trkpt lat="46.048044106674375" lon="6.279964687216471"><ele>758.5</ele><time>2026-04-18T18:20:03Z</time></trkpt><trkpt lat="46.04816381429517" lon="6.2804737614929484"><ele>758.0</ele><time>2026-04-18T18:20:04Z</time></trkpt><trkpt lat="46.04829214060619" lon="6.280984914520836"><ele>753.5</ele><time>2026-04-18T18:20:05Z</time></trkpt><trkpt lat="46.048425222410465" lon="6.281484379014468"><ele>749.0</ele><time>2026-04-18T18:20:06Z</time></trkpt><trkpt lat="46.048562024032734" lon="6.281954192388465"><ele>747.0</ele><time>2026-04-18T18:20:07Z</time></trkpt><trkpt lat="46.04869894263118" lon="6.28240543291183"><ele>745.0</ele><time>2026-04-18T18:20:08Z</time></trkpt><trkpt lat="46.04883723598582" lon="6.282845952368149"><ele>744.0</ele><time>2026-04-18T18:20:09Z</time></trkpt><trkpt lat="46.048974804185825" lon="6.28328112264203"><ele>743.0</ele><time>2026-04-18T18:20:10Z</time></trkpt><trkpt lat="46.04912045948368" lon="6.283709929076192"><ele>739.0</ele><time>2026-04-18T18:20:11Z</time></trkpt><trkpt lat="46.04928100273586" lon="6.284123129155318"><ele>735.0</ele><time>2026-04-18T18:20:12Z</time></trkpt><trkpt lat="46.04945267681656" lon="6.2845317006530745"><ele>735.0</ele><time>2026-04-18T18:20:13Z</time></trkpt><trkpt lat="46.04964238567361" lon="6.284921965660717"><ele>735.0</ele><time>2026-04-18T18:20:14Z</time></trkpt><trkpt lat="46.04984355455548" lon="6.285298211305807"><ele>733.0</ele><time>2026-04-18T18:20:15Z</time></trkpt><trkpt lat="46.05005901203993" lon="6.285657127908054"><ele>731.0</ele><time>2026-04-18T18:20:16Z</time></trkpt><trkpt lat="46.05028437013604" lon="6.285990346921611"><ele>731.0</ele><time>2026-04-18T18:20:17Z</time></trkpt><trkpt lat="46.05051979123979" lon="6.286300355577992"><ele>731.0</ele><time>2026-04-18T18:20:18Z</time></trkpt><trkpt lat="46.050770542158304" lon="6.286588367460932"><ele>730.0</ele><time>2026-04-18T18:20:19Z</time></trkpt><trkpt lat="46.05102828464423" lon="6.286865197066403"><ele>729.0</ele><time>2026-04-18T18:20:20Z</time></trkpt><trkpt lat="46.05129290543748" lon="6.287120094927335"><ele>727.5</ele><time>2026-04-18T18:20:21Z</time></trkpt><trkpt lat="46.051559757532885" lon="6.28735019825579"><ele>726.0</ele><time>2026-04-18T18:20:22Z</time></trkpt><trkpt lat="46.05182549278097" lon="6.28755921586633"><ele>726.0</ele><time>2026-04-18T18:20:23Z</time></trkpt><trkpt lat="46.05209861158278" lon="6.287759349136199"><ele>726.0</ele><time>2026-04-18T18:20:24Z</time></trkpt><trkpt lat="46.052384981240664" lon="6.287947981923348"><ele>723.0</ele><time>2026-04-18T18:20:25Z</time></trkpt><trkpt lat="46.05267293843833" lon="6.288130527734341"><ele>720.0</ele><time>2026-04-18T18:20:26Z</time></trkpt><trkpt lat="46.05296451245722" lon="6.2883116779304995"><ele>720.0</ele><time>2026-04-18T18:20:27Z</time></trkpt><trkpt lat="46.053255740531824" lon="6.288493819663661"><ele>720.0</ele><time>2026-04-18T18:20:28Z</time></trkpt><trkpt lat="46.05355188971194" lon="6.288675488224545"><ele>719.0</ele><time>2026-04-18T18:20:29Z</time></trkpt><trkpt lat="46.053847648712946" lon="6.2888601053081725"><ele>718.0</ele><time>2026-04-18T18:20:30Z</time></trkpt><trkpt lat="46.05414565178021" lon="6.289041927620786"><ele>713.5</ele><time>2026-04-18T18:20:31Z</time></trkpt><trkpt lat="46.05444261485572" lon="6.28922437677438"><ele>709.0</ele><time>2026-04-18T18:20:32Z</time></trkpt><trkpt lat="46.054742390649416" lon="6.289406085110186"><ele>705.0</ele><time>2026-04-18T18:20:33Z</time></trkpt><trkpt lat="46.05504222816218" lon="6.28958881369165"><ele>701.0</ele><time>2026-04-18T18:20:34Z</time></trkpt><trkpt lat="46.055344196786166" lon="6.2897738624489055"><ele>701.5</ele><time>2026-04-18T18:20:35Z</time></trkpt><trkpt lat="46.05563719759245" lon="6.289958143853935"><ele>702.0</ele><time>2026-04-18T18:20:36Z</time></trkpt><trkpt lat="46.055917077261164" lon="6.290135973044581"><ele>702.0</ele><time>2026-04-18T18:20:37Z</time></trkpt><trkpt lat="46.05619355760675" lon="6.290307487937162"><ele>702.0</ele><time>2026-04-18T18:20:38Z</time></trkpt><trkpt lat="46.05646330327694" lon="6.290470569910456"><ele>700.5</ele><time>2026-04-18T18:20:39Z</time></trkpt><trkpt lat="46.05673846384514" lon="6.290639450449096"><ele>699.0</ele><time>2026-04-18T18:20:40Z</time></trkpt><trkpt lat="46.057018298531325" lon="6.290809914617556"><ele>699.0</ele><time>2026-04-18T18:20:41Z</time></trkpt><trkpt lat="46.05729863028088" lon="6.2909822879397"><ele>699.0</ele><time>2026-04-18T18:20:42Z</time></trkpt><trkpt lat="46.0575783844718" lon="6.291155765610631"><ele>700.0</ele><time>2026-04-18T18:20:43Z</time></trkpt><trkpt lat="46.05785759221649" lon="6.291325899112636"><ele>701.0</ele><time>2026-04-18T18:20:44Z</time></trkpt><trkpt lat="46.05813056458963" lon="6.29148082857273"><ele>697.0</ele><time>2026-04-18T18:20:45Z</time></trkpt><trkpt lat="46.05840565467392" lon="6.291613509110435"><ele>693.0</ele><time>2026-04-18T18:20:46Z</time></trkpt><trkpt lat="46.058686787462264" lon="6.2917361228387465"><ele>693.0</ele><time>2026-04-18T18:20:47Z</time></trkpt><trkpt lat="46.05897028003586" lon="6.291845003342686"><ele>693.0</ele><time>2026-04-18T18:20:48Z</time></trkpt><trkpt lat="46.05925022593366" lon="6.2919318780493665"><ele>692.5</ele><time>2026-04-18T18:20:49Z</time></trkpt><trkpt lat="46.059522450596226" lon="6.291999244239181"><ele>692.0</ele><time>2026-04-18T18:20:50Z</time></trkpt><trkpt lat="46.059796387747234" lon="6.29205300952589"><ele>690.0</ele><time>2026-04-18T18:20:51Z</time></trkpt><trkpt lat="46.060080815215805" lon="6.292084095887685"><ele>688.0</ele><time>2026-04-18T18:20:52Z</time></trkpt><trkpt lat="46.06037168718125" lon="6.29209305673821"><ele>688.0</ele><time>2026-04-18T18:20:53Z</time></trkpt><trkpt lat="46.06066117043678" lon="6.292085814092051"><ele>688.0</ele><time>2026-04-18T18:20:54Z</time></trkpt><trkpt lat="46.06093320946951" lon="6.29205735464428"><ele>687.0</ele><time>2026-04-18T18:20:55Z</time></trkpt><trkpt lat="46.061197401344764" lon="6.292013303075963"><ele>686.0</ele><time>2026-04-18T18:20:56Z</time></trkpt><trkpt lat="46.06145230977551" lon="6.291952360923814"><ele>683.0</ele><time>2026-04-18T18:20:57Z</time></trkpt><trkpt lat="46.061714169627805" lon="6.2918719010325805"><ele>680.0</ele><time>2026-04-18T18:20:58Z</time></trkpt><trkpt lat="46.061980304456625" lon="6.291775286911494"><ele>680.0</ele><time>2026-04-18T18:20:59Z</time></trkpt><trkpt lat="46.062245707839786" lon="6.291666643359939"><ele>680.0</ele><time>2026-04-18T18:21:00Z</time></trkpt><trkpt lat="46.06251575743765" lon="6.291545428988247"><ele>680.5</ele><time>2026-04-18T18:21:01Z</time></trkpt><trkpt lat="46.062795349386946" lon="6.291386910456007"><ele>681.0</ele><time>2026-04-18T18:21:02Z</time></trkpt><trkpt lat="46.063089878834624" lon="6.291218910443498"><ele>678.5</ele><time>2026-04-18T18:21:03Z</time></trkpt><trkpt lat="46.063391162204326" lon="6.2910591097862385"><ele>676.0</ele><time>2026-04-18T18:21:04Z</time></trkpt><trkpt lat="46.06369305476248" lon="6.290907165728634"><ele>676.0</ele><time>2026-04-18T18:21:05Z</time></trkpt><trkpt lat="46.06398422539257" lon="6.2907566974470175"><ele>676.0</ele><time>2026-04-18T18:21:06Z</time></trkpt><trkpt lat="46.064268294147496" lon="6.290607521743183"><ele>675.0</ele><time>2026-04-18T18:21:07Z</time></trkpt><trkpt lat="46.06455843742525" lon="6.290456359406024"><ele>674.0</ele><time>2026-04-18T18:21:08Z</time></trkpt><trkpt lat="46.06484787803163" lon="6.29031278261599"><ele>672.0</ele><time>2026-04-18T18:21:09Z</time></trkpt><trkpt lat="46.065135789182" lon="6.290177961866301"><ele>670.0</ele><time>2026-04-18T18:21:09.999Z</time></trkpt><trkpt lat="46.06542228751052" lon="6.290042238576651"><ele>670.0</ele><time>2026-04-18T18:21:10.999Z</time></trkpt><trkpt lat="46.06571431677104" lon="6.289914914707209"><ele>670.0</ele><time>2026-04-18T18:21:11.999Z</time></trkpt><trkpt lat="46.06601422831463" lon="6.289803540371174"><ele>667.0</ele><time>2026-04-18T18:21:12.999Z</time></trkpt><trkpt lat="46.06632111874932" lon="6.289702948495583"><ele>664.0</ele><time>2026-04-18T18:21:13.999Z</time></trkpt><trkpt lat="46.066631843980794" lon="6.289616272894332"><ele>661.0</ele><time>2026-04-18T18:21:14.999Z</time></trkpt><trkpt lat="46.06694420520117" lon="6.289541574433559"><ele>658.0</ele><time>2026-04-18T18:21:15.999Z</time></trkpt><trkpt lat="46.06725092617754" lon="6.289479419363259"><ele>655.5</ele><time>2026-04-18T18:21:16.999Z</time></trkpt><trkpt lat="46.06754727019082" lon="6.28943218052931"><ele>653.0</ele><time>2026-04-18T18:21:17.999Z</time></trkpt><trkpt lat="46.067836301806686" lon="6.28939997598258"><ele>653.0</ele><time>2026-04-18T18:21:18.999Z</time></trkpt><trkpt lat="46.06811988336282" lon="6.289376073976481"><ele>653.0</ele><time>2026-04-18T18:21:19.999Z</time></trkpt><trkpt lat="46.06840996072387" lon="6.289367210712749"><ele>649.5</ele><time>2026-04-18T18:21:20.999Z</time></trkpt><trkpt lat="46.068713534962605" lon="6.289362336341167"><ele>646.0</ele><time>2026-04-18T18:21:21.999Z</time></trkpt><trkpt lat="46.06902573238771" lon="6.289369464057679"><ele>643.5</ele><time>2026-04-18T18:21:22.999Z</time></trkpt><trkpt lat="46.06934276639292" lon="6.289392653352856"><ele>641.0</ele><time>2026-04-18T18:21:23.999Z</time></trkpt><trkpt lat="46.06966158137068" lon="6.289433038046113"><ele>639.5</ele><time>2026-04-18T18:21:24.999Z</time></trkpt><trkpt lat="46.069971513372096" lon="6.2894876197080345"><ele>638.0</ele><time>2026-04-18T18:21:25.999Z</time></trkpt><trkpt lat="46.07027255510009" lon="6.289549307168493"><ele>638.0</ele><time>2026-04-18T18:21:26.999Z</time></trkpt><trkpt lat="46.0705742870956" lon="6.289620430290484"><ele>638.0</ele><time>2026-04-18T18:21:27.999Z</time></trkpt><trkpt lat="46.07088223858243" lon="6.289708682582226"><ele>634.5</ele><time>2026-04-18T18:21:28.999Z</time></trkpt><trkpt lat="46.07119273919516" lon="6.2898105104626465"><ele>631.0</ele><time>2026-04-18T18:21:29.999Z</time></trkpt><trkpt lat="46.07150623282742" lon="6.289921144863612"><ele>629.0</ele><time>2026-04-18T18:21:30.999Z</time></trkpt><trkpt lat="46.071818877707365" lon="6.290036535817276"><ele>627.0</ele><time>2026-04-18T18:21:31.999Z</time></trkpt><trkpt lat="46.07213177510191" lon="6.290156020654326"><ele>625.5</ele><time>2026-04-18T18:21:32.999Z</time></trkpt><trkpt lat="46.07244996055678" lon="6.290278852311884"><ele>624.0</ele><time>2026-04-18T18:21:33.999Z</time></trkpt><trkpt lat="46.0727669149182" lon="6.290396194062223"><ele>624.0</ele><time>2026-04-18T18:21:34.999Z</time></trkpt><trkpt lat="46.07308593693323" lon="6.290490685101782"><ele>624.0</ele><time>2026-04-18T18:21:35.999Z</time></trkpt><trkpt lat="46.07340900820956" lon="6.29057471557042"><ele>622.5</ele><time>2026-04-18T18:21:36.999Z</time></trkpt><trkpt lat="46.07373364668903" lon="6.290646745041717"><ele>621.0</ele><time>2026-04-18T18:21:37.999Z</time></trkpt><trkpt lat="46.07406321815866" lon="6.290707675350228"><ele>619.5</ele><time>2026-04-18T18:21:38.999Z</time></trkpt><trkpt lat="46.07439731925297" lon="6.290752938334641"><ele>618.0</ele><time>2026-04-18T18:21:39.999Z</time></trkpt><trkpt lat="46.07473676597101" lon="6.290779573366044"><ele>616.5</ele><time>2026-04-18T18:21:40.999Z</time></trkpt><trkpt lat="46.07507293437921" lon="6.290801949072072"><ele>615.0</ele><time>2026-04-18T18:21:41.999Z</time></trkpt><trkpt lat="46.07540985000469" lon="6.2908052945330315"><ele>615.0</ele><time>2026-04-18T18:21:42.999Z</time></trkpt><trkpt lat="46.07574062209295" lon="6.290771351908284"><ele>615.0</ele><time>2026-04-18T18:21:43.999Z</time></trkpt><trkpt lat="46.07607705637731" lon="6.290706946461808"><ele>612.0</ele><time>2026-04-18T18:21:45.001Z</time></trkpt><trkpt lat="46.07640795244499" lon="6.290651101421444"><ele>609.0</ele><time>2026-04-18T18:21:46.001Z</time></trkpt><trkpt lat="46.07677294749387" lon="6.2905452042814565"><ele>608.0</ele><time>2026-04-18T18:21:47.001Z</time></trkpt><trkpt lat="46.077136401143015" lon="6.290457208028999"><ele>607.0</ele><time>2026-04-18T18:21:48.001Z</time></trkpt><trkpt lat="46.07749812887137" lon="6.290371751974847"><ele>604.0</ele><time>2026-04-18T18:21:49.001Z</time></trkpt><trkpt lat="46.07784562056179" lon="6.290278185983124"><ele>601.0</ele><time>2026-04-18T18:21:50.001Z</time></trkpt><trkpt lat="46.07818071611042" lon="6.290173869079385"><ele>600.5</ele><time>2026-04-18T18:21:51.001Z</time></trkpt><trkpt lat="46.07850966499369" lon="6.290059255319231"><ele>600.0</ele><time>2026-04-18T18:21:52.001Z</time></trkpt><trkpt lat="46.07883470279263" lon="6.289931840927184"><ele>600.5</ele><time>2026-04-18T18:21:53.001Z</time></trkpt><trkpt lat="46.079154077265706" lon="6.289807124554599"><ele>601.0</ele><time>2026-04-18T18:21:54.001Z</time></trkpt><trkpt lat="46.07947407865274" lon="6.289676606094118"><ele>601.0</ele><time>2026-04-18T18:21:55.001Z</time></trkpt><trkpt lat="46.07979285896326" lon="6.2895484909257755"><ele>601.0</ele><time>2026-04-18T18:21:56.001Z</time></trkpt><trkpt lat="46.080119480673666" lon="6.289422151556409"><ele>598.0</ele><time>2026-04-18T18:21:57.001Z</time></trkpt><trkpt lat="46.08045330312457" lon="6.289293091764501"><ele>595.0</ele><time>2026-04-18T18:21:58.001Z</time></trkpt><trkpt lat="46.08079507078591" lon="6.2891615988677545"><ele>595.0</ele><time>2026-04-18T18:21:59.001Z</time></trkpt><trkpt lat="46.081144293001216" lon="6.289025140442288"><ele>595.0</ele><time>2026-04-18T18:22:00Z</time></trkpt><trkpt lat="46.08150521557837" lon="6.288888989926004"><ele>593.0</ele><time>2026-04-18T18:22:01Z</time></trkpt><trkpt lat="46.08187341147292" lon="6.288760172690792"><ele>591.0</ele><time>2026-04-18T18:22:02Z</time></trkpt><trkpt lat="46.08225394151531" lon="6.288648886607093"><ele>589.5</ele><time>2026-04-18T18:22:03Z</time></trkpt><trkpt lat="46.082644608682045" lon="6.288557150161194"><ele>588.0</ele><time>2026-04-18T18:22:04Z</time></trkpt><trkpt lat="46.08303813529913" lon="6.288477792284941"><ele>587.0</ele><time>2026-04-18T18:22:05Z</time></trkpt><trkpt lat="46.08343702463508" lon="6.288413474463174"><ele>586.0</ele><time>2026-04-18T18:22:06Z</time></trkpt><trkpt lat="46.08383978454476" lon="6.288362482071241"><ele>584.5</ele><time>2026-04-18T18:22:07Z</time></trkpt><trkpt lat="46.08425360808282" lon="6.288342016746018"><ele>583.0</ele><time>2026-04-18T18:22:08Z</time></trkpt><trkpt lat="46.084670497291604" lon="6.288327729559916"><ele>581.0</ele><time>2026-04-18T18:22:09Z</time></trkpt><trkpt lat="46.085082285408035" lon="6.288320886609344"><ele>579.0</ele><time>2026-04-18T18:22:10Z</time></trkpt><trkpt lat="46.08548516595207" lon="6.28834037784098"><ele>578.0</ele><time>2026-04-18T18:22:11Z</time></trkpt><trkpt lat="46.08585545849266" lon="6.288386454428972"><ele>577.0</ele><time>2026-04-18T18:22:12Z</time></trkpt><trkpt lat="46.086217069334786" lon="6.288441946259195"><ele>577.0</ele><time>2026-04-18T18:22:13Z</time></trkpt><trkpt lat="46.08657426005053" lon="6.288496953953529"><ele>577.0</ele><time>2026-04-18T18:22:14Z</time></trkpt><trkpt lat="46.086933226085144" lon="6.288570084787146"><ele>576.5</ele><time>2026-04-18T18:22:15Z</time></trkpt><trkpt lat="46.08730447512672" lon="6.288648236162389"><ele>576.0</ele><time>2026-04-18T18:22:16Z</time></trkpt><trkpt lat="46.08768265503756" lon="6.288732618563851"><ele>574.5</ele><time>2026-04-18T18:22:17Z</time></trkpt><trkpt lat="46.08805623989385" lon="6.288817083005775"><ele>573.0</ele><time>2026-04-18T18:22:18Z</time></trkpt><trkpt lat="46.088432223360655" lon="6.288897089285861"><ele>569.0</ele><time>2026-04-18T18:22:19Z</time></trkpt><trkpt lat="46.08880448767572" lon="6.288975627590966"><ele>565.0</ele><time>2026-04-18T18:22:20Z</time></trkpt><trkpt lat="46.0891754682522" lon="6.289054331954079"><ele>564.5</ele><time>2026-04-18T18:22:21Z</time></trkpt><trkpt lat="46.08954504805656" lon="6.2891323871234075"><ele>564.0</ele><time>2026-04-18T18:22:22Z</time></trkpt><trkpt lat="46.089907445448326" lon="6.289206179444757"><ele>562.5</ele><time>2026-04-18T18:22:23Z</time></trkpt><trkpt lat="46.09026650909041" lon="6.289284982624688"><ele>561.0</ele><time>2026-04-18T18:22:24Z</time></trkpt><trkpt lat="46.090627693897076" lon="6.289364400296743"><ele>558.0</ele><time>2026-04-18T18:22:25Z</time></trkpt><trkpt lat="46.09100317905776" lon="6.289451264427773"><ele>555.0</ele><time>2026-04-18T18:22:26Z</time></trkpt><trkpt lat="46.09138499409111" lon="6.289536511507505"><ele>554.0</ele><time>2026-04-18T18:22:27Z</time></trkpt><trkpt lat="46.091773105546885" lon="6.289625809862127"><ele>553.0</ele><time>2026-04-18T18:22:28Z</time></trkpt><trkpt lat="46.092154758189714" lon="6.289716787545543"><ele>552.0</ele><time>2026-04-18T18:22:29Z</time></trkpt><trkpt lat="46.09252724077248" lon="6.289818127063838"><ele>551.0</ele><time>2026-04-18T18:22:30Z</time></trkpt><trkpt lat="46.092895961860535" lon="6.289927663681037"><ele>547.0</ele><time>2026-04-18T18:22:31Z</time></trkpt><trkpt lat="46.09326205898779" lon="6.290052590486573"><ele>543.0</ele><time>2026-04-18T18:22:32Z</time></trkpt><trkpt lat="46.09363042470311" lon="6.290197996956255"><ele>543.0</ele><time>2026-04-18T18:22:33Z</time></trkpt><trkpt lat="46.094001562930394" lon="6.290359441001702"><ele>543.0</ele><time>2026-04-18T18:22:34Z</time></trkpt><trkpt lat="46.094370763466536" lon="6.290541057927293"><ele>540.5</ele><time>2026-04-18T18:22:35Z</time></trkpt><trkpt lat="46.09474017877449" lon="6.290738492589263"><ele>538.0</ele><time>2026-04-18T18:22:36Z</time></trkpt><trkpt lat="46.09511195789456" lon="6.290948353682757"><ele>538.0</ele><time>2026-04-18T18:22:37Z</time></trkpt><trkpt lat="46.0954742437384" lon="6.291173054459647"><ele>538.0</ele><time>2026-04-18T18:22:38Z</time></trkpt><trkpt lat="46.0958225648288" lon="6.291418807126597"><ele>533.5</ele><time>2026-04-18T18:22:39Z</time></trkpt><trkpt lat="46.096159723517594" lon="6.2916778993679525"><ele>529.0</ele><time>2026-04-18T18:22:40Z</time></trkpt><trkpt lat="46.09647120424029" lon="6.291942579846047"><ele>529.5</ele><time>2026-04-18T18:22:41Z</time></trkpt><trkpt lat="46.096766732468545" lon="6.292218247415624"><ele>530.0</ele><time>2026-04-18T18:22:42Z</time></trkpt><trkpt lat="46.09704811906162" lon="6.2925139587514085"><ele>527.5</ele><time>2026-04-18T18:22:43Z</time></trkpt><trkpt lat="46.09730725729147" lon="6.292841738506733"><ele>525.0</ele><time>2026-04-18T18:22:44Z</time></trkpt><trkpt lat="46.09755548971524" lon="6.293177778953963"><ele>524.0</ele><time>2026-04-18T18:22:45Z</time></trkpt><trkpt lat="46.097789212633685" lon="6.293527951617361"><ele>523.0</ele><time>2026-04-18T18:22:46Z</time></trkpt><trkpt lat="46.09801621165561" lon="6.293888896561605"><ele>521.5</ele><time>2026-04-18T18:22:47Z</time></trkpt><trkpt lat="46.09824070886215" lon="6.294263819884258"><ele>520.0</ele><time>2026-04-18T18:22:48Z</time></trkpt><trkpt lat="46.098449693364245" lon="6.294665547028065"><ele>513.5</ele><time>2026-04-18T18:22:49Z</time></trkpt><trkpt lat="46.09864885326396" lon="6.295091826109998"><ele>507.0</ele><time>2026-04-18T18:22:50Z</time></trkpt><trkpt lat="46.098835928331916" lon="6.295542692162426"><ele>506.0</ele><time>2026-04-18T18:22:51Z</time></trkpt><trkpt lat="46.09900824920115" lon="6.296012258712294"><ele>505.0</ele><time>2026-04-18T18:22:52Z</time></trkpt><trkpt lat="46.099165237111016" lon="6.2964858817862694"><ele>505.0</ele><time>2026-04-18T18:22:53Z</time></trkpt><trkpt lat="46.09930429654921" lon="6.296973867159219"><ele>505.0</ele><time>2026-04-18T18:22:54Z</time></trkpt><trkpt lat="46.099436588542794" lon="6.29747735452274"><ele>505.0</ele><time>2026-04-18T18:22:55Z</time></trkpt><trkpt lat="46.09956915912779" lon="6.297989281877327"><ele>505.0</ele><time>2026-04-18T18:22:56Z</time></trkpt><trkpt lat="46.099706033116256" lon="6.298504289882005"><ele>504.5</ele><time>2026-04-18T18:22:57Z</time></trkpt><trkpt lat="46.09984513393645" lon="6.299011766941427"><ele>504.0</ele><time>2026-04-18T18:22:58Z</time></trkpt><trkpt lat="46.09999042382882" lon="6.299518071504469"><ele>500.5</ele><time>2026-04-18T18:22:59Z</time></trkpt><trkpt lat="46.100153288763245" lon="6.300018552070803"><ele>497.0</ele><time>2026-04-18T18:23:00Z</time></trkpt><trkpt lat="46.10033089426865" lon="6.300516464715347"><ele>496.0</ele><time>2026-04-18T18:23:01Z</time></trkpt><trkpt lat="46.100518556132336" lon="6.301009931294606"><ele>495.0</ele><time>2026-04-18T18:23:02Z</time></trkpt><trkpt lat="46.100720536072714" lon="6.301486615789519"><ele>493.0</ele><time>2026-04-18T18:23:03Z</time></trkpt><trkpt lat="46.100935258751825" lon="6.301943880582106"><ele>491.0</ele><time>2026-04-18T18:23:04Z</time></trkpt><trkpt lat="46.10116921729466" lon="6.302384693123005"><ele>490.0</ele><time>2026-04-18T18:23:05Z</time></trkpt><trkpt lat="46.10140749437091" lon="6.302822109125256"><ele>489.0</ele><time>2026-04-18T18:23:06Z</time></trkpt><trkpt lat="46.101649785264605" lon="6.303251035156452"><ele>488.5</ele><time>2026-04-18T18:23:07Z</time></trkpt><trkpt lat="46.10189864517628" lon="6.303666906532424"><ele>488.0</ele><time>2026-04-18T18:23:07.999Z</time></trkpt><trkpt lat="46.102157731148466" lon="6.304069381214995"><ele>486.5</ele><time>2026-04-18T18:23:08.999Z</time></trkpt><trkpt lat="46.102434525105586" lon="6.304462835526953"><ele>485.0</ele><time>2026-04-18T18:23:09.999Z</time></trkpt><trkpt lat="46.10271955222134" lon="6.304845065328935"><ele>485.0</ele><time>2026-04-18T18:23:10.999Z</time></trkpt><trkpt lat="46.103011456411096" lon="6.305210402751412"><ele>485.0</ele><time>2026-04-18T18:23:11.999Z</time></trkpt><trkpt lat="46.10330973501456" lon="6.3055687612256675"><ele>483.5</ele><time>2026-04-18T18:23:12.999Z</time></trkpt><trkpt lat="46.10361100093365" lon="6.305926126526124"><ele>482.0</ele><time>2026-04-18T18:23:13.999Z</time></trkpt><trkpt lat="46.10391561840514" lon="6.306280948068344"><ele>479.5</ele><time>2026-04-18T18:23:14.999Z</time></trkpt><trkpt lat="46.10421980190157" lon="6.306638341001327"><ele>477.0</ele><time>2026-04-18T18:23:15.999Z</time></trkpt><trkpt lat="46.10452530895555" lon="6.306992968357699"><ele>477.0</ele><time>2026-04-18T18:23:16.999Z</time></trkpt><trkpt lat="46.10482796124068" lon="6.307353160477792"><ele>477.0</ele><time>2026-04-18T18:23:17.999Z</time></trkpt><trkpt lat="46.10511271096897" lon="6.30773045454501"><ele>477.5</ele><time>2026-04-18T18:23:18.999Z</time></trkpt><trkpt lat="46.1054070492654" lon="6.3081211697483415"><ele>478.0</ele><time>2026-04-18T18:23:19.999Z</time></trkpt><trkpt lat="46.105689959835765" lon="6.308532833691648"><ele>477.0</ele><time>2026-04-18T18:23:20.999Z</time></trkpt><trkpt lat="46.10596016104142" lon="6.308949502999157"><ele>476.0</ele><time>2026-04-18T18:23:21.999Z</time></trkpt><trkpt lat="46.10622008927027" lon="6.30937156685686"><ele>476.0</ele><time>2026-04-18T18:23:22.999Z</time></trkpt><trkpt lat="46.10647952315745" lon="6.3097888674745395"><ele>476.0</ele><time>2026-04-18T18:23:23.999Z</time></trkpt><trkpt lat="46.10673995874633" lon="6.310213690329377"><ele>473.0</ele><time>2026-04-18T18:23:24.999Z</time></trkpt><trkpt lat="46.10699290048144" lon="6.310660927446074"><ele>470.0</ele><time>2026-04-18T18:23:25.999Z</time></trkpt><trkpt lat="46.10723372587044" lon="6.311118438725045"><ele>470.5</ele><time>2026-04-18T18:23:26.999Z</time></trkpt><trkpt lat="46.1074763882565" lon="6.311594993295261"><ele>471.0</ele><time>2026-04-18T18:23:27.999Z</time></trkpt><trkpt lat="46.10769969319787" lon="6.312067124205458"><ele>471.0</ele><time>2026-04-18T18:23:28.999Z</time></trkpt><trkpt lat="46.10791349223111" lon="6.312515495884996"><ele>471.0</ele><time>2026-04-18T18:23:29.999Z</time></trkpt><trkpt lat="46.108108836476475" lon="6.312946157863745"><ele>471.0</ele><time>2026-04-18T18:23:30.999Z</time></trkpt><trkpt lat="46.108300090358604" lon="6.313359413351939"><ele>471.0</ele><time>2026-04-18T18:23:31.999Z</time></trkpt><trkpt lat="46.10849351825047" lon="6.313774894459895"><ele>472.5</ele><time>2026-04-18T18:23:32.999Z</time></trkpt><trkpt lat="46.10869049331139" lon="6.314187584910963"><ele>474.0</ele><time>2026-04-18T18:23:33.999Z</time></trkpt><trkpt lat="46.10888292104059" lon="6.31460987726151"><ele>473.5</ele><time>2026-04-18T18:23:34.999Z</time></trkpt><trkpt lat="46.10908244202699" lon="6.3150419546855"><ele>473.0</ele><time>2026-04-18T18:23:35.999Z</time></trkpt><trkpt lat="46.109282569104316" lon="6.315467595193962"><ele>472.0</ele><time>2026-04-18T18:23:36.999Z</time></trkpt><trkpt lat="46.10947460081172" lon="6.315868754718441"><ele>471.0</ele><time>2026-04-18T18:23:37.999Z</time></trkpt><trkpt lat="46.10966191067714" lon="6.316244611158805"><ele>470.5</ele><time>2026-04-18T18:23:38.999Z</time></trkpt><trkpt lat="46.1098546822969" lon="6.316611582682833"><ele>470.0</ele><time>2026-04-18T18:23:39.999Z</time></trkpt><trkpt lat="46.11005212526863" lon="6.316977068701607"><ele>468.0</ele><time>2026-04-18T18:23:40.999Z</time></trkpt><trkpt lat="46.110261929102755" lon="6.317345183350067"><ele>466.0</ele><time>2026-04-18T18:23:41.999Z</time></trkpt><trkpt lat="46.11047649479209" lon="6.317707535119657"><ele>465.5</ele><time>2026-04-18T18:23:42.999Z</time></trkpt><trkpt lat="46.11070040944682" lon="6.318072945077452"><ele>465.0</ele><time>2026-04-18T18:23:43.999Z</time></trkpt><trkpt lat="46.11093550238328" lon="6.3184332209453675"><ele>462.0</ele><time>2026-04-18T18:23:44.999Z</time></trkpt><trkpt lat="46.111184077349876" lon="6.31879195821989"><ele>459.0</ele><time>2026-04-18T18:23:45.999Z</time></trkpt><trkpt lat="46.111448845260014" lon="6.319140638114145"><ele>458.5</ele><time>2026-04-18T18:23:46.999Z</time></trkpt><trkpt lat="46.1117251324237" lon="6.319481511615973"><ele>458.0</ele><time>2026-04-18T18:23:47.999Z</time></trkpt><trkpt lat="46.11200780424595" lon="6.319819321881312"><ele>457.0</ele><time>2026-04-18T18:23:48.999Z</time></trkpt><trkpt lat="46.11229141662976" lon="6.32015095702293"><ele>456.0</ele><time>2026-04-18T18:23:49.999Z</time></trkpt><trkpt lat="46.1125773159288" lon="6.320474267728533"><ele>453.5</ele><time>2026-04-18T18:23:51.001Z</time></trkpt><trkpt lat="46.112867459109445" lon="6.320790564076644"><ele>451.0</ele><time>2026-04-18T18:23:52.001Z</time></trkpt><trkpt lat="46.11316487430354" lon="6.321108209537663"><ele>449.5</ele><time>2026-04-18T18:23:53.001Z</time></trkpt><trkpt lat="46.11346160479893" lon="6.3214236990252575"><ele>448.0</ele><time>2026-04-18T18:23:54.001Z</time></trkpt><trkpt lat="46.11375502027103" lon="6.3217344032455705"><ele>448.0</ele><time>2026-04-18T18:23:55.001Z</time></trkpt><trkpt lat="46.11404410572067" lon="6.322033872268362"><ele>448.0</ele><time>2026-04-18T18:23:56Z</time></trkpt><trkpt lat="46.11432928797532" lon="6.322329287135779"><ele>445.5</ele><time>2026-04-18T18:23:57Z</time></trkpt><trkpt lat="46.11460714247101" lon="6.322624677524504"><ele>443.0</ele><time>2026-04-18T18:23:58Z</time></trkpt><trkpt lat="46.11489057771577" lon="6.322936490609193"><ele>441.5</ele><time>2026-04-18T18:23:59Z</time></trkpt><trkpt lat="46.11518207079641" lon="6.323267116442378"><ele>440.0</ele><time>2026-04-18T18:24:00Z</time></trkpt><trkpt lat="46.115483109375674" lon="6.323599006190181"><ele>440.0</ele><time>2026-04-18T18:24:01Z</time></trkpt><trkpt lat="46.11579851455188" lon="6.323928262507259"><ele>440.0</ele><time>2026-04-18T18:24:02Z</time></trkpt><trkpt lat="46.11612573158945" lon="6.32426282990277"><ele>440.0</ele><time>2026-04-18T18:24:03Z</time></trkpt><trkpt lat="46.11646078222493" lon="6.32459835748076"><ele>440.0</ele><time>2026-04-18T18:24:04Z</time></trkpt><trkpt lat="46.11683288921047" lon="6.324901225771382"><ele>439.0</ele><time>2026-04-18T18:24:05Z</time></trkpt><trkpt lat="46.11721495181991" lon="6.325179732602142"><ele>438.0</ele><time>2026-04-18T18:24:06Z</time></trkpt><trkpt lat="46.11761089466337" lon="6.325438015052033"><ele>436.5</ele><time>2026-04-18T18:24:07Z</time></trkpt><trkpt lat="46.117709802095995" lon="6.325843074184001"><ele>435.0</ele><time>2026-04-18T18:24:08Z</time></trkpt><trkpt lat="46.117987856520195" lon="6.326134766031922"><ele>434.5</ele><time>2026-04-18T18:24:09Z</time></trkpt><trkpt lat="46.118266342142775" lon="6.326425621424945"><ele>434.0</ele><time>2026-04-18T18:24:10Z</time></trkpt><trkpt lat="46.11854522030098" lon="6.326721819292367"><ele>434.0</ele><time>2026-04-18T18:24:11Z</time></trkpt><trkpt lat="46.11882237735823" lon="6.327017034438078"><ele>434.0</ele><time>2026-04-18T18:24:12Z</time></trkpt><trkpt lat="46.11910646109687" lon="6.327321451067004"><ele>435.0</ele><time>2026-04-18T18:24:13Z</time></trkpt><trkpt lat="46.11938914332992" lon="6.327626180779808"><ele>436.0</ele><time>2026-04-18T18:24:14Z</time></trkpt><trkpt lat="46.11967479081192" lon="6.327921199846354"><ele>436.0</ele><time>2026-04-18T18:24:15Z</time></trkpt><trkpt lat="46.119938975074966" lon="6.328195820792943"><ele>436.0</ele><time>2026-04-18T18:24:16Z</time></trkpt><trkpt lat="46.12019063723818" lon="6.328423702237984"><ele>436.0</ele><time>2026-04-18T18:24:17Z</time></trkpt><trkpt lat="46.12043787554524" lon="6.328631717719395"><ele>436.0</ele><time>2026-04-18T18:24:18Z</time></trkpt><trkpt lat="46.12067687884845" lon="6.328822496775828"><ele>436.0</ele><time>2026-04-18T18:24:19Z</time></trkpt><trkpt lat="46.12091819889737" lon="6.328969563131817"><ele>436.0</ele><time>2026-04-18T18:24:20Z</time></trkpt><trkpt lat="46.12116419256889" lon="6.329088412617994"><ele>436.0</ele><time>2026-04-18T18:24:21Z</time></trkpt><trkpt lat="46.1214040833465" lon="6.3291877969555275"><ele>436.0</ele><time>2026-04-18T18:24:22Z</time></trkpt><trkpt lat="46.12165511184824" lon="6.329263618858408"><ele>434.5</ele><time>2026-04-18T18:24:23Z</time></trkpt><trkpt lat="46.12191426106623" lon="6.329309831667436"><ele>433.0</ele><time>2026-04-18T18:24:24Z</time></trkpt><trkpt lat="46.12217580295919" lon="6.329333621492813"><ele>432.0</ele><time>2026-04-18T18:24:25Z</time></trkpt><trkpt lat="46.122426760435616" lon="6.32932811513178"><ele>431.0</ele><time>2026-04-18T18:24:26Z</time></trkpt><trkpt lat="46.122682781277334" lon="6.329297317616925"><ele>431.0</ele><time>2026-04-18T18:24:27Z</time></trkpt><trkpt lat="46.122937664772174" lon="6.329245156144635"><ele>431.0</ele><time>2026-04-18T18:24:28Z</time></trkpt><trkpt lat="46.12319363121955" lon="6.329157930918848"><ele>431.0</ele><time>2026-04-18T18:24:29Z</time></trkpt><trkpt lat="46.12344672646719" lon="6.3290263197940275"><ele>431.0</ele><time>2026-04-18T18:24:30Z</time></trkpt><trkpt lat="46.12369230295458" lon="6.3288862157619645"><ele>430.5</ele><time>2026-04-18T18:24:31Z</time></trkpt><trkpt lat="46.123933345968375" lon="6.328724023596078"><ele>430.0</ele><time>2026-04-18T18:24:32Z</time></trkpt><trkpt lat="46.124167367708495" lon="6.328539200449119"><ele>430.0</ele><time>2026-04-18T18:24:33Z</time></trkpt><trkpt lat="46.12440828673348" lon="6.328323632412342"><ele>430.0</ele><time>2026-04-18T18:24:34Z</time></trkpt><trkpt lat="46.12464703919289" lon="6.328081615146673"><ele>430.0</ele><time>2026-04-18T18:24:35Z</time></trkpt><trkpt lat="46.12489009567932" lon="6.3278120369241755"><ele>430.0</ele><time>2026-04-18T18:24:36Z</time></trkpt><trkpt lat="46.125131541681434" lon="6.327530076956346"><ele>430.5</ele><time>2026-04-18T18:24:37Z</time></trkpt><trkpt lat="46.12538009267288" lon="6.327238098988128"><ele>431.0</ele><time>2026-04-18T18:24:38Z</time></trkpt><trkpt lat="46.12563386147761" lon="6.326947253754227"><ele>430.0</ele><time>2026-04-18T18:24:39Z</time></trkpt><trkpt lat="46.12588179717535" lon="6.326651622188792"><ele>429.0</ele><time>2026-04-18T18:24:40Z</time></trkpt><trkpt lat="46.12614376877846" lon="6.326400345441216"><ele>429.0</ele><time>2026-04-18T18:24:41Z</time></trkpt><trkpt lat="46.12640583081402" lon="6.326150566778332"><ele>429.0</ele><time>2026-04-18T18:24:42Z</time></trkpt><trkpt lat="46.126673297889596" lon="6.325915176663433"><ele>429.0</ele><time>2026-04-18T18:24:43Z</time></trkpt><trkpt lat="46.126947450070574" lon="6.3256856196004065"><ele>429.0</ele><time>2026-04-18T18:24:44Z</time></trkpt><trkpt lat="46.12722643507112" lon="6.325461238557307"><ele>430.0</ele><time>2026-04-18T18:24:45Z</time></trkpt><trkpt lat="46.12750884785066" lon="6.325233812358783"><ele>431.0</ele><time>2026-04-18T18:24:46Z</time></trkpt><trkpt lat="46.12779807707945" lon="6.324994537723118"><ele>431.0</ele><time>2026-04-18T18:24:47Z</time></trkpt><trkpt lat="46.12808288261404" lon="6.324759343694724"><ele>431.0</ele><time>2026-04-18T18:24:48Z</time></trkpt><trkpt lat="46.12837902267473" lon="6.3245142017142575"><ele>430.0</ele><time>2026-04-18T18:24:49Z</time></trkpt><trkpt lat="46.12868279594798" lon="6.324272498873779"><ele>429.0</ele><time>2026-04-18T18:24:50Z</time></trkpt><trkpt lat="46.12899151437193" lon="6.324024628166774"><ele>430.5</ele><time>2026-04-18T18:24:51Z</time></trkpt><trkpt lat="46.12929416761216" lon="6.323776686024226"><ele>432.0</ele><time>2026-04-18T18:24:52Z</time></trkpt><trkpt lat="46.129593597519374" lon="6.32352370011094"><ele>432.5</ele><time>2026-04-18T18:24:53Z</time></trkpt><trkpt lat="46.12989212273654" lon="6.323273132239919"><ele>433.0</ele><time>2026-04-18T18:24:54Z</time></trkpt><trkpt lat="46.13018810444241" lon="6.323016311756109"><ele>432.5</ele><time>2026-04-18T18:24:55Z</time></trkpt><trkpt lat="46.130481324194335" lon="6.322761419115594"><ele>432.0</ele><time>2026-04-18T18:24:56Z</time></trkpt><trkpt lat="46.13077002081738" lon="6.322513941396732"><ele>432.0</ele><time>2026-04-18T18:24:57Z</time></trkpt><trkpt lat="46.131051865284114" lon="6.322269084194379"><ele>432.0</ele><time>2026-04-18T18:24:58Z</time></trkpt><trkpt lat="46.13133060562087" lon="6.322024513274316"><ele>431.0</ele><time>2026-04-18T18:24:59Z</time></trkpt><trkpt lat="46.13161270068553" lon="6.321779197964547"><ele>430.0</ele><time>2026-04-18T18:25:00Z</time></trkpt><trkpt lat="46.13189261950717" lon="6.321531806532221"><ele>430.0</ele><time>2026-04-18T18:25:00.999Z</time></trkpt><trkpt lat="46.132170883619985" lon="6.32129152009857"><ele>430.0</ele><time>2026-04-18T18:25:01.999Z</time></trkpt><trkpt lat="46.132455290251066" lon="6.321042810783316"><ele>429.5</ele><time>2026-04-18T18:25:02.999Z</time></trkpt><trkpt lat="46.132741148171085" lon="6.320797621864018"><ele>429.0</ele><time>2026-04-18T18:25:03.999Z</time></trkpt><trkpt lat="46.133032477806935" lon="6.320559890489756"><ele>429.5</ele><time>2026-04-18T18:25:04.999Z</time></trkpt><trkpt lat="46.133330698985816" lon="6.320333604703659"><ele>430.0</ele><time>2026-04-18T18:25:05.999Z</time></trkpt><trkpt lat="46.13363305756533" lon="6.320117071527835"><ele>430.0</ele><time>2026-04-18T18:25:06.999Z</time></trkpt><trkpt lat="46.133933927268814" lon="6.319915718545094"><ele>430.0</ele><time>2026-04-18T18:25:07.999Z</time></trkpt><trkpt lat="46.13422951593156" lon="6.31972684454641"><ele>431.0</ele><time>2026-04-18T18:25:08.999Z</time></trkpt><trkpt lat="46.13452986224205" lon="6.319544181267872"><ele>432.0</ele><time>2026-04-18T18:25:09.999Z</time></trkpt><trkpt lat="46.13483051326735" lon="6.319377969168918"><ele>432.5</ele><time>2026-04-18T18:25:10.999Z</time></trkpt><trkpt lat="46.13513224225803" lon="6.319226991965758"><ele>433.0</ele><time>2026-04-18T18:25:11.999Z</time></trkpt><trkpt lat="46.135440925620856" lon="6.319080662783942"><ele>433.0</ele><time>2026-04-18T18:25:12.999Z</time></trkpt><trkpt lat="46.135757209057985" lon="6.31893621270482"><ele>433.0</ele><time>2026-04-18T18:25:13.999Z</time></trkpt><trkpt lat="46.1360762402801" lon="6.318794651004017"><ele>433.5</ele><time>2026-04-18T18:25:14.999Z</time></trkpt><trkpt lat="46.1363965781006" lon="6.318660986351662"><ele>434.0</ele><time>2026-04-18T18:25:15.999Z</time></trkpt><trkpt lat="46.13671668018568" lon="6.318533739826571"><ele>433.0</ele><time>2026-04-18T18:25:16.999Z</time></trkpt><trkpt lat="46.13703395134575" lon="6.318407259051342"><ele>432.0</ele><time>2026-04-18T18:25:17.999Z</time></trkpt><trkpt lat="46.13734674665851" lon="6.318284297529461"><ele>432.0</ele><time>2026-04-18T18:25:18.999Z</time></trkpt><trkpt lat="46.13766019601096" lon="6.318164078097053"><ele>432.0</ele><time>2026-04-18T18:25:19.999Z</time></trkpt><trkpt lat="46.13796974192958" lon="6.318051206941956"><ele>437.0</ele><time>2026-04-18T18:25:20.999Z</time></trkpt><trkpt lat="46.138282246278955" lon="6.317937480314407"><ele>442.0</ele><time>2026-04-18T18:25:21.999Z</time></trkpt><trkpt lat="46.13859790728784" lon="6.31782162849842"><ele>442.0</ele><time>2026-04-18T18:25:22.999Z</time></trkpt><trkpt lat="46.138910902733244" lon="6.317707829128687"><ele>442.0</ele><time>2026-04-18T18:25:23.999Z</time></trkpt><trkpt lat="46.13920193900374" lon="6.317600572094171"><ele>444.0</ele><time>2026-04-18T18:25:24.999Z</time></trkpt><trkpt lat="46.1394769898748" lon="6.317499640732421"><ele>446.0</ele><time>2026-04-18T18:25:25.999Z</time></trkpt><trkpt lat="46.13972974186521" lon="6.317413515625514"><ele>447.5</ele><time>2026-04-18T18:25:26.999Z</time></trkpt><trkpt lat="46.13997790420876" lon="6.31734039266405"><ele>449.0</ele><time>2026-04-18T18:25:27.999Z</time></trkpt><trkpt lat="46.140215778295286" lon="6.317288723248972"><ele>449.0</ele><time>2026-04-18T18:25:28.999Z</time></trkpt><trkpt lat="46.14044631393323" lon="6.317264034674037"><ele>449.0</ele><time>2026-04-18T18:25:29.999Z</time></trkpt><trkpt lat="46.14065934460001" lon="6.317256750620255"><ele>449.0</ele><time>2026-04-18T18:25:30.999Z</time></trkpt><trkpt lat="46.14086438966157" lon="6.317247737138632"><ele>449.0</ele><time>2026-04-18T18:25:31.999Z</time></trkpt><trkpt lat="46.14107431891788" lon="6.317238304249675"><ele>449.0</ele><time>2026-04-18T18:25:32.999Z</time></trkpt><trkpt lat="46.141284722019655" lon="6.317222735031606"><ele>449.0</ele><time>2026-04-18T18:25:33.999Z</time></trkpt><trkpt lat="46.14148243424498" lon="6.317203024372264"><ele>449.66666666666663</ele><time>2026-04-18T18:25:34.999Z</time></trkpt><trkpt lat="46.141668158166695" lon="6.3171899506473626"><ele>450.33333333333337</ele><time>2026-04-18T18:25:35.999Z</time></trkpt><trkpt lat="46.14185134881971" lon="6.317178510939956"><ele>451.0</ele><time>2026-04-18T18:25:36.999Z</time></trkpt><trkpt lat="46.142032158770945" lon="6.317168617785206"><ele>451.0</ele><time>2026-04-18T18:25:37.999Z</time></trkpt><trkpt lat="46.14220472574352" lon="6.317173250305766"><ele>451.0</ele><time>2026-04-18T18:25:38.999Z</time></trkpt><trkpt lat="46.14238233675517" lon="6.317200713298982"><ele>451.0</ele><time>2026-04-18T18:25:39.999Z</time></trkpt><trkpt lat="46.14256039993133" lon="6.317265105151318"><ele>451.33333333333337</ele><time>2026-04-18T18:25:40.999Z</time></trkpt><trkpt lat="46.14274258774134" lon="6.317359257643967"><ele>451.66666666666663</ele><time>2026-04-18T18:25:41.999Z</time></trkpt><trkpt lat="46.14292536720585" lon="6.317470612051346"><ele>452.0</ele><time>2026-04-18T18:25:42.999Z</time></trkpt><trkpt lat="46.143116459408496" lon="6.317576816176611"><ele>453.0</ele><time>2026-04-18T18:25:43.999Z</time></trkpt><trkpt lat="46.14331555736326" lon="6.317662484365605"><ele>454.0</ele><time>2026-04-18T18:25:44.999Z</time></trkpt><trkpt lat="46.14352589261212" lon="6.317724485391319"><ele>455.0</ele><time>2026-04-18T18:25:45.999Z</time></trkpt><trkpt lat="46.143740612477146" lon="6.317759474863825"><ele>455.0</ele><time>2026-04-18T18:25:46.999Z</time></trkpt><trkpt lat="46.14395878713855" lon="6.317759523304323"><ele>455.0</ele><time>2026-04-18T18:25:47.999Z</time></trkpt><trkpt lat="46.14417782391221" lon="6.3177431181288926"><ele>455.0</ele><time>2026-04-18T18:25:48.999Z</time></trkpt><trkpt lat="46.14440445058508" lon="6.317704884825561"><ele>457.0</ele><time>2026-04-18T18:25:49.999Z</time></trkpt><trkpt lat="46.144636698243346" lon="6.317640794101712"><ele>459.0</ele><time>2026-04-18T18:25:50.999Z</time></trkpt><trkpt lat="46.14487564946216" lon="6.3175616516306174"><ele>461.0</ele><time>2026-04-18T18:25:51.999Z</time></trkpt><trkpt lat="46.145124769519654" lon="6.317482517509931"><ele>463.0</ele><time>2026-04-18T18:25:52.999Z</time></trkpt><trkpt lat="46.1453801594889" lon="6.317408247596915"><ele>463.0</ele><time>2026-04-18T18:25:53.999Z</time></trkpt><trkpt lat="46.14564463413388" lon="6.317339282712271"><ele>463.0</ele><time>2026-04-18T18:25:54.999Z</time></trkpt><trkpt lat="46.14590664906685" lon="6.317285220536918"><ele>464.5</ele><time>2026-04-18T18:25:56Z</time></trkpt><trkpt lat="46.146163448110165" lon="6.317266749856826"><ele>466.0</ele><time>2026-04-18T18:25:57Z</time></trkpt><trkpt lat="46.14640696681031" lon="6.317296234215996"><ele>466.5</ele><time>2026-04-18T18:25:58Z</time></trkpt><trkpt lat="46.146630970184184" lon="6.317357883329363"><ele>467.0</ele><time>2026-04-18T18:25:59Z</time></trkpt><trkpt lat="46.146847383949115" lon="6.3174380253701585"><ele>467.0</ele><time>2026-04-18T18:26:00Z</time></trkpt><trkpt lat="46.147058774204645" lon="6.317538049674894"><ele>467.0</ele><time>2026-04-18T18:26:01Z</time></trkpt><trkpt lat="46.147272476403835" lon="6.317659218708"><ele>469.5</ele><time>2026-04-18T18:26:02Z</time></trkpt><trkpt lat="46.147486378233936" lon="6.317804628629855"><ele>472.0</ele><time>2026-04-18T18:26:03Z</time></trkpt><trkpt lat="46.14770587036396" lon="6.317955488051648"><ele>472.0</ele><time>2026-04-18T18:26:04Z</time></trkpt><trkpt lat="46.147933529831406" lon="6.318103966173637"><ele>472.0</ele><time>2026-04-18T18:26:05Z</time></trkpt><trkpt lat="46.148163953275194" lon="6.318256655108266"><ele>473.5</ele><time>2026-04-18T18:26:06Z</time></trkpt><trkpt lat="46.148394388433985" lon="6.3184049302737755"><ele>475.0</ele><time>2026-04-18T18:26:07Z</time></trkpt><trkpt lat="46.14861555345069" lon="6.318544764494165"><ele>475.0</ele><time>2026-04-18T18:26:08Z</time></trkpt><trkpt lat="46.14882145705732" lon="6.318674018881342"><ele>475.0</ele><time>2026-04-18T18:26:09Z</time></trkpt><trkpt lat="46.14901751219961" lon="6.318801966730176"><ele>475.0</ele><time>2026-04-18T18:26:10Z</time></trkpt><trkpt lat="46.14920649500208" lon="6.318925217487278"><ele>476.0</ele><time>2026-04-18T18:26:11Z</time></trkpt><trkpt lat="46.14938891665777" lon="6.31904415399436"><ele>477.0</ele><time>2026-04-18T18:26:12Z</time></trkpt><trkpt lat="46.14956801400449" lon="6.319160598434733"><ele>478.0</ele><time>2026-04-18T18:26:13Z</time></trkpt><trkpt lat="46.14974102778837" lon="6.319273480320094"><ele>478.6666666666667</ele><time>2026-04-18T18:26:14Z</time></trkpt><trkpt lat="46.14991770738926" lon="6.319389639836547"><ele>479.33333333333337</ele><time>2026-04-18T18:26:15Z</time></trkpt><trkpt lat="46.15009114675088" lon="6.319501267764479"><ele>480.0</ele><time>2026-04-18T18:26:16Z</time></trkpt><trkpt lat="46.15025586465375" lon="6.319611549336486"><ele>480.0</ele><time>2026-04-18T18:26:17Z</time></trkpt><trkpt lat="46.15041151406196" lon="6.31971663618007"><ele>480.0</ele><time>2026-04-18T18:26:18Z</time></trkpt><trkpt lat="46.1505603740566" lon="6.3198195744535095"><ele>480.0</ele><time>2026-04-18T18:26:19Z</time></trkpt><trkpt lat="46.150704188820406" lon="6.31991432690952"><ele>481.33333333333337</ele><time>2026-04-18T18:26:20Z</time></trkpt><trkpt lat="46.15084369534456" lon="6.320005283041947"><ele>482.6666666666667</ele><time>2026-04-18T18:26:21Z</time></trkpt><trkpt lat="46.150982542483376" lon="6.320097922415072"><ele>484.0</ele><time>2026-04-18T18:26:22Z</time></trkpt><trkpt lat="46.15112339949615" lon="6.320191139720382"><ele>484.0</ele><time>2026-04-18T18:26:23Z</time></trkpt><trkpt lat="46.15126926131793" lon="6.320287314616915"><ele>484.0</ele><time>2026-04-18T18:26:24Z</time></trkpt><trkpt lat="46.15142178766517" lon="6.3203861792960465"><ele>484.0</ele><time>2026-04-18T18:26:25Z</time></trkpt><trkpt lat="46.15157443925377" lon="6.320483090282988"><ele>484.6666666666667</ele><time>2026-04-18T18:26:26Z</time></trkpt><trkpt lat="46.15172197887539" lon="6.32057068859245"><ele>485.33333333333337</ele><time>2026-04-18T18:26:27Z</time></trkpt><trkpt lat="46.151867844110825" lon="6.320641608895594"><ele>486.0</ele><time>2026-04-18T18:26:28Z</time></trkpt><trkpt lat="46.15202151154832" lon="6.3207056207102585"><ele>486.0</ele><time>2026-04-18T18:26:29Z</time></trkpt><trkpt lat="46.152184007592595" lon="6.32075940667087"><ele>486.0</ele><time>2026-04-18T18:26:30Z</time></trkpt><trkpt lat="46.1523555451821" lon="6.320798189996836"><ele>486.0</ele><time>2026-04-18T18:26:31Z</time></trkpt><trkpt lat="46.152534452747695" lon="6.320818633647393"><ele>487.33333333333337</ele><time>2026-04-18T18:26:32Z</time></trkpt><trkpt lat="46.15272153941047" lon="6.320825990624499"><ele>488.6666666666667</ele><time>2026-04-18T18:26:33Z</time></trkpt><trkpt lat="46.15290862129577" lon="6.320815113103927"><ele>490.0</ele><time>2026-04-18T18:26:34Z</time></trkpt><trkpt lat="46.153090285399" lon="6.320788268707477"><ele>492.0</ele><time>2026-04-18T18:26:35Z</time></trkpt><trkpt lat="46.15326114794021" lon="6.320745316395761"><ele>494.0</ele><time>2026-04-18T18:26:36Z</time></trkpt><trkpt lat="46.15342363196205" lon="6.32068856483246"><ele>496.0</ele><time>2026-04-18T18:26:37Z</time></trkpt><trkpt lat="46.15359767245787" lon="6.320604431509738"><ele>496.0</ele><time>2026-04-18T18:26:38Z</time></trkpt><trkpt lat="46.15377307780806" lon="6.320496718413666"><ele>496.0</ele><time>2026-04-18T18:26:39Z</time></trkpt><trkpt lat="46.15395515341757" lon="6.320349686762362"><ele>496.0</ele><time>2026-04-18T18:26:40Z</time></trkpt><trkpt lat="46.15413915778469" lon="6.320179606123926"><ele>496.0</ele><time>2026-04-18T18:26:41Z</time></trkpt><trkpt lat="46.15433480310358" lon="6.319996456889297"><ele>496.0</ele><time>2026-04-18T18:26:42Z</time></trkpt><trkpt lat="46.15454196242822" lon="6.319814333225047"><ele>497.0</ele><time>2026-04-18T18:26:43Z</time></trkpt><trkpt lat="46.15475972814965" lon="6.319630235666552"><ele>498.0</ele><time>2026-04-18T18:26:44Z</time></trkpt><trkpt lat="46.154995166163104" lon="6.3194589949277304"><ele>498.0</ele><time>2026-04-18T18:26:45Z</time></trkpt><trkpt lat="46.15522990641274" lon="6.319263331730705"><ele>498.0</ele><time>2026-04-18T18:26:46Z</time></trkpt><trkpt lat="46.155466198487524" lon="6.319056705525712"><ele>499.5</ele><time>2026-04-18T18:26:47Z</time></trkpt><trkpt lat="46.15570875958404" lon="6.3188430248124225"><ele>501.0</ele><time>2026-04-18T18:26:48Z</time></trkpt><trkpt lat="46.1559504663786" lon="6.318603035903332"><ele>501.0</ele><time>2026-04-18T18:26:49Z</time></trkpt><trkpt lat="46.15620905019604" lon="6.318378174408709"><ele>501.0</ele><time>2026-04-18T18:26:50Z</time></trkpt><trkpt lat="46.15646905596789" lon="6.3181548563310725"><ele>503.5</ele><time>2026-04-18T18:26:51Z</time></trkpt><trkpt lat="46.156722760764545" lon="6.317935803153268"><ele>506.0</ele><time>2026-04-18T18:26:52Z</time></trkpt><trkpt lat="46.156957696122724" lon="6.317731890211541"><ele>506.0</ele><time>2026-04-18T18:26:53Z</time></trkpt><trkpt lat="46.15717793276635" lon="6.317538601495418"><ele>506.0</ele><time>2026-04-18T18:26:54Z</time></trkpt><trkpt lat="46.157388500165396" lon="6.317351135548828"><ele>507.0</ele><time>2026-04-18T18:26:55Z</time></trkpt><trkpt lat="46.15759678347411" lon="6.317162041741227"><ele>508.0</ele><time>2026-04-18T18:26:56Z</time></trkpt><trkpt lat="46.157811076307524" lon="6.316973159790309"><ele>508.0</ele><time>2026-04-18T18:26:57Z</time></trkpt><trkpt lat="46.15802296928987" lon="6.316800637341676"><ele>508.0</ele><time>2026-04-18T18:26:58Z</time></trkpt><trkpt lat="46.158226286196815" lon="6.316652426865206"><ele>509.33333333333337</ele><time>2026-04-18T18:26:58.999Z</time></trkpt><trkpt lat="46.15842478878161" lon="6.316526588671988"><ele>510.66666666666663</ele><time>2026-04-18T18:26:59.999Z</time></trkpt><trkpt lat="46.158621938497554" lon="6.3164196539045445"><ele>512.0</ele><time>2026-04-18T18:27:00.999Z</time></trkpt><trkpt lat="46.158824547716016" lon="6.316324967582435"><ele>514.6666666666666</ele><time>2026-04-18T18:27:01.999Z</time></trkpt><trkpt lat="46.15903783125378" lon="6.316235229546307"><ele>517.3333333333334</ele><time>2026-04-18T18:27:02.999Z</time></trkpt><trkpt lat="46.15925194112325" lon="6.316150445098359"><ele>520.0</ele><time>2026-04-18T18:27:03.999Z</time></trkpt><trkpt lat="46.1594686050189" lon="6.316075478260944"><ele>520.0</ele><time>2026-04-18T18:27:04.999Z</time></trkpt><trkpt lat="46.159687390499144" lon="6.316016154122562"><ele>520.0</ele><time>2026-04-18T18:27:05.999Z</time></trkpt><trkpt lat="46.15990590214797" lon="6.315979082652601"><ele>520.0</ele><time>2026-04-18T18:27:06.999Z</time></trkpt><trkpt lat="46.16011522294574" lon="6.3159607155355175"><ele>521.3333333333334</ele><time>2026-04-18T18:27:07.999Z</time></trkpt><trkpt lat="46.16031482626888" lon="6.315957762819851"><ele>522.6666666666666</ele><time>2026-04-18T18:27:08.999Z</time></trkpt><trkpt lat="46.16050284761484" lon="6.31596347189882"><ele>524.0</ele><time>2026-04-18T18:27:09.999Z</time></trkpt><trkpt lat="46.160686287264355" lon="6.315977920266662"><ele>523.3333333333333</ele><time>2026-04-18T18:27:10.999Z</time></trkpt><trkpt lat="46.160866181152414" lon="6.315997747620505"><ele>522.6666666666666</ele><time>2026-04-18T18:27:11.999Z</time></trkpt><trkpt lat="46.16104904913772" lon="6.316029187578852"><ele>522.0</ele><time>2026-04-18T18:27:12.999Z</time></trkpt><trkpt lat="46.16123381036802" lon="6.316075522653604"><ele>522.0</ele><time>2026-04-18T18:27:13.999Z</time></trkpt><trkpt lat="46.16142485434541" lon="6.316130249906021"><ele>522.0</ele><time>2026-04-18T18:27:14.999Z</time></trkpt><trkpt lat="46.16161888670775" lon="6.316194110443378"><ele>522.0</ele><time>2026-04-18T18:27:15.999Z</time></trkpt><trkpt lat="46.16181664606839" lon="6.316275094721433"><ele>522.0</ele><time>2026-04-18T18:27:16.999Z</time></trkpt><trkpt lat="46.16201251952115" lon="6.316374209493846"><ele>522.0</ele><time>2026-04-18T18:27:17.999Z</time></trkpt><trkpt lat="46.162208336274425" lon="6.316477667237889"><ele>522.0</ele><time>2026-04-18T18:27:18.999Z</time></trkpt><trkpt lat="46.16239356801508" lon="6.3165920152732635"><ele>521.6666666666666</ele><time>2026-04-18T18:27:19.999Z</time></trkpt><trkpt lat="46.16257162020188" lon="6.316708388965962"><ele>521.3333333333333</ele><time>2026-04-18T18:27:20.999Z</time></trkpt><trkpt lat="46.16273881564053" lon="6.316836979690614"><ele>521.0</ele><time>2026-04-18T18:27:21.999Z</time></trkpt><trkpt lat="46.16290180103553" lon="6.316974467448401"><ele>521.0</ele><time>2026-04-18T18:27:22.999Z</time></trkpt><trkpt lat="46.1630621866318" lon="6.317117064715028"><ele>521.0</ele><time>2026-04-18T18:27:23.999Z</time></trkpt><trkpt lat="46.163216099137344" lon="6.317270757716802"><ele>521.0</ele><time>2026-04-18T18:27:24.999Z</time></trkpt><trkpt lat="46.163369096104354" lon="6.317435084023037"><ele>521.3333333333333</ele><time>2026-04-18T18:27:25.999Z</time></trkpt><trkpt lat="46.1635206622476" lon="6.317604986706869"><ele>521.6666666666666</ele><time>2026-04-18T18:27:26.999Z</time></trkpt><trkpt lat="46.163671313951575" lon="6.317771702363037"><ele>522.0</ele><time>2026-04-18T18:27:27.999Z</time></trkpt><trkpt lat="46.16381757084877" lon="6.317935297769949"><ele>521.0</ele><time>2026-04-18T18:27:28.999Z</time></trkpt><trkpt lat="46.16396567737709" lon="6.318095089265814"><ele>520.0</ele><time>2026-04-18T18:27:29.999Z</time></trkpt><trkpt lat="46.164118570620175" lon="6.318258035323267"><ele>519.0</ele><time>2026-04-18T18:27:30.999Z</time></trkpt><trkpt lat="46.1642839458823" lon="6.31842013868991"><ele>518.3333333333334</ele><time>2026-04-18T18:27:31.999Z</time></trkpt><trkpt lat="46.16446190959455" lon="6.3185669096123735"><ele>517.6666666666667</ele><time>2026-04-18T18:27:32.999Z</time></trkpt><trkpt lat="46.16464454017966" lon="6.3186782585042875"><ele>517.0</ele><time>2026-04-18T18:27:33.999Z</time></trkpt><trkpt lat="46.16483285097596" lon="6.318759941108455"><ele>516.6666666666667</ele><time>2026-04-18T18:27:34.999Z</time></trkpt><trkpt lat="46.16502398070027" lon="6.318852974130921"><ele>516.3333333333334</ele><time>2026-04-18T18:27:35.999Z</time></trkpt><trkpt lat="46.16523954883512" lon="6.318866314624206"><ele>516.0</ele><time>2026-04-18T18:27:36.999Z</time></trkpt><trkpt lat="46.165454199462374" lon="6.318868641449923"><ele>516.0</ele><time>2026-04-18T18:27:37.999Z</time></trkpt><trkpt lat="46.165666770601966" lon="6.318850185346441"><ele>516.0</ele><time>2026-04-18T18:27:38.999Z</time></trkpt><trkpt lat="46.165873429704725" lon="6.318811754972532"><ele>516.0</ele><time>2026-04-18T18:27:39.999Z</time></trkpt><trkpt lat="46.16608401673625" lon="6.318730685840729"><ele>515.0</ele><time>2026-04-18T18:27:40.999Z</time></trkpt><trkpt lat="46.16629744637443" lon="6.318616722614771"><ele>514.0</ele><time>2026-04-18T18:27:41.999Z</time></trkpt><trkpt lat="46.166510366234085" lon="6.318459523626759"><ele>510.0</ele><time>2026-04-18T18:27:42.999Z</time></trkpt><trkpt lat="46.16671687314928" lon="6.3182738320567875"><ele>506.0</ele><time>2026-04-18T18:27:43.999Z</time></trkpt><trkpt lat="46.16692499890269" lon="6.318049428624536"><ele>506.0</ele><time>2026-04-18T18:27:44.999Z</time></trkpt><trkpt lat="46.16713024159555" lon="6.317794359660495"><ele>506.0</ele><time>2026-04-18T18:27:45.999Z</time></trkpt><trkpt lat="46.16732798866522" lon="6.31751084119144"><ele>497.5</ele><time>2026-04-18T18:27:46.999Z</time></trkpt><trkpt lat="46.167532939506295" lon="6.317219076064537"><ele>489.0</ele><time>2026-04-18T18:27:47.999Z</time></trkpt><trkpt lat="46.16774153560121" lon="6.31691384283364"><ele>489.0</ele><time>2026-04-18T18:27:48.999Z</time></trkpt><trkpt lat="46.16796020232295" lon="6.316591407671908"><ele>489.0</ele><time>2026-04-18T18:27:49.999Z</time></trkpt><trkpt lat="46.16817179013908" lon="6.316262499109524"><ele>488.5</ele><time>2026-04-18T18:27:50.999Z</time></trkpt><trkpt lat="46.16837442817717" lon="6.315928257901186"><ele>488.0</ele><time>2026-04-18T18:27:51.999Z</time></trkpt><trkpt lat="46.16856674125739" lon="6.315573571006643"><ele>488.0</ele><time>2026-04-18T18:27:52.999Z</time></trkpt><trkpt lat="46.168744097122065" lon="6.315195916904756"><ele>488.0</ele><time>2026-04-18T18:27:53.999Z</time></trkpt><trkpt lat="46.16891264079783" lon="6.314809246021101"><ele>488.5</ele><time>2026-04-18T18:27:54.999Z</time></trkpt><trkpt lat="46.16907574138716" lon="6.31442337832355"><ele>489.0</ele><time>2026-04-18T18:27:55.999Z</time></trkpt><trkpt lat="46.16924041410738" lon="6.314043512519539"><ele>488.0</ele><time>2026-04-18T18:27:56.999Z</time></trkpt><trkpt lat="46.16941906902362" lon="6.313682191964503"><ele>487.0</ele><time>2026-04-18T18:27:57.999Z</time></trkpt><trkpt lat="46.16961262831325" lon="6.313344924194754"><ele>486.5</ele><time>2026-04-18T18:27:58.999Z</time></trkpt><trkpt lat="46.169815498497506" lon="6.3130233310239765"><ele>486.0</ele><time>2026-04-18T18:27:59.999Z</time></trkpt><trkpt lat="46.17002806898298" lon="6.31271512087306"><ele>486.0</ele><time>2026-04-18T18:28:00.999Z</time></trkpt><trkpt lat="46.17024819227001" lon="6.312431385849987"><ele>486.0</ele><time>2026-04-18T18:28:02Z</time></trkpt><trkpt lat="46.170485827656755" lon="6.312174687268452"><ele>485.5</ele><time>2026-04-18T18:28:03Z</time></trkpt><trkpt lat="46.17073647128203" lon="6.3119261215341105"><ele>485.0</ele><time>2026-04-18T18:28:04Z</time></trkpt><trkpt lat="46.17099084888325" lon="6.311689326134079"><ele>485.0</ele><time>2026-04-18T18:28:05Z</time></trkpt><trkpt lat="46.17125849368274" lon="6.311454744844118"><ele>485.0</ele><time>2026-04-18T18:28:06Z</time></trkpt><trkpt lat="46.17153666540231" lon="6.311222227735718"><ele>484.5</ele><time>2026-04-18T18:28:07Z</time></trkpt><trkpt lat="46.1718206801311" lon="6.310989560013664"><ele>484.0</ele><time>2026-04-18T18:28:08Z</time></trkpt><trkpt lat="46.17210815453884" lon="6.310753982997589"><ele>485.0</ele><time>2026-04-18T18:28:09Z</time></trkpt><trkpt lat="46.17238224800881" lon="6.310526263636716"><ele>486.0</ele><time>2026-04-18T18:28:10Z</time></trkpt><trkpt lat="46.17265489631611" lon="6.310306848910864"><ele>486.0</ele><time>2026-04-18T18:28:11Z</time></trkpt><trkpt lat="46.17293270720329" lon="6.310075890865257"><ele>486.0</ele><time>2026-04-18T18:28:12Z</time></trkpt><trkpt lat="46.17321933521145" lon="6.30983767063516"><ele>487.5</ele><time>2026-04-18T18:28:13Z</time></trkpt><trkpt lat="46.173507402215904" lon="6.309597517524342"><ele>489.0</ele><time>2026-04-18T18:28:14Z</time></trkpt><trkpt lat="46.173802173957306" lon="6.30935345846087"><ele>488.5</ele><time>2026-04-18T18:28:15Z</time></trkpt><trkpt lat="46.17410273931975" lon="6.309104678011769"><ele>488.0</ele><time>2026-04-18T18:28:16Z</time></trkpt><trkpt lat="46.17440390203896" lon="6.308863716474467"><ele>488.5</ele><time>2026-04-18T18:28:17Z</time></trkpt><trkpt lat="46.17469060409967" lon="6.308639955952013"><ele>489.0</ele><time>2026-04-18T18:28:18Z</time></trkpt><trkpt lat="46.17495272044291" lon="6.30844492210594"><ele>489.0</ele><time>2026-04-18T18:28:19Z</time></trkpt><trkpt lat="46.175208891167514" lon="6.3082585529821085"><ele>489.0</ele><time>2026-04-18T18:28:20Z</time></trkpt><trkpt lat="46.17545275802438" lon="6.3080997707204824"><ele>492.5</ele><time>2026-04-18T18:28:21Z</time></trkpt><trkpt lat="46.17570061935142" lon="6.307957959031256"><ele>496.0</ele><time>2026-04-18T18:28:22Z</time></trkpt><trkpt lat="46.17595747425093" lon="6.307837310392343"><ele>496.0</ele><time>2026-04-18T18:28:23Z</time></trkpt><trkpt lat="46.17622622661449" lon="6.307720655069077"><ele>496.0</ele><time>2026-04-18T18:28:24Z</time></trkpt><trkpt lat="46.17650972698535" lon="6.307609983743071"><ele>500.5</ele><time>2026-04-18T18:28:25Z</time></trkpt><trkpt lat="46.17679981261983" lon="6.307501425219019"><ele>505.0</ele><time>2026-04-18T18:28:26Z</time></trkpt><trkpt lat="46.17709028275894" lon="6.307399565097174"><ele>508.0</ele><time>2026-04-18T18:28:27Z</time></trkpt><trkpt lat="46.17737063365697" lon="6.307300805933028"><ele>511.0</ele><time>2026-04-18T18:28:28Z</time></trkpt><trkpt lat="46.17763671923285" lon="6.307207450709034"><ele>512.5</ele><time>2026-04-18T18:28:29Z</time></trkpt><trkpt lat="46.17789068665226" lon="6.307113192418679"><ele>514.0</ele><time>2026-04-18T18:28:30Z</time></trkpt><trkpt lat="46.17814260392695" lon="6.307023126791064"><ele>515.0</ele><time>2026-04-18T18:28:31Z</time></trkpt><trkpt lat="46.17839383475827" lon="6.306931152070959"><ele>516.0</ele><time>2026-04-18T18:28:32Z</time></trkpt><trkpt lat="46.17864562714286" lon="6.306834600697481"><ele>516.0</ele><time>2026-04-18T18:28:33Z</time></trkpt><trkpt lat="46.17889255628315" lon="6.306740657119547"><ele>516.0</ele><time>2026-04-18T18:28:34Z</time></trkpt><trkpt lat="46.17912598136495" lon="6.306652585025235"><ele>516.3333333333334</ele><time>2026-04-18T18:28:35Z</time></trkpt><trkpt lat="46.17934758928967" lon="6.306570425071618"><ele>516.6666666666667</ele><time>2026-04-18T18:28:36Z</time></trkpt><trkpt lat="46.17955219992879" lon="6.306495563439492"><ele>517.0</ele><time>2026-04-18T18:28:37Z</time></trkpt><trkpt lat="46.17975008542205" lon="6.306422635221852"><ele>518.0</ele><time>2026-04-18T18:28:38Z</time></trkpt><trkpt lat="46.17994510552376" lon="6.306355746296561"><ele>519.0</ele><time>2026-04-18T18:28:39Z</time></trkpt><trkpt lat="46.180140024385246" lon="6.306290391541345"><ele>520.0</ele><time>2026-04-18T18:28:40Z</time></trkpt><trkpt lat="46.18033616690973" lon="6.306214138640301"><ele>520.0</ele><time>2026-04-18T18:28:41Z</time></trkpt><trkpt lat="46.18053411015178" lon="6.3061436178541665"><ele>520.0</ele><time>2026-04-18T18:28:42Z</time></trkpt><trkpt lat="46.180728957873896" lon="6.306071949229362"><ele>520.0</ele><time>2026-04-18T18:28:43Z</time></trkpt><trkpt lat="46.180931085318726" lon="6.305997108830287"><ele>519.6666666666667</ele><time>2026-04-18T18:28:44Z</time></trkpt><trkpt lat="46.181138767859295" lon="6.305904602720318"><ele>519.3333333333334</ele><time>2026-04-18T18:28:45Z</time></trkpt><trkpt lat="46.18135020626543" lon="6.305794446073885"><ele>519.0</ele><time>2026-04-18T18:28:46Z</time></trkpt><trkpt lat="46.181565213513906" lon="6.305656422886997"><ele>520.0</ele><time>2026-04-18T18:28:47Z</time></trkpt><trkpt lat="46.18178018546251" lon="6.305511587529579"><ele>521.0</ele><time>2026-04-18T18:28:48Z</time></trkpt><trkpt lat="46.18199188699418" lon="6.3053591754180305"><ele>521.0</ele><time>2026-04-18T18:28:49Z</time></trkpt><trkpt lat="46.18218547811501" lon="6.305208948462158"><ele>521.0</ele><time>2026-04-18T18:28:50Z</time></trkpt><trkpt lat="46.18236263683326" lon="6.305053760440609"><ele>521.0</ele><time>2026-04-18T18:28:51Z</time></trkpt><trkpt lat="46.1825356787666" lon="6.304894166593771"><ele>521.0</ele><time>2026-04-18T18:28:52Z</time></trkpt><trkpt lat="46.18269569998522" lon="6.304729434648191"><ele>521.0</ele><time>2026-04-18T18:28:53Z</time></trkpt><trkpt lat="46.182840844512846" lon="6.304545811620283"><ele>521.0</ele><time>2026-04-18T18:28:54Z</time></trkpt><trkpt lat="46.1829818812401" lon="6.304351631057819"><ele>521.0</ele><time>2026-04-18T18:28:55Z</time></trkpt><trkpt lat="46.183124457667724" lon="6.304158277860952"><ele>521.0</ele><time>2026-04-18T18:28:55.999Z</time></trkpt><trkpt lat="46.18326669481026" lon="6.303971946360869"><ele>521.0</ele><time>2026-04-18T18:28:56.999Z</time></trkpt><trkpt lat="46.18340456872418" lon="6.303791248562403"><ele>521.3333333333333</ele><time>2026-04-18T18:28:57.999Z</time></trkpt><trkpt lat="46.183536791044034" lon="6.3036130735301645"><ele>521.6666666666666</ele><time>2026-04-18T18:28:58.999Z</time></trkpt><trkpt lat="46.183668910703496" lon="6.303424093278933"><ele>522.0</ele><time>2026-04-18T18:28:59.999Z</time></trkpt><trkpt lat="46.18380382482501" lon="6.303216889501912"><ele>522.0</ele><time>2026-04-18T18:29:00.999Z</time></trkpt><trkpt lat="46.18393165353716" lon="6.302990429634144"><ele>522.0</ele><time>2026-04-18T18:29:01.999Z</time></trkpt><trkpt lat="46.184055165596924" lon="6.302745819125258"><ele>522.0</ele><time>2026-04-18T18:29:02.999Z</time></trkpt><trkpt lat="46.18417902281383" lon="6.302494555664373"><ele>521.3333333333334</ele><time>2026-04-18T18:29:03.999Z</time></trkpt><trkpt lat="46.184297685185165" lon="6.302239476205045"><ele>520.6666666666667</ele><time>2026-04-18T18:29:04.999Z</time></trkpt><trkpt lat="46.18440853002001" lon="6.301983242857994"><ele>520.0</ele><time>2026-04-18T18:29:05.999Z</time></trkpt><trkpt lat="46.18451015727475" lon="6.301732515668698"><ele>520.0</ele><time>2026-04-18T18:29:06.999Z</time></trkpt><trkpt lat="46.184604424328974" lon="6.301482830199125"><ele>520.0</ele><time>2026-04-18T18:29:07.999Z</time></trkpt><trkpt lat="46.18469413772849" lon="6.3012193882003755"><ele>520.0</ele><time>2026-04-18T18:29:08.999Z</time></trkpt><trkpt lat="46.18477954385492" lon="6.300951881488283"><ele>519.6666666666667</ele><time>2026-04-18T18:29:09.999Z</time></trkpt><trkpt lat="46.18486389987401" lon="6.3007028161303475"><ele>519.3333333333334</ele><time>2026-04-18T18:29:10.999Z</time></trkpt><trkpt lat="46.18495550823991" lon="6.30046022795367"><ele>519.0</ele><time>2026-04-18T18:29:11.999Z</time></trkpt><trkpt lat="46.185055695268105" lon="6.30022450835034"><ele>518.6666666666666</ele><time>2026-04-18T18:29:12.999Z</time></trkpt><trkpt lat="46.1851641473954" lon="6.299977705002294"><ele>518.3333333333333</ele><time>2026-04-18T18:29:13.999Z</time></trkpt><trkpt lat="46.185283005787355" lon="6.2997309040244325"><ele>518.0</ele><time>2026-04-18T18:29:14.999Z</time></trkpt><trkpt lat="46.185409853280774" lon="6.299479378224246"><ele>517.6666666666666</ele><time>2026-04-18T18:29:15.999Z</time></trkpt><trkpt lat="46.185546969441084" lon="6.2992341910400365"><ele>517.3333333333334</ele><time>2026-04-18T18:29:16.999Z</time></trkpt><trkpt lat="46.1856920352235" lon="6.298994701059572"><ele>517.0</ele><time>2026-04-18T18:29:17.999Z</time></trkpt><trkpt lat="46.1858461492275" lon="6.298769105404459"><ele>515.3333333333334</ele><time>2026-04-18T18:29:18.999Z</time></trkpt><trkpt lat="46.186004032574346" lon="6.298557380867661"><ele>513.6666666666666</ele><time>2026-04-18T18:29:19.999Z</time></trkpt><trkpt lat="46.18615972096597" lon="6.298360238492034"><ele>512.0</ele><time>2026-04-18T18:29:20.999Z</time></trkpt><trkpt lat="46.18631480951829" lon="6.298173087011601"><ele>511.3333333333333</ele><time>2026-04-18T18:29:21.999Z</time></trkpt><trkpt lat="46.186478465247134" lon="6.297990609553163"><ele>510.66666666666663</ele><time>2026-04-18T18:29:22.999Z</time></trkpt><trkpt lat="46.18665046285171" lon="6.297808473358105"><ele>510.0</ele><time>2026-04-18T18:29:23.999Z</time></trkpt><trkpt lat="46.18683427693942" lon="6.297638754793469"><ele>510.0</ele><time>2026-04-18T18:29:24.999Z</time></trkpt><trkpt lat="46.187020243051215" lon="6.2974715522828575"><ele>510.0</ele><time>2026-04-18T18:29:25.999Z</time></trkpt><trkpt lat="46.18720949865348" lon="6.297311133073041"><ele>510.0</ele><time>2026-04-18T18:29:26.999Z</time></trkpt><trkpt lat="46.1874124309774" lon="6.297133157686306"><ele>509.0</ele><time>2026-04-18T18:29:27.999Z</time></trkpt><trkpt lat="46.187622965041236" lon="6.296948175148968"><ele>508.0</ele><time>2026-04-18T18:29:28.999Z</time></trkpt><trkpt lat="46.18784231926111" lon="6.296757148519239"><ele>508.0</ele><time>2026-04-18T18:29:29.999Z</time></trkpt><trkpt lat="46.188059022860045" lon="6.2965703864306395"><ele>508.0</ele><time>2026-04-18T18:29:30.999Z</time></trkpt><trkpt lat="46.18825751750152" lon="6.296401930889016"><ele>508.0</ele><time>2026-04-18T18:29:31.999Z</time></trkpt><trkpt lat="46.18844582144756" lon="6.296233536040521"><ele>508.0</ele><time>2026-04-18T18:29:32.999Z</time></trkpt><trkpt lat="46.188626947712784" lon="6.296071714759162"><ele>508.0</ele><time>2026-04-18T18:29:33.999Z</time></trkpt><trkpt lat="46.18879710040998" lon="6.295926042346003"><ele>508.0</ele><time>2026-04-18T18:29:34.999Z</time></trkpt><trkpt lat="46.188960977976606" lon="6.295780840488124"><ele>508.0</ele><time>2026-04-18T18:29:35.999Z</time></trkpt><trkpt lat="46.18912198842807" lon="6.295643485850039"><ele>508.0</ele><time>2026-04-18T18:29:36.999Z</time></trkpt><trkpt lat="46.18927827654241" lon="6.2954972593077985"><ele>507.6666666666667</ele><time>2026-04-18T18:29:37.999Z</time></trkpt><trkpt lat="46.18943049559245" lon="6.295344826966177"><ele>507.33333333333337</ele><time>2026-04-18T18:29:38.999Z</time></trkpt><trkpt lat="46.18957975825328" lon="6.295188349751819"><ele>507.0</ele><time>2026-04-18T18:29:39.999Z</time></trkpt><trkpt lat="46.18971983523219" lon="6.295031690402333"><ele>508.0</ele><time>2026-04-18T18:29:40.999Z</time></trkpt><trkpt lat="46.18986457990617" lon="6.294862718774652"><ele>509.0</ele><time>2026-04-18T18:29:41.999Z</time></trkpt><trkpt lat="46.19001240109549" lon="6.294691272257906"><ele>510.0</ele><time>2026-04-18T18:29:42.999Z</time></trkpt><trkpt lat="46.19016243080223" lon="6.29451562599484"><ele>510.0</ele><time>2026-04-18T18:29:43.999Z</time></trkpt><trkpt lat="46.190312910693535" lon="6.2943412384380135"><ele>510.0</ele><time>2026-04-18T18:29:44.999Z</time></trkpt><trkpt lat="46.19045910216857" lon="6.29416895169666"><ele>510.0</ele><time>2026-04-18T18:29:45.999Z</time></trkpt><trkpt lat="46.19060113144498" lon="6.29400574962943"><ele>512.0</ele><time>2026-04-18T18:29:46.999Z</time></trkpt><trkpt lat="46.19073944715068" lon="6.2938564894991424"><ele>514.0</ele><time>2026-04-18T18:29:47.999Z</time></trkpt><trkpt lat="46.1908799921162" lon="6.293710461689604"><ele>516.0</ele><time>2026-04-18T18:29:48.999Z</time></trkpt><trkpt lat="46.19102589712315" lon="6.293571260828868"><ele>516.0</ele><time>2026-04-18T18:29:49.999Z</time></trkpt><trkpt lat="46.19117621101546" lon="6.293435111769651"><ele>516.0</ele><time>2026-04-18T18:29:50.999Z</time></trkpt><trkpt lat="46.1913377851103" lon="6.293309558928687"><ele>516.0</ele><time>2026-04-18T18:29:51.999Z</time></trkpt><trkpt lat="46.191513389817075" lon="6.293196663327012"><ele>515.0</ele><time>2026-04-18T18:29:52.999Z</time></trkpt><trkpt lat="46.191709603936275" lon="6.293090300648267"><ele>514.0</ele><time>2026-04-18T18:29:53.999Z</time></trkpt><trkpt lat="46.19192478814706" lon="6.292994709493091"><ele>513.0</ele><time>2026-04-18T18:29:54.999Z</time></trkpt><trkpt lat="46.19215613937428" lon="6.292910046359247"><ele>517.5</ele><time>2026-04-18T18:29:55.999Z</time></trkpt><trkpt lat="46.19240504127023" lon="6.2928414179844845"><ele>522.0</ele><time>2026-04-18T18:29:56.999Z</time></trkpt><trkpt lat="46.192659569764594" lon="6.292774629478142"><ele>522.0</ele><time>2026-04-18T18:29:57.999Z</time></trkpt><trkpt lat="46.192928242138954" lon="6.292705574707139"><ele>522.0</ele><time>2026-04-18T18:29:58.999Z</time></trkpt><trkpt lat="46.1932031605139" lon="6.292628774681336"><ele>521.0</ele><time>2026-04-18T18:29:59.999Z</time></trkpt><trkpt lat="46.1934869511205" lon="6.292541884076381"><ele>520.0</ele><time>2026-04-18T18:30:00.999Z</time></trkpt><trkpt lat="46.19376840547668" lon="6.2924564374826595"><ele>519.0</ele><time>2026-04-18T18:30:01.999Z</time></trkpt><trkpt lat="46.19405016485311" lon="6.292370815573758"><ele>518.0</ele><time>2026-04-18T18:30:02.999Z</time></trkpt><trkpt lat="46.19433128535097" lon="6.292280588295453"><ele>522.0</ele><time>2026-04-18T18:30:03.999Z</time></trkpt><trkpt lat="46.19460780860199" lon="6.292181066399047"><ele>526.0</ele><time>2026-04-18T18:30:04.999Z</time></trkpt><trkpt lat="46.19489522461724" lon="6.292075845498329"><ele>526.0</ele><time>2026-04-18T18:30:05.999Z</time></trkpt><trkpt lat="46.195194644287355" lon="6.291978562435331"><ele>526.0</ele><time>2026-04-18T18:30:06.999Z</time></trkpt><trkpt lat="46.19547778926767" lon="6.291897029799224"><ele>522.5</ele><time>2026-04-18T18:30:08Z</time></trkpt><trkpt lat="46.195748282035005" lon="6.291831015405766"><ele>519.0</ele><time>2026-04-18T18:30:09Z</time></trkpt><trkpt lat="46.1960121427751" lon="6.2917739897534055"><ele>519.0</ele><time>2026-04-18T18:30:10Z</time></trkpt><trkpt lat="46.19627481504277" lon="6.291720756158464"><ele>519.0</ele><time>2026-04-18T18:30:11Z</time></trkpt><trkpt lat="46.196535757110944" lon="6.291678811309206"><ele>520.5</ele><time>2026-04-18T18:30:12Z</time></trkpt><trkpt lat="46.19679469609434" lon="6.2916552278743"><ele>522.0</ele><time>2026-04-18T18:30:13Z</time></trkpt><trkpt lat="46.19706264184595" lon="6.291644671349456"><ele>522.0</ele><time>2026-04-18T18:30:14Z</time></trkpt><trkpt lat="46.197312764048355" lon="6.2916557211321305"><ele>522.0</ele><time>2026-04-18T18:30:15Z</time></trkpt><trkpt lat="46.19754635866472" lon="6.291683398037431"><ele>523.5</ele><time>2026-04-18T18:30:16Z</time></trkpt><trkpt lat="46.19778709699565" lon="6.291708238514513"><ele>525.0</ele><time>2026-04-18T18:30:17Z</time></trkpt><trkpt lat="46.19804337874904" lon="6.291737432231576"><ele>527.0</ele><time>2026-04-18T18:30:18Z</time></trkpt><trkpt lat="46.198311445768844" lon="6.2917729599925005"><ele>529.0</ele><time>2026-04-18T18:30:19Z</time></trkpt><trkpt lat="46.19857670083163" lon="6.291810202192703"><ele>529.0</ele><time>2026-04-18T18:30:20Z</time></trkpt><trkpt lat="46.19885398975749" lon="6.291846335124033"><ele>529.0</ele><time>2026-04-18T18:30:21Z</time></trkpt><trkpt lat="46.199121168128066" lon="6.291877431377236"><ele>530.0</ele><time>2026-04-18T18:30:22Z</time></trkpt><trkpt lat="46.199391042906306" lon="6.291899719579009"><ele>531.0</ele><time>2026-04-18T18:30:23Z</time></trkpt><trkpt lat="46.19966949357132" lon="6.291918033667546"><ele>531.0</ele><time>2026-04-18T18:30:24Z</time></trkpt><trkpt lat="46.199949301665804" lon="6.2919440064211605"><ele>531.0</ele><time>2026-04-18T18:30:25Z</time></trkpt><trkpt lat="46.20024311537316" lon="6.291964343339497"><ele>531.0</ele><time>2026-04-18T18:30:26Z</time></trkpt><trkpt lat="46.20048666567749" lon="6.291988846657047"><ele>531.0</ele><time>2026-04-18T18:30:27Z</time></trkpt><trkpt lat="46.20073260547989" lon="6.2919941801667525"><ele>531.5</ele><time>2026-04-18T18:30:28Z</time></trkpt><trkpt lat="46.20099177772519" lon="6.291970909813932"><ele>532.0</ele><time>2026-04-18T18:30:29Z</time></trkpt><trkpt lat="46.201233806997955" lon="6.291925395243415"><ele>532.0</ele><time>2026-04-18T18:30:30Z</time></trkpt><trkpt lat="46.20147996208159" lon="6.291847913032243"><ele>532.0</ele><time>2026-04-18T18:30:31Z</time></trkpt><trkpt lat="46.20171705220059" lon="6.291747812380343"><ele>532.0</ele><time>2026-04-18T18:30:32Z</time></trkpt><trkpt lat="46.201943307146294" lon="6.291637830876121"><ele>532.0</ele><time>2026-04-18T18:30:33Z</time></trkpt><trkpt lat="46.20215477682343" lon="6.291526728986884"><ele>532.0</ele><time>2026-04-18T18:30:34Z</time></trkpt><trkpt lat="46.20236016335814" lon="6.291430227233277"><ele>532.0</ele><time>2026-04-18T18:30:35Z</time></trkpt><trkpt lat="46.20257359925288" lon="6.2913413139900385"><ele>532.0</ele><time>2026-04-18T18:30:36Z</time></trkpt><trkpt lat="46.20279417780395" lon="6.291283920211044"><ele>532.0</ele><time>2026-04-18T18:30:37Z</time></trkpt><trkpt lat="46.20302129495428" lon="6.2912504838336005"><ele>532.0</ele><time>2026-04-18T18:30:38Z</time></trkpt><trkpt lat="46.203250886681886" lon="6.291259037063688"><ele>532.0</ele><time>2026-04-18T18:30:39Z</time></trkpt><trkpt lat="46.2034842942199" lon="6.291277044636769"><ele>532.0</ele><time>2026-04-18T18:30:40Z</time></trkpt><trkpt lat="46.20373315997962" lon="6.291284799484657"><ele>532.0</ele><time>2026-04-18T18:30:41Z</time></trkpt><trkpt lat="46.203987145186844" lon="6.291316674425598"><ele>532.0</ele><time>2026-04-18T18:30:42Z</time></trkpt><trkpt lat="46.204240890671784" lon="6.291458760677618"><ele>532.5</ele><time>2026-04-18T18:30:43Z</time></trkpt><trkpt lat="46.20450054637093" lon="6.291581412817958"><ele>533.0</ele><time>2026-04-18T18:30:44Z</time></trkpt><trkpt lat="46.20475630301069" lon="6.29173309122119"><ele>535.0</ele><time>2026-04-18T18:30:45Z</time></trkpt><trkpt lat="46.20501866129379" lon="6.291889614430083"><ele>537.0</ele><time>2026-04-18T18:30:46Z</time></trkpt><trkpt lat="46.205287027159784" lon="6.292060365334164"><ele>537.0</ele><time>2026-04-18T18:30:47Z</time></trkpt><trkpt lat="46.20556157006483" lon="6.292238733928382"><ele>537.0</ele><time>2026-04-18T18:30:48Z</time></trkpt><trkpt lat="46.20583572052704" lon="6.292431368187152"><ele>536.5</ele><time>2026-04-18T18:30:49Z</time></trkpt><trkpt lat="46.20610760449964" lon="6.292640413893424"><ele>536.0</ele><time>2026-04-18T18:30:50Z</time></trkpt><trkpt lat="46.206359051707736" lon="6.292843734853513"><ele>535.0</ele><time>2026-04-18T18:30:51Z</time></trkpt><trkpt lat="46.20660356741466" lon="6.293037176397872"><ele>534.0</ele><time>2026-04-18T18:30:51.999Z</time></trkpt><trkpt lat="46.20683062091265" lon="6.293217606840055"><ele>534.0</ele><time>2026-04-18T18:30:52.999Z</time></trkpt><trkpt lat="46.207052744086326" lon="6.293410093353783"><ele>534.0</ele><time>2026-04-18T18:30:53.999Z</time></trkpt><trkpt lat="46.2072620184607" lon="6.293619417475728"><ele>534.5</ele><time>2026-04-18T18:30:54.999Z</time></trkpt><trkpt lat="46.20747551389203" lon="6.293830244538097"><ele>535.0</ele><time>2026-04-18T18:30:55.999Z</time></trkpt><trkpt lat="46.207707430056175" lon="6.294035065985434"><ele>535.0</ele><time>2026-04-18T18:30:56.999Z</time></trkpt><trkpt lat="46.207957616008976" lon="6.294223191484271"><ele>535.0</ele><time>2026-04-18T18:30:57.999Z</time></trkpt><trkpt lat="46.208226550207975" lon="6.294401315481923"><ele>534.5</ele><time>2026-04-18T18:30:58.999Z</time></trkpt><trkpt lat="46.2085065033518" lon="6.294573403954045"><ele>534.0</ele><time>2026-04-18T18:30:59.999Z</time></trkpt><trkpt lat="46.208799666381324" lon="6.2947456292454005"><ele>534.0</ele><time>2026-04-18T18:31:00.999Z</time></trkpt><trkpt lat="46.20910029588374" lon="6.2949053293850445"><ele>534.0</ele><time>2026-04-18T18:31:01.999Z</time></trkpt><trkpt lat="46.209387677263024" lon="6.295070175494301"><ele>534.0</ele><time>2026-04-18T18:31:02.999Z</time></trkpt><trkpt lat="46.20966838722098" lon="6.2952337593870595"><ele>534.0</ele><time>2026-04-18T18:31:03.999Z</time></trkpt><trkpt lat="46.20994577277822" lon="6.295396195708287"><ele>534.5</ele><time>2026-04-18T18:31:04.999Z</time></trkpt><trkpt lat="46.21021904622787" lon="6.295562272568907"><ele>535.0</ele><time>2026-04-18T18:31:05.999Z</time></trkpt><trkpt lat="46.2104895938794" lon="6.295733997052194"><ele>535.0</ele><time>2026-04-18T18:31:06.999Z</time></trkpt><trkpt lat="46.21075232953283" lon="6.2959214731015285"><ele>535.0</ele><time>2026-04-18T18:31:07.999Z</time></trkpt><trkpt lat="46.21100767514976" lon="6.296135695389784"><ele>535.0</ele><time>2026-04-18T18:31:08.999Z</time></trkpt><trkpt lat="46.21125469601209" lon="6.296369897628327"><ele>535.0</ele><time>2026-04-18T18:31:09.999Z</time></trkpt><trkpt lat="46.2114896139452" lon="6.296622869466764"><ele>535.5</ele><time>2026-04-18T18:31:10.999Z</time></trkpt><trkpt lat="46.21172643774975" lon="6.296899744456846"><ele>536.0</ele><time>2026-04-18T18:31:11.999Z</time></trkpt><trkpt lat="46.21194558751008" lon="6.297211730085272"><ele>536.0</ele><time>2026-04-18T18:31:12.999Z</time></trkpt><trkpt lat="46.212170047455544" lon="6.297546826508557"><ele>536.0</ele><time>2026-04-18T18:31:13.999Z</time></trkpt><trkpt lat="46.21238860879858" lon="6.297910206297215"><ele>535.0</ele><time>2026-04-18T18:31:14.999Z</time></trkpt><trkpt lat="46.212600324291834" lon="6.298305060994806"><ele>534.0</ele><time>2026-04-18T18:31:15.999Z</time></trkpt><trkpt lat="46.212798358744095" lon="6.298722089841238"><ele>534.0</ele><time>2026-04-18T18:31:16.999Z</time></trkpt><trkpt lat="46.21298835923057" lon="6.299148859733807"><ele>534.0</ele><time>2026-04-18T18:31:17.999Z</time></trkpt><trkpt lat="46.21316680921325" lon="6.29955084612968"><ele>533.5</ele><time>2026-04-18T18:31:18.999Z</time></trkpt><trkpt lat="46.21334653698142" lon="6.2999205019361355"><ele>533.0</ele><time>2026-04-18T18:31:19.999Z</time></trkpt><trkpt lat="46.21351668033635" lon="6.3002785479709225"><ele>533.0</ele><time>2026-04-18T18:31:20.999Z</time></trkpt><trkpt lat="46.21368561753266" lon="6.300641599562657"><ele>533.0</ele><time>2026-04-18T18:31:21.999Z</time></trkpt><trkpt lat="46.21385546547174" lon="6.30100359743728"><ele>534.0</ele><time>2026-04-18T18:31:22.999Z</time></trkpt><trkpt lat="46.214029914241316" lon="6.301368274853572"><ele>535.0</ele><time>2026-04-18T18:31:23.999Z</time></trkpt><trkpt lat="46.214202815694456" lon="6.301734350203564"><ele>535.0</ele><time>2026-04-18T18:31:24.999Z</time></trkpt><trkpt lat="46.21438375851796" lon="6.302096206663104"><ele>535.0</ele><time>2026-04-18T18:31:25.999Z</time></trkpt><trkpt lat="46.21457630047136" lon="6.30245005328369"><ele>534.5</ele><time>2026-04-18T18:31:26.999Z</time></trkpt><trkpt lat="46.2147768876003" lon="6.302793692428498"><ele>534.0</ele><time>2026-04-18T18:31:27.999Z</time></trkpt><trkpt lat="46.214989281169" lon="6.303126325883556"><ele>533.0</ele><time>2026-04-18T18:31:28.999Z</time></trkpt><trkpt lat="46.21520838915579" lon="6.303453890443219"><ele>532.0</ele><time>2026-04-18T18:31:29.999Z</time></trkpt><trkpt lat="46.215439328007974" lon="6.303770928018865"><ele>532.5</ele><time>2026-04-18T18:31:30.999Z</time></trkpt><trkpt lat="46.21567659789378" lon="6.304086700822262"><ele>533.0</ele><time>2026-04-18T18:31:31.999Z</time></trkpt><trkpt lat="46.21592188963331" lon="6.304401927863673"><ele>533.0</ele><time>2026-04-18T18:31:32.999Z</time></trkpt><trkpt lat="46.21616343985909" lon="6.304716911955028"><ele>533.0</ele><time>2026-04-18T18:31:33.999Z</time></trkpt><trkpt lat="46.21640696956718" lon="6.305039986546994"><ele>531.5</ele><time>2026-04-18T18:31:34.999Z</time></trkpt><trkpt lat="46.21664509439894" lon="6.305366996139668"><ele>530.0</ele><time>2026-04-18T18:31:35.999Z</time></trkpt><trkpt lat="46.216888992104934" lon="6.305694253207588"><ele>530.0</ele><time>2026-04-18T18:31:36.999Z</time></trkpt><trkpt lat="46.21713916182345" lon="6.30601523535602"><ele>530.0</ele><time>2026-04-18T18:31:37.999Z</time></trkpt><trkpt lat="46.21739500459096" lon="6.3063289208682525"><ele>529.5</ele><time>2026-04-18T18:31:38.999Z</time></trkpt><trkpt lat="46.217665025336274" lon="6.306635644950404"><ele>529.0</ele><time>2026-04-18T18:31:39.999Z</time></trkpt><trkpt lat="46.217952716871615" lon="6.30694922377246"><ele>529.5</ele><time>2026-04-18T18:31:40.999Z</time></trkpt><trkpt lat="46.21824027448293" lon="6.307277230971225"><ele>530.0</ele><time>2026-04-18T18:31:41.999Z</time></trkpt><trkpt lat="46.218527001317184" lon="6.307621811805045"><ele>530.0</ele><time>2026-04-18T18:31:42.999Z</time></trkpt><trkpt lat="46.21880332622633" lon="6.307963565289922"><ele>530.0</ele><time>2026-04-18T18:31:43.999Z</time></trkpt><trkpt lat="46.21907119861961" lon="6.3082927643998055"><ele>532.0</ele><time>2026-04-18T18:31:44.999Z</time></trkpt><trkpt lat="46.21933226725881" lon="6.308598636146204"><ele>534.0</ele><time>2026-04-18T18:31:45.999Z</time></trkpt><trkpt lat="46.21958053365316" lon="6.308880415708614"><ele>534.0</ele><time>2026-04-18T18:31:46.999Z</time></trkpt><trkpt lat="46.21982455536245" lon="6.30914202108565"><ele>534.0</ele><time>2026-04-18T18:31:47.999Z</time></trkpt><trkpt lat="46.220079880388546" lon="6.309383854857001"><ele>534.0</ele><time>2026-04-18T18:31:48.999Z</time></trkpt><trkpt lat="46.22034311574281" lon="6.309599258512002"><ele>534.0</ele><time>2026-04-18T18:31:49.999Z</time></trkpt><trkpt lat="46.22061621338933" lon="6.309799395422278"><ele>534.0</ele><time>2026-04-18T18:31:50.999Z</time></trkpt><trkpt lat="46.22090046074049" lon="6.309991975592259"><ele>534.0</ele><time>2026-04-18T18:31:51.999Z</time></trkpt><trkpt lat="46.22119160169832" lon="6.310165408549652"><ele>533.0</ele><time>2026-04-18T18:31:52.999Z</time></trkpt><trkpt lat="46.22149206527045" lon="6.310315688669735"><ele>532.0</ele><time>2026-04-18T18:31:53.999Z</time></trkpt><trkpt lat="46.22179937378349" lon="6.310450375047158"><ele>532.5</ele><time>2026-04-18T18:31:54.999Z</time></trkpt><trkpt lat="46.22211042448223" lon="6.3105798227342635"><ele>533.0</ele><time>2026-04-18T18:31:55.999Z</time></trkpt><trkpt lat="46.22242842597103" lon="6.310709544631536"><ele>533.0</ele><time>2026-04-18T18:31:56.999Z</time></trkpt><trkpt lat="46.222739469324075" lon="6.310845329708921"><ele>533.0</ele><time>2026-04-18T18:31:57.999Z</time></trkpt><trkpt lat="46.22305094775156" lon="6.310977842495919"><ele>533.0</ele><time>2026-04-18T18:31:58.999Z</time></trkpt><trkpt lat="46.223352350159274" lon="6.311106241816069"><ele>533.0</ele><time>2026-04-18T18:31:59.999Z</time></trkpt><trkpt lat="46.22364553397487" lon="6.311234209670816"><ele>533.0</ele><time>2026-04-18T18:32:00.999Z</time></trkpt><trkpt lat="46.22392980917345" lon="6.311354902223956"><ele>533.0</ele><time>2026-04-18T18:32:01.999Z</time></trkpt><trkpt lat="46.22420747312829" lon="6.311473325928623"><ele>534.5</ele><time>2026-04-18T18:32:02.999Z</time></trkpt><trkpt lat="46.22448056172295" lon="6.3115884065604275"><ele>536.0</ele><time>2026-04-18T18:32:03.999Z</time></trkpt><trkpt lat="46.22475528249613" lon="6.3117060300266745"><ele>535.0</ele><time>2026-04-18T18:32:04.998Z</time></trkpt><trkpt lat="46.22502753968107" lon="6.311822958371776"><ele>534.0</ele><time>2026-04-18T18:32:05.998Z</time></trkpt><trkpt lat="46.22530005223789" lon="6.311937937798847"><ele>534.0</ele><time>2026-04-18T18:32:06.998Z</time></trkpt><trkpt lat="46.225570887808885" lon="6.312054493819355"><ele>534.0</ele><time>2026-04-18T18:32:07.998Z</time></trkpt><trkpt lat="46.22584308808613" lon="6.312173145108785"><ele>534.5</ele><time>2026-04-18T18:32:08.998Z</time></trkpt><trkpt lat="46.226114141924455" lon="6.3122978561266665"><ele>535.0</ele><time>2026-04-18T18:32:09.998Z</time></trkpt><trkpt lat="46.22638462146348" lon="6.312432531772954"><ele>536.0</ele><time>2026-04-18T18:32:10.998Z</time></trkpt><trkpt lat="46.22665500736072" lon="6.312572334403762"><ele>537.0</ele><time>2026-04-18T18:32:11.998Z</time></trkpt><trkpt lat="46.22692631547982" lon="6.3127191084033925"><ele>537.0</ele><time>2026-04-18T18:32:12.998Z</time></trkpt><trkpt lat="46.227201858125234" lon="6.312867649396288"><ele>537.0</ele><time>2026-04-18T18:32:14Z</time></trkpt><trkpt lat="46.227476079401654" lon="6.313005888218883"><ele>536.5</ele><time>2026-04-18T18:32:15Z</time></trkpt><trkpt lat="46.22775654477745" lon="6.3131423094295345"><ele>536.0</ele><time>2026-04-18T18:32:16Z</time></trkpt><trkpt lat="46.22803736589036" lon="6.313280959717149"><ele>537.0</ele><time>2026-04-18T18:32:17Z</time></trkpt><trkpt lat="46.22831722927982" lon="6.313419126776567"><ele>538.0</ele><time>2026-04-18T18:32:18Z</time></trkpt><trkpt lat="46.22859917052537" lon="6.313557291436212"><ele>538.0</ele><time>2026-04-18T18:32:19Z</time></trkpt><trkpt lat="46.22888130394096" lon="6.313704206967922"><ele>538.0</ele><time>2026-04-18T18:32:20Z</time></trkpt><trkpt lat="46.22916445301327" lon="6.313857963078497"><ele>539.0</ele><time>2026-04-18T18:32:21Z</time></trkpt><trkpt lat="46.229450385055415" lon="6.31401911543379"><ele>540.0</ele><time>2026-04-18T18:32:22Z</time></trkpt><trkpt lat="46.22973110128097" lon="6.314198092442012"><ele>538.0</ele><time>2026-04-18T18:32:23Z</time></trkpt><trkpt lat="46.230006472563666" lon="6.314400681412442"><ele>536.0</ele><time>2026-04-18T18:32:24Z</time></trkpt><trkpt lat="46.23027984259975" lon="6.314615989971206"><ele>537.0</ele><time>2026-04-18T18:32:25Z</time></trkpt><trkpt lat="46.230553580852835" lon="6.314821551962446"><ele>538.0</ele><time>2026-04-18T18:32:26Z</time></trkpt><trkpt lat="46.230832909726374" lon="6.3150149794744195"><ele>538.0</ele><time>2026-04-18T18:32:27Z</time></trkpt><trkpt lat="46.23110814582847" lon="6.315208529144776"><ele>538.0</ele><time>2026-04-18T18:32:28Z</time></trkpt><trkpt lat="46.23138095553016" lon="6.315402631609058"><ele>539.5</ele><time>2026-04-18T18:32:29Z</time></trkpt><trkpt lat="46.231653115816215" lon="6.315595015444409"><ele>541.0</ele><time>2026-04-18T18:32:30Z</time></trkpt><trkpt lat="46.23192750201063" lon="6.315788875777194"><ele>541.0</ele><time>2026-04-18T18:32:31Z</time></trkpt><trkpt lat="46.232199313472414" lon="6.315978594395042"><ele>541.0</ele><time>2026-04-18T18:32:32Z</time></trkpt><trkpt lat="46.232468529908" lon="6.316171010280312"><ele>541.0</ele><time>2026-04-18T18:32:33Z</time></trkpt><trkpt lat="46.23273674577288" lon="6.31635766332184"><ele>541.0</ele><time>2026-04-18T18:32:34Z</time></trkpt><trkpt lat="46.2330053768858" lon="6.316542192595052"><ele>540.0</ele><time>2026-04-18T18:32:35Z</time></trkpt><trkpt lat="46.2332777674678" lon="6.3167269886659705"><ele>539.0</ele><time>2026-04-18T18:32:36Z</time></trkpt><trkpt lat="46.233549554726274" lon="6.316914146166036"><ele>539.0</ele><time>2026-04-18T18:32:37Z</time></trkpt><trkpt lat="46.23382108912997" lon="6.317099370415219"><ele>539.0</ele><time>2026-04-18T18:32:38Z</time></trkpt><trkpt lat="46.23409329943395" lon="6.317283792989033"><ele>538.5</ele><time>2026-04-18T18:32:39Z</time></trkpt><trkpt lat="46.23437026620482" lon="6.317473679776532"><ele>538.0</ele><time>2026-04-18T18:32:40Z</time></trkpt><trkpt lat="46.23463968503013" lon="6.317658481818052"><ele>536.5</ele><time>2026-04-18T18:32:41Z</time></trkpt><trkpt lat="46.23491336425737" lon="6.317848600513072"><ele>535.0</ele><time>2026-04-18T18:32:42Z</time></trkpt><trkpt lat="46.235186153361695" lon="6.318039866648065"><ele>535.5</ele><time>2026-04-18T18:32:43Z</time></trkpt><trkpt lat="46.235461417713815" lon="6.318231832116648"><ele>536.0</ele><time>2026-04-18T18:32:44Z</time></trkpt><trkpt lat="46.2357326550275" lon="6.318420725870386"><ele>536.0</ele><time>2026-04-18T18:32:45Z</time></trkpt><trkpt lat="46.23599052096699" lon="6.318608917138538"><ele>536.0</ele><time>2026-04-18T18:32:46Z</time></trkpt><trkpt lat="46.236241383314" lon="6.318782840686837"><ele>539.0</ele><time>2026-04-18T18:32:47Z</time></trkpt><trkpt lat="46.236493110847306" lon="6.318956153008263"><ele>542.0</ele><time>2026-04-18T18:32:48Z</time></trkpt><trkpt lat="46.23674791098542" lon="6.3191342773828465"><ele>542.0</ele><time>2026-04-18T18:32:49Z</time></trkpt><trkpt lat="46.23700040433831" lon="6.319312589241394"><ele>542.0</ele><time>2026-04-18T18:32:50Z</time></trkpt><trkpt lat="46.23725224932407" lon="6.319498298265389"><ele>543.0</ele><time>2026-04-18T18:32:51Z</time></trkpt><trkpt lat="46.23750161320955" lon="6.319689528860896"><ele>544.0</ele><time>2026-04-18T18:32:52Z</time></trkpt><trkpt lat="46.237740887216184" lon="6.3198989350684895"><ele>544.0</ele><time>2026-04-18T18:32:53Z</time></trkpt><trkpt lat="46.23796895170863" lon="6.320131152176965"><ele>544.0</ele><time>2026-04-18T18:32:54Z</time></trkpt><trkpt lat="46.23820125685798" lon="6.320374907622397"><ele>544.0</ele><time>2026-04-18T18:32:55Z</time></trkpt><trkpt lat="46.238444914762376" lon="6.320628895181523"><ele>544.0</ele><time>2026-04-18T18:32:56Z</time></trkpt><trkpt lat="46.2386968581341" lon="6.320888761173391"><ele>544.0</ele><time>2026-04-18T18:32:57Z</time></trkpt><trkpt lat="46.238952261950324" lon="6.321161215436291"><ele>544.0</ele><time>2026-04-18T18:32:57.999Z</time></trkpt><trkpt lat="46.23921687504237" lon="6.321447441332248"><ele>544.5</ele><time>2026-04-18T18:32:58.999Z</time></trkpt><trkpt lat="46.239486140803" lon="6.32173985556285"><ele>545.0</ele><time>2026-04-18T18:32:59.999Z</time></trkpt><trkpt lat="46.23975362290086" lon="6.322042462739207"><ele>545.5</ele><time>2026-04-18T18:33:00.999Z</time></trkpt><trkpt lat="46.24001069120997" lon="6.32233090719927"><ele>546.0</ele><time>2026-04-18T18:33:01.999Z</time></trkpt><trkpt lat="46.240251071139255" lon="6.322597265522542"><ele>546.0</ele><time>2026-04-18T18:33:02.999Z</time></trkpt><trkpt lat="46.240480761133426" lon="6.322850369820161"><ele>546.0</ele><time>2026-04-18T18:33:03.999Z</time></trkpt><trkpt lat="46.24069895112559" lon="6.323092759730135"><ele>547.5</ele><time>2026-04-18T18:33:04.999Z</time></trkpt><trkpt lat="46.240906586251846" lon="6.323326675441715"><ele>549.0</ele><time>2026-04-18T18:33:05.999Z</time></trkpt><trkpt lat="46.241106180584985" lon="6.323548365256608"><ele>549.0</ele><time>2026-04-18T18:33:06.999Z</time></trkpt><trkpt lat="46.24129781051204" lon="6.323765922598846"><ele>549.0</ele><time>2026-04-18T18:33:07.999Z</time></trkpt><trkpt lat="46.24148813028196" lon="6.323975087788091"><ele>549.0</ele><time>2026-04-18T18:33:08.999Z</time></trkpt><trkpt lat="46.24168681345087" lon="6.324183810784969"><ele>549.0</ele><time>2026-04-18T18:33:09.999Z</time></trkpt><trkpt lat="46.24189137633447" lon="6.324393283521398"><ele>549.0</ele><time>2026-04-18T18:33:10.999Z</time></trkpt><trkpt lat="46.24209086745308" lon="6.324592835829121"><ele>549.0</ele><time>2026-04-18T18:33:11.999Z</time></trkpt><trkpt lat="46.24228171630974" lon="6.3247797328358315"><ele>549.3333333333334</ele><time>2026-04-18T18:33:12.999Z</time></trkpt><trkpt lat="46.242460182830676" lon="6.324946231034365"><ele>549.6666666666667</ele><time>2026-04-18T18:33:13.999Z</time></trkpt><trkpt lat="46.24262839596687" lon="6.325097819079604"><ele>550.0</ele><time>2026-04-18T18:33:14.999Z</time></trkpt><trkpt lat="46.242783224682455" lon="6.325237370397546"><ele>550.0</ele><time>2026-04-18T18:33:15.999Z</time></trkpt><trkpt lat="46.24293000256812" lon="6.325365140275603"><ele>550.0</ele><time>2026-04-18T18:33:16.999Z</time></trkpt><trkpt lat="46.243066671606" lon="6.325489638861189"><ele>550.0</ele><time>2026-04-18T18:33:17.999Z</time></trkpt><trkpt lat="46.24319568470909" lon="6.325620689774389"><ele>550.0</ele><time>2026-04-18T18:33:18.999Z</time></trkpt><trkpt lat="46.24331430735993" lon="6.325760633933721"><ele>550.0</ele><time>2026-04-18T18:33:19.999Z</time></trkpt><trkpt lat="46.243419790086186" lon="6.325906405139193"><ele>550.0</ele><time>2026-04-18T18:33:20.999Z</time></trkpt><trkpt lat="46.243508750401055" lon="6.3260574281469015"><ele>550.0</ele><time>2026-04-18T18:33:21.999Z</time></trkpt><trkpt lat="46.24358317986175" lon="6.326208279617716"><ele>550.0</ele><time>2026-04-18T18:33:22.999Z</time></trkpt><trkpt lat="46.243650465927736" lon="6.326351282895421"><ele>550.0</ele><time>2026-04-18T18:33:23.999Z</time></trkpt><trkpt lat="46.243724466446366" lon="6.326462395502198"><ele>550.0</ele><time>2026-04-18T18:33:24.999Z</time></trkpt><trkpt lat="46.24380839909799" lon="6.326552131146732"><ele>550.0</ele><time>2026-04-18T18:33:25.999Z</time></trkpt><trkpt lat="46.243893799284244" lon="6.326623892250498"><ele>550.0</ele><time>2026-04-18T18:33:26.999Z</time></trkpt><trkpt lat="46.24397135806199" lon="6.326688851554725"><ele>549.8</ele><time>2026-04-18T18:33:27.999Z</time></trkpt><trkpt lat="46.244040023011124" lon="6.326767994611453"><ele>549.6</ele><time>2026-04-18T18:33:28.999Z</time></trkpt><trkpt lat="46.2440908678484" lon="6.326867162429212"><ele>549.4</ele><time>2026-04-18T18:33:29.999Z</time></trkpt><trkpt lat="46.24411993782387" lon="6.326984442234843"><ele>549.2</ele><time>2026-04-18T18:33:30.999Z</time></trkpt><trkpt lat="46.24414571880561" lon="6.3271219673832135"><ele>549.0</ele><time>2026-04-18T18:33:31.999Z</time></trkpt><trkpt lat="46.24421611567436" lon="6.327208986529472"><ele>550.25</ele><time>2026-04-18T18:33:32.999Z</time></trkpt><trkpt lat="46.24430252139879" lon="6.327300303819939"><ele>551.5</ele><time>2026-04-18T18:33:33.999Z</time></trkpt><trkpt lat="46.24440617648559" lon="6.327379556289732"><ele>552.75</ele><time>2026-04-18T18:33:34.999Z</time></trkpt><trkpt lat="46.24451732580229" lon="6.327456798276955"><ele>554.0</ele><time>2026-04-18T18:33:35.999Z</time></trkpt><trkpt lat="46.244643283599494" lon="6.327467000848353"><ele>554.0</ele><time>2026-04-18T18:33:36.999Z</time></trkpt><trkpt lat="46.2447721878249" lon="6.3275328704868095"><ele>554.0</ele><time>2026-04-18T18:33:37.999Z</time></trkpt><trkpt lat="46.244896970984875" lon="6.327535843508949"><ele>554.0</ele><time>2026-04-18T18:33:38.999Z</time></trkpt><trkpt lat="46.245041233464406" lon="6.327607748898786"><ele>554.0</ele><time>2026-04-18T18:33:39.999Z</time></trkpt><trkpt lat="46.24517313725163" lon="6.327719509696149"><ele>554.3333333333333</ele><time>2026-04-18T18:33:40.999Z</time></trkpt><trkpt lat="46.24529792486713" lon="6.327872694305567"><ele>554.6666666666666</ele><time>2026-04-18T18:33:41.999Z</time></trkpt><trkpt lat="46.245412816124265" lon="6.328054978911577"><ele>555.0</ele><time>2026-04-18T18:33:42.999Z</time></trkpt><trkpt lat="46.245524796204734" lon="6.328258461752334"><ele>554.6666666666666</ele><time>2026-04-18T18:33:43.999Z</time></trkpt><trkpt lat="46.245634835723536" lon="6.328477110859938"><ele>554.3333333333333</ele><time>2026-04-18T18:33:44.999Z</time></trkpt><trkpt lat="46.24574763142383" lon="6.328704651584598"><ele>554.0</ele><time>2026-04-18T18:33:45.999Z</time></trkpt><trkpt lat="46.245859089715786" lon="6.328930754811864"><ele>554.0</ele><time>2026-04-18T18:33:46.999Z</time></trkpt><trkpt lat="46.245960101767686" lon="6.329138540338893"><ele>554.0</ele><time>2026-04-18T18:33:47.999Z</time></trkpt><trkpt lat="46.246052003357434" lon="6.329331713650786"><ele>554.0</ele><time>2026-04-18T18:33:48.999Z</time></trkpt><trkpt lat="46.24613678149198" lon="6.329513402161879"><ele>554.0</ele><time>2026-04-18T18:33:49.999Z</time></trkpt><trkpt lat="46.246229475496634" lon="6.329708484787667"><ele>554.0</ele><time>2026-04-18T18:33:50.999Z</time></trkpt><trkpt lat="46.246327679904006" lon="6.329917455244159"><ele>554.0</ele><time>2026-04-18T18:33:51.999Z</time></trkpt><trkpt lat="46.24643319461979" lon="6.330138916914162"><ele>553.3333333333333</ele><time>2026-04-18T18:33:52.999Z</time></trkpt><trkpt lat="46.24654412226491" lon="6.330352081628078"><ele>552.6666666666666</ele><time>2026-04-18T18:33:53.999Z</time></trkpt><trkpt lat="46.246652139452934" lon="6.330544543496441"><ele>552.0</ele><time>2026-04-18T18:33:54.999Z</time></trkpt><trkpt lat="46.2467622981203" lon="6.330722886977336"><ele>553.6666666666666</ele><time>2026-04-18T18:33:55.999Z</time></trkpt><trkpt lat="46.24688561971915" lon="6.330888818895776"><ele>555.3333333333333</ele><time>2026-04-18T18:33:56.999Z</time></trkpt><trkpt lat="46.247027221262016" lon="6.331048461933778"><ele>557.0</ele><time>2026-04-18T18:33:57.999Z</time></trkpt><trkpt lat="46.247181022131436" lon="6.331196421964621"><ele>556.0</ele><time>2026-04-18T18:33:58.999Z</time></trkpt><trkpt lat="46.24734174475807" lon="6.331336464860698"><ele>555.0</ele><time>2026-04-18T18:33:59.999Z</time></trkpt><trkpt lat="46.247506890954206" lon="6.3314608614984"><ele>554.0</ele><time>2026-04-18T18:34:00.999Z</time></trkpt><trkpt lat="46.24767206005084" lon="6.331558654993246"><ele>558.3333333333333</ele><time>2026-04-18T18:34:01.999Z</time></trkpt><trkpt lat="46.24782770732411" lon="6.331631932298986"><ele>562.6666666666666</ele><time>2026-04-18T18:34:02.999Z</time></trkpt><trkpt lat="46.24797202561009" lon="6.33170199579823"><ele>567.0</ele><time>2026-04-18T18:34:03.999Z</time></trkpt><trkpt lat="46.248109457460714" lon="6.3317638831778265"><ele>565.3333333333334</ele><time>2026-04-18T18:34:04.999Z</time></trkpt><trkpt lat="46.248248137034544" lon="6.331839796485093"><ele>563.6666666666667</ele><time>2026-04-18T18:34:05.999Z</time></trkpt><trkpt lat="46.24839515598979" lon="6.331937905378669"><ele>562.0</ele><time>2026-04-18T18:34:06.999Z</time></trkpt><trkpt lat="46.24853510057883" lon="6.332033949836943"><ele>562.0</ele><time>2026-04-18T18:34:07.999Z</time></trkpt><trkpt lat="46.248667664527474" lon="6.3321380014720186"><ele>562.0</ele><time>2026-04-18T18:34:08.999Z</time></trkpt><trkpt lat="46.24880244269668" lon="6.332258314334093"><ele>562.0</ele><time>2026-04-18T18:34:09.999Z</time></trkpt><trkpt lat="46.24893168109033" lon="6.3323894813289785"><ele>562.25</ele><time>2026-04-18T18:34:10.998Z</time></trkpt><trkpt lat="46.24904685465662" lon="6.332523520593378"><ele>562.5</ele><time>2026-04-18T18:34:11.998Z</time></trkpt><trkpt lat="46.24915373237485" lon="6.332656558061232"><ele>562.75</ele><time>2026-04-18T18:34:12.998Z</time></trkpt><trkpt lat="46.24925739189121" lon="6.332795982757698"><ele>563.0</ele><time>2026-04-18T18:34:13.998Z</time></trkpt><trkpt lat="46.24936340591473" lon="6.332950568031477"><ele>563.25</ele><time>2026-04-18T18:34:14.998Z</time></trkpt><trkpt lat="46.24948403099511" lon="6.333102738170353"><ele>563.5</ele><time>2026-04-18T18:34:15.998Z</time></trkpt><trkpt lat="46.24959542680953" lon="6.3332493879492615"><ele>563.75</ele><time>2026-04-18T18:34:16.998Z</time></trkpt><trkpt lat="46.24969065382068" lon="6.3333940785060046"><ele>564.0</ele><time>2026-04-18T18:34:17.998Z</time></trkpt><trkpt lat="46.24979447934104" lon="6.333543645505077"><ele>564.0</ele><time>2026-04-18T18:34:18.998Z</time></trkpt><trkpt lat="46.249906958257704" lon="6.333706923670259"><ele>564.0</ele><time>2026-04-18T18:34:20Z</time></trkpt><trkpt lat="46.250058974277025" lon="6.333840959683376"><ele>564.0</ele><time>2026-04-18T18:34:21Z</time></trkpt><trkpt lat="46.25022162160622" lon="6.333973452748376"><ele>567.0</ele><time>2026-04-18T18:34:22Z</time></trkpt><trkpt lat="46.25039379093866" lon="6.334098977474446"><ele>570.0</ele><time>2026-04-18T18:34:23Z</time></trkpt><trkpt lat="46.250569866689" lon="6.334217721209818"><ele>573.0</ele><time>2026-04-18T18:34:24Z</time></trkpt><trkpt lat="46.25075247705786" lon="6.33431489568345"><ele>573.0</ele><time>2026-04-18T18:34:25Z</time></trkpt><trkpt lat="46.25094030587873" lon="6.334378631389706"><ele>573.0</ele><time>2026-04-18T18:34:26Z</time></trkpt><trkpt lat="46.251136993882255" lon="6.334428602170634"><ele>573.0</ele><time>2026-04-18T18:34:27Z</time></trkpt><trkpt lat="46.25134797707757" lon="6.3344764014369535"><ele>569.5</ele><time>2026-04-18T18:34:28Z</time></trkpt><trkpt lat="46.25157456656703" lon="6.334525808418695"><ele>566.0</ele><time>2026-04-18T18:34:29Z</time></trkpt><trkpt lat="46.251829608745346" lon="6.334585877473816"><ele>566.0</ele><time>2026-04-18T18:34:30Z</time></trkpt><trkpt lat="46.25209002278146" lon="6.334681147758586"><ele>566.0</ele><time>2026-04-18T18:34:31Z</time></trkpt><trkpt lat="46.25235544888578" lon="6.334756663342217"><ele>572.5</ele><time>2026-04-18T18:34:32Z</time></trkpt><trkpt lat="46.25264425753373" lon="6.334834028018168"><ele>579.0</ele><time>2026-04-18T18:34:33Z</time></trkpt><trkpt lat="46.252947580972446" lon="6.334932349485208"><ele>577.5</ele><time>2026-04-18T18:34:34Z</time></trkpt><trkpt lat="46.25324284438858" lon="6.335015830202441"><ele>576.0</ele><time>2026-04-18T18:34:35Z</time></trkpt><trkpt lat="46.253518361834615" lon="6.335081827876597"><ele>576.0</ele><time>2026-04-18T18:34:36Z</time></trkpt><trkpt lat="46.2537659254333" lon="6.335139738307123"><ele>576.0</ele><time>2026-04-18T18:34:37Z</time></trkpt><trkpt lat="46.2540004274075" lon="6.3351986015301085"><ele>575.5</ele><time>2026-04-18T18:34:38Z</time></trkpt><trkpt lat="46.25423814463441" lon="6.3352631450483425"><ele>575.0</ele><time>2026-04-18T18:34:39Z</time></trkpt><trkpt lat="46.25448629346429" lon="6.335335505637997"><ele>575.0</ele><time>2026-04-18T18:34:40Z</time></trkpt><trkpt lat="46.25472838864588" lon="6.335409975683944"><ele>575.0</ele><time>2026-04-18T18:34:41Z</time></trkpt><trkpt lat="46.25495404364994" lon="6.335486726134153"><ele>575.3333333333333</ele><time>2026-04-18T18:34:42Z</time></trkpt><trkpt lat="46.25515357460625" lon="6.335602619150561"><ele>575.6666666666666</ele><time>2026-04-18T18:34:43Z</time></trkpt><trkpt lat="46.25535667083781" lon="6.335743142613681"><ele>576.0</ele><time>2026-04-18T18:34:44Z</time></trkpt><trkpt lat="46.255553182486636" lon="6.335918101906735"><ele>575.5</ele><time>2026-04-18T18:34:45Z</time></trkpt><trkpt lat="46.2557433839325" lon="6.3361179490598545"><ele>575.0</ele><time>2026-04-18T18:34:46Z</time></trkpt><trkpt lat="46.25593395034358" lon="6.336355234217354"><ele>576.5</ele><time>2026-04-18T18:34:47Z</time></trkpt><trkpt lat="46.256125131876125" lon="6.336614409591401"><ele>578.0</ele><time>2026-04-18T18:34:48Z</time></trkpt><trkpt lat="46.25631906074244" lon="6.336897470396057"><ele>577.5</ele><time>2026-04-18T18:34:49Z</time></trkpt><trkpt lat="46.25650600130796" lon="6.337170007112326"><ele>577.0</ele><time>2026-04-18T18:34:50Z</time></trkpt><trkpt lat="46.2566771752592" lon="6.337422495611379"><ele>578.0</ele><time>2026-04-18T18:34:51Z</time></trkpt><trkpt lat="46.256836100082964" lon="6.337673674590709"><ele>579.0</ele><time>2026-04-18T18:34:52Z</time></trkpt><trkpt lat="46.256990524724515" lon="6.33794610817818"><ele>579.0</ele><time>2026-04-18T18:34:53Z</time></trkpt><trkpt lat="46.25713835685862" lon="6.338252555502872"><ele>579.0</ele><time>2026-04-18T18:34:54Z</time></trkpt><trkpt lat="46.2572866899823" lon="6.338582646618042"><ele>580.5</ele><time>2026-04-18T18:34:55Z</time></trkpt><trkpt lat="46.2574437595308" lon="6.338928711356711"><ele>582.0</ele><time>2026-04-18T18:34:56Z</time></trkpt><trkpt lat="46.257606713953514" lon="6.339271264449204"><ele>582.0</ele><time>2026-04-18T18:34:57Z</time></trkpt><trkpt lat="46.2577668452668" lon="6.339601452233974"><ele>582.0</ele><time>2026-04-18T18:34:58Z</time></trkpt><trkpt lat="46.25791561216" lon="6.3399114399268885"><ele>582.5</ele><time>2026-04-18T18:34:59Z</time></trkpt><trkpt lat="46.25805641195479" lon="6.340207027051824"><ele>583.0</ele><time>2026-04-18T18:35:00Z</time></trkpt><trkpt lat="46.25819120155926" lon="6.340492972634372"><ele>585.0</ele><time>2026-04-18T18:35:00.999Z</time></trkpt><trkpt lat="46.2583254980414" lon="6.340781309263838"><ele>587.0</ele><time>2026-04-18T18:35:01.999Z</time></trkpt><trkpt lat="46.25846094775047" lon="6.341078442993852"><ele>588.5</ele><time>2026-04-18T18:35:02.999Z</time></trkpt><trkpt lat="46.25859479179989" lon="6.341383062905752"><ele>590.0</ele><time>2026-04-18T18:35:03.999Z</time></trkpt><trkpt lat="46.25871129919531" lon="6.341694848523909"><ele>590.0</ele><time>2026-04-18T18:35:04.999Z</time></trkpt><trkpt lat="46.25880585420399" lon="6.3420262630809185"><ele>590.0</ele><time>2026-04-18T18:35:05.999Z</time></trkpt><trkpt lat="46.25887613190725" lon="6.342367976729346"><ele>591.0</ele><time>2026-04-18T18:35:06.999Z</time></trkpt><trkpt lat="46.258935836689076" lon="6.342716385452297"><ele>592.0</ele><time>2026-04-18T18:35:07.999Z</time></trkpt><trkpt lat="46.25899270464164" lon="6.343069138172538"><ele>587.5</ele><time>2026-04-18T18:35:08.999Z</time></trkpt><trkpt lat="46.25905614258152" lon="6.343440914321932"><ele>583.0</ele><time>2026-04-18T18:35:09.999Z</time></trkpt><trkpt lat="46.259124256860865" lon="6.343828459468786"><ele>583.5</ele><time>2026-04-18T18:35:10.999Z</time></trkpt><trkpt lat="46.259196365187066" lon="6.344239169090074"><ele>584.0</ele><time>2026-04-18T18:35:11.999Z</time></trkpt><trkpt lat="46.259271053120365" lon="6.344664556133977"><ele>585.5</ele><time>2026-04-18T18:35:12.999Z</time></trkpt><trkpt lat="46.25934750778315" lon="6.345084876163585"><ele>587.0</ele><time>2026-04-18T18:35:13.999Z</time></trkpt><trkpt lat="46.259425281356776" lon="6.345474777301134"><ele>586.5</ele><time>2026-04-18T18:35:14.999Z</time></trkpt><trkpt lat="46.25950909526764" lon="6.3458321211587005"><ele>586.0</ele><time>2026-04-18T18:35:15.999Z</time></trkpt><trkpt lat="46.259610828070535" lon="6.346176503600263"><ele>586.0</ele><time>2026-04-18T18:35:16.999Z</time></trkpt><trkpt lat="46.25973332469949" lon="6.346512784167101"><ele>586.0</ele><time>2026-04-18T18:35:17.999Z</time></trkpt><trkpt lat="46.2598662435642" lon="6.346848330435994"><ele>586.0</ele><time>2026-04-18T18:35:18.999Z</time></trkpt><trkpt lat="46.260002493071646" lon="6.347180093611643"><ele>586.0</ele><time>2026-04-18T18:35:19.999Z</time></trkpt><trkpt lat="46.26012491141757" lon="6.347486938974823"><ele>586.6666666666667</ele><time>2026-04-18T18:35:20.999Z</time></trkpt><trkpt lat="46.26022997132389" lon="6.347774339195047"><ele>587.3333333333334</ele><time>2026-04-18T18:35:21.999Z</time></trkpt><trkpt lat="46.26030890002565" lon="6.348049833716267"><ele>588.0</ele><time>2026-04-18T18:35:22.999Z</time></trkpt><trkpt lat="46.260372103219055" lon="6.348319124999854"><ele>589.3333333333334</ele><time>2026-04-18T18:35:23.999Z</time></trkpt><trkpt lat="46.26042074934493" lon="6.348592540228065"><ele>590.6666666666667</ele><time>2026-04-18T18:35:24.999Z</time></trkpt><trkpt lat="46.26046767447985" lon="6.348867835638337"><ele>592.0</ele><time>2026-04-18T18:35:25.999Z</time></trkpt><trkpt lat="46.26051428282349" lon="6.349127987276508"><ele>592.6666666666667</ele><time>2026-04-18T18:35:26.999Z</time></trkpt><trkpt lat="46.26055661673134" lon="6.349368626889356"><ele>593.3333333333334</ele><time>2026-04-18T18:35:27.999Z</time></trkpt><trkpt lat="46.260587832032236" lon="6.349629957209595"><ele>594.0</ele><time>2026-04-18T18:35:28.999Z</time></trkpt><trkpt lat="46.260612018765116" lon="6.34989312768809"><ele>593.6666666666666</ele><time>2026-04-18T18:35:29.999Z</time></trkpt><trkpt lat="46.26064592417497" lon="6.350168234899808"><ele>593.3333333333333</ele><time>2026-04-18T18:35:30.999Z</time></trkpt><trkpt lat="46.26070538548827" lon="6.350439912243234"><ele>593.0</ele><time>2026-04-18T18:35:31.999Z</time></trkpt><trkpt lat="46.260754390014995" lon="6.350711541292059"><ele>593.6666666666666</ele><time>2026-04-18T18:35:32.999Z</time></trkpt><trkpt lat="46.26079396620392" lon="6.350963516584995"><ele>594.3333333333334</ele><time>2026-04-18T18:35:33.999Z</time></trkpt><trkpt lat="46.260827422967346" lon="6.351201974634968"><ele>595.0</ele><time>2026-04-18T18:35:34.999Z</time></trkpt><trkpt lat="46.26086065492669" lon="6.351425461900804"><ele>595.0</ele><time>2026-04-18T18:35:35.999Z</time></trkpt><trkpt lat="46.260892266171815" lon="6.35163808461895"><ele>595.0</ele><time>2026-04-18T18:35:36.999Z</time></trkpt><trkpt lat="46.26092088719152" lon="6.351833597844697"><ele>595.0</ele><time>2026-04-18T18:35:37.999Z</time></trkpt><trkpt lat="46.26094795810563" lon="6.352023080498107"><ele>595.0</ele><time>2026-04-18T18:35:38.999Z</time></trkpt><trkpt lat="46.26096319868399" lon="6.352204225589353"><ele>595.0</ele><time>2026-04-18T18:35:39.999Z</time></trkpt><trkpt lat="46.26095435093923" lon="6.3523863467213175"><ele>595.0</ele><time>2026-04-18T18:35:40.999Z</time></trkpt><trkpt lat="46.26091817215499" lon="6.35255058428631"><ele>595.0</ele><time>2026-04-18T18:35:41.999Z</time></trkpt><trkpt lat="46.26090272884776" lon="6.352752620503524"><ele>595.0</ele><time>2026-04-18T18:35:42.999Z</time></trkpt><trkpt lat="46.26093794671884" lon="6.352892028028831"><ele>594.6</ele><time>2026-04-18T18:35:43.999Z</time></trkpt><trkpt lat="46.26096057727336" lon="6.3530441456357245"><ele>594.2</ele><time>2026-04-18T18:35:44.999Z</time></trkpt><trkpt lat="46.26097285363156" lon="6.353203621600148"><ele>593.8</ele><time>2026-04-18T18:35:45.999Z</time></trkpt><trkpt lat="46.260960574259045" lon="6.353366302965299"><ele>593.4</ele><time>2026-04-18T18:35:46.999Z</time></trkpt><trkpt lat="46.260925628772696" lon="6.353528861482072"><ele>593.0</ele><time>2026-04-18T18:35:47.999Z</time></trkpt><trkpt lat="46.26086264530607" lon="6.353679175954896"><ele>593.0</ele><time>2026-04-18T18:35:48.999Z</time></trkpt><trkpt lat="46.26077661053568" lon="6.353826624674755"><ele>593.0</ele><time>2026-04-18T18:35:49.999Z</time></trkpt><trkpt lat="46.260677281595626" lon="6.353966261612652"><ele>593.0</ele><time>2026-04-18T18:35:50.999Z</time></trkpt><trkpt lat="46.26057499826857" lon="6.354105647657073"><ele>593.0</ele><time>2026-04-18T18:35:51.999Z</time></trkpt><trkpt lat="46.260482711912324" lon="6.354255215856647"><ele>592.25</ele><time>2026-04-18T18:35:52.999Z</time></trkpt><trkpt lat="46.260421270959" lon="6.3544260171950135"><ele>591.5</ele><time>2026-04-18T18:35:53.999Z</time></trkpt><trkpt lat="46.26039808498402" lon="6.354610655686443"><ele>590.75</ele><time>2026-04-18T18:35:54.999Z</time></trkpt><trkpt lat="46.26039900642371" lon="6.354798212772539"><ele>590.0</ele><time>2026-04-18T18:35:55.999Z</time></trkpt><trkpt lat="46.26043074575914" lon="6.354974872974572"><ele>589.75</ele><time>2026-04-18T18:35:56.999Z</time></trkpt><trkpt lat="46.260482676248664" lon="6.355147326012393"><ele>589.5</ele><time>2026-04-18T18:35:57.999Z</time></trkpt><trkpt lat="46.2605605926111" lon="6.3552987166732295"><ele>589.25</ele><time>2026-04-18T18:35:58.999Z</time></trkpt><trkpt lat="46.260668105744436" lon="6.355441983699424"><ele>589.0</ele><time>2026-04-18T18:35:59.999Z</time></trkpt><trkpt lat="46.260804028194535" lon="6.35558517264691"><ele>587.0</ele><time>2026-04-18T18:36:00.999Z</time></trkpt><trkpt lat="46.26096821725453" lon="6.355727718724809"><ele>585.0</ele><time>2026-04-18T18:36:01.999Z</time></trkpt><trkpt lat="46.26114665283063" lon="6.3558905179799865"><ele>583.0</ele><time>2026-04-18T18:36:02.999Z</time></trkpt><trkpt lat="46.261331504965646" lon="6.35607049710991"><ele>581.0</ele><time>2026-04-18T18:36:03.999Z</time></trkpt><trkpt lat="46.26151103292411" lon="6.356275005747902"><ele>579.0</ele><time>2026-04-18T18:36:04.999Z</time></trkpt><trkpt lat="46.261672913815524" lon="6.356504931257186"><ele>578.3333333333334</ele><time>2026-04-18T18:36:05.999Z</time></trkpt><trkpt lat="46.261807659120024" lon="6.35675532541839"><ele>577.6666666666667</ele><time>2026-04-18T18:36:06.999Z</time></trkpt><trkpt lat="46.26191188301708" lon="6.357018078136129"><ele>577.0</ele><time>2026-04-18T18:36:07.999Z</time></trkpt><trkpt lat="46.26199998147807" lon="6.357295310455312"><ele>576.6666666666667</ele><time>2026-04-18T18:36:08.999Z</time></trkpt><trkpt lat="46.26208805118744" lon="6.357579197412553"><ele>576.3333333333334</ele><time>2026-04-18T18:36:09.999Z</time></trkpt><trkpt lat="46.262174548051185" lon="6.3578639601402465"><ele>576.0</ele><time>2026-04-18T18:36:10.999Z</time></trkpt><trkpt lat="46.26225704681482" lon="6.358147149707834"><ele>575.0</ele><time>2026-04-18T18:36:11.999Z</time></trkpt><trkpt lat="46.262339437713166" lon="6.3584223826074515"><ele>574.0</ele><time>2026-04-18T18:36:12.999Z</time></trkpt><trkpt lat="46.26242137256412" lon="6.35868407561921"><ele>573.0</ele><time>2026-04-18T18:36:13.998Z</time></trkpt><trkpt lat="46.262502433044084" lon="6.358945736726983"><ele>573.0</ele><time>2026-04-18T18:36:14.998Z</time></trkpt><trkpt lat="46.26258724327616" lon="6.35921845985418"><ele>573.0</ele><time>2026-04-18T18:36:15.998Z</time></trkpt><trkpt lat="46.26266617285981" lon="6.359481512591562"><ele>573.0</ele><time>2026-04-18T18:36:16.998Z</time></trkpt><trkpt lat="46.26273532388413" lon="6.359737293394992"><ele>573.6666666666666</ele><time>2026-04-18T18:36:17.998Z</time></trkpt><trkpt lat="46.26278909237525" lon="6.3599873343029545"><ele>574.3333333333333</ele><time>2026-04-18T18:36:18.998Z</time></trkpt><trkpt lat="46.26283375073282" lon="6.360249886003122"><ele>575.0</ele><time>2026-04-18T18:36:19.998Z</time></trkpt><trkpt lat="46.262872498561464" lon="6.360520994329086"><ele>575.3333333333333</ele><time>2026-04-18T18:36:20.998Z</time></trkpt><trkpt lat="46.26290843196798" lon="6.360794795814166"><ele>575.6666666666666</ele><time>2026-04-18T18:36:21.998Z</time></trkpt><trkpt lat="46.26293998109831" lon="6.361076238363587"><ele>576.0</ele><time>2026-04-18T18:36:22.998Z</time></trkpt><trkpt lat="46.262974992318775" lon="6.361377876901459"><ele>576.0</ele><time>2026-04-18T18:36:23.998Z</time></trkpt><trkpt lat="46.26300821735571" lon="6.361703471555898"><ele>576.0</ele><time>2026-04-18T18:36:24.998Z</time></trkpt><trkpt lat="46.26303691480003" lon="6.362018684259639"><ele>576.0</ele><time>2026-04-18T18:36:26Z</time></trkpt><trkpt lat="46.263062394765775" lon="6.362306081508687"><ele>576.3333333333334</ele><time>2026-04-18T18:36:27Z</time></trkpt><trkpt lat="46.26308596965009" lon="6.362557402746857"><ele>576.6666666666667</ele><time>2026-04-18T18:36:28Z</time></trkpt><trkpt lat="46.2631081524314" lon="6.362788698263434"><ele>577.0</ele><time>2026-04-18T18:36:29Z</time></trkpt><trkpt lat="46.263128136121274" lon="6.363007420976968"><ele>574.3333333333334</ele><time>2026-04-18T18:36:30Z</time></trkpt><trkpt lat="46.26315098964837" lon="6.363225390906789"><ele>571.6666666666666</ele><time>2026-04-18T18:36:31Z</time></trkpt><trkpt lat="46.263176852831485" lon="6.363451850771075"><ele>569.0</ele><time>2026-04-18T18:36:32Z</time></trkpt><trkpt lat="46.26320822756132" lon="6.363700049369439"><ele>569.6666666666666</ele><time>2026-04-18T18:36:33Z</time></trkpt><trkpt lat="46.26323734789078" lon="6.363956531178498"><ele>570.3333333333334</ele><time>2026-04-18T18:36:34Z</time></trkpt><trkpt lat="46.26326056659026" lon="6.3642010495035155"><ele>571.0</ele><time>2026-04-18T18:36:35Z</time></trkpt><trkpt lat="46.26328408936639" lon="6.364416808940983"><ele>571.0</ele><time>2026-04-18T18:36:36Z</time></trkpt><trkpt lat="46.26330287938633" lon="6.36460435554792"><ele>571.0</ele><time>2026-04-18T18:36:37Z</time></trkpt><trkpt lat="46.26332045027002" lon="6.364779763818647"><ele>571.0</ele><time>2026-04-18T18:36:38Z</time></trkpt><trkpt lat="46.26333579553565" lon="6.364949016812844"><ele>571.0</ele><time>2026-04-18T18:36:39Z</time></trkpt><trkpt lat="46.26335222335933" lon="6.3651030005087454"><ele>570.6</ele><time>2026-04-18T18:36:40Z</time></trkpt><trkpt lat="46.26336843317828" lon="6.365247355585523"><ele>570.2</ele><time>2026-04-18T18:36:41Z</time></trkpt><trkpt lat="46.26338264123721" lon="6.36539365978259"><ele>569.8</ele><time>2026-04-18T18:36:42Z</time></trkpt><trkpt lat="46.26339498786269" lon="6.365540000459534"><ele>569.4</ele><time>2026-04-18T18:36:43Z</time></trkpt><trkpt lat="46.26341305506562" lon="6.3657018611758645"><ele>569.0</ele><time>2026-04-18T18:36:44Z</time></trkpt><trkpt lat="46.263417342692414" lon="6.365895068644732"><ele>569.0</ele><time>2026-04-18T18:36:45Z</time></trkpt><trkpt lat="46.263436922281045" lon="6.36611406994259"><ele>569.0</ele><time>2026-04-18T18:36:46Z</time></trkpt><trkpt lat="46.263474576259306" lon="6.366346723025812"><ele>569.0</ele><time>2026-04-18T18:36:47Z</time></trkpt><trkpt lat="46.26349334707864" lon="6.366590535230152"><ele>569.0</ele><time>2026-04-18T18:36:48Z</time></trkpt><trkpt lat="46.26351344232207" lon="6.366817236443481"><ele>569.0</ele><time>2026-04-18T18:36:49Z</time></trkpt><trkpt lat="46.263539799163134" lon="6.3670266543038"><ele>569.0</ele><time>2026-04-18T18:36:50Z</time></trkpt><trkpt lat="46.26357421282815" lon="6.367234190821795"><ele>569.0</ele><time>2026-04-18T18:36:51Z</time></trkpt><trkpt lat="46.26362092505234" lon="6.367446595366545"><ele>569.0</ele><time>2026-04-18T18:36:52Z</time></trkpt><trkpt lat="46.26368983231476" lon="6.367655536632906"><ele>569.0</ele><time>2026-04-18T18:36:53Z</time></trkpt><trkpt lat="46.26376741557417" lon="6.367856591935632"><ele>569.0</ele><time>2026-04-18T18:36:54Z</time></trkpt><trkpt lat="46.2638447560857" lon="6.368037574513554"><ele>569.0</ele><time>2026-04-18T18:36:55Z</time></trkpt><trkpt lat="46.26392512228457" lon="6.368195689341727"><ele>569.0</ele><time>2026-04-18T18:36:56Z</time></trkpt><trkpt lat="46.263971613306396" lon="6.368366519542837"><ele>569.0</ele><time>2026-04-18T18:36:57Z</time></trkpt><trkpt lat="46.264017723680816" lon="6.368552109754033"><ele>569.0</ele><time>2026-04-18T18:36:58Z</time></trkpt><trkpt lat="46.26408653882432" lon="6.368741107771978"><ele>569.0</ele><time>2026-04-18T18:36:59Z</time></trkpt><trkpt lat="46.26415211721377" lon="6.368928859284689"><ele>569.0</ele><time>2026-04-18T18:37:00Z</time></trkpt><trkpt lat="46.264224419533306" lon="6.369109965044594"><ele>569.0</ele><time>2026-04-18T18:37:01Z</time></trkpt><trkpt lat="46.26429170765099" lon="6.369290424959704"><ele>568.75</ele><time>2026-04-18T18:37:02Z</time></trkpt><trkpt lat="46.26435699829667" lon="6.36946446485548"><ele>568.5</ele><time>2026-04-18T18:37:03Z</time></trkpt><trkpt lat="46.26441767208752" lon="6.369625744605714"><ele>568.25</ele><time>2026-04-18T18:37:04Z</time></trkpt><trkpt lat="46.26447017972188" lon="6.369768374549794"><ele>568.0</ele><time>2026-04-18T18:37:05Z</time></trkpt><trkpt lat="46.2645163331273" lon="6.3698943626493145"><ele>568.0</ele><time>2026-04-18T18:37:06Z</time></trkpt><trkpt lat="46.264567310414776" lon="6.370039026116652"><ele>568.0</ele><time>2026-04-18T18:37:07Z</time></trkpt><trkpt lat="46.26461556889552" lon="6.370170882017401"><ele>568.0</ele><time>2026-04-18T18:37:08Z</time></trkpt><trkpt lat="46.26466488321412" lon="6.370304094371593"><ele>568.0</ele><time>2026-04-18T18:37:08.999Z</time></trkpt><trkpt lat="46.26471414114956" lon="6.370435208879922"><ele>568.0</ele><time>2026-04-18T18:37:09.999Z</time></trkpt><trkpt lat="46.264757823620286" lon="6.3705595667693204"><ele>567.6666666666667</ele><time>2026-04-18T18:37:10.999Z</time></trkpt><trkpt lat="46.264801678413946" lon="6.370671860456202"><ele>567.3333333333334</ele><time>2026-04-18T18:37:11.999Z</time></trkpt><trkpt lat="46.2648430043489" lon="6.370776560747271"><ele>567.0</ele><time>2026-04-18T18:37:12.999Z</time></trkpt><trkpt lat="46.26488172665501" lon="6.370874293412779"><ele>566.6666666666666</ele><time>2026-04-18T18:37:13.999Z</time></trkpt><trkpt lat="46.26491643225969" lon="6.370967959574895"><ele>566.3333333333333</ele><time>2026-04-18T18:37:14.999Z</time></trkpt><trkpt lat="46.26494733823477" lon="6.371057275133799"><ele>566.0</ele><time>2026-04-18T18:37:15.999Z</time></trkpt><trkpt lat="46.26497873345885" lon="6.371141876450481"><ele>566.0</ele><time>2026-04-18T18:37:16.999Z</time></trkpt><trkpt lat="46.26500781632937" lon="6.371226358882625"><ele>566.0</ele><time>2026-04-18T18:37:17.999Z</time></trkpt><trkpt lat="46.2650583038178" lon="6.371389875444575"><ele>566.0</ele><time>2026-04-18T18:37:19.999Z</time></trkpt><trkpt lat="46.2650886653837" lon="6.371477463790316"><ele>566.0</ele><time>2026-04-18T18:37:20.999Z</time></trkpt><trkpt lat="46.26512501058706" lon="6.371570983200247"><ele>566.0</ele><time>2026-04-18T18:37:21.999Z</time></trkpt><trkpt lat="46.2651642541095" lon="6.371671741868234"><ele>566.0</ele><time>2026-04-18T18:37:22.999Z</time></trkpt><trkpt lat="46.26520727492592" lon="6.371779486993086"><ele>566.1666666666666</ele><time>2026-04-18T18:37:23.999Z</time></trkpt><trkpt lat="46.26525113137684" lon="6.371885539034043"><ele>566.3333333333333</ele><time>2026-04-18T18:37:24.999Z</time></trkpt><trkpt lat="46.26529617015649" lon="6.371993529029155"><ele>566.5</ele><time>2026-04-18T18:37:25.999Z</time></trkpt><trkpt lat="46.265335448410944" lon="6.372098024831309"><ele>566.6666666666666</ele><time>2026-04-18T18:37:26.999Z</time></trkpt><trkpt lat="46.265379299800564" lon="6.3722038398656595"><ele>566.8333333333334</ele><time>2026-04-18T18:37:27.999Z</time></trkpt><trkpt lat="46.26542699374862" lon="6.372316679081606"><ele>567.0</ele><time>2026-04-18T18:37:28.999Z</time></trkpt><trkpt lat="46.26548163792731" lon="6.3724562056494145"><ele>566.6</ele><time>2026-04-18T18:37:29.999Z</time></trkpt><trkpt lat="46.265532898519474" lon="6.3725914330860425"><ele>566.2</ele><time>2026-04-18T18:37:30.999Z</time></trkpt><trkpt lat="46.26558405858632" lon="6.372720588316139"><ele>565.8</ele><time>2026-04-18T18:37:31.999Z</time></trkpt><trkpt lat="46.26562817016519" lon="6.372841525234679"><ele>565.4</ele><time>2026-04-18T18:37:32.999Z</time></trkpt><trkpt lat="46.26567015953702" lon="6.3729536092384125"><ele>565.0</ele><time>2026-04-18T18:37:33.999Z</time></trkpt><trkpt lat="46.26571141772106" lon="6.373063633027484"><ele>564.4</ele><time>2026-04-18T18:37:34.999Z</time></trkpt><trkpt lat="46.265743803194084" lon="6.3731793411224285"><ele>563.8</ele><time>2026-04-18T18:37:35.999Z</time></trkpt><trkpt lat="46.26577471325892" lon="6.373296058163492"><ele>563.2</ele><time>2026-04-18T18:37:36.999Z</time></trkpt><trkpt lat="46.265816219838406" lon="6.373411568124991"><ele>562.6</ele><time>2026-04-18T18:37:37.999Z</time></trkpt><trkpt lat="46.26586606874411" lon="6.373530313576191"><ele>562.0</ele><time>2026-04-18T18:37:38.999Z</time></trkpt><trkpt lat="46.26591240298008" lon="6.37365163773135"><ele>562.0</ele><time>2026-04-18T18:37:39.999Z</time></trkpt><trkpt lat="46.265954528507315" lon="6.37376827129767"><ele>562.0</ele><time>2026-04-18T18:37:40.999Z</time></trkpt><trkpt lat="46.26599535994412" lon="6.373874207215733"><ele>562.0</ele><time>2026-04-18T18:37:41.999Z</time></trkpt><trkpt lat="46.266034398124745" lon="6.373982072279774"><ele>562.0</ele><time>2026-04-18T18:37:42.999Z</time></trkpt><trkpt lat="46.26606079565855" lon="6.374090245537874"><ele>562.0</ele><time>2026-04-18T18:37:43.999Z</time></trkpt><trkpt lat="46.26608696968326" lon="6.374194422778915"><ele>562.0</ele><time>2026-04-18T18:37:44.999Z</time></trkpt><trkpt lat="46.26611792867999" lon="6.374299507361489"><ele>562.6666666666667</ele><time>2026-04-18T18:37:45.999Z</time></trkpt><trkpt lat="46.26615476037401" lon="6.3744071956757535"><ele>563.3333333333334</ele><time>2026-04-18T18:37:46.999Z</time></trkpt><trkpt lat="46.26619635091648" lon="6.3745166825879265"><ele>564.0</ele><time>2026-04-18T18:37:47.999Z</time></trkpt><trkpt lat="46.26623859199786" lon="6.374622771169125"><ele>564.6666666666666</ele><time>2026-04-18T18:37:48.999Z</time></trkpt><trkpt lat="46.26627360316406" lon="6.374728376192237"><ele>565.3333333333333</ele><time>2026-04-18T18:37:49.999Z</time></trkpt><trkpt lat="46.26631588492148" lon="6.374843156787511"><ele>566.0</ele><time>2026-04-18T18:37:50.999Z</time></trkpt><trkpt lat="46.266362733800044" lon="6.374959960571981"><ele>566.4</ele><time>2026-04-18T18:37:51.999Z</time></trkpt><trkpt lat="46.266414493021706" lon="6.375085163635904"><ele>566.8</ele><time>2026-04-18T18:37:52.999Z</time></trkpt><trkpt lat="46.26646274118394" lon="6.37521310010837"><ele>567.1999999999999</ele><time>2026-04-18T18:37:53.999Z</time></trkpt><trkpt lat="46.26651559665827" lon="6.375352062199403"><ele>567.6</ele><time>2026-04-18T18:37:54.999Z</time></trkpt><trkpt lat="46.266573001451306" lon="6.375491776149876"><ele>568.0</ele><time>2026-04-18T18:37:55.999Z</time></trkpt><trkpt lat="46.26662971033039" lon="6.375622124891287"><ele>566.6</ele><time>2026-04-18T18:37:56.999Z</time></trkpt><trkpt lat="46.26667562343343" lon="6.375748591687344"><ele>565.1999999999999</ele><time>2026-04-18T18:37:57.999Z</time></trkpt><trkpt lat="46.26672053471588" lon="6.37587713003827"><ele>563.8</ele><time>2026-04-18T18:37:58.999Z</time></trkpt><trkpt lat="46.26676964503445" lon="6.375998096039596"><ele>562.4</ele><time>2026-04-18T18:37:59.999Z</time></trkpt><trkpt lat="46.266817578873415" lon="6.376120977426942"><ele>561.0</ele><time>2026-04-18T18:38:00.999Z</time></trkpt><trkpt lat="46.26687489421076" lon="6.376241809928002"><ele>560.6</ele><time>2026-04-18T18:38:01.999Z</time></trkpt><trkpt lat="46.26692752862011" lon="6.376366067415148"><ele>560.2</ele><time>2026-04-18T18:38:02.999Z</time></trkpt><trkpt lat="46.266976738970335" lon="6.3764911428566915"><ele>559.8</ele><time>2026-04-18T18:38:03.999Z</time></trkpt><trkpt lat="46.26701885223715" lon="6.376609350608262"><ele>559.4</ele><time>2026-04-18T18:38:04.999Z</time></trkpt><trkpt lat="46.26705892209841" lon="6.376722159864934"><ele>559.0</ele><time>2026-04-18T18:38:05.999Z</time></trkpt><trkpt lat="46.26709614869705" lon="6.376819860319291"><ele>559.0</ele><time>2026-04-18T18:38:06.999Z</time></trkpt><trkpt lat="46.26712834638029" lon="6.376902959345698"><ele>559.0</ele><time>2026-04-18T18:38:07.999Z</time></trkpt><trkpt lat="46.267182614514425" lon="6.377046946866484"><ele>559.0</ele><time>2026-04-18T18:38:09.999Z</time></trkpt><trkpt lat="46.267228409686346" lon="6.3771824884722115"><ele>559.0</ele><time>2026-04-18T18:38:11.999Z</time></trkpt><trkpt lat="46.26726586496093" lon="6.377309277103658"><ele>559.0</ele><time>2026-04-18T18:38:13.999Z</time></trkpt><trkpt lat="46.267292233098" lon="6.377440900651656"><ele>558.4</ele><time>2026-04-18T18:38:15.999Z</time></trkpt><trkpt lat="46.26730415461057" lon="6.377611161777003"><ele>557.8</ele><time>2026-04-18T18:38:17.999Z</time></trkpt><trkpt lat="46.26736181203833" lon="6.37776283156378"><ele>557.2</ele><time>2026-04-18T18:38:19.999Z</time></trkpt><trkpt lat="46.267425830149335" lon="6.377850611034255"><ele>556.6</ele><time>2026-04-18T18:38:20.998Z</time></trkpt><trkpt lat="46.267488803139514" lon="6.377939869328229"><ele>556.0</ele><time>2026-04-18T18:38:21.998Z</time></trkpt><trkpt lat="46.26755495899051" lon="6.378054257709731"><ele>555.6</ele><time>2026-04-18T18:38:22.998Z</time></trkpt><trkpt lat="46.26760995881194" lon="6.378184769805613"><ele>555.2</ele><time>2026-04-18T18:38:23.998Z</time></trkpt><trkpt lat="46.26765815237185" lon="6.378314750093568"><ele>554.8</ele><time>2026-04-18T18:38:24.998Z</time></trkpt><trkpt lat="46.26770791484835" lon="6.37844114098482"><ele>554.4</ele><time>2026-04-18T18:38:25.998Z</time></trkpt><trkpt lat="46.267756468850514" lon="6.378590724120593"><ele>554.0</ele><time>2026-04-18T18:38:26.998Z</time></trkpt><trkpt lat="46.267820441165405" lon="6.378746899790959"><ele>554.0</ele><time>2026-04-18T18:38:27.998Z</time></trkpt><trkpt lat="46.267877577859906" lon="6.378907200386076"><ele>554.0</ele><time>2026-04-18T18:38:28.998Z</time></trkpt><trkpt lat="46.267933944998546" lon="6.379062287656724"><ele>554.0</ele><time>2026-04-18T18:38:29.998Z</time></trkpt><trkpt lat="46.267993318508225" lon="6.3792124920238"><ele>554.0</ele><time>2026-04-18T18:38:30.998Z</time></trkpt><trkpt lat="46.26805024915867" lon="6.379368168487382"><ele>554.0</ele><time>2026-04-18T18:38:32Z</time></trkpt><trkpt lat="46.268102591741176" lon="6.3795170031389805"><ele>554.0</ele><time>2026-04-18T18:38:33Z</time></trkpt><trkpt lat="46.268152652022856" lon="6.37966057577389"><ele>554.0</ele><time>2026-04-18T18:38:34Z</time></trkpt><trkpt lat="46.268208189260136" lon="6.3798036909706495"><ele>554.0</ele><time>2026-04-18T18:38:35Z</time></trkpt><trkpt lat="46.268264284627854" lon="6.3799488652485365"><ele>553.25</ele><time>2026-04-18T18:38:36Z</time></trkpt><trkpt lat="46.26832057674985" lon="6.380100050602677"><ele>552.5</ele><time>2026-04-18T18:38:37Z</time></trkpt><trkpt lat="46.26837540892421" lon="6.3802495681021325"><ele>551.75</ele><time>2026-04-18T18:38:38Z</time></trkpt><trkpt lat="46.26843051267573" lon="6.380399050140269"><ele>551.0</ele><time>2026-04-18T18:38:39Z</time></trkpt><trkpt lat="46.26848562775646" lon="6.380548663007806"><ele>550.4</ele><time>2026-04-18T18:38:40Z</time></trkpt><trkpt lat="46.26854227783828" lon="6.380693714564734"><ele>549.8</ele><time>2026-04-18T18:38:41Z</time></trkpt><trkpt lat="46.26859337676945" lon="6.380841938941128"><ele>549.1999999999999</ele><time>2026-04-18T18:38:42Z</time></trkpt><trkpt lat="46.2686380773603" lon="6.380982933712979"><ele>548.6</ele><time>2026-04-18T18:38:43Z</time></trkpt><trkpt lat="46.26868617099162" lon="6.381115689761376"><ele>548.0</ele><time>2026-04-18T18:38:44Z</time></trkpt><trkpt lat="46.26873831875527" lon="6.381246887214825"><ele>547.75</ele><time>2026-04-18T18:38:45Z</time></trkpt><trkpt lat="46.26879301881464" lon="6.381374089940925"><ele>547.5</ele><time>2026-04-18T18:38:46Z</time></trkpt><trkpt lat="46.268844302379726" lon="6.381506517993405"><ele>547.25</ele><time>2026-04-18T18:38:47Z</time></trkpt><trkpt lat="46.26889748284132" lon="6.381661978382863"><ele>547.0</ele><time>2026-04-18T18:38:48Z</time></trkpt><trkpt lat="46.268963334114645" lon="6.381848234587341"><ele>546.0</ele><time>2026-04-18T18:38:49Z</time></trkpt><trkpt lat="46.269038989101624" lon="6.382038342015526"><ele>545.0</ele><time>2026-04-18T18:38:50Z</time></trkpt><trkpt lat="46.26910710081106" lon="6.3822201356579535"><ele>544.0</ele><time>2026-04-18T18:38:51Z</time></trkpt><trkpt lat="46.26917689932261" lon="6.382409569927181"><ele>543.0</ele><time>2026-04-18T18:38:52Z</time></trkpt><trkpt lat="46.269250380916176" lon="6.382609376933132"><ele>543.0</ele><time>2026-04-18T18:38:53Z</time></trkpt><trkpt lat="46.26933079207949" lon="6.3828082478019565"><ele>543.0</ele><time>2026-04-18T18:38:54Z</time></trkpt><trkpt lat="46.26940272753954" lon="6.382994649191051"><ele>543.0</ele><time>2026-04-18T18:38:55Z</time></trkpt><trkpt lat="46.2694699846807" lon="6.383168901735959"><ele>543.0</ele><time>2026-04-18T18:38:56Z</time></trkpt><trkpt lat="46.269534029943785" lon="6.383334528306867"><ele>543.25</ele><time>2026-04-18T18:38:57Z</time></trkpt><trkpt lat="46.26959579638496" lon="6.383497648788729"><ele>543.5</ele><time>2026-04-18T18:38:58Z</time></trkpt><trkpt lat="46.26965514105817" lon="6.383659766742679"><ele>543.75</ele><time>2026-04-18T18:38:59Z</time></trkpt><trkpt lat="46.26971203550385" lon="6.383820550795765"><ele>544.0</ele><time>2026-04-18T18:39:00Z</time></trkpt><trkpt lat="46.26976767659535" lon="6.3839733573079975"><ele>544.0</ele><time>2026-04-18T18:39:01Z</time></trkpt><trkpt lat="46.26981576169524" lon="6.3841264336712245"><ele>544.0</ele><time>2026-04-18T18:39:02Z</time></trkpt><trkpt lat="46.269862737363994" lon="6.384282937040293"><ele>544.0</ele><time>2026-04-18T18:39:03Z</time></trkpt><trkpt lat="46.26991725444094" lon="6.384449344979468"><ele>544.0</ele><time>2026-04-18T18:39:04Z</time></trkpt><trkpt lat="46.26998482534282" lon="6.3846140763763035"><ele>544.25</ele><time>2026-04-18T18:39:05Z</time></trkpt><trkpt lat="46.27006047583946" lon="6.384784296561002"><ele>544.5</ele><time>2026-04-18T18:39:06Z</time></trkpt><trkpt lat="46.27013547463129" lon="6.384963521728423"><ele>544.75</ele><time>2026-04-18T18:39:07Z</time></trkpt><trkpt lat="46.27020546505121" lon="6.385150177200394"><ele>545.0</ele><time>2026-04-18T18:39:08Z</time></trkpt><trkpt lat="46.270271217839785" lon="6.385326638015369"><ele>545.0</ele><time>2026-04-18T18:39:09Z</time></trkpt><trkpt lat="46.270332154979016" lon="6.385491835268949"><ele>545.0</ele><time>2026-04-18T18:39:10Z</time></trkpt><trkpt lat="46.27038654687532" lon="6.385647095618668"><ele>545.0</ele><time>2026-04-18T18:39:11Z</time></trkpt><trkpt lat="46.27044022332003" lon="6.385797119731958"><ele>545.0</ele><time>2026-04-18T18:39:12Z</time></trkpt><trkpt lat="46.27049177447688" lon="6.385943442627732"><ele>545.5</ele><time>2026-04-18T18:39:13Z</time></trkpt><trkpt lat="46.270545662190244" lon="6.386088854284393"><ele>546.0</ele><time>2026-04-18T18:39:14Z</time></trkpt><trkpt lat="46.27060033055891" lon="6.386235798341673"><ele>546.5</ele><time>2026-04-18T18:39:15Z</time></trkpt><trkpt lat="46.27065962139118" lon="6.386385903569537"><ele>547.0</ele><time>2026-04-18T18:39:15.999Z</time></trkpt><trkpt lat="46.27072293570286" lon="6.386541733617561"><ele>547.5</ele><time>2026-04-18T18:39:16.999Z</time></trkpt><trkpt lat="46.27078224645424" lon="6.386701964700641"><ele>548.0</ele><time>2026-04-18T18:39:17.999Z</time></trkpt><trkpt lat="46.270837018067155" lon="6.386869975297602"><ele>548.5</ele><time>2026-04-18T18:39:18.999Z</time></trkpt><trkpt lat="46.27089055039106" lon="6.387031875173139"><ele>549.0</ele><time>2026-04-18T18:39:19.999Z</time></trkpt><trkpt lat="46.270946498585154" lon="6.387188820992505"><ele>549.75</ele><time>2026-04-18T18:39:20.999Z</time></trkpt><trkpt lat="46.27100785771005" lon="6.387345448769809"><ele>550.5</ele><time>2026-04-18T18:39:21.999Z</time></trkpt><trkpt lat="46.27107193410402" lon="6.387498489457417"><ele>551.25</ele><time>2026-04-18T18:39:22.999Z</time></trkpt><trkpt lat="46.27113244648264" lon="6.38765774213451"><ele>552.0</ele><time>2026-04-18T18:39:23.999Z</time></trkpt><trkpt lat="46.27119452495883" lon="6.387817146419961"><ele>552.0</ele><time>2026-04-18T18:39:24.999Z</time></trkpt><trkpt lat="46.27125633547897" lon="6.387980181356337"><ele>552.0</ele><time>2026-04-18T18:39:25.999Z</time></trkpt><trkpt lat="46.27131350985641" lon="6.388144059356136"><ele>552.0</ele><time>2026-04-18T18:39:26.999Z</time></trkpt><trkpt lat="46.27137018874352" lon="6.388305154712665"><ele>552.0</ele><time>2026-04-18T18:39:27.999Z</time></trkpt><trkpt lat="46.27142461927665" lon="6.388460518637796"><ele>552.25</ele><time>2026-04-18T18:39:28.999Z</time></trkpt><trkpt lat="46.27147672527333" lon="6.388610069791902"><ele>552.5</ele><time>2026-04-18T18:39:29.999Z</time></trkpt><trkpt lat="46.27152922195706" lon="6.388755096854433"><ele>552.75</ele><time>2026-04-18T18:39:30.999Z</time></trkpt><trkpt lat="46.271584450201885" lon="6.388895446732344"><ele>553.0</ele><time>2026-04-18T18:39:31.999Z</time></trkpt><trkpt lat="46.27164268891706" lon="6.389042593335543"><ele>553.25</ele><time>2026-04-18T18:39:32.999Z</time></trkpt><trkpt lat="46.27170786793869" lon="6.389204707619015"><ele>553.5</ele><time>2026-04-18T18:39:33.999Z</time></trkpt><trkpt lat="46.27176893180669" lon="6.38937561976061"><ele>553.75</ele><time>2026-04-18T18:39:34.999Z</time></trkpt><trkpt lat="46.27182241944539" lon="6.389546354982925"><ele>554.0</ele><time>2026-04-18T18:39:35.999Z</time></trkpt><trkpt lat="46.271883935831376" lon="6.389706200014494"><ele>554.5</ele><time>2026-04-18T18:39:36.999Z</time></trkpt><trkpt lat="46.27195062872617" lon="6.389852526169422"><ele>555.0</ele><time>2026-04-18T18:39:37.999Z</time></trkpt><trkpt lat="46.272016267725" lon="6.389993441488931"><ele>555.5</ele><time>2026-04-18T18:39:38.999Z</time></trkpt><trkpt lat="46.272077268892325" lon="6.390133442900065"><ele>556.0</ele><time>2026-04-18T18:39:39.999Z</time></trkpt><trkpt lat="46.272131292025286" lon="6.390289880920025"><ele>556.0</ele><time>2026-04-18T18:39:40.999Z</time></trkpt><trkpt lat="46.272190190476174" lon="6.390454825009906"><ele>556.0</ele><time>2026-04-18T18:39:41.999Z</time></trkpt><trkpt lat="46.27225174232158" lon="6.39062598154448"><ele>556.0</ele><time>2026-04-18T18:39:42.999Z</time></trkpt><trkpt lat="46.272313175930186" lon="6.390784561632413"><ele>556.0</ele><time>2026-04-18T18:39:43.999Z</time></trkpt><trkpt lat="46.272370911602266" lon="6.390936835530377"><ele>556.2</ele><time>2026-04-18T18:39:44.999Z</time></trkpt><trkpt lat="46.27242460438863" lon="6.391079171253405"><ele>556.4000000000001</ele><time>2026-04-18T18:39:45.999Z</time></trkpt><trkpt lat="46.272478024206755" lon="6.3912182640376525"><ele>556.6</ele><time>2026-04-18T18:39:46.999Z</time></trkpt><trkpt lat="46.27252530565843" lon="6.391352416208252"><ele>556.8000000000001</ele><time>2026-04-18T18:39:47.999Z</time></trkpt><trkpt lat="46.27256664423362" lon="6.391482363545783"><ele>557.0</ele><time>2026-04-18T18:39:48.999Z</time></trkpt><trkpt lat="46.27260982450978" lon="6.391604340345567"><ele>557.0</ele><time>2026-04-18T18:39:49.999Z</time></trkpt><trkpt lat="46.27265525510292" lon="6.3917265249016"><ele>557.0</ele><time>2026-04-18T18:39:50.999Z</time></trkpt><trkpt lat="46.27270796851382" lon="6.391849314252525"><ele>557.0</ele><time>2026-04-18T18:39:51.999Z</time></trkpt><trkpt lat="46.272759622432424" lon="6.391984803916255"><ele>557.0</ele><time>2026-04-18T18:39:52.999Z</time></trkpt><trkpt lat="46.272811401443356" lon="6.392129640611267"><ele>557.0</ele><time>2026-04-18T18:39:53.999Z</time></trkpt><trkpt lat="46.272862390081904" lon="6.392280954463323"><ele>556.5</ele><time>2026-04-18T18:39:54.999Z</time></trkpt><trkpt lat="46.27291298742019" lon="6.392441060446545"><ele>556.0</ele><time>2026-04-18T18:39:55.999Z</time></trkpt><trkpt lat="46.2729620721288" lon="6.392608451544628"><ele>555.5</ele><time>2026-04-18T18:39:56.999Z</time></trkpt><trkpt lat="46.273008492643065" lon="6.392784054046438"><ele>555.0</ele><time>2026-04-18T18:39:57.999Z</time></trkpt><trkpt lat="46.273055685471896" lon="6.392968836773009"><ele>555.5</ele><time>2026-04-18T18:39:58.999Z</time></trkpt><trkpt lat="46.27309519448668" lon="6.393144209205486"><ele>556.0</ele><time>2026-04-18T18:39:59.999Z</time></trkpt><trkpt lat="46.27313769665197" lon="6.39331191023451"><ele>556.5</ele><time>2026-04-18T18:40:00.999Z</time></trkpt><trkpt lat="46.273173100561905" lon="6.393467210390394"><ele>557.0</ele><time>2026-04-18T18:40:01.999Z</time></trkpt><trkpt lat="46.273209842028486" lon="6.393620673464234"><ele>557.0</ele><time>2026-04-18T18:40:02.999Z</time></trkpt><trkpt lat="46.273242152399725" lon="6.393755733697127"><ele>557.0</ele><time>2026-04-18T18:40:03.999Z</time></trkpt><trkpt lat="46.27327824549766" lon="6.393905090808442"><ele>557.0</ele><time>2026-04-18T18:40:04.999Z</time></trkpt><trkpt lat="46.27331436719738" lon="6.39404633983103"><ele>557.0</ele><time>2026-04-18T18:40:05.999Z</time></trkpt><trkpt lat="46.273350279863344" lon="6.394188953353819"><ele>557.0</ele><time>2026-04-18T18:40:06.999Z</time></trkpt><trkpt lat="46.27339428000428" lon="6.394341740597967"><ele>557.0</ele><time>2026-04-18T18:40:07.999Z</time></trkpt><trkpt lat="46.27344348908765" lon="6.39450566988463"><ele>557.0</ele><time>2026-04-18T18:40:08.999Z</time></trkpt><trkpt lat="46.27349344649003" lon="6.394670186790789"><ele>557.0</ele><time>2026-04-18T18:40:09.999Z</time></trkpt><trkpt lat="46.2735490255706" lon="6.394830808181479"><ele>557.0</ele><time>2026-04-18T18:40:10.999Z</time></trkpt><trkpt lat="46.27361167421637" lon="6.394971915659407"><ele>557.0</ele><time>2026-04-18T18:40:11.999Z</time></trkpt><trkpt lat="46.27367465550486" lon="6.395098607719208"><ele>557.0</ele><time>2026-04-18T18:40:12.999Z</time></trkpt><trkpt lat="46.2737417166534" lon="6.39522047180969"><ele>557.0</ele><time>2026-04-18T18:40:13.999Z</time></trkpt><trkpt lat="46.27381851890679" lon="6.395340538687991"><ele>557.0</ele><time>2026-04-18T18:40:14.999Z</time></trkpt><trkpt lat="46.273897429978256" lon="6.395457623215875"><ele>557.0</ele><time>2026-04-18T18:40:15.999Z</time></trkpt><trkpt lat="46.27398184151575" lon="6.395586285532223"><ele>556.25</ele><time>2026-04-18T18:40:16.999Z</time></trkpt><trkpt lat="46.27406467652792" lon="6.395722729775162"><ele>555.5</ele><time>2026-04-18T18:40:17.999Z</time></trkpt><trkpt lat="46.27414130955963" lon="6.395867430777948"><ele>554.75</ele><time>2026-04-18T18:40:18.999Z</time></trkpt><trkpt lat="46.27422973102623" lon="6.396008732860862"><ele>554.0</ele><time>2026-04-18T18:40:19.999Z</time></trkpt><trkpt lat="46.27431042939106" lon="6.396154240670473"><ele>554.0</ele><time>2026-04-18T18:40:20.999Z</time></trkpt><trkpt lat="46.27439240628167" lon="6.39629985773763"><ele>554.0</ele><time>2026-04-18T18:40:21.999Z</time></trkpt><trkpt lat="46.274472678047154" lon="6.39643618849552"><ele>554.0</ele><time>2026-04-18T18:40:22.999Z</time></trkpt><trkpt lat="46.27455764812288" lon="6.396567751003439"><ele>554.0</ele><time>2026-04-18T18:40:23.999Z</time></trkpt><trkpt lat="46.27464854204378" lon="6.396701159434252"><ele>554.25</ele><time>2026-04-18T18:40:24.999Z</time></trkpt><trkpt lat="46.274749347475634" lon="6.396832551919617"><ele>554.5</ele><time>2026-04-18T18:40:25.999Z</time></trkpt><trkpt lat="46.27485872468188" lon="6.396961221758648"><ele>554.75</ele><time>2026-04-18T18:40:26.999Z</time></trkpt><trkpt lat="46.27497433979962" lon="6.39709341867085"><ele>555.0</ele><time>2026-04-18T18:40:27.999Z</time></trkpt><trkpt lat="46.27509310529497" lon="6.39723724887082"><ele>554.3333333333334</ele><time>2026-04-18T18:40:28.998Z</time></trkpt><trkpt lat="46.27520665646971" lon="6.397380288313862"><ele>553.6666666666667</ele><time>2026-04-18T18:40:29.998Z</time></trkpt><trkpt lat="46.275325234185004" lon="6.397513193166362"><ele>553.0</ele><time>2026-04-18T18:40:30.998Z</time></trkpt><trkpt lat="46.275450154440925" lon="6.397639558559439"><ele>553.0</ele><time>2026-04-18T18:40:31.998Z</time></trkpt><trkpt lat="46.2755839118142" lon="6.397772331864646"><ele>553.0</ele><time>2026-04-18T18:40:32.998Z</time></trkpt><trkpt lat="46.275713469063575" lon="6.397903680665259"><ele>553.0</ele><time>2026-04-18T18:40:33.998Z</time></trkpt><trkpt lat="46.27583928951234" lon="6.398033088278291"><ele>552.75</ele><time>2026-04-18T18:40:34.998Z</time></trkpt><trkpt lat="46.2759635501572" lon="6.398148495097953"><ele>552.5</ele><time>2026-04-18T18:40:35.998Z</time></trkpt><trkpt lat="46.276087371598855" lon="6.39825317280703"><ele>552.25</ele><time>2026-04-18T18:40:36.998Z</time></trkpt><trkpt lat="46.27621557498512" lon="6.3983725665664775"><ele>552.0</ele><time>2026-04-18T18:40:38Z</time></trkpt><trkpt lat="46.27634453440678" lon="6.398518516399299"><ele>551.6666666666666</ele><time>2026-04-18T18:40:39Z</time></trkpt><trkpt lat="46.27646767794533" lon="6.398677476377412"><ele>551.3333333333333</ele><time>2026-04-18T18:40:40Z</time></trkpt><trkpt lat="46.276583598298224" lon="6.398830502765354"><ele>551.0</ele><time>2026-04-18T18:40:41Z</time></trkpt><trkpt lat="46.276686603410276" lon="6.398978865147087"><ele>551.5</ele><time>2026-04-18T18:40:42Z</time></trkpt><trkpt lat="46.27677749517854" lon="6.399125783659802"><ele>552.0</ele><time>2026-04-18T18:40:43Z</time></trkpt><trkpt lat="46.27686706443144" lon="6.399268889214888"><ele>552.5</ele><time>2026-04-18T18:40:44Z</time></trkpt><trkpt lat="46.276960558280756" lon="6.399410347301991"><ele>553.0</ele><time>2026-04-18T18:40:45Z</time></trkpt><trkpt lat="46.27705667586977" lon="6.399566568133437"><ele>553.0</ele><time>2026-04-18T18:40:46Z</time></trkpt><trkpt lat="46.27715600975086" lon="6.399732033024924"><ele>553.0</ele><time>2026-04-18T18:40:47Z</time></trkpt><trkpt lat="46.27725779987825" lon="6.3998994295426375"><ele>553.0</ele><time>2026-04-18T18:40:48Z</time></trkpt><trkpt lat="46.277363974668" lon="6.4000720914261"><ele>553.0</ele><time>2026-04-18T18:40:49Z</time></trkpt><trkpt lat="46.277478209326695" lon="6.400243483463229"><ele>553.0</ele><time>2026-04-18T18:40:50Z</time></trkpt><trkpt lat="46.27759786051015" lon="6.400419339236222"><ele>553.0</ele><time>2026-04-18T18:40:51Z</time></trkpt><trkpt lat="46.27771390476039" lon="6.4005920292635725"><ele>553.0</ele><time>2026-04-18T18:40:52Z</time></trkpt><trkpt lat="46.27782819288277" lon="6.400765377767832"><ele>553.0</ele><time>2026-04-18T18:40:53Z</time></trkpt><trkpt lat="46.27793558454037" lon="6.400934319881192"><ele>553.0</ele><time>2026-04-18T18:40:54Z</time></trkpt><trkpt lat="46.278044335072885" lon="6.401108856053153"><ele>552.0</ele><time>2026-04-18T18:40:55Z</time></trkpt><trkpt lat="46.27815880175381" lon="6.401292645612638"><ele>551.0</ele><time>2026-04-18T18:40:56Z</time></trkpt><trkpt lat="46.278282343089245" lon="6.401486554472964"><ele>550.0</ele><time>2026-04-18T18:40:57Z</time></trkpt><trkpt lat="46.278408364769305" lon="6.401686105125585"><ele>549.6666666666667</ele><time>2026-04-18T18:40:58Z</time></trkpt><trkpt lat="46.27853736749518" lon="6.401890976135319"><ele>549.3333333333334</ele><time>2026-04-18T18:40:59Z</time></trkpt><trkpt lat="46.27866214755867" lon="6.402081249668999"><ele>549.0</ele><time>2026-04-18T18:41:00Z</time></trkpt><trkpt lat="46.27878292095498" lon="6.402273521694812"><ele>549.0</ele><time>2026-04-18T18:41:01Z</time></trkpt><trkpt lat="46.27889268104179" lon="6.402468424310242"><ele>549.0</ele><time>2026-04-18T18:41:02Z</time></trkpt><trkpt lat="46.2789865371447" lon="6.402675548750282"><ele>549.0</ele><time>2026-04-18T18:41:03Z</time></trkpt><trkpt lat="46.27908168142401" lon="6.402904245754092"><ele>549.0</ele><time>2026-04-18T18:41:04Z</time></trkpt><trkpt lat="46.279166530330386" lon="6.403135359599541"><ele>549.0</ele><time>2026-04-18T18:41:05Z</time></trkpt><trkpt lat="46.27924202989816" lon="6.403357332190417"><ele>549.0</ele><time>2026-04-18T18:41:06Z</time></trkpt><trkpt lat="46.27930909244604" lon="6.40357518665102"><ele>549.0</ele><time>2026-04-18T18:41:07Z</time></trkpt><trkpt lat="46.27937413276627" lon="6.403782032167801"><ele>549.0</ele><time>2026-04-18T18:41:08Z</time></trkpt><trkpt lat="46.27943932541535" lon="6.403987466044772"><ele>549.0</ele><time>2026-04-18T18:41:09Z</time></trkpt><trkpt lat="46.279507537871815" lon="6.404198305723524"><ele>548.6666666666666</ele><time>2026-04-18T18:41:10Z</time></trkpt><trkpt lat="46.27957611632996" lon="6.404417900799696"><ele>548.3333333333333</ele><time>2026-04-18T18:41:11Z</time></trkpt><trkpt lat="46.279642923877525" lon="6.40463422660349"><ele>548.0</ele><time>2026-04-18T18:41:12Z</time></trkpt><trkpt lat="46.27971350252254" lon="6.4048443662048555"><ele>548.0</ele><time>2026-04-18T18:41:13Z</time></trkpt><trkpt lat="46.27978223045148" lon="6.405060564296712"><ele>548.0</ele><time>2026-04-18T18:41:14Z</time></trkpt><trkpt lat="46.27986093872376" lon="6.405259474516129"><ele>548.0</ele><time>2026-04-18T18:41:15Z</time></trkpt><trkpt lat="46.27995662427645" lon="6.405441485940551"><ele>548.3333333333333</ele><time>2026-04-18T18:41:16Z</time></trkpt><trkpt lat="46.28006891792032" lon="6.4056258124026515"><ele>548.6666666666666</ele><time>2026-04-18T18:41:17Z</time></trkpt><trkpt lat="46.280192832412624" lon="6.405812194582057"><ele>549.0</ele><time>2026-04-18T18:41:18Z</time></trkpt><trkpt lat="46.28032306315811" lon="6.4059813464914654"><ele>549.0</ele><time>2026-04-18T18:41:19Z</time></trkpt><trkpt lat="46.280447783075786" lon="6.40612156729617"><ele>549.0</ele><time>2026-04-18T18:41:20Z</time></trkpt><trkpt lat="46.28057524837061" lon="6.4062557022259305"><ele>549.0</ele><time>2026-04-18T18:41:21Z</time></trkpt><trkpt lat="46.280693997866415" lon="6.406384994032657"><ele>548.75</ele><time>2026-04-18T18:41:21.999Z</time></trkpt><trkpt lat="46.28080962523363" lon="6.406515246567309"><ele>548.5</ele><time>2026-04-18T18:41:22.999Z</time></trkpt><trkpt lat="46.28091826286985" lon="6.406643432628959"><ele>548.25</ele><time>2026-04-18T18:41:23.999Z</time></trkpt><trkpt lat="46.28102042152509" lon="6.406766292833671"><ele>548.0</ele><time>2026-04-18T18:41:24.999Z</time></trkpt><trkpt lat="46.28112095739853" lon="6.406896628022403"><ele>548.0</ele><time>2026-04-18T18:41:25.999Z</time></trkpt><trkpt lat="46.28120974376188" lon="6.407051390813231"><ele>548.0</ele><time>2026-04-18T18:41:26.999Z</time></trkpt><trkpt lat="46.281293660206295" lon="6.407223598090429"><ele>548.0</ele><time>2026-04-18T18:41:27.999Z</time></trkpt><trkpt lat="46.28137818072204" lon="6.4074081493178205"><ele>548.0</ele><time>2026-04-18T18:41:28.999Z</time></trkpt><trkpt lat="46.2814576732041" lon="6.407607951981393"><ele>547.0</ele><time>2026-04-18T18:41:29.999Z</time></trkpt><trkpt lat="46.28153188511648" lon="6.407834884701686"><ele>546.0</ele><time>2026-04-18T18:41:30.999Z</time></trkpt><trkpt lat="46.28159876274232" lon="6.408079562200079"><ele>545.0</ele><time>2026-04-18T18:41:31.999Z</time></trkpt><trkpt lat="46.28167211944938" lon="6.408325065929381"><ele>545.0</ele><time>2026-04-18T18:41:32.999Z</time></trkpt><trkpt lat="46.281752484040155" lon="6.408565432276099"><ele>545.0</ele><time>2026-04-18T18:41:33.999Z</time></trkpt><trkpt lat="46.28182356751723" lon="6.408797363400248"><ele>545.0</ele><time>2026-04-18T18:41:34.999Z</time></trkpt><trkpt lat="46.281886275535875" lon="6.409012001663579"><ele>545.0</ele><time>2026-04-18T18:41:35.999Z</time></trkpt><trkpt lat="46.28195430802289" lon="6.409225646409709"><ele>545.0</ele><time>2026-04-18T18:41:36.999Z</time></trkpt><trkpt lat="46.282018423283326" lon="6.409430075517405"><ele>545.0</ele><time>2026-04-18T18:41:37.999Z</time></trkpt><trkpt lat="46.28208093429947" lon="6.409629335234234"><ele>544.5</ele><time>2026-04-18T18:41:38.999Z</time></trkpt><trkpt lat="46.28214088601732" lon="6.409826169893197"><ele>544.0</ele><time>2026-04-18T18:41:39.999Z</time></trkpt><trkpt lat="46.28221181435258" lon="6.410014873657593"><ele>543.5</ele><time>2026-04-18T18:41:40.999Z</time></trkpt><trkpt lat="46.282291576279825" lon="6.410198952038521"><ele>543.0</ele><time>2026-04-18T18:41:41.999Z</time></trkpt><trkpt lat="46.28237166088758" lon="6.41036956707091"><ele>542.25</ele><time>2026-04-18T18:41:42.999Z</time></trkpt><trkpt lat="46.28245221294249" lon="6.410527516793782"><ele>541.5</ele><time>2026-04-18T18:41:43.999Z</time></trkpt><trkpt lat="46.28253364986755" lon="6.4106788491742455"><ele>540.75</ele><time>2026-04-18T18:41:44.999Z</time></trkpt><trkpt lat="46.28261183286646" lon="6.410819823709609"><ele>540.0</ele><time>2026-04-18T18:41:45.999Z</time></trkpt><trkpt lat="46.282690397752596" lon="6.410953411453961"><ele>540.0</ele><time>2026-04-18T18:41:46.999Z</time></trkpt><trkpt lat="46.28277112484451" lon="6.411074733014584"><ele>540.0</ele><time>2026-04-18T18:41:47.999Z</time></trkpt><trkpt lat="46.282852629404026" lon="6.41118071496613"><ele>540.0</ele><time>2026-04-18T18:41:48.999Z</time></trkpt><trkpt lat="46.28293480875784" lon="6.41128186790876"><ele>540.0</ele><time>2026-04-18T18:41:49.999Z</time></trkpt><trkpt lat="46.28301111644414" lon="6.411376321083855"><ele>540.0</ele><time>2026-04-18T18:41:50.999Z</time></trkpt><trkpt lat="46.283074466223226" lon="6.411465309003774"><ele>539.8333333333334</ele><time>2026-04-18T18:41:51.999Z</time></trkpt><trkpt lat="46.28312590830285" lon="6.411559485856412"><ele>539.6666666666666</ele><time>2026-04-18T18:41:52.999Z</time></trkpt><trkpt lat="46.28316253670751" lon="6.411661845062453"><ele>539.5</ele><time>2026-04-18T18:41:53.999Z</time></trkpt><trkpt lat="46.283182731039126" lon="6.411768771960362"><ele>539.3333333333333</ele><time>2026-04-18T18:41:54.999Z</time></trkpt><trkpt lat="46.28321218932937" lon="6.411868160412497"><ele>539.1666666666666</ele><time>2026-04-18T18:41:55.999Z</time></trkpt><trkpt lat="46.283265126471406" lon="6.411935787373628"><ele>539.0</ele><time>2026-04-18T18:41:56.999Z</time></trkpt><trkpt lat="46.28332794019249" lon="6.411976759685834"><ele>539.0</ele><time>2026-04-18T18:41:57.999Z</time></trkpt><trkpt lat="46.2834111284014" lon="6.412010172554918"><ele>539.0</ele><time>2026-04-18T18:41:58.999Z</time></trkpt><trkpt lat="46.28350022574186" lon="6.412012653899275"><ele>539.0</ele><time>2026-04-18T18:41:59.999Z</time></trkpt><trkpt lat="46.283569160142044" lon="6.412186741194242"><ele>539.0</ele><time>2026-04-18T18:42:00.999Z</time></trkpt><trkpt lat="46.283638540211705" lon="6.412325250803907"><ele>539.0</ele><time>2026-04-18T18:42:01.999Z</time></trkpt><trkpt lat="46.28370649250291" lon="6.412473265455041"><ele>539.25</ele><time>2026-04-18T18:42:02.999Z</time></trkpt><trkpt lat="46.2837805510526" lon="6.412617927515539"><ele>539.5</ele><time>2026-04-18T18:42:03.999Z</time></trkpt><trkpt lat="46.28386248517841" lon="6.412765890371076"><ele>539.75</ele><time>2026-04-18T18:42:04.999Z</time></trkpt><trkpt lat="46.283967110066804" lon="6.4129342167562"><ele>540.0</ele><time>2026-04-18T18:42:05.999Z</time></trkpt><trkpt lat="46.28408793441993" lon="6.413121546018951"><ele>540.0</ele><time>2026-04-18T18:42:06.999Z</time></trkpt><trkpt lat="46.28420615080347" lon="6.413341709247555"><ele>540.0</ele><time>2026-04-18T18:42:07.999Z</time></trkpt><trkpt lat="46.28433482823125" lon="6.41354608907566"><ele>540.0</ele><time>2026-04-18T18:42:08.999Z</time></trkpt><trkpt lat="46.28444769965281" lon="6.413723798698302"><ele>539.5</ele><time>2026-04-18T18:42:09.999Z</time></trkpt><trkpt lat="46.28456102797109" lon="6.4138687297038794"><ele>539.0</ele><time>2026-04-18T18:42:10.999Z</time></trkpt><trkpt lat="46.284649541415746" lon="6.414015575784681"><ele>538.5</ele><time>2026-04-18T18:42:11.999Z</time></trkpt><trkpt lat="46.28473380911342" lon="6.41415565024817"><ele>538.0</ele><time>2026-04-18T18:42:12.999Z</time></trkpt><trkpt lat="46.28481906424634" lon="6.414297856591274"><ele>538.0</ele><time>2026-04-18T18:42:13.999Z</time></trkpt><trkpt lat="46.28490790012622" lon="6.414446634755703"><ele>538.0</ele><time>2026-04-18T18:42:14.999Z</time></trkpt><trkpt lat="46.28499929609131" lon="6.4146051240045"><ele>538.0</ele><time>2026-04-18T18:42:15.999Z</time></trkpt><trkpt lat="46.28507343214425" lon="6.414765492669857"><ele>538.0</ele><time>2026-04-18T18:42:16.999Z</time></trkpt><trkpt lat="46.285135553241965" lon="6.414936483422472"><ele>539.25</ele><time>2026-04-18T18:42:17.999Z</time></trkpt><trkpt lat="46.28519380066682" lon="6.4151233854197"><ele>540.5</ele><time>2026-04-18T18:42:18.999Z</time></trkpt><trkpt lat="46.2852442382361" lon="6.415307015507639"><ele>541.75</ele><time>2026-04-18T18:42:19.999Z</time></trkpt><trkpt lat="46.285292319343114" lon="6.4154929818731015"><ele>543.0</ele><time>2026-04-18T18:42:20.999Z</time></trkpt><trkpt lat="46.28533455802339" lon="6.415670771879203"><ele>543.0</ele><time>2026-04-18T18:42:21.999Z</time></trkpt><trkpt lat="46.28537048729187" lon="6.415833679921102"><ele>543.0</ele><time>2026-04-18T18:42:22.999Z</time></trkpt><trkpt lat="46.28541560965896" lon="6.416019208306333"><ele>543.0</ele><time>2026-04-18T18:42:23.999Z</time></trkpt><trkpt lat="46.28545981025344" lon="6.4161958490115705"><ele>543.0</ele><time>2026-04-18T18:42:24.999Z</time></trkpt><trkpt lat="46.285504941417095" lon="6.4163682905462025"><ele>543.0</ele><time>2026-04-18T18:42:25.999Z</time></trkpt><trkpt lat="46.28554550463931" lon="6.4165392837679365"><ele>543.0</ele><time>2026-04-18T18:42:26.999Z</time></trkpt><trkpt lat="46.285583714983815" lon="6.416689502904141"><ele>543.0</ele><time>2026-04-18T18:42:27.999Z</time></trkpt><trkpt lat="46.2856157953306" lon="6.416827489033172"><ele>543.0</ele><time>2026-04-18T18:42:28.999Z</time></trkpt><trkpt lat="46.28565131187632" lon="6.416974008538758"><ele>543.0</ele><time>2026-04-18T18:42:29.999Z</time></trkpt><trkpt lat="46.28569042573641" lon="6.417126441146922"><ele>543.5</ele><time>2026-04-18T18:42:30.999Z</time></trkpt><trkpt lat="46.285728328917294" lon="6.417285873786089"><ele>544.0</ele><time>2026-04-18T18:42:31.999Z</time></trkpt><trkpt lat="46.28577828376427" lon="6.417464337024203"><ele>544.5</ele><time>2026-04-18T18:42:32.998Z</time></trkpt><trkpt lat="46.28583201192077" lon="6.417662454979135"><ele>545.0</ele><time>2026-04-18T18:42:33.998Z</time></trkpt><trkpt lat="46.28588337684887" lon="6.417884793230097"><ele>545.3333333333333</ele><time>2026-04-18T18:42:34.998Z</time></trkpt><trkpt lat="46.28593891901979" lon="6.418113612702556"><ele>545.6666666666666</ele><time>2026-04-18T18:42:35.998Z</time></trkpt><trkpt lat="46.28600150423067" lon="6.418358148779392"><ele>546.0</ele><time>2026-04-18T18:42:36.998Z</time></trkpt><trkpt lat="46.28605989637411" lon="6.418610235829917"><ele>546.6666666666666</ele><time>2026-04-18T18:42:37.998Z</time></trkpt><trkpt lat="46.28611364921316" lon="6.418847069276349"><ele>547.3333333333333</ele><time>2026-04-18T18:42:38.998Z</time></trkpt><trkpt lat="46.28616758861618" lon="6.419067791274199"><ele>548.0</ele><time>2026-04-18T18:42:39.998Z</time></trkpt><trkpt lat="46.286239890392594" lon="6.419278900220165"><ele>548.0</ele><time>2026-04-18T18:42:40.998Z</time></trkpt><trkpt lat="46.28632116195592" lon="6.419463412900786"><ele>548.0</ele><time>2026-04-18T18:42:41.998Z</time></trkpt><trkpt lat="46.28641642267477" lon="6.41963676699982"><ele>548.0</ele><time>2026-04-18T18:42:43Z</time></trkpt><trkpt lat="46.28651711497004" lon="6.419795346206198"><ele>550.0</ele><time>2026-04-18T18:42:44Z</time></trkpt><trkpt lat="46.28662017382759" lon="6.41992781477692"><ele>552.0</ele><time>2026-04-18T18:42:45Z</time></trkpt><trkpt lat="46.286724684934924" lon="6.420054993253286"><ele>554.0</ele><time>2026-04-18T18:42:46Z</time></trkpt><trkpt lat="46.28684996800688" lon="6.420177594689513"><ele>556.0</ele><time>2026-04-18T18:42:47Z</time></trkpt><trkpt lat="46.28698448854207" lon="6.420295635805496"><ele>556.0</ele><time>2026-04-18T18:42:48Z</time></trkpt><trkpt lat="46.287122914399085" lon="6.420407920356202"><ele>556.0</ele><time>2026-04-18T18:42:49Z</time></trkpt><trkpt lat="46.28725362581915" lon="6.420519060013482"><ele>556.0</ele><time>2026-04-18T18:42:50Z</time></trkpt><trkpt lat="46.28737622123237" lon="6.420633664358787"><ele>556.3333333333334</ele><time>2026-04-18T18:42:51Z</time></trkpt><trkpt lat="46.2875049517693" lon="6.420748031829519"><ele>556.6666666666666</ele><time>2026-04-18T18:42:52Z</time></trkpt><trkpt lat="46.287646766113866" lon="6.420869010417855"><ele>557.0</ele><time>2026-04-18T18:42:53Z</time></trkpt><trkpt lat="46.28779227080483" lon="6.420990751496893"><ele>557.0</ele><time>2026-04-18T18:42:54Z</time></trkpt><trkpt lat="46.287935228373584" lon="6.421120906335605"><ele>557.0</ele><time>2026-04-18T18:42:55Z</time></trkpt><trkpt lat="46.2880676799121" lon="6.421262305587101"><ele>557.0</ele><time>2026-04-18T18:42:56Z</time></trkpt><trkpt lat="46.28819506967001" lon="6.4214124343485155"><ele>557.0</ele><time>2026-04-18T18:42:57Z</time></trkpt><trkpt lat="46.28830603195063" lon="6.42160304171275"><ele>557.0</ele><time>2026-04-18T18:42:58Z</time></trkpt><trkpt lat="46.28842401020772" lon="6.4217909558876105"><ele>557.0</ele><time>2026-04-18T18:42:59Z</time></trkpt><trkpt lat="46.28854288179409" lon="6.421989294702923"><ele>556.6666666666666</ele><time>2026-04-18T18:43:00Z</time></trkpt><trkpt lat="46.288677548403996" lon="6.422216209887259"><ele>556.3333333333334</ele><time>2026-04-18T18:43:01Z</time></trkpt><trkpt lat="46.288826674702754" lon="6.422467411087352"><ele>556.0</ele><time>2026-04-18T18:43:02Z</time></trkpt><trkpt lat="46.288987512186914" lon="6.422735148038422"><ele>558.0</ele><time>2026-04-18T18:43:03Z</time></trkpt><trkpt lat="46.28917542232528" lon="6.423001283034815"><ele>560.0</ele><time>2026-04-18T18:43:04Z</time></trkpt><trkpt lat="46.2893677334649" lon="6.423294368108542"><ele>560.0</ele><time>2026-04-18T18:43:05Z</time></trkpt><trkpt lat="46.28957492085675" lon="6.423592035570979"><ele>560.0</ele><time>2026-04-18T18:43:06Z</time></trkpt><trkpt lat="46.28978975798787" lon="6.423892405583737"><ele>559.5</ele><time>2026-04-18T18:43:07Z</time></trkpt><trkpt lat="46.289990176686416" lon="6.424175052239519"><ele>559.0</ele><time>2026-04-18T18:43:08Z</time></trkpt><trkpt lat="46.29017155440409" lon="6.4244355671579845"><ele>560.5</ele><time>2026-04-18T18:43:09Z</time></trkpt><trkpt lat="46.29034749562167" lon="6.42469788908428"><ele>562.0</ele><time>2026-04-18T18:43:10Z</time></trkpt><trkpt lat="46.290522692852576" lon="6.424971263492146"><ele>562.0</ele><time>2026-04-18T18:43:11Z</time></trkpt><trkpt lat="46.29069952450574" lon="6.425262858618047"><ele>562.0</ele><time>2026-04-18T18:43:12Z</time></trkpt><trkpt lat="46.290874453474096" lon="6.425556157743356"><ele>563.5</ele><time>2026-04-18T18:43:13Z</time></trkpt><trkpt lat="46.29105918007368" lon="6.425851221939028"><ele>565.0</ele><time>2026-04-18T18:43:14Z</time></trkpt><trkpt lat="46.291250191686025" lon="6.426130905091005"><ele>566.5</ele><time>2026-04-18T18:43:15Z</time></trkpt><trkpt lat="46.29143685771942" lon="6.426386546497074"><ele>568.0</ele><time>2026-04-18T18:43:16Z</time></trkpt><trkpt lat="46.291601922280734" lon="6.426644549955603"><ele>568.0</ele><time>2026-04-18T18:43:17Z</time></trkpt><trkpt lat="46.2917833071766" lon="6.4268477576745795"><ele>568.0</ele><time>2026-04-18T18:43:18Z</time></trkpt><trkpt lat="46.29195836609829" lon="6.427040505214855"><ele>568.0</ele><time>2026-04-18T18:43:19Z</time></trkpt><trkpt lat="46.292156255020465" lon="6.4272146992022625"><ele>565.0</ele><time>2026-04-18T18:43:20Z</time></trkpt><trkpt lat="46.29236749585303" lon="6.427376630885132"><ele>562.0</ele><time>2026-04-18T18:43:21Z</time></trkpt><trkpt lat="46.2925978524151" lon="6.427505408645653"><ele>562.0</ele><time>2026-04-18T18:43:22Z</time></trkpt><trkpt lat="46.292843815548956" lon="6.427624955017045"><ele>562.0</ele><time>2026-04-18T18:43:23Z</time></trkpt><trkpt lat="46.293100396089656" lon="6.427750838832096"><ele>561.5</ele><time>2026-04-18T18:43:24Z</time></trkpt><trkpt lat="46.29336071165395" lon="6.427884788134477"><ele>561.0</ele><time>2026-04-18T18:43:24.999Z</time></trkpt><trkpt lat="46.29360774110954" lon="6.428011094101066"><ele>561.0</ele><time>2026-04-18T18:43:25.999Z</time></trkpt><trkpt lat="46.293834586121704" lon="6.428130820767117"><ele>561.0</ele><time>2026-04-18T18:43:26.999Z</time></trkpt><trkpt lat="46.29405453314879" lon="6.4282444361302336"><ele>560.0</ele><time>2026-04-18T18:43:27.999Z</time></trkpt><trkpt lat="46.29428055445973" lon="6.428362020968309"><ele>559.0</ele><time>2026-04-18T18:43:28.999Z</time></trkpt><trkpt lat="46.29451387609401" lon="6.428486924075066"><ele>559.0</ele><time>2026-04-18T18:43:29.999Z</time></trkpt><trkpt lat="46.294747966786396" lon="6.428612815505109"><ele>559.0</ele><time>2026-04-18T18:43:30.999Z</time></trkpt><trkpt lat="46.29497984687411" lon="6.428738421060378"><ele>558.0</ele><time>2026-04-18T18:43:31.999Z</time></trkpt><trkpt lat="46.29519610365943" lon="6.428865031386067"><ele>557.0</ele><time>2026-04-18T18:43:32.999Z</time></trkpt><trkpt lat="46.29539664230684" lon="6.428986543791414"><ele>557.0</ele><time>2026-04-18T18:43:33.999Z</time></trkpt><trkpt lat="46.295586879339204" lon="6.429114286633107"><ele>557.0</ele><time>2026-04-18T18:43:34.999Z</time></trkpt><trkpt lat="46.295767331314636" lon="6.429267088269217"><ele>557.0</ele><time>2026-04-18T18:43:35.999Z</time></trkpt><trkpt lat="46.29593977006519" lon="6.429452492862699"><ele>558.0</ele><time>2026-04-18T18:43:36.999Z</time></trkpt><trkpt lat="46.29610315938576" lon="6.429669588754206"><ele>559.0</ele><time>2026-04-18T18:43:37.999Z</time></trkpt><trkpt lat="46.29626558442869" lon="6.429913180202409"><ele>560.5</ele><time>2026-04-18T18:43:38.999Z</time></trkpt><trkpt lat="46.29642903846119" lon="6.430166386552717"><ele>562.0</ele><time>2026-04-18T18:43:39.999Z</time></trkpt><trkpt lat="46.296595127785075" lon="6.430414408339742"><ele>561.6666666666667</ele><time>2026-04-18T18:43:40.999Z</time></trkpt><trkpt lat="46.296745292884395" lon="6.4306451301378535"><ele>561.3333333333334</ele><time>2026-04-18T18:43:41.999Z</time></trkpt><trkpt lat="46.29688548263346" lon="6.430861231552723"><ele>561.0</ele><time>2026-04-18T18:43:42.999Z</time></trkpt><trkpt lat="46.29703041167841" lon="6.431080313053754"><ele>561.0</ele><time>2026-04-18T18:43:43.999Z</time></trkpt><trkpt lat="46.29718122096217" lon="6.431305284450096"><ele>561.0</ele><time>2026-04-18T18:43:44.999Z</time></trkpt><trkpt lat="46.2973363319598" lon="6.431534378937242"><ele>561.0</ele><time>2026-04-18T18:43:45.999Z</time></trkpt><trkpt lat="46.29748757848901" lon="6.431759151515234"><ele>562.3333333333334</ele><time>2026-04-18T18:43:46.999Z</time></trkpt><trkpt lat="46.29762981747242" lon="6.4319776489854625"><ele>563.6666666666667</ele><time>2026-04-18T18:43:47.999Z</time></trkpt><trkpt lat="46.29777083833718" lon="6.432189801626187"><ele>565.0</ele><time>2026-04-18T18:43:48.999Z</time></trkpt><trkpt lat="46.29791887870708" lon="6.432411475370284"><ele>565.0</ele><time>2026-04-18T18:43:49.999Z</time></trkpt><trkpt lat="46.2980693747855" lon="6.432668305512819"><ele>565.0</ele><time>2026-04-18T18:43:50.999Z</time></trkpt><trkpt lat="46.29823641043886" lon="6.432924323520066"><ele>561.5</ele><time>2026-04-18T18:43:51.999Z</time></trkpt><trkpt lat="46.29841070334073" lon="6.433190102541886"><ele>558.0</ele><time>2026-04-18T18:43:52.999Z</time></trkpt><trkpt lat="46.298579376399694" lon="6.433444709066602"><ele>558.0</ele><time>2026-04-18T18:43:53.999Z</time></trkpt><trkpt lat="46.29874785131138" lon="6.433659571261349"><ele>558.0</ele><time>2026-04-18T18:43:54.999Z</time></trkpt><trkpt lat="46.298907622327675" lon="6.433870223236142"><ele>558.0</ele><time>2026-04-18T18:43:55.999Z</time></trkpt><trkpt lat="46.299071724591336" lon="6.434055481579562"><ele>556.3333333333334</ele><time>2026-04-18T18:43:56.999Z</time></trkpt><trkpt lat="46.29923783285463" lon="6.434200371770138"><ele>554.6666666666667</ele><time>2026-04-18T18:43:57.999Z</time></trkpt><trkpt lat="46.29940641288362" lon="6.434327217872154"><ele>553.0</ele><time>2026-04-18T18:43:58.999Z</time></trkpt><trkpt lat="46.29958461941749" lon="6.434434115574258"><ele>549.5</ele><time>2026-04-18T18:43:59.999Z</time></trkpt><trkpt lat="46.299789881300086" lon="6.434519695824366"><ele>546.0</ele><time>2026-04-18T18:44:00.999Z</time></trkpt><trkpt lat="46.300016018700376" lon="6.434633516587769"><ele>550.5</ele><time>2026-04-18T18:44:01.999Z</time></trkpt><trkpt lat="46.300257703627416" lon="6.4347306310930685"><ele>555.0</ele><time>2026-04-18T18:44:02.999Z</time></trkpt><trkpt lat="46.30050675397799" lon="6.434818732155688"><ele>553.5</ele><time>2026-04-18T18:44:03.999Z</time></trkpt><trkpt lat="46.30073610125255" lon="6.434916442753195"><ele>552.0</ele><time>2026-04-18T18:44:04.999Z</time></trkpt><trkpt lat="46.30095169337912" lon="6.434997912683371"><ele>552.0</ele><time>2026-04-18T18:44:05.999Z</time></trkpt><trkpt lat="46.30115159343311" lon="6.435076283951133"><ele>552.0</ele><time>2026-04-18T18:44:06.999Z</time></trkpt><trkpt lat="46.30133032634534" lon="6.435149424645282"><ele>552.0</ele><time>2026-04-18T18:44:07.999Z</time></trkpt><trkpt lat="46.301496073863575" lon="6.435216941359442"><ele>550.75</ele><time>2026-04-18T18:44:08.999Z</time></trkpt><trkpt lat="46.301646177186015" lon="6.435279076480845"><ele>549.5</ele><time>2026-04-18T18:44:09.999Z</time></trkpt><trkpt lat="46.30178649563499" lon="6.435338132218779"><ele>548.25</ele><time>2026-04-18T18:44:10.999Z</time></trkpt><trkpt lat="46.30190476627454" lon="6.435391192482131"><ele>547.0</ele><time>2026-04-18T18:44:11.999Z</time></trkpt><trkpt lat="46.302013849623016" lon="6.435442232140741"><ele>547.3333333333334</ele><time>2026-04-18T18:44:12.999Z</time></trkpt><trkpt lat="46.30211317876429" lon="6.435490714147592"><ele>547.6666666666667</ele><time>2026-04-18T18:44:13.999Z</time></trkpt><trkpt lat="46.3022040799045" lon="6.435533967934677"><ele>548.0</ele><time>2026-04-18T18:44:14.999Z</time></trkpt><trkpt lat="46.30228299350168" lon="6.435569075153143"><ele>548.3333333333334</ele><time>2026-04-18T18:44:15.999Z</time></trkpt><trkpt lat="46.30235093147912" lon="6.4356003255730645"><ele>548.6666666666666</ele><time>2026-04-18T18:44:16.999Z</time></trkpt><trkpt lat="46.302413663148315" lon="6.43563377453619"><ele>549.0</ele><time>2026-04-18T18:44:17.999Z</time></trkpt><trkpt lat="46.30247564184225" lon="6.435670087017417"><ele>549.0</ele><time>2026-04-18T18:44:18.999Z</time></trkpt><trkpt lat="46.30253548031686" lon="6.435707430922544"><ele>549.0</ele><time>2026-04-18T18:44:19.999Z</time></trkpt><trkpt lat="46.3026446362688" lon="6.435772540250109"><ele>549.0</ele><time>2026-04-18T18:44:21.999Z</time></trkpt><trkpt lat="46.302741121554654" lon="6.435846129041876"><ele>549.0</ele><time>2026-04-18T18:44:23.999Z</time></trkpt><trkpt lat="46.302811611850466" lon="6.435904223994553"><ele>549.0</ele><time>2026-04-18T18:44:25.999Z</time></trkpt><trkpt lat="46.30288439165218" lon="6.435973126751883"><ele>549.0</ele><time>2026-04-18T18:44:49Z</time></trkpt><trkpt lat="46.3029723796821" lon="6.436084325005911"><ele>549.0</ele><time>2026-04-18T18:44:51Z</time></trkpt><trkpt lat="46.30304350161746" lon="6.4361581544262565"><ele>549.0</ele><time>2026-04-18T18:44:52Z</time></trkpt><trkpt lat="46.30312052185914" lon="6.436227060705232"><ele>549.0</ele><time>2026-04-18T18:44:53Z</time></trkpt><trkpt lat="46.303215514526066" lon="6.436310955826811"><ele>549.0</ele><time>2026-04-18T18:44:54Z</time></trkpt><trkpt lat="46.3033195806833" lon="6.436410610090052"><ele>549.5</ele><time>2026-04-18T18:44:55Z</time></trkpt><trkpt lat="46.3034357114986" lon="6.436532564765682"><ele>550.0</ele><time>2026-04-18T18:44:56Z</time></trkpt><trkpt lat="46.30355010987692" lon="6.436666830819193"><ele>550.5</ele><time>2026-04-18T18:44:57Z</time></trkpt><trkpt lat="46.30365788913799" lon="6.436796727872263"><ele>551.0</ele><time>2026-04-18T18:44:58Z</time></trkpt><trkpt lat="46.30376999402285" lon="6.436922692174153"><ele>551.0</ele><time>2026-04-18T18:44:59Z</time></trkpt><trkpt lat="46.30388431803254" lon="6.4370402214388465"><ele>551.0</ele><time>2026-04-18T18:45:00Z</time></trkpt><trkpt lat="46.304042614795335" lon="6.437237801679743"><ele>551.0</ele><time>2026-04-18T18:45:01Z</time></trkpt><trkpt lat="46.3041899923969" lon="6.437407277729501"><ele>550.6666666666666</ele><time>2026-04-18T18:45:02Z</time></trkpt><trkpt lat="46.30433832132529" lon="6.4375814194008285"><ele>550.3333333333334</ele><time>2026-04-18T18:45:03Z</time></trkpt><trkpt lat="46.3044838638688" lon="6.437754702494113"><ele>550.0</ele><time>2026-04-18T18:45:04Z</time></trkpt><trkpt lat="46.30461762807107" lon="6.437916361567033"><ele>550.3333333333334</ele><time>2026-04-18T18:45:05Z</time></trkpt><trkpt lat="46.30473518965173" lon="6.438065604372857"><ele>550.6666666666666</ele><time>2026-04-18T18:45:06Z</time></trkpt><trkpt lat="46.30485060280105" lon="6.438201024380067"><ele>551.0</ele><time>2026-04-18T18:45:07Z</time></trkpt><trkpt lat="46.304978353901966" lon="6.438325379198102"><ele>551.0</ele><time>2026-04-18T18:45:08Z</time></trkpt><trkpt lat="46.30512107335212" lon="6.4384375266892215"><ele>551.0</ele><time>2026-04-18T18:45:09Z</time></trkpt><trkpt lat="46.30526685336334" lon="6.438545973299508"><ele>551.0</ele><time>2026-04-18T18:45:10Z</time></trkpt><trkpt lat="46.30540560427638" lon="6.438646170693141"><ele>551.0</ele><time>2026-04-18T18:45:11Z</time></trkpt><trkpt lat="46.30554269716199" lon="6.438720207431422"><ele>551.0</ele><time>2026-04-18T18:45:12Z</time></trkpt><trkpt lat="46.30569583758326" lon="6.438790983817173"><ele>551.0</ele><time>2026-04-18T18:45:13Z</time></trkpt><trkpt lat="46.305865135914125" lon="6.438861226565234"><ele>549.6666666666666</ele><time>2026-04-18T18:45:14Z</time></trkpt><trkpt lat="46.30604516267484" lon="6.438924305721487"><ele>548.3333333333334</ele><time>2026-04-18T18:45:15Z</time></trkpt><trkpt lat="46.30621573666181" lon="6.4389887365319725"><ele>547.0</ele><time>2026-04-18T18:45:16Z</time></trkpt><trkpt lat="46.306374310047424" lon="6.439067039324342"><ele>545.6666666666667</ele><time>2026-04-18T18:45:17Z</time></trkpt><trkpt lat="46.306535379059326" lon="6.4391572860145585"><ele>544.3333333333334</ele><time>2026-04-18T18:45:18Z</time></trkpt><trkpt lat="46.306711077401694" lon="6.439238242123297"><ele>543.0</ele><time>2026-04-18T18:45:19Z</time></trkpt><trkpt lat="46.30688503647343" lon="6.439302349049293"><ele>543.0</ele><time>2026-04-18T18:45:20Z</time></trkpt><trkpt lat="46.30704911001733" lon="6.439355957171441"><ele>543.0</ele><time>2026-04-18T18:45:21Z</time></trkpt><trkpt lat="46.30719721511876" lon="6.439400696168225"><ele>543.0</ele><time>2026-04-18T18:45:22Z</time></trkpt><trkpt lat="46.30732650113804" lon="6.439446847142151"><ele>543.0</ele><time>2026-04-18T18:45:23Z</time></trkpt><trkpt lat="46.307444894101934" lon="6.439491345452497"><ele>543.0</ele><time>2026-04-18T18:45:24Z</time></trkpt><trkpt lat="46.30755089335736" lon="6.439524917282804"><ele>543.0</ele><time>2026-04-18T18:45:25Z</time></trkpt><trkpt lat="46.3076442977425" lon="6.4395524325763125"><ele>543.0</ele><time>2026-04-18T18:45:25.999Z</time></trkpt><trkpt lat="46.307746420241266" lon="6.439585706349146"><ele>543.0</ele><time>2026-04-18T18:45:26.999Z</time></trkpt><trkpt lat="46.30784911145732" lon="6.439619651026007"><ele>542.1999999999999</ele><time>2026-04-18T18:45:27.999Z</time></trkpt><trkpt lat="46.307960881129844" lon="6.439655655071256"><ele>541.4</ele><time>2026-04-18T18:45:28.999Z</time></trkpt><trkpt lat="46.30807159809803" lon="6.439690805118692"><ele>540.5999999999999</ele><time>2026-04-18T18:45:29.999Z</time></trkpt><trkpt lat="46.30817961603475" lon="6.439716603623113"><ele>539.8</ele><time>2026-04-18T18:45:30.999Z</time></trkpt><trkpt lat="46.308287214525365" lon="6.439737157948682"><ele>539.0</ele><time>2026-04-18T18:45:31.999Z</time></trkpt><trkpt lat="46.3084072671916" lon="6.439761981495702"><ele>538.3333333333333</ele><time>2026-04-18T18:45:32.999Z</time></trkpt><trkpt lat="46.30854353793996" lon="6.439789340130169"><ele>537.6666666666666</ele><time>2026-04-18T18:45:33.999Z</time></trkpt><trkpt lat="46.30869090779387" lon="6.439831452423541"><ele>537.0</ele><time>2026-04-18T18:45:34.999Z</time></trkpt><trkpt lat="46.308853424062214" lon="6.4398874601664495"><ele>535.6666666666666</ele><time>2026-04-18T18:45:35.999Z</time></trkpt><trkpt lat="46.3090276209982" lon="6.439953586256805"><ele>534.3333333333333</ele><time>2026-04-18T18:45:36.999Z</time></trkpt><trkpt lat="46.30921013606465" lon="6.440021504398079"><ele>533.0</ele><time>2026-04-18T18:45:37.999Z</time></trkpt><trkpt lat="46.309405044193596" lon="6.4401171513006945"><ele>533.0</ele><time>2026-04-18T18:45:38.999Z</time></trkpt><trkpt lat="46.30960178568954" lon="6.440240735293164"><ele>533.0</ele><time>2026-04-18T18:45:39.999Z</time></trkpt><trkpt lat="46.309795506789904" lon="6.440382764279926"><ele>533.0</ele><time>2026-04-18T18:45:40.999Z</time></trkpt><trkpt lat="46.30998626499439" lon="6.4405173098482456"><ele>530.3333333333333</ele><time>2026-04-18T18:45:41.999Z</time></trkpt><trkpt lat="46.310173778383685" lon="6.44061704852603"><ele>527.6666666666666</ele><time>2026-04-18T18:45:42.999Z</time></trkpt><trkpt lat="46.31037005258224" lon="6.440685905557448"><ele>525.0</ele><time>2026-04-18T18:45:43.999Z</time></trkpt><trkpt lat="46.31058109039525" lon="6.44072238219768"><ele>522.5</ele><time>2026-04-18T18:45:44.999Z</time></trkpt><trkpt lat="46.31081305210703" lon="6.440713797960679"><ele>520.0</ele><time>2026-04-18T18:45:45.999Z</time></trkpt><trkpt lat="46.31106076035152" lon="6.440683653776294"><ele>520.0</ele><time>2026-04-18T18:45:46.999Z</time></trkpt><trkpt lat="46.31133370772101" lon="6.440634169990987"><ele>520.0</ele><time>2026-04-18T18:45:47.999Z</time></trkpt><trkpt lat="46.31162378177552" lon="6.440591267371261"><ele>517.5</ele><time>2026-04-18T18:45:48.999Z</time></trkpt><trkpt lat="46.31192842962254" lon="6.440551552416197"><ele>515.0</ele><time>2026-04-18T18:45:49.999Z</time></trkpt><trkpt lat="46.31221654260567" lon="6.440508913431481"><ele>511.0</ele><time>2026-04-18T18:45:50.999Z</time></trkpt><trkpt lat="46.31250788727926" lon="6.440463607428257"><ele>507.0</ele><time>2026-04-18T18:45:51.999Z</time></trkpt><trkpt lat="46.31280201641875" lon="6.440431848632267"><ele>506.5</ele><time>2026-04-18T18:45:52.999Z</time></trkpt><trkpt lat="46.313082209506895" lon="6.440420752696408"><ele>506.0</ele><time>2026-04-18T18:45:53.999Z</time></trkpt><trkpt lat="46.31335002753629" lon="6.44042848654893"><ele>510.0</ele><time>2026-04-18T18:45:54.999Z</time></trkpt><trkpt lat="46.313608964719045" lon="6.440467612078008"><ele>514.0</ele><time>2026-04-18T18:45:55.999Z</time></trkpt><trkpt lat="46.313861656832394" lon="6.440546281069104"><ele>513.0</ele><time>2026-04-18T18:45:56.999Z</time></trkpt><trkpt lat="46.31411700345736" lon="6.440666859001693"><ele>512.0</ele><time>2026-04-18T18:45:57.999Z</time></trkpt><trkpt lat="46.314367628318195" lon="6.440819943403839"><ele>512.0</ele><time>2026-04-18T18:45:58.999Z</time></trkpt><trkpt lat="46.31462522585516" lon="6.440990811184876"><ele>512.0</ele><time>2026-04-18T18:45:59.999Z</time></trkpt><trkpt lat="46.31489140044826" lon="6.441150670559308"><ele>510.5</ele><time>2026-04-18T18:46:00.999Z</time></trkpt><trkpt lat="46.31514007188624" lon="6.44127437770904"><ele>509.0</ele><time>2026-04-18T18:46:01.999Z</time></trkpt><trkpt lat="46.31538467816156" lon="6.441365572215119"><ele>517.5</ele><time>2026-04-18T18:46:02.999Z</time></trkpt><trkpt lat="46.315638820642235" lon="6.4414204100237"><ele>526.0</ele><time>2026-04-18T18:46:03.999Z</time></trkpt><trkpt lat="46.31589997576748" lon="6.441448716365404"><ele>526.0</ele><time>2026-04-18T18:46:04.999Z</time></trkpt><trkpt lat="46.31617275219055" lon="6.441464434057176"><ele>526.0</ele><time>2026-04-18T18:46:05.999Z</time></trkpt><trkpt lat="46.31645637595645" lon="6.441477373626403"><ele>526.5</ele><time>2026-04-18T18:46:06.999Z</time></trkpt><trkpt lat="46.31675154152602" lon="6.441496753546083"><ele>527.0</ele><time>2026-04-18T18:46:07.999Z</time></trkpt><trkpt lat="46.31705563624958" lon="6.441522050399991"><ele>523.0</ele><time>2026-04-18T18:46:08.999Z</time></trkpt><trkpt lat="46.3173698800732" lon="6.441551576463003"><ele>519.0</ele><time>2026-04-18T18:46:09.999Z</time></trkpt><trkpt lat="46.31769616264486" lon="6.441581690511142"><ele>519.0</ele><time>2026-04-18T18:46:10.999Z</time></trkpt><trkpt lat="46.31803047825031" lon="6.4416129776196405"><ele>519.0</ele><time>2026-04-18T18:46:11.999Z</time></trkpt><trkpt lat="46.31836672256944" lon="6.441648679576126"><ele>515.5</ele><time>2026-04-18T18:46:12.999Z</time></trkpt><trkpt lat="46.31869892111722" lon="6.441685304353163"><ele>512.0</ele><time>2026-04-18T18:46:13.999Z</time></trkpt><trkpt lat="46.31900918500967" lon="6.441733062710124"><ele>508.5</ele><time>2026-04-18T18:46:14.999Z</time></trkpt><trkpt lat="46.319302997245096" lon="6.441781494907389"><ele>505.0</ele><time>2026-04-18T18:46:15.999Z</time></trkpt><trkpt lat="46.319605228805266" lon="6.441839355298267"><ele>503.5</ele><time>2026-04-18T18:46:16.999Z</time></trkpt><trkpt lat="46.319917210052765" lon="6.441901000082018"><ele>502.0</ele><time>2026-04-18T18:46:17.999Z</time></trkpt><trkpt lat="46.32023069420836" lon="6.441961782036348"><ele>502.0</ele><time>2026-04-18T18:46:18.999Z</time></trkpt><trkpt lat="46.32055134318519" lon="6.442023537257953"><ele>502.0</ele><time>2026-04-18T18:46:19.999Z</time></trkpt><trkpt lat="46.320860777485535" lon="6.442082724598682"><ele>504.0</ele><time>2026-04-18T18:46:20.999Z</time></trkpt><trkpt lat="46.32114953056846" lon="6.442139770293992"><ele>506.0</ele><time>2026-04-18T18:46:21.999Z</time></trkpt><trkpt lat="46.32143375372004" lon="6.4421939470385"><ele>506.0</ele><time>2026-04-18T18:46:22.999Z</time></trkpt><trkpt lat="46.32171910632195" lon="6.442256268443601"><ele>506.0</ele><time>2026-04-18T18:46:23.999Z</time></trkpt><trkpt lat="46.322008502276056" lon="6.442333059841318"><ele>501.5</ele><time>2026-04-18T18:46:24.999Z</time></trkpt><trkpt lat="46.32229349032228" lon="6.4424254658598"><ele>497.0</ele><time>2026-04-18T18:46:25.999Z</time></trkpt><trkpt lat="46.32258137408641" lon="6.442544952135238"><ele>497.0</ele><time>2026-04-18T18:46:26.999Z</time></trkpt><trkpt lat="46.32286379307865" lon="6.442682220167052"><ele>497.0</ele><time>2026-04-18T18:46:27.999Z</time></trkpt><trkpt lat="46.323132374905434" lon="6.4428329267697295"><ele>502.5</ele><time>2026-04-18T18:46:28.999Z</time></trkpt><trkpt lat="46.32338009121977" lon="6.442989309845869"><ele>508.0</ele><time>2026-04-18T18:46:29.999Z</time></trkpt><trkpt lat="46.32360978098702" lon="6.443137958036413"><ele>508.0</ele><time>2026-04-18T18:46:30.999Z</time></trkpt><trkpt lat="46.323811593991344" lon="6.443269420170861"><ele>508.0</ele><time>2026-04-18T18:46:31.999Z</time></trkpt><trkpt lat="46.32399383492574" lon="6.44338800741994"><ele>508.0</ele><time>2026-04-18T18:46:32.999Z</time></trkpt><trkpt lat="46.32415859921311" lon="6.44349785204526"><ele>509.25</ele><time>2026-04-18T18:46:33.998Z</time></trkpt><trkpt lat="46.32430012780608" lon="6.4435965923553145"><ele>510.5</ele><time>2026-04-18T18:46:34.998Z</time></trkpt><trkpt lat="46.32443172393089" lon="6.443690107712705"><ele>511.75</ele><time>2026-04-18T18:46:35.998Z</time></trkpt><trkpt lat="46.32454364963514" lon="6.443777897521567"><ele>513.0</ele><time>2026-04-18T18:46:36.998Z</time></trkpt><trkpt lat="46.324644355841286" lon="6.443860540823352"><ele>511.79999999999995</ele><time>2026-04-18T18:46:37.998Z</time></trkpt><trkpt lat="46.324733132814394" lon="6.443945884632115"><ele>510.59999999999997</ele><time>2026-04-18T18:46:38.998Z</time></trkpt><trkpt lat="46.32480813937132" lon="6.444036402120609"><ele>509.40000000000003</ele><time>2026-04-18T18:46:39.998Z</time></trkpt><trkpt lat="46.324866089358416" lon="6.4441373370609"><ele>508.20000000000005</ele><time>2026-04-18T18:46:40.998Z</time></trkpt><trkpt lat="46.32491373554409" lon="6.444240648310162"><ele>507.0</ele><time>2026-04-18T18:46:41.998Z</time></trkpt><trkpt lat="46.32497725213961" lon="6.444312296111836"><ele>507.0</ele><time>2026-04-18T18:46:42.998Z</time></trkpt><trkpt lat="46.325058689142445" lon="6.444349193115449"><ele>507.00000000000006</ele><time>2026-04-18T18:46:43.998Z</time></trkpt><trkpt lat="46.32515686225744" lon="6.444360185795242"><ele>507.00000000000006</ele><time>2026-04-18T18:46:44.998Z</time></trkpt><trkpt lat="46.32526961001059" lon="6.444375902994775"><ele>507.0</ele><time>2026-04-18T18:46:45.998Z</time></trkpt><trkpt lat="46.325389418094275" lon="6.4444435766801105"><ele>507.0</ele><time>2026-04-18T18:46:46.998Z</time></trkpt><trkpt lat="46.32551327434932" lon="6.4445611957257505"><ele>509.0</ele><time>2026-04-18T18:46:47.998Z</time></trkpt><trkpt lat="46.32565014800622" lon="6.444699941146875"><ele>511.0</ele><time>2026-04-18T18:46:48.998Z</time></trkpt><trkpt lat="46.32580476421585" lon="6.444840140240496"><ele>513.0</ele><time>2026-04-18T18:46:49.998Z</time></trkpt><trkpt lat="46.325980482138135" lon="6.444980788956685"><ele>513.0</ele><time>2026-04-18T18:46:50.998Z</time></trkpt><trkpt lat="46.32617424030389" lon="6.445110424139573"><ele>513.0</ele><time>2026-04-18T18:46:51.998Z</time></trkpt><trkpt lat="46.32638196536928" lon="6.445240118974227"><ele>513.0</ele><time>2026-04-18T18:46:52.998Z</time></trkpt><trkpt lat="46.326596316869576" lon="6.445371996274479"><ele>515.5</ele><time>2026-04-18T18:46:53.998Z</time></trkpt><trkpt lat="46.32681787593338" lon="6.445504448644676"><ele>518.0</ele><time>2026-04-18T18:46:55Z</time></trkpt><trkpt lat="46.32705305952184" lon="6.445627829997892"><ele>515.5</ele><time>2026-04-18T18:46:56Z</time></trkpt><trkpt lat="46.32729408314341" lon="6.445742506880921"><ele>513.0</ele><time>2026-04-18T18:46:57Z</time></trkpt><trkpt lat="46.327529024131294" lon="6.445845804436921"><ele>513.0</ele><time>2026-04-18T18:46:58Z</time></trkpt><trkpt lat="46.327743552315255" lon="6.445933798628972"><ele>513.0</ele><time>2026-04-18T18:46:59Z</time></trkpt><trkpt lat="46.327936306769246" lon="6.446008304989952"><ele>513.0</ele><time>2026-04-18T18:47:00Z</time></trkpt><trkpt lat="46.328115842872556" lon="6.446077122612728"><ele>513.3333333333334</ele><time>2026-04-18T18:47:01Z</time></trkpt><trkpt lat="46.328277835481366" lon="6.446143385554627"><ele>513.6666666666667</ele><time>2026-04-18T18:47:02Z</time></trkpt><trkpt lat="46.32843090315619" lon="6.446210314563139"><ele>514.0</ele><time>2026-04-18T18:47:03Z</time></trkpt><trkpt lat="46.328575083596995" lon="6.446275052095411"><ele>514.75</ele><time>2026-04-18T18:47:04Z</time></trkpt><trkpt lat="46.32870537746634" lon="6.446334597161201"><ele>515.5</ele><time>2026-04-18T18:47:05Z</time></trkpt><trkpt lat="46.32881746021604" lon="6.446397354327655"><ele>516.25</ele><time>2026-04-18T18:47:06Z</time></trkpt><trkpt lat="46.32891726982603" lon="6.446470217704633"><ele>517.0</ele><time>2026-04-18T18:47:07Z</time></trkpt><trkpt lat="46.328997637862905" lon="6.44656544365117"><ele>517.6</ele><time>2026-04-18T18:47:08Z</time></trkpt><trkpt lat="46.32906443692882" lon="6.446680207976487"><ele>518.2</ele><time>2026-04-18T18:47:09Z</time></trkpt><trkpt lat="46.32913225756104" lon="6.446764266522914"><ele>518.8</ele><time>2026-04-18T18:47:10Z</time></trkpt><trkpt lat="46.32923081348955" lon="6.44680600970588"><ele>519.4</ele><time>2026-04-18T18:47:11Z</time></trkpt><trkpt lat="46.32934363214997" lon="6.446828594136338"><ele>520.0</ele><time>2026-04-18T18:47:12Z</time></trkpt><trkpt lat="46.329468464473685" lon="6.446883744586692"><ele>520.0</ele><time>2026-04-18T18:47:13Z</time></trkpt><trkpt lat="46.329593476167844" lon="6.447005806679642"><ele>520.0</ele><time>2026-04-18T18:47:14Z</time></trkpt><trkpt lat="46.32971943189039" lon="6.447158482696661"><ele>520.0</ele><time>2026-04-18T18:47:15Z</time></trkpt><trkpt lat="46.32985711970892" lon="6.447322218757941"><ele>522.3333333333334</ele><time>2026-04-18T18:47:16Z</time></trkpt><trkpt lat="46.330010253269286" lon="6.447495510574629"><ele>524.6666666666666</ele><time>2026-04-18T18:47:17Z</time></trkpt><trkpt lat="46.33017322821973" lon="6.447691837495325"><ele>527.0</ele><time>2026-04-18T18:47:18Z</time></trkpt><trkpt lat="46.33033915937708" lon="6.447911319002581"><ele>529.0</ele><time>2026-04-18T18:47:19Z</time></trkpt><trkpt lat="46.330509674318" lon="6.448155653391064"><ele>531.0</ele><time>2026-04-18T18:47:20Z</time></trkpt><trkpt lat="46.330692134911764" lon="6.448418063148237"><ele>531.0</ele><time>2026-04-18T18:47:21Z</time></trkpt><trkpt lat="46.330892335604545" lon="6.448684554087058"><ele>531.0</ele><time>2026-04-18T18:47:22Z</time></trkpt><trkpt lat="46.33110347614496" lon="6.44893865515458"><ele>530.5</ele><time>2026-04-18T18:47:23Z</time></trkpt><trkpt lat="46.331321776600525" lon="6.449161390118945"><ele>530.0</ele><time>2026-04-18T18:47:24Z</time></trkpt><trkpt lat="46.33156035297956" lon="6.449368978352345"><ele>529.5</ele><time>2026-04-18T18:47:25Z</time></trkpt><trkpt lat="46.331810408708506" lon="6.44956463296562"><ele>529.0</ele><time>2026-04-18T18:47:26Z</time></trkpt><trkpt lat="46.332074316013816" lon="6.449752883528573"><ele>533.0</ele><time>2026-04-18T18:47:27Z</time></trkpt><trkpt lat="46.33235055922292" lon="6.449933931898467"><ele>537.0</ele><time>2026-04-18T18:47:28Z</time></trkpt><trkpt lat="46.33262292556545" lon="6.450106451013585"><ele>537.0</ele><time>2026-04-18T18:47:29Z</time></trkpt><trkpt lat="46.332869393808124" lon="6.450272952969073"><ele>537.0</ele><time>2026-04-18T18:47:30Z</time></trkpt><trkpt lat="46.33309936686305" lon="6.450460052890062"><ele>537.0</ele><time>2026-04-18T18:47:31Z</time></trkpt><trkpt lat="46.33332105868243" lon="6.4506638219374794"><ele>537.0</ele><time>2026-04-18T18:47:32Z</time></trkpt><trkpt lat="46.333541543668055" lon="6.450891312361969"><ele>537.0</ele><time>2026-04-18T18:47:32.999Z</time></trkpt><trkpt lat="46.33375466921799" lon="6.4511421921492325"><ele>537.0</ele><time>2026-04-18T18:47:33.999Z</time></trkpt><trkpt lat="46.333967915951206" lon="6.451421188780454"><ele>536.0</ele><time>2026-04-18T18:47:34.999Z</time></trkpt><trkpt lat="46.33417873063831" lon="6.451715602970218"><ele>535.0</ele><time>2026-04-18T18:47:35.999Z</time></trkpt><trkpt lat="46.33439537411306" lon="6.452026683953327"><ele>534.5</ele><time>2026-04-18T18:47:36.999Z</time></trkpt><trkpt lat="46.33460508873419" lon="6.4523259593692766"><ele>534.0</ele><time>2026-04-18T18:47:37.999Z</time></trkpt><trkpt lat="46.33480509868983" lon="6.452612954716925"><ele>533.0</ele><time>2026-04-18T18:47:38.999Z</time></trkpt><trkpt lat="46.334995306698005" lon="6.452883319059839"><ele>532.0</ele><time>2026-04-18T18:47:39.999Z</time></trkpt><trkpt lat="46.33518145779573" lon="6.453145811905266"><ele>531.5</ele><time>2026-04-18T18:47:40.999Z</time></trkpt><trkpt lat="46.33536398270071" lon="6.453405715610847"><ele>531.0</ele><time>2026-04-18T18:47:41.999Z</time></trkpt><trkpt lat="46.335540991112964" lon="6.453661494999908"><ele>527.5</ele><time>2026-04-18T18:47:42.999Z</time></trkpt><trkpt lat="46.335716218181496" lon="6.453908554477774"><ele>524.0</ele><time>2026-04-18T18:47:43.999Z</time></trkpt><trkpt lat="46.33588709072413" lon="6.4541515600839405"><ele>524.0</ele><time>2026-04-18T18:47:44.999Z</time></trkpt><trkpt lat="46.33605001158461" lon="6.454386291225728"><ele>524.0</ele><time>2026-04-18T18:47:45.999Z</time></trkpt><trkpt lat="46.33621345676841" lon="6.454616411152245"><ele>523.6666666666666</ele><time>2026-04-18T18:47:46.999Z</time></trkpt><trkpt lat="46.33636922953323" lon="6.454835876508427"><ele>523.3333333333334</ele><time>2026-04-18T18:47:47.999Z</time></trkpt><trkpt lat="46.336519672155895" lon="6.4550488539645166"><ele>523.0</ele><time>2026-04-18T18:47:48.999Z</time></trkpt><trkpt lat="46.33666130486686" lon="6.455250580501847"><ele>520.6666666666667</ele><time>2026-04-18T18:47:49.999Z</time></trkpt><trkpt lat="46.33679703839432" lon="6.455436772626532"><ele>518.3333333333334</ele><time>2026-04-18T18:47:50.999Z</time></trkpt><trkpt lat="46.33691963600221" lon="6.455620124289696"><ele>516.0</ele><time>2026-04-18T18:47:51.999Z</time></trkpt><trkpt lat="46.33704234310447" lon="6.455793297125736"><ele>515.6666666666666</ele><time>2026-04-18T18:47:52.999Z</time></trkpt><trkpt lat="46.33716110424696" lon="6.455959069348213"><ele>515.3333333333333</ele><time>2026-04-18T18:47:53.999Z</time></trkpt><trkpt lat="46.33727596496558" lon="6.456117157898062"><ele>515.0</ele><time>2026-04-18T18:47:54.999Z</time></trkpt><trkpt lat="46.33739188499093" lon="6.4562718736213665"><ele>514.25</ele><time>2026-04-18T18:47:55.999Z</time></trkpt><trkpt lat="46.33750864082407" lon="6.456414490129661"><ele>513.5</ele><time>2026-04-18T18:47:56.999Z</time></trkpt><trkpt lat="46.33762509236163" lon="6.456545454237396"><ele>512.75</ele><time>2026-04-18T18:47:57.999Z</time></trkpt><trkpt lat="46.3377436271949" lon="6.456672943207234"><ele>512.0</ele><time>2026-04-18T18:47:58.999Z</time></trkpt><trkpt lat="46.33786260134478" lon="6.456790387997658"><ele>512.0</ele><time>2026-04-18T18:47:59.999Z</time></trkpt><trkpt lat="46.33798533792164" lon="6.4569019989755025"><ele>512.0</ele><time>2026-04-18T18:48:00.999Z</time></trkpt><trkpt lat="46.33810528948221" lon="6.457012856522207"><ele>512.0</ele><time>2026-04-18T18:48:01.999Z</time></trkpt><trkpt lat="46.338226868579326" lon="6.45711922281412"><ele>512.0</ele><time>2026-04-18T18:48:02.999Z</time></trkpt><trkpt lat="46.33835016053237" lon="6.457220864755952"><ele>511.3333333333333</ele><time>2026-04-18T18:48:03.999Z</time></trkpt><trkpt lat="46.33848787071716" lon="6.457334386463066"><ele>510.66666666666663</ele><time>2026-04-18T18:48:04.999Z</time></trkpt><trkpt lat="46.338617207830325" lon="6.457442676793604"><ele>510.0</ele><time>2026-04-18T18:48:05.999Z</time></trkpt><trkpt lat="46.33874579454119" lon="6.457555294431611"><ele>510.0</ele><time>2026-04-18T18:48:06.999Z</time></trkpt><trkpt lat="46.33887202007776" lon="6.457673094165327"><ele>510.0</ele><time>2026-04-18T18:48:07.999Z</time></trkpt><trkpt lat="46.338992426273" lon="6.457786799088331"><ele>510.0</ele><time>2026-04-18T18:48:08.999Z</time></trkpt><trkpt lat="46.33910786647603" lon="6.457898335683149"><ele>510.0</ele><time>2026-04-18T18:48:09.999Z</time></trkpt><trkpt lat="46.33922010928854" lon="6.458015699024904"><ele>509.5</ele><time>2026-04-18T18:48:10.999Z</time></trkpt><trkpt lat="46.33932928450935" lon="6.458136939028048"><ele>509.0</ele><time>2026-04-18T18:48:11.999Z</time></trkpt><trkpt lat="46.33943500259064" lon="6.458263175054391"><ele>508.5</ele><time>2026-04-18T18:48:12.999Z</time></trkpt><trkpt lat="46.33953381498632" lon="6.458395626244004"><ele>508.0</ele><time>2026-04-18T18:48:13.999Z</time></trkpt><trkpt lat="46.33962821719626" lon="6.458531773038791"><ele>505.25</ele><time>2026-04-18T18:48:14.999Z</time></trkpt><trkpt lat="46.33972078566252" lon="6.458670799042421"><ele>502.5</ele><time>2026-04-18T18:48:15.999Z</time></trkpt><trkpt lat="46.33980889472393" lon="6.45880896837281"><ele>499.75</ele><time>2026-04-18T18:48:16.999Z</time></trkpt><trkpt lat="46.33989482129139" lon="6.458943998886466"><ele>497.0</ele><time>2026-04-18T18:48:17.999Z</time></trkpt><trkpt lat="46.33997700096998" lon="6.459078419457765"><ele>497.0</ele><time>2026-04-18T18:48:18.999Z</time></trkpt><trkpt lat="46.34005698599027" lon="6.459211931377748"><ele>497.0</ele><time>2026-04-18T18:48:19.999Z</time></trkpt><trkpt lat="46.34013086048199" lon="6.459353839748056"><ele>497.0</ele><time>2026-04-18T18:48:20.999Z</time></trkpt><trkpt lat="46.34019834870428" lon="6.4595007755884675"><ele>497.0</ele><time>2026-04-18T18:48:21.999Z</time></trkpt><trkpt lat="46.34026536934391" lon="6.459647889677875"><ele>497.25</ele><time>2026-04-18T18:48:22.999Z</time></trkpt><trkpt lat="46.34033252305668" lon="6.45979596421565"><ele>497.5</ele><time>2026-04-18T18:48:23.999Z</time></trkpt><trkpt lat="46.34039709230414" lon="6.459950496856213"><ele>497.75</ele><time>2026-04-18T18:48:24.999Z</time></trkpt><trkpt lat="46.34046207510145" lon="6.460116539958815"><ele>498.0</ele><time>2026-04-18T18:48:25.999Z</time></trkpt><trkpt lat="46.34052237305719" lon="6.460284741299673"><ele>495.5</ele><time>2026-04-18T18:48:26.999Z</time></trkpt><trkpt lat="46.340577406239134" lon="6.460449955452671"><ele>493.0</ele><time>2026-04-18T18:48:27.999Z</time></trkpt><trkpt lat="46.34063148021942" lon="6.460611543961679"><ele>490.5</ele><time>2026-04-18T18:48:28.999Z</time></trkpt><trkpt lat="46.34068217714132" lon="6.460771274303199"><ele>488.0</ele><time>2026-04-18T18:48:29.999Z</time></trkpt><trkpt lat="46.3407321853829" lon="6.460928251662621"><ele>488.0</ele><time>2026-04-18T18:48:30.999Z</time></trkpt><trkpt lat="46.34078299536423" lon="6.461088734636029"><ele>488.0</ele><time>2026-04-18T18:48:31.999Z</time></trkpt><trkpt lat="46.34083201442775" lon="6.461253299000455"><ele>488.0</ele><time>2026-04-18T18:48:32.999Z</time></trkpt><trkpt lat="46.340883914361086" lon="6.4614192871487"><ele>488.0</ele><time>2026-04-18T18:48:33.999Z</time></trkpt><trkpt lat="46.3409436551028" lon="6.461601604384153"><ele>488.0</ele><time>2026-04-18T18:48:34.999Z</time></trkpt><trkpt lat="46.34101477103134" lon="6.461785399492182"><ele>488.0</ele><time>2026-04-18T18:48:35.999Z</time></trkpt><trkpt lat="46.341097607301926" lon="6.461968553004169"><ele>488.0</ele><time>2026-04-18T18:48:36.999Z</time></trkpt><trkpt lat="46.341187486749156" lon="6.462154605722365"><ele>488.0</ele><time>2026-04-18T18:48:37.999Z</time></trkpt><trkpt lat="46.34128208119284" lon="6.462342744867077"><ele>488.0</ele><time>2026-04-18T18:48:38.999Z</time></trkpt><trkpt lat="46.34137726260646" lon="6.462518342172908"><ele>488.0</ele><time>2026-04-18T18:48:39.999Z</time></trkpt><trkpt lat="46.34148135256861" lon="6.462689589198549"><ele>486.0</ele><time>2026-04-18T18:48:40.999Z</time></trkpt><trkpt lat="46.34159139340698" lon="6.462848819334686"><ele>484.0</ele><time>2026-04-18T18:48:41.998Z</time></trkpt><trkpt lat="46.34171134020034" lon="6.463009985793577"><ele>482.0</ele><time>2026-04-18T18:48:42.998Z</time></trkpt><trkpt lat="46.34183590489238" lon="6.463170540002735"><ele>482.0</ele><time>2026-04-18T18:48:43.998Z</time></trkpt><trkpt lat="46.341960817234224" lon="6.463320825177745"><ele>482.0</ele><time>2026-04-18T18:48:44.998Z</time></trkpt><trkpt lat="46.342085670813965" lon="6.463461778806765"><ele>482.0</ele><time>2026-04-18T18:48:45.998Z</time></trkpt><trkpt lat="46.34221376229458" lon="6.463595478481644"><ele>480.66666666666663</ele><time>2026-04-18T18:48:46.998Z</time></trkpt><trkpt lat="46.342344841110275" lon="6.463726030339629"><ele>479.33333333333337</ele><time>2026-04-18T18:48:47.998Z</time></trkpt><trkpt lat="46.34248578699277" lon="6.463853997161739"><ele>478.0</ele><time>2026-04-18T18:48:48.998Z</time></trkpt><trkpt lat="46.34263380224363" lon="6.46397627571814"><ele>477.33333333333337</ele><time>2026-04-18T18:48:49.998Z</time></trkpt><trkpt lat="46.342788148530424" lon="6.464088830023715"><ele>476.66666666666663</ele><time>2026-04-18T18:48:50.998Z</time></trkpt><trkpt lat="46.34293671918518" lon="6.464189514630776"><ele>476.0</ele><time>2026-04-18T18:48:51.998Z</time></trkpt><trkpt lat="46.343085325537956" lon="6.464280062640883"><ele>476.0</ele><time>2026-04-18T18:48:52.998Z</time></trkpt><trkpt lat="46.34323557214173" lon="6.464361170954435"><ele>476.0</ele><time>2026-04-18T18:48:53.998Z</time></trkpt><trkpt lat="46.34339031468446" lon="6.464434743368916"><ele>476.0</ele><time>2026-04-18T18:48:54.998Z</time></trkpt><trkpt lat="46.343548339238126" lon="6.464493493906822"><ele>476.0</ele><time>2026-04-18T18:48:55.998Z</time></trkpt><trkpt lat="46.34371383156186" lon="6.464534621480845"><ele>476.0</ele><time>2026-04-18T18:48:56.998Z</time></trkpt><trkpt lat="46.343824501120224" lon="6.464598060428611"><ele>476.0</ele><time>2026-04-18T18:48:57.998Z</time></trkpt><trkpt lat="46.343982485473276" lon="6.464632826591444"><ele>476.0</ele><time>2026-04-18T18:48:58.998Z</time></trkpt><trkpt lat="46.34413829982316" lon="6.464660191568853"><ele>476.75</ele><time>2026-04-18T18:49:00Z</time></trkpt><trkpt lat="46.34429133211664" lon="6.464680193034495"><ele>477.5</ele><time>2026-04-18T18:49:01Z</time></trkpt><trkpt lat="46.34443816158983" lon="6.464698891431143"><ele>478.25</ele><time>2026-04-18T18:49:02Z</time></trkpt><trkpt lat="46.34457737914246" lon="6.464710903644603"><ele>479.0</ele><time>2026-04-18T18:49:03Z</time></trkpt><trkpt lat="46.344723947893556" lon="6.464706069005959"><ele>479.0</ele><time>2026-04-18T18:49:04Z</time></trkpt><trkpt lat="46.34488188758714" lon="6.464695888146041"><ele>479.0</ele><time>2026-04-18T18:49:05Z</time></trkpt><trkpt lat="46.34504613038954" lon="6.464689340658245"><ele>479.0</ele><time>2026-04-18T18:49:06Z</time></trkpt><trkpt lat="46.345217973996604" lon="6.464696282636769"><ele>479.0</ele><time>2026-04-18T18:49:07Z</time></trkpt><trkpt lat="46.34539516332777" lon="6.464701072055172"><ele>479.0</ele><time>2026-04-18T18:49:08Z</time></trkpt><trkpt lat="46.3455696528994" lon="6.464704112817844"><ele>479.0</ele><time>2026-04-18T18:49:09Z</time></trkpt><trkpt lat="46.34574566534" lon="6.464717259498445"><ele>478.0</ele><time>2026-04-18T18:49:10Z</time></trkpt><trkpt lat="46.345929659873306" lon="6.4647635478524546"><ele>477.0</ele><time>2026-04-18T18:49:11Z</time></trkpt><trkpt lat="46.346130662745324" lon="6.464801206398083"><ele>476.0</ele><time>2026-04-18T18:49:12Z</time></trkpt><trkpt lat="46.34633404050649" lon="6.46485241819668"><ele>475.3333333333333</ele><time>2026-04-18T18:49:13Z</time></trkpt><trkpt lat="46.346544703029856" lon="6.464919632125378"><ele>474.66666666666663</ele><time>2026-04-18T18:49:14Z</time></trkpt><trkpt lat="46.34675481948262" lon="6.46500996989127"><ele>474.0</ele><time>2026-04-18T18:49:15Z</time></trkpt><trkpt lat="46.34695108105536" lon="6.465106108183654"><ele>474.0</ele><time>2026-04-18T18:49:16Z</time></trkpt><trkpt lat="46.34713573105225" lon="6.465183781371588"><ele>474.0</ele><time>2026-04-18T18:49:17Z</time></trkpt><trkpt lat="46.34728635909199" lon="6.465315438570184"><ele>474.0</ele><time>2026-04-18T18:49:18Z</time></trkpt><trkpt lat="46.347433745828596" lon="6.46542559345367"><ele>472.66666666666663</ele><time>2026-04-18T18:49:19Z</time></trkpt><trkpt lat="46.347585636884084" lon="6.465543025333466"><ele>471.3333333333333</ele><time>2026-04-18T18:49:20Z</time></trkpt><trkpt lat="46.34775395740643" lon="6.465680053026275"><ele>470.0</ele><time>2026-04-18T18:49:21Z</time></trkpt><trkpt lat="46.347945453833375" lon="6.465833370319837"><ele>471.0</ele><time>2026-04-18T18:49:22Z</time></trkpt><trkpt lat="46.34813799288629" lon="6.465974746655632"><ele>472.0</ele><time>2026-04-18T18:49:23Z</time></trkpt><trkpt lat="46.348307812347954" lon="6.466111943182843"><ele>473.0</ele><time>2026-04-18T18:49:24Z</time></trkpt><trkpt lat="46.34847177038161" lon="6.466237265832262"><ele>472.0</ele><time>2026-04-18T18:49:25Z</time></trkpt><trkpt lat="46.34862906570942" lon="6.466351626889028"><ele>471.0</ele><time>2026-04-18T18:49:26Z</time></trkpt><trkpt lat="46.34878972722016" lon="6.466457720443297"><ele>470.0</ele><time>2026-04-18T18:49:27Z</time></trkpt><trkpt lat="46.34895303290313" lon="6.466566536903405"><ele>469.0</ele><time>2026-04-18T18:49:28Z</time></trkpt><trkpt lat="46.34912864297067" lon="6.466665493219072"><ele>468.0</ele><time>2026-04-18T18:49:29Z</time></trkpt><trkpt lat="46.349295887324004" lon="6.466758714971278"><ele>467.0</ele><time>2026-04-18T18:49:30Z</time></trkpt><trkpt lat="46.34945774710397" lon="6.466837486077974"><ele>467.0</ele><time>2026-04-18T18:49:31Z</time></trkpt><trkpt lat="46.34961208795124" lon="6.466912298378425"><ele>467.0</ele><time>2026-04-18T18:49:32Z</time></trkpt><trkpt lat="46.34975796415905" lon="6.466982212420207"><ele>467.0</ele><time>2026-04-18T18:49:33Z</time></trkpt><trkpt lat="46.349894644673356" lon="6.467048534490977"><ele>467.25</ele><time>2026-04-18T18:49:34Z</time></trkpt><trkpt lat="46.350031866455126" lon="6.4671123673460755"><ele>467.5</ele><time>2026-04-18T18:49:35Z</time></trkpt><trkpt lat="46.3501667498375" lon="6.467167817510473"><ele>467.75</ele><time>2026-04-18T18:49:36Z</time></trkpt><trkpt lat="46.350295444991445" lon="6.467206785057454"><ele>468.0</ele><time>2026-04-18T18:49:37Z</time></trkpt><trkpt lat="46.35042841466529" lon="6.467234552609102"><ele>468.75</ele><time>2026-04-18T18:49:38Z</time></trkpt><trkpt lat="46.350553097319484" lon="6.467261586820464"><ele>469.5</ele><time>2026-04-18T18:49:39Z</time></trkpt><trkpt lat="46.350680913074065" lon="6.467286194352181"><ele>470.25</ele><time>2026-04-18T18:49:40Z</time></trkpt><trkpt lat="46.35079498134005" lon="6.467314356090818"><ele>471.0</ele><time>2026-04-18T18:49:41Z</time></trkpt><trkpt lat="46.350905363632656" lon="6.467343268448128"><ele>471.0</ele><time>2026-04-18T18:49:41.999Z</time></trkpt><trkpt lat="46.35101056690082" lon="6.4673684926448365"><ele>471.0</ele><time>2026-04-18T18:49:42.999Z</time></trkpt><trkpt lat="46.35110712551136" lon="6.467392415739684"><ele>471.0</ele><time>2026-04-18T18:49:43.999Z</time></trkpt><trkpt lat="46.35119419571063" lon="6.467417536589018"><ele>471.0</ele><time>2026-04-18T18:49:44.999Z</time></trkpt><trkpt lat="46.351271803088316" lon="6.467443758946599"><ele>471.0</ele><time>2026-04-18T18:49:45.999Z</time></trkpt><trkpt lat="46.35133259534491" lon="6.467470333077143"><ele>471.0</ele><time>2026-04-18T18:49:46.999Z</time></trkpt><trkpt lat="46.35139427496728" lon="6.467512669340735"><ele>469.20000000000005</ele><time>2026-04-18T18:49:47.999Z</time></trkpt><trkpt lat="46.35145103572327" lon="6.467582710123452"><ele>467.40000000000003</ele><time>2026-04-18T18:49:48.999Z</time></trkpt><trkpt lat="46.35150350249057" lon="6.467660006840118"><ele>465.6</ele><time>2026-04-18T18:49:49.999Z</time></trkpt><trkpt lat="46.35161745482707" lon="6.467704658692063"><ele>463.8</ele><time>2026-04-18T18:49:51.999Z</time></trkpt><trkpt lat="46.35167938647373" lon="6.46766584855386"><ele>462.0</ele><time>2026-04-18T18:49:52.999Z</time></trkpt><trkpt lat="46.351734368743536" lon="6.46750184583535"><ele>462.0</ele><time>2026-04-18T18:49:54.999Z</time></trkpt><trkpt lat="46.35172096460256" lon="6.467405791184671"><ele>462.00000000000006</ele><time>2026-04-18T18:49:55.999Z</time></trkpt><trkpt lat="46.351679724644846" lon="6.467299155400657"><ele>462.00000000000006</ele><time>2026-04-18T18:49:56.999Z</time></trkpt><trkpt lat="46.351630389928204" lon="6.4671840518146135"><ele>462.0</ele><time>2026-04-18T18:49:57.999Z</time></trkpt><trkpt lat="46.35159483306261" lon="6.467025014575672"><ele>462.0</ele><time>2026-04-18T18:49:58.999Z</time></trkpt><trkpt lat="46.35157702038571" lon="6.466844651482213"><ele>462.25</ele><time>2026-04-18T18:49:59.999Z</time></trkpt><trkpt lat="46.351540133506425" lon="6.466661896580351"><ele>462.5</ele><time>2026-04-18T18:50:00.999Z</time></trkpt><trkpt lat="46.35147514700997" lon="6.466485332645416"><ele>462.75</ele><time>2026-04-18T18:50:01.999Z</time></trkpt><trkpt lat="46.35138849286599" lon="6.466319444299805"><ele>463.0</ele><time>2026-04-18T18:50:02.999Z</time></trkpt><trkpt lat="46.35128066224715" lon="6.466162442898498"><ele>464.0</ele><time>2026-04-18T18:50:03.999Z</time></trkpt><trkpt lat="46.351165589801305" lon="6.4660145621364995"><ele>465.0</ele><time>2026-04-18T18:50:04.999Z</time></trkpt><trkpt lat="46.35105943339625" lon="6.465871312185417"><ele>466.0</ele><time>2026-04-18T18:50:05.999Z</time></trkpt><trkpt lat="46.35096354393221" lon="6.465719188700071"><ele>467.0</ele><time>2026-04-18T18:50:06.999Z</time></trkpt><trkpt lat="46.35088453226506" lon="6.465539578324503"><ele>465.3333333333333</ele><time>2026-04-18T18:50:07.999Z</time></trkpt><trkpt lat="46.350818799164315" lon="6.465321292695742"><ele>463.66666666666663</ele><time>2026-04-18T18:50:08.999Z</time></trkpt><trkpt lat="46.3507692400332" lon="6.465074919150879"><ele>462.0</ele><time>2026-04-18T18:50:09.999Z</time></trkpt><trkpt lat="46.350727718113866" lon="6.464801575511"><ele>461.33333333333337</ele><time>2026-04-18T18:50:10.999Z</time></trkpt><trkpt lat="46.35068183158202" lon="6.464497573141826"><ele>460.6666666666667</ele><time>2026-04-18T18:50:11.999Z</time></trkpt><trkpt lat="46.35063343444656" lon="6.464168895840499"><ele>460.0</ele><time>2026-04-18T18:50:12.999Z</time></trkpt><trkpt lat="46.35057558757522" lon="6.463840814747917"><ele>463.5</ele><time>2026-04-18T18:50:13.999Z</time></trkpt><trkpt lat="46.35050209444048" lon="6.4635206258817925"><ele>467.0</ele><time>2026-04-18T18:50:14.999Z</time></trkpt><trkpt lat="46.350407010243785" lon="6.463214466923626"><ele>465.66666666666663</ele><time>2026-04-18T18:50:15.999Z</time></trkpt><trkpt lat="46.35031236767106" lon="6.462936581242426"><ele>464.33333333333337</ele><time>2026-04-18T18:50:16.999Z</time></trkpt><trkpt lat="46.35022601002414" lon="6.462678520720348"><ele>463.0</ele><time>2026-04-18T18:50:17.999Z</time></trkpt><trkpt lat="46.3501602524665" lon="6.462438163228437"><ele>463.0</ele><time>2026-04-18T18:50:18.999Z</time></trkpt><trkpt lat="46.350120057386434" lon="6.462192245011868"><ele>463.0</ele><time>2026-04-18T18:50:19.999Z</time></trkpt><trkpt lat="46.350114131368045" lon="6.461929157591389"><ele>463.0</ele><time>2026-04-18T18:50:20.999Z</time></trkpt><trkpt lat="46.35013386261846" lon="6.461644512359394"><ele>462.0</ele><time>2026-04-18T18:50:21.999Z</time></trkpt><trkpt lat="46.35016798851634" lon="6.461352878972947"><ele>461.0</ele><time>2026-04-18T18:50:22.999Z</time></trkpt><trkpt lat="46.350191902165264" lon="6.461081712958989"><ele>460.0</ele><time>2026-04-18T18:50:23.999Z</time></trkpt><trkpt lat="46.35020759987083" lon="6.460835146622667"><ele>460.0</ele><time>2026-04-18T18:50:24.999Z</time></trkpt><trkpt lat="46.35022150303601" lon="6.460617009676057"><ele>460.0</ele><time>2026-04-18T18:50:25.999Z</time></trkpt><trkpt lat="46.350244463364774" lon="6.4604208318269025"><ele>460.0</ele><time>2026-04-18T18:50:26.999Z</time></trkpt><trkpt lat="46.3502850912121" lon="6.460248777797459"><ele>460.0</ele><time>2026-04-18T18:50:27.999Z</time></trkpt><trkpt lat="46.35035365433356" lon="6.460097610985963"><ele>460.0</ele><time>2026-04-18T18:50:28.999Z</time></trkpt><trkpt lat="46.350446079579235" lon="6.459979484244096"><ele>460.0</ele><time>2026-04-18T18:50:29.999Z</time></trkpt><trkpt lat="46.350561917640654" lon="6.459901856988144"><ele>460.0</ele><time>2026-04-18T18:50:30.999Z</time></trkpt><trkpt lat="46.350701177268014" lon="6.459865304411601"><ele>460.0</ele><time>2026-04-18T18:50:31.999Z</time></trkpt><trkpt lat="46.350858613207194" lon="6.459866022188062"><ele>459.75</ele><time>2026-04-18T18:50:32.999Z</time></trkpt><trkpt lat="46.35100804018801" lon="6.459861512161804"><ele>459.5</ele><time>2026-04-18T18:50:33.999Z</time></trkpt><trkpt lat="46.351139308312604" lon="6.459829796096961"><ele>459.25</ele><time>2026-04-18T18:50:34.999Z</time></trkpt><trkpt lat="46.35125918236177" lon="6.45977800178455"><ele>459.0</ele><time>2026-04-18T18:50:35.999Z</time></trkpt><trkpt lat="46.35137026391974" lon="6.459707494380847"><ele>458.75</ele><time>2026-04-18T18:50:36.999Z</time></trkpt><trkpt lat="46.35148944452434" lon="6.459645353097688"><ele>458.5</ele><time>2026-04-18T18:50:37.999Z</time></trkpt><trkpt lat="46.35161846341902" lon="6.459622567333432"><ele>458.25</ele><time>2026-04-18T18:50:38.999Z</time></trkpt><trkpt lat="46.351745029985956" lon="6.459643973437519"><ele>458.0</ele><time>2026-04-18T18:50:39.999Z</time></trkpt><trkpt lat="46.351881097181995" lon="6.4597005025990715"><ele>458.0</ele><time>2026-04-18T18:50:40.999Z</time></trkpt><trkpt lat="46.3520196436273" lon="6.459807190359615"><ele>458.0</ele><time>2026-04-18T18:50:41.999Z</time></trkpt><trkpt lat="46.35216691605593" lon="6.459948375876199"><ele>458.0</ele><time>2026-04-18T18:50:42.999Z</time></trkpt><trkpt lat="46.35233217185827" lon="6.46011045608131"><ele>458.0</ele><time>2026-04-18T18:50:43.999Z</time></trkpt><trkpt lat="46.35249510129977" lon="6.460302481308048"><ele>458.0</ele><time>2026-04-18T18:50:44.999Z</time></trkpt><trkpt lat="46.352662335707095" lon="6.46051415297229"><ele>458.0</ele><time>2026-04-18T18:50:45.999Z</time></trkpt><trkpt lat="46.35283883268267" lon="6.460741132326902"><ele>458.0</ele><time>2026-04-18T18:50:46.999Z</time></trkpt><trkpt lat="46.353019964728624" lon="6.460985225921979"><ele>458.0</ele><time>2026-04-18T18:50:47.999Z</time></trkpt><trkpt lat="46.353196673002685" lon="6.461258017201646"><ele>458.0</ele><time>2026-04-18T18:50:48.999Z</time></trkpt><trkpt lat="46.353363096969474" lon="6.46157769267417"><ele>458.0</ele><time>2026-04-18T18:50:49.999Z</time></trkpt><trkpt lat="46.35351933199221" lon="6.461920283199256"><ele>458.5</ele><time>2026-04-18T18:50:50.998Z</time></trkpt><trkpt lat="46.35366228219127" lon="6.4622930742780245"><ele>459.0</ele><time>2026-04-18T18:50:51.998Z</time></trkpt><trkpt lat="46.35379093828728" lon="6.462673936231521"><ele>461.0</ele><time>2026-04-18T18:50:52.998Z</time></trkpt><trkpt lat="46.35391672583595" lon="6.463085181857259"><ele>463.0</ele><time>2026-04-18T18:50:53.998Z</time></trkpt><trkpt lat="46.35404119925931" lon="6.463521735209675"><ele>462.0</ele><time>2026-04-18T18:50:54.998Z</time></trkpt><trkpt lat="46.35416206301177" lon="6.4639792214519405"><ele>461.0</ele><time>2026-04-18T18:50:55.998Z</time></trkpt><trkpt lat="46.35427622426871" lon="6.464462077230366"><ele>461.0</ele><time>2026-04-18T18:50:56.998Z</time></trkpt><trkpt lat="46.35437089681031" lon="6.464957189898674"><ele>461.0</ele><time>2026-04-18T18:50:57.998Z</time></trkpt><trkpt lat="46.354441220241" lon="6.465439273133412"><ele>461.0</ele><time>2026-04-18T18:50:58.998Z</time></trkpt><trkpt lat="46.354495266242935" lon="6.46592677309201"><ele>461.0</ele><time>2026-04-18T18:50:59.998Z</time></trkpt><trkpt lat="46.35453447880282" lon="6.466432580218694"><ele>460.5</ele><time>2026-04-18T18:51:00.998Z</time></trkpt><trkpt lat="46.35456275712575" lon="6.466955388306735"><ele>460.0</ele><time>2026-04-18T18:51:01.998Z</time></trkpt><trkpt lat="46.35457627804264" lon="6.467490744754146"><ele>460.5</ele><time>2026-04-18T18:51:02.998Z</time></trkpt><trkpt lat="46.35457201041094" lon="6.468027837555535"><ele>461.0</ele><time>2026-04-18T18:51:03.998Z</time></trkpt><trkpt lat="46.354549511507294" lon="6.468574324541544"><ele>460.5</ele><time>2026-04-18T18:51:04.998Z</time></trkpt><trkpt lat="46.35451135605398" lon="6.4691250913816605"><ele>460.0</ele><time>2026-04-18T18:51:06Z</time></trkpt><trkpt lat="46.35445637539624" lon="6.469680852478823"><ele>460.5</ele><time>2026-04-18T18:51:07Z</time></trkpt><trkpt lat="46.35437950568714" lon="6.470232302612471"><ele>461.0</ele><time>2026-04-18T18:51:08Z</time></trkpt><trkpt lat="46.354277924625606" lon="6.470783919535718"><ele>461.5</ele><time>2026-04-18T18:51:09Z</time></trkpt><trkpt lat="46.35415703819188" lon="6.471347020775366"><ele>462.0</ele><time>2026-04-18T18:51:10Z</time></trkpt><trkpt lat="46.35402690826947" lon="6.471907036135898"><ele>465.0</ele><time>2026-04-18T18:51:11Z</time></trkpt><trkpt lat="46.3539127179299" lon="6.47250767897761"><ele>468.0</ele><time>2026-04-18T18:51:12Z</time></trkpt><trkpt lat="46.353810513765" lon="6.473108797214623"><ele>469.0</ele><time>2026-04-18T18:51:13Z</time></trkpt><trkpt lat="46.35359752289116" lon="6.473289936034147"><ele>470.0</ele><time>2026-04-18T18:51:14Z</time></trkpt><trkpt lat="46.35345362752344" lon="6.473706192727315"><ele>472.0</ele><time>2026-04-18T18:51:15Z</time></trkpt><trkpt lat="46.35332076054592" lon="6.474119038036576"><ele>474.0</ele><time>2026-04-18T18:51:16Z</time></trkpt><trkpt lat="46.35320648625361" lon="6.474531645317112"><ele>475.5</ele><time>2026-04-18T18:51:17Z</time></trkpt><trkpt lat="46.35311585821258" lon="6.474943524549135"><ele>477.0</ele><time>2026-04-18T18:51:18Z</time></trkpt><trkpt lat="46.353051011724666" lon="6.4753515244633535"><ele>476.5</ele><time>2026-04-18T18:51:19Z</time></trkpt><trkpt lat="46.353010420142965" lon="6.47575996741683"><ele>476.0</ele><time>2026-04-18T18:51:20Z</time></trkpt><trkpt lat="46.35299213103485" lon="6.476184603692864"><ele>478.0</ele><time>2026-04-18T18:51:21Z</time></trkpt><trkpt lat="46.35299049464424" lon="6.476620183725578"><ele>480.0</ele><time>2026-04-18T18:51:22Z</time></trkpt><trkpt lat="46.3530173759734" lon="6.47706405159486"><ele>480.0</ele><time>2026-04-18T18:51:23Z</time></trkpt><trkpt lat="46.35306601604336" lon="6.4775039677854265"><ele>480.0</ele><time>2026-04-18T18:51:24Z</time></trkpt><trkpt lat="46.35313385304776" lon="6.477943143838273"><ele>479.5</ele><time>2026-04-18T18:51:25Z</time></trkpt><trkpt lat="46.35322796053438" lon="6.478343857104304"><ele>479.0</ele><time>2026-04-18T18:51:26Z</time></trkpt><trkpt lat="46.353337802539926" lon="6.478709185544266"><ele>479.5</ele><time>2026-04-18T18:51:27Z</time></trkpt><trkpt lat="46.35345445871026" lon="6.47905582054119"><ele>480.0</ele><time>2026-04-18T18:51:28Z</time></trkpt><trkpt lat="46.353597471072575" lon="6.479388560526728"><ele>480.5</ele><time>2026-04-18T18:51:29Z</time></trkpt><trkpt lat="46.35375984032528" lon="6.479706443080467"><ele>481.0</ele><time>2026-04-18T18:51:30Z</time></trkpt><trkpt lat="46.35394316496031" lon="6.4800092228367046"><ele>481.0</ele><time>2026-04-18T18:51:31Z</time></trkpt><trkpt lat="46.35413998719166" lon="6.480319894193687"><ele>481.0</ele><time>2026-04-18T18:51:32Z</time></trkpt><trkpt lat="46.35434746264683" lon="6.480607213593688"><ele>481.5</ele><time>2026-04-18T18:51:33Z</time></trkpt><trkpt lat="46.35456907989797" lon="6.4808895563477735"><ele>482.0</ele><time>2026-04-18T18:51:34Z</time></trkpt><trkpt lat="46.35479142646155" lon="6.48116926865964"><ele>481.0</ele><time>2026-04-18T18:51:35Z</time></trkpt><trkpt lat="46.355017183949165" lon="6.48144354007394"><ele>480.0</ele><time>2026-04-18T18:51:36Z</time></trkpt><trkpt lat="46.355228660590114" lon="6.48171972029767"><ele>480.0</ele><time>2026-04-18T18:51:37Z</time></trkpt><trkpt lat="46.3554432559629" lon="6.482000445624723"><ele>480.0</ele><time>2026-04-18T18:51:38Z</time></trkpt><trkpt lat="46.355662326192565" lon="6.482290227826809"><ele>480.5</ele><time>2026-04-18T18:51:39Z</time></trkpt><trkpt lat="46.35588286372937" lon="6.482592756263637"><ele>481.0</ele><time>2026-04-18T18:51:40Z</time></trkpt><trkpt lat="46.35609883784298" lon="6.4829156591833454"><ele>481.5</ele><time>2026-04-18T18:51:41Z</time></trkpt><trkpt lat="46.356297189219006" lon="6.483258834796356"><ele>482.0</ele><time>2026-04-18T18:51:42Z</time></trkpt><trkpt lat="46.35648472432269" lon="6.48361627350834"><ele>482.5</ele><time>2026-04-18T18:51:43Z</time></trkpt><trkpt lat="46.35666489620254" lon="6.483976206385146"><ele>483.0</ele><time>2026-04-18T18:51:43.999Z</time></trkpt><trkpt lat="46.356841060558025" lon="6.484319132553019"><ele>484.5</ele><time>2026-04-18T18:51:44.999Z</time></trkpt><trkpt lat="46.35700989256487" lon="6.484647605028642"><ele>486.0</ele><time>2026-04-18T18:51:45.999Z</time></trkpt><trkpt lat="46.357175840174705" lon="6.484981291301988"><ele>485.0</ele><time>2026-04-18T18:51:46.999Z</time></trkpt><trkpt lat="46.357346314757045" lon="6.485315636251928"><ele>484.0</ele><time>2026-04-18T18:51:47.999Z</time></trkpt><trkpt lat="46.35752042391691" lon="6.485646803007282"><ele>484.0</ele><time>2026-04-18T18:51:48.999Z</time></trkpt><trkpt lat="46.35769735385408" lon="6.485969879674137"><ele>484.0</ele><time>2026-04-18T18:51:49.999Z</time></trkpt><trkpt lat="46.35788330900871" lon="6.486284802121026"><ele>485.0</ele><time>2026-04-18T18:51:50.999Z</time></trkpt><trkpt lat="46.35807969563756" lon="6.486584329213989"><ele>486.0</ele><time>2026-04-18T18:51:51.999Z</time></trkpt><trkpt lat="46.358285720509045" lon="6.4868776020232986"><ele>486.0</ele><time>2026-04-18T18:51:52.999Z</time></trkpt><trkpt lat="46.35849661921513" lon="6.487160692234364"><ele>486.0</ele><time>2026-04-18T18:51:53.999Z</time></trkpt><trkpt lat="46.358722734381075" lon="6.48743161495569"><ele>486.5</ele><time>2026-04-18T18:51:54.999Z</time></trkpt><trkpt lat="46.35895763072355" lon="6.487689671667847"><ele>487.0</ele><time>2026-04-18T18:51:55.999Z</time></trkpt><trkpt lat="46.35919806865639" lon="6.487928327715878"><ele>487.0</ele><time>2026-04-18T18:51:56.999Z</time></trkpt><trkpt lat="46.35943867477544" lon="6.488153970517158"><ele>487.0</ele><time>2026-04-18T18:51:57.999Z</time></trkpt><trkpt lat="46.35968193990723" lon="6.4883750254457135"><ele>487.5</ele><time>2026-04-18T18:51:58.999Z</time></trkpt><trkpt lat="46.35992435969276" lon="6.4885971478400295"><ele>488.0</ele><time>2026-04-18T18:51:59.999Z</time></trkpt><trkpt lat="46.3601633337985" lon="6.488818645127862"><ele>488.0</ele><time>2026-04-18T18:52:00.999Z</time></trkpt><trkpt lat="46.360398243149" lon="6.489053703438915"><ele>488.0</ele><time>2026-04-18T18:52:01.999Z</time></trkpt><trkpt lat="46.360621649740686" lon="6.489315527297278"><ele>487.5</ele><time>2026-04-18T18:52:02.999Z</time></trkpt><trkpt lat="46.36084202975725" lon="6.4895882608976825"><ele>487.0</ele><time>2026-04-18T18:52:03.999Z</time></trkpt><trkpt lat="46.36105515519173" lon="6.489867294573105"><ele>487.0</ele><time>2026-04-18T18:52:04.999Z</time></trkpt><trkpt lat="46.361259218665424" lon="6.490159175572295"><ele>487.0</ele><time>2026-04-18T18:52:05.999Z</time></trkpt><trkpt lat="46.361458662433314" lon="6.490460151628405"><ele>487.0</ele><time>2026-04-18T18:52:06.999Z</time></trkpt><trkpt lat="46.36165031993807" lon="6.49077433708602"><ele>487.0</ele><time>2026-04-18T18:52:07.999Z</time></trkpt><trkpt lat="46.36182075235836" lon="6.491086523460984"><ele>487.5</ele><time>2026-04-18T18:52:08.999Z</time></trkpt><trkpt lat="46.36198326187557" lon="6.491401013702941"><ele>488.0</ele><time>2026-04-18T18:52:09.999Z</time></trkpt><trkpt lat="46.36213496933199" lon="6.491724053676915"><ele>485.5</ele><time>2026-04-18T18:52:10.999Z</time></trkpt><trkpt lat="46.36228012329333" lon="6.492057504184502"><ele>483.0</ele><time>2026-04-18T18:52:11.999Z</time></trkpt><trkpt lat="46.362416769915555" lon="6.492401828684423"><ele>483.0</ele><time>2026-04-18T18:52:12.999Z</time></trkpt><trkpt lat="46.36253987575539" lon="6.492758035173085"><ele>483.0</ele><time>2026-04-18T18:52:13.999Z</time></trkpt><trkpt lat="46.362652272315096" lon="6.493135247389222"><ele>483.0</ele><time>2026-04-18T18:52:14.999Z</time></trkpt><trkpt lat="46.36275969261493" lon="6.493487296360551"><ele>483.0</ele><time>2026-04-18T18:52:15.999Z</time></trkpt><trkpt lat="46.36286164378739" lon="6.4938479436157515"><ele>483.0</ele><time>2026-04-18T18:52:16.999Z</time></trkpt><trkpt lat="46.36296427746865" lon="6.4942013885107395"><ele>483.0</ele><time>2026-04-18T18:52:17.999Z</time></trkpt><trkpt lat="46.36308319767626" lon="6.494550067981645"><ele>476.5</ele><time>2026-04-18T18:52:18.999Z</time></trkpt><trkpt lat="46.363217523845776" lon="6.494888865019221"><ele>470.0</ele><time>2026-04-18T18:52:19.999Z</time></trkpt><trkpt lat="46.36336471776873" lon="6.495222543214359"><ele>473.5</ele><time>2026-04-18T18:52:20.999Z</time></trkpt><trkpt lat="46.363525893790985" lon="6.49555133117614"><ele>477.0</ele><time>2026-04-18T18:52:21.999Z</time></trkpt><trkpt lat="46.36370370950276" lon="6.49586899133335"><ele>476.0</ele><time>2026-04-18T18:52:22.999Z</time></trkpt><trkpt lat="46.363893322005" lon="6.4961738905759825"><ele>475.0</ele><time>2026-04-18T18:52:23.999Z</time></trkpt><trkpt lat="46.36409229012317" lon="6.49646538647694"><ele>475.0</ele><time>2026-04-18T18:52:24.999Z</time></trkpt><trkpt lat="46.36429911199352" lon="6.4967562759649855"><ele>475.0</ele><time>2026-04-18T18:52:25.999Z</time></trkpt><trkpt lat="46.364507497979496" lon="6.497054712199876"><ele>471.0</ele><time>2026-04-18T18:52:26.999Z</time></trkpt><trkpt lat="46.364712639737476" lon="6.49736764441389"><ele>467.0</ele><time>2026-04-18T18:52:27.999Z</time></trkpt><trkpt lat="46.36492476128853" lon="6.4976871308408555"><ele>469.0</ele><time>2026-04-18T18:52:28.999Z</time></trkpt><trkpt lat="46.36514443452642" lon="6.498012735178714"><ele>471.0</ele><time>2026-04-18T18:52:29.999Z</time></trkpt><trkpt lat="46.36537061391604" lon="6.498342979413039"><ele>461.5</ele><time>2026-04-18T18:52:30.999Z</time></trkpt><trkpt lat="46.36559897990002" lon="6.498676797675835"><ele>452.0</ele><time>2026-04-18T18:52:31.999Z</time></trkpt><trkpt lat="46.36582166597937" lon="6.499003877771026"><ele>452.0</ele><time>2026-04-18T18:52:32.999Z</time></trkpt><trkpt lat="46.3660357648323" lon="6.499322880512343"><ele>452.0</ele><time>2026-04-18T18:52:33.999Z</time></trkpt><trkpt lat="46.36624757694577" lon="6.499638190296068"><ele>450.0</ele><time>2026-04-18T18:52:34.999Z</time></trkpt><trkpt lat="46.36646529589384" lon="6.499961707446581"><ele>448.0</ele><time>2026-04-18T18:52:35.999Z</time></trkpt><trkpt lat="46.36668830689299" lon="6.500282699377728"><ele>448.5</ele><time>2026-04-18T18:52:36.999Z</time></trkpt><trkpt lat="46.366925741430784" lon="6.500584020108948"><ele>449.0</ele><time>2026-04-18T18:52:37.999Z</time></trkpt><trkpt lat="46.36717441829851" lon="6.500862309773119"><ele>448.5</ele><time>2026-04-18T18:52:38.999Z</time></trkpt><trkpt lat="46.36743276544063" lon="6.501121632061196"><ele>448.0</ele><time>2026-04-18T18:52:39.999Z</time></trkpt><trkpt lat="46.36770320486499" lon="6.5013516021468565"><ele>448.0</ele><time>2026-04-18T18:52:40.999Z</time></trkpt><trkpt lat="46.36798151131179" lon="6.501553488317133"><ele>448.0</ele><time>2026-04-18T18:52:41.999Z</time></trkpt><trkpt lat="46.36827103679817" lon="6.5017269776229085"><ele>444.5</ele><time>2026-04-18T18:52:42.999Z</time></trkpt><trkpt lat="46.368558829211665" lon="6.501891114407253"><ele>441.0</ele><time>2026-04-18T18:52:43.999Z</time></trkpt><trkpt lat="46.368855302736975" lon="6.502020297419115"><ele>432.5</ele><time>2026-04-18T18:52:44.999Z</time></trkpt><trkpt lat="46.369157173523675" lon="6.502132187157072"><ele>424.0</ele><time>2026-04-18T18:52:45.999Z</time></trkpt><trkpt lat="46.36946005017928" lon="6.502220012953233"><ele>423.0</ele><time>2026-04-18T18:52:46.999Z</time></trkpt><trkpt lat="46.369767792755624" lon="6.502276694839347"><ele>422.0</ele><time>2026-04-18T18:52:47.999Z</time></trkpt><trkpt lat="46.370080707490224" lon="6.5022981357986165"><ele>422.0</ele><time>2026-04-18T18:52:48.999Z</time></trkpt><trkpt lat="46.370399946315196" lon="6.5022974196415895"><ele>422.0</ele><time>2026-04-18T18:52:49.999Z</time></trkpt><trkpt lat="46.37073038236339" lon="6.50227737138321"><ele>422.0</ele><time>2026-04-18T18:52:50.999Z</time></trkpt><trkpt lat="46.3710657464781" lon="6.502241126261469"><ele>422.0</ele><time>2026-04-18T18:52:51.998Z</time></trkpt><trkpt lat="46.371412604388496" lon="6.502203732109288"><ele>419.0</ele><time>2026-04-18T18:52:52.998Z</time></trkpt><trkpt lat="46.371762016725235" lon="6.502172390525741"><ele>416.0</ele><time>2026-04-18T18:52:53.998Z</time></trkpt><trkpt lat="46.372106090638745" lon="6.5021476218555785"><ele>414.0</ele><time>2026-04-18T18:52:54.998Z</time></trkpt><trkpt lat="46.37243781361109" lon="6.502123368128732"><ele>412.0</ele><time>2026-04-18T18:52:55.998Z</time></trkpt><trkpt lat="46.372753819235115" lon="6.502103680571199"><ele>411.5</ele><time>2026-04-18T18:52:56.998Z</time></trkpt><trkpt lat="46.37306233184174" lon="6.50208864085082"><ele>411.0</ele><time>2026-04-18T18:52:57.998Z</time></trkpt><trkpt lat="46.373361194704884" lon="6.5020655067022455"><ele>412.5</ele><time>2026-04-18T18:52:58.998Z</time></trkpt><trkpt lat="46.37365333725668" lon="6.5020385881879506"><ele>414.0</ele><time>2026-04-18T18:52:59.998Z</time></trkpt><trkpt lat="46.37392961450662" lon="6.502016881663301"><ele>414.0</ele><time>2026-04-18T18:53:00.998Z</time></trkpt><trkpt lat="46.374201150823865" lon="6.501989436255511"><ele>414.0</ele><time>2026-04-18T18:53:01.998Z</time></trkpt><trkpt lat="46.37446068451929" lon="6.50196093867869"><ele>411.0</ele><time>2026-04-18T18:53:02.998Z</time></trkpt><trkpt lat="46.37471672250536" lon="6.501937621735386"><ele>408.0</ele><time>2026-04-18T18:53:03.998Z</time></trkpt><trkpt lat="46.37496250937065" lon="6.501928176128756"><ele>408.0</ele><time>2026-04-18T18:53:04.998Z</time></trkpt><trkpt lat="46.37519987356162" lon="6.5019332398601755"><ele>408.0</ele><time>2026-04-18T18:53:05.998Z</time></trkpt><trkpt lat="46.37542597961513" lon="6.501956376275859"><ele>407.66666666666663</ele><time>2026-04-18T18:53:06.998Z</time></trkpt><trkpt lat="46.375644307818426" lon="6.5020038010920445"><ele>407.3333333333333</ele><time>2026-04-18T18:53:07.998Z</time></trkpt><trkpt lat="46.375850686110766" lon="6.502064477960914"><ele>407.0</ele><time>2026-04-18T18:53:08.998Z</time></trkpt><trkpt lat="46.376048751308" lon="6.502146126252286"><ele>406.3333333333333</ele><time>2026-04-18T18:53:09.998Z</time></trkpt><trkpt lat="46.37624995777494" lon="6.502246592839976"><ele>405.66666666666663</ele><time>2026-04-18T18:53:10.998Z</time></trkpt><trkpt lat="46.37645586001758" lon="6.502366072697085"><ele>405.0</ele><time>2026-04-18T18:53:12Z</time></trkpt><trkpt lat="46.376656361753376" lon="6.502504512841041"><ele>404.66666666666663</ele><time>2026-04-18T18:53:13Z</time></trkpt><trkpt lat="46.37684866235136" lon="6.5026595662431035"><ele>404.3333333333333</ele><time>2026-04-18T18:53:14Z</time></trkpt><trkpt lat="46.37702525209596" lon="6.502825598839684"><ele>404.0</ele><time>2026-04-18T18:53:15Z</time></trkpt><trkpt lat="46.377184452908494" lon="6.5030011826764715"><ele>403.66666666666663</ele><time>2026-04-18T18:53:16Z</time></trkpt><trkpt lat="46.37733146841088" lon="6.503182998708036"><ele>403.33333333333337</ele><time>2026-04-18T18:53:17Z</time></trkpt><trkpt lat="46.377468046109726" lon="6.503370204722336"><ele>403.0</ele><time>2026-04-18T18:53:18Z</time></trkpt><trkpt lat="46.377595028039735" lon="6.503568696237363"><ele>402.6666666666667</ele><time>2026-04-18T18:53:19Z</time></trkpt><trkpt lat="46.37770952422029" lon="6.503751931091723"><ele>402.33333333333337</ele><time>2026-04-18T18:53:20Z</time></trkpt><trkpt lat="46.377808099771784" lon="6.503904242057466"><ele>402.0</ele><time>2026-04-18T18:53:21Z</time></trkpt><trkpt lat="46.377909583403365" lon="6.50403812081368"><ele>402.0</ele><time>2026-04-18T18:53:22Z</time></trkpt><trkpt lat="46.37801045951459" lon="6.504159732706913"><ele>402.0</ele><time>2026-04-18T18:53:23Z</time></trkpt><trkpt lat="46.37811691842259" lon="6.504260941861306"><ele>402.0</ele><time>2026-04-18T18:53:24Z</time></trkpt><trkpt lat="46.37822934257237" lon="6.50433930253797"><ele>402.0</ele><time>2026-04-18T18:53:25Z</time></trkpt><trkpt lat="46.37833720240416" lon="6.504401576848423"><ele>401.8</ele><time>2026-04-18T18:53:26Z</time></trkpt><trkpt lat="46.378433529679" lon="6.504459294830619"><ele>401.6</ele><time>2026-04-18T18:53:27Z</time></trkpt><trkpt lat="46.378524418564275" lon="6.504527086478007"><ele>401.40000000000003</ele><time>2026-04-18T18:53:28Z</time></trkpt><trkpt lat="46.37861087607925" lon="6.50461121653389"><ele>401.20000000000005</ele><time>2026-04-18T18:53:29Z</time></trkpt><trkpt lat="46.378706241770075" lon="6.5046851114250686"><ele>401.0</ele><time>2026-04-18T18:53:30Z</time></trkpt><trkpt lat="46.37880695295147" lon="6.504746627941873"><ele>400.5</ele><time>2026-04-18T18:53:31Z</time></trkpt><trkpt lat="46.37890699737987" lon="6.504807551339249"><ele>400.0</ele><time>2026-04-18T18:53:32Z</time></trkpt><trkpt lat="46.37900331639494" lon="6.504891997524034"><ele>399.5</ele><time>2026-04-18T18:53:33Z</time></trkpt><trkpt lat="46.37908952676879" lon="6.505015099821607"><ele>399.0</ele><time>2026-04-18T18:53:34Z</time></trkpt><trkpt lat="46.37917130173048" lon="6.505166325035995"><ele>399.0</ele><time>2026-04-18T18:53:35Z</time></trkpt><trkpt lat="46.37925908141824" lon="6.505337211817724"><ele>399.0</ele><time>2026-04-18T18:53:36Z</time></trkpt><trkpt lat="46.37934937624285" lon="6.505533948229592"><ele>399.0</ele><time>2026-04-18T18:53:37Z</time></trkpt><trkpt lat="46.37943747106881" lon="6.505746436901969"><ele>399.0</ele><time>2026-04-18T18:53:38Z</time></trkpt><trkpt lat="46.37952797966897" lon="6.505967553657244"><ele>399.0</ele><time>2026-04-18T18:53:39Z</time></trkpt><trkpt lat="46.37961639974941" lon="6.506199660648822"><ele>399.0</ele><time>2026-04-18T18:53:40Z</time></trkpt><trkpt lat="46.379705975608225" lon="6.5064434277535685"><ele>399.0</ele><time>2026-04-18T18:53:41Z</time></trkpt><trkpt lat="46.37979744837352" lon="6.506698607938726"><ele>399.0</ele><time>2026-04-18T18:53:42Z</time></trkpt><trkpt lat="46.37989147290833" lon="6.506957199092874"><ele>399.0</ele><time>2026-04-18T18:53:43Z</time></trkpt><trkpt lat="46.37998784298124" lon="6.507221753273309"><ele>399.0</ele><time>2026-04-18T18:53:44Z</time></trkpt><trkpt lat="46.380085293442896" lon="6.5074829925297015"><ele>399.0</ele><time>2026-04-18T18:53:45Z</time></trkpt><trkpt lat="46.380184855374466" lon="6.507737734174642"><ele>399.0</ele><time>2026-04-18T18:53:46Z</time></trkpt><trkpt lat="46.380274838886265" lon="6.5079585147908325"><ele>399.0</ele><time>2026-04-18T18:53:46.999Z</time></trkpt><trkpt lat="46.38037245970333" lon="6.508176850176356"><ele>399.0</ele><time>2026-04-18T18:53:47.999Z</time></trkpt><trkpt lat="46.380461255922285" lon="6.508377399222179"><ele>399.0</ele><time>2026-04-18T18:53:48.999Z</time></trkpt><trkpt lat="46.380553669386444" lon="6.508569569376947"><ele>399.0</ele><time>2026-04-18T18:53:49.999Z</time></trkpt><trkpt lat="46.38064496485511" lon="6.508761505120348"><ele>399.0</ele><time>2026-04-18T18:53:50.999Z</time></trkpt><trkpt lat="46.380739627197904" lon="6.508955581684663"><ele>399.0</ele><time>2026-04-18T18:53:51.999Z</time></trkpt><trkpt lat="46.380846417988934" lon="6.50915355807031"><ele>399.0</ele><time>2026-04-18T18:53:52.999Z</time></trkpt><trkpt lat="46.38095893067021" lon="6.509357231143353"><ele>399.0</ele><time>2026-04-18T18:53:53.999Z</time></trkpt><trkpt lat="46.381078049999005" lon="6.509563456324215"><ele>399.0</ele><time>2026-04-18T18:53:54.999Z</time></trkpt><trkpt lat="46.38120662561869" lon="6.509769677737843"><ele>398.66666666666663</ele><time>2026-04-18T18:53:55.999Z</time></trkpt><trkpt lat="46.381340493950844" lon="6.509975939271182"><ele>398.3333333333333</ele><time>2026-04-18T18:53:56.999Z</time></trkpt><trkpt lat="46.38147992263348" lon="6.510186343277663"><ele>398.0</ele><time>2026-04-18T18:53:57.999Z</time></trkpt><trkpt lat="46.38162649367992" lon="6.51039607313487"><ele>398.3333333333333</ele><time>2026-04-18T18:53:58.999Z</time></trkpt><trkpt lat="46.38177803330602" lon="6.510608887552086"><ele>398.66666666666663</ele><time>2026-04-18T18:53:59.999Z</time></trkpt><trkpt lat="46.38193800607489" lon="6.510821383871481"><ele>399.0</ele><time>2026-04-18T18:54:00.999Z</time></trkpt><trkpt lat="46.382103490615556" lon="6.511034538841055"><ele>400.5</ele><time>2026-04-18T18:54:01.999Z</time></trkpt><trkpt lat="46.38227336125904" lon="6.511253650461465"><ele>402.0</ele><time>2026-04-18T18:54:02.999Z</time></trkpt><trkpt lat="46.38244278346771" lon="6.511472467156446"><ele>402.0</ele><time>2026-04-18T18:54:03.999Z</time></trkpt><trkpt lat="46.38261578871811" lon="6.51169739256082"><ele>402.0</ele><time>2026-04-18T18:54:04.999Z</time></trkpt><trkpt lat="46.382789382737634" lon="6.511926730623321"><ele>401.0</ele><time>2026-04-18T18:54:05.999Z</time></trkpt><trkpt lat="46.382964037340194" lon="6.512157343942614"><ele>400.0</ele><time>2026-04-18T18:54:06.999Z</time></trkpt><trkpt lat="46.3831328973089" lon="6.512378761915932"><ele>400.0</ele><time>2026-04-18T18:54:07.999Z</time></trkpt><trkpt lat="46.38329069442775" lon="6.512590378334051"><ele>400.0</ele><time>2026-04-18T18:54:08.999Z</time></trkpt><trkpt lat="46.38344036978119" lon="6.5127900106183185"><ele>400.0</ele><time>2026-04-18T18:54:09.999Z</time></trkpt><trkpt lat="46.38358620775299" lon="6.512988154184213"><ele>398.33333333333337</ele><time>2026-04-18T18:54:10.999Z</time></trkpt><trkpt lat="46.38372990395029" lon="6.513186634215929"><ele>396.66666666666663</ele><time>2026-04-18T18:54:11.999Z</time></trkpt><trkpt lat="46.38387818674628" lon="6.513395883447913"><ele>395.0</ele><time>2026-04-18T18:54:12.999Z</time></trkpt><trkpt lat="46.38402080015372" lon="6.513607945024288"><ele>396.3333333333333</ele><time>2026-04-18T18:54:13.999Z</time></trkpt><trkpt lat="46.384146160157535" lon="6.513804889793435"><ele>397.66666666666663</ele><time>2026-04-18T18:54:14.999Z</time></trkpt><trkpt lat="46.38426443723034" lon="6.513994914461381"><ele>399.0</ele><time>2026-04-18T18:54:15.999Z</time></trkpt><trkpt lat="46.38437966347856" lon="6.514182398683957"><ele>399.0</ele><time>2026-04-18T18:54:16.999Z</time></trkpt><trkpt lat="46.38448316017153" lon="6.5143674789406205"><ele>399.0</ele><time>2026-04-18T18:54:17.999Z</time></trkpt><trkpt lat="46.384585404184165" lon="6.514547258094568"><ele>399.0</ele><time>2026-04-18T18:54:18.999Z</time></trkpt><trkpt lat="46.38468537529467" lon="6.51472311924688"><ele>397.33333333333337</ele><time>2026-04-18T18:54:19.999Z</time></trkpt><trkpt lat="46.38477837371769" lon="6.514903456141729"><ele>395.6666666666667</ele><time>2026-04-18T18:54:20.999Z</time></trkpt><trkpt lat="46.38486221029806" lon="6.515076224915163"><ele>394.0</ele><time>2026-04-18T18:54:21.999Z</time></trkpt><trkpt lat="46.38495010368197" lon="6.515252014765452"><ele>395.6666666666667</ele><time>2026-04-18T18:54:22.999Z</time></trkpt><trkpt lat="46.38503803442995" lon="6.515437929150494"><ele>397.33333333333337</ele><time>2026-04-18T18:54:23.999Z</time></trkpt><trkpt lat="46.38512950302554" lon="6.515638893726535"><ele>399.0</ele><time>2026-04-18T18:54:24.999Z</time></trkpt><trkpt lat="46.3852220646272" lon="6.5158416961317425"><ele>399.0</ele><time>2026-04-18T18:54:25.999Z</time></trkpt><trkpt lat="46.38531700585858" lon="6.516055778694709"><ele>399.0</ele><time>2026-04-18T18:54:26.999Z</time></trkpt><trkpt lat="46.38541492264019" lon="6.516274657994914"><ele>399.0</ele><time>2026-04-18T18:54:27.999Z</time></trkpt><trkpt lat="46.38551261251148" lon="6.516495194587648"><ele>398.0</ele><time>2026-04-18T18:54:28.999Z</time></trkpt><trkpt lat="46.38560265989528" lon="6.5167121538465445"><ele>397.0</ele><time>2026-04-18T18:54:29.999Z</time></trkpt><trkpt lat="46.38568953227729" lon="6.516921405152976"><ele>396.0</ele><time>2026-04-18T18:54:30.999Z</time></trkpt><trkpt lat="46.385778367516146" lon="6.517132802312023"><ele>396.0</ele><time>2026-04-18T18:54:31.999Z</time></trkpt><trkpt lat="46.38586280947739" lon="6.517342810349315"><ele>396.0</ele><time>2026-04-18T18:54:32.999Z</time></trkpt><trkpt lat="46.385944991897844" lon="6.5175482466411525"><ele>396.0</ele><time>2026-04-18T18:54:33.999Z</time></trkpt><trkpt lat="46.386025138911926" lon="6.517750097849455"><ele>399.0</ele><time>2026-04-18T18:54:34.999Z</time></trkpt><trkpt lat="46.38610177729702" lon="6.51794887655515"><ele>402.0</ele><time>2026-04-18T18:54:35.999Z</time></trkpt><trkpt lat="46.38617147712847" lon="6.518142159573932"><ele>405.0</ele><time>2026-04-18T18:54:36.999Z</time></trkpt><trkpt lat="46.38624082953724" lon="6.5183273247452815"><ele>405.0</ele><time>2026-04-18T18:54:37.999Z</time></trkpt><trkpt lat="46.38629960649094" lon="6.518502784252036"><ele>405.0</ele><time>2026-04-18T18:54:38.999Z</time></trkpt><trkpt lat="46.386346182232515" lon="6.518669660547009"><ele>405.0</ele><time>2026-04-18T18:54:39.999Z</time></trkpt><trkpt lat="46.38638798998738" lon="6.518818382788435"><ele>405.0</ele><time>2026-04-18T18:54:40.999Z</time></trkpt><trkpt lat="46.38641637164426" lon="6.518957543639247"><ele>403.6666666666667</ele><time>2026-04-18T18:54:41.999Z</time></trkpt><trkpt lat="46.38643360338608" lon="6.519084434385464"><ele>402.33333333333337</ele><time>2026-04-18T18:54:42.999Z</time></trkpt><trkpt lat="46.38643588637983" lon="6.519190272230894"><ele>401.0</ele><time>2026-04-18T18:54:43.999Z</time></trkpt><trkpt lat="46.3864347048126" lon="6.519338453992437"><ele>399.6666666666667</ele><time>2026-04-18T18:54:45.999Z</time></trkpt><trkpt lat="46.38647089768265" lon="6.519427365268281"><ele>398.33333333333337</ele><time>2026-04-18T18:55:11.998Z</time></trkpt><trkpt lat="46.38652150774876" lon="6.519556265807332"><ele>397.0</ele><time>2026-04-18T18:55:15.998Z</time></trkpt><trkpt lat="46.38653567290701" lon="6.519747369275195"><ele>397.0</ele><time>2026-04-18T18:55:18Z</time></trkpt><trkpt lat="46.3865517185437" lon="6.519869931721905"><ele>397.0</ele><time>2026-04-18T18:55:19Z</time></trkpt><trkpt lat="46.386570260904904" lon="6.519994339937027"><ele>397.0</ele><time>2026-04-18T18:55:20Z</time></trkpt><trkpt lat="46.38658838290039" lon="6.520137977369753"><ele>397.0</ele><time>2026-04-18T18:55:21Z</time></trkpt><trkpt lat="46.38660424253439" lon="6.520307567315042"><ele>397.0</ele><time>2026-04-18T18:55:22Z</time></trkpt><trkpt lat="46.386619103385705" lon="6.520505648607245"><ele>400.6666666666667</ele><time>2026-04-18T18:55:23Z</time></trkpt><trkpt lat="46.38664101900599" lon="6.520736530558767"><ele>404.33333333333337</ele><time>2026-04-18T18:55:24Z</time></trkpt><trkpt lat="46.38668037307411" lon="6.521011877621482"><ele>408.0</ele><time>2026-04-18T18:55:25Z</time></trkpt><trkpt lat="46.3867316628517" lon="6.521295122560737"><ele>411.66666666666663</ele><time>2026-04-18T18:55:26Z</time></trkpt><trkpt lat="46.38678781590389" lon="6.521487749979258"><ele>415.3333333333333</ele><time>2026-04-18T18:55:27Z</time></trkpt><trkpt lat="46.38687169727886" lon="6.521744715463144"><ele>419.0</ele><time>2026-04-18T18:55:28Z</time></trkpt><trkpt lat="46.38697820060123" lon="6.522004744625447"><ele>421.0</ele><time>2026-04-18T18:55:29Z</time></trkpt><trkpt lat="46.387100747459996" lon="6.522262906504719"><ele>423.0</ele><time>2026-04-18T18:55:30Z</time></trkpt><trkpt lat="46.38724123585865" lon="6.522511197375895"><ele>425.0</ele><time>2026-04-18T18:55:31Z</time></trkpt><trkpt lat="46.387405753147746" lon="6.522741938069104"><ele>418.5</ele><time>2026-04-18T18:55:32Z</time></trkpt><trkpt lat="46.387590806862924" lon="6.522964958441764"><ele>412.0</ele><time>2026-04-18T18:55:33Z</time></trkpt><trkpt lat="46.38778698762314" lon="6.523160716943725"><ele>412.0</ele><time>2026-04-18T18:55:34Z</time></trkpt><trkpt lat="46.387983916258875" lon="6.523332599835015"><ele>412.0</ele><time>2026-04-18T18:55:35Z</time></trkpt><trkpt lat="46.38816143404475" lon="6.523482315355875"><ele>412.0</ele><time>2026-04-18T18:55:36Z</time></trkpt><trkpt lat="46.38833935097984" lon="6.52366102397721"><ele>405.6666666666667</ele><time>2026-04-18T18:55:37Z</time></trkpt><trkpt lat="46.38851076508028" lon="6.5238357146854336"><ele>399.33333333333337</ele><time>2026-04-18T18:55:38Z</time></trkpt><trkpt lat="46.38867671011794" lon="6.52401264626753"><ele>393.0</ele><time>2026-04-18T18:55:39Z</time></trkpt><trkpt lat="46.388850388557266" lon="6.524199727150393"><ele>391.0</ele><time>2026-04-18T18:55:40Z</time></trkpt><trkpt lat="46.38900610707776" lon="6.524388491373924"><ele>389.0</ele><time>2026-04-18T18:55:41Z</time></trkpt><trkpt lat="46.389151819047925" lon="6.524575185877404"><ele>387.0</ele><time>2026-04-18T18:55:42Z</time></trkpt><trkpt lat="46.38928362787849" lon="6.524768417371902"><ele>387.0</ele><time>2026-04-18T18:55:43Z</time></trkpt><trkpt lat="46.38940870499607" lon="6.5249619036837565"><ele>387.0</ele><time>2026-04-18T18:55:44Z</time></trkpt><trkpt lat="46.389531631411714" lon="6.525165853141298"><ele>387.0</ele><time>2026-04-18T18:55:45Z</time></trkpt><trkpt lat="46.38964939017947" lon="6.525377349469006"><ele>386.66666666666663</ele><time>2026-04-18T18:55:46Z</time></trkpt><trkpt lat="46.38975933614236" lon="6.525584746117004"><ele>386.3333333333333</ele><time>2026-04-18T18:55:47Z</time></trkpt><trkpt lat="46.3898568506468" lon="6.52578875352044"><ele>386.0</ele><time>2026-04-18T18:55:48Z</time></trkpt><trkpt lat="46.38995711705836" lon="6.525979090304045"><ele>386.0</ele><time>2026-04-18T18:55:49Z</time></trkpt><trkpt lat="46.39004415813323" lon="6.526177798962079"><ele>386.0</ele><time>2026-04-18T18:55:50Z</time></trkpt><trkpt lat="46.39012803782281" lon="6.526392921437581"><ele>386.0</ele><time>2026-04-18T18:55:51Z</time></trkpt><trkpt lat="46.39021617606232" lon="6.526610942491311"><ele>386.0</ele><time>2026-04-18T18:55:51.999Z</time></trkpt><trkpt lat="46.390296769431146" lon="6.526829798265686"><ele>386.0</ele><time>2026-04-18T18:55:52.999Z</time></trkpt><trkpt lat="46.3903699915844" lon="6.527052197795878"><ele>386.0</ele><time>2026-04-18T18:55:53.999Z</time></trkpt><trkpt lat="46.39043862421805" lon="6.527271657321355"><ele>386.3333333333333</ele><time>2026-04-18T18:55:54.999Z</time></trkpt><trkpt lat="46.3904967342472" lon="6.527493512335377"><ele>386.66666666666663</ele><time>2026-04-18T18:55:55.999Z</time></trkpt><trkpt lat="46.39055910776312" lon="6.527719408639281"><ele>387.0</ele><time>2026-04-18T18:55:56.999Z</time></trkpt><trkpt lat="46.390626132275976" lon="6.527947785835026"><ele>387.0</ele><time>2026-04-18T18:55:57.999Z</time></trkpt><trkpt lat="46.39068041019592" lon="6.52815803437923"><ele>387.0</ele><time>2026-04-18T18:55:58.999Z</time></trkpt><trkpt lat="46.390726114507665" lon="6.528362328278331"><ele>387.0</ele><time>2026-04-18T18:55:59.999Z</time></trkpt><trkpt lat="46.39077153161291" lon="6.52856411927089"><ele>387.0</ele><time>2026-04-18T18:56:00.999Z</time></trkpt><trkpt lat="46.390810795007795" lon="6.528762222856411"><ele>386.8</ele><time>2026-04-18T18:56:01.999Z</time></trkpt><trkpt lat="46.39083713791639" lon="6.52893725184263"><ele>386.6</ele><time>2026-04-18T18:56:02.999Z</time></trkpt><trkpt lat="46.39086276856931" lon="6.52908275934166"><ele>386.40000000000003</ele><time>2026-04-18T18:56:03.999Z</time></trkpt><trkpt lat="46.390877751417854" lon="6.529204210624605"><ele>386.20000000000005</ele><time>2026-04-18T18:56:04.999Z</time></trkpt><trkpt lat="46.39088788537218" lon="6.529304114153611"><ele>386.0</ele><time>2026-04-18T18:56:05.999Z</time></trkpt><trkpt lat="46.390902866283476" lon="6.529470010378338"><ele>385.8571428571429</ele><time>2026-04-18T18:56:07.999Z</time></trkpt><trkpt lat="46.39091590955035" lon="6.529560296167581"><ele>385.7142857142857</ele><time>2026-04-18T18:56:08.999Z</time></trkpt><trkpt lat="46.390929242680464" lon="6.529685675714604"><ele>385.57142857142856</ele><time>2026-04-18T18:56:09.999Z</time></trkpt><trkpt lat="46.39093783773245" lon="6.529807735136744"><ele>385.42857142857144</ele><time>2026-04-18T18:56:10.999Z</time></trkpt><trkpt lat="46.390963387225035" lon="6.529900792891108"><ele>385.2857142857143</ele><time>2026-04-18T18:56:11.999Z</time></trkpt><trkpt lat="46.3909773089918" lon="6.529999146814809"><ele>385.14285714285717</ele><time>2026-04-18T18:56:12.999Z</time></trkpt><trkpt lat="46.39098909141757" lon="6.53009962517304"><ele>385.0</ele><time>2026-04-18T18:56:13.999Z</time></trkpt><trkpt lat="46.39100879838628" lon="6.53021773025285"><ele>385.0</ele><time>2026-04-18T18:56:14.999Z</time></trkpt><trkpt lat="46.39102967843135" lon="6.530351581938791"><ele>385.0</ele><time>2026-04-18T18:56:15.999Z</time></trkpt><trkpt lat="46.39105119186654" lon="6.530499165868693"><ele>385.0</ele><time>2026-04-18T18:56:16.999Z</time></trkpt><trkpt lat="46.391081888989056" lon="6.530650024853687"><ele>385.0</ele><time>2026-04-18T18:56:17.999Z</time></trkpt><trkpt lat="46.391106865394086" lon="6.530798445168737"><ele>385.0</ele><time>2026-04-18T18:56:18.999Z</time></trkpt><trkpt lat="46.39114251760317" lon="6.530957402022351"><ele>385.75</ele><time>2026-04-18T18:56:19.999Z</time></trkpt><trkpt lat="46.391183613191956" lon="6.531118432178676"><ele>386.5</ele><time>2026-04-18T18:56:20.999Z</time></trkpt><trkpt lat="46.391221671593044" lon="6.531277167190738"><ele>387.25</ele><time>2026-04-18T18:56:21.999Z</time></trkpt><trkpt lat="46.391267088398145" lon="6.531424595746337"><ele>388.0</ele><time>2026-04-18T18:56:22.999Z</time></trkpt><trkpt lat="46.39132341138926" lon="6.531575011044212"><ele>387.25</ele><time>2026-04-18T18:56:23.999Z</time></trkpt><trkpt lat="46.39138837230071" lon="6.5317254858007034"><ele>386.5</ele><time>2026-04-18T18:56:24.999Z</time></trkpt><trkpt lat="46.39144071727841" lon="6.531870257240207"><ele>385.75</ele><time>2026-04-18T18:56:25.999Z</time></trkpt><trkpt lat="46.391501241704226" lon="6.531998887547012"><ele>385.0</ele><time>2026-04-18T18:56:26.999Z</time></trkpt><trkpt lat="46.3915622470445" lon="6.532126872288677"><ele>385.0</ele><time>2026-04-18T18:56:27.999Z</time></trkpt><trkpt lat="46.39161946205801" lon="6.532257133403824"><ele>385.0</ele><time>2026-04-18T18:56:28.999Z</time></trkpt><trkpt lat="46.39167863713439" lon="6.532390608732535"><ele>385.0</ele><time>2026-04-18T18:56:29.999Z</time></trkpt><trkpt lat="46.391741352284846" lon="6.532524799465533"><ele>385.0</ele><time>2026-04-18T18:56:30.999Z</time></trkpt><trkpt lat="46.391808831639224" lon="6.532663570148633"><ele>385.0</ele><time>2026-04-18T18:56:31.999Z</time></trkpt><trkpt lat="46.39187935389193" lon="6.532812707306039"><ele>385.0</ele><time>2026-04-18T18:56:32.999Z</time></trkpt><trkpt lat="46.39195500604814" lon="6.532982530336647"><ele>385.0</ele><time>2026-04-18T18:56:33.999Z</time></trkpt><trkpt lat="46.392030675427016" lon="6.533142115675585"><ele>385.0</ele><time>2026-04-18T18:56:34.999Z</time></trkpt><trkpt lat="46.39210161727254" lon="6.533282811798661"><ele>385.0</ele><time>2026-04-18T18:56:35.999Z</time></trkpt><trkpt lat="46.392166978274155" lon="6.5334213134888985"><ele>384.25</ele><time>2026-04-18T18:56:36.999Z</time></trkpt><trkpt lat="46.392236046753034" lon="6.5335676645646705"><ele>383.5</ele><time>2026-04-18T18:56:37.999Z</time></trkpt><trkpt lat="46.3923132190055" lon="6.53373281798979"><ele>382.75</ele><time>2026-04-18T18:56:38.999Z</time></trkpt><trkpt lat="46.392383195058024" lon="6.533887505655327"><ele>382.0</ele><time>2026-04-18T18:56:39.999Z</time></trkpt><trkpt lat="46.392447896829346" lon="6.534027864481381"><ele>381.8</ele><time>2026-04-18T18:56:40.999Z</time></trkpt><trkpt lat="46.39251067514895" lon="6.534161280785767"><ele>381.6</ele><time>2026-04-18T18:56:41.999Z</time></trkpt><trkpt lat="46.392563770445626" lon="6.534288573260527"><ele>381.40000000000003</ele><time>2026-04-18T18:56:42.999Z</time></trkpt><trkpt lat="46.392612727187746" lon="6.534414990385305"><ele>381.20000000000005</ele><time>2026-04-18T18:56:43.999Z</time></trkpt><trkpt lat="46.39266180168598" lon="6.5345431824013325"><ele>381.0</ele><time>2026-04-18T18:56:44.999Z</time></trkpt><trkpt lat="46.39270619269708" lon="6.534671840404376"><ele>380.5</ele><time>2026-04-18T18:56:45.999Z</time></trkpt><trkpt lat="46.39273647333752" lon="6.534795387448182"><ele>380.0</ele><time>2026-04-18T18:56:46.999Z</time></trkpt><trkpt lat="46.39275597001412" lon="6.534916991525167"><ele>379.5</ele><time>2026-04-18T18:56:47.999Z</time></trkpt><trkpt lat="46.392749861558634" lon="6.535042533072613"><ele>379.0</ele><time>2026-04-18T18:56:48.999Z</time></trkpt><trkpt lat="46.392735447233505" lon="6.535151868599941"><ele>378.5</ele><time>2026-04-18T18:56:49.999Z</time></trkpt><trkpt lat="46.392707488629625" lon="6.535246231174345"><ele>378.0</ele><time>2026-04-18T18:56:50.999Z</time></trkpt><trkpt lat="46.39264662764542" lon="6.535305905599712"><ele>378.0</ele><time>2026-04-18T18:56:51.999Z</time></trkpt><trkpt lat="46.39272014184178" lon="6.5354450885396025"><ele>378.0</ele><time>2026-04-18T18:56:52.999Z</time></trkpt><trkpt lat="46.39274830670008" lon="6.535541726959695"><ele>378.0</ele><time>2026-04-18T18:56:53.999Z</time></trkpt><trkpt lat="46.392877375372436" lon="6.535594565188583"><ele>378.0</ele><time>2026-04-18T18:56:54.999Z</time></trkpt><trkpt lat="46.39296724582583" lon="6.535673218526697"><ele>378.0</ele><time>2026-04-18T18:56:55.999Z</time></trkpt><trkpt lat="46.39304760369178" lon="6.5357862920114975"><ele>378.0</ele><time>2026-04-18T18:56:56.999Z</time></trkpt><trkpt lat="46.39309657400846" lon="6.535947983357502"><ele>378.0</ele><time>2026-04-18T18:56:57.999Z</time></trkpt><trkpt lat="46.39315607578374" lon="6.536114143304855"><ele>378.0</ele><time>2026-04-18T18:56:58.999Z</time></trkpt><trkpt lat="46.39321348608878" lon="6.536275566655264"><ele>378.0</ele><time>2026-04-18T18:56:59.998Z</time></trkpt><trkpt lat="46.39327853254823" lon="6.536421737316503"><ele>378.5</ele><time>2026-04-18T18:57:00.998Z</time></trkpt><trkpt lat="46.393327935744615" lon="6.536579628762818"><ele>379.0</ele><time>2026-04-18T18:57:01.998Z</time></trkpt><trkpt lat="46.39337841720024" lon="6.5367307245973825"><ele>379.5</ele><time>2026-04-18T18:57:02.998Z</time></trkpt><trkpt lat="46.393434486781636" lon="6.536877706527288"><ele>380.0</ele><time>2026-04-18T18:57:03.998Z</time></trkpt><trkpt lat="46.39348755518346" lon="6.537021423004639"><ele>380.2</ele><time>2026-04-18T18:57:04.998Z</time></trkpt><trkpt lat="46.39353630836485" lon="6.537161905913545"><ele>380.4</ele><time>2026-04-18T18:57:05.998Z</time></trkpt><trkpt lat="46.393586184489564" lon="6.537298593686507"><ele>380.6</ele><time>2026-04-18T18:57:06.998Z</time></trkpt><trkpt lat="46.39364415259443" lon="6.537440789893667"><ele>380.8</ele><time>2026-04-18T18:57:07.998Z</time></trkpt><trkpt lat="46.39369899284758" lon="6.537592840765805"><ele>381.0</ele><time>2026-04-18T18:57:08.998Z</time></trkpt><trkpt lat="46.393748910803886" lon="6.5377397686783265"><ele>381.0</ele><time>2026-04-18T18:57:09.998Z</time></trkpt><trkpt lat="46.39379781536115" lon="6.53787896667005"><ele>381.0</ele><time>2026-04-18T18:57:10.998Z</time></trkpt><trkpt lat="46.39384308631367" lon="6.538012782235773"><ele>381.0</ele><time>2026-04-18T18:57:11.998Z</time></trkpt><trkpt lat="46.39388149971162" lon="6.53814764044839"><ele>381.0</ele><time>2026-04-18T18:57:12.998Z</time></trkpt><trkpt lat="46.3939202978689" lon="6.538277317231219"><ele>381.0</ele><time>2026-04-18T18:57:13.998Z</time></trkpt><trkpt lat="46.39395711700357" lon="6.538406292401614"><ele>380.6</ele><time>2026-04-18T18:57:14.998Z</time></trkpt><trkpt lat="46.3940072221339" lon="6.538531174118019"><ele>380.20000000000005</ele><time>2026-04-18T18:57:15.998Z</time></trkpt><trkpt lat="46.39405541825627" lon="6.5386625496564585"><ele>379.79999999999995</ele><time>2026-04-18T18:57:16.998Z</time></trkpt><trkpt lat="46.39410161880306" lon="6.538800841559376"><ele>379.4</ele><time>2026-04-18T18:57:17.998Z</time></trkpt><trkpt lat="46.39415473707548" lon="6.5389320335880585"><ele>379.0</ele><time>2026-04-18T18:57:18.998Z</time></trkpt><trkpt lat="46.39420841908944" lon="6.5390472898329985"><ele>378.79999999999995</ele><time>2026-04-18T18:57:19.998Z</time></trkpt><trkpt lat="46.3942665784458" lon="6.53915632614169"><ele>378.59999999999997</ele><time>2026-04-18T18:57:20.998Z</time></trkpt><trkpt lat="46.39432831579228" lon="6.5392623078425505"><ele>378.4</ele><time>2026-04-18T18:57:21.998Z</time></trkpt><trkpt lat="46.39439321924705" lon="6.539362960592876"><ele>378.2</ele><time>2026-04-18T18:57:23Z</time></trkpt><trkpt lat="46.39446232005855" lon="6.53945023728003"><ele>378.0</ele><time>2026-04-18T18:57:24Z</time></trkpt><trkpt lat="46.39453428914595" lon="6.5395224228933255"><ele>378.0</ele><time>2026-04-18T18:57:25Z</time></trkpt><trkpt lat="46.39461020237579" lon="6.5395867419370965"><ele>378.0</ele><time>2026-04-18T18:57:26Z</time></trkpt><trkpt lat="46.39468117987113" lon="6.539660305360556"><ele>378.0</ele><time>2026-04-18T18:57:27Z</time></trkpt><trkpt lat="46.394742185581876" lon="6.539763486567541"><ele>378.0</ele><time>2026-04-18T18:57:28Z</time></trkpt><trkpt lat="46.39479463650055" lon="6.539881716842979"><ele>378.0</ele><time>2026-04-18T18:57:29Z</time></trkpt><trkpt lat="46.39483909146623" lon="6.5400091762382875"><ele>378.0</ele><time>2026-04-18T18:57:30Z</time></trkpt><trkpt lat="46.394876433489834" lon="6.540138970266308"><ele>378.0</ele><time>2026-04-18T18:57:31Z</time></trkpt><trkpt lat="46.39491752610888" lon="6.540291962846933"><ele>378.0</ele><time>2026-04-18T18:57:32Z</time></trkpt><trkpt lat="46.39495779603889" lon="6.540441547219358"><ele>378.0</ele><time>2026-04-18T18:57:33Z</time></trkpt><trkpt lat="46.394987087568246" lon="6.540587989537478"><ele>378.0</ele><time>2026-04-18T18:57:34Z</time></trkpt><trkpt lat="46.395011715200376" lon="6.540736601842367"><ele>378.0</ele><time>2026-04-18T18:57:35Z</time></trkpt><trkpt lat="46.395016241248285" lon="6.5408764844822045"><ele>378.0</ele><time>2026-04-18T18:57:36Z</time></trkpt><trkpt lat="46.3950115537062" lon="6.541009683878666"><ele>378.0</ele><time>2026-04-18T18:57:37Z</time></trkpt><trkpt lat="46.39500430692443" lon="6.541157652828539"><ele>378.0</ele><time>2026-04-18T18:57:38Z</time></trkpt><trkpt lat="46.39499867208156" lon="6.541310705136448"><ele>378.0</ele><time>2026-04-18T18:57:39Z</time></trkpt><trkpt lat="46.394999672871265" lon="6.541465108827679"><ele>378.2</ele><time>2026-04-18T18:57:40Z</time></trkpt><trkpt lat="46.39500645392695" lon="6.541619953987577"><ele>378.4</ele><time>2026-04-18T18:57:41Z</time></trkpt><trkpt lat="46.395013029290446" lon="6.541773525925255"><ele>378.59999999999997</ele><time>2026-04-18T18:57:42Z</time></trkpt><trkpt lat="46.395020001135975" lon="6.541927951381683"><ele>378.79999999999995</ele><time>2026-04-18T18:57:43Z</time></trkpt><trkpt lat="46.39502569340144" lon="6.542089856905299"><ele>379.0</ele><time>2026-04-18T18:57:44Z</time></trkpt><trkpt lat="46.39500886321621" lon="6.542249454162621"><ele>379.0</ele><time>2026-04-18T18:57:45Z</time></trkpt><trkpt lat="46.39501806297291" lon="6.542402089559055"><ele>379.0</ele><time>2026-04-18T18:57:46Z</time></trkpt><trkpt lat="46.39499912741123" lon="6.542554535742103"><ele>379.0</ele><time>2026-04-18T18:57:47Z</time></trkpt><trkpt lat="46.394973906739864" lon="6.542698047876459"><ele>379.0</ele><time>2026-04-18T18:57:48Z</time></trkpt><trkpt lat="46.39494712978183" lon="6.5428527404785255"><ele>379.0</ele><time>2026-04-18T18:57:49Z</time></trkpt><trkpt lat="46.39492328510893" lon="6.543003103020735"><ele>378.6</ele><time>2026-04-18T18:57:50Z</time></trkpt><trkpt lat="46.394897353550604" lon="6.5431518212247575"><ele>378.2</ele><time>2026-04-18T18:57:51Z</time></trkpt><trkpt lat="46.39487529799838" lon="6.543291216779438"><ele>377.8</ele><time>2026-04-18T18:57:52Z</time></trkpt><trkpt lat="46.39485141392297" lon="6.543423777305591"><ele>377.40000000000003</ele><time>2026-04-18T18:57:53Z</time></trkpt><trkpt lat="46.394827355151804" lon="6.54355534499725"><ele>377.0</ele><time>2026-04-18T18:57:54Z</time></trkpt><trkpt lat="46.39479974836106" lon="6.543689057874841"><ele>377.20000000000005</ele><time>2026-04-18T18:57:54.999Z</time></trkpt><trkpt lat="46.39477341899203" lon="6.543833743943001"><ele>377.4</ele><time>2026-04-18T18:57:55.999Z</time></trkpt><trkpt lat="46.39474486640141" lon="6.543987217957198"><ele>377.6</ele><time>2026-04-18T18:57:56.999Z</time></trkpt><trkpt lat="46.39471602326993" lon="6.544138723952961"><ele>377.79999999999995</ele><time>2026-04-18T18:57:57.999Z</time></trkpt><trkpt lat="46.394686881164155" lon="6.5442895688857385"><ele>378.0</ele><time>2026-04-18T18:57:58.999Z</time></trkpt><trkpt lat="46.39466206330578" lon="6.544437987691093"><ele>378.25</ele><time>2026-04-18T18:57:59.999Z</time></trkpt><trkpt lat="46.39462948256878" lon="6.544600345508486"><ele>378.5</ele><time>2026-04-18T18:58:00.999Z</time></trkpt><trkpt lat="46.39460901207564" lon="6.5447894629877075"><ele>378.75</ele><time>2026-04-18T18:58:01.999Z</time></trkpt><trkpt lat="46.3945944247399" lon="6.5450057537383"><ele>379.0</ele><time>2026-04-18T18:58:02.999Z</time></trkpt><trkpt lat="46.394587858157614" lon="6.545253706990529"><ele>380.3333333333333</ele><time>2026-04-18T18:58:03.999Z</time></trkpt><trkpt lat="46.39460632153869" lon="6.54551086639214"><ele>381.6666666666667</ele><time>2026-04-18T18:58:04.999Z</time></trkpt><trkpt lat="46.39461163820881" lon="6.545782818046863"><ele>383.0</ele><time>2026-04-18T18:58:05.999Z</time></trkpt><trkpt lat="46.39462927455683" lon="6.546053365804131"><ele>384.33333333333337</ele><time>2026-04-18T18:58:06.999Z</time></trkpt><trkpt lat="46.39464995407481" lon="6.5463267550878275"><ele>385.6666666666667</ele><time>2026-04-18T18:58:07.999Z</time></trkpt><trkpt lat="46.394666193629796" lon="6.546603218896817"><ele>387.0</ele><time>2026-04-18T18:58:08.999Z</time></trkpt><trkpt lat="46.3946834384838" lon="6.5468765699475915"><ele>383.6666666666667</ele><time>2026-04-18T18:58:09.999Z</time></trkpt><trkpt lat="46.39469965556885" lon="6.547155955094191"><ele>380.33333333333337</ele><time>2026-04-18T18:58:10.999Z</time></trkpt><trkpt lat="46.39471694309602" lon="6.54743417455508"><ele>377.0</ele><time>2026-04-18T18:58:11.999Z</time></trkpt><trkpt lat="46.394733066161265" lon="6.5477157028980315"><ele>376.6666666666667</ele><time>2026-04-18T18:58:12.999Z</time></trkpt><trkpt lat="46.39475159466332" lon="6.547999653280878"><ele>376.3333333333333</ele><time>2026-04-18T18:58:13.999Z</time></trkpt><trkpt lat="46.39476801063285" lon="6.548287551985051"><ele>376.0</ele><time>2026-04-18T18:58:14.999Z</time></trkpt><trkpt lat="46.394784648927654" lon="6.548570786144097"><ele>377.3333333333333</ele><time>2026-04-18T18:58:15.999Z</time></trkpt><trkpt lat="46.394801140563985" lon="6.548850868625146"><ele>378.6666666666667</ele><time>2026-04-18T18:58:16.999Z</time></trkpt><trkpt lat="46.39482071887367" lon="6.549135793735597"><ele>380.0</ele><time>2026-04-18T18:58:17.999Z</time></trkpt><trkpt lat="46.39484076144818" lon="6.549422696802724"><ele>381.0</ele><time>2026-04-18T18:58:18.999Z</time></trkpt><trkpt lat="46.39485907854835" lon="6.549711224688382"><ele>382.0</ele><time>2026-04-18T18:58:19.999Z</time></trkpt><trkpt lat="46.3948789771233" lon="6.549996504052299"><ele>383.0</ele><time>2026-04-18T18:58:20.999Z</time></trkpt><trkpt lat="46.394896427991775" lon="6.550285294708798"><ele>383.6666666666667</ele><time>2026-04-18T18:58:21.999Z</time></trkpt><trkpt lat="46.394916146515634" lon="6.5505762673225965"><ele>384.33333333333337</ele><time>2026-04-18T18:58:22.999Z</time></trkpt><trkpt lat="46.39493767274215" lon="6.550875950655831"><ele>385.0</ele><time>2026-04-18T18:58:23.999Z</time></trkpt><trkpt lat="46.394959573821104" lon="6.551178830097634"><ele>386.33333333333337</ele><time>2026-04-18T18:58:24.999Z</time></trkpt><trkpt lat="46.394985382765135" lon="6.5514854033256045"><ele>387.66666666666663</ele><time>2026-04-18T18:58:25.999Z</time></trkpt><trkpt lat="46.39501193599209" lon="6.551792303103413"><ele>389.0</ele><time>2026-04-18T18:58:26.999Z</time></trkpt><trkpt lat="46.39504263844397" lon="6.5520989721689"><ele>391.0</ele><time>2026-04-18T18:58:27.999Z</time></trkpt><trkpt lat="46.39507641314088" lon="6.552395957954051"><ele>393.0</ele><time>2026-04-18T18:58:28.999Z</time></trkpt><trkpt lat="46.39511521110153" lon="6.552693216916014"><ele>395.0</ele><time>2026-04-18T18:58:29.999Z</time></trkpt><trkpt lat="46.39516362047079" lon="6.552991118895741"><ele>396.66666666666663</ele><time>2026-04-18T18:58:30.999Z</time></trkpt><trkpt lat="46.395218339465046" lon="6.553290613016239"><ele>398.33333333333337</ele><time>2026-04-18T18:58:31.999Z</time></trkpt><trkpt lat="46.395269401996224" lon="6.553587047162069"><ele>400.0</ele><time>2026-04-18T18:58:32.999Z</time></trkpt><trkpt lat="46.395323060955796" lon="6.553877150731989"><ele>400.6666666666667</ele><time>2026-04-18T18:58:33.999Z</time></trkpt><trkpt lat="46.39537152836185" lon="6.554169633979365"><ele>401.33333333333337</ele><time>2026-04-18T18:58:34.999Z</time></trkpt><trkpt lat="46.39542617740603" lon="6.554466757977476"><ele>402.0</ele><time>2026-04-18T18:58:35.999Z</time></trkpt><trkpt lat="46.39547948382448" lon="6.554765706129468"><ele>398.0</ele><time>2026-04-18T18:58:36.999Z</time></trkpt><trkpt lat="46.395530991249714" lon="6.555070829331073"><ele>394.0</ele><time>2026-04-18T18:58:37.999Z</time></trkpt><trkpt lat="46.39558761268682" lon="6.555383491318556"><ele>390.0</ele><time>2026-04-18T18:58:38.999Z</time></trkpt><trkpt lat="46.3956428534685" lon="6.555699178556554"><ele>390.0</ele><time>2026-04-18T18:58:39.999Z</time></trkpt><trkpt lat="46.39569823538742" lon="6.556002476012899"><ele>390.0</ele><time>2026-04-18T18:58:40.999Z</time></trkpt><trkpt lat="46.39574946178647" lon="6.556302838898919"><ele>390.0</ele><time>2026-04-18T18:58:41.999Z</time></trkpt><trkpt lat="46.39579750911992" lon="6.5565892801280485"><ele>391.0</ele><time>2026-04-18T18:58:42.999Z</time></trkpt><trkpt lat="46.395843173384186" lon="6.556886173232255"><ele>392.0</ele><time>2026-04-18T18:58:43.999Z</time></trkpt><trkpt lat="46.39589154502276" lon="6.557197955382265"><ele>393.0</ele><time>2026-04-18T18:58:44.999Z</time></trkpt><trkpt lat="46.39594154389135" lon="6.557513214499794"><ele>393.0</ele><time>2026-04-18T18:58:45.999Z</time></trkpt><trkpt lat="46.39599219851319" lon="6.557831727859933"><ele>393.0</ele><time>2026-04-18T18:58:46.999Z</time></trkpt><trkpt lat="46.39604478018468" lon="6.558154142046926"><ele>394.0</ele><time>2026-04-18T18:58:47.999Z</time></trkpt><trkpt lat="46.396090611175886" lon="6.558459409656791"><ele>395.0</ele><time>2026-04-18T18:58:48.999Z</time></trkpt><trkpt lat="46.39613622857093" lon="6.558739505212493"><ele>396.0</ele><time>2026-04-18T18:58:49.999Z</time></trkpt><trkpt lat="46.3961798978222" lon="6.559003853562963"><ele>397.33333333333337</ele><time>2026-04-18T18:58:50.999Z</time></trkpt><trkpt lat="46.39622045164893" lon="6.559267765112846"><ele>398.6666666666667</ele><time>2026-04-18T18:58:51.999Z</time></trkpt><trkpt lat="46.39625860086027" lon="6.559534240817417"><ele>400.0</ele><time>2026-04-18T18:58:52.999Z</time></trkpt><trkpt lat="46.39629264881735" lon="6.559797107477711"><ele>398.33333333333337</ele><time>2026-04-18T18:58:53.999Z</time></trkpt><trkpt lat="46.39633084028109" lon="6.560037993622429"><ele>396.66666666666663</ele><time>2026-04-18T18:58:54.999Z</time></trkpt><trkpt lat="46.3963684844284" lon="6.5602761764216515"><ele>395.0</ele><time>2026-04-18T18:58:55.999Z</time></trkpt><trkpt lat="46.39640078188037" lon="6.560524997662976"><ele>395.0</ele><time>2026-04-18T18:58:56.999Z</time></trkpt><trkpt lat="46.396437830247635" lon="6.560777362612978"><ele>395.0</ele><time>2026-04-18T18:58:57.999Z</time></trkpt><trkpt lat="46.396473687830145" lon="6.561014370271262"><ele>395.0</ele><time>2026-04-18T18:58:58.999Z</time></trkpt><trkpt lat="46.39650683209553" lon="6.561240446214937"><ele>396.3333333333333</ele><time>2026-04-18T18:58:59.999Z</time></trkpt><trkpt lat="46.39654158911863" lon="6.561491505750918"><ele>397.66666666666663</ele><time>2026-04-18T18:59:00.999Z</time></trkpt><trkpt lat="46.39658217989669" lon="6.561774996526012"><ele>399.0</ele><time>2026-04-18T18:59:01.998Z</time></trkpt><trkpt lat="46.396614563894175" lon="6.56208242555635"><ele>399.66666666666663</ele><time>2026-04-18T18:59:02.998Z</time></trkpt><trkpt lat="46.396674158765556" lon="6.562388465151668"><ele>400.3333333333333</ele><time>2026-04-18T18:59:03.998Z</time></trkpt><trkpt lat="46.39670309400801" lon="6.562699287014085"><ele>401.0</ele><time>2026-04-18T18:59:04.998Z</time></trkpt><trkpt lat="46.39674786042969" lon="6.563004932121213"><ele>401.3333333333333</ele><time>2026-04-18T18:59:05.998Z</time></trkpt><trkpt lat="46.396807462222704" lon="6.5633047705293555"><ele>401.66666666666663</ele><time>2026-04-18T18:59:06.998Z</time></trkpt><trkpt lat="46.39684764656705" lon="6.563592612379024"><ele>402.0</ele><time>2026-04-18T18:59:07.998Z</time></trkpt><trkpt lat="46.39688366342842" lon="6.5638654943221395"><ele>402.0</ele><time>2026-04-18T18:59:08.998Z</time></trkpt><trkpt lat="46.396922834746036" lon="6.564145121758843"><ele>402.0</ele><time>2026-04-18T18:59:09.998Z</time></trkpt><trkpt lat="46.396970568066465" lon="6.564438038507854"><ele>402.0</ele><time>2026-04-18T18:59:10.998Z</time></trkpt><trkpt lat="46.397021640810735" lon="6.564743301035069"><ele>402.0</ele><time>2026-04-18T18:59:11.998Z</time></trkpt><trkpt lat="46.39706249832177" lon="6.565051643392146"><ele>402.0</ele><time>2026-04-18T18:59:12.998Z</time></trkpt><trkpt lat="46.39709847848584" lon="6.565336635727456"><ele>402.0</ele><time>2026-04-18T18:59:13.998Z</time></trkpt><trkpt lat="46.39713483190514" lon="6.565596245568778"><ele>403.0</ele><time>2026-04-18T18:59:14.998Z</time></trkpt><trkpt lat="46.397168098492976" lon="6.56583639524362"><ele>404.0</ele><time>2026-04-18T18:59:15.998Z</time></trkpt><trkpt lat="46.39720013863712" lon="6.56606259726821"><ele>405.0</ele><time>2026-04-18T18:59:16.998Z</time></trkpt><trkpt lat="46.39723050280299" lon="6.566285621304538"><ele>400.33333333333337</ele><time>2026-04-18T18:59:17.998Z</time></trkpt><trkpt lat="46.39726281638725" lon="6.566516591520303"><ele>395.6666666666667</ele><time>2026-04-18T18:59:18.998Z</time></trkpt><trkpt lat="46.39729668427121" lon="6.5667474723190535"><ele>391.0</ele><time>2026-04-18T18:59:19.998Z</time></trkpt><trkpt lat="46.397333047023764" lon="6.566963357674037"><ele>391.5</ele><time>2026-04-18T18:59:20.998Z</time></trkpt><trkpt lat="46.39735782271341" lon="6.567165603673772"><ele>392.0</ele><time>2026-04-18T18:59:21.998Z</time></trkpt><trkpt lat="46.397383863484635" lon="6.567356848363873"><ele>392.5</ele><time>2026-04-18T18:59:22.998Z</time></trkpt><trkpt lat="46.397407783468694" lon="6.567543337008171"><ele>393.0</ele><time>2026-04-18T18:59:23.998Z</time></trkpt><trkpt lat="46.397431768515595" lon="6.567727257944228"><ele>394.25</ele><time>2026-04-18T18:59:24.998Z</time></trkpt><trkpt lat="46.39746144170088" lon="6.567918403373073"><ele>395.5</ele><time>2026-04-18T18:59:25.998Z</time></trkpt><trkpt lat="46.39749222771465" lon="6.568115591469948"><ele>396.75</ele><time>2026-04-18T18:59:26.998Z</time></trkpt><trkpt lat="46.39751895013181" lon="6.568304687935707"><ele>398.0</ele><time>2026-04-18T18:59:28Z</time></trkpt><trkpt lat="46.39754496494146" lon="6.568488931788763"><ele>398.0</ele><time>2026-04-18T18:59:29Z</time></trkpt><trkpt lat="46.39757098235506" lon="6.568684864806995"><ele>398.0</ele><time>2026-04-18T18:59:30Z</time></trkpt><trkpt lat="46.397598680538685" lon="6.5688798221396905"><ele>398.0</ele><time>2026-04-18T18:59:31Z</time></trkpt><trkpt lat="46.39762695236087" lon="6.569071820026131"><ele>398.0</ele><time>2026-04-18T18:59:32Z</time></trkpt><trkpt lat="46.39765121342878" lon="6.569252927930333"><ele>398.0</ele><time>2026-04-18T18:59:33Z</time></trkpt><trkpt lat="46.397677615791295" lon="6.569431581146061"><ele>398.0</ele><time>2026-04-18T18:59:34Z</time></trkpt><trkpt lat="46.39770200448916" lon="6.569608670580877"><ele>398.0</ele><time>2026-04-18T18:59:35Z</time></trkpt><trkpt lat="46.397730500266945" lon="6.569796287143987"><ele>398.0</ele><time>2026-04-18T18:59:36Z</time></trkpt><trkpt lat="46.39775480454246" lon="6.5699757130942515"><ele>398.5</ele><time>2026-04-18T18:59:37Z</time></trkpt><trkpt lat="46.39777836350551" lon="6.5701507448896175"><ele>399.0</ele><time>2026-04-18T18:59:38Z</time></trkpt><trkpt lat="46.397798739924234" lon="6.570316508004615"><ele>399.5</ele><time>2026-04-18T18:59:39Z</time></trkpt><trkpt lat="46.397820984459386" lon="6.570476510100689"><ele>400.0</ele><time>2026-04-18T18:59:40Z</time></trkpt><trkpt lat="46.39784402267017" lon="6.570637844377329"><ele>400.5</ele><time>2026-04-18T18:59:41Z</time></trkpt><trkpt lat="46.39786402643652" lon="6.570807130536"><ele>401.0</ele><time>2026-04-18T18:59:42Z</time></trkpt><trkpt lat="46.39788909132774" lon="6.57098671790665"><ele>401.5</ele><time>2026-04-18T18:59:43Z</time></trkpt><trkpt lat="46.39791242776575" lon="6.571171928700092"><ele>402.0</ele><time>2026-04-18T18:59:44Z</time></trkpt><trkpt lat="46.39793040588578" lon="6.5713456667752705"><ele>402.0</ele><time>2026-04-18T18:59:45Z</time></trkpt><trkpt lat="46.397936803838064" lon="6.571510536625313"><ele>402.0</ele><time>2026-04-18T18:59:46Z</time></trkpt><trkpt lat="46.397938080448895" lon="6.571667761861854"><ele>402.0</ele><time>2026-04-18T18:59:47Z</time></trkpt><trkpt lat="46.39793638317234" lon="6.571819648797247"><ele>402.0</ele><time>2026-04-18T18:59:48Z</time></trkpt><trkpt lat="46.39801404615009" lon="6.571951995840274"><ele>402.0</ele><time>2026-04-18T18:59:49Z</time></trkpt><trkpt lat="46.398038324473994" lon="6.572094328067375"><ele>400.1666666666667</ele><time>2026-04-18T18:59:50Z</time></trkpt><trkpt lat="46.39806305761055" lon="6.572222730765799"><ele>398.33333333333337</ele><time>2026-04-18T18:59:51Z</time></trkpt><trkpt lat="46.39808090099495" lon="6.572336276162069"><ele>396.5</ele><time>2026-04-18T18:59:52Z</time></trkpt><trkpt lat="46.39809280180581" lon="6.572436414066433"><ele>394.6666666666667</ele><time>2026-04-18T18:59:53Z</time></trkpt><trkpt lat="46.39809663374355" lon="6.572542245403795"><ele>392.83333333333337</ele><time>2026-04-18T18:59:54Z</time></trkpt><trkpt lat="46.39809154984649" lon="6.572634291615145"><ele>391.0</ele><time>2026-04-18T18:59:55Z</time></trkpt><trkpt lat="46.39807556313534" lon="6.5728166989605485"><ele>391.6</ele><time>2026-04-18T18:59:57Z</time></trkpt><trkpt lat="46.39808229685298" lon="6.572908799523916"><ele>392.20000000000005</ele><time>2026-04-18T18:59:58Z</time></trkpt><trkpt lat="46.39812056531438" lon="6.573059688441715"><ele>392.79999999999995</ele><time>2026-04-18T18:59:59.999Z</time></trkpt><trkpt lat="46.3982211500707" lon="6.573188304373003"><ele>393.4</ele><time>2026-04-18T19:00:01.999Z</time></trkpt><trkpt lat="46.39826027352272" lon="6.57334086909085"><ele>394.0</ele><time>2026-04-18T19:00:03.999Z</time></trkpt><trkpt lat="46.398280422757466" lon="6.573442894292557"><ele>394.00000000000006</ele><time>2026-04-18T19:00:04.999Z</time></trkpt><trkpt lat="46.39829957297828" lon="6.573560633294702"><ele>394.0</ele><time>2026-04-18T19:00:05.999Z</time></trkpt><trkpt lat="46.398317825617745" lon="6.573688061555489"><ele>394.0</ele><time>2026-04-18T19:00:06.999Z</time></trkpt><trkpt lat="46.39833367884536" lon="6.573823824911244"><ele>394.0</ele><time>2026-04-18T19:00:07.999Z</time></trkpt><trkpt lat="46.39835451975365" lon="6.573949028427733"><ele>394.00000000000006</ele><time>2026-04-18T19:00:08.999Z</time></trkpt><trkpt lat="46.398376775031096" lon="6.574076687783976"><ele>394.0</ele><time>2026-04-18T19:00:09.999Z</time></trkpt><trkpt lat="46.398394466702776" lon="6.574194190940193"><ele>394.1666666666667</ele><time>2026-04-18T19:00:10.999Z</time></trkpt><trkpt lat="46.39840867734451" lon="6.574307742808797"><ele>394.33333333333337</ele><time>2026-04-18T19:00:11.999Z</time></trkpt><trkpt lat="46.398424757384575" lon="6.5744175023328095"><ele>394.5</ele><time>2026-04-18T19:00:12.999Z</time></trkpt><trkpt lat="46.39844060335979" lon="6.574538458582589"><ele>394.66666666666663</ele><time>2026-04-18T19:00:13.999Z</time></trkpt><trkpt lat="46.39845629631508" lon="6.574673364714288"><ele>394.8333333333333</ele><time>2026-04-18T19:00:14.999Z</time></trkpt><trkpt lat="46.398478287068514" lon="6.574825420284137"><ele>395.0</ele><time>2026-04-18T19:00:15.999Z</time></trkpt><trkpt lat="46.398500123200094" lon="6.574968724154886"><ele>395.8333333333333</ele><time>2026-04-18T19:00:16.999Z</time></trkpt><trkpt lat="46.398515738286186" lon="6.575094656482056"><ele>396.66666666666663</ele><time>2026-04-18T19:00:17.999Z</time></trkpt><trkpt lat="46.398532754268906" lon="6.575211529382849"><ele>397.5</ele><time>2026-04-18T19:00:18.999Z</time></trkpt><trkpt lat="46.39855323047113" lon="6.57532634173928"><ele>398.33333333333337</ele><time>2026-04-18T19:00:19.999Z</time></trkpt><trkpt lat="46.39856951954811" lon="6.575446118946733"><ele>399.1666666666667</ele><time>2026-04-18T19:00:20.999Z</time></trkpt><trkpt lat="46.39858698932672" lon="6.575568586357504"><ele>400.0</ele><time>2026-04-18T19:00:21.999Z</time></trkpt><trkpt lat="46.398602290511505" lon="6.575693359339934"><ele>401.00000000000006</ele><time>2026-04-18T19:00:22.999Z</time></trkpt><trkpt lat="46.398619678725105" lon="6.575830554724501"><ele>402.0</ele><time>2026-04-18T19:00:23.999Z</time></trkpt><trkpt lat="46.39863656614242" lon="6.5759602130307115"><ele>403.0</ele><time>2026-04-18T19:00:24.999Z</time></trkpt><trkpt lat="46.39865855979521" lon="6.5760822973193065"><ele>404.0</ele><time>2026-04-18T19:00:25.999Z</time></trkpt><trkpt lat="46.39867808630445" lon="6.576198913137043"><ele>405.00000000000006</ele><time>2026-04-18T19:00:26.999Z</time></trkpt><trkpt lat="46.39870435472801" lon="6.576309005015787"><ele>406.0</ele><time>2026-04-18T19:00:27.999Z</time></trkpt><trkpt lat="46.398734274106715" lon="6.5764086392092445"><ele>406.00000000000006</ele><time>2026-04-18T19:00:28.999Z</time></trkpt><trkpt lat="46.39876546964491" lon="6.576499138322864"><ele>406.0</ele><time>2026-04-18T19:00:29.999Z</time></trkpt><trkpt lat="46.39879879027303" lon="6.576592008488705"><ele>406.0</ele><time>2026-04-18T19:00:30.999Z</time></trkpt><trkpt lat="46.398826182687614" lon="6.576690569691568"><ele>406.0</ele><time>2026-04-18T19:00:31.999Z</time></trkpt><trkpt lat="46.398841345774095" lon="6.576791093589515"><ele>406.00000000000006</ele><time>2026-04-18T19:00:32.999Z</time></trkpt><trkpt lat="46.3988431774842" lon="6.576887756512396"><ele>406.0</ele><time>2026-04-18T19:00:33.999Z</time></trkpt><trkpt lat="46.398792488263794" lon="6.577056838108527"><ele>406.0</ele><time>2026-04-18T19:00:35.999Z</time></trkpt><trkpt lat="46.398769983614486" lon="6.577143600907227"><ele>406.0</ele><time>2026-04-18T19:00:36.999Z</time></trkpt><trkpt lat="46.398763642986374" lon="6.577255909580851"><ele>406.0</ele><time>2026-04-18T19:00:37.999Z</time></trkpt><trkpt lat="46.398790314601904" lon="6.577360541674196"><ele>406.0</ele><time>2026-04-18T19:00:38.999Z</time></trkpt><trkpt lat="46.398824126279926" lon="6.577463781188853"><ele>406.0</ele><time>2026-04-18T19:00:39.999Z</time></trkpt><trkpt lat="46.39885073206107" lon="6.577561058828697"><ele>406.0</ele><time>2026-04-18T19:00:40.999Z</time></trkpt><trkpt lat="46.39887042199604" lon="6.577659446450629"><ele>406.0</ele><time>2026-04-18T19:00:41.999Z</time></trkpt><trkpt lat="46.39888272934454" lon="6.577756748768212"><ele>404.00000000000006</ele><time>2026-04-18T19:00:42.999Z</time></trkpt><trkpt lat="46.39889597172399" lon="6.577856553524707"><ele>402.0</ele><time>2026-04-18T19:00:43.999Z</time></trkpt><trkpt lat="46.39891429158513" lon="6.577967572507617"><ele>400.0</ele><time>2026-04-18T19:00:44.999Z</time></trkpt><trkpt lat="46.39893372190006" lon="6.578086132701765"><ele>398.0</ele><time>2026-04-18T19:00:45.999Z</time></trkpt><trkpt lat="46.398947122611055" lon="6.578209191325459"><ele>396.00000000000006</ele><time>2026-04-18T19:00:46.999Z</time></trkpt><trkpt lat="46.39896101891778" lon="6.578340261265782"><ele>394.0</ele><time>2026-04-18T19:00:47.999Z</time></trkpt><trkpt lat="46.398976121926104" lon="6.578469701433153"><ele>394.0</ele><time>2026-04-18T19:00:48.999Z</time></trkpt><trkpt lat="46.39899575208798" lon="6.578612243354439"><ele>394.0</ele><time>2026-04-18T19:00:49.999Z</time></trkpt><trkpt lat="46.399018365359275" lon="6.578764296549284"><ele>394.0</ele><time>2026-04-18T19:00:50.999Z</time></trkpt><trkpt lat="46.39904213868182" lon="6.57893230779533"><ele>394.0</ele><time>2026-04-18T19:00:51.999Z</time></trkpt><trkpt lat="46.39906465600541" lon="6.579098956048898"><ele>394.0</ele><time>2026-04-18T19:00:52.999Z</time></trkpt><trkpt lat="46.3990881673871" lon="6.579254936384814"><ele>394.2</ele><time>2026-04-18T19:00:53.999Z</time></trkpt><trkpt lat="46.39910962516909" lon="6.5794006695900675"><ele>394.4</ele><time>2026-04-18T19:00:54.999Z</time></trkpt><trkpt lat="46.39912985618816" lon="6.579537985362786"><ele>394.6</ele><time>2026-04-18T19:00:55.999Z</time></trkpt><trkpt lat="46.399148046517624" lon="6.579671705397988"><ele>394.8</ele><time>2026-04-18T19:00:56.999Z</time></trkpt><trkpt lat="46.39916602037074" lon="6.579801580811147"><ele>395.0</ele><time>2026-04-18T19:00:57.999Z</time></trkpt><trkpt lat="46.399183260102696" lon="6.579925599591079"><ele>394.99999999999994</ele><time>2026-04-18T19:00:58.999Z</time></trkpt><trkpt lat="46.399200307441106" lon="6.580046912504858"><ele>395.0</ele><time>2026-04-18T19:00:59.999Z</time></trkpt><trkpt lat="46.399217526541115" lon="6.580170271999782"><ele>395.0</ele><time>2026-04-18T19:01:00.999Z</time></trkpt><trkpt lat="46.39923429921146" lon="6.580295151922385"><ele>395.0</ele><time>2026-04-18T19:01:01.999Z</time></trkpt><trkpt lat="46.399252587613965" lon="6.5804178879893644"><ele>394.99999999999994</ele><time>2026-04-18T19:01:02.999Z</time></trkpt><trkpt lat="46.39926545428419" lon="6.58053322745872"><ele>395.0</ele><time>2026-04-18T19:01:03.999Z</time></trkpt><trkpt lat="46.39928023896612" lon="6.580641744194964"><ele>394.8333333333333</ele><time>2026-04-18T19:01:04.999Z</time></trkpt><trkpt lat="46.399297423827704" lon="6.58074426456431"><ele>394.66666666666663</ele><time>2026-04-18T19:01:05.998Z</time></trkpt><trkpt lat="46.39931245437125" lon="6.580852268133293"><ele>394.5</ele><time>2026-04-18T19:01:06.998Z</time></trkpt><trkpt lat="46.399320851022345" lon="6.580951454522995"><ele>394.33333333333337</ele><time>2026-04-18T19:01:07.998Z</time></trkpt><trkpt lat="46.39932521854745" lon="6.5810700426336"><ele>394.1666666666667</ele><time>2026-04-18T19:01:08.998Z</time></trkpt><trkpt lat="46.39931668514292" lon="6.581181216857334"><ele>394.0</ele><time>2026-04-18T19:01:09.998Z</time></trkpt><trkpt lat="46.39930380762112" lon="6.581292225343583"><ele>394.00000000000006</ele><time>2026-04-18T19:01:10.998Z</time></trkpt><trkpt lat="46.3992971458447" lon="6.581393571956254"><ele>394.0</ele><time>2026-04-18T19:01:11.998Z</time></trkpt><trkpt lat="46.39928777020311" lon="6.581491430670594"><ele>394.0</ele><time>2026-04-18T19:01:12.998Z</time></trkpt><trkpt lat="46.39927887021337" lon="6.581591041734005"><ele>394.0</ele><time>2026-04-18T19:01:13.998Z</time></trkpt><trkpt lat="46.39927012139569" lon="6.581707955043965"><ele>394.00000000000006</ele><time>2026-04-18T19:01:14.998Z</time></trkpt><trkpt lat="46.39926109808537" lon="6.581831560908429"><ele>394.0</ele><time>2026-04-18T19:01:15.998Z</time></trkpt><trkpt lat="46.39925189603966" lon="6.581953707430677"><ele>394.33333333333337</ele><time>2026-04-18T19:01:16.998Z</time></trkpt><trkpt lat="46.399241418910194" lon="6.582075206597807"><ele>394.6666666666667</ele><time>2026-04-18T19:01:17.998Z</time></trkpt><trkpt lat="46.399231705072644" lon="6.582197683587156"><ele>395.0</ele><time>2026-04-18T19:01:18.998Z</time></trkpt><trkpt lat="46.39922113889132" lon="6.582322415066927"><ele>395.33333333333337</ele><time>2026-04-18T19:01:19.998Z</time></trkpt><trkpt lat="46.39921469881105" lon="6.582455014651557"><ele>395.6666666666667</ele><time>2026-04-18T19:01:20.998Z</time></trkpt><trkpt lat="46.39920379592393" lon="6.582567888992375"><ele>396.0</ele><time>2026-04-18T19:01:21.998Z</time></trkpt><trkpt lat="46.39918685813956" lon="6.582702612949472"><ele>396.0</ele><time>2026-04-18T19:01:22.998Z</time></trkpt><trkpt lat="46.39916515731036" lon="6.582842008609636"><ele>396.0</ele><time>2026-04-18T19:01:23.998Z</time></trkpt><trkpt lat="46.399154780385196" lon="6.58299339511248"><ele>396.0</ele><time>2026-04-18T19:01:24.998Z</time></trkpt><trkpt lat="46.39914821809958" lon="6.583146877079189"><ele>396.0</ele><time>2026-04-18T19:01:25.998Z</time></trkpt><trkpt lat="46.39914325625676" lon="6.58330104468294"><ele>396.0</ele><time>2026-04-18T19:01:26.998Z</time></trkpt><trkpt lat="46.399144640741575" lon="6.5834510640036115"><ele>396.6</ele><time>2026-04-18T19:01:27.998Z</time></trkpt><trkpt lat="46.39915406070285" lon="6.5836143892958905"><ele>397.20000000000005</ele><time>2026-04-18T19:01:28.998Z</time></trkpt><trkpt lat="46.39916439187738" lon="6.583763446807685"><ele>397.79999999999995</ele><time>2026-04-18T19:01:29.998Z</time></trkpt><trkpt lat="46.399176980088384" lon="6.583901968227569"><ele>398.4</ele><time>2026-04-18T19:01:30.998Z</time></trkpt><trkpt lat="46.39918808318445" lon="6.584032969458158"><ele>399.0</ele><time>2026-04-18T19:01:31.998Z</time></trkpt><trkpt lat="46.399197934729116" lon="6.584159565354577"><ele>399.5</ele><time>2026-04-18T19:01:32.998Z</time></trkpt><trkpt lat="46.39920950474704" lon="6.584287750606919"><ele>400.0</ele><time>2026-04-18T19:01:34Z</time></trkpt><trkpt lat="46.39922631917636" lon="6.584421607970427"><ele>400.5</ele><time>2026-04-18T19:01:35Z</time></trkpt><trkpt lat="46.39923974346759" lon="6.5845519567157815"><ele>401.0</ele><time>2026-04-18T19:01:36Z</time></trkpt><trkpt lat="46.399250832645734" lon="6.584680345537804"><ele>401.5</ele><time>2026-04-18T19:01:37Z</time></trkpt><trkpt lat="46.39926307726862" lon="6.584796817458038"><ele>402.0</ele><time>2026-04-18T19:01:38Z</time></trkpt><trkpt lat="46.399277014264264" lon="6.584908561134686"><ele>402.20000000000005</ele><time>2026-04-18T19:01:39Z</time></trkpt><trkpt lat="46.39929041960645" lon="6.5850083122969725"><ele>402.4</ele><time>2026-04-18T19:01:40Z</time></trkpt><trkpt lat="46.39930194238313" lon="6.585101366702887"><ele>402.6</ele><time>2026-04-18T19:01:41Z</time></trkpt><trkpt lat="46.399296458825376" lon="6.585265437002044"><ele>402.79999999999995</ele><time>2026-04-18T19:01:43Z</time></trkpt><trkpt lat="46.3992568631993" lon="6.585354106073996"><ele>403.0</ele><time>2026-04-18T19:01:45Z</time></trkpt><trkpt lat="46.39912982362656" lon="6.58528958047516"><ele>403.00000000000006</ele><time>2026-04-18T19:01:47Z</time></trkpt><trkpt lat="46.39906319394704" lon="6.585262174212179"><ele>403.0</ele><time>2026-04-18T19:01:48Z</time></trkpt><trkpt lat="46.398988926860994" lon="6.5852488689107815"><ele>403.0</ele><time>2026-04-18T19:01:49Z</time></trkpt><trkpt lat="46.39890692751557" lon="6.585214682104537"><ele>403.0</ele><time>2026-04-18T19:01:50Z</time></trkpt><trkpt lat="46.39882940489279" lon="6.585153513234747"><ele>403.00000000000006</ele><time>2026-04-18T19:01:51Z</time></trkpt><trkpt lat="46.398736272533135" lon="6.585100105292741"><ele>403.0</ele><time>2026-04-18T19:01:52Z</time></trkpt><trkpt lat="46.39864410159475" lon="6.585041051776044"><ele>406.0</ele><time>2026-04-18T19:01:53Z</time></trkpt><trkpt lat="46.3985496522743" lon="6.584995053344336"><ele>409.0</ele><time>2026-04-18T19:01:54Z</time></trkpt><trkpt lat="46.39847852677486" lon="6.584913988331519"><ele>412.0</ele><time>2026-04-18T19:01:55Z</time></trkpt><trkpt lat="46.39845010530933" lon="6.584804902701059"><ele>415.0</ele><time>2026-04-18T19:01:56Z</time></trkpt><trkpt lat="46.39838824083019" lon="6.584695506171537"><ele>418.0</ele><time>2026-04-18T19:01:57Z</time></trkpt><trkpt lat="46.39835863124934" lon="6.5845741974013645"><ele>417.85714285714283</ele><time>2026-04-18T19:01:58Z</time></trkpt><trkpt lat="46.39831959551654" lon="6.58447265909314"><ele>417.71428571428567</ele><time>2026-04-18T19:01:59Z</time></trkpt><trkpt lat="46.398287765633064" lon="6.5843894840554285"><ele>417.57142857142856</ele><time>2026-04-18T19:02:00Z</time></trkpt><trkpt lat="46.39825442298754" lon="6.5843023560013245"><ele>417.42857142857144</ele><time>2026-04-18T19:02:01Z</time></trkpt><trkpt lat="46.39821884695811" lon="6.584210346805057"><ele>417.2857142857143</ele><time>2026-04-18T19:02:02Z</time></trkpt><trkpt lat="46.398181431404765" lon="6.584113934811984"><ele>417.14285714285717</ele><time>2026-04-18T19:02:03Z</time></trkpt><trkpt lat="46.3981494265433" lon="6.584031465009132"><ele>417.0</ele><time>2026-04-18T19:02:03.999Z</time></trkpt><trkpt lat="46.398118360761565" lon="6.583951414992646"><ele>417.0</ele><time>2026-04-18T19:02:04.999Z</time></trkpt><trkpt lat="46.398083761169396" lon="6.583862259134256"><ele>417.0</ele><time>2026-04-18T19:02:05.999Z</time></trkpt><trkpt lat="46.39803577857608" lon="6.583785591815445"><ele>417.0</ele><time>2026-04-18T19:02:06.999Z</time></trkpt><trkpt lat="46.39801963681379" lon="6.5836965107414445"><ele>417.0</ele><time>2026-04-18T19:02:07.999Z</time></trkpt><trkpt lat="46.39795417104417" lon="6.583555488052686"><ele>417.0</ele><time>2026-04-18T19:02:09.999Z</time></trkpt><trkpt lat="46.397906971985655" lon="6.583408401850986"><ele>417.0</ele><time>2026-04-18T19:02:11.999Z</time></trkpt><trkpt lat="46.39783455069362" lon="6.583348051607611"><ele>420.20000000000005</ele><time>2026-04-18T19:02:12.999Z</time></trkpt><trkpt lat="46.39774290825975" lon="6.583334310122095"><ele>423.4</ele><time>2026-04-18T19:02:13.999Z</time></trkpt><trkpt lat="46.3976473330683" lon="6.583348345625091"><ele>426.59999999999997</ele><time>2026-04-18T19:02:14.999Z</time></trkpt><trkpt lat="46.39754685053234" lon="6.583366009906488"><ele>429.79999999999995</ele><time>2026-04-18T19:02:15.999Z</time></trkpt><trkpt lat="46.397463454881134" lon="6.583286096559421"><ele>433.0</ele><time>2026-04-18T19:02:16.999Z</time></trkpt><trkpt lat="46.3973568162264" lon="6.58323449323232"><ele>433.00000000000006</ele><time>2026-04-18T19:02:17.999Z</time></trkpt><trkpt lat="46.3972613558726" lon="6.583165409120402"><ele>433.0</ele><time>2026-04-18T19:02:18.999Z</time></trkpt><trkpt lat="46.39717038931672" lon="6.583119862023313"><ele>433.0</ele><time>2026-04-18T19:02:19.999Z</time></trkpt><trkpt lat="46.39710380399876" lon="6.583089114230552"><ele>433.0</ele><time>2026-04-18T19:02:20.999Z</time></trkpt><trkpt lat="46.39704187501103" lon="6.583059474457037"><ele>433.00000000000006</ele><time>2026-04-18T19:02:21.999Z</time></trkpt><trkpt lat="46.39697200406123" lon="6.583008708880213"><ele>433.0</ele><time>2026-04-18T19:02:23.999Z</time></trkpt><trkpt lat="46.396947349082915" lon="6.583265059671191"><ele>436.00000000000006</ele><time>2026-04-18T19:02:25.999Z</time></trkpt><trkpt lat="46.39695751465776" lon="6.583363259638577"><ele>439.0</ele><time>2026-04-18T19:02:26.999Z</time></trkpt><trkpt lat="46.39696243598719" lon="6.583491142567692"><ele>442.0</ele><time>2026-04-18T19:02:27.999Z</time></trkpt><trkpt lat="46.39696090971818" lon="6.583615162554999"><ele>445.0</ele><time>2026-04-18T19:02:28.999Z</time></trkpt><trkpt lat="46.39695559273079" lon="6.583731490871819"><ele>448.00000000000006</ele><time>2026-04-18T19:02:29.999Z</time></trkpt><trkpt lat="46.39695425932119" lon="6.583824056593835"><ele>451.0</ele><time>2026-04-18T19:02:30.999Z</time></trkpt><trkpt lat="46.39694274713813" lon="6.58397299425427"><ele>451.33333333333337</ele><time>2026-04-18T19:02:32.999Z</time></trkpt><trkpt lat="46.396938891602495" lon="6.584068740606313"><ele>451.6666666666667</ele><time>2026-04-18T19:02:34.999Z</time></trkpt><trkpt lat="46.39692917237337" lon="6.5841608267987395"><ele>452.0</ele><time>2026-04-18T19:02:38.999Z</time></trkpt><trkpt lat="46.39701533126055" lon="6.584313377416964"><ele>452.33333333333337</ele><time>2026-04-18T19:02:40.999Z</time></trkpt><trkpt lat="46.39708142537804" lon="6.584363424548397"><ele>452.6666666666667</ele><time>2026-04-18T19:02:42.999Z</time></trkpt><trkpt lat="46.39715469707193" lon="6.584375410691598"><ele>453.0</ele><time>2026-04-18T19:02:44.999Z</time></trkpt><trkpt lat="46.39703805994266" lon="6.5843891403838395"><ele>453.0</ele><time>2026-04-18T19:02:45.999Z</time></trkpt><trkpt lat="46.397206344869566" lon="6.584322329605639"><ele>452.99999999999994</ele><time>2026-04-18T19:02:47.999Z</time></trkpt><trkpt lat="46.397170681487864" lon="6.5842150052874615"><ele>452.99999999999994</ele><time>2026-04-18T19:03:25.998Z</time></trkpt><trkpt lat="46.39711564655721" lon="6.584165488653259"><ele>453.0</ele><time>2026-04-18T19:03:29.998Z</time></trkpt><trkpt lat="46.397118083397956" lon="6.584281921320101"><ele>453.0</ele><time>2026-04-18T19:03:39Z</time></trkpt><trkpt lat="46.397149018052765" lon="6.584424638530493"><ele>452.99999999999994</ele><time>2026-04-18T19:04:35.999Z</time></trkpt><trkpt lat="46.397149565319324" lon="6.584528261860525"><ele>453.0</ele><time>2026-04-18T19:04:41.999Z</time></trkpt><trkpt lat="46.397198408047466" lon="6.5844631963018525"><ele>452.99999999999994</ele><time>2026-04-18T19:04:46.999Z</time></trkpt><trkpt lat="46.397176433043725" lon="6.584374394390436"><ele>452.99999999999994</ele><time>2026-04-18T19:04:52.999Z</time></trkpt><trkpt lat="46.39715315097285" lon="6.584281307909154"><ele>453.0</ele><time>2026-04-18T19:04:56.999Z</time></trkpt><trkpt lat="46.39719083577409" lon="6.58418930993107"><ele>452.99999999999994</ele><time>2026-04-18T19:05:18.998Z</time></trkpt><trkpt lat="46.3972051201018" lon="6.584285595077744"><ele>452.99999999999994</ele><time>2026-04-18T19:06:04Z</time></trkpt><trkpt lat="46.39714462705573" lon="6.58435628312573"><ele>452.99999999999994</ele><time>2026-04-18T19:06:22.999Z</time></trkpt><trkpt lat="46.39707587237489" lon="6.584384465562778"><ele>453.0</ele><time>2026-04-18T19:06:30.999Z</time></trkpt><trkpt lat="46.3970366129309" lon="6.584306181148986"><ele>452.99999999999994</ele><time>2026-04-18T19:06:38.999Z</time></trkpt><trkpt lat="46.39702751745583" lon="6.584215626340557"><ele>452.99999999999994</ele><time>2026-04-18T19:06:44.999Z</time></trkpt><trkpt lat="46.39699082236117" lon="6.584139669054581"><ele>453.0</ele><time>2026-04-18T19:06:52.999Z</time></trkpt><trkpt lat="46.39693974452962" lon="6.584084978734341"><ele>452.99999999999994</ele><time>2026-04-18T19:06:59.999Z</time></trkpt><trkpt lat="46.39694727851365" lon="6.583992011028879"><ele>452.99999999999994</ele><time>2026-04-18T19:08:41.999Z</time></trkpt><trkpt lat="46.39695442048494" lon="6.5838981642222"><ele>453.0</ele><time>2026-04-18T19:08:45.999Z</time></trkpt><trkpt lat="46.396959972754715" lon="6.583768263246083"><ele>452.99999999999994</ele><time>2026-04-18T19:08:48.999Z</time></trkpt><trkpt lat="46.39696453237045" lon="6.5836518322893385"><ele>452.99999999999994</ele><time>2026-04-18T19:08:50.999Z</time></trkpt><trkpt lat="46.39696697049523" lon="6.583501243171483"><ele>453.0</ele><time>2026-04-18T19:08:52.999Z</time></trkpt><trkpt lat="46.39698691422675" lon="6.583354250923765"><ele>453.0</ele><time>2026-04-18T19:08:54.999Z</time></trkpt><trkpt lat="46.39698744166283" lon="6.583219803747182"><ele>452.59999999999997</ele><time>2026-04-18T19:08:56.999Z</time></trkpt><trkpt lat="46.39697559724875" lon="6.583123303866989"><ele>452.19999999999993</ele><time>2026-04-18T19:08:58.999Z</time></trkpt><trkpt lat="46.39698943206825" lon="6.583018580883331"><ele>451.8</ele><time>2026-04-18T19:09:01.999Z</time></trkpt><trkpt lat="46.39687816336031" lon="6.582973744844338"><ele>451.4</ele><time>2026-04-18T19:09:02.999Z</time></trkpt><trkpt lat="46.396764357347" lon="6.582893379805302"><ele>451.0</ele><time>2026-04-18T19:09:04.999Z</time></trkpt><trkpt lat="46.39669483763148" lon="6.582814417141083"><ele>450.20000000000005</ele><time>2026-04-18T19:09:05.999Z</time></trkpt><trkpt lat="46.39662651583262" lon="6.58271898375249"><ele>449.40000000000003</ele><time>2026-04-18T19:09:06.999Z</time></trkpt><trkpt lat="46.39654640896311" lon="6.582603516321818"><ele>448.6</ele><time>2026-04-18T19:09:07.999Z</time></trkpt><trkpt lat="46.39646278099664" lon="6.582481091411681"><ele>447.8</ele><time>2026-04-18T19:09:08.999Z</time></trkpt><trkpt lat="46.396385236719524" lon="6.5823761242016365"><ele>447.0</ele><time>2026-04-18T19:09:09.999Z</time></trkpt><trkpt lat="46.39631279091528" lon="6.582264599520921"><ele>451.0</ele><time>2026-04-18T19:09:10.999Z</time></trkpt><trkpt lat="46.39624779508933" lon="6.5821498340486455"><ele>455.00000000000006</ele><time>2026-04-18T19:09:11.999Z</time></trkpt><trkpt lat="46.39618296951196" lon="6.582024813055442"><ele>459.00000000000006</ele><time>2026-04-18T19:09:12.999Z</time></trkpt><trkpt lat="46.39611568884331" lon="6.581892686750208"><ele>463.0</ele><time>2026-04-18T19:09:13.999Z</time></trkpt><trkpt lat="46.39604400244016" lon="6.5817661360312565"><ele>467.0</ele><time>2026-04-18T19:09:14.999Z</time></trkpt><trkpt lat="46.39596722843594" lon="6.581650401917834"><ele>467.0</ele><time>2026-04-18T19:09:15.999Z</time></trkpt><trkpt lat="46.39586912981767" lon="6.581558514768824"><ele>467.0</ele><time>2026-04-18T19:09:16.999Z</time></trkpt><trkpt lat="46.395770227541476" lon="6.581468856088857"><ele>467.0</ele><time>2026-04-18T19:09:17.999Z</time></trkpt><trkpt lat="46.395670783887475" lon="6.581378026689707"><ele>467.0</ele><time>2026-04-18T19:09:18.999Z</time></trkpt><trkpt lat="46.395545985583766" lon="6.581332096032547"><ele>469.20000000000005</ele><time>2026-04-18T19:09:19.999Z</time></trkpt><trkpt lat="46.39543526068243" lon="6.581260535467443"><ele>471.40000000000003</ele><time>2026-04-18T19:09:20.999Z</time></trkpt><trkpt lat="46.39533597722608" lon="6.581208952057022"><ele>473.59999999999997</ele><time>2026-04-18T19:09:21.999Z</time></trkpt><trkpt lat="46.395243482252624" lon="6.581155103954276"><ele>475.79999999999995</ele><time>2026-04-18T19:09:22.999Z</time></trkpt><trkpt lat="46.39515685907965" lon="6.5810907452842455"><ele>478.0</ele><time>2026-04-18T19:09:23.999Z</time></trkpt><trkpt lat="46.39506554647718" lon="6.581056234132812"><ele>478.0</ele><time>2026-04-18T19:09:24.999Z</time></trkpt><trkpt lat="46.394967009255474" lon="6.58103291539789"><ele>477.99999999999994</ele><time>2026-04-18T19:09:25.999Z</time></trkpt><trkpt lat="46.39486667442885" lon="6.581017578911943"><ele>477.99999999999994</ele><time>2026-04-18T19:09:26.998Z</time></trkpt><trkpt lat="46.394757792345075" lon="6.581007453119331"><ele>478.0</ele><time>2026-04-18T19:09:27.998Z</time></trkpt><trkpt lat="46.39464762139388" lon="6.580994308444898"><ele>478.0</ele><time>2026-04-18T19:09:28.998Z</time></trkpt><trkpt lat="46.39453592937635" lon="6.581003881828632"><ele>480.25</ele><time>2026-04-18T19:09:29.998Z</time></trkpt><trkpt lat="46.39443705823319" lon="6.5809267209069935"><ele>482.5</ele><time>2026-04-18T19:09:30.998Z</time></trkpt><trkpt lat="46.39433400104582" lon="6.580848681544479"><ele>484.75</ele><time>2026-04-18T19:09:31.998Z</time></trkpt><trkpt lat="46.394240865582354" lon="6.580739449519304"><ele>487.0</ele><time>2026-04-18T19:09:32.998Z</time></trkpt><trkpt lat="46.39414964352556" lon="6.580627814445804"><ele>487.0</ele><time>2026-04-18T19:09:33.998Z</time></trkpt><trkpt lat="46.394063619175085" lon="6.580546071804475"><ele>487.00000000000006</ele><time>2026-04-18T19:09:34.998Z</time></trkpt><trkpt lat="46.39398514327015" lon="6.580453258205284"><ele>487.00000000000006</ele><time>2026-04-18T19:09:35.998Z</time></trkpt><trkpt lat="46.39387758761708" lon="6.580426007005501"><ele>487.0</ele><time>2026-04-18T19:09:36.998Z</time></trkpt><trkpt lat="46.39378239234023" lon="6.580391148382783"><ele>487.0</ele><time>2026-04-18T19:09:37.998Z</time></trkpt><trkpt lat="46.39369941928407" lon="6.580355354875647"><ele>489.6</ele><time>2026-04-18T19:09:38.998Z</time></trkpt><trkpt lat="46.3936337174519" lon="6.580298821937139"><ele>492.20000000000005</ele><time>2026-04-18T19:09:39.998Z</time></trkpt><trkpt lat="46.3935679079248" lon="6.5802234211490775"><ele>494.8</ele><time>2026-04-18T19:09:40.998Z</time></trkpt><trkpt lat="46.39354008630955" lon="6.58009436740411"><ele>497.4</ele><time>2026-04-18T19:09:41.998Z</time></trkpt><trkpt lat="46.393503771630655" lon="6.579963095865174"><ele>500.0</ele><time>2026-04-18T19:09:42.998Z</time></trkpt><trkpt lat="46.393470498872546" lon="6.579819613030192"><ele>500.0</ele><time>2026-04-18T19:09:43.998Z</time></trkpt></trkseg></trk></gpx>